<?xml version="1.0" encoding="UTF-8"?>
<gpx version="1.1" creator="https://www.youtrack.es" xsi:schemaLocation="http://www.topografix.com/GPX/1/1 http://www.topografix.com/GPX/1/1/gpx.xsd http://www.garmin.com/xmlschemas/GpxExtensions/v3 http://www.garmin.com/xmlschemas/GpxExtensionsv3.xsd http://www.garmin.com/xmlschemas/TrackPointExtension/v1 http://www.garmin.com/xmlschemas/TrackPointExtensionv1.xsd" xmlns:gpxtpx="http://www.garmin.com/xmlschemas/TrackPointExtension/v1" xmlns:gpxx="http://www.garmin.com/xmlschemas/GpxExtensions/v3" xmlns:xsi="http://www.w3.org/2001/XMLSchema-instance">
  <metadata>
    <link href="https://www.youtrack.es">
      <text>YouTrack.es</text>
    </link>
    <time>2026-05-08T20:59:46Z</time>
  </metadata>
  <trk>
    <src>https://www.youtrack.es</src>
    <link href="https://www.youtrack.es/ruta/5591-vuelta-casa-campo">
      <text>YouTrack.es</text>
    </link>
    <trkseg>
      <trkpt lat="40.4211360" lon="-3.6558160">
        <ele>651.2</ele>
        <time>2019-05-04T05:47:25Z</time>
      </trkpt>
      <trkpt lat="40.4211360" lon="-3.6558160">
        <ele>651.2</ele>
        <time>2019-05-04T05:47:26Z</time>
      </trkpt>
      <trkpt lat="40.4211580" lon="-3.6558160">
        <ele>651.1</ele>
        <time>2019-05-04T05:47:27Z</time>
      </trkpt>
      <trkpt lat="40.4211830" lon="-3.6558230">
        <ele>651.1</ele>
        <time>2019-05-04T05:47:28Z</time>
      </trkpt>
      <trkpt lat="40.4212100" lon="-3.6558340">
        <ele>651.0</ele>
        <time>2019-05-04T05:47:29Z</time>
      </trkpt>
      <trkpt lat="40.4212360" lon="-3.6558730">
        <ele>650.9</ele>
        <time>2019-05-04T05:47:30Z</time>
      </trkpt>
      <trkpt lat="40.4212610" lon="-3.6559280">
        <ele>650.7</ele>
        <time>2019-05-04T05:47:31Z</time>
      </trkpt>
      <trkpt lat="40.4212870" lon="-3.6559910">
        <ele>650.4</ele>
        <time>2019-05-04T05:47:32Z</time>
      </trkpt>
      <trkpt lat="40.4213130" lon="-3.6560420">
        <ele>650.1</ele>
        <time>2019-05-04T05:47:33Z</time>
      </trkpt>
      <trkpt lat="40.4213430" lon="-3.6560950">
        <ele>649.8</ele>
        <time>2019-05-04T05:47:34Z</time>
      </trkpt>
      <trkpt lat="40.4213740" lon="-3.6561520">
        <ele>649.4</ele>
        <time>2019-05-04T05:47:35Z</time>
      </trkpt>
      <trkpt lat="40.4214040" lon="-3.6562080">
        <ele>649.1</ele>
        <time>2019-05-04T05:47:36Z</time>
      </trkpt>
      <trkpt lat="40.4214340" lon="-3.6562540">
        <ele>648.8</ele>
        <time>2019-05-04T05:47:37Z</time>
      </trkpt>
      <trkpt lat="40.4214620" lon="-3.6563050">
        <ele>648.5</ele>
        <time>2019-05-04T05:47:38Z</time>
      </trkpt>
      <trkpt lat="40.4214900" lon="-3.6563610">
        <ele>648.3</ele>
        <time>2019-05-04T05:47:39Z</time>
      </trkpt>
      <trkpt lat="40.4215170" lon="-3.6564170">
        <ele>648.0</ele>
        <time>2019-05-04T05:47:40Z</time>
      </trkpt>
      <trkpt lat="40.4215410" lon="-3.6564650">
        <ele>647.8</ele>
        <time>2019-05-04T05:47:41Z</time>
      </trkpt>
      <trkpt lat="40.4215610" lon="-3.6565060">
        <ele>647.7</ele>
        <time>2019-05-04T05:47:42Z</time>
      </trkpt>
      <trkpt lat="40.4215760" lon="-3.6565510">
        <ele>647.5</ele>
        <time>2019-05-04T05:47:43Z</time>
      </trkpt>
      <trkpt lat="40.4215790" lon="-3.6565950">
        <ele>647.3</ele>
        <time>2019-05-04T05:47:44Z</time>
      </trkpt>
      <trkpt lat="40.4215760" lon="-3.6566440">
        <ele>647.2</ele>
        <time>2019-05-04T05:47:45Z</time>
      </trkpt>
      <trkpt lat="40.4215630" lon="-3.6566930">
        <ele>647.0</ele>
        <time>2019-05-04T05:47:46Z</time>
      </trkpt>
      <trkpt lat="40.4215530" lon="-3.6567430">
        <ele>646.8</ele>
        <time>2019-05-04T05:47:47Z</time>
      </trkpt>
      <trkpt lat="40.4215410" lon="-3.6567880">
        <ele>646.6</ele>
        <time>2019-05-04T05:47:48Z</time>
      </trkpt>
      <trkpt lat="40.4215380" lon="-3.6568320">
        <ele>646.5</ele>
        <time>2019-05-04T05:47:49Z</time>
      </trkpt>
      <trkpt lat="40.4215420" lon="-3.6568680">
        <ele>646.4</ele>
        <time>2019-05-04T05:47:50Z</time>
      </trkpt>
      <trkpt lat="40.4215560" lon="-3.6568980">
        <ele>646.3</ele>
        <time>2019-05-04T05:47:51Z</time>
      </trkpt>
      <trkpt lat="40.4215770" lon="-3.6569260">
        <ele>646.2</ele>
        <time>2019-05-04T05:47:52Z</time>
      </trkpt>
      <trkpt lat="40.4216080" lon="-3.6569610">
        <ele>646.1</ele>
        <time>2019-05-04T05:47:53Z</time>
      </trkpt>
      <trkpt lat="40.4216430" lon="-3.6570000">
        <ele>646.0</ele>
        <time>2019-05-04T05:47:54Z</time>
      </trkpt>
      <trkpt lat="40.4216700" lon="-3.6570440">
        <ele>646.0</ele>
        <time>2019-05-04T05:47:55Z</time>
      </trkpt>
      <trkpt lat="40.4216870" lon="-3.6570920">
        <ele>645.9</ele>
        <time>2019-05-04T05:47:56Z</time>
      </trkpt>
      <trkpt lat="40.4216930" lon="-3.6571410">
        <ele>645.8</ele>
        <time>2019-05-04T05:47:57Z</time>
      </trkpt>
      <trkpt lat="40.4216910" lon="-3.6571870">
        <ele>645.4</ele>
        <time>2019-05-04T05:47:58Z</time>
      </trkpt>
      <trkpt lat="40.4216840" lon="-3.6572280">
        <ele>645.3</ele>
        <time>2019-05-04T05:47:59Z</time>
      </trkpt>
      <trkpt lat="40.4216710" lon="-3.6572670">
        <ele>645.1</ele>
        <time>2019-05-04T05:48:00Z</time>
      </trkpt>
      <trkpt lat="40.4216540" lon="-3.6573050">
        <ele>645.0</ele>
        <time>2019-05-04T05:48:01Z</time>
      </trkpt>
      <trkpt lat="40.4216370" lon="-3.6573450">
        <ele>644.8</ele>
        <time>2019-05-04T05:48:02Z</time>
      </trkpt>
      <trkpt lat="40.4216200" lon="-3.6573880">
        <ele>644.6</ele>
        <time>2019-05-04T05:48:03Z</time>
      </trkpt>
      <trkpt lat="40.4216030" lon="-3.6574360">
        <ele>644.5</ele>
        <time>2019-05-04T05:48:04Z</time>
      </trkpt>
      <trkpt lat="40.4215840" lon="-3.6574880">
        <ele>644.2</ele>
        <time>2019-05-04T05:48:05Z</time>
      </trkpt>
      <trkpt lat="40.4215660" lon="-3.6575470">
        <ele>644.0</ele>
        <time>2019-05-04T05:48:06Z</time>
      </trkpt>
      <trkpt lat="40.4215490" lon="-3.6576060">
        <ele>643.8</ele>
        <time>2019-05-04T05:48:07Z</time>
      </trkpt>
      <trkpt lat="40.4215320" lon="-3.6576670">
        <ele>643.5</ele>
        <time>2019-05-04T05:48:08Z</time>
      </trkpt>
      <trkpt lat="40.4215190" lon="-3.6577260">
        <ele>643.3</ele>
        <time>2019-05-04T05:48:09Z</time>
      </trkpt>
      <trkpt lat="40.4215050" lon="-3.6577860">
        <ele>643.1</ele>
        <time>2019-05-04T05:48:10Z</time>
      </trkpt>
      <trkpt lat="40.4214920" lon="-3.6578470">
        <ele>642.8</ele>
        <time>2019-05-04T05:48:11Z</time>
      </trkpt>
      <trkpt lat="40.4214790" lon="-3.6579080">
        <ele>642.6</ele>
        <time>2019-05-04T05:48:12Z</time>
      </trkpt>
      <trkpt lat="40.4214670" lon="-3.6579700">
        <ele>642.4</ele>
        <time>2019-05-04T05:48:13Z</time>
      </trkpt>
      <trkpt lat="40.4214570" lon="-3.6580320">
        <ele>642.2</ele>
        <time>2019-05-04T05:48:14Z</time>
      </trkpt>
      <trkpt lat="40.4214480" lon="-3.6580960">
        <ele>641.9</ele>
        <time>2019-05-04T05:48:15Z</time>
      </trkpt>
      <trkpt lat="40.4214410" lon="-3.6581590">
        <ele>641.7</ele>
        <time>2019-05-04T05:48:16Z</time>
      </trkpt>
      <trkpt lat="40.4214350" lon="-3.6582220">
        <ele>641.5</ele>
        <time>2019-05-04T05:48:17Z</time>
      </trkpt>
      <trkpt lat="40.4214300" lon="-3.6582870">
        <ele>641.3</ele>
        <time>2019-05-04T05:48:18Z</time>
      </trkpt>
      <trkpt lat="40.4214270" lon="-3.6583520">
        <ele>641.1</ele>
        <time>2019-05-04T05:48:19Z</time>
      </trkpt>
      <trkpt lat="40.4214240" lon="-3.6584180">
        <ele>640.9</ele>
        <time>2019-05-04T05:48:20Z</time>
      </trkpt>
      <trkpt lat="40.4214220" lon="-3.6584850">
        <ele>640.9</ele>
        <time>2019-05-04T05:48:21Z</time>
      </trkpt>
      <trkpt lat="40.4214200" lon="-3.6585540">
        <ele>641.0</ele>
        <time>2019-05-04T05:48:22Z</time>
      </trkpt>
      <trkpt lat="40.4214190" lon="-3.6586230">
        <ele>641.1</ele>
        <time>2019-05-04T05:48:23Z</time>
      </trkpt>
      <trkpt lat="40.4214180" lon="-3.6586920">
        <ele>641.2</ele>
        <time>2019-05-04T05:48:24Z</time>
      </trkpt>
      <trkpt lat="40.4214180" lon="-3.6587610">
        <ele>641.4</ele>
        <time>2019-05-04T05:48:25Z</time>
      </trkpt>
      <trkpt lat="40.4214170" lon="-3.6588320">
        <ele>641.5</ele>
        <time>2019-05-04T05:48:26Z</time>
      </trkpt>
      <trkpt lat="40.4214160" lon="-3.6589020">
        <ele>641.6</ele>
        <time>2019-05-04T05:48:27Z</time>
      </trkpt>
      <trkpt lat="40.4214150" lon="-3.6589740">
        <ele>641.7</ele>
        <time>2019-05-04T05:48:28Z</time>
      </trkpt>
      <trkpt lat="40.4214130" lon="-3.6590450">
        <ele>641.8</ele>
        <time>2019-05-04T05:48:29Z</time>
      </trkpt>
      <trkpt lat="40.4214100" lon="-3.6591160">
        <ele>641.9</ele>
        <time>2019-05-04T05:48:30Z</time>
      </trkpt>
      <trkpt lat="40.4214070" lon="-3.6591870">
        <ele>642.0</ele>
        <time>2019-05-04T05:48:31Z</time>
      </trkpt>
      <trkpt lat="40.4214060" lon="-3.6592570">
        <ele>642.1</ele>
        <time>2019-05-04T05:48:32Z</time>
      </trkpt>
      <trkpt lat="40.4214050" lon="-3.6593270">
        <ele>642.2</ele>
        <time>2019-05-04T05:48:33Z</time>
      </trkpt>
      <trkpt lat="40.4214040" lon="-3.6593980">
        <ele>642.3</ele>
        <time>2019-05-04T05:48:34Z</time>
      </trkpt>
      <trkpt lat="40.4214020" lon="-3.6594680">
        <ele>642.5</ele>
        <time>2019-05-04T05:48:35Z</time>
      </trkpt>
      <trkpt lat="40.4214000" lon="-3.6595390">
        <ele>642.6</ele>
        <time>2019-05-04T05:48:36Z</time>
      </trkpt>
      <trkpt lat="40.4213960" lon="-3.6596100">
        <ele>642.9</ele>
        <time>2019-05-04T05:48:37Z</time>
      </trkpt>
      <trkpt lat="40.4213930" lon="-3.6596810">
        <ele>643.1</ele>
        <time>2019-05-04T05:48:38Z</time>
      </trkpt>
      <trkpt lat="40.4213900" lon="-3.6597510">
        <ele>643.4</ele>
        <time>2019-05-04T05:48:39Z</time>
      </trkpt>
      <trkpt lat="40.4213880" lon="-3.6598210">
        <ele>643.7</ele>
        <time>2019-05-04T05:48:40Z</time>
      </trkpt>
      <trkpt lat="40.4213860" lon="-3.6598900">
        <ele>643.9</ele>
        <time>2019-05-04T05:48:41Z</time>
      </trkpt>
      <trkpt lat="40.4213850" lon="-3.6599570">
        <ele>644.2</ele>
        <time>2019-05-04T05:48:42Z</time>
      </trkpt>
      <trkpt lat="40.4213850" lon="-3.6600250">
        <ele>644.7</ele>
        <time>2019-05-04T05:48:43Z</time>
      </trkpt>
      <trkpt lat="40.4213860" lon="-3.6600920">
        <ele>645.2</ele>
        <time>2019-05-04T05:48:44Z</time>
      </trkpt>
      <trkpt lat="40.4213860" lon="-3.6601620">
        <ele>645.6</ele>
        <time>2019-05-04T05:48:45Z</time>
      </trkpt>
      <trkpt lat="40.4213860" lon="-3.6602310">
        <ele>646.0</ele>
        <time>2019-05-04T05:48:46Z</time>
      </trkpt>
      <trkpt lat="40.4213850" lon="-3.6603000">
        <ele>646.3</ele>
        <time>2019-05-04T05:48:47Z</time>
      </trkpt>
      <trkpt lat="40.4213860" lon="-3.6603620">
        <ele>646.6</ele>
        <time>2019-05-04T05:48:48Z</time>
      </trkpt>
      <trkpt lat="40.4213860" lon="-3.6604210">
        <ele>646.8</ele>
        <time>2019-05-04T05:48:49Z</time>
      </trkpt>
      <trkpt lat="40.4213850" lon="-3.6604770">
        <ele>647.1</ele>
        <time>2019-05-04T05:48:50Z</time>
      </trkpt>
      <trkpt lat="40.4213810" lon="-3.6605350">
        <ele>647.3</ele>
        <time>2019-05-04T05:48:51Z</time>
      </trkpt>
      <trkpt lat="40.4213750" lon="-3.6605980">
        <ele>647.6</ele>
        <time>2019-05-04T05:48:52Z</time>
      </trkpt>
      <trkpt lat="40.4213700" lon="-3.6606620">
        <ele>647.9</ele>
        <time>2019-05-04T05:48:53Z</time>
      </trkpt>
      <trkpt lat="40.4213680" lon="-3.6607280">
        <ele>648.3</ele>
        <time>2019-05-04T05:48:54Z</time>
      </trkpt>
      <trkpt lat="40.4213660" lon="-3.6607960">
        <ele>648.6</ele>
        <time>2019-05-04T05:48:55Z</time>
      </trkpt>
      <trkpt lat="40.4213640" lon="-3.6608640">
        <ele>649.1</ele>
        <time>2019-05-04T05:48:56Z</time>
      </trkpt>
      <trkpt lat="40.4213580" lon="-3.6609270">
        <ele>649.4</ele>
        <time>2019-05-04T05:48:57Z</time>
      </trkpt>
      <trkpt lat="40.4213530" lon="-3.6609860">
        <ele>649.7</ele>
        <time>2019-05-04T05:48:58Z</time>
      </trkpt>
      <trkpt lat="40.4213470" lon="-3.6610420">
        <ele>650.0</ele>
        <time>2019-05-04T05:48:59Z</time>
      </trkpt>
      <trkpt lat="40.4213380" lon="-3.6610980">
        <ele>650.4</ele>
        <time>2019-05-04T05:49:00Z</time>
      </trkpt>
      <trkpt lat="40.4213210" lon="-3.6611420">
        <ele>650.7</ele>
        <time>2019-05-04T05:49:01Z</time>
      </trkpt>
      <trkpt lat="40.4212980" lon="-3.6611760">
        <ele>650.9</ele>
        <time>2019-05-04T05:49:02Z</time>
      </trkpt>
      <trkpt lat="40.4212760" lon="-3.6612080">
        <ele>651.1</ele>
        <time>2019-05-04T05:49:03Z</time>
      </trkpt>
      <trkpt lat="40.4212600" lon="-3.6612500">
        <ele>651.3</ele>
        <time>2019-05-04T05:49:04Z</time>
      </trkpt>
      <trkpt lat="40.4212510" lon="-3.6612990">
        <ele>651.6</ele>
        <time>2019-05-04T05:49:05Z</time>
      </trkpt>
      <trkpt lat="40.4212480" lon="-3.6613480">
        <ele>651.8</ele>
        <time>2019-05-04T05:49:06Z</time>
      </trkpt>
      <trkpt lat="40.4212510" lon="-3.6613910">
        <ele>651.9</ele>
        <time>2019-05-04T05:49:07Z</time>
      </trkpt>
      <trkpt lat="40.4212580" lon="-3.6614390">
        <ele>652.0</ele>
        <time>2019-05-04T05:49:08Z</time>
      </trkpt>
      <trkpt lat="40.4212690" lon="-3.6614870">
        <ele>652.5</ele>
        <time>2019-05-04T05:49:09Z</time>
      </trkpt>
      <trkpt lat="40.4212780" lon="-3.6615400">
        <ele>652.8</ele>
        <time>2019-05-04T05:49:10Z</time>
      </trkpt>
      <trkpt lat="40.4212840" lon="-3.6615880">
        <ele>653.1</ele>
        <time>2019-05-04T05:49:11Z</time>
      </trkpt>
      <trkpt lat="40.4212880" lon="-3.6616340">
        <ele>653.5</ele>
        <time>2019-05-04T05:49:12Z</time>
      </trkpt>
      <trkpt lat="40.4212880" lon="-3.6616800">
        <ele>653.8</ele>
        <time>2019-05-04T05:49:13Z</time>
      </trkpt>
      <trkpt lat="40.4212860" lon="-3.6617220">
        <ele>654.1</ele>
        <time>2019-05-04T05:49:14Z</time>
      </trkpt>
      <trkpt lat="40.4212840" lon="-3.6617620">
        <ele>654.3</ele>
        <time>2019-05-04T05:49:15Z</time>
      </trkpt>
      <trkpt lat="40.4212820" lon="-3.6617990">
        <ele>654.6</ele>
        <time>2019-05-04T05:49:16Z</time>
      </trkpt>
      <trkpt lat="40.4212800" lon="-3.6618400">
        <ele>654.9</ele>
        <time>2019-05-04T05:49:17Z</time>
      </trkpt>
      <trkpt lat="40.4212770" lon="-3.6618800">
        <ele>655.2</ele>
        <time>2019-05-04T05:49:18Z</time>
      </trkpt>
      <trkpt lat="40.4212730" lon="-3.6619210">
        <ele>655.5</ele>
        <time>2019-05-04T05:49:19Z</time>
      </trkpt>
      <trkpt lat="40.4212660" lon="-3.6619600">
        <ele>655.8</ele>
        <time>2019-05-04T05:49:20Z</time>
      </trkpt>
      <trkpt lat="40.4212580" lon="-3.6620030">
        <ele>656.2</ele>
        <time>2019-05-04T05:49:21Z</time>
      </trkpt>
      <trkpt lat="40.4212470" lon="-3.6620560">
        <ele>656.7</ele>
        <time>2019-05-04T05:49:22Z</time>
      </trkpt>
      <trkpt lat="40.4212360" lon="-3.6621180">
        <ele>657.3</ele>
        <time>2019-05-04T05:49:23Z</time>
      </trkpt>
      <trkpt lat="40.4212250" lon="-3.6621870">
        <ele>657.9</ele>
        <time>2019-05-04T05:49:24Z</time>
      </trkpt>
      <trkpt lat="40.4212160" lon="-3.6622610">
        <ele>658.6</ele>
        <time>2019-05-04T05:49:25Z</time>
      </trkpt>
      <trkpt lat="40.4212060" lon="-3.6623340">
        <ele>659.2</ele>
        <time>2019-05-04T05:49:26Z</time>
      </trkpt>
      <trkpt lat="40.4211950" lon="-3.6624040">
        <ele>659.8</ele>
        <time>2019-05-04T05:49:27Z</time>
      </trkpt>
      <trkpt lat="40.4211860" lon="-3.6624710">
        <ele>660.3</ele>
        <time>2019-05-04T05:49:28Z</time>
      </trkpt>
      <trkpt lat="40.4211770" lon="-3.6625370">
        <ele>660.7</ele>
        <time>2019-05-04T05:49:29Z</time>
      </trkpt>
      <trkpt lat="40.4211680" lon="-3.6626010">
        <ele>660.8</ele>
        <time>2019-05-04T05:49:30Z</time>
      </trkpt>
      <trkpt lat="40.4211570" lon="-3.6626620">
        <ele>661.0</ele>
        <time>2019-05-04T05:49:31Z</time>
      </trkpt>
      <trkpt lat="40.4211450" lon="-3.6627190">
        <ele>661.2</ele>
        <time>2019-05-04T05:49:32Z</time>
      </trkpt>
      <trkpt lat="40.4211340" lon="-3.6627800">
        <ele>661.4</ele>
        <time>2019-05-04T05:49:33Z</time>
      </trkpt>
      <trkpt lat="40.4211230" lon="-3.6628420">
        <ele>661.6</ele>
        <time>2019-05-04T05:49:34Z</time>
      </trkpt>
      <trkpt lat="40.4211130" lon="-3.6629040">
        <ele>661.8</ele>
        <time>2019-05-04T05:49:35Z</time>
      </trkpt>
      <trkpt lat="40.4211030" lon="-3.6629640">
        <ele>662.0</ele>
        <time>2019-05-04T05:49:36Z</time>
      </trkpt>
      <trkpt lat="40.4210920" lon="-3.6630230">
        <ele>662.2</ele>
        <time>2019-05-04T05:49:37Z</time>
      </trkpt>
      <trkpt lat="40.4210800" lon="-3.6630820">
        <ele>662.3</ele>
        <time>2019-05-04T05:49:38Z</time>
      </trkpt>
      <trkpt lat="40.4210690" lon="-3.6631420">
        <ele>662.5</ele>
        <time>2019-05-04T05:49:39Z</time>
      </trkpt>
      <trkpt lat="40.4210580" lon="-3.6632020">
        <ele>662.6</ele>
        <time>2019-05-04T05:49:40Z</time>
      </trkpt>
      <trkpt lat="40.4210470" lon="-3.6632640">
        <ele>662.7</ele>
        <time>2019-05-04T05:49:41Z</time>
      </trkpt>
      <trkpt lat="40.4210360" lon="-3.6633250">
        <ele>662.7</ele>
        <time>2019-05-04T05:49:42Z</time>
      </trkpt>
      <trkpt lat="40.4210250" lon="-3.6633870">
        <ele>662.8</ele>
        <time>2019-05-04T05:49:43Z</time>
      </trkpt>
      <trkpt lat="40.4210130" lon="-3.6634470">
        <ele>662.8</ele>
        <time>2019-05-04T05:49:44Z</time>
      </trkpt>
      <trkpt lat="40.4210010" lon="-3.6635080">
        <ele>662.8</ele>
        <time>2019-05-04T05:49:45Z</time>
      </trkpt>
      <trkpt lat="40.4209880" lon="-3.6635680">
        <ele>662.8</ele>
        <time>2019-05-04T05:49:46Z</time>
      </trkpt>
      <trkpt lat="40.4209750" lon="-3.6636290">
        <ele>662.8</ele>
        <time>2019-05-04T05:49:47Z</time>
      </trkpt>
      <trkpt lat="40.4209620" lon="-3.6636890">
        <ele>662.8</ele>
        <time>2019-05-04T05:49:48Z</time>
      </trkpt>
      <trkpt lat="40.4209490" lon="-3.6637490">
        <ele>662.9</ele>
        <time>2019-05-04T05:49:49Z</time>
      </trkpt>
      <trkpt lat="40.4209350" lon="-3.6638100">
        <ele>662.9</ele>
        <time>2019-05-04T05:49:50Z</time>
      </trkpt>
      <trkpt lat="40.4209200" lon="-3.6638700">
        <ele>663.0</ele>
        <time>2019-05-04T05:49:51Z</time>
      </trkpt>
      <trkpt lat="40.4209030" lon="-3.6639300">
        <ele>663.1</ele>
        <time>2019-05-04T05:49:52Z</time>
      </trkpt>
      <trkpt lat="40.4208860" lon="-3.6639900">
        <ele>663.2</ele>
        <time>2019-05-04T05:49:53Z</time>
      </trkpt>
      <trkpt lat="40.4208690" lon="-3.6640480">
        <ele>663.3</ele>
        <time>2019-05-04T05:49:54Z</time>
      </trkpt>
      <trkpt lat="40.4208520" lon="-3.6641040">
        <ele>663.5</ele>
        <time>2019-05-04T05:49:55Z</time>
      </trkpt>
      <trkpt lat="40.4208350" lon="-3.6641570">
        <ele>663.7</ele>
        <time>2019-05-04T05:49:56Z</time>
      </trkpt>
      <trkpt lat="40.4208140" lon="-3.6642110">
        <ele>663.9</ele>
        <time>2019-05-04T05:49:57Z</time>
      </trkpt>
      <trkpt lat="40.4207920" lon="-3.6642660">
        <ele>664.1</ele>
        <time>2019-05-04T05:49:58Z</time>
      </trkpt>
      <trkpt lat="40.4207690" lon="-3.6643210">
        <ele>664.3</ele>
        <time>2019-05-04T05:49:59Z</time>
      </trkpt>
      <trkpt lat="40.4207460" lon="-3.6643730">
        <ele>664.5</ele>
        <time>2019-05-04T05:50:00Z</time>
      </trkpt>
      <trkpt lat="40.4207210" lon="-3.6644230">
        <ele>664.6</ele>
        <time>2019-05-04T05:50:01Z</time>
      </trkpt>
      <trkpt lat="40.4206950" lon="-3.6644680">
        <ele>664.7</ele>
        <time>2019-05-04T05:50:02Z</time>
      </trkpt>
      <trkpt lat="40.4206680" lon="-3.6645100">
        <ele>664.8</ele>
        <time>2019-05-04T05:50:03Z</time>
      </trkpt>
      <trkpt lat="40.4206410" lon="-3.6645470">
        <ele>664.8</ele>
        <time>2019-05-04T05:50:04Z</time>
      </trkpt>
      <trkpt lat="40.4206100" lon="-3.6645840">
        <ele>664.8</ele>
        <time>2019-05-04T05:50:05Z</time>
      </trkpt>
      <trkpt lat="40.4205750" lon="-3.6646210">
        <ele>664.8</ele>
        <time>2019-05-04T05:50:06Z</time>
      </trkpt>
      <trkpt lat="40.4205380" lon="-3.6646590">
        <ele>664.8</ele>
        <time>2019-05-04T05:50:07Z</time>
      </trkpt>
      <trkpt lat="40.4205020" lon="-3.6646940">
        <ele>664.8</ele>
        <time>2019-05-04T05:50:08Z</time>
      </trkpt>
      <trkpt lat="40.4204660" lon="-3.6647240">
        <ele>664.8</ele>
        <time>2019-05-04T05:50:09Z</time>
      </trkpt>
      <trkpt lat="40.4204330" lon="-3.6647470">
        <ele>664.8</ele>
        <time>2019-05-04T05:50:10Z</time>
      </trkpt>
      <trkpt lat="40.4204010" lon="-3.6647700">
        <ele>664.8</ele>
        <time>2019-05-04T05:50:11Z</time>
      </trkpt>
      <trkpt lat="40.4203700" lon="-3.6647910">
        <ele>664.8</ele>
        <time>2019-05-04T05:50:12Z</time>
      </trkpt>
      <trkpt lat="40.4203370" lon="-3.6648120">
        <ele>664.9</ele>
        <time>2019-05-04T05:50:13Z</time>
      </trkpt>
      <trkpt lat="40.4203020" lon="-3.6648320">
        <ele>665.1</ele>
        <time>2019-05-04T05:50:14Z</time>
      </trkpt>
      <trkpt lat="40.4202680" lon="-3.6648530">
        <ele>665.2</ele>
        <time>2019-05-04T05:50:15Z</time>
      </trkpt>
      <trkpt lat="40.4202350" lon="-3.6648720">
        <ele>665.3</ele>
        <time>2019-05-04T05:50:16Z</time>
      </trkpt>
      <trkpt lat="40.4201990" lon="-3.6648900">
        <ele>665.4</ele>
        <time>2019-05-04T05:50:17Z</time>
      </trkpt>
      <trkpt lat="40.4201500" lon="-3.6649050">
        <ele>665.5</ele>
        <time>2019-05-04T05:50:18Z</time>
      </trkpt>
      <trkpt lat="40.4200820" lon="-3.6649220">
        <ele>665.7</ele>
        <time>2019-05-04T05:50:19Z</time>
      </trkpt>
      <trkpt lat="40.4200130" lon="-3.6649430">
        <ele>665.9</ele>
        <time>2019-05-04T05:50:20Z</time>
      </trkpt>
      <trkpt lat="40.4199510" lon="-3.6649690">
        <ele>666.1</ele>
        <time>2019-05-04T05:50:21Z</time>
      </trkpt>
      <trkpt lat="40.4199050" lon="-3.6649910">
        <ele>666.2</ele>
        <time>2019-05-04T05:50:22Z</time>
      </trkpt>
      <trkpt lat="40.4198610" lon="-3.6650060">
        <ele>666.3</ele>
        <time>2019-05-04T05:50:23Z</time>
      </trkpt>
      <trkpt lat="40.4198210" lon="-3.6650150">
        <ele>666.4</ele>
        <time>2019-05-04T05:50:24Z</time>
      </trkpt>
      <trkpt lat="40.4197790" lon="-3.6650220">
        <ele>666.5</ele>
        <time>2019-05-04T05:50:25Z</time>
      </trkpt>
      <trkpt lat="40.4197380" lon="-3.6650250">
        <ele>666.6</ele>
        <time>2019-05-04T05:50:26Z</time>
      </trkpt>
      <trkpt lat="40.4196950" lon="-3.6650170">
        <ele>666.7</ele>
        <time>2019-05-04T05:50:27Z</time>
      </trkpt>
      <trkpt lat="40.4196540" lon="-3.6650030">
        <ele>666.9</ele>
        <time>2019-05-04T05:50:28Z</time>
      </trkpt>
      <trkpt lat="40.4196150" lon="-3.6649840">
        <ele>666.5</ele>
        <time>2019-05-04T05:50:29Z</time>
      </trkpt>
      <trkpt lat="40.4195800" lon="-3.6649620">
        <ele>666.1</ele>
        <time>2019-05-04T05:50:30Z</time>
      </trkpt>
      <trkpt lat="40.4195480" lon="-3.6649310">
        <ele>665.8</ele>
        <time>2019-05-04T05:50:31Z</time>
      </trkpt>
      <trkpt lat="40.4195190" lon="-3.6648930">
        <ele>665.5</ele>
        <time>2019-05-04T05:50:32Z</time>
      </trkpt>
      <trkpt lat="40.4194940" lon="-3.6648530">
        <ele>665.1</ele>
        <time>2019-05-04T05:50:33Z</time>
      </trkpt>
      <trkpt lat="40.4194780" lon="-3.6648060">
        <ele>664.8</ele>
        <time>2019-05-04T05:50:34Z</time>
      </trkpt>
      <trkpt lat="40.4194700" lon="-3.6647530">
        <ele>664.4</ele>
        <time>2019-05-04T05:50:35Z</time>
      </trkpt>
      <trkpt lat="40.4194680" lon="-3.6646910">
        <ele>664.0</ele>
        <time>2019-05-04T05:50:36Z</time>
      </trkpt>
      <trkpt lat="40.4194700" lon="-3.6646300">
        <ele>663.5</ele>
        <time>2019-05-04T05:50:37Z</time>
      </trkpt>
      <trkpt lat="40.4194770" lon="-3.6645740">
        <ele>663.1</ele>
        <time>2019-05-04T05:50:38Z</time>
      </trkpt>
      <trkpt lat="40.4194890" lon="-3.6645250">
        <ele>662.7</ele>
        <time>2019-05-04T05:50:39Z</time>
      </trkpt>
      <trkpt lat="40.4195080" lon="-3.6644840">
        <ele>662.3</ele>
        <time>2019-05-04T05:50:40Z</time>
      </trkpt>
      <trkpt lat="40.4195340" lon="-3.6644550">
        <ele>662.0</ele>
        <time>2019-05-04T05:50:41Z</time>
      </trkpt>
      <trkpt lat="40.4195610" lon="-3.6644440">
        <ele>661.8</ele>
        <time>2019-05-04T05:50:42Z</time>
      </trkpt>
      <trkpt lat="40.4195900" lon="-3.6644440">
        <ele>661.5</ele>
        <time>2019-05-04T05:50:43Z</time>
      </trkpt>
      <trkpt lat="40.4196200" lon="-3.6644440">
        <ele>660.5</ele>
        <time>2019-05-04T05:50:44Z</time>
      </trkpt>
      <trkpt lat="40.4196530" lon="-3.6644490">
        <ele>660.7</ele>
        <time>2019-05-04T05:50:45Z</time>
      </trkpt>
      <trkpt lat="40.4196910" lon="-3.6644610">
        <ele>660.9</ele>
        <time>2019-05-04T05:50:46Z</time>
      </trkpt>
      <trkpt lat="40.4197320" lon="-3.6644840">
        <ele>661.1</ele>
        <time>2019-05-04T05:50:47Z</time>
      </trkpt>
      <trkpt lat="40.4197690" lon="-3.6645120">
        <ele>661.3</ele>
        <time>2019-05-04T05:50:48Z</time>
      </trkpt>
      <trkpt lat="40.4198000" lon="-3.6645440">
        <ele>661.5</ele>
        <time>2019-05-04T05:50:49Z</time>
      </trkpt>
      <trkpt lat="40.4198300" lon="-3.6645810">
        <ele>661.8</ele>
        <time>2019-05-04T05:50:50Z</time>
      </trkpt>
      <trkpt lat="40.4198650" lon="-3.6646200">
        <ele>662.1</ele>
        <time>2019-05-04T05:50:51Z</time>
      </trkpt>
      <trkpt lat="40.4198990" lon="-3.6646620">
        <ele>662.4</ele>
        <time>2019-05-04T05:50:52Z</time>
      </trkpt>
      <trkpt lat="40.4199300" lon="-3.6647100">
        <ele>662.7</ele>
        <time>2019-05-04T05:50:53Z</time>
      </trkpt>
      <trkpt lat="40.4199580" lon="-3.6647600">
        <ele>663.1</ele>
        <time>2019-05-04T05:50:54Z</time>
      </trkpt>
      <trkpt lat="40.4199820" lon="-3.6648110">
        <ele>663.7</ele>
        <time>2019-05-04T05:50:55Z</time>
      </trkpt>
      <trkpt lat="40.4200030" lon="-3.6648630">
        <ele>664.3</ele>
        <time>2019-05-04T05:50:56Z</time>
      </trkpt>
      <trkpt lat="40.4200210" lon="-3.6649150">
        <ele>665.0</ele>
        <time>2019-05-04T05:50:57Z</time>
      </trkpt>
      <trkpt lat="40.4200400" lon="-3.6649700">
        <ele>665.7</ele>
        <time>2019-05-04T05:50:58Z</time>
      </trkpt>
      <trkpt lat="40.4200570" lon="-3.6650250">
        <ele>666.0</ele>
        <time>2019-05-04T05:50:59Z</time>
      </trkpt>
      <trkpt lat="40.4200760" lon="-3.6650840">
        <ele>666.4</ele>
        <time>2019-05-04T05:51:00Z</time>
      </trkpt>
      <trkpt lat="40.4200900" lon="-3.6651420">
        <ele>666.7</ele>
        <time>2019-05-04T05:51:01Z</time>
      </trkpt>
      <trkpt lat="40.4201040" lon="-3.6652010">
        <ele>667.1</ele>
        <time>2019-05-04T05:51:02Z</time>
      </trkpt>
      <trkpt lat="40.4201170" lon="-3.6652550">
        <ele>667.4</ele>
        <time>2019-05-04T05:51:03Z</time>
      </trkpt>
      <trkpt lat="40.4201330" lon="-3.6653090">
        <ele>667.8</ele>
        <time>2019-05-04T05:51:04Z</time>
      </trkpt>
      <trkpt lat="40.4201470" lon="-3.6653630">
        <ele>668.3</ele>
        <time>2019-05-04T05:51:05Z</time>
      </trkpt>
      <trkpt lat="40.4201590" lon="-3.6654180">
        <ele>668.5</ele>
        <time>2019-05-04T05:51:06Z</time>
      </trkpt>
      <trkpt lat="40.4201610" lon="-3.6654730">
        <ele>668.7</ele>
        <time>2019-05-04T05:51:07Z</time>
      </trkpt>
      <trkpt lat="40.4201550" lon="-3.6655280">
        <ele>669.6</ele>
        <time>2019-05-04T05:51:08Z</time>
      </trkpt>
      <trkpt lat="40.4201450" lon="-3.6655810">
        <ele>670.0</ele>
        <time>2019-05-04T05:51:09Z</time>
      </trkpt>
      <trkpt lat="40.4201400" lon="-3.6656320">
        <ele>670.3</ele>
        <time>2019-05-04T05:51:10Z</time>
      </trkpt>
      <trkpt lat="40.4201380" lon="-3.6656810">
        <ele>670.6</ele>
        <time>2019-05-04T05:51:11Z</time>
      </trkpt>
      <trkpt lat="40.4201360" lon="-3.6657280">
        <ele>670.9</ele>
        <time>2019-05-04T05:51:12Z</time>
      </trkpt>
      <trkpt lat="40.4201340" lon="-3.6657740">
        <ele>671.2</ele>
        <time>2019-05-04T05:51:13Z</time>
      </trkpt>
      <trkpt lat="40.4201350" lon="-3.6658180">
        <ele>671.5</ele>
        <time>2019-05-04T05:51:14Z</time>
      </trkpt>
      <trkpt lat="40.4201380" lon="-3.6658590">
        <ele>671.7</ele>
        <time>2019-05-04T05:51:15Z</time>
      </trkpt>
      <trkpt lat="40.4201410" lon="-3.6659030">
        <ele>672.0</ele>
        <time>2019-05-04T05:51:16Z</time>
      </trkpt>
      <trkpt lat="40.4201380" lon="-3.6659460">
        <ele>672.2</ele>
        <time>2019-05-04T05:51:17Z</time>
      </trkpt>
      <trkpt lat="40.4201160" lon="-3.6659830">
        <ele>672.4</ele>
        <time>2019-05-04T05:51:18Z</time>
      </trkpt>
      <trkpt lat="40.4200950" lon="-3.6660090">
        <ele>672.7</ele>
        <time>2019-05-04T05:51:19Z</time>
      </trkpt>
      <trkpt lat="40.4200790" lon="-3.6660300">
        <ele>672.8</ele>
        <time>2019-05-04T05:51:20Z</time>
      </trkpt>
      <trkpt lat="40.4200810" lon="-3.6660490">
        <ele>673.0</ele>
        <time>2019-05-04T05:51:21Z</time>
      </trkpt>
      <trkpt lat="40.4200830" lon="-3.6660730">
        <ele>673.1</ele>
        <time>2019-05-04T05:51:22Z</time>
      </trkpt>
      <trkpt lat="40.4200850" lon="-3.6661040">
        <ele>673.1</ele>
        <time>2019-05-04T05:51:23Z</time>
      </trkpt>
      <trkpt lat="40.4200930" lon="-3.6661340">
        <ele>673.1</ele>
        <time>2019-05-04T05:51:24Z</time>
      </trkpt>
      <trkpt lat="40.4201050" lon="-3.6661670">
        <ele>673.1</ele>
        <time>2019-05-04T05:51:25Z</time>
      </trkpt>
      <trkpt lat="40.4201240" lon="-3.6662010">
        <ele>673.1</ele>
        <time>2019-05-04T05:51:26Z</time>
      </trkpt>
      <trkpt lat="40.4201440" lon="-3.6662460">
        <ele>673.5</ele>
        <time>2019-05-04T05:51:27Z</time>
      </trkpt>
      <trkpt lat="40.4201640" lon="-3.6662930">
        <ele>673.5</ele>
        <time>2019-05-04T05:51:28Z</time>
      </trkpt>
      <trkpt lat="40.4201840" lon="-3.6663420">
        <ele>673.4</ele>
        <time>2019-05-04T05:51:29Z</time>
      </trkpt>
      <trkpt lat="40.4202010" lon="-3.6663880">
        <ele>673.4</ele>
        <time>2019-05-04T05:51:30Z</time>
      </trkpt>
      <trkpt lat="40.4202140" lon="-3.6664350">
        <ele>673.3</ele>
        <time>2019-05-04T05:51:31Z</time>
      </trkpt>
      <trkpt lat="40.4202260" lon="-3.6664850">
        <ele>673.3</ele>
        <time>2019-05-04T05:51:32Z</time>
      </trkpt>
      <trkpt lat="40.4202340" lon="-3.6665370">
        <ele>673.3</ele>
        <time>2019-05-04T05:51:33Z</time>
      </trkpt>
      <trkpt lat="40.4202420" lon="-3.6665880">
        <ele>673.2</ele>
        <time>2019-05-04T05:51:34Z</time>
      </trkpt>
      <trkpt lat="40.4202640" lon="-3.6666360">
        <ele>673.2</ele>
        <time>2019-05-04T05:51:35Z</time>
      </trkpt>
      <trkpt lat="40.4202940" lon="-3.6666810">
        <ele>673.2</ele>
        <time>2019-05-04T05:51:36Z</time>
      </trkpt>
      <trkpt lat="40.4203300" lon="-3.6667280">
        <ele>673.1</ele>
        <time>2019-05-04T05:51:37Z</time>
      </trkpt>
      <trkpt lat="40.4203590" lon="-3.6667860">
        <ele>673.0</ele>
        <time>2019-05-04T05:51:38Z</time>
      </trkpt>
      <trkpt lat="40.4203860" lon="-3.6668470">
        <ele>673.0</ele>
        <time>2019-05-04T05:51:39Z</time>
      </trkpt>
      <trkpt lat="40.4204140" lon="-3.6669050">
        <ele>672.9</ele>
        <time>2019-05-04T05:51:40Z</time>
      </trkpt>
      <trkpt lat="40.4204400" lon="-3.6669530">
        <ele>672.8</ele>
        <time>2019-05-04T05:51:41Z</time>
      </trkpt>
      <trkpt lat="40.4204620" lon="-3.6669970">
        <ele>672.7</ele>
        <time>2019-05-04T05:51:42Z</time>
      </trkpt>
      <trkpt lat="40.4204790" lon="-3.6670430">
        <ele>672.6</ele>
        <time>2019-05-04T05:51:43Z</time>
      </trkpt>
      <trkpt lat="40.4204960" lon="-3.6670880">
        <ele>672.5</ele>
        <time>2019-05-04T05:51:44Z</time>
      </trkpt>
      <trkpt lat="40.4205100" lon="-3.6671360">
        <ele>672.3</ele>
        <time>2019-05-04T05:51:45Z</time>
      </trkpt>
      <trkpt lat="40.4205200" lon="-3.6671900">
        <ele>672.2</ele>
        <time>2019-05-04T05:51:46Z</time>
      </trkpt>
      <trkpt lat="40.4205270" lon="-3.6672500">
        <ele>672.1</ele>
        <time>2019-05-04T05:51:47Z</time>
      </trkpt>
      <trkpt lat="40.4205320" lon="-3.6673090">
        <ele>672.1</ele>
        <time>2019-05-04T05:51:48Z</time>
      </trkpt>
      <trkpt lat="40.4205370" lon="-3.6673640">
        <ele>672.1</ele>
        <time>2019-05-04T05:51:49Z</time>
      </trkpt>
      <trkpt lat="40.4205430" lon="-3.6674140">
        <ele>672.2</ele>
        <time>2019-05-04T05:51:50Z</time>
      </trkpt>
      <trkpt lat="40.4205510" lon="-3.6674640">
        <ele>672.4</ele>
        <time>2019-05-04T05:51:51Z</time>
      </trkpt>
      <trkpt lat="40.4205660" lon="-3.6675200">
        <ele>672.7</ele>
        <time>2019-05-04T05:51:52Z</time>
      </trkpt>
      <trkpt lat="40.4205890" lon="-3.6675790">
        <ele>673.1</ele>
        <time>2019-05-04T05:51:53Z</time>
      </trkpt>
      <trkpt lat="40.4206150" lon="-3.6676360">
        <ele>673.6</ele>
        <time>2019-05-04T05:51:54Z</time>
      </trkpt>
      <trkpt lat="40.4206380" lon="-3.6676830">
        <ele>674.0</ele>
        <time>2019-05-04T05:51:55Z</time>
      </trkpt>
      <trkpt lat="40.4206590" lon="-3.6677270">
        <ele>674.3</ele>
        <time>2019-05-04T05:51:56Z</time>
      </trkpt>
      <trkpt lat="40.4206760" lon="-3.6677730">
        <ele>674.5</ele>
        <time>2019-05-04T05:51:57Z</time>
      </trkpt>
      <trkpt lat="40.4206920" lon="-3.6678280">
        <ele>674.8</ele>
        <time>2019-05-04T05:51:58Z</time>
      </trkpt>
      <trkpt lat="40.4207010" lon="-3.6678900">
        <ele>674.9</ele>
        <time>2019-05-04T05:51:59Z</time>
      </trkpt>
      <trkpt lat="40.4207040" lon="-3.6679550">
        <ele>675.0</ele>
        <time>2019-05-04T05:52:00Z</time>
      </trkpt>
      <trkpt lat="40.4206950" lon="-3.6680200">
        <ele>675.0</ele>
        <time>2019-05-04T05:52:01Z</time>
      </trkpt>
      <trkpt lat="40.4206870" lon="-3.6680870">
        <ele>675.1</ele>
        <time>2019-05-04T05:52:02Z</time>
      </trkpt>
      <trkpt lat="40.4206780" lon="-3.6681620">
        <ele>675.1</ele>
        <time>2019-05-04T05:52:03Z</time>
      </trkpt>
      <trkpt lat="40.4206740" lon="-3.6682370">
        <ele>675.2</ele>
        <time>2019-05-04T05:52:04Z</time>
      </trkpt>
      <trkpt lat="40.4206700" lon="-3.6683090">
        <ele>675.3</ele>
        <time>2019-05-04T05:52:05Z</time>
      </trkpt>
      <trkpt lat="40.4206650" lon="-3.6683730">
        <ele>675.3</ele>
        <time>2019-05-04T05:52:06Z</time>
      </trkpt>
      <trkpt lat="40.4206630" lon="-3.6684320">
        <ele>675.4</ele>
        <time>2019-05-04T05:52:07Z</time>
      </trkpt>
      <trkpt lat="40.4206670" lon="-3.6684880">
        <ele>675.5</ele>
        <time>2019-05-04T05:52:08Z</time>
      </trkpt>
      <trkpt lat="40.4206770" lon="-3.6685410">
        <ele>675.5</ele>
        <time>2019-05-04T05:52:09Z</time>
      </trkpt>
      <trkpt lat="40.4206920" lon="-3.6685920">
        <ele>675.5</ele>
        <time>2019-05-04T05:52:10Z</time>
      </trkpt>
      <trkpt lat="40.4207110" lon="-3.6686420">
        <ele>675.5</ele>
        <time>2019-05-04T05:52:11Z</time>
      </trkpt>
      <trkpt lat="40.4207350" lon="-3.6686990">
        <ele>675.5</ele>
        <time>2019-05-04T05:52:12Z</time>
      </trkpt>
      <trkpt lat="40.4207570" lon="-3.6687570">
        <ele>675.5</ele>
        <time>2019-05-04T05:52:13Z</time>
      </trkpt>
      <trkpt lat="40.4207740" lon="-3.6688170">
        <ele>675.3</ele>
        <time>2019-05-04T05:52:14Z</time>
      </trkpt>
      <trkpt lat="40.4207860" lon="-3.6688680">
        <ele>675.5</ele>
        <time>2019-05-04T05:52:15Z</time>
      </trkpt>
      <trkpt lat="40.4207950" lon="-3.6689140">
        <ele>675.5</ele>
        <time>2019-05-04T05:52:16Z</time>
      </trkpt>
      <trkpt lat="40.4208030" lon="-3.6689550">
        <ele>675.6</ele>
        <time>2019-05-04T05:52:17Z</time>
      </trkpt>
      <trkpt lat="40.4208060" lon="-3.6689890">
        <ele>675.7</ele>
        <time>2019-05-04T05:52:18Z</time>
      </trkpt>
      <trkpt lat="40.4208080" lon="-3.6690170">
        <ele>675.8</ele>
        <time>2019-05-04T05:52:19Z</time>
      </trkpt>
      <trkpt lat="40.4208110" lon="-3.6690350">
        <ele>675.8</ele>
        <time>2019-05-04T05:52:20Z</time>
      </trkpt>
      <trkpt lat="40.4208160" lon="-3.6690470">
        <ele>675.8</ele>
        <time>2019-05-04T05:52:21Z</time>
      </trkpt>
      <trkpt lat="40.4208250" lon="-3.6690500">
        <ele>675.9</ele>
        <time>2019-05-04T05:52:22Z</time>
      </trkpt>
      <trkpt lat="40.4208420" lon="-3.6690470">
        <ele>675.9</ele>
        <time>2019-05-04T05:52:23Z</time>
      </trkpt>
      <trkpt lat="40.4208660" lon="-3.6690390">
        <ele>676.0</ele>
        <time>2019-05-04T05:52:24Z</time>
      </trkpt>
      <trkpt lat="40.4208930" lon="-3.6690320">
        <ele>676.3</ele>
        <time>2019-05-04T05:52:25Z</time>
      </trkpt>
      <trkpt lat="40.4209230" lon="-3.6690330">
        <ele>676.3</ele>
        <time>2019-05-04T05:52:26Z</time>
      </trkpt>
      <trkpt lat="40.4209550" lon="-3.6690450">
        <ele>676.3</ele>
        <time>2019-05-04T05:52:27Z</time>
      </trkpt>
      <trkpt lat="40.4209880" lon="-3.6690710">
        <ele>676.3</ele>
        <time>2019-05-04T05:52:28Z</time>
      </trkpt>
      <trkpt lat="40.4210200" lon="-3.6691090">
        <ele>676.3</ele>
        <time>2019-05-04T05:52:29Z</time>
      </trkpt>
      <trkpt lat="40.4210450" lon="-3.6691550">
        <ele>676.3</ele>
        <time>2019-05-04T05:52:30Z</time>
      </trkpt>
      <trkpt lat="40.4210640" lon="-3.6692060">
        <ele>677.2</ele>
        <time>2019-05-04T05:52:31Z</time>
      </trkpt>
      <trkpt lat="40.4210760" lon="-3.6692630">
        <ele>677.7</ele>
        <time>2019-05-04T05:52:32Z</time>
      </trkpt>
      <trkpt lat="40.4210820" lon="-3.6693280">
        <ele>678.2</ele>
        <time>2019-05-04T05:52:33Z</time>
      </trkpt>
      <trkpt lat="40.4210840" lon="-3.6693960">
        <ele>678.8</ele>
        <time>2019-05-04T05:52:34Z</time>
      </trkpt>
      <trkpt lat="40.4210860" lon="-3.6694650">
        <ele>679.3</ele>
        <time>2019-05-04T05:52:35Z</time>
      </trkpt>
      <trkpt lat="40.4210920" lon="-3.6695330">
        <ele>679.8</ele>
        <time>2019-05-04T05:52:36Z</time>
      </trkpt>
      <trkpt lat="40.4211000" lon="-3.6695980">
        <ele>680.2</ele>
        <time>2019-05-04T05:52:37Z</time>
      </trkpt>
      <trkpt lat="40.4211090" lon="-3.6696600">
        <ele>680.5</ele>
        <time>2019-05-04T05:52:38Z</time>
      </trkpt>
      <trkpt lat="40.4211170" lon="-3.6697250">
        <ele>680.9</ele>
        <time>2019-05-04T05:52:39Z</time>
      </trkpt>
      <trkpt lat="40.4211260" lon="-3.6697900">
        <ele>681.1</ele>
        <time>2019-05-04T05:52:40Z</time>
      </trkpt>
      <trkpt lat="40.4211340" lon="-3.6698560">
        <ele>681.4</ele>
        <time>2019-05-04T05:52:41Z</time>
      </trkpt>
      <trkpt lat="40.4211410" lon="-3.6699230">
        <ele>681.7</ele>
        <time>2019-05-04T05:52:42Z</time>
      </trkpt>
      <trkpt lat="40.4211450" lon="-3.6699900">
        <ele>681.9</ele>
        <time>2019-05-04T05:52:43Z</time>
      </trkpt>
      <trkpt lat="40.4211490" lon="-3.6700570">
        <ele>682.2</ele>
        <time>2019-05-04T05:52:44Z</time>
      </trkpt>
      <trkpt lat="40.4211530" lon="-3.6701240">
        <ele>682.5</ele>
        <time>2019-05-04T05:52:45Z</time>
      </trkpt>
      <trkpt lat="40.4211580" lon="-3.6701910">
        <ele>682.7</ele>
        <time>2019-05-04T05:52:46Z</time>
      </trkpt>
      <trkpt lat="40.4211630" lon="-3.6702570">
        <ele>683.0</ele>
        <time>2019-05-04T05:52:47Z</time>
      </trkpt>
      <trkpt lat="40.4211680" lon="-3.6703230">
        <ele>683.2</ele>
        <time>2019-05-04T05:52:48Z</time>
      </trkpt>
      <trkpt lat="40.4211740" lon="-3.6703890">
        <ele>683.4</ele>
        <time>2019-05-04T05:52:49Z</time>
      </trkpt>
      <trkpt lat="40.4211790" lon="-3.6704540">
        <ele>683.7</ele>
        <time>2019-05-04T05:52:50Z</time>
      </trkpt>
      <trkpt lat="40.4211840" lon="-3.6705190">
        <ele>683.9</ele>
        <time>2019-05-04T05:52:51Z</time>
      </trkpt>
      <trkpt lat="40.4211920" lon="-3.6705860">
        <ele>684.1</ele>
        <time>2019-05-04T05:52:52Z</time>
      </trkpt>
      <trkpt lat="40.4212030" lon="-3.6706550">
        <ele>684.3</ele>
        <time>2019-05-04T05:52:53Z</time>
      </trkpt>
      <trkpt lat="40.4212130" lon="-3.6707250">
        <ele>684.4</ele>
        <time>2019-05-04T05:52:54Z</time>
      </trkpt>
      <trkpt lat="40.4212230" lon="-3.6707960">
        <ele>684.6</ele>
        <time>2019-05-04T05:52:55Z</time>
      </trkpt>
      <trkpt lat="40.4212310" lon="-3.6708650">
        <ele>684.8</ele>
        <time>2019-05-04T05:52:56Z</time>
      </trkpt>
      <trkpt lat="40.4212400" lon="-3.6709330">
        <ele>685.0</ele>
        <time>2019-05-04T05:52:57Z</time>
      </trkpt>
      <trkpt lat="40.4212460" lon="-3.6710000">
        <ele>685.2</ele>
        <time>2019-05-04T05:52:58Z</time>
      </trkpt>
      <trkpt lat="40.4212540" lon="-3.6710680">
        <ele>685.3</ele>
        <time>2019-05-04T05:52:59Z</time>
      </trkpt>
      <trkpt lat="40.4212650" lon="-3.6711360">
        <ele>685.4</ele>
        <time>2019-05-04T05:53:00Z</time>
      </trkpt>
      <trkpt lat="40.4212750" lon="-3.6712020">
        <ele>686.0</ele>
        <time>2019-05-04T05:53:01Z</time>
      </trkpt>
      <trkpt lat="40.4212830" lon="-3.6712690">
        <ele>686.0</ele>
        <time>2019-05-04T05:53:02Z</time>
      </trkpt>
      <trkpt lat="40.4212900" lon="-3.6713380">
        <ele>687.9</ele>
        <time>2019-05-04T05:53:03Z</time>
      </trkpt>
      <trkpt lat="40.4212990" lon="-3.6714070">
        <ele>688.8</ele>
        <time>2019-05-04T05:53:04Z</time>
      </trkpt>
      <trkpt lat="40.4213070" lon="-3.6714750">
        <ele>689.8</ele>
        <time>2019-05-04T05:53:05Z</time>
      </trkpt>
      <trkpt lat="40.4213110" lon="-3.6715400">
        <ele>690.6</ele>
        <time>2019-05-04T05:53:06Z</time>
      </trkpt>
      <trkpt lat="40.4213130" lon="-3.6716020">
        <ele>691.3</ele>
        <time>2019-05-04T05:53:07Z</time>
      </trkpt>
      <trkpt lat="40.4213120" lon="-3.6716610">
        <ele>692.1</ele>
        <time>2019-05-04T05:53:08Z</time>
      </trkpt>
      <trkpt lat="40.4213130" lon="-3.6717140">
        <ele>692.8</ele>
        <time>2019-05-04T05:53:09Z</time>
      </trkpt>
      <trkpt lat="40.4213200" lon="-3.6717640">
        <ele>693.3</ele>
        <time>2019-05-04T05:53:10Z</time>
      </trkpt>
      <trkpt lat="40.4213320" lon="-3.6718150">
        <ele>693.8</ele>
        <time>2019-05-04T05:53:11Z</time>
      </trkpt>
      <trkpt lat="40.4213450" lon="-3.6718770">
        <ele>694.4</ele>
        <time>2019-05-04T05:53:12Z</time>
      </trkpt>
      <trkpt lat="40.4213550" lon="-3.6719490">
        <ele>695.0</ele>
        <time>2019-05-04T05:53:13Z</time>
      </trkpt>
      <trkpt lat="40.4213630" lon="-3.6720260">
        <ele>695.6</ele>
        <time>2019-05-04T05:53:14Z</time>
      </trkpt>
      <trkpt lat="40.4213700" lon="-3.6721020">
        <ele>696.1</ele>
        <time>2019-05-04T05:53:15Z</time>
      </trkpt>
      <trkpt lat="40.4213760" lon="-3.6721730">
        <ele>696.5</ele>
        <time>2019-05-04T05:53:16Z</time>
      </trkpt>
      <trkpt lat="40.4213800" lon="-3.6722390">
        <ele>696.9</ele>
        <time>2019-05-04T05:53:17Z</time>
      </trkpt>
      <trkpt lat="40.4213830" lon="-3.6723010">
        <ele>697.2</ele>
        <time>2019-05-04T05:53:18Z</time>
      </trkpt>
      <trkpt lat="40.4213890" lon="-3.6723590">
        <ele>697.5</ele>
        <time>2019-05-04T05:53:19Z</time>
      </trkpt>
      <trkpt lat="40.4213990" lon="-3.6724110">
        <ele>697.8</ele>
        <time>2019-05-04T05:53:20Z</time>
      </trkpt>
      <trkpt lat="40.4214100" lon="-3.6724570">
        <ele>698.0</ele>
        <time>2019-05-04T05:53:21Z</time>
      </trkpt>
      <trkpt lat="40.4214190" lon="-3.6724980">
        <ele>698.3</ele>
        <time>2019-05-04T05:53:22Z</time>
      </trkpt>
      <trkpt lat="40.4214240" lon="-3.6725360">
        <ele>698.5</ele>
        <time>2019-05-04T05:53:23Z</time>
      </trkpt>
      <trkpt lat="40.4214260" lon="-3.6725800">
        <ele>698.8</ele>
        <time>2019-05-04T05:53:24Z</time>
      </trkpt>
      <trkpt lat="40.4214250" lon="-3.6726320">
        <ele>699.3</ele>
        <time>2019-05-04T05:53:25Z</time>
      </trkpt>
      <trkpt lat="40.4214250" lon="-3.6726900">
        <ele>699.8</ele>
        <time>2019-05-04T05:53:26Z</time>
      </trkpt>
      <trkpt lat="40.4214240" lon="-3.6727500">
        <ele>700.3</ele>
        <time>2019-05-04T05:53:27Z</time>
      </trkpt>
      <trkpt lat="40.4214280" lon="-3.6728060">
        <ele>700.8</ele>
        <time>2019-05-04T05:53:28Z</time>
      </trkpt>
      <trkpt lat="40.4214340" lon="-3.6728610">
        <ele>701.0</ele>
        <time>2019-05-04T05:53:29Z</time>
      </trkpt>
      <trkpt lat="40.4214430" lon="-3.6729100">
        <ele>701.0</ele>
        <time>2019-05-04T05:53:30Z</time>
      </trkpt>
      <trkpt lat="40.4214510" lon="-3.6729620">
        <ele>701.0</ele>
        <time>2019-05-04T05:53:31Z</time>
      </trkpt>
      <trkpt lat="40.4214580" lon="-3.6730080">
        <ele>701.1</ele>
        <time>2019-05-04T05:53:32Z</time>
      </trkpt>
      <trkpt lat="40.4214610" lon="-3.6730570">
        <ele>701.1</ele>
        <time>2019-05-04T05:53:33Z</time>
      </trkpt>
      <trkpt lat="40.4214640" lon="-3.6731020">
        <ele>701.1</ele>
        <time>2019-05-04T05:53:34Z</time>
      </trkpt>
      <trkpt lat="40.4214630" lon="-3.6731580">
        <ele>701.1</ele>
        <time>2019-05-04T05:53:35Z</time>
      </trkpt>
      <trkpt lat="40.4214700" lon="-3.6732220">
        <ele>701.1</ele>
        <time>2019-05-04T05:53:36Z</time>
      </trkpt>
      <trkpt lat="40.4214810" lon="-3.6732880">
        <ele>701.1</ele>
        <time>2019-05-04T05:53:37Z</time>
      </trkpt>
      <trkpt lat="40.4214960" lon="-3.6733550">
        <ele>701.1</ele>
        <time>2019-05-04T05:53:38Z</time>
      </trkpt>
      <trkpt lat="40.4215070" lon="-3.6734190">
        <ele>701.1</ele>
        <time>2019-05-04T05:53:39Z</time>
      </trkpt>
      <trkpt lat="40.4215150" lon="-3.6734800">
        <ele>701.1</ele>
        <time>2019-05-04T05:53:40Z</time>
      </trkpt>
      <trkpt lat="40.4215270" lon="-3.6735400">
        <ele>701.1</ele>
        <time>2019-05-04T05:53:41Z</time>
      </trkpt>
      <trkpt lat="40.4215390" lon="-3.6735980">
        <ele>701.1</ele>
        <time>2019-05-04T05:53:42Z</time>
      </trkpt>
      <trkpt lat="40.4215540" lon="-3.6736590">
        <ele>701.1</ele>
        <time>2019-05-04T05:53:43Z</time>
      </trkpt>
      <trkpt lat="40.4215680" lon="-3.6737260">
        <ele>701.1</ele>
        <time>2019-05-04T05:53:44Z</time>
      </trkpt>
      <trkpt lat="40.4215750" lon="-3.6737900">
        <ele>701.1</ele>
        <time>2019-05-04T05:53:45Z</time>
      </trkpt>
      <trkpt lat="40.4215770" lon="-3.6738510">
        <ele>701.1</ele>
        <time>2019-05-04T05:53:46Z</time>
      </trkpt>
      <trkpt lat="40.4215800" lon="-3.6739040">
        <ele>701.1</ele>
        <time>2019-05-04T05:53:47Z</time>
      </trkpt>
      <trkpt lat="40.4215870" lon="-3.6739610">
        <ele>701.0</ele>
        <time>2019-05-04T05:53:48Z</time>
      </trkpt>
      <trkpt lat="40.4215890" lon="-3.6740150">
        <ele>701.0</ele>
        <time>2019-05-04T05:53:49Z</time>
      </trkpt>
      <trkpt lat="40.4215790" lon="-3.6740670">
        <ele>700.9</ele>
        <time>2019-05-04T05:53:50Z</time>
      </trkpt>
      <trkpt lat="40.4215610" lon="-3.6741180">
        <ele>700.7</ele>
        <time>2019-05-04T05:53:51Z</time>
      </trkpt>
      <trkpt lat="40.4215480" lon="-3.6741670">
        <ele>700.5</ele>
        <time>2019-05-04T05:53:52Z</time>
      </trkpt>
      <trkpt lat="40.4215460" lon="-3.6742170">
        <ele>700.3</ele>
        <time>2019-05-04T05:53:53Z</time>
      </trkpt>
      <trkpt lat="40.4215510" lon="-3.6742600">
        <ele>700.1</ele>
        <time>2019-05-04T05:53:54Z</time>
      </trkpt>
      <trkpt lat="40.4215570" lon="-3.6743060">
        <ele>699.8</ele>
        <time>2019-05-04T05:53:55Z</time>
      </trkpt>
      <trkpt lat="40.4215620" lon="-3.6743500">
        <ele>699.5</ele>
        <time>2019-05-04T05:53:56Z</time>
      </trkpt>
      <trkpt lat="40.4215650" lon="-3.6743950">
        <ele>699.3</ele>
        <time>2019-05-04T05:53:57Z</time>
      </trkpt>
      <trkpt lat="40.4215700" lon="-3.6744320">
        <ele>699.1</ele>
        <time>2019-05-04T05:53:58Z</time>
      </trkpt>
      <trkpt lat="40.4215760" lon="-3.6744730">
        <ele>698.9</ele>
        <time>2019-05-04T05:53:59Z</time>
      </trkpt>
      <trkpt lat="40.4215880" lon="-3.6745320">
        <ele>698.7</ele>
        <time>2019-05-04T05:54:00Z</time>
      </trkpt>
      <trkpt lat="40.4216010" lon="-3.6746030">
        <ele>698.6</ele>
        <time>2019-05-04T05:54:01Z</time>
      </trkpt>
      <trkpt lat="40.4216100" lon="-3.6746780">
        <ele>698.4</ele>
        <time>2019-05-04T05:54:02Z</time>
      </trkpt>
      <trkpt lat="40.4216140" lon="-3.6747500">
        <ele>698.3</ele>
        <time>2019-05-04T05:54:03Z</time>
      </trkpt>
      <trkpt lat="40.4216210" lon="-3.6748260">
        <ele>698.2</ele>
        <time>2019-05-04T05:54:04Z</time>
      </trkpt>
      <trkpt lat="40.4216340" lon="-3.6749020">
        <ele>698.1</ele>
        <time>2019-05-04T05:54:05Z</time>
      </trkpt>
      <trkpt lat="40.4216500" lon="-3.6749700">
        <ele>698.0</ele>
        <time>2019-05-04T05:54:06Z</time>
      </trkpt>
      <trkpt lat="40.4216640" lon="-3.6750280">
        <ele>698.0</ele>
        <time>2019-05-04T05:54:07Z</time>
      </trkpt>
      <trkpt lat="40.4216760" lon="-3.6750770">
        <ele>697.9</ele>
        <time>2019-05-04T05:54:08Z</time>
      </trkpt>
      <trkpt lat="40.4216880" lon="-3.6751190">
        <ele>697.9</ele>
        <time>2019-05-04T05:54:09Z</time>
      </trkpt>
      <trkpt lat="40.4216960" lon="-3.6751600">
        <ele>697.8</ele>
        <time>2019-05-04T05:54:10Z</time>
      </trkpt>
      <trkpt lat="40.4217030" lon="-3.6752050">
        <ele>697.8</ele>
        <time>2019-05-04T05:54:11Z</time>
      </trkpt>
      <trkpt lat="40.4217120" lon="-3.6752550">
        <ele>697.7</ele>
        <time>2019-05-04T05:54:12Z</time>
      </trkpt>
      <trkpt lat="40.4217240" lon="-3.6753060">
        <ele>697.7</ele>
        <time>2019-05-04T05:54:13Z</time>
      </trkpt>
      <trkpt lat="40.4217380" lon="-3.6753650">
        <ele>697.6</ele>
        <time>2019-05-04T05:54:14Z</time>
      </trkpt>
      <trkpt lat="40.4217500" lon="-3.6754270">
        <ele>697.5</ele>
        <time>2019-05-04T05:54:15Z</time>
      </trkpt>
      <trkpt lat="40.4217460" lon="-3.6754910">
        <ele>697.5</ele>
        <time>2019-05-04T05:54:16Z</time>
      </trkpt>
      <trkpt lat="40.4217370" lon="-3.6755460">
        <ele>697.4</ele>
        <time>2019-05-04T05:54:17Z</time>
      </trkpt>
      <trkpt lat="40.4217160" lon="-3.6756020">
        <ele>697.3</ele>
        <time>2019-05-04T05:54:18Z</time>
      </trkpt>
      <trkpt lat="40.4217010" lon="-3.6756600">
        <ele>697.3</ele>
        <time>2019-05-04T05:54:19Z</time>
      </trkpt>
      <trkpt lat="40.4216840" lon="-3.6757260">
        <ele>697.3</ele>
        <time>2019-05-04T05:54:20Z</time>
      </trkpt>
      <trkpt lat="40.4216770" lon="-3.6757910">
        <ele>697.3</ele>
        <time>2019-05-04T05:54:21Z</time>
      </trkpt>
      <trkpt lat="40.4216810" lon="-3.6758500">
        <ele>697.3</ele>
        <time>2019-05-04T05:54:22Z</time>
      </trkpt>
      <trkpt lat="40.4216910" lon="-3.6759090">
        <ele>697.3</ele>
        <time>2019-05-04T05:54:23Z</time>
      </trkpt>
      <trkpt lat="40.4217010" lon="-3.6759740">
        <ele>697.3</ele>
        <time>2019-05-04T05:54:24Z</time>
      </trkpt>
      <trkpt lat="40.4217080" lon="-3.6760410">
        <ele>697.1</ele>
        <time>2019-05-04T05:54:25Z</time>
      </trkpt>
      <trkpt lat="40.4217120" lon="-3.6761120">
        <ele>696.8</ele>
        <time>2019-05-04T05:54:26Z</time>
      </trkpt>
      <trkpt lat="40.4217130" lon="-3.6761810">
        <ele>696.6</ele>
        <time>2019-05-04T05:54:27Z</time>
      </trkpt>
      <trkpt lat="40.4217180" lon="-3.6762510">
        <ele>696.3</ele>
        <time>2019-05-04T05:54:28Z</time>
      </trkpt>
      <trkpt lat="40.4217270" lon="-3.6763150">
        <ele>696.1</ele>
        <time>2019-05-04T05:54:29Z</time>
      </trkpt>
      <trkpt lat="40.4217430" lon="-3.6763690">
        <ele>695.9</ele>
        <time>2019-05-04T05:54:30Z</time>
      </trkpt>
      <trkpt lat="40.4217590" lon="-3.6764180">
        <ele>695.7</ele>
        <time>2019-05-04T05:54:31Z</time>
      </trkpt>
      <trkpt lat="40.4217750" lon="-3.6764580">
        <ele>695.3</ele>
        <time>2019-05-04T05:54:32Z</time>
      </trkpt>
      <trkpt lat="40.4217830" lon="-3.6764940">
        <ele>695.0</ele>
        <time>2019-05-04T05:54:33Z</time>
      </trkpt>
      <trkpt lat="40.4217850" lon="-3.6765310">
        <ele>694.7</ele>
        <time>2019-05-04T05:54:34Z</time>
      </trkpt>
      <trkpt lat="40.4217930" lon="-3.6765780">
        <ele>694.3</ele>
        <time>2019-05-04T05:54:35Z</time>
      </trkpt>
      <trkpt lat="40.4218090" lon="-3.6766350">
        <ele>693.8</ele>
        <time>2019-05-04T05:54:36Z</time>
      </trkpt>
      <trkpt lat="40.4218250" lon="-3.6766870">
        <ele>693.5</ele>
        <time>2019-05-04T05:54:37Z</time>
      </trkpt>
      <trkpt lat="40.4218340" lon="-3.6767350">
        <ele>693.2</ele>
        <time>2019-05-04T05:54:38Z</time>
      </trkpt>
      <trkpt lat="40.4218380" lon="-3.6767800">
        <ele>693.0</ele>
        <time>2019-05-04T05:54:39Z</time>
      </trkpt>
      <trkpt lat="40.4218430" lon="-3.6768310">
        <ele>692.9</ele>
        <time>2019-05-04T05:54:40Z</time>
      </trkpt>
      <trkpt lat="40.4218500" lon="-3.6768820">
        <ele>692.8</ele>
        <time>2019-05-04T05:54:41Z</time>
      </trkpt>
      <trkpt lat="40.4218570" lon="-3.6769310">
        <ele>692.9</ele>
        <time>2019-05-04T05:54:42Z</time>
      </trkpt>
      <trkpt lat="40.4218510" lon="-3.6769750">
        <ele>693.1</ele>
        <time>2019-05-04T05:54:43Z</time>
      </trkpt>
      <trkpt lat="40.4218400" lon="-3.6770190">
        <ele>693.4</ele>
        <time>2019-05-04T05:54:44Z</time>
      </trkpt>
      <trkpt lat="40.4218310" lon="-3.6770650">
        <ele>693.8</ele>
        <time>2019-05-04T05:54:45Z</time>
      </trkpt>
      <trkpt lat="40.4218420" lon="-3.6771100">
        <ele>694.3</ele>
        <time>2019-05-04T05:54:46Z</time>
      </trkpt>
      <trkpt lat="40.4218630" lon="-3.6771550">
        <ele>694.8</ele>
        <time>2019-05-04T05:54:47Z</time>
      </trkpt>
      <trkpt lat="40.4218820" lon="-3.6771980">
        <ele>695.5</ele>
        <time>2019-05-04T05:54:48Z</time>
      </trkpt>
      <trkpt lat="40.4218940" lon="-3.6772400">
        <ele>696.0</ele>
        <time>2019-05-04T05:54:49Z</time>
      </trkpt>
      <trkpt lat="40.4219040" lon="-3.6772810">
        <ele>696.6</ele>
        <time>2019-05-04T05:54:50Z</time>
      </trkpt>
      <trkpt lat="40.4219120" lon="-3.6773360">
        <ele>697.3</ele>
        <time>2019-05-04T05:54:51Z</time>
      </trkpt>
      <trkpt lat="40.4219190" lon="-3.6774050">
        <ele>698.2</ele>
        <time>2019-05-04T05:54:52Z</time>
      </trkpt>
      <trkpt lat="40.4219160" lon="-3.6774840">
        <ele>699.2</ele>
        <time>2019-05-04T05:54:53Z</time>
      </trkpt>
      <trkpt lat="40.4219070" lon="-3.6775640">
        <ele>699.5</ele>
        <time>2019-05-04T05:54:54Z</time>
      </trkpt>
      <trkpt lat="40.4219000" lon="-3.6776430">
        <ele>699.5</ele>
        <time>2019-05-04T05:54:55Z</time>
      </trkpt>
      <trkpt lat="40.4218990" lon="-3.6777190">
        <ele>699.6</ele>
        <time>2019-05-04T05:54:56Z</time>
      </trkpt>
      <trkpt lat="40.4219050" lon="-3.6777860">
        <ele>699.5</ele>
        <time>2019-05-04T05:54:57Z</time>
      </trkpt>
      <trkpt lat="40.4219100" lon="-3.6778480">
        <ele>699.5</ele>
        <time>2019-05-04T05:54:58Z</time>
      </trkpt>
      <trkpt lat="40.4219140" lon="-3.6779070">
        <ele>699.5</ele>
        <time>2019-05-04T05:54:59Z</time>
      </trkpt>
      <trkpt lat="40.4219180" lon="-3.6779740">
        <ele>699.5</ele>
        <time>2019-05-04T05:55:00Z</time>
      </trkpt>
      <trkpt lat="40.4219250" lon="-3.6780500">
        <ele>699.5</ele>
        <time>2019-05-04T05:55:01Z</time>
      </trkpt>
      <trkpt lat="40.4219360" lon="-3.6781280">
        <ele>699.6</ele>
        <time>2019-05-04T05:55:02Z</time>
      </trkpt>
      <trkpt lat="40.4219480" lon="-3.6781960">
        <ele>699.6</ele>
        <time>2019-05-04T05:55:03Z</time>
      </trkpt>
      <trkpt lat="40.4219590" lon="-3.6782530">
        <ele>699.6</ele>
        <time>2019-05-04T05:55:04Z</time>
      </trkpt>
      <trkpt lat="40.4219690" lon="-3.6782950">
        <ele>699.6</ele>
        <time>2019-05-04T05:55:05Z</time>
      </trkpt>
      <trkpt lat="40.4219680" lon="-3.6783290">
        <ele>699.6</ele>
        <time>2019-05-04T05:55:06Z</time>
      </trkpt>
      <trkpt lat="40.4219500" lon="-3.6783500">
        <ele>699.6</ele>
        <time>2019-05-04T05:55:07Z</time>
      </trkpt>
      <trkpt lat="40.4219220" lon="-3.6783650">
        <ele>699.6</ele>
        <time>2019-05-04T05:55:08Z</time>
      </trkpt>
      <trkpt lat="40.4219000" lon="-3.6783800">
        <ele>699.6</ele>
        <time>2019-05-04T05:55:09Z</time>
      </trkpt>
      <trkpt lat="40.4218910" lon="-3.6784090">
        <ele>699.5</ele>
        <time>2019-05-04T05:55:10Z</time>
      </trkpt>
      <trkpt lat="40.4218860" lon="-3.6784530">
        <ele>699.5</ele>
        <time>2019-05-04T05:55:11Z</time>
      </trkpt>
      <trkpt lat="40.4218810" lon="-3.6785110">
        <ele>699.5</ele>
        <time>2019-05-04T05:55:12Z</time>
      </trkpt>
      <trkpt lat="40.4218800" lon="-3.6785710">
        <ele>699.4</ele>
        <time>2019-05-04T05:55:13Z</time>
      </trkpt>
      <trkpt lat="40.4218820" lon="-3.6786330">
        <ele>699.4</ele>
        <time>2019-05-04T05:55:14Z</time>
      </trkpt>
      <trkpt lat="40.4218880" lon="-3.6786900">
        <ele>699.4</ele>
        <time>2019-05-04T05:55:15Z</time>
      </trkpt>
      <trkpt lat="40.4218920" lon="-3.6787580">
        <ele>699.4</ele>
        <time>2019-05-04T05:55:16Z</time>
      </trkpt>
      <trkpt lat="40.4218960" lon="-3.6788310">
        <ele>699.4</ele>
        <time>2019-05-04T05:55:17Z</time>
      </trkpt>
      <trkpt lat="40.4219000" lon="-3.6789090">
        <ele>699.4</ele>
        <time>2019-05-04T05:55:18Z</time>
      </trkpt>
      <trkpt lat="40.4219060" lon="-3.6789760">
        <ele>699.1</ele>
        <time>2019-05-04T05:55:19Z</time>
      </trkpt>
      <trkpt lat="40.4219060" lon="-3.6790460">
        <ele>698.8</ele>
        <time>2019-05-04T05:55:20Z</time>
      </trkpt>
      <trkpt lat="40.4218940" lon="-3.6791270">
        <ele>698.5</ele>
        <time>2019-05-04T05:55:21Z</time>
      </trkpt>
      <trkpt lat="40.4218710" lon="-3.6792170">
        <ele>698.0</ele>
        <time>2019-05-04T05:55:22Z</time>
      </trkpt>
      <trkpt lat="40.4218490" lon="-3.6793050">
        <ele>697.4</ele>
        <time>2019-05-04T05:55:23Z</time>
      </trkpt>
      <trkpt lat="40.4218390" lon="-3.6793880">
        <ele>697.0</ele>
        <time>2019-05-04T05:55:24Z</time>
      </trkpt>
      <trkpt lat="40.4218440" lon="-3.6794640">
        <ele>696.6</ele>
        <time>2019-05-04T05:55:25Z</time>
      </trkpt>
      <trkpt lat="40.4218600" lon="-3.6795280">
        <ele>696.2</ele>
        <time>2019-05-04T05:55:26Z</time>
      </trkpt>
      <trkpt lat="40.4218800" lon="-3.6795810">
        <ele>695.9</ele>
        <time>2019-05-04T05:55:27Z</time>
      </trkpt>
      <trkpt lat="40.4218870" lon="-3.6796410">
        <ele>695.6</ele>
        <time>2019-05-04T05:55:28Z</time>
      </trkpt>
      <trkpt lat="40.4218790" lon="-3.6797130">
        <ele>695.2</ele>
        <time>2019-05-04T05:55:29Z</time>
      </trkpt>
      <trkpt lat="40.4218580" lon="-3.6797900">
        <ele>694.8</ele>
        <time>2019-05-04T05:55:30Z</time>
      </trkpt>
      <trkpt lat="40.4218350" lon="-3.6798610">
        <ele>694.4</ele>
        <time>2019-05-04T05:55:31Z</time>
      </trkpt>
      <trkpt lat="40.4218130" lon="-3.6799380">
        <ele>694.0</ele>
        <time>2019-05-04T05:55:32Z</time>
      </trkpt>
      <trkpt lat="40.4217920" lon="-3.6800210">
        <ele>693.6</ele>
        <time>2019-05-04T05:55:33Z</time>
      </trkpt>
      <trkpt lat="40.4217690" lon="-3.6800990">
        <ele>692.1</ele>
        <time>2019-05-04T05:55:34Z</time>
      </trkpt>
      <trkpt lat="40.4217430" lon="-3.6801700">
        <ele>690.8</ele>
        <time>2019-05-04T05:55:35Z</time>
      </trkpt>
      <trkpt lat="40.4217180" lon="-3.6802300">
        <ele>689.6</ele>
        <time>2019-05-04T05:55:36Z</time>
      </trkpt>
      <trkpt lat="40.4216960" lon="-3.6802920">
        <ele>688.8</ele>
        <time>2019-05-04T05:55:37Z</time>
      </trkpt>
      <trkpt lat="40.4216790" lon="-3.6803450">
        <ele>688.5</ele>
        <time>2019-05-04T05:55:38Z</time>
      </trkpt>
      <trkpt lat="40.4216600" lon="-3.6804120">
        <ele>688.2</ele>
        <time>2019-05-04T05:55:39Z</time>
      </trkpt>
      <trkpt lat="40.4216470" lon="-3.6804830">
        <ele>688.0</ele>
        <time>2019-05-04T05:55:40Z</time>
      </trkpt>
      <trkpt lat="40.4216300" lon="-3.6805640">
        <ele>687.8</ele>
        <time>2019-05-04T05:55:41Z</time>
      </trkpt>
      <trkpt lat="40.4216120" lon="-3.6806410">
        <ele>687.6</ele>
        <time>2019-05-04T05:55:42Z</time>
      </trkpt>
      <trkpt lat="40.4215920" lon="-3.6807240">
        <ele>687.4</ele>
        <time>2019-05-04T05:55:43Z</time>
      </trkpt>
      <trkpt lat="40.4215800" lon="-3.6808070">
        <ele>687.1</ele>
        <time>2019-05-04T05:55:44Z</time>
      </trkpt>
      <trkpt lat="40.4215690" lon="-3.6808850">
        <ele>686.9</ele>
        <time>2019-05-04T05:55:45Z</time>
      </trkpt>
      <trkpt lat="40.4215590" lon="-3.6809530">
        <ele>686.6</ele>
        <time>2019-05-04T05:55:46Z</time>
      </trkpt>
      <trkpt lat="40.4215400" lon="-3.6810210">
        <ele>686.3</ele>
        <time>2019-05-04T05:55:47Z</time>
      </trkpt>
      <trkpt lat="40.4215220" lon="-3.6810940">
        <ele>686.0</ele>
        <time>2019-05-04T05:55:48Z</time>
      </trkpt>
      <trkpt lat="40.4214990" lon="-3.6811700">
        <ele>685.6</ele>
        <time>2019-05-04T05:55:49Z</time>
      </trkpt>
      <trkpt lat="40.4214830" lon="-3.6812420">
        <ele>685.3</ele>
        <time>2019-05-04T05:55:50Z</time>
      </trkpt>
      <trkpt lat="40.4214690" lon="-3.6813150">
        <ele>684.9</ele>
        <time>2019-05-04T05:55:51Z</time>
      </trkpt>
      <trkpt lat="40.4214590" lon="-3.6813910">
        <ele>684.5</ele>
        <time>2019-05-04T05:55:52Z</time>
      </trkpt>
      <trkpt lat="40.4214500" lon="-3.6814760">
        <ele>684.3</ele>
        <time>2019-05-04T05:55:53Z</time>
      </trkpt>
      <trkpt lat="40.4214380" lon="-3.6815630">
        <ele>684.1</ele>
        <time>2019-05-04T05:55:54Z</time>
      </trkpt>
      <trkpt lat="40.4214250" lon="-3.6816460">
        <ele>683.9</ele>
        <time>2019-05-04T05:55:55Z</time>
      </trkpt>
      <trkpt lat="40.4214070" lon="-3.6817310">
        <ele>683.8</ele>
        <time>2019-05-04T05:55:56Z</time>
      </trkpt>
      <trkpt lat="40.4213940" lon="-3.6818230">
        <ele>683.7</ele>
        <time>2019-05-04T05:55:57Z</time>
      </trkpt>
      <trkpt lat="40.4213820" lon="-3.6819260">
        <ele>683.5</ele>
        <time>2019-05-04T05:55:58Z</time>
      </trkpt>
      <trkpt lat="40.4213740" lon="-3.6820260">
        <ele>683.3</ele>
        <time>2019-05-04T05:55:59Z</time>
      </trkpt>
      <trkpt lat="40.4213680" lon="-3.6821170">
        <ele>683.1</ele>
        <time>2019-05-04T05:56:00Z</time>
      </trkpt>
      <trkpt lat="40.4213650" lon="-3.6822000">
        <ele>682.7</ele>
        <time>2019-05-04T05:56:01Z</time>
      </trkpt>
      <trkpt lat="40.4213670" lon="-3.6822750">
        <ele>683.0</ele>
        <time>2019-05-04T05:56:02Z</time>
      </trkpt>
      <trkpt lat="40.4213740" lon="-3.6823380">
        <ele>683.2</ele>
        <time>2019-05-04T05:56:03Z</time>
      </trkpt>
      <trkpt lat="40.4213850" lon="-3.6823950">
        <ele>683.3</ele>
        <time>2019-05-04T05:56:04Z</time>
      </trkpt>
      <trkpt lat="40.4213980" lon="-3.6824470">
        <ele>683.5</ele>
        <time>2019-05-04T05:56:05Z</time>
      </trkpt>
      <trkpt lat="40.4214150" lon="-3.6825030">
        <ele>683.8</ele>
        <time>2019-05-04T05:56:06Z</time>
      </trkpt>
      <trkpt lat="40.4214340" lon="-3.6825620">
        <ele>684.1</ele>
        <time>2019-05-04T05:56:07Z</time>
      </trkpt>
      <trkpt lat="40.4214560" lon="-3.6826290">
        <ele>684.5</ele>
        <time>2019-05-04T05:56:08Z</time>
      </trkpt>
      <trkpt lat="40.4214750" lon="-3.6827060">
        <ele>685.0</ele>
        <time>2019-05-04T05:56:09Z</time>
      </trkpt>
      <trkpt lat="40.4214920" lon="-3.6827870">
        <ele>685.5</ele>
        <time>2019-05-04T05:56:10Z</time>
      </trkpt>
      <trkpt lat="40.4215060" lon="-3.6828640">
        <ele>686.4</ele>
        <time>2019-05-04T05:56:11Z</time>
      </trkpt>
      <trkpt lat="40.4215190" lon="-3.6829380">
        <ele>686.6</ele>
        <time>2019-05-04T05:56:12Z</time>
      </trkpt>
      <trkpt lat="40.4215280" lon="-3.6830140">
        <ele>686.9</ele>
        <time>2019-05-04T05:56:13Z</time>
      </trkpt>
      <trkpt lat="40.4215210" lon="-3.6830930">
        <ele>687.1</ele>
        <time>2019-05-04T05:56:14Z</time>
      </trkpt>
      <trkpt lat="40.4214980" lon="-3.6831670">
        <ele>687.2</ele>
        <time>2019-05-04T05:56:15Z</time>
      </trkpt>
      <trkpt lat="40.4214650" lon="-3.6832370">
        <ele>687.2</ele>
        <time>2019-05-04T05:56:16Z</time>
      </trkpt>
      <trkpt lat="40.4214290" lon="-3.6833100">
        <ele>687.1</ele>
        <time>2019-05-04T05:56:17Z</time>
      </trkpt>
      <trkpt lat="40.4213900" lon="-3.6833870">
        <ele>686.9</ele>
        <time>2019-05-04T05:56:18Z</time>
      </trkpt>
      <trkpt lat="40.4213520" lon="-3.6834640">
        <ele>686.6</ele>
        <time>2019-05-04T05:56:19Z</time>
      </trkpt>
      <trkpt lat="40.4213150" lon="-3.6835390">
        <ele>686.4</ele>
        <time>2019-05-04T05:56:20Z</time>
      </trkpt>
      <trkpt lat="40.4212790" lon="-3.6836140">
        <ele>686.1</ele>
        <time>2019-05-04T05:56:21Z</time>
      </trkpt>
      <trkpt lat="40.4212420" lon="-3.6836890">
        <ele>685.7</ele>
        <time>2019-05-04T05:56:22Z</time>
      </trkpt>
      <trkpt lat="40.4212060" lon="-3.6837650">
        <ele>685.2</ele>
        <time>2019-05-04T05:56:23Z</time>
      </trkpt>
      <trkpt lat="40.4211690" lon="-3.6838380">
        <ele>684.8</ele>
        <time>2019-05-04T05:56:24Z</time>
      </trkpt>
      <trkpt lat="40.4211310" lon="-3.6839060">
        <ele>684.3</ele>
        <time>2019-05-04T05:56:25Z</time>
      </trkpt>
      <trkpt lat="40.4210970" lon="-3.6839730">
        <ele>683.8</ele>
        <time>2019-05-04T05:56:26Z</time>
      </trkpt>
      <trkpt lat="40.4210720" lon="-3.6840430">
        <ele>683.4</ele>
        <time>2019-05-04T05:56:27Z</time>
      </trkpt>
      <trkpt lat="40.4210560" lon="-3.6841160">
        <ele>683.0</ele>
        <time>2019-05-04T05:56:28Z</time>
      </trkpt>
      <trkpt lat="40.4210470" lon="-3.6841860">
        <ele>682.7</ele>
        <time>2019-05-04T05:56:29Z</time>
      </trkpt>
      <trkpt lat="40.4210380" lon="-3.6842420">
        <ele>682.5</ele>
        <time>2019-05-04T05:56:30Z</time>
      </trkpt>
      <trkpt lat="40.4210320" lon="-3.6842850">
        <ele>682.3</ele>
        <time>2019-05-04T05:56:31Z</time>
      </trkpt>
      <trkpt lat="40.4210270" lon="-3.6843170">
        <ele>682.1</ele>
        <time>2019-05-04T05:56:32Z</time>
      </trkpt>
      <trkpt lat="40.4210210" lon="-3.6843470">
        <ele>682.0</ele>
        <time>2019-05-04T05:56:33Z</time>
      </trkpt>
      <trkpt lat="40.4210140" lon="-3.6843790">
        <ele>681.9</ele>
        <time>2019-05-04T05:56:34Z</time>
      </trkpt>
      <trkpt lat="40.4210040" lon="-3.6844140">
        <ele>681.7</ele>
        <time>2019-05-04T05:56:35Z</time>
      </trkpt>
      <trkpt lat="40.4209920" lon="-3.6844530">
        <ele>681.5</ele>
        <time>2019-05-04T05:56:36Z</time>
      </trkpt>
      <trkpt lat="40.4209760" lon="-3.6845070">
        <ele>681.2</ele>
        <time>2019-05-04T05:56:37Z</time>
      </trkpt>
      <trkpt lat="40.4209640" lon="-3.6845730">
        <ele>681.0</ele>
        <time>2019-05-04T05:56:38Z</time>
      </trkpt>
      <trkpt lat="40.4209520" lon="-3.6846460">
        <ele>680.8</ele>
        <time>2019-05-04T05:56:39Z</time>
      </trkpt>
      <trkpt lat="40.4209440" lon="-3.6847140">
        <ele>680.6</ele>
        <time>2019-05-04T05:56:40Z</time>
      </trkpt>
      <trkpt lat="40.4209330" lon="-3.6847850">
        <ele>680.4</ele>
        <time>2019-05-04T05:56:41Z</time>
      </trkpt>
      <trkpt lat="40.4209210" lon="-3.6848570">
        <ele>680.2</ele>
        <time>2019-05-04T05:56:42Z</time>
      </trkpt>
      <trkpt lat="40.4209100" lon="-3.6849330">
        <ele>680.1</ele>
        <time>2019-05-04T05:56:43Z</time>
      </trkpt>
      <trkpt lat="40.4208940" lon="-3.6850100">
        <ele>679.9</ele>
        <time>2019-05-04T05:56:44Z</time>
      </trkpt>
      <trkpt lat="40.4208800" lon="-3.6850860">
        <ele>679.7</ele>
        <time>2019-05-04T05:56:45Z</time>
      </trkpt>
      <trkpt lat="40.4208640" lon="-3.6851630">
        <ele>679.4</ele>
        <time>2019-05-04T05:56:46Z</time>
      </trkpt>
      <trkpt lat="40.4208510" lon="-3.6852400">
        <ele>679.2</ele>
        <time>2019-05-04T05:56:47Z</time>
      </trkpt>
      <trkpt lat="40.4208330" lon="-3.6853190">
        <ele>678.9</ele>
        <time>2019-05-04T05:56:48Z</time>
      </trkpt>
      <trkpt lat="40.4208110" lon="-3.6853990">
        <ele>678.7</ele>
        <time>2019-05-04T05:56:49Z</time>
      </trkpt>
      <trkpt lat="40.4207830" lon="-3.6854880">
        <ele>678.4</ele>
        <time>2019-05-04T05:56:50Z</time>
      </trkpt>
      <trkpt lat="40.4207510" lon="-3.6855890">
        <ele>678.1</ele>
        <time>2019-05-04T05:56:51Z</time>
      </trkpt>
      <trkpt lat="40.4207230" lon="-3.6856950">
        <ele>677.7</ele>
        <time>2019-05-04T05:56:52Z</time>
      </trkpt>
      <trkpt lat="40.4207000" lon="-3.6858000">
        <ele>677.3</ele>
        <time>2019-05-04T05:56:53Z</time>
      </trkpt>
      <trkpt lat="40.4206830" lon="-3.6859000">
        <ele>676.9</ele>
        <time>2019-05-04T05:56:54Z</time>
      </trkpt>
      <trkpt lat="40.4206610" lon="-3.6859970">
        <ele>676.6</ele>
        <time>2019-05-04T05:56:55Z</time>
      </trkpt>
      <trkpt lat="40.4206350" lon="-3.6860940">
        <ele>676.2</ele>
        <time>2019-05-04T05:56:56Z</time>
      </trkpt>
      <trkpt lat="40.4206080" lon="-3.6861910">
        <ele>675.9</ele>
        <time>2019-05-04T05:56:57Z</time>
      </trkpt>
      <trkpt lat="40.4205830" lon="-3.6862880">
        <ele>675.5</ele>
        <time>2019-05-04T05:56:58Z</time>
      </trkpt>
      <trkpt lat="40.4205610" lon="-3.6863860">
        <ele>675.1</ele>
        <time>2019-05-04T05:56:59Z</time>
      </trkpt>
      <trkpt lat="40.4205370" lon="-3.6864830">
        <ele>674.8</ele>
        <time>2019-05-04T05:57:00Z</time>
      </trkpt>
      <trkpt lat="40.4205140" lon="-3.6865800">
        <ele>674.4</ele>
        <time>2019-05-04T05:57:01Z</time>
      </trkpt>
      <trkpt lat="40.4204890" lon="-3.6866770">
        <ele>674.0</ele>
        <time>2019-05-04T05:57:02Z</time>
      </trkpt>
      <trkpt lat="40.4204630" lon="-3.6867750">
        <ele>673.6</ele>
        <time>2019-05-04T05:57:03Z</time>
      </trkpt>
      <trkpt lat="40.4204380" lon="-3.6868760">
        <ele>673.2</ele>
        <time>2019-05-04T05:57:04Z</time>
      </trkpt>
      <trkpt lat="40.4204150" lon="-3.6869760">
        <ele>672.9</ele>
        <time>2019-05-04T05:57:05Z</time>
      </trkpt>
      <trkpt lat="40.4203950" lon="-3.6870760">
        <ele>672.6</ele>
        <time>2019-05-04T05:57:06Z</time>
      </trkpt>
      <trkpt lat="40.4203740" lon="-3.6871740">
        <ele>672.4</ele>
        <time>2019-05-04T05:57:07Z</time>
      </trkpt>
      <trkpt lat="40.4203520" lon="-3.6872760">
        <ele>671.9</ele>
        <time>2019-05-04T05:57:08Z</time>
      </trkpt>
      <trkpt lat="40.4203260" lon="-3.6873870">
        <ele>671.1</ele>
        <time>2019-05-04T05:57:09Z</time>
      </trkpt>
      <trkpt lat="40.4202960" lon="-3.6875060">
        <ele>670.5</ele>
        <time>2019-05-04T05:57:10Z</time>
      </trkpt>
      <trkpt lat="40.4202680" lon="-3.6876290">
        <ele>669.9</ele>
        <time>2019-05-04T05:57:11Z</time>
      </trkpt>
      <trkpt lat="40.4202450" lon="-3.6877500">
        <ele>669.2</ele>
        <time>2019-05-04T05:57:12Z</time>
      </trkpt>
      <trkpt lat="40.4202370" lon="-3.6878690">
        <ele>668.5</ele>
        <time>2019-05-04T05:57:13Z</time>
      </trkpt>
      <trkpt lat="40.4202460" lon="-3.6879850">
        <ele>668.1</ele>
        <time>2019-05-04T05:57:14Z</time>
      </trkpt>
      <trkpt lat="40.4202680" lon="-3.6881010">
        <ele>667.9</ele>
        <time>2019-05-04T05:57:15Z</time>
      </trkpt>
      <trkpt lat="40.4202950" lon="-3.6882140">
        <ele>668.0</ele>
        <time>2019-05-04T05:57:16Z</time>
      </trkpt>
      <trkpt lat="40.4203210" lon="-3.6883260">
        <ele>668.4</ele>
        <time>2019-05-04T05:57:17Z</time>
      </trkpt>
      <trkpt lat="40.4203420" lon="-3.6884420">
        <ele>668.9</ele>
        <time>2019-05-04T05:57:18Z</time>
      </trkpt>
      <trkpt lat="40.4203550" lon="-3.6885590">
        <ele>669.4</ele>
        <time>2019-05-04T05:57:19Z</time>
      </trkpt>
      <trkpt lat="40.4203530" lon="-3.6886740">
        <ele>669.8</ele>
        <time>2019-05-04T05:57:20Z</time>
      </trkpt>
      <trkpt lat="40.4203370" lon="-3.6887820">
        <ele>670.2</ele>
        <time>2019-05-04T05:57:21Z</time>
      </trkpt>
      <trkpt lat="40.4203070" lon="-3.6888870">
        <ele>670.6</ele>
        <time>2019-05-04T05:57:22Z</time>
      </trkpt>
      <trkpt lat="40.4202670" lon="-3.6889810">
        <ele>670.4</ele>
        <time>2019-05-04T05:57:23Z</time>
      </trkpt>
      <trkpt lat="40.4202180" lon="-3.6890700">
        <ele>669.8</ele>
        <time>2019-05-04T05:57:24Z</time>
      </trkpt>
      <trkpt lat="40.4201620" lon="-3.6891580">
        <ele>669.7</ele>
        <time>2019-05-04T05:57:25Z</time>
      </trkpt>
      <trkpt lat="40.4201040" lon="-3.6892530">
        <ele>669.2</ele>
        <time>2019-05-04T05:57:26Z</time>
      </trkpt>
      <trkpt lat="40.4200470" lon="-3.6893490">
        <ele>668.8</ele>
        <time>2019-05-04T05:57:27Z</time>
      </trkpt>
      <trkpt lat="40.4199970" lon="-3.6894470">
        <ele>668.5</ele>
        <time>2019-05-04T05:57:28Z</time>
      </trkpt>
      <trkpt lat="40.4199570" lon="-3.6895510">
        <ele>668.2</ele>
        <time>2019-05-04T05:57:29Z</time>
      </trkpt>
      <trkpt lat="40.4199320" lon="-3.6896650">
        <ele>668.0</ele>
        <time>2019-05-04T05:57:30Z</time>
      </trkpt>
      <trkpt lat="40.4199170" lon="-3.6897820">
        <ele>667.8</ele>
        <time>2019-05-04T05:57:31Z</time>
      </trkpt>
      <trkpt lat="40.4199040" lon="-3.6898970">
        <ele>667.7</ele>
        <time>2019-05-04T05:57:32Z</time>
      </trkpt>
      <trkpt lat="40.4198910" lon="-3.6900140">
        <ele>667.5</ele>
        <time>2019-05-04T05:57:33Z</time>
      </trkpt>
      <trkpt lat="40.4198760" lon="-3.6901360">
        <ele>667.3</ele>
        <time>2019-05-04T05:57:34Z</time>
      </trkpt>
      <trkpt lat="40.4198620" lon="-3.6902610">
        <ele>667.0</ele>
        <time>2019-05-04T05:57:35Z</time>
      </trkpt>
      <trkpt lat="40.4198440" lon="-3.6903860">
        <ele>666.8</ele>
        <time>2019-05-04T05:57:36Z</time>
      </trkpt>
      <trkpt lat="40.4198240" lon="-3.6905090">
        <ele>666.5</ele>
        <time>2019-05-04T05:57:37Z</time>
      </trkpt>
      <trkpt lat="40.4198040" lon="-3.6906350">
        <ele>666.1</ele>
        <time>2019-05-04T05:57:38Z</time>
      </trkpt>
      <trkpt lat="40.4197860" lon="-3.6907630">
        <ele>665.8</ele>
        <time>2019-05-04T05:57:39Z</time>
      </trkpt>
      <trkpt lat="40.4197710" lon="-3.6908910">
        <ele>665.2</ele>
        <time>2019-05-04T05:57:40Z</time>
      </trkpt>
      <trkpt lat="40.4197560" lon="-3.6910140">
        <ele>664.6</ele>
        <time>2019-05-04T05:57:41Z</time>
      </trkpt>
      <trkpt lat="40.4197410" lon="-3.6911270">
        <ele>664.0</ele>
        <time>2019-05-04T05:57:42Z</time>
      </trkpt>
      <trkpt lat="40.4197280" lon="-3.6912280">
        <ele>663.5</ele>
        <time>2019-05-04T05:57:43Z</time>
      </trkpt>
      <trkpt lat="40.4197170" lon="-3.6913150">
        <ele>663.2</ele>
        <time>2019-05-04T05:57:44Z</time>
      </trkpt>
      <trkpt lat="40.4197080" lon="-3.6913890">
        <ele>663.0</ele>
        <time>2019-05-04T05:57:45Z</time>
      </trkpt>
      <trkpt lat="40.4196980" lon="-3.6914520">
        <ele>662.7</ele>
        <time>2019-05-04T05:57:46Z</time>
      </trkpt>
      <trkpt lat="40.4196890" lon="-3.6915050">
        <ele>662.5</ele>
        <time>2019-05-04T05:57:47Z</time>
      </trkpt>
      <trkpt lat="40.4196800" lon="-3.6915520">
        <ele>662.4</ele>
        <time>2019-05-04T05:57:48Z</time>
      </trkpt>
      <trkpt lat="40.4196700" lon="-3.6915990">
        <ele>662.2</ele>
        <time>2019-05-04T05:57:49Z</time>
      </trkpt>
      <trkpt lat="40.4196630" lon="-3.6916510">
        <ele>662.1</ele>
        <time>2019-05-04T05:57:50Z</time>
      </trkpt>
      <trkpt lat="40.4196580" lon="-3.6917070">
        <ele>661.9</ele>
        <time>2019-05-04T05:57:51Z</time>
      </trkpt>
      <trkpt lat="40.4196540" lon="-3.6917630">
        <ele>661.7</ele>
        <time>2019-05-04T05:57:52Z</time>
      </trkpt>
      <trkpt lat="40.4196470" lon="-3.6918130">
        <ele>661.5</ele>
        <time>2019-05-04T05:57:53Z</time>
      </trkpt>
      <trkpt lat="40.4196400" lon="-3.6918630">
        <ele>661.2</ele>
        <time>2019-05-04T05:57:54Z</time>
      </trkpt>
      <trkpt lat="40.4196340" lon="-3.6919190">
        <ele>660.8</ele>
        <time>2019-05-04T05:57:55Z</time>
      </trkpt>
      <trkpt lat="40.4196270" lon="-3.6919860">
        <ele>660.3</ele>
        <time>2019-05-04T05:57:56Z</time>
      </trkpt>
      <trkpt lat="40.4196210" lon="-3.6920610">
        <ele>659.7</ele>
        <time>2019-05-04T05:57:57Z</time>
      </trkpt>
      <trkpt lat="40.4196170" lon="-3.6921360">
        <ele>659.3</ele>
        <time>2019-05-04T05:57:58Z</time>
      </trkpt>
      <trkpt lat="40.4196150" lon="-3.6922120">
        <ele>658.9</ele>
        <time>2019-05-04T05:57:59Z</time>
      </trkpt>
      <trkpt lat="40.4196150" lon="-3.6922860">
        <ele>658.5</ele>
        <time>2019-05-04T05:58:00Z</time>
      </trkpt>
      <trkpt lat="40.4196130" lon="-3.6923600">
        <ele>658.1</ele>
        <time>2019-05-04T05:58:01Z</time>
      </trkpt>
      <trkpt lat="40.4196110" lon="-3.6924380">
        <ele>657.1</ele>
        <time>2019-05-04T05:58:02Z</time>
      </trkpt>
      <trkpt lat="40.4196070" lon="-3.6925170">
        <ele>656.5</ele>
        <time>2019-05-04T05:58:03Z</time>
      </trkpt>
      <trkpt lat="40.4196000" lon="-3.6926010">
        <ele>655.5</ele>
        <time>2019-05-04T05:58:04Z</time>
      </trkpt>
      <trkpt lat="40.4195910" lon="-3.6926860">
        <ele>654.7</ele>
        <time>2019-05-04T05:58:05Z</time>
      </trkpt>
      <trkpt lat="40.4195800" lon="-3.6927730">
        <ele>654.2</ele>
        <time>2019-05-04T05:58:06Z</time>
      </trkpt>
      <trkpt lat="40.4195680" lon="-3.6928600">
        <ele>653.7</ele>
        <time>2019-05-04T05:58:07Z</time>
      </trkpt>
      <trkpt lat="40.4195560" lon="-3.6929470">
        <ele>653.3</ele>
        <time>2019-05-04T05:58:08Z</time>
      </trkpt>
      <trkpt lat="40.4195420" lon="-3.6930360">
        <ele>652.9</ele>
        <time>2019-05-04T05:58:09Z</time>
      </trkpt>
      <trkpt lat="40.4195250" lon="-3.6931250">
        <ele>652.9</ele>
        <time>2019-05-04T05:58:10Z</time>
      </trkpt>
      <trkpt lat="40.4195050" lon="-3.6932150">
        <ele>653.1</ele>
        <time>2019-05-04T05:58:11Z</time>
      </trkpt>
      <trkpt lat="40.4194830" lon="-3.6933080">
        <ele>653.6</ele>
        <time>2019-05-04T05:58:12Z</time>
      </trkpt>
      <trkpt lat="40.4194590" lon="-3.6934020">
        <ele>654.0</ele>
        <time>2019-05-04T05:58:13Z</time>
      </trkpt>
      <trkpt lat="40.4194330" lon="-3.6934980">
        <ele>654.5</ele>
        <time>2019-05-04T05:58:14Z</time>
      </trkpt>
      <trkpt lat="40.4194070" lon="-3.6935940">
        <ele>655.0</ele>
        <time>2019-05-04T05:58:15Z</time>
      </trkpt>
      <trkpt lat="40.4193800" lon="-3.6936900">
        <ele>655.5</ele>
        <time>2019-05-04T05:58:16Z</time>
      </trkpt>
      <trkpt lat="40.4193520" lon="-3.6937870">
        <ele>655.7</ele>
        <time>2019-05-04T05:58:17Z</time>
      </trkpt>
      <trkpt lat="40.4193240" lon="-3.6938850">
        <ele>655.9</ele>
        <time>2019-05-04T05:58:18Z</time>
      </trkpt>
      <trkpt lat="40.4192980" lon="-3.6939850">
        <ele>656.1</ele>
        <time>2019-05-04T05:58:19Z</time>
      </trkpt>
      <trkpt lat="40.4192750" lon="-3.6940870">
        <ele>657.2</ele>
        <time>2019-05-04T05:58:20Z</time>
      </trkpt>
      <trkpt lat="40.4192560" lon="-3.6941900">
        <ele>657.7</ele>
        <time>2019-05-04T05:58:21Z</time>
      </trkpt>
      <trkpt lat="40.4192380" lon="-3.6942930">
        <ele>658.3</ele>
        <time>2019-05-04T05:58:22Z</time>
      </trkpt>
      <trkpt lat="40.4192220" lon="-3.6943960">
        <ele>659.0</ele>
        <time>2019-05-04T05:58:23Z</time>
      </trkpt>
      <trkpt lat="40.4192060" lon="-3.6944970">
        <ele>659.8</ele>
        <time>2019-05-04T05:58:24Z</time>
      </trkpt>
      <trkpt lat="40.4191900" lon="-3.6945990">
        <ele>660.7</ele>
        <time>2019-05-04T05:58:25Z</time>
      </trkpt>
      <trkpt lat="40.4191720" lon="-3.6946990">
        <ele>661.6</ele>
        <time>2019-05-04T05:58:26Z</time>
      </trkpt>
      <trkpt lat="40.4191540" lon="-3.6947970">
        <ele>662.3</ele>
        <time>2019-05-04T05:58:27Z</time>
      </trkpt>
      <trkpt lat="40.4191340" lon="-3.6948930">
        <ele>662.8</ele>
        <time>2019-05-04T05:58:28Z</time>
      </trkpt>
      <trkpt lat="40.4191140" lon="-3.6949900">
        <ele>663.4</ele>
        <time>2019-05-04T05:58:29Z</time>
      </trkpt>
      <trkpt lat="40.4190940" lon="-3.6950900">
        <ele>663.9</ele>
        <time>2019-05-04T05:58:30Z</time>
      </trkpt>
      <trkpt lat="40.4190760" lon="-3.6951900">
        <ele>664.4</ele>
        <time>2019-05-04T05:58:31Z</time>
      </trkpt>
      <trkpt lat="40.4190590" lon="-3.6952880">
        <ele>665.0</ele>
        <time>2019-05-04T05:58:32Z</time>
      </trkpt>
      <trkpt lat="40.4190450" lon="-3.6953850">
        <ele>665.6</ele>
        <time>2019-05-04T05:58:33Z</time>
      </trkpt>
      <trkpt lat="40.4190300" lon="-3.6954820">
        <ele>666.2</ele>
        <time>2019-05-04T05:58:34Z</time>
      </trkpt>
      <trkpt lat="40.4190150" lon="-3.6955770">
        <ele>666.8</ele>
        <time>2019-05-04T05:58:35Z</time>
      </trkpt>
      <trkpt lat="40.4189990" lon="-3.6956680">
        <ele>666.9</ele>
        <time>2019-05-04T05:58:36Z</time>
      </trkpt>
      <trkpt lat="40.4189830" lon="-3.6957540">
        <ele>667.0</ele>
        <time>2019-05-04T05:58:37Z</time>
      </trkpt>
      <trkpt lat="40.4189670" lon="-3.6958380">
        <ele>667.2</ele>
        <time>2019-05-04T05:58:38Z</time>
      </trkpt>
      <trkpt lat="40.4189490" lon="-3.6959160">
        <ele>667.3</ele>
        <time>2019-05-04T05:58:39Z</time>
      </trkpt>
      <trkpt lat="40.4189320" lon="-3.6959970">
        <ele>667.4</ele>
        <time>2019-05-04T05:58:40Z</time>
      </trkpt>
      <trkpt lat="40.4189150" lon="-3.6960740">
        <ele>667.3</ele>
        <time>2019-05-04T05:58:41Z</time>
      </trkpt>
      <trkpt lat="40.4188990" lon="-3.6961540">
        <ele>667.3</ele>
        <time>2019-05-04T05:58:42Z</time>
      </trkpt>
      <trkpt lat="40.4188860" lon="-3.6962260">
        <ele>667.2</ele>
        <time>2019-05-04T05:58:43Z</time>
      </trkpt>
      <trkpt lat="40.4188770" lon="-3.6962930">
        <ele>667.2</ele>
        <time>2019-05-04T05:58:44Z</time>
      </trkpt>
      <trkpt lat="40.4188710" lon="-3.6963530">
        <ele>667.2</ele>
        <time>2019-05-04T05:58:45Z</time>
      </trkpt>
      <trkpt lat="40.4188720" lon="-3.6964090">
        <ele>667.1</ele>
        <time>2019-05-04T05:58:46Z</time>
      </trkpt>
      <trkpt lat="40.4188780" lon="-3.6964580">
        <ele>667.1</ele>
        <time>2019-05-04T05:58:47Z</time>
      </trkpt>
      <trkpt lat="40.4188870" lon="-3.6965030">
        <ele>667.1</ele>
        <time>2019-05-04T05:58:48Z</time>
      </trkpt>
      <trkpt lat="40.4188980" lon="-3.6965460">
        <ele>667.0</ele>
        <time>2019-05-04T05:58:49Z</time>
      </trkpt>
      <trkpt lat="40.4189050" lon="-3.6965830">
        <ele>667.0</ele>
        <time>2019-05-04T05:58:50Z</time>
      </trkpt>
      <trkpt lat="40.4189120" lon="-3.6966130">
        <ele>667.0</ele>
        <time>2019-05-04T05:58:51Z</time>
      </trkpt>
      <trkpt lat="40.4189160" lon="-3.6966360">
        <ele>667.0</ele>
        <time>2019-05-04T05:58:52Z</time>
      </trkpt>
      <trkpt lat="40.4189210" lon="-3.6966570">
        <ele>667.0</ele>
        <time>2019-05-04T05:58:53Z</time>
      </trkpt>
      <trkpt lat="40.4189270" lon="-3.6966800">
        <ele>667.0</ele>
        <time>2019-05-04T05:58:54Z</time>
      </trkpt>
      <trkpt lat="40.4189320" lon="-3.6967010">
        <ele>666.9</ele>
        <time>2019-05-04T05:58:55Z</time>
      </trkpt>
      <trkpt lat="40.4189360" lon="-3.6967240">
        <ele>666.9</ele>
        <time>2019-05-04T05:58:56Z</time>
      </trkpt>
      <trkpt lat="40.4189410" lon="-3.6967480">
        <ele>666.9</ele>
        <time>2019-05-04T05:58:57Z</time>
      </trkpt>
      <trkpt lat="40.4189470" lon="-3.6967780">
        <ele>666.8</ele>
        <time>2019-05-04T05:58:58Z</time>
      </trkpt>
      <trkpt lat="40.4189560" lon="-3.6968090">
        <ele>666.8</ele>
        <time>2019-05-04T05:58:59Z</time>
      </trkpt>
      <trkpt lat="40.4189680" lon="-3.6968410">
        <ele>667.7</ele>
        <time>2019-05-04T05:59:00Z</time>
      </trkpt>
      <trkpt lat="40.4189820" lon="-3.6968710">
        <ele>667.6</ele>
        <time>2019-05-04T05:59:01Z</time>
      </trkpt>
      <trkpt lat="40.4189960" lon="-3.6968970">
        <ele>667.6</ele>
        <time>2019-05-04T05:59:02Z</time>
      </trkpt>
      <trkpt lat="40.4190110" lon="-3.6969210">
        <ele>667.6</ele>
        <time>2019-05-04T05:59:03Z</time>
      </trkpt>
      <trkpt lat="40.4190300" lon="-3.6969430">
        <ele>667.6</ele>
        <time>2019-05-04T05:59:04Z</time>
      </trkpt>
      <trkpt lat="40.4190480" lon="-3.6969660">
        <ele>667.6</ele>
        <time>2019-05-04T05:59:05Z</time>
      </trkpt>
      <trkpt lat="40.4190650" lon="-3.6969920">
        <ele>667.6</ele>
        <time>2019-05-04T05:59:06Z</time>
      </trkpt>
      <trkpt lat="40.4190790" lon="-3.6970280">
        <ele>667.6</ele>
        <time>2019-05-04T05:59:07Z</time>
      </trkpt>
      <trkpt lat="40.4190980" lon="-3.6970750">
        <ele>667.6</ele>
        <time>2019-05-04T05:59:08Z</time>
      </trkpt>
      <trkpt lat="40.4191260" lon="-3.6971360">
        <ele>667.6</ele>
        <time>2019-05-04T05:59:09Z</time>
      </trkpt>
      <trkpt lat="40.4191540" lon="-3.6972070">
        <ele>667.6</ele>
        <time>2019-05-04T05:59:10Z</time>
      </trkpt>
      <trkpt lat="40.4191820" lon="-3.6972840">
        <ele>667.6</ele>
        <time>2019-05-04T05:59:11Z</time>
      </trkpt>
      <trkpt lat="40.4192090" lon="-3.6973640">
        <ele>667.9</ele>
        <time>2019-05-04T05:59:12Z</time>
      </trkpt>
      <trkpt lat="40.4192360" lon="-3.6974380">
        <ele>668.1</ele>
        <time>2019-05-04T05:59:13Z</time>
      </trkpt>
      <trkpt lat="40.4192640" lon="-3.6975100">
        <ele>668.4</ele>
        <time>2019-05-04T05:59:14Z</time>
      </trkpt>
      <trkpt lat="40.4192890" lon="-3.6975790">
        <ele>668.7</ele>
        <time>2019-05-04T05:59:15Z</time>
      </trkpt>
      <trkpt lat="40.4193140" lon="-3.6976460">
        <ele>668.9</ele>
        <time>2019-05-04T05:59:16Z</time>
      </trkpt>
      <trkpt lat="40.4193390" lon="-3.6977120">
        <ele>669.1</ele>
        <time>2019-05-04T05:59:17Z</time>
      </trkpt>
      <trkpt lat="40.4193640" lon="-3.6977770">
        <ele>669.3</ele>
        <time>2019-05-04T05:59:18Z</time>
      </trkpt>
      <trkpt lat="40.4193900" lon="-3.6978400">
        <ele>669.6</ele>
        <time>2019-05-04T05:59:19Z</time>
      </trkpt>
      <trkpt lat="40.4194160" lon="-3.6979080">
        <ele>669.9</ele>
        <time>2019-05-04T05:59:20Z</time>
      </trkpt>
      <trkpt lat="40.4194420" lon="-3.6979820">
        <ele>670.2</ele>
        <time>2019-05-04T05:59:21Z</time>
      </trkpt>
      <trkpt lat="40.4194670" lon="-3.6980620">
        <ele>670.5</ele>
        <time>2019-05-04T05:59:22Z</time>
      </trkpt>
      <trkpt lat="40.4194940" lon="-3.6981420">
        <ele>670.8</ele>
        <time>2019-05-04T05:59:23Z</time>
      </trkpt>
      <trkpt lat="40.4195230" lon="-3.6982210">
        <ele>671.2</ele>
        <time>2019-05-04T05:59:24Z</time>
      </trkpt>
      <trkpt lat="40.4195540" lon="-3.6983000">
        <ele>671.6</ele>
        <time>2019-05-04T05:59:25Z</time>
      </trkpt>
      <trkpt lat="40.4195840" lon="-3.6983800">
        <ele>671.9</ele>
        <time>2019-05-04T05:59:26Z</time>
      </trkpt>
      <trkpt lat="40.4196110" lon="-3.6984600">
        <ele>672.2</ele>
        <time>2019-05-04T05:59:27Z</time>
      </trkpt>
      <trkpt lat="40.4196360" lon="-3.6985380">
        <ele>672.5</ele>
        <time>2019-05-04T05:59:28Z</time>
      </trkpt>
      <trkpt lat="40.4196560" lon="-3.6986090">
        <ele>672.7</ele>
        <time>2019-05-04T05:59:29Z</time>
      </trkpt>
      <trkpt lat="40.4196730" lon="-3.6986760">
        <ele>672.8</ele>
        <time>2019-05-04T05:59:30Z</time>
      </trkpt>
      <trkpt lat="40.4196860" lon="-3.6987380">
        <ele>672.9</ele>
        <time>2019-05-04T05:59:31Z</time>
      </trkpt>
      <trkpt lat="40.4196990" lon="-3.6987950">
        <ele>673.1</ele>
        <time>2019-05-04T05:59:32Z</time>
      </trkpt>
      <trkpt lat="40.4197130" lon="-3.6988470">
        <ele>673.2</ele>
        <time>2019-05-04T05:59:33Z</time>
      </trkpt>
      <trkpt lat="40.4197250" lon="-3.6988960">
        <ele>673.3</ele>
        <time>2019-05-04T05:59:34Z</time>
      </trkpt>
      <trkpt lat="40.4197370" lon="-3.6989440">
        <ele>673.5</ele>
        <time>2019-05-04T05:59:35Z</time>
      </trkpt>
      <trkpt lat="40.4197490" lon="-3.6989910">
        <ele>673.7</ele>
        <time>2019-05-04T05:59:36Z</time>
      </trkpt>
      <trkpt lat="40.4197640" lon="-3.6990340">
        <ele>673.9</ele>
        <time>2019-05-04T05:59:37Z</time>
      </trkpt>
      <trkpt lat="40.4197770" lon="-3.6990770">
        <ele>674.1</ele>
        <time>2019-05-04T05:59:38Z</time>
      </trkpt>
      <trkpt lat="40.4197880" lon="-3.6991140">
        <ele>674.2</ele>
        <time>2019-05-04T05:59:39Z</time>
      </trkpt>
      <trkpt lat="40.4197950" lon="-3.6991530">
        <ele>674.4</ele>
        <time>2019-05-04T05:59:40Z</time>
      </trkpt>
      <trkpt lat="40.4198010" lon="-3.6991870">
        <ele>674.5</ele>
        <time>2019-05-04T05:59:41Z</time>
      </trkpt>
      <trkpt lat="40.4198050" lon="-3.6992210">
        <ele>674.6</ele>
        <time>2019-05-04T05:59:42Z</time>
      </trkpt>
      <trkpt lat="40.4198080" lon="-3.6992490">
        <ele>674.7</ele>
        <time>2019-05-04T05:59:43Z</time>
      </trkpt>
      <trkpt lat="40.4198100" lon="-3.6992720">
        <ele>674.8</ele>
        <time>2019-05-04T05:59:44Z</time>
      </trkpt>
      <trkpt lat="40.4198100" lon="-3.6992900">
        <ele>674.8</ele>
        <time>2019-05-04T05:59:45Z</time>
      </trkpt>
      <trkpt lat="40.4198100" lon="-3.6993060">
        <ele>674.9</ele>
        <time>2019-05-04T05:59:46Z</time>
      </trkpt>
      <trkpt lat="40.4198110" lon="-3.6993210">
        <ele>674.9</ele>
        <time>2019-05-04T05:59:47Z</time>
      </trkpt>
      <trkpt lat="40.4198120" lon="-3.6993360">
        <ele>675.0</ele>
        <time>2019-05-04T05:59:48Z</time>
      </trkpt>
      <trkpt lat="40.4198130" lon="-3.6993510">
        <ele>675.0</ele>
        <time>2019-05-04T05:59:49Z</time>
      </trkpt>
      <trkpt lat="40.4198140" lon="-3.6993660">
        <ele>675.0</ele>
        <time>2019-05-04T05:59:50Z</time>
      </trkpt>
      <trkpt lat="40.4198150" lon="-3.6993810">
        <ele>675.1</ele>
        <time>2019-05-04T05:59:51Z</time>
      </trkpt>
      <trkpt lat="40.4198140" lon="-3.6993950">
        <ele>675.1</ele>
        <time>2019-05-04T05:59:52Z</time>
      </trkpt>
      <trkpt lat="40.4198120" lon="-3.6994070">
        <ele>675.2</ele>
        <time>2019-05-04T05:59:53Z</time>
      </trkpt>
      <trkpt lat="40.4198080" lon="-3.6994180">
        <ele>675.2</ele>
        <time>2019-05-04T05:59:54Z</time>
      </trkpt>
      <trkpt lat="40.4198050" lon="-3.6994280">
        <ele>675.2</ele>
        <time>2019-05-04T05:59:55Z</time>
      </trkpt>
      <trkpt lat="40.4198010" lon="-3.6994380">
        <ele>675.3</ele>
        <time>2019-05-04T05:59:56Z</time>
      </trkpt>
      <trkpt lat="40.4197990" lon="-3.6994450">
        <ele>675.3</ele>
        <time>2019-05-04T05:59:57Z</time>
      </trkpt>
      <trkpt lat="40.4197980" lon="-3.6994520">
        <ele>675.3</ele>
        <time>2019-05-04T05:59:58Z</time>
      </trkpt>
      <trkpt lat="40.4197970" lon="-3.6994570">
        <ele>675.3</ele>
        <time>2019-05-04T05:59:59Z</time>
      </trkpt>
      <trkpt lat="40.4197960" lon="-3.6994640">
        <ele>675.4</ele>
        <time>2019-05-04T06:00:00Z</time>
      </trkpt>
      <trkpt lat="40.4197950" lon="-3.6994700">
        <ele>675.4</ele>
        <time>2019-05-04T06:00:01Z</time>
      </trkpt>
      <trkpt lat="40.4197930" lon="-3.6994760">
        <ele>675.4</ele>
        <time>2019-05-04T06:00:02Z</time>
      </trkpt>
      <trkpt lat="40.4197910" lon="-3.6994810">
        <ele>675.4</ele>
        <time>2019-05-04T06:00:03Z</time>
      </trkpt>
      <trkpt lat="40.4197900" lon="-3.6994840">
        <ele>675.4</ele>
        <time>2019-05-04T06:00:04Z</time>
      </trkpt>
      <trkpt lat="40.4197880" lon="-3.6994880">
        <ele>675.4</ele>
        <time>2019-05-04T06:00:05Z</time>
      </trkpt>
      <trkpt lat="40.4197860" lon="-3.6994920">
        <ele>675.5</ele>
        <time>2019-05-04T06:00:06Z</time>
      </trkpt>
      <trkpt lat="40.4197860" lon="-3.6995000">
        <ele>675.5</ele>
        <time>2019-05-04T06:00:07Z</time>
      </trkpt>
      <trkpt lat="40.4197890" lon="-3.6995110">
        <ele>675.5</ele>
        <time>2019-05-04T06:00:08Z</time>
      </trkpt>
      <trkpt lat="40.4197940" lon="-3.6995270">
        <ele>675.6</ele>
        <time>2019-05-04T06:00:09Z</time>
      </trkpt>
      <trkpt lat="40.4198000" lon="-3.6995440">
        <ele>675.6</ele>
        <time>2019-05-04T06:00:10Z</time>
      </trkpt>
      <trkpt lat="40.4198050" lon="-3.6995580">
        <ele>675.7</ele>
        <time>2019-05-04T06:00:11Z</time>
      </trkpt>
      <trkpt lat="40.4198110" lon="-3.6995710">
        <ele>675.7</ele>
        <time>2019-05-04T06:00:12Z</time>
      </trkpt>
      <trkpt lat="40.4198180" lon="-3.6995790">
        <ele>675.8</ele>
        <time>2019-05-04T06:00:13Z</time>
      </trkpt>
      <trkpt lat="40.4198260" lon="-3.6995870">
        <ele>675.8</ele>
        <time>2019-05-04T06:00:14Z</time>
      </trkpt>
      <trkpt lat="40.4198330" lon="-3.6995930">
        <ele>676.0</ele>
        <time>2019-05-04T06:00:15Z</time>
      </trkpt>
      <trkpt lat="40.4198360" lon="-3.6996050">
        <ele>676.0</ele>
        <time>2019-05-04T06:00:16Z</time>
      </trkpt>
      <trkpt lat="40.4198370" lon="-3.6996170">
        <ele>676.1</ele>
        <time>2019-05-04T06:00:17Z</time>
      </trkpt>
      <trkpt lat="40.4198390" lon="-3.6996300">
        <ele>676.2</ele>
        <time>2019-05-04T06:00:18Z</time>
      </trkpt>
      <trkpt lat="40.4198430" lon="-3.6996460">
        <ele>676.2</ele>
        <time>2019-05-04T06:00:19Z</time>
      </trkpt>
      <trkpt lat="40.4198500" lon="-3.6996640">
        <ele>676.3</ele>
        <time>2019-05-04T06:00:20Z</time>
      </trkpt>
      <trkpt lat="40.4198600" lon="-3.6996870">
        <ele>676.4</ele>
        <time>2019-05-04T06:00:21Z</time>
      </trkpt>
      <trkpt lat="40.4198720" lon="-3.6997140">
        <ele>676.6</ele>
        <time>2019-05-04T06:00:22Z</time>
      </trkpt>
      <trkpt lat="40.4198880" lon="-3.6997560">
        <ele>676.8</ele>
        <time>2019-05-04T06:00:23Z</time>
      </trkpt>
      <trkpt lat="40.4199060" lon="-3.6998130">
        <ele>677.2</ele>
        <time>2019-05-04T06:00:24Z</time>
      </trkpt>
      <trkpt lat="40.4199250" lon="-3.6998840">
        <ele>677.7</ele>
        <time>2019-05-04T06:00:25Z</time>
      </trkpt>
      <trkpt lat="40.4199440" lon="-3.6999570">
        <ele>678.3</ele>
        <time>2019-05-04T06:00:26Z</time>
      </trkpt>
      <trkpt lat="40.4199640" lon="-3.7000290">
        <ele>679.0</ele>
        <time>2019-05-04T06:00:27Z</time>
      </trkpt>
      <trkpt lat="40.4199850" lon="-3.7001010">
        <ele>679.5</ele>
        <time>2019-05-04T06:00:28Z</time>
      </trkpt>
      <trkpt lat="40.4200040" lon="-3.7001750">
        <ele>680.1</ele>
        <time>2019-05-04T06:00:29Z</time>
      </trkpt>
      <trkpt lat="40.4200190" lon="-3.7002490">
        <ele>680.8</ele>
        <time>2019-05-04T06:00:30Z</time>
      </trkpt>
      <trkpt lat="40.4200340" lon="-3.7003210">
        <ele>681.4</ele>
        <time>2019-05-04T06:00:31Z</time>
      </trkpt>
      <trkpt lat="40.4200530" lon="-3.7003950">
        <ele>682.1</ele>
        <time>2019-05-04T06:00:32Z</time>
      </trkpt>
      <trkpt lat="40.4200660" lon="-3.7004730">
        <ele>682.9</ele>
        <time>2019-05-04T06:00:33Z</time>
      </trkpt>
      <trkpt lat="40.4200740" lon="-3.7005470">
        <ele>683.5</ele>
        <time>2019-05-04T06:00:34Z</time>
      </trkpt>
      <trkpt lat="40.4200780" lon="-3.7006120">
        <ele>684.0</ele>
        <time>2019-05-04T06:00:35Z</time>
      </trkpt>
      <trkpt lat="40.4200850" lon="-3.7006640">
        <ele>684.3</ele>
        <time>2019-05-04T06:00:36Z</time>
      </trkpt>
      <trkpt lat="40.4200980" lon="-3.7007210">
        <ele>684.5</ele>
        <time>2019-05-04T06:00:37Z</time>
      </trkpt>
      <trkpt lat="40.4201120" lon="-3.7007850">
        <ele>684.7</ele>
        <time>2019-05-04T06:00:38Z</time>
      </trkpt>
      <trkpt lat="40.4201260" lon="-3.7008550">
        <ele>685.0</ele>
        <time>2019-05-04T06:00:39Z</time>
      </trkpt>
      <trkpt lat="40.4201320" lon="-3.7009190">
        <ele>685.2</ele>
        <time>2019-05-04T06:00:40Z</time>
      </trkpt>
      <trkpt lat="40.4201350" lon="-3.7009760">
        <ele>685.4</ele>
        <time>2019-05-04T06:00:41Z</time>
      </trkpt>
      <trkpt lat="40.4201300" lon="-3.7010350">
        <ele>685.5</ele>
        <time>2019-05-04T06:00:42Z</time>
      </trkpt>
      <trkpt lat="40.4201190" lon="-3.7010980">
        <ele>685.7</ele>
        <time>2019-05-04T06:00:43Z</time>
      </trkpt>
      <trkpt lat="40.4201060" lon="-3.7011730">
        <ele>685.9</ele>
        <time>2019-05-04T06:00:44Z</time>
      </trkpt>
      <trkpt lat="40.4200920" lon="-3.7012450">
        <ele>686.2</ele>
        <time>2019-05-04T06:00:45Z</time>
      </trkpt>
      <trkpt lat="40.4200750" lon="-3.7013040">
        <ele>686.3</ele>
        <time>2019-05-04T06:00:46Z</time>
      </trkpt>
      <trkpt lat="40.4200580" lon="-3.7013630">
        <ele>686.5</ele>
        <time>2019-05-04T06:00:47Z</time>
      </trkpt>
      <trkpt lat="40.4200450" lon="-3.7014190">
        <ele>686.6</ele>
        <time>2019-05-04T06:00:48Z</time>
      </trkpt>
      <trkpt lat="40.4200450" lon="-3.7014770">
        <ele>686.8</ele>
        <time>2019-05-04T06:00:49Z</time>
      </trkpt>
      <trkpt lat="40.4200560" lon="-3.7015330">
        <ele>686.9</ele>
        <time>2019-05-04T06:00:50Z</time>
      </trkpt>
      <trkpt lat="40.4200710" lon="-3.7015950">
        <ele>687.1</ele>
        <time>2019-05-04T06:00:51Z</time>
      </trkpt>
      <trkpt lat="40.4200870" lon="-3.7016610">
        <ele>687.2</ele>
        <time>2019-05-04T06:00:52Z</time>
      </trkpt>
      <trkpt lat="40.4200970" lon="-3.7017320">
        <ele>687.4</ele>
        <time>2019-05-04T06:00:53Z</time>
      </trkpt>
      <trkpt lat="40.4201080" lon="-3.7018110">
        <ele>687.6</ele>
        <time>2019-05-04T06:00:54Z</time>
      </trkpt>
      <trkpt lat="40.4201200" lon="-3.7018970">
        <ele>687.8</ele>
        <time>2019-05-04T06:00:55Z</time>
      </trkpt>
      <trkpt lat="40.4201330" lon="-3.7019820">
        <ele>687.9</ele>
        <time>2019-05-04T06:00:56Z</time>
      </trkpt>
      <trkpt lat="40.4201450" lon="-3.7020660">
        <ele>688.1</ele>
        <time>2019-05-04T06:00:57Z</time>
      </trkpt>
      <trkpt lat="40.4201470" lon="-3.7021480">
        <ele>688.2</ele>
        <time>2019-05-04T06:00:58Z</time>
      </trkpt>
      <trkpt lat="40.4201490" lon="-3.7022290">
        <ele>688.3</ele>
        <time>2019-05-04T06:00:59Z</time>
      </trkpt>
      <trkpt lat="40.4201500" lon="-3.7023120">
        <ele>688.2</ele>
        <time>2019-05-04T06:01:00Z</time>
      </trkpt>
      <trkpt lat="40.4201580" lon="-3.7023980">
        <ele>688.2</ele>
        <time>2019-05-04T06:01:01Z</time>
      </trkpt>
      <trkpt lat="40.4201630" lon="-3.7024860">
        <ele>687.6</ele>
        <time>2019-05-04T06:01:02Z</time>
      </trkpt>
      <trkpt lat="40.4201610" lon="-3.7025640">
        <ele>687.3</ele>
        <time>2019-05-04T06:01:03Z</time>
      </trkpt>
      <trkpt lat="40.4201610" lon="-3.7026360">
        <ele>687.1</ele>
        <time>2019-05-04T06:01:04Z</time>
      </trkpt>
      <trkpt lat="40.4201650" lon="-3.7027070">
        <ele>687.0</ele>
        <time>2019-05-04T06:01:05Z</time>
      </trkpt>
      <trkpt lat="40.4201740" lon="-3.7027850">
        <ele>686.8</ele>
        <time>2019-05-04T06:01:06Z</time>
      </trkpt>
      <trkpt lat="40.4201830" lon="-3.7028710">
        <ele>686.6</ele>
        <time>2019-05-04T06:01:07Z</time>
      </trkpt>
      <trkpt lat="40.4201890" lon="-3.7029590">
        <ele>686.4</ele>
        <time>2019-05-04T06:01:08Z</time>
      </trkpt>
      <trkpt lat="40.4201950" lon="-3.7030370">
        <ele>686.1</ele>
        <time>2019-05-04T06:01:09Z</time>
      </trkpt>
      <trkpt lat="40.4201930" lon="-3.7031020">
        <ele>685.8</ele>
        <time>2019-05-04T06:01:10Z</time>
      </trkpt>
      <trkpt lat="40.4201910" lon="-3.7031550">
        <ele>685.6</ele>
        <time>2019-05-04T06:01:11Z</time>
      </trkpt>
      <trkpt lat="40.4201930" lon="-3.7032060">
        <ele>685.4</ele>
        <time>2019-05-04T06:01:12Z</time>
      </trkpt>
      <trkpt lat="40.4202010" lon="-3.7032540">
        <ele>685.2</ele>
        <time>2019-05-04T06:01:13Z</time>
      </trkpt>
      <trkpt lat="40.4202100" lon="-3.7032990">
        <ele>685.1</ele>
        <time>2019-05-04T06:01:14Z</time>
      </trkpt>
      <trkpt lat="40.4202140" lon="-3.7033340">
        <ele>684.9</ele>
        <time>2019-05-04T06:01:15Z</time>
      </trkpt>
      <trkpt lat="40.4202180" lon="-3.7033640">
        <ele>684.8</ele>
        <time>2019-05-04T06:01:16Z</time>
      </trkpt>
      <trkpt lat="40.4202210" lon="-3.7033940">
        <ele>684.7</ele>
        <time>2019-05-04T06:01:17Z</time>
      </trkpt>
      <trkpt lat="40.4202230" lon="-3.7034260">
        <ele>684.6</ele>
        <time>2019-05-04T06:01:18Z</time>
      </trkpt>
      <trkpt lat="40.4202240" lon="-3.7034540">
        <ele>684.5</ele>
        <time>2019-05-04T06:01:19Z</time>
      </trkpt>
      <trkpt lat="40.4202240" lon="-3.7034760">
        <ele>684.4</ele>
        <time>2019-05-04T06:01:20Z</time>
      </trkpt>
      <trkpt lat="40.4202220" lon="-3.7034930">
        <ele>684.3</ele>
        <time>2019-05-04T06:01:21Z</time>
      </trkpt>
      <trkpt lat="40.4202200" lon="-3.7035070">
        <ele>684.2</ele>
        <time>2019-05-04T06:01:22Z</time>
      </trkpt>
      <trkpt lat="40.4202170" lon="-3.7035190">
        <ele>684.2</ele>
        <time>2019-05-04T06:01:23Z</time>
      </trkpt>
      <trkpt lat="40.4202150" lon="-3.7035300">
        <ele>684.2</ele>
        <time>2019-05-04T06:01:24Z</time>
      </trkpt>
      <trkpt lat="40.4202140" lon="-3.7035390">
        <ele>684.1</ele>
        <time>2019-05-04T06:01:25Z</time>
      </trkpt>
      <trkpt lat="40.4202130" lon="-3.7035480">
        <ele>684.1</ele>
        <time>2019-05-04T06:01:26Z</time>
      </trkpt>
      <trkpt lat="40.4202130" lon="-3.7035560">
        <ele>684.1</ele>
        <time>2019-05-04T06:01:27Z</time>
      </trkpt>
      <trkpt lat="40.4202130" lon="-3.7035640">
        <ele>684.0</ele>
        <time>2019-05-04T06:01:28Z</time>
      </trkpt>
      <trkpt lat="40.4202150" lon="-3.7035720">
        <ele>684.0</ele>
        <time>2019-05-04T06:01:29Z</time>
      </trkpt>
      <trkpt lat="40.4202150" lon="-3.7035800">
        <ele>684.0</ele>
        <time>2019-05-04T06:01:30Z</time>
      </trkpt>
      <trkpt lat="40.4202160" lon="-3.7035880">
        <ele>683.9</ele>
        <time>2019-05-04T06:01:31Z</time>
      </trkpt>
      <trkpt lat="40.4202160" lon="-3.7035950">
        <ele>683.9</ele>
        <time>2019-05-04T06:01:32Z</time>
      </trkpt>
      <trkpt lat="40.4202180" lon="-3.7036020">
        <ele>683.9</ele>
        <time>2019-05-04T06:01:33Z</time>
      </trkpt>
      <trkpt lat="40.4202200" lon="-3.7036080">
        <ele>683.9</ele>
        <time>2019-05-04T06:01:34Z</time>
      </trkpt>
      <trkpt lat="40.4202220" lon="-3.7036160">
        <ele>683.8</ele>
        <time>2019-05-04T06:01:35Z</time>
      </trkpt>
      <trkpt lat="40.4202240" lon="-3.7036260">
        <ele>683.8</ele>
        <time>2019-05-04T06:01:36Z</time>
      </trkpt>
      <trkpt lat="40.4202240" lon="-3.7036400">
        <ele>683.8</ele>
        <time>2019-05-04T06:01:37Z</time>
      </trkpt>
      <trkpt lat="40.4202240" lon="-3.7036570">
        <ele>683.7</ele>
        <time>2019-05-04T06:01:38Z</time>
      </trkpt>
      <trkpt lat="40.4202230" lon="-3.7036800">
        <ele>683.7</ele>
        <time>2019-05-04T06:01:39Z</time>
      </trkpt>
      <trkpt lat="40.4202270" lon="-3.7037100">
        <ele>683.6</ele>
        <time>2019-05-04T06:01:40Z</time>
      </trkpt>
      <trkpt lat="40.4202340" lon="-3.7037440">
        <ele>683.5</ele>
        <time>2019-05-04T06:01:41Z</time>
      </trkpt>
      <trkpt lat="40.4202420" lon="-3.7037820">
        <ele>683.4</ele>
        <time>2019-05-04T06:01:42Z</time>
      </trkpt>
      <trkpt lat="40.4202470" lon="-3.7038210">
        <ele>683.3</ele>
        <time>2019-05-04T06:01:43Z</time>
      </trkpt>
      <trkpt lat="40.4202490" lon="-3.7038720">
        <ele>683.1</ele>
        <time>2019-05-04T06:01:44Z</time>
      </trkpt>
      <trkpt lat="40.4202450" lon="-3.7039260">
        <ele>683.0</ele>
        <time>2019-05-04T06:01:45Z</time>
      </trkpt>
      <trkpt lat="40.4202450" lon="-3.7039840">
        <ele>683.0</ele>
        <time>2019-05-04T06:01:46Z</time>
      </trkpt>
      <trkpt lat="40.4202500" lon="-3.7040400">
        <ele>682.9</ele>
        <time>2019-05-04T06:01:47Z</time>
      </trkpt>
      <trkpt lat="40.4202620" lon="-3.7041060">
        <ele>682.8</ele>
        <time>2019-05-04T06:01:48Z</time>
      </trkpt>
      <trkpt lat="40.4202770" lon="-3.7041810">
        <ele>682.8</ele>
        <time>2019-05-04T06:01:49Z</time>
      </trkpt>
      <trkpt lat="40.4202920" lon="-3.7042640">
        <ele>682.7</ele>
        <time>2019-05-04T06:01:50Z</time>
      </trkpt>
      <trkpt lat="40.4203080" lon="-3.7043520">
        <ele>682.7</ele>
        <time>2019-05-04T06:01:51Z</time>
      </trkpt>
      <trkpt lat="40.4203210" lon="-3.7044430">
        <ele>682.6</ele>
        <time>2019-05-04T06:01:52Z</time>
      </trkpt>
      <trkpt lat="40.4203320" lon="-3.7045350">
        <ele>682.5</ele>
        <time>2019-05-04T06:01:53Z</time>
      </trkpt>
      <trkpt lat="40.4203390" lon="-3.7046190">
        <ele>682.4</ele>
        <time>2019-05-04T06:01:54Z</time>
      </trkpt>
      <trkpt lat="40.4203410" lon="-3.7046960">
        <ele>682.3</ele>
        <time>2019-05-04T06:01:55Z</time>
      </trkpt>
      <trkpt lat="40.4203440" lon="-3.7047630">
        <ele>682.3</ele>
        <time>2019-05-04T06:01:56Z</time>
      </trkpt>
      <trkpt lat="40.4203470" lon="-3.7048210">
        <ele>682.2</ele>
        <time>2019-05-04T06:01:57Z</time>
      </trkpt>
      <trkpt lat="40.4203510" lon="-3.7048850">
        <ele>681.9</ele>
        <time>2019-05-04T06:01:58Z</time>
      </trkpt>
      <trkpt lat="40.4203540" lon="-3.7049600">
        <ele>681.6</ele>
        <time>2019-05-04T06:01:59Z</time>
      </trkpt>
      <trkpt lat="40.4203520" lon="-3.7050690">
        <ele>681.0</ele>
        <time>2019-05-04T06:02:00Z</time>
      </trkpt>
      <trkpt lat="40.4203490" lon="-3.7051910">
        <ele>680.4</ele>
        <time>2019-05-04T06:02:01Z</time>
      </trkpt>
      <trkpt lat="40.4203450" lon="-3.7053240">
        <ele>679.8</ele>
        <time>2019-05-04T06:02:02Z</time>
      </trkpt>
      <trkpt lat="40.4203380" lon="-3.7054410">
        <ele>679.2</ele>
        <time>2019-05-04T06:02:03Z</time>
      </trkpt>
      <trkpt lat="40.4203270" lon="-3.7055490">
        <ele>678.7</ele>
        <time>2019-05-04T06:02:04Z</time>
      </trkpt>
      <trkpt lat="40.4203150" lon="-3.7056420">
        <ele>678.1</ele>
        <time>2019-05-04T06:02:05Z</time>
      </trkpt>
      <trkpt lat="40.4203130" lon="-3.7057300">
        <ele>677.8</ele>
        <time>2019-05-04T06:02:06Z</time>
      </trkpt>
      <trkpt lat="40.4203190" lon="-3.7058160">
        <ele>677.5</ele>
        <time>2019-05-04T06:02:07Z</time>
      </trkpt>
      <trkpt lat="40.4203310" lon="-3.7059050">
        <ele>677.3</ele>
        <time>2019-05-04T06:02:08Z</time>
      </trkpt>
      <trkpt lat="40.4203510" lon="-3.7059950">
        <ele>677.1</ele>
        <time>2019-05-04T06:02:09Z</time>
      </trkpt>
      <trkpt lat="40.4203790" lon="-3.7060810">
        <ele>677.0</ele>
        <time>2019-05-04T06:02:10Z</time>
      </trkpt>
      <trkpt lat="40.4204160" lon="-3.7061600">
        <ele>677.0</ele>
        <time>2019-05-04T06:02:11Z</time>
      </trkpt>
      <trkpt lat="40.4204560" lon="-3.7062340">
        <ele>677.0</ele>
        <time>2019-05-04T06:02:12Z</time>
      </trkpt>
      <trkpt lat="40.4205020" lon="-3.7063040">
        <ele>677.1</ele>
        <time>2019-05-04T06:02:13Z</time>
      </trkpt>
      <trkpt lat="40.4205480" lon="-3.7063680">
        <ele>677.2</ele>
        <time>2019-05-04T06:02:14Z</time>
      </trkpt>
      <trkpt lat="40.4205960" lon="-3.7064270">
        <ele>677.2</ele>
        <time>2019-05-04T06:02:15Z</time>
      </trkpt>
      <trkpt lat="40.4206410" lon="-3.7064970">
        <ele>677.3</ele>
        <time>2019-05-04T06:02:16Z</time>
      </trkpt>
      <trkpt lat="40.4206910" lon="-3.7065840">
        <ele>677.4</ele>
        <time>2019-05-04T06:02:17Z</time>
      </trkpt>
      <trkpt lat="40.4207490" lon="-3.7066860">
        <ele>677.5</ele>
        <time>2019-05-04T06:02:18Z</time>
      </trkpt>
      <trkpt lat="40.4208170" lon="-3.7067830">
        <ele>677.6</ele>
        <time>2019-05-04T06:02:19Z</time>
      </trkpt>
      <trkpt lat="40.4208850" lon="-3.7068710">
        <ele>677.7</ele>
        <time>2019-05-04T06:02:20Z</time>
      </trkpt>
      <trkpt lat="40.4209540" lon="-3.7069560">
        <ele>677.4</ele>
        <time>2019-05-04T06:02:21Z</time>
      </trkpt>
      <trkpt lat="40.4210180" lon="-3.7070440">
        <ele>677.2</ele>
        <time>2019-05-04T06:02:22Z</time>
      </trkpt>
      <trkpt lat="40.4210820" lon="-3.7071330">
        <ele>677.0</ele>
        <time>2019-05-04T06:02:23Z</time>
      </trkpt>
      <trkpt lat="40.4211430" lon="-3.7072240">
        <ele>676.9</ele>
        <time>2019-05-04T06:02:24Z</time>
      </trkpt>
      <trkpt lat="40.4212040" lon="-3.7073190">
        <ele>676.9</ele>
        <time>2019-05-04T06:02:25Z</time>
      </trkpt>
      <trkpt lat="40.4212630" lon="-3.7074170">
        <ele>676.8</ele>
        <time>2019-05-04T06:02:26Z</time>
      </trkpt>
      <trkpt lat="40.4213210" lon="-3.7075160">
        <ele>676.8</ele>
        <time>2019-05-04T06:02:27Z</time>
      </trkpt>
      <trkpt lat="40.4213770" lon="-3.7076120">
        <ele>676.8</ele>
        <time>2019-05-04T06:02:28Z</time>
      </trkpt>
      <trkpt lat="40.4214330" lon="-3.7077080">
        <ele>677.2</ele>
        <time>2019-05-04T06:02:29Z</time>
      </trkpt>
      <trkpt lat="40.4214870" lon="-3.7078050">
        <ele>677.5</ele>
        <time>2019-05-04T06:02:30Z</time>
      </trkpt>
      <trkpt lat="40.4215390" lon="-3.7079040">
        <ele>677.9</ele>
        <time>2019-05-04T06:02:31Z</time>
      </trkpt>
      <trkpt lat="40.4215960" lon="-3.7080040">
        <ele>678.2</ele>
        <time>2019-05-04T06:02:32Z</time>
      </trkpt>
      <trkpt lat="40.4216530" lon="-3.7081060">
        <ele>678.5</ele>
        <time>2019-05-04T06:02:33Z</time>
      </trkpt>
      <trkpt lat="40.4217120" lon="-3.7082060">
        <ele>678.4</ele>
        <time>2019-05-04T06:02:34Z</time>
      </trkpt>
      <trkpt lat="40.4217680" lon="-3.7083060">
        <ele>678.2</ele>
        <time>2019-05-04T06:02:35Z</time>
      </trkpt>
      <trkpt lat="40.4218260" lon="-3.7084070">
        <ele>678.0</ele>
        <time>2019-05-04T06:02:36Z</time>
      </trkpt>
      <trkpt lat="40.4218850" lon="-3.7085040">
        <ele>677.7</ele>
        <time>2019-05-04T06:02:37Z</time>
      </trkpt>
      <trkpt lat="40.4219450" lon="-3.7085960">
        <ele>677.5</ele>
        <time>2019-05-04T06:02:38Z</time>
      </trkpt>
      <trkpt lat="40.4220010" lon="-3.7086810">
        <ele>677.2</ele>
        <time>2019-05-04T06:02:39Z</time>
      </trkpt>
      <trkpt lat="40.4220530" lon="-3.7087580">
        <ele>677.0</ele>
        <time>2019-05-04T06:02:40Z</time>
      </trkpt>
      <trkpt lat="40.4220980" lon="-3.7088260">
        <ele>676.8</ele>
        <time>2019-05-04T06:02:41Z</time>
      </trkpt>
      <trkpt lat="40.4221370" lon="-3.7088830">
        <ele>676.7</ele>
        <time>2019-05-04T06:02:42Z</time>
      </trkpt>
      <trkpt lat="40.4221720" lon="-3.7089290">
        <ele>676.5</ele>
        <time>2019-05-04T06:02:43Z</time>
      </trkpt>
      <trkpt lat="40.4222020" lon="-3.7089660">
        <ele>676.3</ele>
        <time>2019-05-04T06:02:44Z</time>
      </trkpt>
      <trkpt lat="40.4222300" lon="-3.7089950">
        <ele>676.2</ele>
        <time>2019-05-04T06:02:45Z</time>
      </trkpt>
      <trkpt lat="40.4222490" lon="-3.7090200">
        <ele>676.1</ele>
        <time>2019-05-04T06:02:46Z</time>
      </trkpt>
      <trkpt lat="40.4222610" lon="-3.7090380">
        <ele>676.0</ele>
        <time>2019-05-04T06:02:47Z</time>
      </trkpt>
      <trkpt lat="40.4222660" lon="-3.7090500">
        <ele>676.0</ele>
        <time>2019-05-04T06:02:48Z</time>
      </trkpt>
      <trkpt lat="40.4222690" lon="-3.7090540">
        <ele>675.9</ele>
        <time>2019-05-04T06:02:49Z</time>
      </trkpt>
      <trkpt lat="40.4222730" lon="-3.7090560">
        <ele>675.9</ele>
        <time>2019-05-04T06:02:50Z</time>
      </trkpt>
      <trkpt lat="40.4222780" lon="-3.7090600">
        <ele>675.9</ele>
        <time>2019-05-04T06:02:51Z</time>
      </trkpt>
      <trkpt lat="40.4222820" lon="-3.7090670">
        <ele>675.9</ele>
        <time>2019-05-04T06:02:52Z</time>
      </trkpt>
      <trkpt lat="40.4222850" lon="-3.7090740">
        <ele>675.8</ele>
        <time>2019-05-04T06:02:53Z</time>
      </trkpt>
      <trkpt lat="40.4222880" lon="-3.7090810">
        <ele>675.8</ele>
        <time>2019-05-04T06:02:54Z</time>
      </trkpt>
      <trkpt lat="40.4222910" lon="-3.7090860">
        <ele>675.8</ele>
        <time>2019-05-04T06:02:55Z</time>
      </trkpt>
      <trkpt lat="40.4222930" lon="-3.7090920">
        <ele>675.8</ele>
        <time>2019-05-04T06:02:56Z</time>
      </trkpt>
      <trkpt lat="40.4222950" lon="-3.7091000">
        <ele>675.8</ele>
        <time>2019-05-04T06:02:57Z</time>
      </trkpt>
      <trkpt lat="40.4222950" lon="-3.7091080">
        <ele>675.7</ele>
        <time>2019-05-04T06:02:58Z</time>
      </trkpt>
      <trkpt lat="40.4222950" lon="-3.7091160">
        <ele>675.5</ele>
        <time>2019-05-04T06:02:59Z</time>
      </trkpt>
      <trkpt lat="40.4222950" lon="-3.7091240">
        <ele>675.5</ele>
        <time>2019-05-04T06:03:00Z</time>
      </trkpt>
      <trkpt lat="40.4222940" lon="-3.7091310">
        <ele>675.5</ele>
        <time>2019-05-04T06:03:01Z</time>
      </trkpt>
      <trkpt lat="40.4222940" lon="-3.7091380">
        <ele>675.5</ele>
        <time>2019-05-04T06:03:02Z</time>
      </trkpt>
      <trkpt lat="40.4222960" lon="-3.7091440">
        <ele>675.5</ele>
        <time>2019-05-04T06:03:03Z</time>
      </trkpt>
      <trkpt lat="40.4223000" lon="-3.7091520">
        <ele>675.4</ele>
        <time>2019-05-04T06:03:04Z</time>
      </trkpt>
      <trkpt lat="40.4223080" lon="-3.7091620">
        <ele>675.4</ele>
        <time>2019-05-04T06:03:05Z</time>
      </trkpt>
      <trkpt lat="40.4223170" lon="-3.7091760">
        <ele>675.4</ele>
        <time>2019-05-04T06:03:06Z</time>
      </trkpt>
      <trkpt lat="40.4223310" lon="-3.7091920">
        <ele>675.3</ele>
        <time>2019-05-04T06:03:07Z</time>
      </trkpt>
      <trkpt lat="40.4223500" lon="-3.7092110">
        <ele>675.3</ele>
        <time>2019-05-04T06:03:08Z</time>
      </trkpt>
      <trkpt lat="40.4223800" lon="-3.7092300">
        <ele>675.2</ele>
        <time>2019-05-04T06:03:09Z</time>
      </trkpt>
      <trkpt lat="40.4224170" lon="-3.7092490">
        <ele>675.1</ele>
        <time>2019-05-04T06:03:10Z</time>
      </trkpt>
      <trkpt lat="40.4224570" lon="-3.7092740">
        <ele>675.0</ele>
        <time>2019-05-04T06:03:11Z</time>
      </trkpt>
      <trkpt lat="40.4224920" lon="-3.7093120">
        <ele>674.9</ele>
        <time>2019-05-04T06:03:12Z</time>
      </trkpt>
      <trkpt lat="40.4225220" lon="-3.7093630">
        <ele>674.8</ele>
        <time>2019-05-04T06:03:13Z</time>
      </trkpt>
      <trkpt lat="40.4225550" lon="-3.7094220">
        <ele>674.6</ele>
        <time>2019-05-04T06:03:14Z</time>
      </trkpt>
      <trkpt lat="40.4225920" lon="-3.7094860">
        <ele>673.3</ele>
        <time>2019-05-04T06:03:15Z</time>
      </trkpt>
      <trkpt lat="40.4226340" lon="-3.7095540">
        <ele>672.7</ele>
        <time>2019-05-04T06:03:16Z</time>
      </trkpt>
      <trkpt lat="40.4226750" lon="-3.7096230">
        <ele>672.2</ele>
        <time>2019-05-04T06:03:17Z</time>
      </trkpt>
      <trkpt lat="40.4227220" lon="-3.7096930">
        <ele>671.9</ele>
        <time>2019-05-04T06:03:18Z</time>
      </trkpt>
      <trkpt lat="40.4227740" lon="-3.7097640">
        <ele>671.7</ele>
        <time>2019-05-04T06:03:19Z</time>
      </trkpt>
      <trkpt lat="40.4228320" lon="-3.7098340">
        <ele>671.5</ele>
        <time>2019-05-04T06:03:20Z</time>
      </trkpt>
      <trkpt lat="40.4228890" lon="-3.7099070">
        <ele>671.2</ele>
        <time>2019-05-04T06:03:21Z</time>
      </trkpt>
      <trkpt lat="40.4229470" lon="-3.7099830">
        <ele>670.7</ele>
        <time>2019-05-04T06:03:22Z</time>
      </trkpt>
      <trkpt lat="40.4230040" lon="-3.7100590">
        <ele>670.1</ele>
        <time>2019-05-04T06:03:23Z</time>
      </trkpt>
      <trkpt lat="40.4230630" lon="-3.7101270">
        <ele>669.4</ele>
        <time>2019-05-04T06:03:24Z</time>
      </trkpt>
      <trkpt lat="40.4231200" lon="-3.7101890">
        <ele>668.7</ele>
        <time>2019-05-04T06:03:25Z</time>
      </trkpt>
      <trkpt lat="40.4231670" lon="-3.7102440">
        <ele>668.1</ele>
        <time>2019-05-04T06:03:26Z</time>
      </trkpt>
      <trkpt lat="40.4232020" lon="-3.7102940">
        <ele>667.6</ele>
        <time>2019-05-04T06:03:27Z</time>
      </trkpt>
      <trkpt lat="40.4232270" lon="-3.7103390">
        <ele>667.2</ele>
        <time>2019-05-04T06:03:28Z</time>
      </trkpt>
      <trkpt lat="40.4232490" lon="-3.7103800">
        <ele>666.8</ele>
        <time>2019-05-04T06:03:29Z</time>
      </trkpt>
      <trkpt lat="40.4232720" lon="-3.7104220">
        <ele>666.4</ele>
        <time>2019-05-04T06:03:30Z</time>
      </trkpt>
      <trkpt lat="40.4232990" lon="-3.7104660">
        <ele>666.0</ele>
        <time>2019-05-04T06:03:31Z</time>
      </trkpt>
      <trkpt lat="40.4233250" lon="-3.7105150">
        <ele>665.1</ele>
        <time>2019-05-04T06:03:32Z</time>
      </trkpt>
      <trkpt lat="40.4233500" lon="-3.7105650">
        <ele>664.7</ele>
        <time>2019-05-04T06:03:33Z</time>
      </trkpt>
      <trkpt lat="40.4233760" lon="-3.7106140">
        <ele>664.4</ele>
        <time>2019-05-04T06:03:34Z</time>
      </trkpt>
      <trkpt lat="40.4234050" lon="-3.7106640">
        <ele>664.0</ele>
        <time>2019-05-04T06:03:35Z</time>
      </trkpt>
      <trkpt lat="40.4234320" lon="-3.7107160">
        <ele>663.7</ele>
        <time>2019-05-04T06:03:36Z</time>
      </trkpt>
      <trkpt lat="40.4234560" lon="-3.7107710">
        <ele>663.3</ele>
        <time>2019-05-04T06:03:37Z</time>
      </trkpt>
      <trkpt lat="40.4234810" lon="-3.7108260">
        <ele>662.2</ele>
        <time>2019-05-04T06:03:38Z</time>
      </trkpt>
      <trkpt lat="40.4235110" lon="-3.7108790">
        <ele>661.8</ele>
        <time>2019-05-04T06:03:39Z</time>
      </trkpt>
      <trkpt lat="40.4235390" lon="-3.7109320">
        <ele>661.5</ele>
        <time>2019-05-04T06:03:40Z</time>
      </trkpt>
      <trkpt lat="40.4235610" lon="-3.7109890">
        <ele>661.1</ele>
        <time>2019-05-04T06:03:41Z</time>
      </trkpt>
      <trkpt lat="40.4235650" lon="-3.7110480">
        <ele>660.8</ele>
        <time>2019-05-04T06:03:42Z</time>
      </trkpt>
      <trkpt lat="40.4235570" lon="-3.7111010">
        <ele>660.1</ele>
        <time>2019-05-04T06:03:43Z</time>
      </trkpt>
      <trkpt lat="40.4235390" lon="-3.7111420">
        <ele>659.3</ele>
        <time>2019-05-04T06:03:44Z</time>
      </trkpt>
      <trkpt lat="40.4235210" lon="-3.7111710">
        <ele>658.7</ele>
        <time>2019-05-04T06:03:45Z</time>
      </trkpt>
      <trkpt lat="40.4235040" lon="-3.7111880">
        <ele>658.3</ele>
        <time>2019-05-04T06:03:46Z</time>
      </trkpt>
      <trkpt lat="40.4234910" lon="-3.7111940">
        <ele>658.0</ele>
        <time>2019-05-04T06:03:47Z</time>
      </trkpt>
      <trkpt lat="40.4234800" lon="-3.7111970">
        <ele>657.8</ele>
        <time>2019-05-04T06:03:48Z</time>
      </trkpt>
      <trkpt lat="40.4234690" lon="-3.7111990">
        <ele>657.5</ele>
        <time>2019-05-04T06:03:49Z</time>
      </trkpt>
      <trkpt lat="40.4234570" lon="-3.7112030">
        <ele>657.3</ele>
        <time>2019-05-04T06:03:50Z</time>
      </trkpt>
      <trkpt lat="40.4234460" lon="-3.7112080">
        <ele>657.0</ele>
        <time>2019-05-04T06:03:51Z</time>
      </trkpt>
      <trkpt lat="40.4234310" lon="-3.7112180">
        <ele>656.7</ele>
        <time>2019-05-04T06:03:52Z</time>
      </trkpt>
      <trkpt lat="40.4234140" lon="-3.7112340">
        <ele>656.2</ele>
        <time>2019-05-04T06:03:53Z</time>
      </trkpt>
      <trkpt lat="40.4233960" lon="-3.7112580">
        <ele>653.8</ele>
        <time>2019-05-04T06:03:54Z</time>
      </trkpt>
      <trkpt lat="40.4233820" lon="-3.7112930">
        <ele>653.5</ele>
        <time>2019-05-04T06:03:55Z</time>
      </trkpt>
      <trkpt lat="40.4233710" lon="-3.7113370">
        <ele>653.2</ele>
        <time>2019-05-04T06:03:56Z</time>
      </trkpt>
      <trkpt lat="40.4233560" lon="-3.7113960">
        <ele>652.8</ele>
        <time>2019-05-04T06:03:57Z</time>
      </trkpt>
      <trkpt lat="40.4233480" lon="-3.7114630">
        <ele>652.4</ele>
        <time>2019-05-04T06:03:58Z</time>
      </trkpt>
      <trkpt lat="40.4233400" lon="-3.7115350">
        <ele>651.9</ele>
        <time>2019-05-04T06:03:59Z</time>
      </trkpt>
      <trkpt lat="40.4233260" lon="-3.7116020">
        <ele>651.4</ele>
        <time>2019-05-04T06:04:00Z</time>
      </trkpt>
      <trkpt lat="40.4232930" lon="-3.7116640">
        <ele>650.8</ele>
        <time>2019-05-04T06:04:01Z</time>
      </trkpt>
      <trkpt lat="40.4232540" lon="-3.7117230">
        <ele>650.2</ele>
        <time>2019-05-04T06:04:02Z</time>
      </trkpt>
      <trkpt lat="40.4232110" lon="-3.7117880">
        <ele>649.5</ele>
        <time>2019-05-04T06:04:03Z</time>
      </trkpt>
      <trkpt lat="40.4231690" lon="-3.7118600">
        <ele>648.8</ele>
        <time>2019-05-04T06:04:04Z</time>
      </trkpt>
      <trkpt lat="40.4231120" lon="-3.7119400">
        <ele>647.8</ele>
        <time>2019-05-04T06:04:05Z</time>
      </trkpt>
      <trkpt lat="40.4230470" lon="-3.7120200">
        <ele>647.4</ele>
        <time>2019-05-04T06:04:06Z</time>
      </trkpt>
      <trkpt lat="40.4229680" lon="-3.7121010">
        <ele>647.2</ele>
        <time>2019-05-04T06:04:07Z</time>
      </trkpt>
      <trkpt lat="40.4228890" lon="-3.7121800">
        <ele>647.0</ele>
        <time>2019-05-04T06:04:08Z</time>
      </trkpt>
      <trkpt lat="40.4228060" lon="-3.7122610">
        <ele>646.5</ele>
        <time>2019-05-04T06:04:09Z</time>
      </trkpt>
      <trkpt lat="40.4227320" lon="-3.7123440">
        <ele>645.7</ele>
        <time>2019-05-04T06:04:10Z</time>
      </trkpt>
      <trkpt lat="40.4226610" lon="-3.7124310">
        <ele>645.1</ele>
        <time>2019-05-04T06:04:11Z</time>
      </trkpt>
      <trkpt lat="40.4225920" lon="-3.7125170">
        <ele>644.3</ele>
        <time>2019-05-04T06:04:12Z</time>
      </trkpt>
      <trkpt lat="40.4225180" lon="-3.7126040">
        <ele>643.6</ele>
        <time>2019-05-04T06:04:13Z</time>
      </trkpt>
      <trkpt lat="40.4224430" lon="-3.7126910">
        <ele>642.9</ele>
        <time>2019-05-04T06:04:14Z</time>
      </trkpt>
      <trkpt lat="40.4223690" lon="-3.7127780">
        <ele>642.2</ele>
        <time>2019-05-04T06:04:15Z</time>
      </trkpt>
      <trkpt lat="40.4222980" lon="-3.7128580">
        <ele>641.2</ele>
        <time>2019-05-04T06:04:16Z</time>
      </trkpt>
      <trkpt lat="40.4222300" lon="-3.7129390">
        <ele>640.7</ele>
        <time>2019-05-04T06:04:17Z</time>
      </trkpt>
      <trkpt lat="40.4221490" lon="-3.7130100">
        <ele>640.2</ele>
        <time>2019-05-04T06:04:18Z</time>
      </trkpt>
      <trkpt lat="40.4220610" lon="-3.7130790">
        <ele>640.1</ele>
        <time>2019-05-04T06:04:19Z</time>
      </trkpt>
      <trkpt lat="40.4219710" lon="-3.7131320">
        <ele>640.0</ele>
        <time>2019-05-04T06:04:20Z</time>
      </trkpt>
      <trkpt lat="40.4218890" lon="-3.7131800">
        <ele>639.9</ele>
        <time>2019-05-04T06:04:21Z</time>
      </trkpt>
      <trkpt lat="40.4218070" lon="-3.7132350">
        <ele>640.2</ele>
        <time>2019-05-04T06:04:22Z</time>
      </trkpt>
      <trkpt lat="40.4217220" lon="-3.7133040">
        <ele>640.5</ele>
        <time>2019-05-04T06:04:23Z</time>
      </trkpt>
      <trkpt lat="40.4216410" lon="-3.7133890">
        <ele>640.4</ele>
        <time>2019-05-04T06:04:24Z</time>
      </trkpt>
      <trkpt lat="40.4215810" lon="-3.7135000">
        <ele>640.1</ele>
        <time>2019-05-04T06:04:25Z</time>
      </trkpt>
      <trkpt lat="40.4215270" lon="-3.7136190">
        <ele>639.7</ele>
        <time>2019-05-04T06:04:26Z</time>
      </trkpt>
      <trkpt lat="40.4214730" lon="-3.7137390">
        <ele>639.3</ele>
        <time>2019-05-04T06:04:27Z</time>
      </trkpt>
      <trkpt lat="40.4214050" lon="-3.7138320">
        <ele>638.9</ele>
        <time>2019-05-04T06:04:28Z</time>
      </trkpt>
      <trkpt lat="40.4213330" lon="-3.7139180">
        <ele>638.4</ele>
        <time>2019-05-04T06:04:29Z</time>
      </trkpt>
      <trkpt lat="40.4212570" lon="-3.7140010">
        <ele>637.9</ele>
        <time>2019-05-04T06:04:30Z</time>
      </trkpt>
      <trkpt lat="40.4211810" lon="-3.7140870">
        <ele>637.3</ele>
        <time>2019-05-04T06:04:31Z</time>
      </trkpt>
      <trkpt lat="40.4211070" lon="-3.7141780">
        <ele>636.6</ele>
        <time>2019-05-04T06:04:32Z</time>
      </trkpt>
      <trkpt lat="40.4210380" lon="-3.7142630">
        <ele>636.0</ele>
        <time>2019-05-04T06:04:33Z</time>
      </trkpt>
      <trkpt lat="40.4209720" lon="-3.7143400">
        <ele>635.4</ele>
        <time>2019-05-04T06:04:34Z</time>
      </trkpt>
      <trkpt lat="40.4209100" lon="-3.7144060">
        <ele>634.7</ele>
        <time>2019-05-04T06:04:35Z</time>
      </trkpt>
      <trkpt lat="40.4208550" lon="-3.7144650">
        <ele>634.2</ele>
        <time>2019-05-04T06:04:36Z</time>
      </trkpt>
      <trkpt lat="40.4208040" lon="-3.7145170">
        <ele>633.7</ele>
        <time>2019-05-04T06:04:37Z</time>
      </trkpt>
      <trkpt lat="40.4207590" lon="-3.7145650">
        <ele>633.3</ele>
        <time>2019-05-04T06:04:38Z</time>
      </trkpt>
      <trkpt lat="40.4207180" lon="-3.7146130">
        <ele>632.9</ele>
        <time>2019-05-04T06:04:39Z</time>
      </trkpt>
      <trkpt lat="40.4206840" lon="-3.7146630">
        <ele>632.5</ele>
        <time>2019-05-04T06:04:40Z</time>
      </trkpt>
      <trkpt lat="40.4206470" lon="-3.7147130">
        <ele>632.1</ele>
        <time>2019-05-04T06:04:41Z</time>
      </trkpt>
      <trkpt lat="40.4206070" lon="-3.7147610">
        <ele>631.7</ele>
        <time>2019-05-04T06:04:42Z</time>
      </trkpt>
      <trkpt lat="40.4205620" lon="-3.7148050">
        <ele>631.3</ele>
        <time>2019-05-04T06:04:43Z</time>
      </trkpt>
      <trkpt lat="40.4205190" lon="-3.7148540">
        <ele>630.8</ele>
        <time>2019-05-04T06:04:44Z</time>
      </trkpt>
      <trkpt lat="40.4204800" lon="-3.7149160">
        <ele>630.3</ele>
        <time>2019-05-04T06:04:45Z</time>
      </trkpt>
      <trkpt lat="40.4204590" lon="-3.7150150">
        <ele>629.7</ele>
        <time>2019-05-04T06:04:46Z</time>
      </trkpt>
      <trkpt lat="40.4204470" lon="-3.7151330">
        <ele>629.2</ele>
        <time>2019-05-04T06:04:47Z</time>
      </trkpt>
      <trkpt lat="40.4204360" lon="-3.7152530">
        <ele>628.7</ele>
        <time>2019-05-04T06:04:48Z</time>
      </trkpt>
      <trkpt lat="40.4204080" lon="-3.7153480">
        <ele>628.2</ele>
        <time>2019-05-04T06:04:49Z</time>
      </trkpt>
      <trkpt lat="40.4203740" lon="-3.7154250">
        <ele>627.8</ele>
        <time>2019-05-04T06:04:50Z</time>
      </trkpt>
      <trkpt lat="40.4203450" lon="-3.7155020">
        <ele>627.5</ele>
        <time>2019-05-04T06:04:51Z</time>
      </trkpt>
      <trkpt lat="40.4203260" lon="-3.7155870">
        <ele>626.5</ele>
        <time>2019-05-04T06:04:52Z</time>
      </trkpt>
      <trkpt lat="40.4203230" lon="-3.7157060">
        <ele>625.5</ele>
        <time>2019-05-04T06:04:53Z</time>
      </trkpt>
      <trkpt lat="40.4203280" lon="-3.7158490">
        <ele>624.4</ele>
        <time>2019-05-04T06:04:54Z</time>
      </trkpt>
      <trkpt lat="40.4203380" lon="-3.7160050">
        <ele>623.2</ele>
        <time>2019-05-04T06:04:55Z</time>
      </trkpt>
      <trkpt lat="40.4203440" lon="-3.7161510">
        <ele>622.4</ele>
        <time>2019-05-04T06:04:56Z</time>
      </trkpt>
      <trkpt lat="40.4203470" lon="-3.7162940">
        <ele>621.7</ele>
        <time>2019-05-04T06:04:57Z</time>
      </trkpt>
      <trkpt lat="40.4203470" lon="-3.7164330">
        <ele>621.0</ele>
        <time>2019-05-04T06:04:58Z</time>
      </trkpt>
      <trkpt lat="40.4203440" lon="-3.7165650">
        <ele>620.5</ele>
        <time>2019-05-04T06:04:59Z</time>
      </trkpt>
      <trkpt lat="40.4203390" lon="-3.7166930">
        <ele>619.8</ele>
        <time>2019-05-04T06:05:00Z</time>
      </trkpt>
      <trkpt lat="40.4203400" lon="-3.7168200">
        <ele>619.1</ele>
        <time>2019-05-04T06:05:01Z</time>
      </trkpt>
      <trkpt lat="40.4203500" lon="-3.7169540">
        <ele>618.3</ele>
        <time>2019-05-04T06:05:02Z</time>
      </trkpt>
      <trkpt lat="40.4203620" lon="-3.7170940">
        <ele>617.4</ele>
        <time>2019-05-04T06:05:03Z</time>
      </trkpt>
      <trkpt lat="40.4203700" lon="-3.7172320">
        <ele>616.5</ele>
        <time>2019-05-04T06:05:04Z</time>
      </trkpt>
      <trkpt lat="40.4203740" lon="-3.7173690">
        <ele>615.6</ele>
        <time>2019-05-04T06:05:05Z</time>
      </trkpt>
      <trkpt lat="40.4203780" lon="-3.7175010">
        <ele>614.6</ele>
        <time>2019-05-04T06:05:06Z</time>
      </trkpt>
      <trkpt lat="40.4203820" lon="-3.7176300">
        <ele>613.5</ele>
        <time>2019-05-04T06:05:07Z</time>
      </trkpt>
      <trkpt lat="40.4203870" lon="-3.7177520">
        <ele>612.5</ele>
        <time>2019-05-04T06:05:08Z</time>
      </trkpt>
      <trkpt lat="40.4203920" lon="-3.7178690">
        <ele>611.5</ele>
        <time>2019-05-04T06:05:09Z</time>
      </trkpt>
      <trkpt lat="40.4203920" lon="-3.7179890">
        <ele>610.5</ele>
        <time>2019-05-04T06:05:10Z</time>
      </trkpt>
      <trkpt lat="40.4203910" lon="-3.7181120">
        <ele>609.6</ele>
        <time>2019-05-04T06:05:11Z</time>
      </trkpt>
      <trkpt lat="40.4203840" lon="-3.7182380">
        <ele>608.4</ele>
        <time>2019-05-04T06:05:12Z</time>
      </trkpt>
      <trkpt lat="40.4203750" lon="-3.7183680">
        <ele>607.3</ele>
        <time>2019-05-04T06:05:13Z</time>
      </trkpt>
      <trkpt lat="40.4203650" lon="-3.7185020">
        <ele>606.7</ele>
        <time>2019-05-04T06:05:14Z</time>
      </trkpt>
      <trkpt lat="40.4203520" lon="-3.7186430">
        <ele>606.2</ele>
        <time>2019-05-04T06:05:15Z</time>
      </trkpt>
      <trkpt lat="40.4203410" lon="-3.7187840">
        <ele>605.8</ele>
        <time>2019-05-04T06:05:16Z</time>
      </trkpt>
      <trkpt lat="40.4203320" lon="-3.7189280">
        <ele>605.3</ele>
        <time>2019-05-04T06:05:17Z</time>
      </trkpt>
      <trkpt lat="40.4203300" lon="-3.7190640">
        <ele>605.0</ele>
        <time>2019-05-04T06:05:18Z</time>
      </trkpt>
      <trkpt lat="40.4203340" lon="-3.7191920">
        <ele>604.7</ele>
        <time>2019-05-04T06:05:19Z</time>
      </trkpt>
      <trkpt lat="40.4203410" lon="-3.7193080">
        <ele>604.4</ele>
        <time>2019-05-04T06:05:20Z</time>
      </trkpt>
      <trkpt lat="40.4203480" lon="-3.7194170">
        <ele>604.1</ele>
        <time>2019-05-04T06:05:21Z</time>
      </trkpt>
      <trkpt lat="40.4203560" lon="-3.7195130">
        <ele>603.9</ele>
        <time>2019-05-04T06:05:22Z</time>
      </trkpt>
      <trkpt lat="40.4203650" lon="-3.7195920">
        <ele>603.7</ele>
        <time>2019-05-04T06:05:23Z</time>
      </trkpt>
      <trkpt lat="40.4203770" lon="-3.7196530">
        <ele>603.5</ele>
        <time>2019-05-04T06:05:24Z</time>
      </trkpt>
      <trkpt lat="40.4203870" lon="-3.7197000">
        <ele>603.2</ele>
        <time>2019-05-04T06:05:25Z</time>
      </trkpt>
      <trkpt lat="40.4203930" lon="-3.7197300">
        <ele>603.0</ele>
        <time>2019-05-04T06:05:26Z</time>
      </trkpt>
      <trkpt lat="40.4203930" lon="-3.7197540">
        <ele>602.7</ele>
        <time>2019-05-04T06:05:27Z</time>
      </trkpt>
      <trkpt lat="40.4203910" lon="-3.7197860">
        <ele>602.4</ele>
        <time>2019-05-04T06:05:28Z</time>
      </trkpt>
      <trkpt lat="40.4203920" lon="-3.7197960">
        <ele>602.3</ele>
        <time>2019-05-04T06:05:29Z</time>
      </trkpt>
      <trkpt lat="40.4203920" lon="-3.7198060">
        <ele>602.2</ele>
        <time>2019-05-04T06:05:30Z</time>
      </trkpt>
      <trkpt lat="40.4203930" lon="-3.7198160">
        <ele>602.1</ele>
        <time>2019-05-04T06:05:31Z</time>
      </trkpt>
      <trkpt lat="40.4203940" lon="-3.7198260">
        <ele>602.0</ele>
        <time>2019-05-04T06:05:32Z</time>
      </trkpt>
      <trkpt lat="40.4203950" lon="-3.7198370">
        <ele>601.9</ele>
        <time>2019-05-04T06:05:33Z</time>
      </trkpt>
      <trkpt lat="40.4203960" lon="-3.7198470">
        <ele>601.8</ele>
        <time>2019-05-04T06:05:34Z</time>
      </trkpt>
      <trkpt lat="40.4203960" lon="-3.7198570">
        <ele>601.7</ele>
        <time>2019-05-04T06:05:35Z</time>
      </trkpt>
      <trkpt lat="40.4203970" lon="-3.7198670">
        <ele>601.6</ele>
        <time>2019-05-04T06:05:36Z</time>
      </trkpt>
      <trkpt lat="40.4203980" lon="-3.7198770">
        <ele>601.5</ele>
        <time>2019-05-04T06:05:37Z</time>
      </trkpt>
      <trkpt lat="40.4203990" lon="-3.7198870">
        <ele>601.4</ele>
        <time>2019-05-04T06:05:38Z</time>
      </trkpt>
      <trkpt lat="40.4204000" lon="-3.7198970">
        <ele>601.4</ele>
        <time>2019-05-04T06:05:39Z</time>
      </trkpt>
      <trkpt lat="40.4204000" lon="-3.7199070">
        <ele>601.3</ele>
        <time>2019-05-04T06:05:40Z</time>
      </trkpt>
      <trkpt lat="40.4204010" lon="-3.7199170">
        <ele>601.2</ele>
        <time>2019-05-04T06:05:41Z</time>
      </trkpt>
      <trkpt lat="40.4204020" lon="-3.7199270">
        <ele>601.1</ele>
        <time>2019-05-04T06:05:42Z</time>
      </trkpt>
      <trkpt lat="40.4204030" lon="-3.7199370">
        <ele>601.0</ele>
        <time>2019-05-04T06:05:43Z</time>
      </trkpt>
      <trkpt lat="40.4204040" lon="-3.7199480">
        <ele>600.9</ele>
        <time>2019-05-04T06:05:44Z</time>
      </trkpt>
      <trkpt lat="40.4204040" lon="-3.7199580">
        <ele>600.8</ele>
        <time>2019-05-04T06:05:45Z</time>
      </trkpt>
      <trkpt lat="40.4204050" lon="-3.7199680">
        <ele>600.7</ele>
        <time>2019-05-04T06:05:46Z</time>
      </trkpt>
      <trkpt lat="40.4204060" lon="-3.7199780">
        <ele>600.6</ele>
        <time>2019-05-04T06:05:47Z</time>
      </trkpt>
      <trkpt lat="40.4204070" lon="-3.7199880">
        <ele>600.5</ele>
        <time>2019-05-04T06:05:48Z</time>
      </trkpt>
      <trkpt lat="40.4204080" lon="-3.7199980">
        <ele>600.4</ele>
        <time>2019-05-04T06:05:49Z</time>
      </trkpt>
      <trkpt lat="40.4204080" lon="-3.7200080">
        <ele>600.3</ele>
        <time>2019-05-04T06:05:50Z</time>
      </trkpt>
      <trkpt lat="40.4204090" lon="-3.7200180">
        <ele>600.2</ele>
        <time>2019-05-04T06:05:51Z</time>
      </trkpt>
      <trkpt lat="40.4204100" lon="-3.7200280">
        <ele>600.1</ele>
        <time>2019-05-04T06:05:52Z</time>
      </trkpt>
      <trkpt lat="40.4204110" lon="-3.7200380">
        <ele>600.1</ele>
        <time>2019-05-04T06:05:53Z</time>
      </trkpt>
      <trkpt lat="40.4204120" lon="-3.7200480">
        <ele>600.1</ele>
        <time>2019-05-04T06:05:54Z</time>
      </trkpt>
      <trkpt lat="40.4204120" lon="-3.7200590">
        <ele>600.1</ele>
        <time>2019-05-04T06:05:55Z</time>
      </trkpt>
      <trkpt lat="40.4204130" lon="-3.7200690">
        <ele>600.1</ele>
        <time>2019-05-04T06:05:56Z</time>
      </trkpt>
      <trkpt lat="40.4204140" lon="-3.7200790">
        <ele>600.1</ele>
        <time>2019-05-04T06:05:57Z</time>
      </trkpt>
      <trkpt lat="40.4204150" lon="-3.7200890">
        <ele>600.1</ele>
        <time>2019-05-04T06:05:58Z</time>
      </trkpt>
      <trkpt lat="40.4204160" lon="-3.7200990">
        <ele>600.1</ele>
        <time>2019-05-04T06:05:59Z</time>
      </trkpt>
      <trkpt lat="40.4204160" lon="-3.7201090">
        <ele>600.1</ele>
        <time>2019-05-04T06:06:00Z</time>
      </trkpt>
      <trkpt lat="40.4204170" lon="-3.7201190">
        <ele>600.1</ele>
        <time>2019-05-04T06:06:01Z</time>
      </trkpt>
      <trkpt lat="40.4204180" lon="-3.7201290">
        <ele>600.1</ele>
        <time>2019-05-04T06:06:02Z</time>
      </trkpt>
      <trkpt lat="40.4204190" lon="-3.7201390">
        <ele>600.1</ele>
        <time>2019-05-04T06:06:03Z</time>
      </trkpt>
      <trkpt lat="40.4204200" lon="-3.7201490">
        <ele>600.1</ele>
        <time>2019-05-04T06:06:04Z</time>
      </trkpt>
      <trkpt lat="40.4204200" lon="-3.7201590">
        <ele>600.1</ele>
        <time>2019-05-04T06:06:05Z</time>
      </trkpt>
      <trkpt lat="40.4204210" lon="-3.7201700">
        <ele>600.2</ele>
        <time>2019-05-04T06:06:06Z</time>
      </trkpt>
      <trkpt lat="40.4204220" lon="-3.7201800">
        <ele>600.2</ele>
        <time>2019-05-04T06:06:07Z</time>
      </trkpt>
      <trkpt lat="40.4204230" lon="-3.7201900">
        <ele>600.2</ele>
        <time>2019-05-04T06:06:08Z</time>
      </trkpt>
      <trkpt lat="40.4204240" lon="-3.7202000">
        <ele>600.2</ele>
        <time>2019-05-04T06:06:09Z</time>
      </trkpt>
      <trkpt lat="40.4204240" lon="-3.7202100">
        <ele>600.1</ele>
        <time>2019-05-04T06:06:10Z</time>
      </trkpt>
      <trkpt lat="40.4204250" lon="-3.7202200">
        <ele>600.1</ele>
        <time>2019-05-04T06:06:11Z</time>
      </trkpt>
      <trkpt lat="40.4204260" lon="-3.7202300">
        <ele>600.1</ele>
        <time>2019-05-04T06:06:12Z</time>
      </trkpt>
      <trkpt lat="40.4204270" lon="-3.7202400">
        <ele>600.1</ele>
        <time>2019-05-04T06:06:13Z</time>
      </trkpt>
      <trkpt lat="40.4204280" lon="-3.7202500">
        <ele>600.0</ele>
        <time>2019-05-04T06:06:14Z</time>
      </trkpt>
      <trkpt lat="40.4204280" lon="-3.7202600">
        <ele>600.0</ele>
        <time>2019-05-04T06:06:15Z</time>
      </trkpt>
      <trkpt lat="40.4204290" lon="-3.7202700">
        <ele>600.0</ele>
        <time>2019-05-04T06:06:16Z</time>
      </trkpt>
      <trkpt lat="40.4204300" lon="-3.7202810">
        <ele>600.0</ele>
        <time>2019-05-04T06:06:17Z</time>
      </trkpt>
      <trkpt lat="40.4204310" lon="-3.7202910">
        <ele>600.0</ele>
        <time>2019-05-04T06:06:18Z</time>
      </trkpt>
      <trkpt lat="40.4204320" lon="-3.7203010">
        <ele>599.9</ele>
        <time>2019-05-04T06:06:19Z</time>
      </trkpt>
      <trkpt lat="40.4204320" lon="-3.7203110">
        <ele>599.9</ele>
        <time>2019-05-04T06:06:20Z</time>
      </trkpt>
      <trkpt lat="40.4204330" lon="-3.7203210">
        <ele>599.9</ele>
        <time>2019-05-04T06:06:21Z</time>
      </trkpt>
      <trkpt lat="40.4204340" lon="-3.7203310">
        <ele>599.9</ele>
        <time>2019-05-04T06:06:22Z</time>
      </trkpt>
      <trkpt lat="40.4204330" lon="-3.7203960">
        <ele>599.7</ele>
        <time>2019-05-04T06:06:23Z</time>
      </trkpt>
      <trkpt lat="40.4204210" lon="-3.7204600">
        <ele>599.6</ele>
        <time>2019-05-04T06:06:24Z</time>
      </trkpt>
      <trkpt lat="40.4203980" lon="-3.7205220">
        <ele>599.2</ele>
        <time>2019-05-04T06:06:25Z</time>
      </trkpt>
      <trkpt lat="40.4203640" lon="-3.7205780">
        <ele>597.8</ele>
        <time>2019-05-04T06:06:26Z</time>
      </trkpt>
      <trkpt lat="40.4203240" lon="-3.7206250">
        <ele>596.4</ele>
        <time>2019-05-04T06:06:27Z</time>
      </trkpt>
      <trkpt lat="40.4202760" lon="-3.7206580">
        <ele>595.6</ele>
        <time>2019-05-04T06:06:28Z</time>
      </trkpt>
      <trkpt lat="40.4202210" lon="-3.7206740">
        <ele>595.0</ele>
        <time>2019-05-04T06:06:29Z</time>
      </trkpt>
      <trkpt lat="40.4201630" lon="-3.7206750">
        <ele>594.4</ele>
        <time>2019-05-04T06:06:30Z</time>
      </trkpt>
      <trkpt lat="40.4201050" lon="-3.7206630">
        <ele>593.8</ele>
        <time>2019-05-04T06:06:31Z</time>
      </trkpt>
      <trkpt lat="40.4200510" lon="-3.7206420">
        <ele>593.6</ele>
        <time>2019-05-04T06:06:32Z</time>
      </trkpt>
      <trkpt lat="40.4200050" lon="-3.7206130">
        <ele>593.6</ele>
        <time>2019-05-04T06:06:33Z</time>
      </trkpt>
      <trkpt lat="40.4199650" lon="-3.7205790">
        <ele>593.8</ele>
        <time>2019-05-04T06:06:34Z</time>
      </trkpt>
      <trkpt lat="40.4199330" lon="-3.7205420">
        <ele>594.0</ele>
        <time>2019-05-04T06:06:35Z</time>
      </trkpt>
      <trkpt lat="40.4199080" lon="-3.7205070">
        <ele>594.2</ele>
        <time>2019-05-04T06:06:36Z</time>
      </trkpt>
      <trkpt lat="40.4198920" lon="-3.7204750">
        <ele>594.3</ele>
        <time>2019-05-04T06:06:37Z</time>
      </trkpt>
      <trkpt lat="40.4198820" lon="-3.7204480">
        <ele>594.8</ele>
        <time>2019-05-04T06:06:38Z</time>
      </trkpt>
      <trkpt lat="40.4198730" lon="-3.7204240">
        <ele>594.8</ele>
        <time>2019-05-04T06:06:39Z</time>
      </trkpt>
      <trkpt lat="40.4198620" lon="-3.7204040">
        <ele>594.8</ele>
        <time>2019-05-04T06:06:40Z</time>
      </trkpt>
      <trkpt lat="40.4198470" lon="-3.7203930">
        <ele>594.8</ele>
        <time>2019-05-04T06:06:41Z</time>
      </trkpt>
      <trkpt lat="40.4198270" lon="-3.7203910">
        <ele>594.8</ele>
        <time>2019-05-04T06:06:42Z</time>
      </trkpt>
      <trkpt lat="40.4198080" lon="-3.7204030">
        <ele>593.9</ele>
        <time>2019-05-04T06:06:43Z</time>
      </trkpt>
      <trkpt lat="40.4197950" lon="-3.7204230">
        <ele>593.9</ele>
        <time>2019-05-04T06:06:44Z</time>
      </trkpt>
      <trkpt lat="40.4197850" lon="-3.7204510">
        <ele>593.9</ele>
        <time>2019-05-04T06:06:45Z</time>
      </trkpt>
      <trkpt lat="40.4197730" lon="-3.7204750">
        <ele>593.9</ele>
        <time>2019-05-04T06:06:46Z</time>
      </trkpt>
      <trkpt lat="40.4197580" lon="-3.7204930">
        <ele>593.3</ele>
        <time>2019-05-04T06:06:47Z</time>
      </trkpt>
      <trkpt lat="40.4197370" lon="-3.7205090">
        <ele>593.3</ele>
        <time>2019-05-04T06:06:48Z</time>
      </trkpt>
      <trkpt lat="40.4197110" lon="-3.7205270">
        <ele>593.3</ele>
        <time>2019-05-04T06:06:49Z</time>
      </trkpt>
      <trkpt lat="40.4196760" lon="-3.7205470">
        <ele>593.2</ele>
        <time>2019-05-04T06:06:50Z</time>
      </trkpt>
      <trkpt lat="40.4196360" lon="-3.7205660">
        <ele>593.2</ele>
        <time>2019-05-04T06:06:51Z</time>
      </trkpt>
      <trkpt lat="40.4195950" lon="-3.7205840">
        <ele>593.3</ele>
        <time>2019-05-04T06:06:52Z</time>
      </trkpt>
      <trkpt lat="40.4195540" lon="-3.7206000">
        <ele>593.3</ele>
        <time>2019-05-04T06:06:53Z</time>
      </trkpt>
      <trkpt lat="40.4195130" lon="-3.7206130">
        <ele>593.4</ele>
        <time>2019-05-04T06:06:54Z</time>
      </trkpt>
      <trkpt lat="40.4194700" lon="-3.7206230">
        <ele>593.4</ele>
        <time>2019-05-04T06:06:55Z</time>
      </trkpt>
      <trkpt lat="40.4194260" lon="-3.7206300">
        <ele>593.5</ele>
        <time>2019-05-04T06:06:56Z</time>
      </trkpt>
      <trkpt lat="40.4193820" lon="-3.7206360">
        <ele>593.5</ele>
        <time>2019-05-04T06:06:57Z</time>
      </trkpt>
      <trkpt lat="40.4193370" lon="-3.7206420">
        <ele>593.6</ele>
        <time>2019-05-04T06:06:58Z</time>
      </trkpt>
      <trkpt lat="40.4192930" lon="-3.7206500">
        <ele>593.6</ele>
        <time>2019-05-04T06:06:59Z</time>
      </trkpt>
      <trkpt lat="40.4192480" lon="-3.7206610">
        <ele>593.5</ele>
        <time>2019-05-04T06:07:00Z</time>
      </trkpt>
      <trkpt lat="40.4192020" lon="-3.7206750">
        <ele>593.3</ele>
        <time>2019-05-04T06:07:01Z</time>
      </trkpt>
      <trkpt lat="40.4191530" lon="-3.7206920">
        <ele>593.0</ele>
        <time>2019-05-04T06:07:02Z</time>
      </trkpt>
      <trkpt lat="40.4191030" lon="-3.7207060">
        <ele>592.7</ele>
        <time>2019-05-04T06:07:03Z</time>
      </trkpt>
      <trkpt lat="40.4190530" lon="-3.7207190">
        <ele>592.3</ele>
        <time>2019-05-04T06:07:04Z</time>
      </trkpt>
      <trkpt lat="40.4190020" lon="-3.7207290">
        <ele>591.8</ele>
        <time>2019-05-04T06:07:05Z</time>
      </trkpt>
      <trkpt lat="40.4189500" lon="-3.7207390">
        <ele>591.4</ele>
        <time>2019-05-04T06:07:06Z</time>
      </trkpt>
      <trkpt lat="40.4189030" lon="-3.7207510">
        <ele>591.0</ele>
        <time>2019-05-04T06:07:07Z</time>
      </trkpt>
      <trkpt lat="40.4188620" lon="-3.7207850">
        <ele>590.7</ele>
        <time>2019-05-04T06:07:08Z</time>
      </trkpt>
      <trkpt lat="40.4188350" lon="-3.7208610">
        <ele>590.3</ele>
        <time>2019-05-04T06:07:09Z</time>
      </trkpt>
      <trkpt lat="40.4188160" lon="-3.7209620">
        <ele>589.5</ele>
        <time>2019-05-04T06:07:10Z</time>
      </trkpt>
      <trkpt lat="40.4188060" lon="-3.7210730">
        <ele>589.0</ele>
        <time>2019-05-04T06:07:11Z</time>
      </trkpt>
      <trkpt lat="40.4187950" lon="-3.7211700">
        <ele>588.7</ele>
        <time>2019-05-04T06:07:12Z</time>
      </trkpt>
      <trkpt lat="40.4187890" lon="-3.7212700">
        <ele>588.3</ele>
        <time>2019-05-04T06:07:13Z</time>
      </trkpt>
      <trkpt lat="40.4187990" lon="-3.7213750">
        <ele>587.4</ele>
        <time>2019-05-04T06:07:14Z</time>
      </trkpt>
      <trkpt lat="40.4188210" lon="-3.7214840">
        <ele>587.3</ele>
        <time>2019-05-04T06:07:15Z</time>
      </trkpt>
      <trkpt lat="40.4188520" lon="-3.7215940">
        <ele>586.6</ele>
        <time>2019-05-04T06:07:16Z</time>
      </trkpt>
      <trkpt lat="40.4188780" lon="-3.7217000">
        <ele>586.1</ele>
        <time>2019-05-04T06:07:17Z</time>
      </trkpt>
      <trkpt lat="40.4188990" lon="-3.7218060">
        <ele>586.0</ele>
        <time>2019-05-04T06:07:18Z</time>
      </trkpt>
      <trkpt lat="40.4189130" lon="-3.7219120">
        <ele>586.0</ele>
        <time>2019-05-04T06:07:19Z</time>
      </trkpt>
      <trkpt lat="40.4189210" lon="-3.7220160">
        <ele>585.9</ele>
        <time>2019-05-04T06:07:20Z</time>
      </trkpt>
      <trkpt lat="40.4189260" lon="-3.7221160">
        <ele>585.9</ele>
        <time>2019-05-04T06:07:21Z</time>
      </trkpt>
      <trkpt lat="40.4189310" lon="-3.7222140">
        <ele>585.8</ele>
        <time>2019-05-04T06:07:22Z</time>
      </trkpt>
      <trkpt lat="40.4189320" lon="-3.7223080">
        <ele>585.8</ele>
        <time>2019-05-04T06:07:23Z</time>
      </trkpt>
      <trkpt lat="40.4189290" lon="-3.7223970">
        <ele>585.8</ele>
        <time>2019-05-04T06:07:24Z</time>
      </trkpt>
      <trkpt lat="40.4189210" lon="-3.7224820">
        <ele>585.8</ele>
        <time>2019-05-04T06:07:25Z</time>
      </trkpt>
      <trkpt lat="40.4189080" lon="-3.7225630">
        <ele>585.9</ele>
        <time>2019-05-04T06:07:26Z</time>
      </trkpt>
      <trkpt lat="40.4188810" lon="-3.7226340">
        <ele>585.9</ele>
        <time>2019-05-04T06:07:27Z</time>
      </trkpt>
      <trkpt lat="40.4188500" lon="-3.7226970">
        <ele>585.9</ele>
        <time>2019-05-04T06:07:28Z</time>
      </trkpt>
      <trkpt lat="40.4188180" lon="-3.7227570">
        <ele>585.9</ele>
        <time>2019-05-04T06:07:29Z</time>
      </trkpt>
      <trkpt lat="40.4187920" lon="-3.7228250">
        <ele>586.0</ele>
        <time>2019-05-04T06:07:30Z</time>
      </trkpt>
      <trkpt lat="40.4187680" lon="-3.7228970">
        <ele>586.0</ele>
        <time>2019-05-04T06:07:31Z</time>
      </trkpt>
      <trkpt lat="40.4187450" lon="-3.7229700">
        <ele>585.9</ele>
        <time>2019-05-04T06:07:32Z</time>
      </trkpt>
      <trkpt lat="40.4187240" lon="-3.7230500">
        <ele>585.9</ele>
        <time>2019-05-04T06:07:33Z</time>
      </trkpt>
      <trkpt lat="40.4187040" lon="-3.7231350">
        <ele>585.9</ele>
        <time>2019-05-04T06:07:34Z</time>
      </trkpt>
      <trkpt lat="40.4186840" lon="-3.7232230">
        <ele>585.6</ele>
        <time>2019-05-04T06:07:35Z</time>
      </trkpt>
      <trkpt lat="40.4186640" lon="-3.7233040">
        <ele>585.5</ele>
        <time>2019-05-04T06:07:36Z</time>
      </trkpt>
      <trkpt lat="40.4186460" lon="-3.7233830">
        <ele>585.4</ele>
        <time>2019-05-04T06:07:37Z</time>
      </trkpt>
      <trkpt lat="40.4186280" lon="-3.7234630">
        <ele>585.3</ele>
        <time>2019-05-04T06:07:38Z</time>
      </trkpt>
      <trkpt lat="40.4186120" lon="-3.7235420">
        <ele>585.0</ele>
        <time>2019-05-04T06:07:39Z</time>
      </trkpt>
      <trkpt lat="40.4186030" lon="-3.7236240">
        <ele>585.0</ele>
        <time>2019-05-04T06:07:40Z</time>
      </trkpt>
      <trkpt lat="40.4186010" lon="-3.7237050">
        <ele>585.0</ele>
        <time>2019-05-04T06:07:41Z</time>
      </trkpt>
      <trkpt lat="40.4186010" lon="-3.7237840">
        <ele>584.6</ele>
        <time>2019-05-04T06:07:42Z</time>
      </trkpt>
      <trkpt lat="40.4185990" lon="-3.7238610">
        <ele>584.5</ele>
        <time>2019-05-04T06:07:43Z</time>
      </trkpt>
      <trkpt lat="40.4185940" lon="-3.7239380">
        <ele>584.4</ele>
        <time>2019-05-04T06:07:44Z</time>
      </trkpt>
      <trkpt lat="40.4185920" lon="-3.7240170">
        <ele>584.4</ele>
        <time>2019-05-04T06:07:45Z</time>
      </trkpt>
      <trkpt lat="40.4185910" lon="-3.7240960">
        <ele>584.3</ele>
        <time>2019-05-04T06:07:46Z</time>
      </trkpt>
      <trkpt lat="40.4185900" lon="-3.7241750">
        <ele>584.5</ele>
        <time>2019-05-04T06:07:47Z</time>
      </trkpt>
      <trkpt lat="40.4185900" lon="-3.7242530">
        <ele>584.7</ele>
        <time>2019-05-04T06:07:48Z</time>
      </trkpt>
      <trkpt lat="40.4185910" lon="-3.7243410">
        <ele>584.9</ele>
        <time>2019-05-04T06:07:49Z</time>
      </trkpt>
      <trkpt lat="40.4185930" lon="-3.7244310">
        <ele>585.2</ele>
        <time>2019-05-04T06:07:50Z</time>
      </trkpt>
      <trkpt lat="40.4185930" lon="-3.7245270">
        <ele>585.6</ele>
        <time>2019-05-04T06:07:51Z</time>
      </trkpt>
      <trkpt lat="40.4185910" lon="-3.7246180">
        <ele>585.9</ele>
        <time>2019-05-04T06:07:52Z</time>
      </trkpt>
      <trkpt lat="40.4185890" lon="-3.7247100">
        <ele>586.2</ele>
        <time>2019-05-04T06:07:53Z</time>
      </trkpt>
      <trkpt lat="40.4185890" lon="-3.7247990">
        <ele>586.4</ele>
        <time>2019-05-04T06:07:54Z</time>
      </trkpt>
      <trkpt lat="40.4185900" lon="-3.7248870">
        <ele>586.5</ele>
        <time>2019-05-04T06:07:55Z</time>
      </trkpt>
      <trkpt lat="40.4185900" lon="-3.7249750">
        <ele>586.6</ele>
        <time>2019-05-04T06:07:56Z</time>
      </trkpt>
      <trkpt lat="40.4185880" lon="-3.7250610">
        <ele>586.7</ele>
        <time>2019-05-04T06:07:57Z</time>
      </trkpt>
      <trkpt lat="40.4185840" lon="-3.7251440">
        <ele>586.8</ele>
        <time>2019-05-04T06:07:58Z</time>
      </trkpt>
      <trkpt lat="40.4185800" lon="-3.7252220">
        <ele>586.8</ele>
        <time>2019-05-04T06:07:59Z</time>
      </trkpt>
      <trkpt lat="40.4185760" lon="-3.7252980">
        <ele>586.9</ele>
        <time>2019-05-04T06:08:00Z</time>
      </trkpt>
      <trkpt lat="40.4185730" lon="-3.7253690">
        <ele>587.0</ele>
        <time>2019-05-04T06:08:01Z</time>
      </trkpt>
      <trkpt lat="40.4185690" lon="-3.7254380">
        <ele>587.0</ele>
        <time>2019-05-04T06:08:02Z</time>
      </trkpt>
      <trkpt lat="40.4185650" lon="-3.7255060">
        <ele>587.1</ele>
        <time>2019-05-04T06:08:03Z</time>
      </trkpt>
      <trkpt lat="40.4185600" lon="-3.7255770">
        <ele>587.1</ele>
        <time>2019-05-04T06:08:04Z</time>
      </trkpt>
      <trkpt lat="40.4185560" lon="-3.7256500">
        <ele>587.2</ele>
        <time>2019-05-04T06:08:05Z</time>
      </trkpt>
      <trkpt lat="40.4185510" lon="-3.7257240">
        <ele>587.2</ele>
        <time>2019-05-04T06:08:06Z</time>
      </trkpt>
      <trkpt lat="40.4185460" lon="-3.7258020">
        <ele>587.3</ele>
        <time>2019-05-04T06:08:07Z</time>
      </trkpt>
      <trkpt lat="40.4185380" lon="-3.7258820">
        <ele>587.4</ele>
        <time>2019-05-04T06:08:08Z</time>
      </trkpt>
      <trkpt lat="40.4185310" lon="-3.7259620">
        <ele>587.5</ele>
        <time>2019-05-04T06:08:09Z</time>
      </trkpt>
      <trkpt lat="40.4185230" lon="-3.7260380">
        <ele>587.7</ele>
        <time>2019-05-04T06:08:10Z</time>
      </trkpt>
      <trkpt lat="40.4185180" lon="-3.7261120">
        <ele>588.0</ele>
        <time>2019-05-04T06:08:11Z</time>
      </trkpt>
      <trkpt lat="40.4185140" lon="-3.7261850">
        <ele>588.2</ele>
        <time>2019-05-04T06:08:12Z</time>
      </trkpt>
      <trkpt lat="40.4185100" lon="-3.7262580">
        <ele>588.5</ele>
        <time>2019-05-04T06:08:13Z</time>
      </trkpt>
      <trkpt lat="40.4185060" lon="-3.7263320">
        <ele>588.7</ele>
        <time>2019-05-04T06:08:14Z</time>
      </trkpt>
      <trkpt lat="40.4185020" lon="-3.7264070">
        <ele>589.0</ele>
        <time>2019-05-04T06:08:15Z</time>
      </trkpt>
      <trkpt lat="40.4184970" lon="-3.7264880">
        <ele>589.2</ele>
        <time>2019-05-04T06:08:16Z</time>
      </trkpt>
      <trkpt lat="40.4184910" lon="-3.7265770">
        <ele>589.5</ele>
        <time>2019-05-04T06:08:17Z</time>
      </trkpt>
      <trkpt lat="40.4184870" lon="-3.7266720">
        <ele>589.9</ele>
        <time>2019-05-04T06:08:18Z</time>
      </trkpt>
      <trkpt lat="40.4184860" lon="-3.7267670">
        <ele>590.2</ele>
        <time>2019-05-04T06:08:19Z</time>
      </trkpt>
      <trkpt lat="40.4184830" lon="-3.7268580">
        <ele>590.6</ele>
        <time>2019-05-04T06:08:20Z</time>
      </trkpt>
      <trkpt lat="40.4184790" lon="-3.7269460">
        <ele>591.0</ele>
        <time>2019-05-04T06:08:21Z</time>
      </trkpt>
      <trkpt lat="40.4184750" lon="-3.7270300">
        <ele>591.4</ele>
        <time>2019-05-04T06:08:22Z</time>
      </trkpt>
      <trkpt lat="40.4184680" lon="-3.7271140">
        <ele>591.7</ele>
        <time>2019-05-04T06:08:23Z</time>
      </trkpt>
      <trkpt lat="40.4184550" lon="-3.7272010">
        <ele>592.1</ele>
        <time>2019-05-04T06:08:24Z</time>
      </trkpt>
      <trkpt lat="40.4184380" lon="-3.7272940">
        <ele>592.6</ele>
        <time>2019-05-04T06:08:25Z</time>
      </trkpt>
      <trkpt lat="40.4184200" lon="-3.7273880">
        <ele>593.1</ele>
        <time>2019-05-04T06:08:26Z</time>
      </trkpt>
      <trkpt lat="40.4184050" lon="-3.7274800">
        <ele>593.5</ele>
        <time>2019-05-04T06:08:27Z</time>
      </trkpt>
      <trkpt lat="40.4183920" lon="-3.7275690">
        <ele>593.9</ele>
        <time>2019-05-04T06:08:28Z</time>
      </trkpt>
      <trkpt lat="40.4183800" lon="-3.7276560">
        <ele>594.3</ele>
        <time>2019-05-04T06:08:29Z</time>
      </trkpt>
      <trkpt lat="40.4183670" lon="-3.7277400">
        <ele>594.6</ele>
        <time>2019-05-04T06:08:30Z</time>
      </trkpt>
      <trkpt lat="40.4183520" lon="-3.7278200">
        <ele>594.9</ele>
        <time>2019-05-04T06:08:31Z</time>
      </trkpt>
      <trkpt lat="40.4183360" lon="-3.7278980">
        <ele>595.2</ele>
        <time>2019-05-04T06:08:32Z</time>
      </trkpt>
      <trkpt lat="40.4183230" lon="-3.7279690">
        <ele>595.4</ele>
        <time>2019-05-04T06:08:33Z</time>
      </trkpt>
      <trkpt lat="40.4183160" lon="-3.7280380">
        <ele>595.5</ele>
        <time>2019-05-04T06:08:34Z</time>
      </trkpt>
      <trkpt lat="40.4183110" lon="-3.7281050">
        <ele>595.6</ele>
        <time>2019-05-04T06:08:35Z</time>
      </trkpt>
      <trkpt lat="40.4183060" lon="-3.7281730">
        <ele>595.7</ele>
        <time>2019-05-04T06:08:36Z</time>
      </trkpt>
      <trkpt lat="40.4182950" lon="-3.7282410">
        <ele>595.7</ele>
        <time>2019-05-04T06:08:37Z</time>
      </trkpt>
      <trkpt lat="40.4182840" lon="-3.7283070">
        <ele>595.9</ele>
        <time>2019-05-04T06:08:38Z</time>
      </trkpt>
      <trkpt lat="40.4182760" lon="-3.7283720">
        <ele>596.1</ele>
        <time>2019-05-04T06:08:39Z</time>
      </trkpt>
      <trkpt lat="40.4182910" lon="-3.7284400">
        <ele>596.3</ele>
        <time>2019-05-04T06:08:40Z</time>
      </trkpt>
      <trkpt lat="40.4183150" lon="-3.7285050">
        <ele>596.6</ele>
        <time>2019-05-04T06:08:41Z</time>
      </trkpt>
      <trkpt lat="40.4183440" lon="-3.7285660">
        <ele>596.8</ele>
        <time>2019-05-04T06:08:42Z</time>
      </trkpt>
      <trkpt lat="40.4183640" lon="-3.7286110">
        <ele>597.0</ele>
        <time>2019-05-04T06:08:43Z</time>
      </trkpt>
      <trkpt lat="40.4183890" lon="-3.7286440">
        <ele>597.2</ele>
        <time>2019-05-04T06:08:44Z</time>
      </trkpt>
      <trkpt lat="40.4184180" lon="-3.7286720">
        <ele>597.3</ele>
        <time>2019-05-04T06:08:45Z</time>
      </trkpt>
      <trkpt lat="40.4184510" lon="-3.7286980">
        <ele>597.5</ele>
        <time>2019-05-04T06:08:46Z</time>
      </trkpt>
      <trkpt lat="40.4184790" lon="-3.7287230">
        <ele>597.4</ele>
        <time>2019-05-04T06:08:47Z</time>
      </trkpt>
      <trkpt lat="40.4185040" lon="-3.7287470">
        <ele>597.3</ele>
        <time>2019-05-04T06:08:48Z</time>
      </trkpt>
      <trkpt lat="40.4185260" lon="-3.7287710">
        <ele>597.2</ele>
        <time>2019-05-04T06:08:49Z</time>
      </trkpt>
      <trkpt lat="40.4185490" lon="-3.7287940">
        <ele>597.2</ele>
        <time>2019-05-04T06:08:50Z</time>
      </trkpt>
      <trkpt lat="40.4185750" lon="-3.7288170">
        <ele>597.1</ele>
        <time>2019-05-04T06:08:51Z</time>
      </trkpt>
      <trkpt lat="40.4186050" lon="-3.7288390">
        <ele>597.0</ele>
        <time>2019-05-04T06:08:52Z</time>
      </trkpt>
      <trkpt lat="40.4186360" lon="-3.7288610">
        <ele>596.9</ele>
        <time>2019-05-04T06:08:53Z</time>
      </trkpt>
      <trkpt lat="40.4186690" lon="-3.7288810">
        <ele>596.8</ele>
        <time>2019-05-04T06:08:54Z</time>
      </trkpt>
      <trkpt lat="40.4186990" lon="-3.7289010">
        <ele>596.7</ele>
        <time>2019-05-04T06:08:55Z</time>
      </trkpt>
      <trkpt lat="40.4187280" lon="-3.7289210">
        <ele>596.7</ele>
        <time>2019-05-04T06:08:56Z</time>
      </trkpt>
      <trkpt lat="40.4187620" lon="-3.7289370">
        <ele>596.6</ele>
        <time>2019-05-04T06:08:57Z</time>
      </trkpt>
      <trkpt lat="40.4188010" lon="-3.7289500">
        <ele>596.5</ele>
        <time>2019-05-04T06:08:58Z</time>
      </trkpt>
      <trkpt lat="40.4188460" lon="-3.7289630">
        <ele>596.4</ele>
        <time>2019-05-04T06:08:59Z</time>
      </trkpt>
      <trkpt lat="40.4188920" lon="-3.7289800">
        <ele>596.3</ele>
        <time>2019-05-04T06:09:00Z</time>
      </trkpt>
      <trkpt lat="40.4189400" lon="-3.7290000">
        <ele>596.1</ele>
        <time>2019-05-04T06:09:01Z</time>
      </trkpt>
      <trkpt lat="40.4189900" lon="-3.7290210">
        <ele>596.0</ele>
        <time>2019-05-04T06:09:02Z</time>
      </trkpt>
      <trkpt lat="40.4190420" lon="-3.7290400">
        <ele>595.9</ele>
        <time>2019-05-04T06:09:03Z</time>
      </trkpt>
      <trkpt lat="40.4190990" lon="-3.7290590">
        <ele>595.7</ele>
        <time>2019-05-04T06:09:04Z</time>
      </trkpt>
      <trkpt lat="40.4191580" lon="-3.7290780">
        <ele>595.6</ele>
        <time>2019-05-04T06:09:05Z</time>
      </trkpt>
      <trkpt lat="40.4192170" lon="-3.7290980">
        <ele>595.4</ele>
        <time>2019-05-04T06:09:06Z</time>
      </trkpt>
      <trkpt lat="40.4192700" lon="-3.7291150">
        <ele>595.3</ele>
        <time>2019-05-04T06:09:07Z</time>
      </trkpt>
      <trkpt lat="40.4193220" lon="-3.7291310">
        <ele>595.3</ele>
        <time>2019-05-04T06:09:08Z</time>
      </trkpt>
      <trkpt lat="40.4193690" lon="-3.7291450">
        <ele>595.3</ele>
        <time>2019-05-04T06:09:09Z</time>
      </trkpt>
      <trkpt lat="40.4194160" lon="-3.7291560">
        <ele>595.3</ele>
        <time>2019-05-04T06:09:10Z</time>
      </trkpt>
      <trkpt lat="40.4194670" lon="-3.7291630">
        <ele>595.3</ele>
        <time>2019-05-04T06:09:11Z</time>
      </trkpt>
      <trkpt lat="40.4195210" lon="-3.7291690">
        <ele>595.3</ele>
        <time>2019-05-04T06:09:12Z</time>
      </trkpt>
      <trkpt lat="40.4195730" lon="-3.7291720">
        <ele>595.4</ele>
        <time>2019-05-04T06:09:13Z</time>
      </trkpt>
      <trkpt lat="40.4196220" lon="-3.7291700">
        <ele>595.4</ele>
        <time>2019-05-04T06:09:14Z</time>
      </trkpt>
      <trkpt lat="40.4196700" lon="-3.7291650">
        <ele>595.4</ele>
        <time>2019-05-04T06:09:15Z</time>
      </trkpt>
      <trkpt lat="40.4197210" lon="-3.7291630">
        <ele>595.4</ele>
        <time>2019-05-04T06:09:16Z</time>
      </trkpt>
      <trkpt lat="40.4197680" lon="-3.7291700">
        <ele>595.4</ele>
        <time>2019-05-04T06:09:17Z</time>
      </trkpt>
      <trkpt lat="40.4198160" lon="-3.7291850">
        <ele>595.4</ele>
        <time>2019-05-04T06:09:18Z</time>
      </trkpt>
      <trkpt lat="40.4198600" lon="-3.7292080">
        <ele>595.3</ele>
        <time>2019-05-04T06:09:19Z</time>
      </trkpt>
      <trkpt lat="40.4199070" lon="-3.7292410">
        <ele>595.2</ele>
        <time>2019-05-04T06:09:20Z</time>
      </trkpt>
      <trkpt lat="40.4199640" lon="-3.7292840">
        <ele>595.0</ele>
        <time>2019-05-04T06:09:21Z</time>
      </trkpt>
      <trkpt lat="40.4200290" lon="-3.7293350">
        <ele>594.6</ele>
        <time>2019-05-04T06:09:22Z</time>
      </trkpt>
      <trkpt lat="40.4200950" lon="-3.7293910">
        <ele>594.1</ele>
        <time>2019-05-04T06:09:23Z</time>
      </trkpt>
      <trkpt lat="40.4201530" lon="-3.7294460">
        <ele>594.2</ele>
        <time>2019-05-04T06:09:24Z</time>
      </trkpt>
      <trkpt lat="40.4202110" lon="-3.7295020">
        <ele>594.3</ele>
        <time>2019-05-04T06:09:25Z</time>
      </trkpt>
      <trkpt lat="40.4202700" lon="-3.7295570">
        <ele>594.4</ele>
        <time>2019-05-04T06:09:26Z</time>
      </trkpt>
      <trkpt lat="40.4203240" lon="-3.7296090">
        <ele>594.5</ele>
        <time>2019-05-04T06:09:27Z</time>
      </trkpt>
      <trkpt lat="40.4203720" lon="-3.7296540">
        <ele>594.7</ele>
        <time>2019-05-04T06:09:28Z</time>
      </trkpt>
      <trkpt lat="40.4204170" lon="-3.7296970">
        <ele>594.9</ele>
        <time>2019-05-04T06:09:29Z</time>
      </trkpt>
      <trkpt lat="40.4204620" lon="-3.7297370">
        <ele>595.1</ele>
        <time>2019-05-04T06:09:30Z</time>
      </trkpt>
      <trkpt lat="40.4205090" lon="-3.7297780">
        <ele>595.2</ele>
        <time>2019-05-04T06:09:31Z</time>
      </trkpt>
      <trkpt lat="40.4205600" lon="-3.7298190">
        <ele>595.3</ele>
        <time>2019-05-04T06:09:32Z</time>
      </trkpt>
      <trkpt lat="40.4206120" lon="-3.7298610">
        <ele>595.4</ele>
        <time>2019-05-04T06:09:33Z</time>
      </trkpt>
      <trkpt lat="40.4206640" lon="-3.7299030">
        <ele>595.6</ele>
        <time>2019-05-04T06:09:34Z</time>
      </trkpt>
      <trkpt lat="40.4207110" lon="-3.7299430">
        <ele>595.7</ele>
        <time>2019-05-04T06:09:35Z</time>
      </trkpt>
      <trkpt lat="40.4207580" lon="-3.7299820">
        <ele>595.8</ele>
        <time>2019-05-04T06:09:36Z</time>
      </trkpt>
      <trkpt lat="40.4208020" lon="-3.7300200">
        <ele>595.8</ele>
        <time>2019-05-04T06:09:37Z</time>
      </trkpt>
      <trkpt lat="40.4208460" lon="-3.7300560">
        <ele>595.9</ele>
        <time>2019-05-04T06:09:38Z</time>
      </trkpt>
      <trkpt lat="40.4208900" lon="-3.7300930">
        <ele>595.9</ele>
        <time>2019-05-04T06:09:39Z</time>
      </trkpt>
      <trkpt lat="40.4209340" lon="-3.7301290">
        <ele>595.9</ele>
        <time>2019-05-04T06:09:40Z</time>
      </trkpt>
      <trkpt lat="40.4209800" lon="-3.7301710">
        <ele>595.9</ele>
        <time>2019-05-04T06:09:41Z</time>
      </trkpt>
      <trkpt lat="40.4210300" lon="-3.7302130">
        <ele>595.9</ele>
        <time>2019-05-04T06:09:42Z</time>
      </trkpt>
      <trkpt lat="40.4210840" lon="-3.7302570">
        <ele>595.9</ele>
        <time>2019-05-04T06:09:43Z</time>
      </trkpt>
      <trkpt lat="40.4211440" lon="-3.7303000">
        <ele>595.9</ele>
        <time>2019-05-04T06:09:44Z</time>
      </trkpt>
      <trkpt lat="40.4212040" lon="-3.7303440">
        <ele>595.8</ele>
        <time>2019-05-04T06:09:45Z</time>
      </trkpt>
      <trkpt lat="40.4212610" lon="-3.7303910">
        <ele>595.8</ele>
        <time>2019-05-04T06:09:46Z</time>
      </trkpt>
      <trkpt lat="40.4213100" lon="-3.7304360">
        <ele>595.8</ele>
        <time>2019-05-04T06:09:47Z</time>
      </trkpt>
      <trkpt lat="40.4213570" lon="-3.7304800">
        <ele>595.7</ele>
        <time>2019-05-04T06:09:48Z</time>
      </trkpt>
      <trkpt lat="40.4214040" lon="-3.7305240">
        <ele>595.7</ele>
        <time>2019-05-04T06:09:49Z</time>
      </trkpt>
      <trkpt lat="40.4214520" lon="-3.7305700">
        <ele>595.7</ele>
        <time>2019-05-04T06:09:50Z</time>
      </trkpt>
      <trkpt lat="40.4215030" lon="-3.7306160">
        <ele>595.6</ele>
        <time>2019-05-04T06:09:51Z</time>
      </trkpt>
      <trkpt lat="40.4215580" lon="-3.7306640">
        <ele>595.5</ele>
        <time>2019-05-04T06:09:52Z</time>
      </trkpt>
      <trkpt lat="40.4216210" lon="-3.7307140">
        <ele>595.4</ele>
        <time>2019-05-04T06:09:53Z</time>
      </trkpt>
      <trkpt lat="40.4216870" lon="-3.7307680">
        <ele>595.2</ele>
        <time>2019-05-04T06:09:54Z</time>
      </trkpt>
      <trkpt lat="40.4217540" lon="-3.7308240">
        <ele>594.9</ele>
        <time>2019-05-04T06:09:55Z</time>
      </trkpt>
      <trkpt lat="40.4218140" lon="-3.7308780">
        <ele>594.7</ele>
        <time>2019-05-04T06:09:56Z</time>
      </trkpt>
      <trkpt lat="40.4218720" lon="-3.7309300">
        <ele>594.4</ele>
        <time>2019-05-04T06:09:57Z</time>
      </trkpt>
      <trkpt lat="40.4219290" lon="-3.7309820">
        <ele>594.1</ele>
        <time>2019-05-04T06:09:58Z</time>
      </trkpt>
      <trkpt lat="40.4219890" lon="-3.7310340">
        <ele>593.8</ele>
        <time>2019-05-04T06:09:59Z</time>
      </trkpt>
      <trkpt lat="40.4220460" lon="-3.7310870">
        <ele>593.5</ele>
        <time>2019-05-04T06:10:00Z</time>
      </trkpt>
      <trkpt lat="40.4221040" lon="-3.7311410">
        <ele>593.2</ele>
        <time>2019-05-04T06:10:01Z</time>
      </trkpt>
      <trkpt lat="40.4221650" lon="-3.7311970">
        <ele>592.9</ele>
        <time>2019-05-04T06:10:02Z</time>
      </trkpt>
      <trkpt lat="40.4222290" lon="-3.7312540">
        <ele>592.7</ele>
        <time>2019-05-04T06:10:03Z</time>
      </trkpt>
      <trkpt lat="40.4222960" lon="-3.7313120">
        <ele>592.4</ele>
        <time>2019-05-04T06:10:04Z</time>
      </trkpt>
      <trkpt lat="40.4223700" lon="-3.7313700">
        <ele>592.2</ele>
        <time>2019-05-04T06:10:05Z</time>
      </trkpt>
      <trkpt lat="40.4224490" lon="-3.7314280">
        <ele>592.1</ele>
        <time>2019-05-04T06:10:06Z</time>
      </trkpt>
      <trkpt lat="40.4225270" lon="-3.7314870">
        <ele>592.0</ele>
        <time>2019-05-04T06:10:07Z</time>
      </trkpt>
      <trkpt lat="40.4226000" lon="-3.7315430">
        <ele>592.0</ele>
        <time>2019-05-04T06:10:08Z</time>
      </trkpt>
      <trkpt lat="40.4226690" lon="-3.7315990">
        <ele>591.9</ele>
        <time>2019-05-04T06:10:09Z</time>
      </trkpt>
      <trkpt lat="40.4227380" lon="-3.7316540">
        <ele>591.9</ele>
        <time>2019-05-04T06:10:10Z</time>
      </trkpt>
      <trkpt lat="40.4228080" lon="-3.7317100">
        <ele>591.9</ele>
        <time>2019-05-04T06:10:11Z</time>
      </trkpt>
      <trkpt lat="40.4228790" lon="-3.7317670">
        <ele>591.9</ele>
        <time>2019-05-04T06:10:12Z</time>
      </trkpt>
      <trkpt lat="40.4229490" lon="-3.7318240">
        <ele>591.9</ele>
        <time>2019-05-04T06:10:13Z</time>
      </trkpt>
      <trkpt lat="40.4230210" lon="-3.7318800">
        <ele>591.9</ele>
        <time>2019-05-04T06:10:14Z</time>
      </trkpt>
      <trkpt lat="40.4230920" lon="-3.7319360">
        <ele>591.9</ele>
        <time>2019-05-04T06:10:15Z</time>
      </trkpt>
      <trkpt lat="40.4231670" lon="-3.7319900">
        <ele>591.9</ele>
        <time>2019-05-04T06:10:16Z</time>
      </trkpt>
      <trkpt lat="40.4232410" lon="-3.7320440">
        <ele>591.9</ele>
        <time>2019-05-04T06:10:17Z</time>
      </trkpt>
      <trkpt lat="40.4233140" lon="-3.7320980">
        <ele>591.9</ele>
        <time>2019-05-04T06:10:18Z</time>
      </trkpt>
      <trkpt lat="40.4233830" lon="-3.7321530">
        <ele>592.0</ele>
        <time>2019-05-04T06:10:19Z</time>
      </trkpt>
      <trkpt lat="40.4234500" lon="-3.7322080">
        <ele>592.0</ele>
        <time>2019-05-04T06:10:20Z</time>
      </trkpt>
      <trkpt lat="40.4235170" lon="-3.7322650">
        <ele>592.1</ele>
        <time>2019-05-04T06:10:21Z</time>
      </trkpt>
      <trkpt lat="40.4235840" lon="-3.7323230">
        <ele>592.2</ele>
        <time>2019-05-04T06:10:22Z</time>
      </trkpt>
      <trkpt lat="40.4236520" lon="-3.7323800">
        <ele>592.4</ele>
        <time>2019-05-04T06:10:23Z</time>
      </trkpt>
      <trkpt lat="40.4237210" lon="-3.7324370">
        <ele>592.5</ele>
        <time>2019-05-04T06:10:24Z</time>
      </trkpt>
      <trkpt lat="40.4237870" lon="-3.7324940">
        <ele>592.7</ele>
        <time>2019-05-04T06:10:25Z</time>
      </trkpt>
      <trkpt lat="40.4238510" lon="-3.7325510">
        <ele>592.9</ele>
        <time>2019-05-04T06:10:26Z</time>
      </trkpt>
      <trkpt lat="40.4239170" lon="-3.7326090">
        <ele>593.0</ele>
        <time>2019-05-04T06:10:27Z</time>
      </trkpt>
      <trkpt lat="40.4239870" lon="-3.7326670">
        <ele>593.0</ele>
        <time>2019-05-04T06:10:28Z</time>
      </trkpt>
      <trkpt lat="40.4240590" lon="-3.7327250">
        <ele>593.1</ele>
        <time>2019-05-04T06:10:29Z</time>
      </trkpt>
      <trkpt lat="40.4241300" lon="-3.7327820">
        <ele>593.1</ele>
        <time>2019-05-04T06:10:30Z</time>
      </trkpt>
      <trkpt lat="40.4242010" lon="-3.7328380">
        <ele>593.1</ele>
        <time>2019-05-04T06:10:31Z</time>
      </trkpt>
      <trkpt lat="40.4242690" lon="-3.7328930">
        <ele>593.1</ele>
        <time>2019-05-04T06:10:32Z</time>
      </trkpt>
      <trkpt lat="40.4243350" lon="-3.7329460">
        <ele>593.2</ele>
        <time>2019-05-04T06:10:33Z</time>
      </trkpt>
      <trkpt lat="40.4243970" lon="-3.7329960">
        <ele>593.3</ele>
        <time>2019-05-04T06:10:34Z</time>
      </trkpt>
      <trkpt lat="40.4244520" lon="-3.7330450">
        <ele>593.4</ele>
        <time>2019-05-04T06:10:35Z</time>
      </trkpt>
      <trkpt lat="40.4245030" lon="-3.7330930">
        <ele>593.5</ele>
        <time>2019-05-04T06:10:36Z</time>
      </trkpt>
      <trkpt lat="40.4245560" lon="-3.7331380">
        <ele>593.6</ele>
        <time>2019-05-04T06:10:37Z</time>
      </trkpt>
      <trkpt lat="40.4246090" lon="-3.7331830">
        <ele>593.7</ele>
        <time>2019-05-04T06:10:38Z</time>
      </trkpt>
      <trkpt lat="40.4246660" lon="-3.7332270">
        <ele>593.8</ele>
        <time>2019-05-04T06:10:39Z</time>
      </trkpt>
      <trkpt lat="40.4247210" lon="-3.7332700">
        <ele>593.9</ele>
        <time>2019-05-04T06:10:40Z</time>
      </trkpt>
      <trkpt lat="40.4247760" lon="-3.7333040">
        <ele>594.0</ele>
        <time>2019-05-04T06:10:41Z</time>
      </trkpt>
      <trkpt lat="40.4248370" lon="-3.7333230">
        <ele>594.0</ele>
        <time>2019-05-04T06:10:42Z</time>
      </trkpt>
      <trkpt lat="40.4249070" lon="-3.7333280">
        <ele>594.0</ele>
        <time>2019-05-04T06:10:43Z</time>
      </trkpt>
      <trkpt lat="40.4249810" lon="-3.7333280">
        <ele>594.1</ele>
        <time>2019-05-04T06:10:44Z</time>
      </trkpt>
      <trkpt lat="40.4250520" lon="-3.7333370">
        <ele>593.4</ele>
        <time>2019-05-04T06:10:45Z</time>
      </trkpt>
      <trkpt lat="40.4251150" lon="-3.7333620">
        <ele>593.1</ele>
        <time>2019-05-04T06:10:46Z</time>
      </trkpt>
      <trkpt lat="40.4251640" lon="-3.7334050">
        <ele>593.3</ele>
        <time>2019-05-04T06:10:47Z</time>
      </trkpt>
      <trkpt lat="40.4252000" lon="-3.7334620">
        <ele>593.7</ele>
        <time>2019-05-04T06:10:48Z</time>
      </trkpt>
      <trkpt lat="40.4252240" lon="-3.7335270">
        <ele>593.7</ele>
        <time>2019-05-04T06:10:49Z</time>
      </trkpt>
      <trkpt lat="40.4252450" lon="-3.7335950">
        <ele>593.7</ele>
        <time>2019-05-04T06:10:50Z</time>
      </trkpt>
      <trkpt lat="40.4252660" lon="-3.7336640">
        <ele>593.9</ele>
        <time>2019-05-04T06:10:51Z</time>
      </trkpt>
      <trkpt lat="40.4252890" lon="-3.7337310">
        <ele>594.0</ele>
        <time>2019-05-04T06:10:52Z</time>
      </trkpt>
      <trkpt lat="40.4253150" lon="-3.7337990">
        <ele>593.9</ele>
        <time>2019-05-04T06:10:53Z</time>
      </trkpt>
      <trkpt lat="40.4253430" lon="-3.7338680">
        <ele>593.9</ele>
        <time>2019-05-04T06:10:54Z</time>
      </trkpt>
      <trkpt lat="40.4253710" lon="-3.7339370">
        <ele>593.8</ele>
        <time>2019-05-04T06:10:55Z</time>
      </trkpt>
      <trkpt lat="40.4254030" lon="-3.7340060">
        <ele>593.7</ele>
        <time>2019-05-04T06:10:56Z</time>
      </trkpt>
      <trkpt lat="40.4254360" lon="-3.7340750">
        <ele>593.6</ele>
        <time>2019-05-04T06:10:57Z</time>
      </trkpt>
      <trkpt lat="40.4254710" lon="-3.7341440">
        <ele>593.6</ele>
        <time>2019-05-04T06:10:58Z</time>
      </trkpt>
      <trkpt lat="40.4255040" lon="-3.7342150">
        <ele>593.5</ele>
        <time>2019-05-04T06:10:59Z</time>
      </trkpt>
      <trkpt lat="40.4255420" lon="-3.7342830">
        <ele>593.5</ele>
        <time>2019-05-04T06:11:00Z</time>
      </trkpt>
      <trkpt lat="40.4255820" lon="-3.7343520">
        <ele>593.5</ele>
        <time>2019-05-04T06:11:01Z</time>
      </trkpt>
      <trkpt lat="40.4256260" lon="-3.7344200">
        <ele>593.5</ele>
        <time>2019-05-04T06:11:02Z</time>
      </trkpt>
      <trkpt lat="40.4256750" lon="-3.7344880">
        <ele>593.5</ele>
        <time>2019-05-04T06:11:03Z</time>
      </trkpt>
      <trkpt lat="40.4257260" lon="-3.7345570">
        <ele>593.5</ele>
        <time>2019-05-04T06:11:04Z</time>
      </trkpt>
      <trkpt lat="40.4257810" lon="-3.7346240">
        <ele>593.5</ele>
        <time>2019-05-04T06:11:05Z</time>
      </trkpt>
      <trkpt lat="40.4258350" lon="-3.7346890">
        <ele>593.5</ele>
        <time>2019-05-04T06:11:06Z</time>
      </trkpt>
      <trkpt lat="40.4258910" lon="-3.7347510">
        <ele>593.5</ele>
        <time>2019-05-04T06:11:07Z</time>
      </trkpt>
      <trkpt lat="40.4259500" lon="-3.7348050">
        <ele>593.6</ele>
        <time>2019-05-04T06:11:08Z</time>
      </trkpt>
      <trkpt lat="40.4260110" lon="-3.7348520">
        <ele>593.6</ele>
        <time>2019-05-04T06:11:09Z</time>
      </trkpt>
      <trkpt lat="40.4260740" lon="-3.7348890">
        <ele>593.6</ele>
        <time>2019-05-04T06:11:10Z</time>
      </trkpt>
      <trkpt lat="40.4261350" lon="-3.7349220">
        <ele>593.7</ele>
        <time>2019-05-04T06:11:11Z</time>
      </trkpt>
      <trkpt lat="40.4261980" lon="-3.7349500">
        <ele>593.7</ele>
        <time>2019-05-04T06:11:12Z</time>
      </trkpt>
      <trkpt lat="40.4262610" lon="-3.7349780">
        <ele>593.7</ele>
        <time>2019-05-04T06:11:13Z</time>
      </trkpt>
      <trkpt lat="40.4263220" lon="-3.7350040">
        <ele>593.7</ele>
        <time>2019-05-04T06:11:14Z</time>
      </trkpt>
      <trkpt lat="40.4263820" lon="-3.7350290">
        <ele>593.6</ele>
        <time>2019-05-04T06:11:15Z</time>
      </trkpt>
      <trkpt lat="40.4264430" lon="-3.7350540">
        <ele>593.5</ele>
        <time>2019-05-04T06:11:16Z</time>
      </trkpt>
      <trkpt lat="40.4265040" lon="-3.7350790">
        <ele>593.5</ele>
        <time>2019-05-04T06:11:17Z</time>
      </trkpt>
      <trkpt lat="40.4265660" lon="-3.7351030">
        <ele>593.5</ele>
        <time>2019-05-04T06:11:18Z</time>
      </trkpt>
      <trkpt lat="40.4266270" lon="-3.7351230">
        <ele>593.5</ele>
        <time>2019-05-04T06:11:19Z</time>
      </trkpt>
      <trkpt lat="40.4266900" lon="-3.7351400">
        <ele>593.5</ele>
        <time>2019-05-04T06:11:20Z</time>
      </trkpt>
      <trkpt lat="40.4267540" lon="-3.7351560">
        <ele>593.5</ele>
        <time>2019-05-04T06:11:21Z</time>
      </trkpt>
      <trkpt lat="40.4268180" lon="-3.7351730">
        <ele>593.5</ele>
        <time>2019-05-04T06:11:22Z</time>
      </trkpt>
      <trkpt lat="40.4268770" lon="-3.7351900">
        <ele>593.5</ele>
        <time>2019-05-04T06:11:23Z</time>
      </trkpt>
      <trkpt lat="40.4269440" lon="-3.7352100">
        <ele>593.5</ele>
        <time>2019-05-04T06:11:24Z</time>
      </trkpt>
      <trkpt lat="40.4270140" lon="-3.7352320">
        <ele>593.5</ele>
        <time>2019-05-04T06:11:25Z</time>
      </trkpt>
      <trkpt lat="40.4270880" lon="-3.7352550">
        <ele>593.5</ele>
        <time>2019-05-04T06:11:26Z</time>
      </trkpt>
      <trkpt lat="40.4271590" lon="-3.7352770">
        <ele>593.5</ele>
        <time>2019-05-04T06:11:27Z</time>
      </trkpt>
      <trkpt lat="40.4272290" lon="-3.7353010">
        <ele>593.5</ele>
        <time>2019-05-04T06:11:28Z</time>
      </trkpt>
      <trkpt lat="40.4272970" lon="-3.7353270">
        <ele>593.6</ele>
        <time>2019-05-04T06:11:29Z</time>
      </trkpt>
      <trkpt lat="40.4273600" lon="-3.7353570">
        <ele>593.6</ele>
        <time>2019-05-04T06:11:30Z</time>
      </trkpt>
      <trkpt lat="40.4274200" lon="-3.7353920">
        <ele>593.7</ele>
        <time>2019-05-04T06:11:31Z</time>
      </trkpt>
      <trkpt lat="40.4274790" lon="-3.7354280">
        <ele>593.8</ele>
        <time>2019-05-04T06:11:32Z</time>
      </trkpt>
      <trkpt lat="40.4275390" lon="-3.7354660">
        <ele>593.9</ele>
        <time>2019-05-04T06:11:33Z</time>
      </trkpt>
      <trkpt lat="40.4276020" lon="-3.7355040">
        <ele>594.1</ele>
        <time>2019-05-04T06:11:34Z</time>
      </trkpt>
      <trkpt lat="40.4276640" lon="-3.7355450">
        <ele>594.2</ele>
        <time>2019-05-04T06:11:35Z</time>
      </trkpt>
      <trkpt lat="40.4277250" lon="-3.7355870">
        <ele>594.4</ele>
        <time>2019-05-04T06:11:36Z</time>
      </trkpt>
      <trkpt lat="40.4277850" lon="-3.7356280">
        <ele>594.5</ele>
        <time>2019-05-04T06:11:37Z</time>
      </trkpt>
      <trkpt lat="40.4278460" lon="-3.7356700">
        <ele>594.7</ele>
        <time>2019-05-04T06:11:38Z</time>
      </trkpt>
      <trkpt lat="40.4279080" lon="-3.7357130">
        <ele>594.8</ele>
        <time>2019-05-04T06:11:39Z</time>
      </trkpt>
      <trkpt lat="40.4279710" lon="-3.7357590">
        <ele>595.0</ele>
        <time>2019-05-04T06:11:40Z</time>
      </trkpt>
      <trkpt lat="40.4280310" lon="-3.7358030">
        <ele>595.2</ele>
        <time>2019-05-04T06:11:41Z</time>
      </trkpt>
      <trkpt lat="40.4280890" lon="-3.7358460">
        <ele>595.4</ele>
        <time>2019-05-04T06:11:42Z</time>
      </trkpt>
      <trkpt lat="40.4281480" lon="-3.7358880">
        <ele>595.6</ele>
        <time>2019-05-04T06:11:43Z</time>
      </trkpt>
      <trkpt lat="40.4282080" lon="-3.7359290">
        <ele>595.7</ele>
        <time>2019-05-04T06:11:44Z</time>
      </trkpt>
      <trkpt lat="40.4282700" lon="-3.7359700">
        <ele>595.8</ele>
        <time>2019-05-04T06:11:45Z</time>
      </trkpt>
      <trkpt lat="40.4283290" lon="-3.7360120">
        <ele>595.9</ele>
        <time>2019-05-04T06:11:46Z</time>
      </trkpt>
      <trkpt lat="40.4283880" lon="-3.7360520">
        <ele>596.0</ele>
        <time>2019-05-04T06:11:47Z</time>
      </trkpt>
      <trkpt lat="40.4284490" lon="-3.7360940">
        <ele>596.1</ele>
        <time>2019-05-04T06:11:48Z</time>
      </trkpt>
      <trkpt lat="40.4285080" lon="-3.7361360">
        <ele>596.1</ele>
        <time>2019-05-04T06:11:49Z</time>
      </trkpt>
      <trkpt lat="40.4285700" lon="-3.7361840">
        <ele>596.2</ele>
        <time>2019-05-04T06:11:50Z</time>
      </trkpt>
      <trkpt lat="40.4286290" lon="-3.7362340">
        <ele>596.2</ele>
        <time>2019-05-04T06:11:51Z</time>
      </trkpt>
      <trkpt lat="40.4286900" lon="-3.7362870">
        <ele>596.2</ele>
        <time>2019-05-04T06:11:52Z</time>
      </trkpt>
      <trkpt lat="40.4287520" lon="-3.7363400">
        <ele>596.2</ele>
        <time>2019-05-04T06:11:53Z</time>
      </trkpt>
      <trkpt lat="40.4288120" lon="-3.7363930">
        <ele>596.3</ele>
        <time>2019-05-04T06:11:54Z</time>
      </trkpt>
      <trkpt lat="40.4288710" lon="-3.7364480">
        <ele>596.3</ele>
        <time>2019-05-04T06:11:55Z</time>
      </trkpt>
      <trkpt lat="40.4289290" lon="-3.7365030">
        <ele>596.4</ele>
        <time>2019-05-04T06:11:56Z</time>
      </trkpt>
      <trkpt lat="40.4289880" lon="-3.7365560">
        <ele>596.4</ele>
        <time>2019-05-04T06:11:57Z</time>
      </trkpt>
      <trkpt lat="40.4290470" lon="-3.7366090">
        <ele>596.4</ele>
        <time>2019-05-04T06:11:58Z</time>
      </trkpt>
      <trkpt lat="40.4291080" lon="-3.7366630">
        <ele>596.5</ele>
        <time>2019-05-04T06:11:59Z</time>
      </trkpt>
      <trkpt lat="40.4291680" lon="-3.7367170">
        <ele>596.5</ele>
        <time>2019-05-04T06:12:00Z</time>
      </trkpt>
      <trkpt lat="40.4292270" lon="-3.7367710">
        <ele>596.5</ele>
        <time>2019-05-04T06:12:01Z</time>
      </trkpt>
      <trkpt lat="40.4292820" lon="-3.7368240">
        <ele>596.6</ele>
        <time>2019-05-04T06:12:02Z</time>
      </trkpt>
      <trkpt lat="40.4293370" lon="-3.7368770">
        <ele>596.5</ele>
        <time>2019-05-04T06:12:03Z</time>
      </trkpt>
      <trkpt lat="40.4293920" lon="-3.7369300">
        <ele>596.5</ele>
        <time>2019-05-04T06:12:04Z</time>
      </trkpt>
      <trkpt lat="40.4294440" lon="-3.7369830">
        <ele>596.5</ele>
        <time>2019-05-04T06:12:05Z</time>
      </trkpt>
      <trkpt lat="40.4294950" lon="-3.7370380">
        <ele>596.4</ele>
        <time>2019-05-04T06:12:06Z</time>
      </trkpt>
      <trkpt lat="40.4295420" lon="-3.7370950">
        <ele>596.4</ele>
        <time>2019-05-04T06:12:07Z</time>
      </trkpt>
      <trkpt lat="40.4295950" lon="-3.7371530">
        <ele>596.3</ele>
        <time>2019-05-04T06:12:08Z</time>
      </trkpt>
      <trkpt lat="40.4296500" lon="-3.7372130">
        <ele>596.2</ele>
        <time>2019-05-04T06:12:09Z</time>
      </trkpt>
      <trkpt lat="40.4297080" lon="-3.7372730">
        <ele>596.2</ele>
        <time>2019-05-04T06:12:10Z</time>
      </trkpt>
      <trkpt lat="40.4297670" lon="-3.7373330">
        <ele>596.2</ele>
        <time>2019-05-04T06:12:11Z</time>
      </trkpt>
      <trkpt lat="40.4298260" lon="-3.7373980">
        <ele>596.1</ele>
        <time>2019-05-04T06:12:12Z</time>
      </trkpt>
      <trkpt lat="40.4298890" lon="-3.7374620">
        <ele>596.1</ele>
        <time>2019-05-04T06:12:13Z</time>
      </trkpt>
      <trkpt lat="40.4299480" lon="-3.7375260">
        <ele>596.0</ele>
        <time>2019-05-04T06:12:14Z</time>
      </trkpt>
      <trkpt lat="40.4300050" lon="-3.7375870">
        <ele>596.0</ele>
        <time>2019-05-04T06:12:15Z</time>
      </trkpt>
      <trkpt lat="40.4300570" lon="-3.7376490">
        <ele>595.9</ele>
        <time>2019-05-04T06:12:16Z</time>
      </trkpt>
      <trkpt lat="40.4301090" lon="-3.7377100">
        <ele>596.0</ele>
        <time>2019-05-04T06:12:17Z</time>
      </trkpt>
      <trkpt lat="40.4301620" lon="-3.7377700">
        <ele>596.0</ele>
        <time>2019-05-04T06:12:18Z</time>
      </trkpt>
      <trkpt lat="40.4302140" lon="-3.7378300">
        <ele>595.9</ele>
        <time>2019-05-04T06:12:19Z</time>
      </trkpt>
      <trkpt lat="40.4302620" lon="-3.7378890">
        <ele>595.8</ele>
        <time>2019-05-04T06:12:20Z</time>
      </trkpt>
      <trkpt lat="40.4303070" lon="-3.7379460">
        <ele>596.2</ele>
        <time>2019-05-04T06:12:21Z</time>
      </trkpt>
      <trkpt lat="40.4303510" lon="-3.7380010">
        <ele>596.6</ele>
        <time>2019-05-04T06:12:22Z</time>
      </trkpt>
      <trkpt lat="40.4303920" lon="-3.7380550">
        <ele>597.0</ele>
        <time>2019-05-04T06:12:23Z</time>
      </trkpt>
      <trkpt lat="40.4304310" lon="-3.7381100">
        <ele>597.4</ele>
        <time>2019-05-04T06:12:24Z</time>
      </trkpt>
      <trkpt lat="40.4304680" lon="-3.7381650">
        <ele>597.6</ele>
        <time>2019-05-04T06:12:25Z</time>
      </trkpt>
      <trkpt lat="40.4305050" lon="-3.7382220">
        <ele>597.8</ele>
        <time>2019-05-04T06:12:26Z</time>
      </trkpt>
      <trkpt lat="40.4305390" lon="-3.7382800">
        <ele>598.1</ele>
        <time>2019-05-04T06:12:27Z</time>
      </trkpt>
      <trkpt lat="40.4305730" lon="-3.7383400">
        <ele>598.4</ele>
        <time>2019-05-04T06:12:28Z</time>
      </trkpt>
      <trkpt lat="40.4306030" lon="-3.7384000">
        <ele>598.9</ele>
        <time>2019-05-04T06:12:29Z</time>
      </trkpt>
      <trkpt lat="40.4306300" lon="-3.7384630">
        <ele>599.3</ele>
        <time>2019-05-04T06:12:30Z</time>
      </trkpt>
      <trkpt lat="40.4306530" lon="-3.7385250">
        <ele>599.6</ele>
        <time>2019-05-04T06:12:31Z</time>
      </trkpt>
      <trkpt lat="40.4306740" lon="-3.7385870">
        <ele>599.8</ele>
        <time>2019-05-04T06:12:32Z</time>
      </trkpt>
      <trkpt lat="40.4306940" lon="-3.7386460">
        <ele>600.1</ele>
        <time>2019-05-04T06:12:33Z</time>
      </trkpt>
      <trkpt lat="40.4307210" lon="-3.7387030">
        <ele>600.4</ele>
        <time>2019-05-04T06:12:34Z</time>
      </trkpt>
      <trkpt lat="40.4307470" lon="-3.7387610">
        <ele>600.8</ele>
        <time>2019-05-04T06:12:35Z</time>
      </trkpt>
      <trkpt lat="40.4307730" lon="-3.7388190">
        <ele>601.1</ele>
        <time>2019-05-04T06:12:36Z</time>
      </trkpt>
      <trkpt lat="40.4307880" lon="-3.7388790">
        <ele>601.5</ele>
        <time>2019-05-04T06:12:37Z</time>
      </trkpt>
      <trkpt lat="40.4308010" lon="-3.7389420">
        <ele>601.8</ele>
        <time>2019-05-04T06:12:38Z</time>
      </trkpt>
      <trkpt lat="40.4308100" lon="-3.7390050">
        <ele>602.0</ele>
        <time>2019-05-04T06:12:39Z</time>
      </trkpt>
      <trkpt lat="40.4308170" lon="-3.7390680">
        <ele>602.2</ele>
        <time>2019-05-04T06:12:40Z</time>
      </trkpt>
      <trkpt lat="40.4308240" lon="-3.7391270">
        <ele>602.3</ele>
        <time>2019-05-04T06:12:41Z</time>
      </trkpt>
      <trkpt lat="40.4308300" lon="-3.7391870">
        <ele>602.5</ele>
        <time>2019-05-04T06:12:42Z</time>
      </trkpt>
      <trkpt lat="40.4308330" lon="-3.7392470">
        <ele>602.7</ele>
        <time>2019-05-04T06:12:43Z</time>
      </trkpt>
      <trkpt lat="40.4308370" lon="-3.7393060">
        <ele>602.8</ele>
        <time>2019-05-04T06:12:44Z</time>
      </trkpt>
      <trkpt lat="40.4308410" lon="-3.7393630">
        <ele>603.1</ele>
        <time>2019-05-04T06:12:45Z</time>
      </trkpt>
      <trkpt lat="40.4308470" lon="-3.7394210">
        <ele>603.4</ele>
        <time>2019-05-04T06:12:46Z</time>
      </trkpt>
      <trkpt lat="40.4308540" lon="-3.7394810">
        <ele>603.7</ele>
        <time>2019-05-04T06:12:47Z</time>
      </trkpt>
      <trkpt lat="40.4308600" lon="-3.7395440">
        <ele>603.9</ele>
        <time>2019-05-04T06:12:48Z</time>
      </trkpt>
      <trkpt lat="40.4308670" lon="-3.7396100">
        <ele>604.1</ele>
        <time>2019-05-04T06:12:49Z</time>
      </trkpt>
      <trkpt lat="40.4308730" lon="-3.7396770">
        <ele>604.4</ele>
        <time>2019-05-04T06:12:50Z</time>
      </trkpt>
      <trkpt lat="40.4308800" lon="-3.7397470">
        <ele>604.6</ele>
        <time>2019-05-04T06:12:51Z</time>
      </trkpt>
      <trkpt lat="40.4308870" lon="-3.7398160">
        <ele>604.9</ele>
        <time>2019-05-04T06:12:52Z</time>
      </trkpt>
      <trkpt lat="40.4308920" lon="-3.7398850">
        <ele>605.2</ele>
        <time>2019-05-04T06:12:53Z</time>
      </trkpt>
      <trkpt lat="40.4308970" lon="-3.7399530">
        <ele>605.6</ele>
        <time>2019-05-04T06:12:54Z</time>
      </trkpt>
      <trkpt lat="40.4309010" lon="-3.7400220">
        <ele>606.0</ele>
        <time>2019-05-04T06:12:55Z</time>
      </trkpt>
      <trkpt lat="40.4309030" lon="-3.7400910">
        <ele>606.3</ele>
        <time>2019-05-04T06:12:56Z</time>
      </trkpt>
      <trkpt lat="40.4309030" lon="-3.7401580">
        <ele>606.6</ele>
        <time>2019-05-04T06:12:57Z</time>
      </trkpt>
      <trkpt lat="40.4309020" lon="-3.7402220">
        <ele>606.8</ele>
        <time>2019-05-04T06:12:58Z</time>
      </trkpt>
      <trkpt lat="40.4309020" lon="-3.7402850">
        <ele>606.9</ele>
        <time>2019-05-04T06:12:59Z</time>
      </trkpt>
      <trkpt lat="40.4309030" lon="-3.7403470">
        <ele>607.1</ele>
        <time>2019-05-04T06:13:00Z</time>
      </trkpt>
      <trkpt lat="40.4309040" lon="-3.7404110">
        <ele>607.3</ele>
        <time>2019-05-04T06:13:01Z</time>
      </trkpt>
      <trkpt lat="40.4309060" lon="-3.7404760">
        <ele>607.6</ele>
        <time>2019-05-04T06:13:02Z</time>
      </trkpt>
      <trkpt lat="40.4309090" lon="-3.7405420">
        <ele>607.8</ele>
        <time>2019-05-04T06:13:03Z</time>
      </trkpt>
      <trkpt lat="40.4309120" lon="-3.7406070">
        <ele>608.1</ele>
        <time>2019-05-04T06:13:04Z</time>
      </trkpt>
      <trkpt lat="40.4309160" lon="-3.7406710">
        <ele>608.4</ele>
        <time>2019-05-04T06:13:05Z</time>
      </trkpt>
      <trkpt lat="40.4309180" lon="-3.7407360">
        <ele>608.7</ele>
        <time>2019-05-04T06:13:06Z</time>
      </trkpt>
      <trkpt lat="40.4309200" lon="-3.7408010">
        <ele>608.9</ele>
        <time>2019-05-04T06:13:07Z</time>
      </trkpt>
      <trkpt lat="40.4309220" lon="-3.7408650">
        <ele>609.2</ele>
        <time>2019-05-04T06:13:08Z</time>
      </trkpt>
      <trkpt lat="40.4309250" lon="-3.7409290">
        <ele>609.4</ele>
        <time>2019-05-04T06:13:09Z</time>
      </trkpt>
      <trkpt lat="40.4309290" lon="-3.7409910">
        <ele>609.6</ele>
        <time>2019-05-04T06:13:10Z</time>
      </trkpt>
      <trkpt lat="40.4309330" lon="-3.7410540">
        <ele>609.8</ele>
        <time>2019-05-04T06:13:11Z</time>
      </trkpt>
      <trkpt lat="40.4309360" lon="-3.7411170">
        <ele>610.0</ele>
        <time>2019-05-04T06:13:12Z</time>
      </trkpt>
      <trkpt lat="40.4309390" lon="-3.7411820">
        <ele>610.3</ele>
        <time>2019-05-04T06:13:13Z</time>
      </trkpt>
      <trkpt lat="40.4309420" lon="-3.7412480">
        <ele>610.7</ele>
        <time>2019-05-04T06:13:14Z</time>
      </trkpt>
      <trkpt lat="40.4309440" lon="-3.7413140">
        <ele>611.0</ele>
        <time>2019-05-04T06:13:15Z</time>
      </trkpt>
      <trkpt lat="40.4309460" lon="-3.7413790">
        <ele>611.2</ele>
        <time>2019-05-04T06:13:16Z</time>
      </trkpt>
      <trkpt lat="40.4309500" lon="-3.7414450">
        <ele>611.4</ele>
        <time>2019-05-04T06:13:17Z</time>
      </trkpt>
      <trkpt lat="40.4309540" lon="-3.7415110">
        <ele>611.5</ele>
        <time>2019-05-04T06:13:18Z</time>
      </trkpt>
      <trkpt lat="40.4309590" lon="-3.7415770">
        <ele>611.6</ele>
        <time>2019-05-04T06:13:19Z</time>
      </trkpt>
      <trkpt lat="40.4309640" lon="-3.7416440">
        <ele>611.7</ele>
        <time>2019-05-04T06:13:20Z</time>
      </trkpt>
      <trkpt lat="40.4309700" lon="-3.7417110">
        <ele>611.8</ele>
        <time>2019-05-04T06:13:21Z</time>
      </trkpt>
      <trkpt lat="40.4309750" lon="-3.7417780">
        <ele>611.9</ele>
        <time>2019-05-04T06:13:22Z</time>
      </trkpt>
      <trkpt lat="40.4309790" lon="-3.7418440">
        <ele>612.0</ele>
        <time>2019-05-04T06:13:23Z</time>
      </trkpt>
      <trkpt lat="40.4309830" lon="-3.7419090">
        <ele>612.1</ele>
        <time>2019-05-04T06:13:24Z</time>
      </trkpt>
      <trkpt lat="40.4309890" lon="-3.7419730">
        <ele>612.3</ele>
        <time>2019-05-04T06:13:25Z</time>
      </trkpt>
      <trkpt lat="40.4309950" lon="-3.7420360">
        <ele>612.5</ele>
        <time>2019-05-04T06:13:26Z</time>
      </trkpt>
      <trkpt lat="40.4310040" lon="-3.7421010">
        <ele>612.6</ele>
        <time>2019-05-04T06:13:27Z</time>
      </trkpt>
      <trkpt lat="40.4310150" lon="-3.7421650">
        <ele>612.8</ele>
        <time>2019-05-04T06:13:28Z</time>
      </trkpt>
      <trkpt lat="40.4310260" lon="-3.7422300">
        <ele>613.0</ele>
        <time>2019-05-04T06:13:29Z</time>
      </trkpt>
      <trkpt lat="40.4310390" lon="-3.7422950">
        <ele>613.2</ele>
        <time>2019-05-04T06:13:30Z</time>
      </trkpt>
      <trkpt lat="40.4310520" lon="-3.7423620">
        <ele>613.4</ele>
        <time>2019-05-04T06:13:31Z</time>
      </trkpt>
      <trkpt lat="40.4310650" lon="-3.7424290">
        <ele>613.7</ele>
        <time>2019-05-04T06:13:32Z</time>
      </trkpt>
      <trkpt lat="40.4310780" lon="-3.7424950">
        <ele>613.9</ele>
        <time>2019-05-04T06:13:33Z</time>
      </trkpt>
      <trkpt lat="40.4310910" lon="-3.7425610">
        <ele>614.2</ele>
        <time>2019-05-04T06:13:34Z</time>
      </trkpt>
      <trkpt lat="40.4311070" lon="-3.7426270">
        <ele>614.5</ele>
        <time>2019-05-04T06:13:35Z</time>
      </trkpt>
      <trkpt lat="40.4311260" lon="-3.7426910">
        <ele>614.7</ele>
        <time>2019-05-04T06:13:36Z</time>
      </trkpt>
      <trkpt lat="40.4311490" lon="-3.7427530">
        <ele>615.0</ele>
        <time>2019-05-04T06:13:37Z</time>
      </trkpt>
      <trkpt lat="40.4311740" lon="-3.7428150">
        <ele>615.3</ele>
        <time>2019-05-04T06:13:38Z</time>
      </trkpt>
      <trkpt lat="40.4311970" lon="-3.7428750">
        <ele>615.5</ele>
        <time>2019-05-04T06:13:39Z</time>
      </trkpt>
      <trkpt lat="40.4312190" lon="-3.7429360">
        <ele>615.8</ele>
        <time>2019-05-04T06:13:40Z</time>
      </trkpt>
      <trkpt lat="40.4312390" lon="-3.7429970">
        <ele>616.0</ele>
        <time>2019-05-04T06:13:41Z</time>
      </trkpt>
      <trkpt lat="40.4312600" lon="-3.7430570">
        <ele>616.2</ele>
        <time>2019-05-04T06:13:42Z</time>
      </trkpt>
      <trkpt lat="40.4312820" lon="-3.7431160">
        <ele>616.4</ele>
        <time>2019-05-04T06:13:43Z</time>
      </trkpt>
      <trkpt lat="40.4313050" lon="-3.7431740">
        <ele>616.6</ele>
        <time>2019-05-04T06:13:44Z</time>
      </trkpt>
      <trkpt lat="40.4313290" lon="-3.7432320">
        <ele>616.8</ele>
        <time>2019-05-04T06:13:45Z</time>
      </trkpt>
      <trkpt lat="40.4313530" lon="-3.7432890">
        <ele>617.0</ele>
        <time>2019-05-04T06:13:46Z</time>
      </trkpt>
      <trkpt lat="40.4313800" lon="-3.7433450">
        <ele>617.5</ele>
        <time>2019-05-04T06:13:47Z</time>
      </trkpt>
      <trkpt lat="40.4314080" lon="-3.7433990">
        <ele>617.8</ele>
        <time>2019-05-04T06:13:48Z</time>
      </trkpt>
      <trkpt lat="40.4314380" lon="-3.7434500">
        <ele>618.1</ele>
        <time>2019-05-04T06:13:49Z</time>
      </trkpt>
      <trkpt lat="40.4314690" lon="-3.7435000">
        <ele>618.4</ele>
        <time>2019-05-04T06:13:50Z</time>
      </trkpt>
      <trkpt lat="40.4315010" lon="-3.7435480">
        <ele>618.7</ele>
        <time>2019-05-04T06:13:51Z</time>
      </trkpt>
      <trkpt lat="40.4315320" lon="-3.7435980">
        <ele>618.9</ele>
        <time>2019-05-04T06:13:52Z</time>
      </trkpt>
      <trkpt lat="40.4315620" lon="-3.7436500">
        <ele>619.2</ele>
        <time>2019-05-04T06:13:53Z</time>
      </trkpt>
      <trkpt lat="40.4315910" lon="-3.7437030">
        <ele>619.4</ele>
        <time>2019-05-04T06:13:54Z</time>
      </trkpt>
      <trkpt lat="40.4316170" lon="-3.7437570">
        <ele>619.6</ele>
        <time>2019-05-04T06:13:55Z</time>
      </trkpt>
      <trkpt lat="40.4316430" lon="-3.7438120">
        <ele>619.8</ele>
        <time>2019-05-04T06:13:56Z</time>
      </trkpt>
      <trkpt lat="40.4316670" lon="-3.7438680">
        <ele>620.0</ele>
        <time>2019-05-04T06:13:57Z</time>
      </trkpt>
      <trkpt lat="40.4316900" lon="-3.7439270">
        <ele>620.2</ele>
        <time>2019-05-04T06:13:58Z</time>
      </trkpt>
      <trkpt lat="40.4317120" lon="-3.7439860">
        <ele>620.4</ele>
        <time>2019-05-04T06:13:59Z</time>
      </trkpt>
      <trkpt lat="40.4317350" lon="-3.7440450">
        <ele>620.6</ele>
        <time>2019-05-04T06:14:00Z</time>
      </trkpt>
      <trkpt lat="40.4317570" lon="-3.7441050">
        <ele>620.9</ele>
        <time>2019-05-04T06:14:01Z</time>
      </trkpt>
      <trkpt lat="40.4317770" lon="-3.7441670">
        <ele>621.1</ele>
        <time>2019-05-04T06:14:02Z</time>
      </trkpt>
      <trkpt lat="40.4317970" lon="-3.7442320">
        <ele>621.4</ele>
        <time>2019-05-04T06:14:03Z</time>
      </trkpt>
      <trkpt lat="40.4318180" lon="-3.7442950">
        <ele>621.6</ele>
        <time>2019-05-04T06:14:04Z</time>
      </trkpt>
      <trkpt lat="40.4318400" lon="-3.7443570">
        <ele>621.9</ele>
        <time>2019-05-04T06:14:05Z</time>
      </trkpt>
      <trkpt lat="40.4318640" lon="-3.7444170">
        <ele>622.1</ele>
        <time>2019-05-04T06:14:06Z</time>
      </trkpt>
      <trkpt lat="40.4318870" lon="-3.7444770">
        <ele>622.4</ele>
        <time>2019-05-04T06:14:07Z</time>
      </trkpt>
      <trkpt lat="40.4319120" lon="-3.7445350">
        <ele>622.7</ele>
        <time>2019-05-04T06:14:08Z</time>
      </trkpt>
      <trkpt lat="40.4319380" lon="-3.7445920">
        <ele>622.9</ele>
        <time>2019-05-04T06:14:09Z</time>
      </trkpt>
      <trkpt lat="40.4319640" lon="-3.7446500">
        <ele>623.2</ele>
        <time>2019-05-04T06:14:10Z</time>
      </trkpt>
      <trkpt lat="40.4319910" lon="-3.7447100">
        <ele>623.4</ele>
        <time>2019-05-04T06:14:11Z</time>
      </trkpt>
      <trkpt lat="40.4320200" lon="-3.7447680">
        <ele>623.7</ele>
        <time>2019-05-04T06:14:12Z</time>
      </trkpt>
      <trkpt lat="40.4320480" lon="-3.7448270">
        <ele>623.8</ele>
        <time>2019-05-04T06:14:13Z</time>
      </trkpt>
      <trkpt lat="40.4320760" lon="-3.7448860">
        <ele>624.0</ele>
        <time>2019-05-04T06:14:14Z</time>
      </trkpt>
      <trkpt lat="40.4321040" lon="-3.7449440">
        <ele>624.1</ele>
        <time>2019-05-04T06:14:15Z</time>
      </trkpt>
      <trkpt lat="40.4321310" lon="-3.7450020">
        <ele>624.2</ele>
        <time>2019-05-04T06:14:16Z</time>
      </trkpt>
      <trkpt lat="40.4321570" lon="-3.7450590">
        <ele>624.4</ele>
        <time>2019-05-04T06:14:17Z</time>
      </trkpt>
      <trkpt lat="40.4321820" lon="-3.7451160">
        <ele>624.5</ele>
        <time>2019-05-04T06:14:18Z</time>
      </trkpt>
      <trkpt lat="40.4322070" lon="-3.7451740">
        <ele>624.7</ele>
        <time>2019-05-04T06:14:19Z</time>
      </trkpt>
      <trkpt lat="40.4322310" lon="-3.7452320">
        <ele>624.8</ele>
        <time>2019-05-04T06:14:20Z</time>
      </trkpt>
      <trkpt lat="40.4322550" lon="-3.7452900">
        <ele>625.0</ele>
        <time>2019-05-04T06:14:21Z</time>
      </trkpt>
      <trkpt lat="40.4322780" lon="-3.7453480">
        <ele>625.1</ele>
        <time>2019-05-04T06:14:22Z</time>
      </trkpt>
      <trkpt lat="40.4323020" lon="-3.7454040">
        <ele>625.2</ele>
        <time>2019-05-04T06:14:23Z</time>
      </trkpt>
      <trkpt lat="40.4323270" lon="-3.7454610">
        <ele>625.4</ele>
        <time>2019-05-04T06:14:24Z</time>
      </trkpt>
      <trkpt lat="40.4323520" lon="-3.7455200">
        <ele>625.5</ele>
        <time>2019-05-04T06:14:25Z</time>
      </trkpt>
      <trkpt lat="40.4323750" lon="-3.7455800">
        <ele>625.6</ele>
        <time>2019-05-04T06:14:26Z</time>
      </trkpt>
      <trkpt lat="40.4323970" lon="-3.7456410">
        <ele>625.8</ele>
        <time>2019-05-04T06:14:27Z</time>
      </trkpt>
      <trkpt lat="40.4324210" lon="-3.7457010">
        <ele>625.9</ele>
        <time>2019-05-04T06:14:28Z</time>
      </trkpt>
      <trkpt lat="40.4324450" lon="-3.7457600">
        <ele>626.0</ele>
        <time>2019-05-04T06:14:29Z</time>
      </trkpt>
      <trkpt lat="40.4324700" lon="-3.7458190">
        <ele>626.1</ele>
        <time>2019-05-04T06:14:30Z</time>
      </trkpt>
      <trkpt lat="40.4324930" lon="-3.7458770">
        <ele>626.3</ele>
        <time>2019-05-04T06:14:31Z</time>
      </trkpt>
      <trkpt lat="40.4325170" lon="-3.7459350">
        <ele>626.4</ele>
        <time>2019-05-04T06:14:32Z</time>
      </trkpt>
      <trkpt lat="40.4325410" lon="-3.7459940">
        <ele>626.6</ele>
        <time>2019-05-04T06:14:33Z</time>
      </trkpt>
      <trkpt lat="40.4325650" lon="-3.7460530">
        <ele>626.9</ele>
        <time>2019-05-04T06:14:34Z</time>
      </trkpt>
      <trkpt lat="40.4325890" lon="-3.7461130">
        <ele>627.1</ele>
        <time>2019-05-04T06:14:35Z</time>
      </trkpt>
      <trkpt lat="40.4326150" lon="-3.7461730">
        <ele>627.4</ele>
        <time>2019-05-04T06:14:36Z</time>
      </trkpt>
      <trkpt lat="40.4326420" lon="-3.7462330">
        <ele>627.6</ele>
        <time>2019-05-04T06:14:37Z</time>
      </trkpt>
      <trkpt lat="40.4326680" lon="-3.7462950">
        <ele>627.8</ele>
        <time>2019-05-04T06:14:38Z</time>
      </trkpt>
      <trkpt lat="40.4326870" lon="-3.7463620">
        <ele>628.0</ele>
        <time>2019-05-04T06:14:39Z</time>
      </trkpt>
      <trkpt lat="40.4327010" lon="-3.7464320">
        <ele>628.1</ele>
        <time>2019-05-04T06:14:40Z</time>
      </trkpt>
      <trkpt lat="40.4327110" lon="-3.7465040">
        <ele>628.2</ele>
        <time>2019-05-04T06:14:41Z</time>
      </trkpt>
      <trkpt lat="40.4327240" lon="-3.7465750">
        <ele>628.4</ele>
        <time>2019-05-04T06:14:42Z</time>
      </trkpt>
      <trkpt lat="40.4327350" lon="-3.7466450">
        <ele>628.6</ele>
        <time>2019-05-04T06:14:43Z</time>
      </trkpt>
      <trkpt lat="40.4327440" lon="-3.7467130">
        <ele>628.7</ele>
        <time>2019-05-04T06:14:44Z</time>
      </trkpt>
      <trkpt lat="40.4327460" lon="-3.7467820">
        <ele>628.9</ele>
        <time>2019-05-04T06:14:45Z</time>
      </trkpt>
      <trkpt lat="40.4327480" lon="-3.7468500">
        <ele>629.1</ele>
        <time>2019-05-04T06:14:46Z</time>
      </trkpt>
      <trkpt lat="40.4327500" lon="-3.7469180">
        <ele>629.3</ele>
        <time>2019-05-04T06:14:47Z</time>
      </trkpt>
      <trkpt lat="40.4327540" lon="-3.7469860">
        <ele>629.5</ele>
        <time>2019-05-04T06:14:48Z</time>
      </trkpt>
      <trkpt lat="40.4327570" lon="-3.7470560">
        <ele>629.7</ele>
        <time>2019-05-04T06:14:49Z</time>
      </trkpt>
      <trkpt lat="40.4327610" lon="-3.7471270">
        <ele>629.9</ele>
        <time>2019-05-04T06:14:50Z</time>
      </trkpt>
      <trkpt lat="40.4327650" lon="-3.7471980">
        <ele>630.1</ele>
        <time>2019-05-04T06:14:51Z</time>
      </trkpt>
      <trkpt lat="40.4327720" lon="-3.7472660">
        <ele>630.3</ele>
        <time>2019-05-04T06:14:52Z</time>
      </trkpt>
      <trkpt lat="40.4327820" lon="-3.7473350">
        <ele>630.6</ele>
        <time>2019-05-04T06:14:53Z</time>
      </trkpt>
      <trkpt lat="40.4327940" lon="-3.7474060">
        <ele>630.8</ele>
        <time>2019-05-04T06:14:54Z</time>
      </trkpt>
      <trkpt lat="40.4328060" lon="-3.7474760">
        <ele>631.0</ele>
        <time>2019-05-04T06:14:55Z</time>
      </trkpt>
      <trkpt lat="40.4328170" lon="-3.7475460">
        <ele>631.1</ele>
        <time>2019-05-04T06:14:56Z</time>
      </trkpt>
      <trkpt lat="40.4328280" lon="-3.7476150">
        <ele>631.3</ele>
        <time>2019-05-04T06:14:57Z</time>
      </trkpt>
      <trkpt lat="40.4328390" lon="-3.7476840">
        <ele>631.5</ele>
        <time>2019-05-04T06:14:58Z</time>
      </trkpt>
      <trkpt lat="40.4328510" lon="-3.7477530">
        <ele>631.8</ele>
        <time>2019-05-04T06:14:59Z</time>
      </trkpt>
      <trkpt lat="40.4328640" lon="-3.7478220">
        <ele>632.1</ele>
        <time>2019-05-04T06:15:00Z</time>
      </trkpt>
      <trkpt lat="40.4328770" lon="-3.7478890">
        <ele>632.3</ele>
        <time>2019-05-04T06:15:01Z</time>
      </trkpt>
      <trkpt lat="40.4328910" lon="-3.7479570">
        <ele>632.6</ele>
        <time>2019-05-04T06:15:02Z</time>
      </trkpt>
      <trkpt lat="40.4329070" lon="-3.7480230">
        <ele>633.0</ele>
        <time>2019-05-04T06:15:03Z</time>
      </trkpt>
      <trkpt lat="40.4329240" lon="-3.7480900">
        <ele>633.3</ele>
        <time>2019-05-04T06:15:04Z</time>
      </trkpt>
      <trkpt lat="40.4329400" lon="-3.7481570">
        <ele>633.7</ele>
        <time>2019-05-04T06:15:05Z</time>
      </trkpt>
      <trkpt lat="40.4329560" lon="-3.7482240">
        <ele>634.1</ele>
        <time>2019-05-04T06:15:06Z</time>
      </trkpt>
      <trkpt lat="40.4329740" lon="-3.7482890">
        <ele>634.4</ele>
        <time>2019-05-04T06:15:07Z</time>
      </trkpt>
      <trkpt lat="40.4329920" lon="-3.7483540">
        <ele>634.7</ele>
        <time>2019-05-04T06:15:08Z</time>
      </trkpt>
      <trkpt lat="40.4330100" lon="-3.7484190">
        <ele>634.9</ele>
        <time>2019-05-04T06:15:09Z</time>
      </trkpt>
      <trkpt lat="40.4330250" lon="-3.7484850">
        <ele>635.1</ele>
        <time>2019-05-04T06:15:10Z</time>
      </trkpt>
      <trkpt lat="40.4330400" lon="-3.7485510">
        <ele>635.2</ele>
        <time>2019-05-04T06:15:11Z</time>
      </trkpt>
      <trkpt lat="40.4330530" lon="-3.7486170">
        <ele>635.6</ele>
        <time>2019-05-04T06:15:12Z</time>
      </trkpt>
      <trkpt lat="40.4330640" lon="-3.7486830">
        <ele>635.7</ele>
        <time>2019-05-04T06:15:13Z</time>
      </trkpt>
      <trkpt lat="40.4330700" lon="-3.7487480">
        <ele>635.9</ele>
        <time>2019-05-04T06:15:14Z</time>
      </trkpt>
      <trkpt lat="40.4330720" lon="-3.7488150">
        <ele>635.9</ele>
        <time>2019-05-04T06:15:15Z</time>
      </trkpt>
      <trkpt lat="40.4330720" lon="-3.7488800">
        <ele>636.0</ele>
        <time>2019-05-04T06:15:16Z</time>
      </trkpt>
      <trkpt lat="40.4330710" lon="-3.7489430">
        <ele>636.0</ele>
        <time>2019-05-04T06:15:17Z</time>
      </trkpt>
      <trkpt lat="40.4330710" lon="-3.7490070">
        <ele>636.0</ele>
        <time>2019-05-04T06:15:18Z</time>
      </trkpt>
      <trkpt lat="40.4330680" lon="-3.7490710">
        <ele>636.1</ele>
        <time>2019-05-04T06:15:19Z</time>
      </trkpt>
      <trkpt lat="40.4330670" lon="-3.7491370">
        <ele>636.2</ele>
        <time>2019-05-04T06:15:20Z</time>
      </trkpt>
      <trkpt lat="40.4330650" lon="-3.7492000">
        <ele>636.3</ele>
        <time>2019-05-04T06:15:21Z</time>
      </trkpt>
      <trkpt lat="40.4330630" lon="-3.7492650">
        <ele>636.6</ele>
        <time>2019-05-04T06:15:22Z</time>
      </trkpt>
      <trkpt lat="40.4330590" lon="-3.7493300">
        <ele>636.9</ele>
        <time>2019-05-04T06:15:23Z</time>
      </trkpt>
      <trkpt lat="40.4330570" lon="-3.7493980">
        <ele>637.2</ele>
        <time>2019-05-04T06:15:24Z</time>
      </trkpt>
      <trkpt lat="40.4330550" lon="-3.7494630">
        <ele>637.6</ele>
        <time>2019-05-04T06:15:25Z</time>
      </trkpt>
      <trkpt lat="40.4330530" lon="-3.7495270">
        <ele>637.9</ele>
        <time>2019-05-04T06:15:26Z</time>
      </trkpt>
      <trkpt lat="40.4330510" lon="-3.7495920">
        <ele>638.0</ele>
        <time>2019-05-04T06:15:27Z</time>
      </trkpt>
      <trkpt lat="40.4330460" lon="-3.7496570">
        <ele>638.1</ele>
        <time>2019-05-04T06:15:28Z</time>
      </trkpt>
      <trkpt lat="40.4330410" lon="-3.7497220">
        <ele>638.2</ele>
        <time>2019-05-04T06:15:29Z</time>
      </trkpt>
      <trkpt lat="40.4330350" lon="-3.7497880">
        <ele>638.2</ele>
        <time>2019-05-04T06:15:30Z</time>
      </trkpt>
      <trkpt lat="40.4330300" lon="-3.7498550">
        <ele>638.1</ele>
        <time>2019-05-04T06:15:31Z</time>
      </trkpt>
      <trkpt lat="40.4330260" lon="-3.7499210">
        <ele>638.1</ele>
        <time>2019-05-04T06:15:32Z</time>
      </trkpt>
      <trkpt lat="40.4330210" lon="-3.7499880">
        <ele>638.1</ele>
        <time>2019-05-04T06:15:33Z</time>
      </trkpt>
      <trkpt lat="40.4330150" lon="-3.7500540">
        <ele>638.0</ele>
        <time>2019-05-04T06:15:34Z</time>
      </trkpt>
      <trkpt lat="40.4330080" lon="-3.7501190">
        <ele>638.0</ele>
        <time>2019-05-04T06:15:35Z</time>
      </trkpt>
      <trkpt lat="40.4330020" lon="-3.7501820">
        <ele>638.0</ele>
        <time>2019-05-04T06:15:36Z</time>
      </trkpt>
      <trkpt lat="40.4329970" lon="-3.7502450">
        <ele>638.0</ele>
        <time>2019-05-04T06:15:37Z</time>
      </trkpt>
      <trkpt lat="40.4329940" lon="-3.7503060">
        <ele>638.0</ele>
        <time>2019-05-04T06:15:38Z</time>
      </trkpt>
      <trkpt lat="40.4329920" lon="-3.7503710">
        <ele>638.0</ele>
        <time>2019-05-04T06:15:39Z</time>
      </trkpt>
      <trkpt lat="40.4329890" lon="-3.7504360">
        <ele>638.0</ele>
        <time>2019-05-04T06:15:40Z</time>
      </trkpt>
      <trkpt lat="40.4329860" lon="-3.7504990">
        <ele>638.0</ele>
        <time>2019-05-04T06:15:41Z</time>
      </trkpt>
      <trkpt lat="40.4329820" lon="-3.7505600">
        <ele>638.0</ele>
        <time>2019-05-04T06:15:42Z</time>
      </trkpt>
      <trkpt lat="40.4329810" lon="-3.7506250">
        <ele>638.0</ele>
        <time>2019-05-04T06:15:43Z</time>
      </trkpt>
      <trkpt lat="40.4329850" lon="-3.7506970">
        <ele>638.4</ele>
        <time>2019-05-04T06:15:44Z</time>
      </trkpt>
      <trkpt lat="40.4329930" lon="-3.7507720">
        <ele>638.6</ele>
        <time>2019-05-04T06:15:45Z</time>
      </trkpt>
      <trkpt lat="40.4330000" lon="-3.7508440">
        <ele>638.9</ele>
        <time>2019-05-04T06:15:46Z</time>
      </trkpt>
      <trkpt lat="40.4330040" lon="-3.7509140">
        <ele>639.0</ele>
        <time>2019-05-04T06:15:47Z</time>
      </trkpt>
      <trkpt lat="40.4330100" lon="-3.7509840">
        <ele>639.2</ele>
        <time>2019-05-04T06:15:48Z</time>
      </trkpt>
      <trkpt lat="40.4330160" lon="-3.7510600">
        <ele>639.4</ele>
        <time>2019-05-04T06:15:49Z</time>
      </trkpt>
      <trkpt lat="40.4330240" lon="-3.7511380">
        <ele>639.6</ele>
        <time>2019-05-04T06:15:50Z</time>
      </trkpt>
      <trkpt lat="40.4330310" lon="-3.7512130">
        <ele>639.8</ele>
        <time>2019-05-04T06:15:51Z</time>
      </trkpt>
      <trkpt lat="40.4330370" lon="-3.7512830">
        <ele>640.0</ele>
        <time>2019-05-04T06:15:52Z</time>
      </trkpt>
      <trkpt lat="40.4330440" lon="-3.7513510">
        <ele>640.2</ele>
        <time>2019-05-04T06:15:53Z</time>
      </trkpt>
      <trkpt lat="40.4330510" lon="-3.7514190">
        <ele>640.4</ele>
        <time>2019-05-04T06:15:54Z</time>
      </trkpt>
      <trkpt lat="40.4330600" lon="-3.7514840">
        <ele>640.7</ele>
        <time>2019-05-04T06:15:55Z</time>
      </trkpt>
      <trkpt lat="40.4330690" lon="-3.7515490">
        <ele>641.0</ele>
        <time>2019-05-04T06:15:56Z</time>
      </trkpt>
      <trkpt lat="40.4330790" lon="-3.7516130">
        <ele>641.3</ele>
        <time>2019-05-04T06:15:57Z</time>
      </trkpt>
      <trkpt lat="40.4330860" lon="-3.7516770">
        <ele>641.7</ele>
        <time>2019-05-04T06:15:58Z</time>
      </trkpt>
      <trkpt lat="40.4330910" lon="-3.7517420">
        <ele>642.0</ele>
        <time>2019-05-04T06:15:59Z</time>
      </trkpt>
      <trkpt lat="40.4330960" lon="-3.7518070">
        <ele>642.4</ele>
        <time>2019-05-04T06:16:00Z</time>
      </trkpt>
      <trkpt lat="40.4330990" lon="-3.7518700">
        <ele>642.7</ele>
        <time>2019-05-04T06:16:01Z</time>
      </trkpt>
      <trkpt lat="40.4331030" lon="-3.7519300">
        <ele>642.9</ele>
        <time>2019-05-04T06:16:02Z</time>
      </trkpt>
      <trkpt lat="40.4331070" lon="-3.7519890">
        <ele>643.2</ele>
        <time>2019-05-04T06:16:03Z</time>
      </trkpt>
      <trkpt lat="40.4331110" lon="-3.7520470">
        <ele>643.3</ele>
        <time>2019-05-04T06:16:04Z</time>
      </trkpt>
      <trkpt lat="40.4331130" lon="-3.7521060">
        <ele>643.5</ele>
        <time>2019-05-04T06:16:05Z</time>
      </trkpt>
      <trkpt lat="40.4331130" lon="-3.7521700">
        <ele>643.6</ele>
        <time>2019-05-04T06:16:06Z</time>
      </trkpt>
      <trkpt lat="40.4331140" lon="-3.7522360">
        <ele>643.7</ele>
        <time>2019-05-04T06:16:07Z</time>
      </trkpt>
      <trkpt lat="40.4331170" lon="-3.7523020">
        <ele>643.9</ele>
        <time>2019-05-04T06:16:08Z</time>
      </trkpt>
      <trkpt lat="40.4331180" lon="-3.7523690">
        <ele>644.0</ele>
        <time>2019-05-04T06:16:09Z</time>
      </trkpt>
      <trkpt lat="40.4331170" lon="-3.7524350">
        <ele>644.2</ele>
        <time>2019-05-04T06:16:10Z</time>
      </trkpt>
      <trkpt lat="40.4331170" lon="-3.7525030">
        <ele>644.4</ele>
        <time>2019-05-04T06:16:11Z</time>
      </trkpt>
      <trkpt lat="40.4331150" lon="-3.7525670">
        <ele>644.7</ele>
        <time>2019-05-04T06:16:12Z</time>
      </trkpt>
      <trkpt lat="40.4331160" lon="-3.7526280">
        <ele>644.9</ele>
        <time>2019-05-04T06:16:13Z</time>
      </trkpt>
      <trkpt lat="40.4331150" lon="-3.7526890">
        <ele>645.2</ele>
        <time>2019-05-04T06:16:14Z</time>
      </trkpt>
      <trkpt lat="40.4331160" lon="-3.7527540">
        <ele>645.4</ele>
        <time>2019-05-04T06:16:15Z</time>
      </trkpt>
      <trkpt lat="40.4331160" lon="-3.7527540">
        <ele>645.4</ele>
        <time>2019-05-04T06:16:16Z</time>
      </trkpt>
      <trkpt lat="40.4331090" lon="-3.7529000">
        <ele>645.9</ele>
        <time>2019-05-04T06:16:17Z</time>
      </trkpt>
      <trkpt lat="40.4331060" lon="-3.7529500">
        <ele>646.1</ele>
        <time>2019-05-04T06:16:18Z</time>
      </trkpt>
      <trkpt lat="40.4330990" lon="-3.7530490">
        <ele>646.4</ele>
        <time>2019-05-04T06:16:19Z</time>
      </trkpt>
      <trkpt lat="40.4330930" lon="-3.7531200">
        <ele>646.7</ele>
        <time>2019-05-04T06:16:20Z</time>
      </trkpt>
      <trkpt lat="40.4330900" lon="-3.7531900">
        <ele>646.9</ele>
        <time>2019-05-04T06:16:21Z</time>
      </trkpt>
      <trkpt lat="40.4330900" lon="-3.7532600">
        <ele>647.2</ele>
        <time>2019-05-04T06:16:22Z</time>
      </trkpt>
      <trkpt lat="40.4330880" lon="-3.7533310">
        <ele>647.5</ele>
        <time>2019-05-04T06:16:23Z</time>
      </trkpt>
      <trkpt lat="40.4330830" lon="-3.7534010">
        <ele>647.8</ele>
        <time>2019-05-04T06:16:24Z</time>
      </trkpt>
      <trkpt lat="40.4330760" lon="-3.7534700">
        <ele>648.1</ele>
        <time>2019-05-04T06:16:25Z</time>
      </trkpt>
      <trkpt lat="40.4330700" lon="-3.7535380">
        <ele>648.4</ele>
        <time>2019-05-04T06:16:26Z</time>
      </trkpt>
      <trkpt lat="40.4330640" lon="-3.7536080">
        <ele>648.8</ele>
        <time>2019-05-04T06:16:27Z</time>
      </trkpt>
      <trkpt lat="40.4330580" lon="-3.7536770">
        <ele>649.1</ele>
        <time>2019-05-04T06:16:28Z</time>
      </trkpt>
      <trkpt lat="40.4330520" lon="-3.7537420">
        <ele>649.3</ele>
        <time>2019-05-04T06:16:29Z</time>
      </trkpt>
      <trkpt lat="40.4330480" lon="-3.7538030">
        <ele>649.6</ele>
        <time>2019-05-04T06:16:30Z</time>
      </trkpt>
      <trkpt lat="40.4330460" lon="-3.7538630">
        <ele>649.8</ele>
        <time>2019-05-04T06:16:31Z</time>
      </trkpt>
      <trkpt lat="40.4330460" lon="-3.7539260">
        <ele>650.1</ele>
        <time>2019-05-04T06:16:32Z</time>
      </trkpt>
      <trkpt lat="40.4330470" lon="-3.7539880">
        <ele>650.4</ele>
        <time>2019-05-04T06:16:33Z</time>
      </trkpt>
      <trkpt lat="40.4330500" lon="-3.7540530">
        <ele>650.6</ele>
        <time>2019-05-04T06:16:34Z</time>
      </trkpt>
      <trkpt lat="40.4330540" lon="-3.7541200">
        <ele>650.7</ele>
        <time>2019-05-04T06:16:35Z</time>
      </trkpt>
      <trkpt lat="40.4330560" lon="-3.7541880">
        <ele>650.8</ele>
        <time>2019-05-04T06:16:36Z</time>
      </trkpt>
      <trkpt lat="40.4330560" lon="-3.7542600">
        <ele>651.0</ele>
        <time>2019-05-04T06:16:37Z</time>
      </trkpt>
      <trkpt lat="40.4330560" lon="-3.7543340">
        <ele>651.1</ele>
        <time>2019-05-04T06:16:38Z</time>
      </trkpt>
      <trkpt lat="40.4330580" lon="-3.7544140">
        <ele>651.3</ele>
        <time>2019-05-04T06:16:39Z</time>
      </trkpt>
      <trkpt lat="40.4330620" lon="-3.7545000">
        <ele>651.5</ele>
        <time>2019-05-04T06:16:40Z</time>
      </trkpt>
      <trkpt lat="40.4330690" lon="-3.7545900">
        <ele>651.8</ele>
        <time>2019-05-04T06:16:41Z</time>
      </trkpt>
      <trkpt lat="40.4330760" lon="-3.7546770">
        <ele>652.1</ele>
        <time>2019-05-04T06:16:42Z</time>
      </trkpt>
      <trkpt lat="40.4330840" lon="-3.7547520">
        <ele>652.3</ele>
        <time>2019-05-04T06:16:43Z</time>
      </trkpt>
      <trkpt lat="40.4330910" lon="-3.7548210">
        <ele>652.6</ele>
        <time>2019-05-04T06:16:44Z</time>
      </trkpt>
      <trkpt lat="40.4331010" lon="-3.7548850">
        <ele>652.8</ele>
        <time>2019-05-04T06:16:45Z</time>
      </trkpt>
      <trkpt lat="40.4331110" lon="-3.7549470">
        <ele>653.0</ele>
        <time>2019-05-04T06:16:46Z</time>
      </trkpt>
      <trkpt lat="40.4331210" lon="-3.7550100">
        <ele>653.2</ele>
        <time>2019-05-04T06:16:47Z</time>
      </trkpt>
      <trkpt lat="40.4331270" lon="-3.7550770">
        <ele>653.3</ele>
        <time>2019-05-04T06:16:48Z</time>
      </trkpt>
      <trkpt lat="40.4331340" lon="-3.7551450">
        <ele>653.5</ele>
        <time>2019-05-04T06:16:49Z</time>
      </trkpt>
      <trkpt lat="40.4331430" lon="-3.7552130">
        <ele>653.6</ele>
        <time>2019-05-04T06:16:50Z</time>
      </trkpt>
      <trkpt lat="40.4331520" lon="-3.7552810">
        <ele>653.8</ele>
        <time>2019-05-04T06:16:51Z</time>
      </trkpt>
      <trkpt lat="40.4331610" lon="-3.7553480">
        <ele>653.9</ele>
        <time>2019-05-04T06:16:52Z</time>
      </trkpt>
      <trkpt lat="40.4331680" lon="-3.7554130">
        <ele>654.3</ele>
        <time>2019-05-04T06:16:53Z</time>
      </trkpt>
      <trkpt lat="40.4331790" lon="-3.7554790">
        <ele>654.6</ele>
        <time>2019-05-04T06:16:54Z</time>
      </trkpt>
      <trkpt lat="40.4331920" lon="-3.7555460">
        <ele>654.8</ele>
        <time>2019-05-04T06:16:55Z</time>
      </trkpt>
      <trkpt lat="40.4332090" lon="-3.7556130">
        <ele>655.0</ele>
        <time>2019-05-04T06:16:56Z</time>
      </trkpt>
      <trkpt lat="40.4332230" lon="-3.7556780">
        <ele>655.2</ele>
        <time>2019-05-04T06:16:57Z</time>
      </trkpt>
      <trkpt lat="40.4332390" lon="-3.7557430">
        <ele>655.4</ele>
        <time>2019-05-04T06:16:58Z</time>
      </trkpt>
      <trkpt lat="40.4332530" lon="-3.7558110">
        <ele>655.6</ele>
        <time>2019-05-04T06:16:59Z</time>
      </trkpt>
      <trkpt lat="40.4332700" lon="-3.7558850">
        <ele>655.8</ele>
        <time>2019-05-04T06:17:00Z</time>
      </trkpt>
      <trkpt lat="40.4332840" lon="-3.7559620">
        <ele>656.0</ele>
        <time>2019-05-04T06:17:01Z</time>
      </trkpt>
      <trkpt lat="40.4333010" lon="-3.7560400">
        <ele>656.2</ele>
        <time>2019-05-04T06:17:02Z</time>
      </trkpt>
      <trkpt lat="40.4333180" lon="-3.7561160">
        <ele>656.4</ele>
        <time>2019-05-04T06:17:03Z</time>
      </trkpt>
      <trkpt lat="40.4333350" lon="-3.7561880">
        <ele>656.6</ele>
        <time>2019-05-04T06:17:04Z</time>
      </trkpt>
      <trkpt lat="40.4333510" lon="-3.7562590">
        <ele>656.8</ele>
        <time>2019-05-04T06:17:05Z</time>
      </trkpt>
      <trkpt lat="40.4333640" lon="-3.7563270">
        <ele>656.9</ele>
        <time>2019-05-04T06:17:06Z</time>
      </trkpt>
      <trkpt lat="40.4333770" lon="-3.7563970">
        <ele>657.1</ele>
        <time>2019-05-04T06:17:07Z</time>
      </trkpt>
      <trkpt lat="40.4333880" lon="-3.7564630">
        <ele>657.3</ele>
        <time>2019-05-04T06:17:08Z</time>
      </trkpt>
      <trkpt lat="40.4333980" lon="-3.7565310">
        <ele>657.5</ele>
        <time>2019-05-04T06:17:09Z</time>
      </trkpt>
      <trkpt lat="40.4334070" lon="-3.7565990">
        <ele>657.7</ele>
        <time>2019-05-04T06:17:10Z</time>
      </trkpt>
      <trkpt lat="40.4334160" lon="-3.7566660">
        <ele>657.9</ele>
        <time>2019-05-04T06:17:11Z</time>
      </trkpt>
      <trkpt lat="40.4334230" lon="-3.7567310">
        <ele>658.0</ele>
        <time>2019-05-04T06:17:12Z</time>
      </trkpt>
      <trkpt lat="40.4334290" lon="-3.7567950">
        <ele>658.2</ele>
        <time>2019-05-04T06:17:13Z</time>
      </trkpt>
      <trkpt lat="40.4334380" lon="-3.7568570">
        <ele>658.4</ele>
        <time>2019-05-04T06:17:14Z</time>
      </trkpt>
      <trkpt lat="40.4334450" lon="-3.7569190">
        <ele>658.6</ele>
        <time>2019-05-04T06:17:15Z</time>
      </trkpt>
      <trkpt lat="40.4334510" lon="-3.7569820">
        <ele>658.8</ele>
        <time>2019-05-04T06:17:16Z</time>
      </trkpt>
      <trkpt lat="40.4334550" lon="-3.7570450">
        <ele>659.0</ele>
        <time>2019-05-04T06:17:17Z</time>
      </trkpt>
      <trkpt lat="40.4334600" lon="-3.7571070">
        <ele>659.2</ele>
        <time>2019-05-04T06:17:18Z</time>
      </trkpt>
      <trkpt lat="40.4334630" lon="-3.7571680">
        <ele>659.4</ele>
        <time>2019-05-04T06:17:19Z</time>
      </trkpt>
      <trkpt lat="40.4334650" lon="-3.7572290">
        <ele>659.6</ele>
        <time>2019-05-04T06:17:20Z</time>
      </trkpt>
      <trkpt lat="40.4334680" lon="-3.7572880">
        <ele>659.7</ele>
        <time>2019-05-04T06:17:21Z</time>
      </trkpt>
      <trkpt lat="40.4334710" lon="-3.7573480">
        <ele>659.9</ele>
        <time>2019-05-04T06:17:22Z</time>
      </trkpt>
      <trkpt lat="40.4334750" lon="-3.7574080">
        <ele>660.1</ele>
        <time>2019-05-04T06:17:23Z</time>
      </trkpt>
      <trkpt lat="40.4334810" lon="-3.7574690">
        <ele>660.2</ele>
        <time>2019-05-04T06:17:24Z</time>
      </trkpt>
      <trkpt lat="40.4334870" lon="-3.7575300">
        <ele>660.4</ele>
        <time>2019-05-04T06:17:25Z</time>
      </trkpt>
      <trkpt lat="40.4334930" lon="-3.7575890">
        <ele>660.6</ele>
        <time>2019-05-04T06:17:26Z</time>
      </trkpt>
      <trkpt lat="40.4334970" lon="-3.7576480">
        <ele>660.8</ele>
        <time>2019-05-04T06:17:27Z</time>
      </trkpt>
      <trkpt lat="40.4335010" lon="-3.7577080">
        <ele>661.0</ele>
        <time>2019-05-04T06:17:28Z</time>
      </trkpt>
      <trkpt lat="40.4335040" lon="-3.7577690">
        <ele>661.1</ele>
        <time>2019-05-04T06:17:29Z</time>
      </trkpt>
      <trkpt lat="40.4335060" lon="-3.7578330">
        <ele>661.3</ele>
        <time>2019-05-04T06:17:30Z</time>
      </trkpt>
      <trkpt lat="40.4335060" lon="-3.7578970">
        <ele>661.5</ele>
        <time>2019-05-04T06:17:31Z</time>
      </trkpt>
      <trkpt lat="40.4335040" lon="-3.7579610">
        <ele>661.7</ele>
        <time>2019-05-04T06:17:32Z</time>
      </trkpt>
      <trkpt lat="40.4335020" lon="-3.7580210">
        <ele>661.9</ele>
        <time>2019-05-04T06:17:33Z</time>
      </trkpt>
      <trkpt lat="40.4335000" lon="-3.7580810">
        <ele>662.0</ele>
        <time>2019-05-04T06:17:34Z</time>
      </trkpt>
      <trkpt lat="40.4334990" lon="-3.7581400">
        <ele>662.2</ele>
        <time>2019-05-04T06:17:35Z</time>
      </trkpt>
      <trkpt lat="40.4334990" lon="-3.7581990">
        <ele>662.4</ele>
        <time>2019-05-04T06:17:36Z</time>
      </trkpt>
      <trkpt lat="40.4334990" lon="-3.7582560">
        <ele>662.5</ele>
        <time>2019-05-04T06:17:37Z</time>
      </trkpt>
      <trkpt lat="40.4335000" lon="-3.7583140">
        <ele>662.7</ele>
        <time>2019-05-04T06:17:38Z</time>
      </trkpt>
      <trkpt lat="40.4334990" lon="-3.7583740">
        <ele>662.8</ele>
        <time>2019-05-04T06:17:39Z</time>
      </trkpt>
      <trkpt lat="40.4334970" lon="-3.7584350">
        <ele>663.0</ele>
        <time>2019-05-04T06:17:40Z</time>
      </trkpt>
      <trkpt lat="40.4334950" lon="-3.7584950">
        <ele>663.2</ele>
        <time>2019-05-04T06:17:41Z</time>
      </trkpt>
      <trkpt lat="40.4334930" lon="-3.7585550">
        <ele>663.4</ele>
        <time>2019-05-04T06:17:42Z</time>
      </trkpt>
      <trkpt lat="40.4334890" lon="-3.7586170">
        <ele>663.6</ele>
        <time>2019-05-04T06:17:43Z</time>
      </trkpt>
      <trkpt lat="40.4334850" lon="-3.7586780">
        <ele>663.8</ele>
        <time>2019-05-04T06:17:44Z</time>
      </trkpt>
      <trkpt lat="40.4334820" lon="-3.7587370">
        <ele>663.9</ele>
        <time>2019-05-04T06:17:45Z</time>
      </trkpt>
      <trkpt lat="40.4334790" lon="-3.7587950">
        <ele>664.1</ele>
        <time>2019-05-04T06:17:46Z</time>
      </trkpt>
      <trkpt lat="40.4334730" lon="-3.7588540">
        <ele>664.3</ele>
        <time>2019-05-04T06:17:47Z</time>
      </trkpt>
      <trkpt lat="40.4334610" lon="-3.7589200">
        <ele>664.5</ele>
        <time>2019-05-04T06:17:48Z</time>
      </trkpt>
      <trkpt lat="40.4334440" lon="-3.7589900">
        <ele>664.7</ele>
        <time>2019-05-04T06:17:49Z</time>
      </trkpt>
      <trkpt lat="40.4334260" lon="-3.7590610">
        <ele>665.0</ele>
        <time>2019-05-04T06:17:50Z</time>
      </trkpt>
      <trkpt lat="40.4334130" lon="-3.7591310">
        <ele>665.2</ele>
        <time>2019-05-04T06:17:51Z</time>
      </trkpt>
      <trkpt lat="40.4334030" lon="-3.7591970">
        <ele>665.4</ele>
        <time>2019-05-04T06:17:52Z</time>
      </trkpt>
      <trkpt lat="40.4333950" lon="-3.7592620">
        <ele>665.6</ele>
        <time>2019-05-04T06:17:53Z</time>
      </trkpt>
      <trkpt lat="40.4333820" lon="-3.7593280">
        <ele>665.9</ele>
        <time>2019-05-04T06:17:54Z</time>
      </trkpt>
      <trkpt lat="40.4333660" lon="-3.7594000">
        <ele>666.0</ele>
        <time>2019-05-04T06:17:55Z</time>
      </trkpt>
      <trkpt lat="40.4333480" lon="-3.7594740">
        <ele>666.0</ele>
        <time>2019-05-04T06:17:56Z</time>
      </trkpt>
      <trkpt lat="40.4333310" lon="-3.7595450">
        <ele>665.9</ele>
        <time>2019-05-04T06:17:57Z</time>
      </trkpt>
      <trkpt lat="40.4333160" lon="-3.7596100">
        <ele>665.9</ele>
        <time>2019-05-04T06:17:58Z</time>
      </trkpt>
      <trkpt lat="40.4332990" lon="-3.7596720">
        <ele>665.8</ele>
        <time>2019-05-04T06:17:59Z</time>
      </trkpt>
      <trkpt lat="40.4332800" lon="-3.7597300">
        <ele>665.7</ele>
        <time>2019-05-04T06:18:00Z</time>
      </trkpt>
      <trkpt lat="40.4332530" lon="-3.7597810">
        <ele>665.7</ele>
        <time>2019-05-04T06:18:01Z</time>
      </trkpt>
      <trkpt lat="40.4332210" lon="-3.7598250">
        <ele>665.6</ele>
        <time>2019-05-04T06:18:02Z</time>
      </trkpt>
      <trkpt lat="40.4331780" lon="-3.7598660">
        <ele>665.7</ele>
        <time>2019-05-04T06:18:03Z</time>
      </trkpt>
      <trkpt lat="40.4331220" lon="-3.7599010">
        <ele>665.7</ele>
        <time>2019-05-04T06:18:04Z</time>
      </trkpt>
      <trkpt lat="40.4330620" lon="-3.7599350">
        <ele>665.8</ele>
        <time>2019-05-04T06:18:05Z</time>
      </trkpt>
      <trkpt lat="40.4330010" lon="-3.7599630">
        <ele>665.9</ele>
        <time>2019-05-04T06:18:06Z</time>
      </trkpt>
      <trkpt lat="40.4329520" lon="-3.7599910">
        <ele>666.3</ele>
        <time>2019-05-04T06:18:07Z</time>
      </trkpt>
      <trkpt lat="40.4329040" lon="-3.7600160">
        <ele>666.8</ele>
        <time>2019-05-04T06:18:08Z</time>
      </trkpt>
      <trkpt lat="40.4328580" lon="-3.7600410">
        <ele>667.2</ele>
        <time>2019-05-04T06:18:09Z</time>
      </trkpt>
      <trkpt lat="40.4328080" lon="-3.7600740">
        <ele>667.6</ele>
        <time>2019-05-04T06:18:10Z</time>
      </trkpt>
      <trkpt lat="40.4327550" lon="-3.7601070">
        <ele>667.9</ele>
        <time>2019-05-04T06:18:11Z</time>
      </trkpt>
      <trkpt lat="40.4326990" lon="-3.7601380">
        <ele>668.2</ele>
        <time>2019-05-04T06:18:12Z</time>
      </trkpt>
      <trkpt lat="40.4326460" lon="-3.7601590">
        <ele>668.3</ele>
        <time>2019-05-04T06:18:13Z</time>
      </trkpt>
      <trkpt lat="40.4325920" lon="-3.7601790">
        <ele>668.4</ele>
        <time>2019-05-04T06:18:14Z</time>
      </trkpt>
      <trkpt lat="40.4325370" lon="-3.7601980">
        <ele>668.5</ele>
        <time>2019-05-04T06:18:15Z</time>
      </trkpt>
      <trkpt lat="40.4324810" lon="-3.7602160">
        <ele>668.5</ele>
        <time>2019-05-04T06:18:16Z</time>
      </trkpt>
      <trkpt lat="40.4324200" lon="-3.7602350">
        <ele>668.5</ele>
        <time>2019-05-04T06:18:17Z</time>
      </trkpt>
      <trkpt lat="40.4323570" lon="-3.7602530">
        <ele>668.5</ele>
        <time>2019-05-04T06:18:18Z</time>
      </trkpt>
      <trkpt lat="40.4322920" lon="-3.7602700">
        <ele>668.5</ele>
        <time>2019-05-04T06:18:19Z</time>
      </trkpt>
      <trkpt lat="40.4322260" lon="-3.7602870">
        <ele>668.5</ele>
        <time>2019-05-04T06:18:20Z</time>
      </trkpt>
      <trkpt lat="40.4321580" lon="-3.7603030">
        <ele>668.5</ele>
        <time>2019-05-04T06:18:21Z</time>
      </trkpt>
      <trkpt lat="40.4320880" lon="-3.7603190">
        <ele>668.5</ele>
        <time>2019-05-04T06:18:22Z</time>
      </trkpt>
      <trkpt lat="40.4320190" lon="-3.7603330">
        <ele>668.5</ele>
        <time>2019-05-04T06:18:23Z</time>
      </trkpt>
      <trkpt lat="40.4319540" lon="-3.7603440">
        <ele>668.5</ele>
        <time>2019-05-04T06:18:24Z</time>
      </trkpt>
      <trkpt lat="40.4318900" lon="-3.7603530">
        <ele>668.5</ele>
        <time>2019-05-04T06:18:25Z</time>
      </trkpt>
      <trkpt lat="40.4318260" lon="-3.7603590">
        <ele>668.6</ele>
        <time>2019-05-04T06:18:26Z</time>
      </trkpt>
      <trkpt lat="40.4317620" lon="-3.7603570">
        <ele>668.7</ele>
        <time>2019-05-04T06:18:27Z</time>
      </trkpt>
      <trkpt lat="40.4316990" lon="-3.7603450">
        <ele>668.6</ele>
        <time>2019-05-04T06:18:28Z</time>
      </trkpt>
      <trkpt lat="40.4316390" lon="-3.7603230">
        <ele>668.3</ele>
        <time>2019-05-04T06:18:29Z</time>
      </trkpt>
      <trkpt lat="40.4315850" lon="-3.7602890">
        <ele>668.1</ele>
        <time>2019-05-04T06:18:30Z</time>
      </trkpt>
      <trkpt lat="40.4315330" lon="-3.7602440">
        <ele>667.9</ele>
        <time>2019-05-04T06:18:31Z</time>
      </trkpt>
      <trkpt lat="40.4314850" lon="-3.7601910">
        <ele>667.8</ele>
        <time>2019-05-04T06:18:32Z</time>
      </trkpt>
      <trkpt lat="40.4314370" lon="-3.7601340">
        <ele>667.7</ele>
        <time>2019-05-04T06:18:33Z</time>
      </trkpt>
      <trkpt lat="40.4313900" lon="-3.7600720">
        <ele>667.6</ele>
        <time>2019-05-04T06:18:34Z</time>
      </trkpt>
      <trkpt lat="40.4313420" lon="-3.7600060">
        <ele>667.5</ele>
        <time>2019-05-04T06:18:35Z</time>
      </trkpt>
      <trkpt lat="40.4312940" lon="-3.7599390">
        <ele>667.3</ele>
        <time>2019-05-04T06:18:36Z</time>
      </trkpt>
      <trkpt lat="40.4312470" lon="-3.7598730">
        <ele>667.1</ele>
        <time>2019-05-04T06:18:37Z</time>
      </trkpt>
      <trkpt lat="40.4312010" lon="-3.7598070">
        <ele>667.0</ele>
        <time>2019-05-04T06:18:38Z</time>
      </trkpt>
      <trkpt lat="40.4311540" lon="-3.7597420">
        <ele>666.9</ele>
        <time>2019-05-04T06:18:39Z</time>
      </trkpt>
      <trkpt lat="40.4311080" lon="-3.7596780">
        <ele>666.8</ele>
        <time>2019-05-04T06:18:40Z</time>
      </trkpt>
      <trkpt lat="40.4310620" lon="-3.7596130">
        <ele>666.8</ele>
        <time>2019-05-04T06:18:41Z</time>
      </trkpt>
      <trkpt lat="40.4310160" lon="-3.7595470">
        <ele>666.8</ele>
        <time>2019-05-04T06:18:42Z</time>
      </trkpt>
      <trkpt lat="40.4309710" lon="-3.7594800">
        <ele>666.8</ele>
        <time>2019-05-04T06:18:43Z</time>
      </trkpt>
      <trkpt lat="40.4309260" lon="-3.7594130">
        <ele>666.7</ele>
        <time>2019-05-04T06:18:44Z</time>
      </trkpt>
      <trkpt lat="40.4308820" lon="-3.7593480">
        <ele>666.4</ele>
        <time>2019-05-04T06:18:45Z</time>
      </trkpt>
      <trkpt lat="40.4308390" lon="-3.7592830">
        <ele>666.2</ele>
        <time>2019-05-04T06:18:46Z</time>
      </trkpt>
      <trkpt lat="40.4307930" lon="-3.7592170">
        <ele>666.0</ele>
        <time>2019-05-04T06:18:47Z</time>
      </trkpt>
      <trkpt lat="40.4307470" lon="-3.7591490">
        <ele>665.7</ele>
        <time>2019-05-04T06:18:48Z</time>
      </trkpt>
      <trkpt lat="40.4307000" lon="-3.7590780">
        <ele>665.5</ele>
        <time>2019-05-04T06:18:49Z</time>
      </trkpt>
      <trkpt lat="40.4306530" lon="-3.7590060">
        <ele>665.4</ele>
        <time>2019-05-04T06:18:50Z</time>
      </trkpt>
      <trkpt lat="40.4306060" lon="-3.7589350">
        <ele>665.4</ele>
        <time>2019-05-04T06:18:51Z</time>
      </trkpt>
      <trkpt lat="40.4305570" lon="-3.7588660">
        <ele>665.4</ele>
        <time>2019-05-04T06:18:52Z</time>
      </trkpt>
      <trkpt lat="40.4305040" lon="-3.7588010">
        <ele>665.4</ele>
        <time>2019-05-04T06:18:53Z</time>
      </trkpt>
      <trkpt lat="40.4304420" lon="-3.7587390">
        <ele>665.4</ele>
        <time>2019-05-04T06:18:54Z</time>
      </trkpt>
      <trkpt lat="40.4303770" lon="-3.7586840">
        <ele>665.4</ele>
        <time>2019-05-04T06:18:55Z</time>
      </trkpt>
      <trkpt lat="40.4303100" lon="-3.7586350">
        <ele>665.4</ele>
        <time>2019-05-04T06:18:56Z</time>
      </trkpt>
      <trkpt lat="40.4302420" lon="-3.7585920">
        <ele>665.4</ele>
        <time>2019-05-04T06:18:57Z</time>
      </trkpt>
      <trkpt lat="40.4301720" lon="-3.7585520">
        <ele>665.3</ele>
        <time>2019-05-04T06:18:58Z</time>
      </trkpt>
      <trkpt lat="40.4300980" lon="-3.7585130">
        <ele>665.3</ele>
        <time>2019-05-04T06:18:59Z</time>
      </trkpt>
      <trkpt lat="40.4300170" lon="-3.7584750">
        <ele>665.2</ele>
        <time>2019-05-04T06:19:00Z</time>
      </trkpt>
      <trkpt lat="40.4299260" lon="-3.7584380">
        <ele>665.0</ele>
        <time>2019-05-04T06:19:01Z</time>
      </trkpt>
      <trkpt lat="40.4298300" lon="-3.7584040">
        <ele>664.5</ele>
        <time>2019-05-04T06:19:02Z</time>
      </trkpt>
      <trkpt lat="40.4297360" lon="-3.7583720">
        <ele>663.8</ele>
        <time>2019-05-04T06:19:03Z</time>
      </trkpt>
      <trkpt lat="40.4296430" lon="-3.7583440">
        <ele>662.9</ele>
        <time>2019-05-04T06:19:04Z</time>
      </trkpt>
      <trkpt lat="40.4295460" lon="-3.7583150">
        <ele>662.2</ele>
        <time>2019-05-04T06:19:05Z</time>
      </trkpt>
      <trkpt lat="40.4294460" lon="-3.7582850">
        <ele>661.6</ele>
        <time>2019-05-04T06:19:06Z</time>
      </trkpt>
      <trkpt lat="40.4293480" lon="-3.7582520">
        <ele>661.2</ele>
        <time>2019-05-04T06:19:07Z</time>
      </trkpt>
      <trkpt lat="40.4292520" lon="-3.7582130">
        <ele>660.4</ele>
        <time>2019-05-04T06:19:08Z</time>
      </trkpt>
      <trkpt lat="40.4291590" lon="-3.7581650">
        <ele>659.8</ele>
        <time>2019-05-04T06:19:09Z</time>
      </trkpt>
      <trkpt lat="40.4290670" lon="-3.7581100">
        <ele>659.2</ele>
        <time>2019-05-04T06:19:10Z</time>
      </trkpt>
      <trkpt lat="40.4289750" lon="-3.7580530">
        <ele>658.7</ele>
        <time>2019-05-04T06:19:11Z</time>
      </trkpt>
      <trkpt lat="40.4288800" lon="-3.7579920">
        <ele>658.3</ele>
        <time>2019-05-04T06:19:12Z</time>
      </trkpt>
      <trkpt lat="40.4287810" lon="-3.7579240">
        <ele>658.0</ele>
        <time>2019-05-04T06:19:13Z</time>
      </trkpt>
      <trkpt lat="40.4286810" lon="-3.7578500">
        <ele>657.7</ele>
        <time>2019-05-04T06:19:14Z</time>
      </trkpt>
      <trkpt lat="40.4285810" lon="-3.7577720">
        <ele>657.4</ele>
        <time>2019-05-04T06:19:15Z</time>
      </trkpt>
      <trkpt lat="40.4284810" lon="-3.7576960">
        <ele>657.0</ele>
        <time>2019-05-04T06:19:16Z</time>
      </trkpt>
      <trkpt lat="40.4283810" lon="-3.7576250">
        <ele>656.4</ele>
        <time>2019-05-04T06:19:17Z</time>
      </trkpt>
      <trkpt lat="40.4282800" lon="-3.7575600">
        <ele>655.5</ele>
        <time>2019-05-04T06:19:18Z</time>
      </trkpt>
      <trkpt lat="40.4281780" lon="-3.7575050">
        <ele>654.4</ele>
        <time>2019-05-04T06:19:19Z</time>
      </trkpt>
      <trkpt lat="40.4280710" lon="-3.7574690">
        <ele>653.5</ele>
        <time>2019-05-04T06:19:20Z</time>
      </trkpt>
      <trkpt lat="40.4279630" lon="-3.7574520">
        <ele>652.6</ele>
        <time>2019-05-04T06:19:21Z</time>
      </trkpt>
      <trkpt lat="40.4278550" lon="-3.7574580">
        <ele>651.2</ele>
        <time>2019-05-04T06:19:22Z</time>
      </trkpt>
      <trkpt lat="40.4277500" lon="-3.7574860">
        <ele>649.3</ele>
        <time>2019-05-04T06:19:23Z</time>
      </trkpt>
      <trkpt lat="40.4276490" lon="-3.7575280">
        <ele>647.4</ele>
        <time>2019-05-04T06:19:24Z</time>
      </trkpt>
      <trkpt lat="40.4275510" lon="-3.7575750">
        <ele>647.3</ele>
        <time>2019-05-04T06:19:25Z</time>
      </trkpt>
      <trkpt lat="40.4274580" lon="-3.7576160">
        <ele>647.3</ele>
        <time>2019-05-04T06:19:26Z</time>
      </trkpt>
      <trkpt lat="40.4273660" lon="-3.7576560">
        <ele>647.2</ele>
        <time>2019-05-04T06:19:27Z</time>
      </trkpt>
      <trkpt lat="40.4272760" lon="-3.7576930">
        <ele>647.4</ele>
        <time>2019-05-04T06:19:28Z</time>
      </trkpt>
      <trkpt lat="40.4271880" lon="-3.7577260">
        <ele>647.1</ele>
        <time>2019-05-04T06:19:29Z</time>
      </trkpt>
      <trkpt lat="40.4271050" lon="-3.7577540">
        <ele>646.5</ele>
        <time>2019-05-04T06:19:30Z</time>
      </trkpt>
      <trkpt lat="40.4270260" lon="-3.7577800">
        <ele>646.2</ele>
        <time>2019-05-04T06:19:31Z</time>
      </trkpt>
      <trkpt lat="40.4269530" lon="-3.7578050">
        <ele>645.9</ele>
        <time>2019-05-04T06:19:32Z</time>
      </trkpt>
      <trkpt lat="40.4268840" lon="-3.7578300">
        <ele>645.6</ele>
        <time>2019-05-04T06:19:33Z</time>
      </trkpt>
      <trkpt lat="40.4268190" lon="-3.7578530">
        <ele>645.4</ele>
        <time>2019-05-04T06:19:34Z</time>
      </trkpt>
      <trkpt lat="40.4267580" lon="-3.7578740">
        <ele>645.3</ele>
        <time>2019-05-04T06:19:35Z</time>
      </trkpt>
      <trkpt lat="40.4267010" lon="-3.7578930">
        <ele>645.2</ele>
        <time>2019-05-04T06:19:36Z</time>
      </trkpt>
      <trkpt lat="40.4266450" lon="-3.7579110">
        <ele>645.2</ele>
        <time>2019-05-04T06:19:37Z</time>
      </trkpt>
      <trkpt lat="40.4265900" lon="-3.7579290">
        <ele>645.2</ele>
        <time>2019-05-04T06:19:38Z</time>
      </trkpt>
      <trkpt lat="40.4265340" lon="-3.7579450">
        <ele>645.3</ele>
        <time>2019-05-04T06:19:39Z</time>
      </trkpt>
      <trkpt lat="40.4264780" lon="-3.7579600">
        <ele>645.4</ele>
        <time>2019-05-04T06:19:40Z</time>
      </trkpt>
      <trkpt lat="40.4264200" lon="-3.7579760">
        <ele>645.6</ele>
        <time>2019-05-04T06:19:41Z</time>
      </trkpt>
      <trkpt lat="40.4263640" lon="-3.7579930">
        <ele>645.9</ele>
        <time>2019-05-04T06:19:42Z</time>
      </trkpt>
      <trkpt lat="40.4263080" lon="-3.7580070">
        <ele>646.3</ele>
        <time>2019-05-04T06:19:43Z</time>
      </trkpt>
      <trkpt lat="40.4262520" lon="-3.7580150">
        <ele>646.6</ele>
        <time>2019-05-04T06:19:44Z</time>
      </trkpt>
      <trkpt lat="40.4261950" lon="-3.7580210">
        <ele>647.0</ele>
        <time>2019-05-04T06:19:45Z</time>
      </trkpt>
      <trkpt lat="40.4261370" lon="-3.7580250">
        <ele>647.7</ele>
        <time>2019-05-04T06:19:46Z</time>
      </trkpt>
      <trkpt lat="40.4260750" lon="-3.7580300">
        <ele>648.3</ele>
        <time>2019-05-04T06:19:47Z</time>
      </trkpt>
      <trkpt lat="40.4260120" lon="-3.7580380">
        <ele>649.0</ele>
        <time>2019-05-04T06:19:48Z</time>
      </trkpt>
      <trkpt lat="40.4259480" lon="-3.7580480">
        <ele>649.5</ele>
        <time>2019-05-04T06:19:49Z</time>
      </trkpt>
      <trkpt lat="40.4258830" lon="-3.7580590">
        <ele>649.9</ele>
        <time>2019-05-04T06:19:50Z</time>
      </trkpt>
      <trkpt lat="40.4258180" lon="-3.7580700">
        <ele>650.2</ele>
        <time>2019-05-04T06:19:51Z</time>
      </trkpt>
      <trkpt lat="40.4257520" lon="-3.7580790">
        <ele>650.6</ele>
        <time>2019-05-04T06:19:52Z</time>
      </trkpt>
      <trkpt lat="40.4256870" lon="-3.7580860">
        <ele>650.9</ele>
        <time>2019-05-04T06:19:53Z</time>
      </trkpt>
      <trkpt lat="40.4256220" lon="-3.7580950">
        <ele>651.2</ele>
        <time>2019-05-04T06:19:54Z</time>
      </trkpt>
      <trkpt lat="40.4255570" lon="-3.7581050">
        <ele>651.5</ele>
        <time>2019-05-04T06:19:55Z</time>
      </trkpt>
      <trkpt lat="40.4254910" lon="-3.7581160">
        <ele>651.8</ele>
        <time>2019-05-04T06:19:56Z</time>
      </trkpt>
      <trkpt lat="40.4254260" lon="-3.7581280">
        <ele>652.0</ele>
        <time>2019-05-04T06:19:57Z</time>
      </trkpt>
      <trkpt lat="40.4253580" lon="-3.7581390">
        <ele>652.3</ele>
        <time>2019-05-04T06:19:58Z</time>
      </trkpt>
      <trkpt lat="40.4252900" lon="-3.7581530">
        <ele>652.5</ele>
        <time>2019-05-04T06:19:59Z</time>
      </trkpt>
      <trkpt lat="40.4252220" lon="-3.7581680">
        <ele>652.8</ele>
        <time>2019-05-04T06:20:00Z</time>
      </trkpt>
      <trkpt lat="40.4251560" lon="-3.7581860">
        <ele>653.1</ele>
        <time>2019-05-04T06:20:01Z</time>
      </trkpt>
      <trkpt lat="40.4250900" lon="-3.7582060">
        <ele>653.3</ele>
        <time>2019-05-04T06:20:02Z</time>
      </trkpt>
      <trkpt lat="40.4250260" lon="-3.7582280">
        <ele>653.4</ele>
        <time>2019-05-04T06:20:03Z</time>
      </trkpt>
      <trkpt lat="40.4249630" lon="-3.7582520">
        <ele>653.6</ele>
        <time>2019-05-04T06:20:04Z</time>
      </trkpt>
      <trkpt lat="40.4248990" lon="-3.7582820">
        <ele>653.8</ele>
        <time>2019-05-04T06:20:05Z</time>
      </trkpt>
      <trkpt lat="40.4248350" lon="-3.7583120">
        <ele>653.9</ele>
        <time>2019-05-04T06:20:06Z</time>
      </trkpt>
      <trkpt lat="40.4247720" lon="-3.7583430">
        <ele>654.1</ele>
        <time>2019-05-04T06:20:07Z</time>
      </trkpt>
      <trkpt lat="40.4247100" lon="-3.7583710">
        <ele>654.3</ele>
        <time>2019-05-04T06:20:08Z</time>
      </trkpt>
      <trkpt lat="40.4246480" lon="-3.7583950">
        <ele>654.5</ele>
        <time>2019-05-04T06:20:09Z</time>
      </trkpt>
      <trkpt lat="40.4245850" lon="-3.7584160">
        <ele>654.7</ele>
        <time>2019-05-04T06:20:10Z</time>
      </trkpt>
      <trkpt lat="40.4245220" lon="-3.7584320">
        <ele>654.9</ele>
        <time>2019-05-04T06:20:11Z</time>
      </trkpt>
      <trkpt lat="40.4244580" lon="-3.7584470">
        <ele>655.1</ele>
        <time>2019-05-04T06:20:12Z</time>
      </trkpt>
      <trkpt lat="40.4243930" lon="-3.7584620">
        <ele>655.4</ele>
        <time>2019-05-04T06:20:13Z</time>
      </trkpt>
      <trkpt lat="40.4243280" lon="-3.7584780">
        <ele>655.6</ele>
        <time>2019-05-04T06:20:14Z</time>
      </trkpt>
      <trkpt lat="40.4242610" lon="-3.7584930">
        <ele>655.9</ele>
        <time>2019-05-04T06:20:15Z</time>
      </trkpt>
      <trkpt lat="40.4241940" lon="-3.7585070">
        <ele>656.1</ele>
        <time>2019-05-04T06:20:16Z</time>
      </trkpt>
      <trkpt lat="40.4241260" lon="-3.7585210">
        <ele>656.4</ele>
        <time>2019-05-04T06:20:17Z</time>
      </trkpt>
      <trkpt lat="40.4240590" lon="-3.7585330">
        <ele>656.6</ele>
        <time>2019-05-04T06:20:18Z</time>
      </trkpt>
      <trkpt lat="40.4239930" lon="-3.7585440">
        <ele>657.1</ele>
        <time>2019-05-04T06:20:19Z</time>
      </trkpt>
      <trkpt lat="40.4239280" lon="-3.7585530">
        <ele>657.8</ele>
        <time>2019-05-04T06:20:20Z</time>
      </trkpt>
      <trkpt lat="40.4238630" lon="-3.7585610">
        <ele>658.1</ele>
        <time>2019-05-04T06:20:21Z</time>
      </trkpt>
      <trkpt lat="40.4237980" lon="-3.7585700">
        <ele>658.5</ele>
        <time>2019-05-04T06:20:22Z</time>
      </trkpt>
      <trkpt lat="40.4237350" lon="-3.7585790">
        <ele>658.8</ele>
        <time>2019-05-04T06:20:23Z</time>
      </trkpt>
      <trkpt lat="40.4236730" lon="-3.7585870">
        <ele>659.1</ele>
        <time>2019-05-04T06:20:24Z</time>
      </trkpt>
      <trkpt lat="40.4236150" lon="-3.7585940">
        <ele>659.3</ele>
        <time>2019-05-04T06:20:25Z</time>
      </trkpt>
      <trkpt lat="40.4235610" lon="-3.7586010">
        <ele>659.5</ele>
        <time>2019-05-04T06:20:26Z</time>
      </trkpt>
      <trkpt lat="40.4235110" lon="-3.7586060">
        <ele>659.7</ele>
        <time>2019-05-04T06:20:27Z</time>
      </trkpt>
      <trkpt lat="40.4234630" lon="-3.7586080">
        <ele>660.0</ele>
        <time>2019-05-04T06:20:28Z</time>
      </trkpt>
      <trkpt lat="40.4234170" lon="-3.7586070">
        <ele>660.1</ele>
        <time>2019-05-04T06:20:29Z</time>
      </trkpt>
      <trkpt lat="40.4233690" lon="-3.7586060">
        <ele>660.1</ele>
        <time>2019-05-04T06:20:30Z</time>
      </trkpt>
      <trkpt lat="40.4233220" lon="-3.7586060">
        <ele>660.2</ele>
        <time>2019-05-04T06:20:31Z</time>
      </trkpt>
      <trkpt lat="40.4232740" lon="-3.7586090">
        <ele>660.2</ele>
        <time>2019-05-04T06:20:32Z</time>
      </trkpt>
      <trkpt lat="40.4232250" lon="-3.7586100">
        <ele>660.2</ele>
        <time>2019-05-04T06:20:33Z</time>
      </trkpt>
      <trkpt lat="40.4231750" lon="-3.7586120">
        <ele>660.3</ele>
        <time>2019-05-04T06:20:34Z</time>
      </trkpt>
      <trkpt lat="40.4231240" lon="-3.7586130">
        <ele>660.2</ele>
        <time>2019-05-04T06:20:35Z</time>
      </trkpt>
      <trkpt lat="40.4230690" lon="-3.7586150">
        <ele>660.1</ele>
        <time>2019-05-04T06:20:36Z</time>
      </trkpt>
      <trkpt lat="40.4230100" lon="-3.7586130">
        <ele>660.0</ele>
        <time>2019-05-04T06:20:37Z</time>
      </trkpt>
      <trkpt lat="40.4229440" lon="-3.7586070">
        <ele>659.8</ele>
        <time>2019-05-04T06:20:38Z</time>
      </trkpt>
      <trkpt lat="40.4228770" lon="-3.7586010">
        <ele>659.6</ele>
        <time>2019-05-04T06:20:39Z</time>
      </trkpt>
      <trkpt lat="40.4228070" lon="-3.7585950">
        <ele>659.4</ele>
        <time>2019-05-04T06:20:40Z</time>
      </trkpt>
      <trkpt lat="40.4227340" lon="-3.7585890">
        <ele>659.1</ele>
        <time>2019-05-04T06:20:41Z</time>
      </trkpt>
      <trkpt lat="40.4226600" lon="-3.7585820">
        <ele>658.8</ele>
        <time>2019-05-04T06:20:42Z</time>
      </trkpt>
      <trkpt lat="40.4225840" lon="-3.7585720">
        <ele>658.6</ele>
        <time>2019-05-04T06:20:43Z</time>
      </trkpt>
      <trkpt lat="40.4225050" lon="-3.7585610">
        <ele>658.2</ele>
        <time>2019-05-04T06:20:44Z</time>
      </trkpt>
      <trkpt lat="40.4224240" lon="-3.7585510">
        <ele>657.9</ele>
        <time>2019-05-04T06:20:45Z</time>
      </trkpt>
      <trkpt lat="40.4223410" lon="-3.7585450">
        <ele>657.6</ele>
        <time>2019-05-04T06:20:46Z</time>
      </trkpt>
      <trkpt lat="40.4222570" lon="-3.7585420">
        <ele>657.2</ele>
        <time>2019-05-04T06:20:47Z</time>
      </trkpt>
      <trkpt lat="40.4221720" lon="-3.7585410">
        <ele>656.9</ele>
        <time>2019-05-04T06:20:48Z</time>
      </trkpt>
      <trkpt lat="40.4220860" lon="-3.7585400">
        <ele>656.6</ele>
        <time>2019-05-04T06:20:49Z</time>
      </trkpt>
      <trkpt lat="40.4220000" lon="-3.7585370">
        <ele>656.2</ele>
        <time>2019-05-04T06:20:50Z</time>
      </trkpt>
      <trkpt lat="40.4219130" lon="-3.7585340">
        <ele>655.9</ele>
        <time>2019-05-04T06:20:51Z</time>
      </trkpt>
      <trkpt lat="40.4218250" lon="-3.7585290">
        <ele>655.5</ele>
        <time>2019-05-04T06:20:52Z</time>
      </trkpt>
      <trkpt lat="40.4217350" lon="-3.7585240">
        <ele>655.1</ele>
        <time>2019-05-04T06:20:53Z</time>
      </trkpt>
      <trkpt lat="40.4216450" lon="-3.7585160">
        <ele>654.7</ele>
        <time>2019-05-04T06:20:54Z</time>
      </trkpt>
      <trkpt lat="40.4215540" lon="-3.7585130">
        <ele>654.2</ele>
        <time>2019-05-04T06:20:55Z</time>
      </trkpt>
      <trkpt lat="40.4214610" lon="-3.7585110">
        <ele>653.7</ele>
        <time>2019-05-04T06:20:56Z</time>
      </trkpt>
      <trkpt lat="40.4213690" lon="-3.7585130">
        <ele>653.2</ele>
        <time>2019-05-04T06:20:57Z</time>
      </trkpt>
      <trkpt lat="40.4212750" lon="-3.7585160">
        <ele>652.6</ele>
        <time>2019-05-04T06:20:58Z</time>
      </trkpt>
      <trkpt lat="40.4211820" lon="-3.7585260">
        <ele>652.1</ele>
        <time>2019-05-04T06:20:59Z</time>
      </trkpt>
      <trkpt lat="40.4210900" lon="-3.7585430">
        <ele>651.5</ele>
        <time>2019-05-04T06:21:00Z</time>
      </trkpt>
      <trkpt lat="40.4210030" lon="-3.7585660">
        <ele>651.0</ele>
        <time>2019-05-04T06:21:01Z</time>
      </trkpt>
      <trkpt lat="40.4209200" lon="-3.7585980">
        <ele>650.4</ele>
        <time>2019-05-04T06:21:02Z</time>
      </trkpt>
      <trkpt lat="40.4208350" lon="-3.7586380">
        <ele>649.8</ele>
        <time>2019-05-04T06:21:03Z</time>
      </trkpt>
      <trkpt lat="40.4207450" lon="-3.7586790">
        <ele>649.1</ele>
        <time>2019-05-04T06:21:04Z</time>
      </trkpt>
      <trkpt lat="40.4206490" lon="-3.7587120">
        <ele>648.5</ele>
        <time>2019-05-04T06:21:05Z</time>
      </trkpt>
      <trkpt lat="40.4205480" lon="-3.7587280">
        <ele>647.9</ele>
        <time>2019-05-04T06:21:06Z</time>
      </trkpt>
      <trkpt lat="40.4204450" lon="-3.7587300">
        <ele>647.2</ele>
        <time>2019-05-04T06:21:07Z</time>
      </trkpt>
      <trkpt lat="40.4203410" lon="-3.7587220">
        <ele>646.6</ele>
        <time>2019-05-04T06:21:08Z</time>
      </trkpt>
      <trkpt lat="40.4202350" lon="-3.7587080">
        <ele>645.9</ele>
        <time>2019-05-04T06:21:09Z</time>
      </trkpt>
      <trkpt lat="40.4201280" lon="-3.7586900">
        <ele>645.2</ele>
        <time>2019-05-04T06:21:10Z</time>
      </trkpt>
      <trkpt lat="40.4200210" lon="-3.7586700">
        <ele>644.4</ele>
        <time>2019-05-04T06:21:11Z</time>
      </trkpt>
      <trkpt lat="40.4199140" lon="-3.7586510">
        <ele>643.6</ele>
        <time>2019-05-04T06:21:12Z</time>
      </trkpt>
      <trkpt lat="40.4198100" lon="-3.7586300">
        <ele>642.8</ele>
        <time>2019-05-04T06:21:13Z</time>
      </trkpt>
      <trkpt lat="40.4197090" lon="-3.7586060">
        <ele>642.0</ele>
        <time>2019-05-04T06:21:14Z</time>
      </trkpt>
      <trkpt lat="40.4196100" lon="-3.7585750">
        <ele>641.3</ele>
        <time>2019-05-04T06:21:15Z</time>
      </trkpt>
      <trkpt lat="40.4195150" lon="-3.7585370">
        <ele>640.5</ele>
        <time>2019-05-04T06:21:16Z</time>
      </trkpt>
      <trkpt lat="40.4194220" lon="-3.7584900">
        <ele>639.7</ele>
        <time>2019-05-04T06:21:17Z</time>
      </trkpt>
      <trkpt lat="40.4193310" lon="-3.7584410">
        <ele>638.8</ele>
        <time>2019-05-04T06:21:18Z</time>
      </trkpt>
      <trkpt lat="40.4192400" lon="-3.7584020">
        <ele>637.9</ele>
        <time>2019-05-04T06:21:19Z</time>
      </trkpt>
      <trkpt lat="40.4191490" lon="-3.7583810">
        <ele>637.1</ele>
        <time>2019-05-04T06:21:20Z</time>
      </trkpt>
      <trkpt lat="40.4190570" lon="-3.7583740">
        <ele>636.1</ele>
        <time>2019-05-04T06:21:21Z</time>
      </trkpt>
      <trkpt lat="40.4189640" lon="-3.7583780">
        <ele>635.2</ele>
        <time>2019-05-04T06:21:22Z</time>
      </trkpt>
      <trkpt lat="40.4188690" lon="-3.7583850">
        <ele>634.2</ele>
        <time>2019-05-04T06:21:23Z</time>
      </trkpt>
      <trkpt lat="40.4187720" lon="-3.7583950">
        <ele>634.0</ele>
        <time>2019-05-04T06:21:24Z</time>
      </trkpt>
      <trkpt lat="40.4186750" lon="-3.7584000">
        <ele>634.0</ele>
        <time>2019-05-04T06:21:25Z</time>
      </trkpt>
      <trkpt lat="40.4185790" lon="-3.7583900">
        <ele>634.2</ele>
        <time>2019-05-04T06:21:26Z</time>
      </trkpt>
      <trkpt lat="40.4184880" lon="-3.7583560">
        <ele>634.2</ele>
        <time>2019-05-04T06:21:27Z</time>
      </trkpt>
      <trkpt lat="40.4184070" lon="-3.7582980">
        <ele>634.3</ele>
        <time>2019-05-04T06:21:28Z</time>
      </trkpt>
      <trkpt lat="40.4183480" lon="-3.7582090">
        <ele>634.0</ele>
        <time>2019-05-04T06:21:29Z</time>
      </trkpt>
      <trkpt lat="40.4182990" lon="-3.7581090">
        <ele>633.6</ele>
        <time>2019-05-04T06:21:30Z</time>
      </trkpt>
      <trkpt lat="40.4182590" lon="-3.7579990">
        <ele>633.3</ele>
        <time>2019-05-04T06:21:31Z</time>
      </trkpt>
      <trkpt lat="40.4182200" lon="-3.7578990">
        <ele>633.1</ele>
        <time>2019-05-04T06:21:32Z</time>
      </trkpt>
      <trkpt lat="40.4181890" lon="-3.7577980">
        <ele>633.0</ele>
        <time>2019-05-04T06:21:33Z</time>
      </trkpt>
      <trkpt lat="40.4181640" lon="-3.7576970">
        <ele>633.0</ele>
        <time>2019-05-04T06:21:34Z</time>
      </trkpt>
      <trkpt lat="40.4181350" lon="-3.7575980">
        <ele>633.1</ele>
        <time>2019-05-04T06:21:35Z</time>
      </trkpt>
      <trkpt lat="40.4181060" lon="-3.7575000">
        <ele>633.1</ele>
        <time>2019-05-04T06:21:36Z</time>
      </trkpt>
      <trkpt lat="40.4180770" lon="-3.7574040">
        <ele>633.2</ele>
        <time>2019-05-04T06:21:37Z</time>
      </trkpt>
      <trkpt lat="40.4180470" lon="-3.7573100">
        <ele>633.2</ele>
        <time>2019-05-04T06:21:38Z</time>
      </trkpt>
      <trkpt lat="40.4180200" lon="-3.7572150">
        <ele>633.2</ele>
        <time>2019-05-04T06:21:39Z</time>
      </trkpt>
      <trkpt lat="40.4179950" lon="-3.7571180">
        <ele>633.1</ele>
        <time>2019-05-04T06:21:40Z</time>
      </trkpt>
      <trkpt lat="40.4179700" lon="-3.7570170">
        <ele>633.1</ele>
        <time>2019-05-04T06:21:41Z</time>
      </trkpt>
      <trkpt lat="40.4179440" lon="-3.7569160">
        <ele>632.9</ele>
        <time>2019-05-04T06:21:42Z</time>
      </trkpt>
      <trkpt lat="40.4179150" lon="-3.7568160">
        <ele>632.8</ele>
        <time>2019-05-04T06:21:43Z</time>
      </trkpt>
      <trkpt lat="40.4178820" lon="-3.7567180">
        <ele>632.6</ele>
        <time>2019-05-04T06:21:44Z</time>
      </trkpt>
      <trkpt lat="40.4178430" lon="-3.7566170">
        <ele>632.5</ele>
        <time>2019-05-04T06:21:45Z</time>
      </trkpt>
      <trkpt lat="40.4177980" lon="-3.7565150">
        <ele>632.3</ele>
        <time>2019-05-04T06:21:46Z</time>
      </trkpt>
      <trkpt lat="40.4177500" lon="-3.7564120">
        <ele>632.1</ele>
        <time>2019-05-04T06:21:47Z</time>
      </trkpt>
      <trkpt lat="40.4177010" lon="-3.7563130">
        <ele>631.9</ele>
        <time>2019-05-04T06:21:48Z</time>
      </trkpt>
      <trkpt lat="40.4176480" lon="-3.7562190">
        <ele>631.6</ele>
        <time>2019-05-04T06:21:49Z</time>
      </trkpt>
      <trkpt lat="40.4175930" lon="-3.7561320">
        <ele>631.3</ele>
        <time>2019-05-04T06:21:50Z</time>
      </trkpt>
      <trkpt lat="40.4175350" lon="-3.7560490">
        <ele>631.0</ele>
        <time>2019-05-04T06:21:51Z</time>
      </trkpt>
      <trkpt lat="40.4174770" lon="-3.7559690">
        <ele>630.8</ele>
        <time>2019-05-04T06:21:52Z</time>
      </trkpt>
      <trkpt lat="40.4174150" lon="-3.7558900">
        <ele>630.6</ele>
        <time>2019-05-04T06:21:53Z</time>
      </trkpt>
      <trkpt lat="40.4173530" lon="-3.7558130">
        <ele>630.5</ele>
        <time>2019-05-04T06:21:54Z</time>
      </trkpt>
      <trkpt lat="40.4172920" lon="-3.7557370">
        <ele>630.4</ele>
        <time>2019-05-04T06:21:55Z</time>
      </trkpt>
      <trkpt lat="40.4172330" lon="-3.7556630">
        <ele>630.4</ele>
        <time>2019-05-04T06:21:56Z</time>
      </trkpt>
      <trkpt lat="40.4171760" lon="-3.7555880">
        <ele>630.4</ele>
        <time>2019-05-04T06:21:57Z</time>
      </trkpt>
      <trkpt lat="40.4171210" lon="-3.7555090">
        <ele>630.4</ele>
        <time>2019-05-04T06:21:58Z</time>
      </trkpt>
      <trkpt lat="40.4170700" lon="-3.7554250">
        <ele>630.3</ele>
        <time>2019-05-04T06:21:59Z</time>
      </trkpt>
      <trkpt lat="40.4170180" lon="-3.7553370">
        <ele>630.1</ele>
        <time>2019-05-04T06:22:00Z</time>
      </trkpt>
      <trkpt lat="40.4169680" lon="-3.7552460">
        <ele>629.9</ele>
        <time>2019-05-04T06:22:01Z</time>
      </trkpt>
      <trkpt lat="40.4169200" lon="-3.7551530">
        <ele>629.5</ele>
        <time>2019-05-04T06:22:02Z</time>
      </trkpt>
      <trkpt lat="40.4168760" lon="-3.7550620">
        <ele>629.1</ele>
        <time>2019-05-04T06:22:03Z</time>
      </trkpt>
      <trkpt lat="40.4168330" lon="-3.7549720">
        <ele>628.7</ele>
        <time>2019-05-04T06:22:04Z</time>
      </trkpt>
      <trkpt lat="40.4167920" lon="-3.7548820">
        <ele>628.1</ele>
        <time>2019-05-04T06:22:05Z</time>
      </trkpt>
      <trkpt lat="40.4167520" lon="-3.7547940">
        <ele>627.5</ele>
        <time>2019-05-04T06:22:06Z</time>
      </trkpt>
      <trkpt lat="40.4167150" lon="-3.7547060">
        <ele>626.7</ele>
        <time>2019-05-04T06:22:07Z</time>
      </trkpt>
      <trkpt lat="40.4166780" lon="-3.7546200">
        <ele>626.6</ele>
        <time>2019-05-04T06:22:08Z</time>
      </trkpt>
      <trkpt lat="40.4166420" lon="-3.7545340">
        <ele>626.5</ele>
        <time>2019-05-04T06:22:09Z</time>
      </trkpt>
      <trkpt lat="40.4166010" lon="-3.7544460">
        <ele>626.4</ele>
        <time>2019-05-04T06:22:10Z</time>
      </trkpt>
      <trkpt lat="40.4165560" lon="-3.7543580">
        <ele>626.3</ele>
        <time>2019-05-04T06:22:11Z</time>
      </trkpt>
      <trkpt lat="40.4165110" lon="-3.7542720">
        <ele>626.2</ele>
        <time>2019-05-04T06:22:12Z</time>
      </trkpt>
      <trkpt lat="40.4164700" lon="-3.7541880">
        <ele>626.2</ele>
        <time>2019-05-04T06:22:13Z</time>
      </trkpt>
      <trkpt lat="40.4164300" lon="-3.7541050">
        <ele>626.1</ele>
        <time>2019-05-04T06:22:14Z</time>
      </trkpt>
      <trkpt lat="40.4163880" lon="-3.7540200">
        <ele>626.0</ele>
        <time>2019-05-04T06:22:15Z</time>
      </trkpt>
      <trkpt lat="40.4163420" lon="-3.7539350">
        <ele>625.9</ele>
        <time>2019-05-04T06:22:16Z</time>
      </trkpt>
      <trkpt lat="40.4162930" lon="-3.7538510">
        <ele>625.8</ele>
        <time>2019-05-04T06:22:17Z</time>
      </trkpt>
      <trkpt lat="40.4162440" lon="-3.7537690">
        <ele>625.7</ele>
        <time>2019-05-04T06:22:18Z</time>
      </trkpt>
      <trkpt lat="40.4162000" lon="-3.7536900">
        <ele>625.6</ele>
        <time>2019-05-04T06:22:19Z</time>
      </trkpt>
      <trkpt lat="40.4161580" lon="-3.7536150">
        <ele>625.5</ele>
        <time>2019-05-04T06:22:20Z</time>
      </trkpt>
      <trkpt lat="40.4161140" lon="-3.7535470">
        <ele>625.3</ele>
        <time>2019-05-04T06:22:21Z</time>
      </trkpt>
      <trkpt lat="40.4160680" lon="-3.7534860">
        <ele>625.2</ele>
        <time>2019-05-04T06:22:22Z</time>
      </trkpt>
      <trkpt lat="40.4160200" lon="-3.7534320">
        <ele>625.1</ele>
        <time>2019-05-04T06:22:23Z</time>
      </trkpt>
      <trkpt lat="40.4159690" lon="-3.7533890">
        <ele>625.1</ele>
        <time>2019-05-04T06:22:24Z</time>
      </trkpt>
      <trkpt lat="40.4159010" lon="-3.7533590">
        <ele>625.0</ele>
        <time>2019-05-04T06:22:25Z</time>
      </trkpt>
      <trkpt lat="40.4158230" lon="-3.7533430">
        <ele>624.9</ele>
        <time>2019-05-04T06:22:26Z</time>
      </trkpt>
      <trkpt lat="40.4157380" lon="-3.7533390">
        <ele>624.6</ele>
        <time>2019-05-04T06:22:27Z</time>
      </trkpt>
      <trkpt lat="40.4156600" lon="-3.7533490">
        <ele>624.5</ele>
        <time>2019-05-04T06:22:28Z</time>
      </trkpt>
      <trkpt lat="40.4155930" lon="-3.7533800">
        <ele>624.3</ele>
        <time>2019-05-04T06:22:29Z</time>
      </trkpt>
      <trkpt lat="40.4155380" lon="-3.7534290">
        <ele>624.3</ele>
        <time>2019-05-04T06:22:30Z</time>
      </trkpt>
      <trkpt lat="40.4154910" lon="-3.7534890">
        <ele>624.3</ele>
        <time>2019-05-04T06:22:31Z</time>
      </trkpt>
      <trkpt lat="40.4154460" lon="-3.7535490">
        <ele>624.4</ele>
        <time>2019-05-04T06:22:32Z</time>
      </trkpt>
      <trkpt lat="40.4154010" lon="-3.7536060">
        <ele>624.5</ele>
        <time>2019-05-04T06:22:33Z</time>
      </trkpt>
      <trkpt lat="40.4153600" lon="-3.7536650">
        <ele>624.6</ele>
        <time>2019-05-04T06:22:34Z</time>
      </trkpt>
      <trkpt lat="40.4153190" lon="-3.7537280">
        <ele>624.7</ele>
        <time>2019-05-04T06:22:35Z</time>
      </trkpt>
      <trkpt lat="40.4152770" lon="-3.7537950">
        <ele>624.8</ele>
        <time>2019-05-04T06:22:36Z</time>
      </trkpt>
      <trkpt lat="40.4152350" lon="-3.7538640">
        <ele>624.9</ele>
        <time>2019-05-04T06:22:37Z</time>
      </trkpt>
      <trkpt lat="40.4151940" lon="-3.7539320">
        <ele>625.0</ele>
        <time>2019-05-04T06:22:38Z</time>
      </trkpt>
      <trkpt lat="40.4151550" lon="-3.7540020">
        <ele>625.1</ele>
        <time>2019-05-04T06:22:39Z</time>
      </trkpt>
      <trkpt lat="40.4151160" lon="-3.7540740">
        <ele>625.2</ele>
        <time>2019-05-04T06:22:40Z</time>
      </trkpt>
      <trkpt lat="40.4150780" lon="-3.7541500">
        <ele>625.3</ele>
        <time>2019-05-04T06:22:41Z</time>
      </trkpt>
      <trkpt lat="40.4150400" lon="-3.7542270">
        <ele>625.4</ele>
        <time>2019-05-04T06:22:42Z</time>
      </trkpt>
      <trkpt lat="40.4150010" lon="-3.7543100">
        <ele>625.4</ele>
        <time>2019-05-04T06:22:43Z</time>
      </trkpt>
      <trkpt lat="40.4149620" lon="-3.7543930">
        <ele>625.5</ele>
        <time>2019-05-04T06:22:44Z</time>
      </trkpt>
      <trkpt lat="40.4149230" lon="-3.7544780">
        <ele>625.6</ele>
        <time>2019-05-04T06:22:45Z</time>
      </trkpt>
      <trkpt lat="40.4148840" lon="-3.7545590">
        <ele>625.6</ele>
        <time>2019-05-04T06:22:46Z</time>
      </trkpt>
      <trkpt lat="40.4148440" lon="-3.7546390">
        <ele>625.6</ele>
        <time>2019-05-04T06:22:47Z</time>
      </trkpt>
      <trkpt lat="40.4148020" lon="-3.7547170">
        <ele>625.7</ele>
        <time>2019-05-04T06:22:48Z</time>
      </trkpt>
      <trkpt lat="40.4147590" lon="-3.7547950">
        <ele>625.7</ele>
        <time>2019-05-04T06:22:49Z</time>
      </trkpt>
      <trkpt lat="40.4147150" lon="-3.7548740">
        <ele>625.7</ele>
        <time>2019-05-04T06:22:50Z</time>
      </trkpt>
      <trkpt lat="40.4146710" lon="-3.7549520">
        <ele>625.8</ele>
        <time>2019-05-04T06:22:51Z</time>
      </trkpt>
      <trkpt lat="40.4146250" lon="-3.7550300">
        <ele>625.8</ele>
        <time>2019-05-04T06:22:52Z</time>
      </trkpt>
      <trkpt lat="40.4145760" lon="-3.7551080">
        <ele>625.8</ele>
        <time>2019-05-04T06:22:53Z</time>
      </trkpt>
      <trkpt lat="40.4145240" lon="-3.7551880">
        <ele>625.9</ele>
        <time>2019-05-04T06:22:54Z</time>
      </trkpt>
      <trkpt lat="40.4144710" lon="-3.7552680">
        <ele>625.9</ele>
        <time>2019-05-04T06:22:55Z</time>
      </trkpt>
      <trkpt lat="40.4144180" lon="-3.7553470">
        <ele>626.0</ele>
        <time>2019-05-04T06:22:56Z</time>
      </trkpt>
      <trkpt lat="40.4143640" lon="-3.7554230">
        <ele>626.0</ele>
        <time>2019-05-04T06:22:57Z</time>
      </trkpt>
      <trkpt lat="40.4143120" lon="-3.7554970">
        <ele>626.0</ele>
        <time>2019-05-04T06:22:58Z</time>
      </trkpt>
      <trkpt lat="40.4142590" lon="-3.7555700">
        <ele>626.0</ele>
        <time>2019-05-04T06:22:59Z</time>
      </trkpt>
      <trkpt lat="40.4142070" lon="-3.7556420">
        <ele>626.1</ele>
        <time>2019-05-04T06:23:00Z</time>
      </trkpt>
      <trkpt lat="40.4141560" lon="-3.7557150">
        <ele>626.1</ele>
        <time>2019-05-04T06:23:01Z</time>
      </trkpt>
      <trkpt lat="40.4141070" lon="-3.7557900">
        <ele>626.1</ele>
        <time>2019-05-04T06:23:02Z</time>
      </trkpt>
      <trkpt lat="40.4140590" lon="-3.7558660">
        <ele>626.1</ele>
        <time>2019-05-04T06:23:03Z</time>
      </trkpt>
      <trkpt lat="40.4140130" lon="-3.7559440">
        <ele>626.1</ele>
        <time>2019-05-04T06:23:04Z</time>
      </trkpt>
      <trkpt lat="40.4139690" lon="-3.7560230">
        <ele>626.2</ele>
        <time>2019-05-04T06:23:05Z</time>
      </trkpt>
      <trkpt lat="40.4139280" lon="-3.7561040">
        <ele>626.3</ele>
        <time>2019-05-04T06:23:06Z</time>
      </trkpt>
      <trkpt lat="40.4138880" lon="-3.7561870">
        <ele>626.4</ele>
        <time>2019-05-04T06:23:07Z</time>
      </trkpt>
      <trkpt lat="40.4138480" lon="-3.7562680">
        <ele>626.8</ele>
        <time>2019-05-04T06:23:08Z</time>
      </trkpt>
      <trkpt lat="40.4138100" lon="-3.7563480">
        <ele>627.0</ele>
        <time>2019-05-04T06:23:09Z</time>
      </trkpt>
      <trkpt lat="40.4137720" lon="-3.7564270">
        <ele>627.2</ele>
        <time>2019-05-04T06:23:10Z</time>
      </trkpt>
      <trkpt lat="40.4137370" lon="-3.7565060">
        <ele>627.3</ele>
        <time>2019-05-04T06:23:11Z</time>
      </trkpt>
      <trkpt lat="40.4137050" lon="-3.7565850">
        <ele>627.5</ele>
        <time>2019-05-04T06:23:12Z</time>
      </trkpt>
      <trkpt lat="40.4136750" lon="-3.7566640">
        <ele>627.7</ele>
        <time>2019-05-04T06:23:13Z</time>
      </trkpt>
      <trkpt lat="40.4136470" lon="-3.7567460">
        <ele>627.9</ele>
        <time>2019-05-04T06:23:14Z</time>
      </trkpt>
      <trkpt lat="40.4136210" lon="-3.7568280">
        <ele>627.9</ele>
        <time>2019-05-04T06:23:15Z</time>
      </trkpt>
      <trkpt lat="40.4135960" lon="-3.7569100">
        <ele>627.9</ele>
        <time>2019-05-04T06:23:16Z</time>
      </trkpt>
      <trkpt lat="40.4135710" lon="-3.7569900">
        <ele>627.9</ele>
        <time>2019-05-04T06:23:17Z</time>
      </trkpt>
      <trkpt lat="40.4135480" lon="-3.7570710">
        <ele>628.0</ele>
        <time>2019-05-04T06:23:18Z</time>
      </trkpt>
      <trkpt lat="40.4135260" lon="-3.7571520">
        <ele>628.1</ele>
        <time>2019-05-04T06:23:19Z</time>
      </trkpt>
      <trkpt lat="40.4135050" lon="-3.7572340">
        <ele>628.3</ele>
        <time>2019-05-04T06:23:20Z</time>
      </trkpt>
      <trkpt lat="40.4134870" lon="-3.7573150">
        <ele>628.4</ele>
        <time>2019-05-04T06:23:21Z</time>
      </trkpt>
      <trkpt lat="40.4134690" lon="-3.7573970">
        <ele>628.6</ele>
        <time>2019-05-04T06:23:22Z</time>
      </trkpt>
      <trkpt lat="40.4134530" lon="-3.7574790">
        <ele>628.7</ele>
        <time>2019-05-04T06:23:23Z</time>
      </trkpt>
      <trkpt lat="40.4134430" lon="-3.7575650">
        <ele>628.8</ele>
        <time>2019-05-04T06:23:24Z</time>
      </trkpt>
      <trkpt lat="40.4134370" lon="-3.7576530">
        <ele>628.8</ele>
        <time>2019-05-04T06:23:25Z</time>
      </trkpt>
      <trkpt lat="40.4134320" lon="-3.7577430">
        <ele>628.9</ele>
        <time>2019-05-04T06:23:26Z</time>
      </trkpt>
      <trkpt lat="40.4134240" lon="-3.7578310">
        <ele>628.9</ele>
        <time>2019-05-04T06:23:27Z</time>
      </trkpt>
      <trkpt lat="40.4134180" lon="-3.7579180">
        <ele>629.0</ele>
        <time>2019-05-04T06:23:28Z</time>
      </trkpt>
      <trkpt lat="40.4134130" lon="-3.7580040">
        <ele>629.0</ele>
        <time>2019-05-04T06:23:29Z</time>
      </trkpt>
      <trkpt lat="40.4134050" lon="-3.7580880">
        <ele>629.1</ele>
        <time>2019-05-04T06:23:30Z</time>
      </trkpt>
      <trkpt lat="40.4133960" lon="-3.7581710">
        <ele>629.2</ele>
        <time>2019-05-04T06:23:31Z</time>
      </trkpt>
      <trkpt lat="40.4133870" lon="-3.7582520">
        <ele>629.2</ele>
        <time>2019-05-04T06:23:32Z</time>
      </trkpt>
      <trkpt lat="40.4133810" lon="-3.7583320">
        <ele>629.3</ele>
        <time>2019-05-04T06:23:33Z</time>
      </trkpt>
      <trkpt lat="40.4133770" lon="-3.7584100">
        <ele>629.4</ele>
        <time>2019-05-04T06:23:34Z</time>
      </trkpt>
      <trkpt lat="40.4133710" lon="-3.7584910">
        <ele>629.6</ele>
        <time>2019-05-04T06:23:35Z</time>
      </trkpt>
      <trkpt lat="40.4133650" lon="-3.7585720">
        <ele>629.7</ele>
        <time>2019-05-04T06:23:36Z</time>
      </trkpt>
      <trkpt lat="40.4133580" lon="-3.7586550">
        <ele>629.9</ele>
        <time>2019-05-04T06:23:37Z</time>
      </trkpt>
      <trkpt lat="40.4133530" lon="-3.7587380">
        <ele>630.0</ele>
        <time>2019-05-04T06:23:38Z</time>
      </trkpt>
      <trkpt lat="40.4133560" lon="-3.7588270">
        <ele>630.2</ele>
        <time>2019-05-04T06:23:39Z</time>
      </trkpt>
      <trkpt lat="40.4133640" lon="-3.7589160">
        <ele>630.4</ele>
        <time>2019-05-04T06:23:40Z</time>
      </trkpt>
      <trkpt lat="40.4133750" lon="-3.7590120">
        <ele>630.6</ele>
        <time>2019-05-04T06:23:41Z</time>
      </trkpt>
      <trkpt lat="40.4133820" lon="-3.7591030">
        <ele>630.8</ele>
        <time>2019-05-04T06:23:42Z</time>
      </trkpt>
      <trkpt lat="40.4133860" lon="-3.7591970">
        <ele>631.1</ele>
        <time>2019-05-04T06:23:43Z</time>
      </trkpt>
      <trkpt lat="40.4133860" lon="-3.7592840">
        <ele>631.3</ele>
        <time>2019-05-04T06:23:44Z</time>
      </trkpt>
      <trkpt lat="40.4133870" lon="-3.7593720">
        <ele>631.5</ele>
        <time>2019-05-04T06:23:45Z</time>
      </trkpt>
      <trkpt lat="40.4133850" lon="-3.7594580">
        <ele>631.6</ele>
        <time>2019-05-04T06:23:46Z</time>
      </trkpt>
      <trkpt lat="40.4133840" lon="-3.7595440">
        <ele>631.7</ele>
        <time>2019-05-04T06:23:47Z</time>
      </trkpt>
      <trkpt lat="40.4133790" lon="-3.7596280">
        <ele>631.7</ele>
        <time>2019-05-04T06:23:48Z</time>
      </trkpt>
      <trkpt lat="40.4133760" lon="-3.7597130">
        <ele>631.7</ele>
        <time>2019-05-04T06:23:49Z</time>
      </trkpt>
      <trkpt lat="40.4133700" lon="-3.7597990">
        <ele>631.8</ele>
        <time>2019-05-04T06:23:50Z</time>
      </trkpt>
      <trkpt lat="40.4133650" lon="-3.7598860">
        <ele>631.8</ele>
        <time>2019-05-04T06:23:51Z</time>
      </trkpt>
      <trkpt lat="40.4133580" lon="-3.7599730">
        <ele>631.8</ele>
        <time>2019-05-04T06:23:52Z</time>
      </trkpt>
      <trkpt lat="40.4133490" lon="-3.7600590">
        <ele>631.8</ele>
        <time>2019-05-04T06:23:53Z</time>
      </trkpt>
      <trkpt lat="40.4133400" lon="-3.7601460">
        <ele>631.8</ele>
        <time>2019-05-04T06:23:54Z</time>
      </trkpt>
      <trkpt lat="40.4133300" lon="-3.7602330">
        <ele>631.8</ele>
        <time>2019-05-04T06:23:55Z</time>
      </trkpt>
      <trkpt lat="40.4133230" lon="-3.7603190">
        <ele>631.8</ele>
        <time>2019-05-04T06:23:56Z</time>
      </trkpt>
      <trkpt lat="40.4133160" lon="-3.7604060">
        <ele>631.8</ele>
        <time>2019-05-04T06:23:57Z</time>
      </trkpt>
      <trkpt lat="40.4133090" lon="-3.7604930">
        <ele>631.9</ele>
        <time>2019-05-04T06:23:58Z</time>
      </trkpt>
      <trkpt lat="40.4133020" lon="-3.7605820">
        <ele>632.0</ele>
        <time>2019-05-04T06:23:59Z</time>
      </trkpt>
      <trkpt lat="40.4132960" lon="-3.7606720">
        <ele>632.1</ele>
        <time>2019-05-04T06:24:00Z</time>
      </trkpt>
      <trkpt lat="40.4132900" lon="-3.7607620">
        <ele>632.2</ele>
        <time>2019-05-04T06:24:01Z</time>
      </trkpt>
      <trkpt lat="40.4132840" lon="-3.7608520">
        <ele>632.3</ele>
        <time>2019-05-04T06:24:02Z</time>
      </trkpt>
      <trkpt lat="40.4132790" lon="-3.7609400">
        <ele>632.4</ele>
        <time>2019-05-04T06:24:03Z</time>
      </trkpt>
      <trkpt lat="40.4132750" lon="-3.7610280">
        <ele>632.4</ele>
        <time>2019-05-04T06:24:04Z</time>
      </trkpt>
      <trkpt lat="40.4132720" lon="-3.7611140">
        <ele>632.4</ele>
        <time>2019-05-04T06:24:05Z</time>
      </trkpt>
      <trkpt lat="40.4132720" lon="-3.7612010">
        <ele>632.5</ele>
        <time>2019-05-04T06:24:06Z</time>
      </trkpt>
      <trkpt lat="40.4132710" lon="-3.7612870">
        <ele>632.7</ele>
        <time>2019-05-04T06:24:07Z</time>
      </trkpt>
      <trkpt lat="40.4132710" lon="-3.7613740">
        <ele>632.9</ele>
        <time>2019-05-04T06:24:08Z</time>
      </trkpt>
      <trkpt lat="40.4132680" lon="-3.7614630">
        <ele>633.1</ele>
        <time>2019-05-04T06:24:09Z</time>
      </trkpt>
      <trkpt lat="40.4132620" lon="-3.7615480">
        <ele>633.3</ele>
        <time>2019-05-04T06:24:10Z</time>
      </trkpt>
      <trkpt lat="40.4132600" lon="-3.7616290">
        <ele>633.5</ele>
        <time>2019-05-04T06:24:11Z</time>
      </trkpt>
      <trkpt lat="40.4132710" lon="-3.7617080">
        <ele>633.7</ele>
        <time>2019-05-04T06:24:12Z</time>
      </trkpt>
      <trkpt lat="40.4132890" lon="-3.7617870">
        <ele>633.8</ele>
        <time>2019-05-04T06:24:13Z</time>
      </trkpt>
      <trkpt lat="40.4133170" lon="-3.7618700">
        <ele>634.1</ele>
        <time>2019-05-04T06:24:14Z</time>
      </trkpt>
      <trkpt lat="40.4133450" lon="-3.7619490">
        <ele>634.3</ele>
        <time>2019-05-04T06:24:15Z</time>
      </trkpt>
      <trkpt lat="40.4133740" lon="-3.7620290">
        <ele>634.5</ele>
        <time>2019-05-04T06:24:16Z</time>
      </trkpt>
      <trkpt lat="40.4134010" lon="-3.7621050">
        <ele>634.6</ele>
        <time>2019-05-04T06:24:17Z</time>
      </trkpt>
      <trkpt lat="40.4134240" lon="-3.7621810">
        <ele>634.8</ele>
        <time>2019-05-04T06:24:18Z</time>
      </trkpt>
      <trkpt lat="40.4134490" lon="-3.7622560">
        <ele>635.0</ele>
        <time>2019-05-04T06:24:19Z</time>
      </trkpt>
      <trkpt lat="40.4134680" lon="-3.7623300">
        <ele>635.2</ele>
        <time>2019-05-04T06:24:20Z</time>
      </trkpt>
      <trkpt lat="40.4134830" lon="-3.7624050">
        <ele>635.3</ele>
        <time>2019-05-04T06:24:21Z</time>
      </trkpt>
      <trkpt lat="40.4134950" lon="-3.7624810">
        <ele>635.5</ele>
        <time>2019-05-04T06:24:22Z</time>
      </trkpt>
      <trkpt lat="40.4135040" lon="-3.7625580">
        <ele>635.6</ele>
        <time>2019-05-04T06:24:23Z</time>
      </trkpt>
      <trkpt lat="40.4135100" lon="-3.7626320">
        <ele>635.8</ele>
        <time>2019-05-04T06:24:24Z</time>
      </trkpt>
      <trkpt lat="40.4135150" lon="-3.7627030">
        <ele>636.0</ele>
        <time>2019-05-04T06:24:25Z</time>
      </trkpt>
      <trkpt lat="40.4135170" lon="-3.7627700">
        <ele>636.3</ele>
        <time>2019-05-04T06:24:26Z</time>
      </trkpt>
      <trkpt lat="40.4135180" lon="-3.7628360">
        <ele>636.5</ele>
        <time>2019-05-04T06:24:27Z</time>
      </trkpt>
      <trkpt lat="40.4135140" lon="-3.7629000">
        <ele>636.8</ele>
        <time>2019-05-04T06:24:28Z</time>
      </trkpt>
      <trkpt lat="40.4135090" lon="-3.7629620">
        <ele>637.0</ele>
        <time>2019-05-04T06:24:29Z</time>
      </trkpt>
      <trkpt lat="40.4135020" lon="-3.7630200">
        <ele>637.3</ele>
        <time>2019-05-04T06:24:30Z</time>
      </trkpt>
      <trkpt lat="40.4134940" lon="-3.7630750">
        <ele>637.5</ele>
        <time>2019-05-04T06:24:31Z</time>
      </trkpt>
      <trkpt lat="40.4134800" lon="-3.7631330">
        <ele>637.7</ele>
        <time>2019-05-04T06:24:32Z</time>
      </trkpt>
      <trkpt lat="40.4134640" lon="-3.7631940">
        <ele>638.0</ele>
        <time>2019-05-04T06:24:33Z</time>
      </trkpt>
      <trkpt lat="40.4134450" lon="-3.7632580">
        <ele>638.3</ele>
        <time>2019-05-04T06:24:34Z</time>
      </trkpt>
      <trkpt lat="40.4134270" lon="-3.7633200">
        <ele>638.5</ele>
        <time>2019-05-04T06:24:35Z</time>
      </trkpt>
      <trkpt lat="40.4134090" lon="-3.7633800">
        <ele>638.8</ele>
        <time>2019-05-04T06:24:36Z</time>
      </trkpt>
      <trkpt lat="40.4133930" lon="-3.7634390">
        <ele>639.0</ele>
        <time>2019-05-04T06:24:37Z</time>
      </trkpt>
      <trkpt lat="40.4133800" lon="-3.7635000">
        <ele>639.2</ele>
        <time>2019-05-04T06:24:38Z</time>
      </trkpt>
      <trkpt lat="40.4133700" lon="-3.7635600">
        <ele>639.4</ele>
        <time>2019-05-04T06:24:39Z</time>
      </trkpt>
      <trkpt lat="40.4133590" lon="-3.7636190">
        <ele>639.7</ele>
        <time>2019-05-04T06:24:40Z</time>
      </trkpt>
      <trkpt lat="40.4133470" lon="-3.7636780">
        <ele>639.9</ele>
        <time>2019-05-04T06:24:41Z</time>
      </trkpt>
      <trkpt lat="40.4133370" lon="-3.7637380">
        <ele>640.1</ele>
        <time>2019-05-04T06:24:42Z</time>
      </trkpt>
      <trkpt lat="40.4133280" lon="-3.7638010">
        <ele>640.3</ele>
        <time>2019-05-04T06:24:43Z</time>
      </trkpt>
      <trkpt lat="40.4133190" lon="-3.7638630">
        <ele>640.5</ele>
        <time>2019-05-04T06:24:44Z</time>
      </trkpt>
      <trkpt lat="40.4133070" lon="-3.7639280">
        <ele>640.8</ele>
        <time>2019-05-04T06:24:45Z</time>
      </trkpt>
      <trkpt lat="40.4132930" lon="-3.7639930">
        <ele>641.1</ele>
        <time>2019-05-04T06:24:46Z</time>
      </trkpt>
      <trkpt lat="40.4132790" lon="-3.7640570">
        <ele>641.5</ele>
        <time>2019-05-04T06:24:47Z</time>
      </trkpt>
      <trkpt lat="40.4132690" lon="-3.7641230">
        <ele>641.9</ele>
        <time>2019-05-04T06:24:48Z</time>
      </trkpt>
      <trkpt lat="40.4132590" lon="-3.7641860">
        <ele>642.4</ele>
        <time>2019-05-04T06:24:49Z</time>
      </trkpt>
      <trkpt lat="40.4132500" lon="-3.7642500">
        <ele>642.8</ele>
        <time>2019-05-04T06:24:50Z</time>
      </trkpt>
      <trkpt lat="40.4132380" lon="-3.7643130">
        <ele>643.3</ele>
        <time>2019-05-04T06:24:51Z</time>
      </trkpt>
      <trkpt lat="40.4132300" lon="-3.7643780">
        <ele>643.7</ele>
        <time>2019-05-04T06:24:52Z</time>
      </trkpt>
      <trkpt lat="40.4132200" lon="-3.7644440">
        <ele>644.1</ele>
        <time>2019-05-04T06:24:53Z</time>
      </trkpt>
      <trkpt lat="40.4132090" lon="-3.7645130">
        <ele>644.5</ele>
        <time>2019-05-04T06:24:54Z</time>
      </trkpt>
      <trkpt lat="40.4131960" lon="-3.7645800">
        <ele>644.8</ele>
        <time>2019-05-04T06:24:55Z</time>
      </trkpt>
      <trkpt lat="40.4131850" lon="-3.7646470">
        <ele>645.1</ele>
        <time>2019-05-04T06:24:56Z</time>
      </trkpt>
      <trkpt lat="40.4131770" lon="-3.7647130">
        <ele>645.3</ele>
        <time>2019-05-04T06:24:57Z</time>
      </trkpt>
      <trkpt lat="40.4131740" lon="-3.7647790">
        <ele>645.4</ele>
        <time>2019-05-04T06:24:58Z</time>
      </trkpt>
      <trkpt lat="40.4131730" lon="-3.7648450">
        <ele>645.5</ele>
        <time>2019-05-04T06:24:59Z</time>
      </trkpt>
      <trkpt lat="40.4131700" lon="-3.7649140">
        <ele>645.6</ele>
        <time>2019-05-04T06:25:00Z</time>
      </trkpt>
      <trkpt lat="40.4131680" lon="-3.7649850">
        <ele>645.7</ele>
        <time>2019-05-04T06:25:01Z</time>
      </trkpt>
      <trkpt lat="40.4131640" lon="-3.7650560">
        <ele>645.9</ele>
        <time>2019-05-04T06:25:02Z</time>
      </trkpt>
      <trkpt lat="40.4131610" lon="-3.7651250">
        <ele>646.1</ele>
        <time>2019-05-04T06:25:03Z</time>
      </trkpt>
      <trkpt lat="40.4131520" lon="-3.7651940">
        <ele>646.3</ele>
        <time>2019-05-04T06:25:04Z</time>
      </trkpt>
      <trkpt lat="40.4131420" lon="-3.7652620">
        <ele>646.5</ele>
        <time>2019-05-04T06:25:05Z</time>
      </trkpt>
      <trkpt lat="40.4131320" lon="-3.7653320">
        <ele>646.8</ele>
        <time>2019-05-04T06:25:06Z</time>
      </trkpt>
      <trkpt lat="40.4131230" lon="-3.7653980">
        <ele>647.0</ele>
        <time>2019-05-04T06:25:07Z</time>
      </trkpt>
      <trkpt lat="40.4131150" lon="-3.7654640">
        <ele>647.2</ele>
        <time>2019-05-04T06:25:08Z</time>
      </trkpt>
      <trkpt lat="40.4131050" lon="-3.7655310">
        <ele>647.4</ele>
        <time>2019-05-04T06:25:09Z</time>
      </trkpt>
      <trkpt lat="40.4130940" lon="-3.7656010">
        <ele>647.5</ele>
        <time>2019-05-04T06:25:10Z</time>
      </trkpt>
      <trkpt lat="40.4130820" lon="-3.7656710">
        <ele>647.6</ele>
        <time>2019-05-04T06:25:11Z</time>
      </trkpt>
      <trkpt lat="40.4130700" lon="-3.7657430">
        <ele>647.6</ele>
        <time>2019-05-04T06:25:12Z</time>
      </trkpt>
      <trkpt lat="40.4130580" lon="-3.7658140">
        <ele>647.6</ele>
        <time>2019-05-04T06:25:13Z</time>
      </trkpt>
      <trkpt lat="40.4130430" lon="-3.7658860">
        <ele>647.7</ele>
        <time>2019-05-04T06:25:14Z</time>
      </trkpt>
      <trkpt lat="40.4130260" lon="-3.7659570">
        <ele>647.9</ele>
        <time>2019-05-04T06:25:15Z</time>
      </trkpt>
      <trkpt lat="40.4130080" lon="-3.7660250">
        <ele>648.0</ele>
        <time>2019-05-04T06:25:16Z</time>
      </trkpt>
      <trkpt lat="40.4129890" lon="-3.7660880">
        <ele>648.2</ele>
        <time>2019-05-04T06:25:17Z</time>
      </trkpt>
      <trkpt lat="40.4129690" lon="-3.7661490">
        <ele>648.3</ele>
        <time>2019-05-04T06:25:18Z</time>
      </trkpt>
      <trkpt lat="40.4129500" lon="-3.7662100">
        <ele>648.2</ele>
        <time>2019-05-04T06:25:19Z</time>
      </trkpt>
      <trkpt lat="40.4129310" lon="-3.7662720">
        <ele>648.2</ele>
        <time>2019-05-04T06:25:20Z</time>
      </trkpt>
      <trkpt lat="40.4129110" lon="-3.7663330">
        <ele>648.1</ele>
        <time>2019-05-04T06:25:21Z</time>
      </trkpt>
      <trkpt lat="40.4128920" lon="-3.7663950">
        <ele>648.1</ele>
        <time>2019-05-04T06:25:22Z</time>
      </trkpt>
      <trkpt lat="40.4128670" lon="-3.7664560">
        <ele>648.1</ele>
        <time>2019-05-04T06:25:23Z</time>
      </trkpt>
      <trkpt lat="40.4128410" lon="-3.7665190">
        <ele>648.2</ele>
        <time>2019-05-04T06:25:24Z</time>
      </trkpt>
      <trkpt lat="40.4128110" lon="-3.7665850">
        <ele>648.3</ele>
        <time>2019-05-04T06:25:25Z</time>
      </trkpt>
      <trkpt lat="40.4127830" lon="-3.7666530">
        <ele>648.6</ele>
        <time>2019-05-04T06:25:26Z</time>
      </trkpt>
      <trkpt lat="40.4127570" lon="-3.7667200">
        <ele>648.8</ele>
        <time>2019-05-04T06:25:27Z</time>
      </trkpt>
      <trkpt lat="40.4127330" lon="-3.7667840">
        <ele>649.1</ele>
        <time>2019-05-04T06:25:28Z</time>
      </trkpt>
      <trkpt lat="40.4127100" lon="-3.7668420">
        <ele>649.3</ele>
        <time>2019-05-04T06:25:29Z</time>
      </trkpt>
      <trkpt lat="40.4126870" lon="-3.7668980">
        <ele>649.5</ele>
        <time>2019-05-04T06:25:30Z</time>
      </trkpt>
      <trkpt lat="40.4126650" lon="-3.7669530">
        <ele>649.8</ele>
        <time>2019-05-04T06:25:31Z</time>
      </trkpt>
      <trkpt lat="40.4126420" lon="-3.7670070">
        <ele>650.0</ele>
        <time>2019-05-04T06:25:32Z</time>
      </trkpt>
      <trkpt lat="40.4126180" lon="-3.7670610">
        <ele>650.2</ele>
        <time>2019-05-04T06:25:33Z</time>
      </trkpt>
      <trkpt lat="40.4125940" lon="-3.7671140">
        <ele>650.5</ele>
        <time>2019-05-04T06:25:34Z</time>
      </trkpt>
      <trkpt lat="40.4125700" lon="-3.7671680">
        <ele>650.7</ele>
        <time>2019-05-04T06:25:35Z</time>
      </trkpt>
      <trkpt lat="40.4125460" lon="-3.7672240">
        <ele>651.1</ele>
        <time>2019-05-04T06:25:36Z</time>
      </trkpt>
      <trkpt lat="40.4125210" lon="-3.7672840">
        <ele>651.4</ele>
        <time>2019-05-04T06:25:37Z</time>
      </trkpt>
      <trkpt lat="40.4124970" lon="-3.7673440">
        <ele>651.8</ele>
        <time>2019-05-04T06:25:38Z</time>
      </trkpt>
      <trkpt lat="40.4124740" lon="-3.7674030">
        <ele>652.1</ele>
        <time>2019-05-04T06:25:39Z</time>
      </trkpt>
      <trkpt lat="40.4124530" lon="-3.7674600">
        <ele>652.5</ele>
        <time>2019-05-04T06:25:40Z</time>
      </trkpt>
      <trkpt lat="40.4124310" lon="-3.7675230">
        <ele>653.0</ele>
        <time>2019-05-04T06:25:41Z</time>
      </trkpt>
      <trkpt lat="40.4124110" lon="-3.7675920">
        <ele>653.5</ele>
        <time>2019-05-04T06:25:42Z</time>
      </trkpt>
      <trkpt lat="40.4123930" lon="-3.7676590">
        <ele>654.0</ele>
        <time>2019-05-04T06:25:43Z</time>
      </trkpt>
      <trkpt lat="40.4123770" lon="-3.7677220">
        <ele>654.4</ele>
        <time>2019-05-04T06:25:44Z</time>
      </trkpt>
      <trkpt lat="40.4123620" lon="-3.7677810">
        <ele>654.8</ele>
        <time>2019-05-04T06:25:45Z</time>
      </trkpt>
      <trkpt lat="40.4123470" lon="-3.7678440">
        <ele>655.2</ele>
        <time>2019-05-04T06:25:46Z</time>
      </trkpt>
      <trkpt lat="40.4123350" lon="-3.7679090">
        <ele>655.5</ele>
        <time>2019-05-04T06:25:47Z</time>
      </trkpt>
      <trkpt lat="40.4123240" lon="-3.7679790">
        <ele>656.0</ele>
        <time>2019-05-04T06:25:48Z</time>
      </trkpt>
      <trkpt lat="40.4123150" lon="-3.7680510">
        <ele>656.4</ele>
        <time>2019-05-04T06:25:49Z</time>
      </trkpt>
      <trkpt lat="40.4123050" lon="-3.7681230">
        <ele>656.8</ele>
        <time>2019-05-04T06:25:50Z</time>
      </trkpt>
      <trkpt lat="40.4122940" lon="-3.7681940">
        <ele>657.2</ele>
        <time>2019-05-04T06:25:51Z</time>
      </trkpt>
      <trkpt lat="40.4122830" lon="-3.7682620">
        <ele>657.6</ele>
        <time>2019-05-04T06:25:52Z</time>
      </trkpt>
      <trkpt lat="40.4122760" lon="-3.7683280">
        <ele>657.9</ele>
        <time>2019-05-04T06:25:53Z</time>
      </trkpt>
      <trkpt lat="40.4122690" lon="-3.7683950">
        <ele>658.2</ele>
        <time>2019-05-04T06:25:54Z</time>
      </trkpt>
      <trkpt lat="40.4122620" lon="-3.7684640">
        <ele>658.5</ele>
        <time>2019-05-04T06:25:55Z</time>
      </trkpt>
      <trkpt lat="40.4122520" lon="-3.7685310">
        <ele>658.8</ele>
        <time>2019-05-04T06:25:56Z</time>
      </trkpt>
      <trkpt lat="40.4122430" lon="-3.7686020">
        <ele>659.2</ele>
        <time>2019-05-04T06:25:57Z</time>
      </trkpt>
      <trkpt lat="40.4122370" lon="-3.7686770">
        <ele>659.5</ele>
        <time>2019-05-04T06:25:58Z</time>
      </trkpt>
      <trkpt lat="40.4122330" lon="-3.7687550">
        <ele>659.9</ele>
        <time>2019-05-04T06:25:59Z</time>
      </trkpt>
      <trkpt lat="40.4122330" lon="-3.7688310">
        <ele>660.2</ele>
        <time>2019-05-04T06:26:00Z</time>
      </trkpt>
      <trkpt lat="40.4122310" lon="-3.7689050">
        <ele>660.5</ele>
        <time>2019-05-04T06:26:01Z</time>
      </trkpt>
      <trkpt lat="40.4122310" lon="-3.7689760">
        <ele>660.8</ele>
        <time>2019-05-04T06:26:02Z</time>
      </trkpt>
      <trkpt lat="40.4122290" lon="-3.7690460">
        <ele>661.2</ele>
        <time>2019-05-04T06:26:03Z</time>
      </trkpt>
      <trkpt lat="40.4122300" lon="-3.7691100">
        <ele>661.5</ele>
        <time>2019-05-04T06:26:04Z</time>
      </trkpt>
      <trkpt lat="40.4122300" lon="-3.7691700">
        <ele>661.7</ele>
        <time>2019-05-04T06:26:05Z</time>
      </trkpt>
      <trkpt lat="40.4122310" lon="-3.7692260">
        <ele>662.0</ele>
        <time>2019-05-04T06:26:06Z</time>
      </trkpt>
      <trkpt lat="40.4122270" lon="-3.7692800">
        <ele>662.1</ele>
        <time>2019-05-04T06:26:07Z</time>
      </trkpt>
      <trkpt lat="40.4122250" lon="-3.7693300">
        <ele>662.0</ele>
        <time>2019-05-04T06:26:08Z</time>
      </trkpt>
      <trkpt lat="40.4122220" lon="-3.7693820">
        <ele>661.9</ele>
        <time>2019-05-04T06:26:09Z</time>
      </trkpt>
      <trkpt lat="40.4122230" lon="-3.7694340">
        <ele>661.8</ele>
        <time>2019-05-04T06:26:10Z</time>
      </trkpt>
      <trkpt lat="40.4122230" lon="-3.7694910">
        <ele>661.7</ele>
        <time>2019-05-04T06:26:11Z</time>
      </trkpt>
      <trkpt lat="40.4122230" lon="-3.7695490">
        <ele>661.6</ele>
        <time>2019-05-04T06:26:12Z</time>
      </trkpt>
      <trkpt lat="40.4122240" lon="-3.7696080">
        <ele>661.5</ele>
        <time>2019-05-04T06:26:13Z</time>
      </trkpt>
      <trkpt lat="40.4122240" lon="-3.7696680">
        <ele>661.3</ele>
        <time>2019-05-04T06:26:14Z</time>
      </trkpt>
      <trkpt lat="40.4122250" lon="-3.7697300">
        <ele>661.2</ele>
        <time>2019-05-04T06:26:15Z</time>
      </trkpt>
      <trkpt lat="40.4122260" lon="-3.7697920">
        <ele>661.5</ele>
        <time>2019-05-04T06:26:16Z</time>
      </trkpt>
      <trkpt lat="40.4122310" lon="-3.7698530">
        <ele>661.8</ele>
        <time>2019-05-04T06:26:17Z</time>
      </trkpt>
      <trkpt lat="40.4122350" lon="-3.7699130">
        <ele>662.1</ele>
        <time>2019-05-04T06:26:18Z</time>
      </trkpt>
      <trkpt lat="40.4122390" lon="-3.7699750">
        <ele>662.4</ele>
        <time>2019-05-04T06:26:19Z</time>
      </trkpt>
      <trkpt lat="40.4122390" lon="-3.7700370">
        <ele>662.6</ele>
        <time>2019-05-04T06:26:20Z</time>
      </trkpt>
      <trkpt lat="40.4122410" lon="-3.7700980">
        <ele>662.7</ele>
        <time>2019-05-04T06:26:21Z</time>
      </trkpt>
      <trkpt lat="40.4122420" lon="-3.7701560">
        <ele>662.9</ele>
        <time>2019-05-04T06:26:22Z</time>
      </trkpt>
      <trkpt lat="40.4122450" lon="-3.7702180">
        <ele>663.0</ele>
        <time>2019-05-04T06:26:23Z</time>
      </trkpt>
      <trkpt lat="40.4122490" lon="-3.7702810">
        <ele>663.2</ele>
        <time>2019-05-04T06:26:24Z</time>
      </trkpt>
      <trkpt lat="40.4122520" lon="-3.7703440">
        <ele>663.4</ele>
        <time>2019-05-04T06:26:25Z</time>
      </trkpt>
      <trkpt lat="40.4122540" lon="-3.7704050">
        <ele>663.6</ele>
        <time>2019-05-04T06:26:26Z</time>
      </trkpt>
      <trkpt lat="40.4122530" lon="-3.7704670">
        <ele>663.9</ele>
        <time>2019-05-04T06:26:27Z</time>
      </trkpt>
      <trkpt lat="40.4122520" lon="-3.7705290">
        <ele>664.2</ele>
        <time>2019-05-04T06:26:28Z</time>
      </trkpt>
      <trkpt lat="40.4122530" lon="-3.7705910">
        <ele>664.4</ele>
        <time>2019-05-04T06:26:29Z</time>
      </trkpt>
      <trkpt lat="40.4122560" lon="-3.7706540">
        <ele>664.6</ele>
        <time>2019-05-04T06:26:30Z</time>
      </trkpt>
      <trkpt lat="40.4122610" lon="-3.7707210">
        <ele>664.9</ele>
        <time>2019-05-04T06:26:31Z</time>
      </trkpt>
      <trkpt lat="40.4122650" lon="-3.7707860">
        <ele>665.1</ele>
        <time>2019-05-04T06:26:32Z</time>
      </trkpt>
      <trkpt lat="40.4122680" lon="-3.7708480">
        <ele>665.2</ele>
        <time>2019-05-04T06:26:33Z</time>
      </trkpt>
      <trkpt lat="40.4122720" lon="-3.7709090">
        <ele>665.4</ele>
        <time>2019-05-04T06:26:34Z</time>
      </trkpt>
      <trkpt lat="40.4122760" lon="-3.7709710">
        <ele>665.5</ele>
        <time>2019-05-04T06:26:35Z</time>
      </trkpt>
      <trkpt lat="40.4122800" lon="-3.7710340">
        <ele>665.8</ele>
        <time>2019-05-04T06:26:36Z</time>
      </trkpt>
      <trkpt lat="40.4122850" lon="-3.7711000">
        <ele>666.1</ele>
        <time>2019-05-04T06:26:37Z</time>
      </trkpt>
      <trkpt lat="40.4122880" lon="-3.7711680">
        <ele>666.4</ele>
        <time>2019-05-04T06:26:38Z</time>
      </trkpt>
      <trkpt lat="40.4122890" lon="-3.7712400">
        <ele>666.7</ele>
        <time>2019-05-04T06:26:39Z</time>
      </trkpt>
      <trkpt lat="40.4122860" lon="-3.7713140">
        <ele>667.1</ele>
        <time>2019-05-04T06:26:40Z</time>
      </trkpt>
      <trkpt lat="40.4122830" lon="-3.7713870">
        <ele>667.4</ele>
        <time>2019-05-04T06:26:41Z</time>
      </trkpt>
      <trkpt lat="40.4122810" lon="-3.7714580">
        <ele>667.7</ele>
        <time>2019-05-04T06:26:42Z</time>
      </trkpt>
      <trkpt lat="40.4122790" lon="-3.7715250">
        <ele>668.0</ele>
        <time>2019-05-04T06:26:43Z</time>
      </trkpt>
      <trkpt lat="40.4122770" lon="-3.7715920">
        <ele>668.3</ele>
        <time>2019-05-04T06:26:44Z</time>
      </trkpt>
      <trkpt lat="40.4122720" lon="-3.7716590">
        <ele>668.5</ele>
        <time>2019-05-04T06:26:45Z</time>
      </trkpt>
      <trkpt lat="40.4122670" lon="-3.7717250">
        <ele>668.8</ele>
        <time>2019-05-04T06:26:46Z</time>
      </trkpt>
      <trkpt lat="40.4122610" lon="-3.7717910">
        <ele>669.0</ele>
        <time>2019-05-04T06:26:47Z</time>
      </trkpt>
      <trkpt lat="40.4122560" lon="-3.7718540">
        <ele>669.3</ele>
        <time>2019-05-04T06:26:48Z</time>
      </trkpt>
      <trkpt lat="40.4122520" lon="-3.7719160">
        <ele>669.5</ele>
        <time>2019-05-04T06:26:49Z</time>
      </trkpt>
      <trkpt lat="40.4122500" lon="-3.7719790">
        <ele>669.7</ele>
        <time>2019-05-04T06:26:50Z</time>
      </trkpt>
      <trkpt lat="40.4122480" lon="-3.7720410">
        <ele>669.8</ele>
        <time>2019-05-04T06:26:51Z</time>
      </trkpt>
      <trkpt lat="40.4122470" lon="-3.7721050">
        <ele>670.0</ele>
        <time>2019-05-04T06:26:52Z</time>
      </trkpt>
      <trkpt lat="40.4122440" lon="-3.7721700">
        <ele>670.1</ele>
        <time>2019-05-04T06:26:53Z</time>
      </trkpt>
      <trkpt lat="40.4122410" lon="-3.7722360">
        <ele>670.3</ele>
        <time>2019-05-04T06:26:54Z</time>
      </trkpt>
      <trkpt lat="40.4122360" lon="-3.7723040">
        <ele>670.4</ele>
        <time>2019-05-04T06:26:55Z</time>
      </trkpt>
      <trkpt lat="40.4122280" lon="-3.7723730">
        <ele>670.5</ele>
        <time>2019-05-04T06:26:56Z</time>
      </trkpt>
      <trkpt lat="40.4122160" lon="-3.7724420">
        <ele>670.6</ele>
        <time>2019-05-04T06:26:57Z</time>
      </trkpt>
      <trkpt lat="40.4122010" lon="-3.7725090">
        <ele>670.7</ele>
        <time>2019-05-04T06:26:58Z</time>
      </trkpt>
      <trkpt lat="40.4121880" lon="-3.7725740">
        <ele>670.8</ele>
        <time>2019-05-04T06:26:59Z</time>
      </trkpt>
      <trkpt lat="40.4121730" lon="-3.7726380">
        <ele>670.9</ele>
        <time>2019-05-04T06:27:00Z</time>
      </trkpt>
      <trkpt lat="40.4121560" lon="-3.7727020">
        <ele>671.0</ele>
        <time>2019-05-04T06:27:01Z</time>
      </trkpt>
      <trkpt lat="40.4121370" lon="-3.7727650">
        <ele>671.0</ele>
        <time>2019-05-04T06:27:02Z</time>
      </trkpt>
      <trkpt lat="40.4121190" lon="-3.7728230">
        <ele>671.1</ele>
        <time>2019-05-04T06:27:03Z</time>
      </trkpt>
      <trkpt lat="40.4121030" lon="-3.7728790">
        <ele>671.2</ele>
        <time>2019-05-04T06:27:04Z</time>
      </trkpt>
      <trkpt lat="40.4120860" lon="-3.7729350">
        <ele>671.2</ele>
        <time>2019-05-04T06:27:05Z</time>
      </trkpt>
      <trkpt lat="40.4120690" lon="-3.7729990">
        <ele>671.3</ele>
        <time>2019-05-04T06:27:06Z</time>
      </trkpt>
      <trkpt lat="40.4120510" lon="-3.7730650">
        <ele>671.4</ele>
        <time>2019-05-04T06:27:07Z</time>
      </trkpt>
      <trkpt lat="40.4120350" lon="-3.7731330">
        <ele>671.5</ele>
        <time>2019-05-04T06:27:08Z</time>
      </trkpt>
      <trkpt lat="40.4120220" lon="-3.7731960">
        <ele>671.6</ele>
        <time>2019-05-04T06:27:09Z</time>
      </trkpt>
      <trkpt lat="40.4120090" lon="-3.7732570">
        <ele>671.7</ele>
        <time>2019-05-04T06:27:10Z</time>
      </trkpt>
      <trkpt lat="40.4119950" lon="-3.7733140">
        <ele>671.8</ele>
        <time>2019-05-04T06:27:11Z</time>
      </trkpt>
      <trkpt lat="40.4119800" lon="-3.7733700">
        <ele>671.9</ele>
        <time>2019-05-04T06:27:12Z</time>
      </trkpt>
      <trkpt lat="40.4119650" lon="-3.7734240">
        <ele>672.0</ele>
        <time>2019-05-04T06:27:13Z</time>
      </trkpt>
      <trkpt lat="40.4119540" lon="-3.7734770">
        <ele>672.1</ele>
        <time>2019-05-04T06:27:14Z</time>
      </trkpt>
      <trkpt lat="40.4119410" lon="-3.7735300">
        <ele>672.3</ele>
        <time>2019-05-04T06:27:15Z</time>
      </trkpt>
      <trkpt lat="40.4119280" lon="-3.7735880">
        <ele>672.4</ele>
        <time>2019-05-04T06:27:16Z</time>
      </trkpt>
      <trkpt lat="40.4119150" lon="-3.7736480">
        <ele>672.7</ele>
        <time>2019-05-04T06:27:17Z</time>
      </trkpt>
      <trkpt lat="40.4119030" lon="-3.7737200">
        <ele>672.9</ele>
        <time>2019-05-04T06:27:18Z</time>
      </trkpt>
      <trkpt lat="40.4118910" lon="-3.7737950">
        <ele>673.1</ele>
        <time>2019-05-04T06:27:19Z</time>
      </trkpt>
      <trkpt lat="40.4118760" lon="-3.7738770">
        <ele>673.2</ele>
        <time>2019-05-04T06:27:20Z</time>
      </trkpt>
      <trkpt lat="40.4118630" lon="-3.7739570">
        <ele>673.4</ele>
        <time>2019-05-04T06:27:21Z</time>
      </trkpt>
      <trkpt lat="40.4118510" lon="-3.7740340">
        <ele>673.5</ele>
        <time>2019-05-04T06:27:22Z</time>
      </trkpt>
      <trkpt lat="40.4118430" lon="-3.7741060">
        <ele>673.6</ele>
        <time>2019-05-04T06:27:23Z</time>
      </trkpt>
      <trkpt lat="40.4118320" lon="-3.7741750">
        <ele>673.7</ele>
        <time>2019-05-04T06:27:24Z</time>
      </trkpt>
      <trkpt lat="40.4118220" lon="-3.7742430">
        <ele>673.8</ele>
        <time>2019-05-04T06:27:25Z</time>
      </trkpt>
      <trkpt lat="40.4118130" lon="-3.7743130">
        <ele>673.8</ele>
        <time>2019-05-04T06:27:26Z</time>
      </trkpt>
      <trkpt lat="40.4118030" lon="-3.7743850">
        <ele>673.9</ele>
        <time>2019-05-04T06:27:27Z</time>
      </trkpt>
      <trkpt lat="40.4117940" lon="-3.7744590">
        <ele>673.9</ele>
        <time>2019-05-04T06:27:28Z</time>
      </trkpt>
      <trkpt lat="40.4117840" lon="-3.7745340">
        <ele>674.0</ele>
        <time>2019-05-04T06:27:29Z</time>
      </trkpt>
      <trkpt lat="40.4117740" lon="-3.7746110">
        <ele>674.1</ele>
        <time>2019-05-04T06:27:30Z</time>
      </trkpt>
      <trkpt lat="40.4117650" lon="-3.7746900">
        <ele>674.2</ele>
        <time>2019-05-04T06:27:31Z</time>
      </trkpt>
      <trkpt lat="40.4117560" lon="-3.7747690">
        <ele>674.3</ele>
        <time>2019-05-04T06:27:32Z</time>
      </trkpt>
      <trkpt lat="40.4117480" lon="-3.7748480">
        <ele>674.4</ele>
        <time>2019-05-04T06:27:33Z</time>
      </trkpt>
      <trkpt lat="40.4117400" lon="-3.7749260">
        <ele>674.5</ele>
        <time>2019-05-04T06:27:34Z</time>
      </trkpt>
      <trkpt lat="40.4117320" lon="-3.7750030">
        <ele>674.6</ele>
        <time>2019-05-04T06:27:35Z</time>
      </trkpt>
      <trkpt lat="40.4117250" lon="-3.7750800">
        <ele>674.7</ele>
        <time>2019-05-04T06:27:36Z</time>
      </trkpt>
      <trkpt lat="40.4117190" lon="-3.7751560">
        <ele>674.8</ele>
        <time>2019-05-04T06:27:37Z</time>
      </trkpt>
      <trkpt lat="40.4117130" lon="-3.7752340">
        <ele>674.8</ele>
        <time>2019-05-04T06:27:38Z</time>
      </trkpt>
      <trkpt lat="40.4117090" lon="-3.7753100">
        <ele>674.9</ele>
        <time>2019-05-04T06:27:39Z</time>
      </trkpt>
      <trkpt lat="40.4117000" lon="-3.7753820">
        <ele>675.0</ele>
        <time>2019-05-04T06:27:40Z</time>
      </trkpt>
      <trkpt lat="40.4116850" lon="-3.7754490">
        <ele>675.1</ele>
        <time>2019-05-04T06:27:41Z</time>
      </trkpt>
      <trkpt lat="40.4116710" lon="-3.7755190">
        <ele>675.2</ele>
        <time>2019-05-04T06:27:42Z</time>
      </trkpt>
      <trkpt lat="40.4116600" lon="-3.7755860">
        <ele>675.3</ele>
        <time>2019-05-04T06:27:43Z</time>
      </trkpt>
      <trkpt lat="40.4116580" lon="-3.7756550">
        <ele>675.4</ele>
        <time>2019-05-04T06:27:44Z</time>
      </trkpt>
      <trkpt lat="40.4116560" lon="-3.7757200">
        <ele>675.4</ele>
        <time>2019-05-04T06:27:45Z</time>
      </trkpt>
      <trkpt lat="40.4116580" lon="-3.7757860">
        <ele>675.5</ele>
        <time>2019-05-04T06:27:46Z</time>
      </trkpt>
      <trkpt lat="40.4116570" lon="-3.7758490">
        <ele>675.6</ele>
        <time>2019-05-04T06:27:47Z</time>
      </trkpt>
      <trkpt lat="40.4116560" lon="-3.7759080">
        <ele>675.6</ele>
        <time>2019-05-04T06:27:48Z</time>
      </trkpt>
      <trkpt lat="40.4116580" lon="-3.7759660">
        <ele>675.7</ele>
        <time>2019-05-04T06:27:49Z</time>
      </trkpt>
      <trkpt lat="40.4116630" lon="-3.7760240">
        <ele>675.7</ele>
        <time>2019-05-04T06:27:50Z</time>
      </trkpt>
      <trkpt lat="40.4116680" lon="-3.7760840">
        <ele>675.8</ele>
        <time>2019-05-04T06:27:51Z</time>
      </trkpt>
      <trkpt lat="40.4116700" lon="-3.7761450">
        <ele>675.9</ele>
        <time>2019-05-04T06:27:52Z</time>
      </trkpt>
      <trkpt lat="40.4116690" lon="-3.7762060">
        <ele>676.0</ele>
        <time>2019-05-04T06:27:53Z</time>
      </trkpt>
      <trkpt lat="40.4116680" lon="-3.7762690">
        <ele>676.2</ele>
        <time>2019-05-04T06:27:54Z</time>
      </trkpt>
      <trkpt lat="40.4116690" lon="-3.7763340">
        <ele>676.3</ele>
        <time>2019-05-04T06:27:55Z</time>
      </trkpt>
      <trkpt lat="40.4116720" lon="-3.7764010">
        <ele>676.5</ele>
        <time>2019-05-04T06:27:56Z</time>
      </trkpt>
      <trkpt lat="40.4116730" lon="-3.7764700">
        <ele>676.7</ele>
        <time>2019-05-04T06:27:57Z</time>
      </trkpt>
      <trkpt lat="40.4116700" lon="-3.7765380">
        <ele>676.9</ele>
        <time>2019-05-04T06:27:58Z</time>
      </trkpt>
      <trkpt lat="40.4116640" lon="-3.7766040">
        <ele>677.0</ele>
        <time>2019-05-04T06:27:59Z</time>
      </trkpt>
      <trkpt lat="40.4116610" lon="-3.7766680">
        <ele>677.1</ele>
        <time>2019-05-04T06:28:00Z</time>
      </trkpt>
      <trkpt lat="40.4116610" lon="-3.7767330">
        <ele>677.2</ele>
        <time>2019-05-04T06:28:01Z</time>
      </trkpt>
      <trkpt lat="40.4116650" lon="-3.7768030">
        <ele>677.2</ele>
        <time>2019-05-04T06:28:02Z</time>
      </trkpt>
      <trkpt lat="40.4116700" lon="-3.7768740">
        <ele>677.1</ele>
        <time>2019-05-04T06:28:03Z</time>
      </trkpt>
      <trkpt lat="40.4116760" lon="-3.7769450">
        <ele>677.0</ele>
        <time>2019-05-04T06:28:04Z</time>
      </trkpt>
      <trkpt lat="40.4116830" lon="-3.7770160">
        <ele>676.9</ele>
        <time>2019-05-04T06:28:05Z</time>
      </trkpt>
      <trkpt lat="40.4116900" lon="-3.7770880">
        <ele>677.0</ele>
        <time>2019-05-04T06:28:06Z</time>
      </trkpt>
      <trkpt lat="40.4116950" lon="-3.7771610">
        <ele>677.2</ele>
        <time>2019-05-04T06:28:07Z</time>
      </trkpt>
      <trkpt lat="40.4116990" lon="-3.7772320">
        <ele>677.4</ele>
        <time>2019-05-04T06:28:08Z</time>
      </trkpt>
      <trkpt lat="40.4117010" lon="-3.7773040">
        <ele>677.7</ele>
        <time>2019-05-04T06:28:09Z</time>
      </trkpt>
      <trkpt lat="40.4117060" lon="-3.7773760">
        <ele>678.0</ele>
        <time>2019-05-04T06:28:10Z</time>
      </trkpt>
      <trkpt lat="40.4117110" lon="-3.7774490">
        <ele>678.0</ele>
        <time>2019-05-04T06:28:11Z</time>
      </trkpt>
      <trkpt lat="40.4117190" lon="-3.7775220">
        <ele>677.7</ele>
        <time>2019-05-04T06:28:12Z</time>
      </trkpt>
      <trkpt lat="40.4117250" lon="-3.7775940">
        <ele>677.3</ele>
        <time>2019-05-04T06:28:13Z</time>
      </trkpt>
      <trkpt lat="40.4117340" lon="-3.7776660">
        <ele>677.6</ele>
        <time>2019-05-04T06:28:14Z</time>
      </trkpt>
      <trkpt lat="40.4117410" lon="-3.7777370">
        <ele>677.7</ele>
        <time>2019-05-04T06:28:15Z</time>
      </trkpt>
      <trkpt lat="40.4117470" lon="-3.7778050">
        <ele>677.9</ele>
        <time>2019-05-04T06:28:16Z</time>
      </trkpt>
      <trkpt lat="40.4117530" lon="-3.7778680">
        <ele>678.0</ele>
        <time>2019-05-04T06:28:17Z</time>
      </trkpt>
      <trkpt lat="40.4117590" lon="-3.7779300">
        <ele>678.1</ele>
        <time>2019-05-04T06:28:18Z</time>
      </trkpt>
      <trkpt lat="40.4117660" lon="-3.7779890">
        <ele>678.3</ele>
        <time>2019-05-04T06:28:19Z</time>
      </trkpt>
      <trkpt lat="40.4117730" lon="-3.7780430">
        <ele>678.4</ele>
        <time>2019-05-04T06:28:20Z</time>
      </trkpt>
      <trkpt lat="40.4117810" lon="-3.7780930">
        <ele>678.4</ele>
        <time>2019-05-04T06:28:21Z</time>
      </trkpt>
      <trkpt lat="40.4117890" lon="-3.7781410">
        <ele>678.5</ele>
        <time>2019-05-04T06:28:22Z</time>
      </trkpt>
      <trkpt lat="40.4117930" lon="-3.7781890">
        <ele>678.5</ele>
        <time>2019-05-04T06:28:23Z</time>
      </trkpt>
      <trkpt lat="40.4117960" lon="-3.7782360">
        <ele>678.5</ele>
        <time>2019-05-04T06:28:24Z</time>
      </trkpt>
      <trkpt lat="40.4117960" lon="-3.7782840">
        <ele>678.5</ele>
        <time>2019-05-04T06:28:25Z</time>
      </trkpt>
      <trkpt lat="40.4117970" lon="-3.7783360">
        <ele>678.6</ele>
        <time>2019-05-04T06:28:26Z</time>
      </trkpt>
      <trkpt lat="40.4117980" lon="-3.7783920">
        <ele>678.6</ele>
        <time>2019-05-04T06:28:27Z</time>
      </trkpt>
      <trkpt lat="40.4117990" lon="-3.7784500">
        <ele>678.6</ele>
        <time>2019-05-04T06:28:28Z</time>
      </trkpt>
      <trkpt lat="40.4118000" lon="-3.7785080">
        <ele>678.7</ele>
        <time>2019-05-04T06:28:29Z</time>
      </trkpt>
      <trkpt lat="40.4118010" lon="-3.7785670">
        <ele>678.7</ele>
        <time>2019-05-04T06:28:30Z</time>
      </trkpt>
      <trkpt lat="40.4118010" lon="-3.7786260">
        <ele>678.7</ele>
        <time>2019-05-04T06:28:31Z</time>
      </trkpt>
      <trkpt lat="40.4118000" lon="-3.7786860">
        <ele>678.7</ele>
        <time>2019-05-04T06:28:32Z</time>
      </trkpt>
      <trkpt lat="40.4117980" lon="-3.7787470">
        <ele>678.7</ele>
        <time>2019-05-04T06:28:33Z</time>
      </trkpt>
      <trkpt lat="40.4117940" lon="-3.7788120">
        <ele>678.7</ele>
        <time>2019-05-04T06:28:34Z</time>
      </trkpt>
      <trkpt lat="40.4117900" lon="-3.7788750">
        <ele>678.6</ele>
        <time>2019-05-04T06:28:35Z</time>
      </trkpt>
      <trkpt lat="40.4117870" lon="-3.7789380">
        <ele>678.5</ele>
        <time>2019-05-04T06:28:36Z</time>
      </trkpt>
      <trkpt lat="40.4117820" lon="-3.7790000">
        <ele>678.4</ele>
        <time>2019-05-04T06:28:37Z</time>
      </trkpt>
      <trkpt lat="40.4117780" lon="-3.7790640">
        <ele>678.3</ele>
        <time>2019-05-04T06:28:38Z</time>
      </trkpt>
      <trkpt lat="40.4117740" lon="-3.7791290">
        <ele>678.2</ele>
        <time>2019-05-04T06:28:39Z</time>
      </trkpt>
      <trkpt lat="40.4117700" lon="-3.7791920">
        <ele>678.1</ele>
        <time>2019-05-04T06:28:40Z</time>
      </trkpt>
      <trkpt lat="40.4117680" lon="-3.7792550">
        <ele>678.0</ele>
        <time>2019-05-04T06:28:41Z</time>
      </trkpt>
      <trkpt lat="40.4117670" lon="-3.7793190">
        <ele>678.2</ele>
        <time>2019-05-04T06:28:42Z</time>
      </trkpt>
      <trkpt lat="40.4117700" lon="-3.7793850">
        <ele>678.3</ele>
        <time>2019-05-04T06:28:43Z</time>
      </trkpt>
      <trkpt lat="40.4117830" lon="-3.7794550">
        <ele>678.5</ele>
        <time>2019-05-04T06:28:44Z</time>
      </trkpt>
      <trkpt lat="40.4118000" lon="-3.7795300">
        <ele>678.6</ele>
        <time>2019-05-04T06:28:45Z</time>
      </trkpt>
      <trkpt lat="40.4118210" lon="-3.7796140">
        <ele>678.8</ele>
        <time>2019-05-04T06:28:46Z</time>
      </trkpt>
      <trkpt lat="40.4118400" lon="-3.7796970">
        <ele>679.0</ele>
        <time>2019-05-04T06:28:47Z</time>
      </trkpt>
      <trkpt lat="40.4118600" lon="-3.7797800">
        <ele>679.2</ele>
        <time>2019-05-04T06:28:48Z</time>
      </trkpt>
      <trkpt lat="40.4118830" lon="-3.7798570">
        <ele>679.3</ele>
        <time>2019-05-04T06:28:49Z</time>
      </trkpt>
      <trkpt lat="40.4119070" lon="-3.7799310">
        <ele>679.5</ele>
        <time>2019-05-04T06:28:50Z</time>
      </trkpt>
      <trkpt lat="40.4119320" lon="-3.7800030">
        <ele>679.6</ele>
        <time>2019-05-04T06:28:51Z</time>
      </trkpt>
      <trkpt lat="40.4119550" lon="-3.7800780">
        <ele>679.7</ele>
        <time>2019-05-04T06:28:52Z</time>
      </trkpt>
      <trkpt lat="40.4119760" lon="-3.7801560">
        <ele>679.7</ele>
        <time>2019-05-04T06:28:53Z</time>
      </trkpt>
      <trkpt lat="40.4119980" lon="-3.7802350">
        <ele>679.9</ele>
        <time>2019-05-04T06:28:54Z</time>
      </trkpt>
      <trkpt lat="40.4120220" lon="-3.7803090">
        <ele>680.0</ele>
        <time>2019-05-04T06:28:55Z</time>
      </trkpt>
      <trkpt lat="40.4120480" lon="-3.7803820">
        <ele>680.1</ele>
        <time>2019-05-04T06:28:56Z</time>
      </trkpt>
      <trkpt lat="40.4120750" lon="-3.7804560">
        <ele>680.3</ele>
        <time>2019-05-04T06:28:57Z</time>
      </trkpt>
      <trkpt lat="40.4121010" lon="-3.7805300">
        <ele>680.4</ele>
        <time>2019-05-04T06:28:58Z</time>
      </trkpt>
      <trkpt lat="40.4121270" lon="-3.7806060">
        <ele>680.5</ele>
        <time>2019-05-04T06:28:59Z</time>
      </trkpt>
      <trkpt lat="40.4121530" lon="-3.7806810">
        <ele>680.7</ele>
        <time>2019-05-04T06:29:00Z</time>
      </trkpt>
      <trkpt lat="40.4121790" lon="-3.7807560">
        <ele>680.8</ele>
        <time>2019-05-04T06:29:01Z</time>
      </trkpt>
      <trkpt lat="40.4122030" lon="-3.7808330">
        <ele>681.0</ele>
        <time>2019-05-04T06:29:02Z</time>
      </trkpt>
      <trkpt lat="40.4122280" lon="-3.7809100">
        <ele>681.2</ele>
        <time>2019-05-04T06:29:03Z</time>
      </trkpt>
      <trkpt lat="40.4122510" lon="-3.7809880">
        <ele>681.5</ele>
        <time>2019-05-04T06:29:04Z</time>
      </trkpt>
      <trkpt lat="40.4122750" lon="-3.7810660">
        <ele>681.7</ele>
        <time>2019-05-04T06:29:05Z</time>
      </trkpt>
      <trkpt lat="40.4122990" lon="-3.7811430">
        <ele>682.0</ele>
        <time>2019-05-04T06:29:06Z</time>
      </trkpt>
      <trkpt lat="40.4123230" lon="-3.7812200">
        <ele>682.2</ele>
        <time>2019-05-04T06:29:07Z</time>
      </trkpt>
      <trkpt lat="40.4123470" lon="-3.7812970">
        <ele>682.4</ele>
        <time>2019-05-04T06:29:08Z</time>
      </trkpt>
      <trkpt lat="40.4123720" lon="-3.7813750">
        <ele>682.7</ele>
        <time>2019-05-04T06:29:09Z</time>
      </trkpt>
      <trkpt lat="40.4123960" lon="-3.7814540">
        <ele>682.9</ele>
        <time>2019-05-04T06:29:10Z</time>
      </trkpt>
      <trkpt lat="40.4124200" lon="-3.7815340">
        <ele>683.2</ele>
        <time>2019-05-04T06:29:11Z</time>
      </trkpt>
      <trkpt lat="40.4124450" lon="-3.7816140">
        <ele>683.4</ele>
        <time>2019-05-04T06:29:12Z</time>
      </trkpt>
      <trkpt lat="40.4124700" lon="-3.7816940">
        <ele>683.6</ele>
        <time>2019-05-04T06:29:13Z</time>
      </trkpt>
      <trkpt lat="40.4124950" lon="-3.7817730">
        <ele>683.8</ele>
        <time>2019-05-04T06:29:14Z</time>
      </trkpt>
      <trkpt lat="40.4125200" lon="-3.7818510">
        <ele>684.0</ele>
        <time>2019-05-04T06:29:15Z</time>
      </trkpt>
      <trkpt lat="40.4125450" lon="-3.7819280">
        <ele>684.2</ele>
        <time>2019-05-04T06:29:16Z</time>
      </trkpt>
      <trkpt lat="40.4125700" lon="-3.7820050">
        <ele>684.4</ele>
        <time>2019-05-04T06:29:17Z</time>
      </trkpt>
      <trkpt lat="40.4125940" lon="-3.7820820">
        <ele>684.6</ele>
        <time>2019-05-04T06:29:18Z</time>
      </trkpt>
      <trkpt lat="40.4126190" lon="-3.7821590">
        <ele>684.8</ele>
        <time>2019-05-04T06:29:19Z</time>
      </trkpt>
      <trkpt lat="40.4126450" lon="-3.7822360">
        <ele>685.1</ele>
        <time>2019-05-04T06:29:20Z</time>
      </trkpt>
      <trkpt lat="40.4126720" lon="-3.7823130">
        <ele>685.3</ele>
        <time>2019-05-04T06:29:21Z</time>
      </trkpt>
      <trkpt lat="40.4126980" lon="-3.7823890">
        <ele>685.5</ele>
        <time>2019-05-04T06:29:22Z</time>
      </trkpt>
      <trkpt lat="40.4127230" lon="-3.7824660">
        <ele>685.7</ele>
        <time>2019-05-04T06:29:23Z</time>
      </trkpt>
      <trkpt lat="40.4127480" lon="-3.7825440">
        <ele>685.8</ele>
        <time>2019-05-04T06:29:24Z</time>
      </trkpt>
      <trkpt lat="40.4127730" lon="-3.7826220">
        <ele>686.0</ele>
        <time>2019-05-04T06:29:25Z</time>
      </trkpt>
      <trkpt lat="40.4127980" lon="-3.7827010">
        <ele>686.1</ele>
        <time>2019-05-04T06:29:26Z</time>
      </trkpt>
      <trkpt lat="40.4128230" lon="-3.7827800">
        <ele>686.2</ele>
        <time>2019-05-04T06:29:27Z</time>
      </trkpt>
      <trkpt lat="40.4128480" lon="-3.7828600">
        <ele>686.4</ele>
        <time>2019-05-04T06:29:28Z</time>
      </trkpt>
      <trkpt lat="40.4128740" lon="-3.7829390">
        <ele>686.5</ele>
        <time>2019-05-04T06:29:29Z</time>
      </trkpt>
      <trkpt lat="40.4128990" lon="-3.7830160">
        <ele>686.6</ele>
        <time>2019-05-04T06:29:30Z</time>
      </trkpt>
      <trkpt lat="40.4129230" lon="-3.7830910">
        <ele>686.7</ele>
        <time>2019-05-04T06:29:31Z</time>
      </trkpt>
      <trkpt lat="40.4129450" lon="-3.7831630">
        <ele>686.8</ele>
        <time>2019-05-04T06:29:32Z</time>
      </trkpt>
      <trkpt lat="40.4129660" lon="-3.7832310">
        <ele>686.9</ele>
        <time>2019-05-04T06:29:33Z</time>
      </trkpt>
      <trkpt lat="40.4129850" lon="-3.7832950">
        <ele>686.9</ele>
        <time>2019-05-04T06:29:34Z</time>
      </trkpt>
      <trkpt lat="40.4130060" lon="-3.7833570">
        <ele>687.0</ele>
        <time>2019-05-04T06:29:35Z</time>
      </trkpt>
      <trkpt lat="40.4130270" lon="-3.7834200">
        <ele>687.1</ele>
        <time>2019-05-04T06:29:36Z</time>
      </trkpt>
      <trkpt lat="40.4130480" lon="-3.7834840">
        <ele>687.1</ele>
        <time>2019-05-04T06:29:37Z</time>
      </trkpt>
      <trkpt lat="40.4130690" lon="-3.7835490">
        <ele>687.1</ele>
        <time>2019-05-04T06:29:38Z</time>
      </trkpt>
      <trkpt lat="40.4130890" lon="-3.7836140">
        <ele>687.2</ele>
        <time>2019-05-04T06:29:39Z</time>
      </trkpt>
      <trkpt lat="40.4131080" lon="-3.7836780">
        <ele>687.2</ele>
        <time>2019-05-04T06:29:40Z</time>
      </trkpt>
      <trkpt lat="40.4131270" lon="-3.7837430">
        <ele>687.2</ele>
        <time>2019-05-04T06:29:41Z</time>
      </trkpt>
      <trkpt lat="40.4131480" lon="-3.7838100">
        <ele>687.3</ele>
        <time>2019-05-04T06:29:42Z</time>
      </trkpt>
      <trkpt lat="40.4131710" lon="-3.7838780">
        <ele>687.4</ele>
        <time>2019-05-04T06:29:43Z</time>
      </trkpt>
      <trkpt lat="40.4131940" lon="-3.7839450">
        <ele>687.5</ele>
        <time>2019-05-04T06:29:44Z</time>
      </trkpt>
      <trkpt lat="40.4132180" lon="-3.7840140">
        <ele>687.5</ele>
        <time>2019-05-04T06:29:45Z</time>
      </trkpt>
      <trkpt lat="40.4132410" lon="-3.7840840">
        <ele>687.6</ele>
        <time>2019-05-04T06:29:46Z</time>
      </trkpt>
      <trkpt lat="40.4132640" lon="-3.7841560">
        <ele>687.7</ele>
        <time>2019-05-04T06:29:47Z</time>
      </trkpt>
      <trkpt lat="40.4132870" lon="-3.7842290">
        <ele>687.9</ele>
        <time>2019-05-04T06:29:48Z</time>
      </trkpt>
      <trkpt lat="40.4133110" lon="-3.7843020">
        <ele>688.1</ele>
        <time>2019-05-04T06:29:49Z</time>
      </trkpt>
      <trkpt lat="40.4133360" lon="-3.7843740">
        <ele>688.2</ele>
        <time>2019-05-04T06:29:50Z</time>
      </trkpt>
      <trkpt lat="40.4133600" lon="-3.7844480">
        <ele>688.4</ele>
        <time>2019-05-04T06:29:51Z</time>
      </trkpt>
      <trkpt lat="40.4133850" lon="-3.7845210">
        <ele>688.5</ele>
        <time>2019-05-04T06:29:52Z</time>
      </trkpt>
      <trkpt lat="40.4134100" lon="-3.7845960">
        <ele>688.7</ele>
        <time>2019-05-04T06:29:53Z</time>
      </trkpt>
      <trkpt lat="40.4134360" lon="-3.7846700">
        <ele>688.9</ele>
        <time>2019-05-04T06:29:54Z</time>
      </trkpt>
      <trkpt lat="40.4134630" lon="-3.7847430">
        <ele>689.1</ele>
        <time>2019-05-04T06:29:55Z</time>
      </trkpt>
      <trkpt lat="40.4134930" lon="-3.7848150">
        <ele>689.3</ele>
        <time>2019-05-04T06:29:56Z</time>
      </trkpt>
      <trkpt lat="40.4135230" lon="-3.7848860">
        <ele>689.5</ele>
        <time>2019-05-04T06:29:57Z</time>
      </trkpt>
      <trkpt lat="40.4135550" lon="-3.7849570">
        <ele>689.8</ele>
        <time>2019-05-04T06:29:58Z</time>
      </trkpt>
      <trkpt lat="40.4135870" lon="-3.7850270">
        <ele>690.0</ele>
        <time>2019-05-04T06:29:59Z</time>
      </trkpt>
      <trkpt lat="40.4136200" lon="-3.7850970">
        <ele>690.1</ele>
        <time>2019-05-04T06:30:00Z</time>
      </trkpt>
      <trkpt lat="40.4136530" lon="-3.7851680">
        <ele>690.3</ele>
        <time>2019-05-04T06:30:01Z</time>
      </trkpt>
      <trkpt lat="40.4136870" lon="-3.7852390">
        <ele>690.4</ele>
        <time>2019-05-04T06:30:02Z</time>
      </trkpt>
      <trkpt lat="40.4137220" lon="-3.7853100">
        <ele>690.6</ele>
        <time>2019-05-04T06:30:03Z</time>
      </trkpt>
      <trkpt lat="40.4137560" lon="-3.7853810">
        <ele>690.7</ele>
        <time>2019-05-04T06:30:04Z</time>
      </trkpt>
      <trkpt lat="40.4137910" lon="-3.7854520">
        <ele>690.9</ele>
        <time>2019-05-04T06:30:05Z</time>
      </trkpt>
      <trkpt lat="40.4138260" lon="-3.7855230">
        <ele>691.1</ele>
        <time>2019-05-04T06:30:06Z</time>
      </trkpt>
      <trkpt lat="40.4138620" lon="-3.7855950">
        <ele>691.3</ele>
        <time>2019-05-04T06:30:07Z</time>
      </trkpt>
      <trkpt lat="40.4138970" lon="-3.7856660">
        <ele>691.4</ele>
        <time>2019-05-04T06:30:08Z</time>
      </trkpt>
      <trkpt lat="40.4139330" lon="-3.7857380">
        <ele>691.6</ele>
        <time>2019-05-04T06:30:09Z</time>
      </trkpt>
      <trkpt lat="40.4139680" lon="-3.7858090">
        <ele>691.7</ele>
        <time>2019-05-04T06:30:10Z</time>
      </trkpt>
      <trkpt lat="40.4140030" lon="-3.7858810">
        <ele>691.9</ele>
        <time>2019-05-04T06:30:11Z</time>
      </trkpt>
      <trkpt lat="40.4140380" lon="-3.7859530">
        <ele>692.0</ele>
        <time>2019-05-04T06:30:12Z</time>
      </trkpt>
      <trkpt lat="40.4140740" lon="-3.7860250">
        <ele>692.2</ele>
        <time>2019-05-04T06:30:13Z</time>
      </trkpt>
      <trkpt lat="40.4141100" lon="-3.7860970">
        <ele>692.4</ele>
        <time>2019-05-04T06:30:14Z</time>
      </trkpt>
      <trkpt lat="40.4141470" lon="-3.7861680">
        <ele>692.5</ele>
        <time>2019-05-04T06:30:15Z</time>
      </trkpt>
      <trkpt lat="40.4141850" lon="-3.7862380">
        <ele>692.7</ele>
        <time>2019-05-04T06:30:16Z</time>
      </trkpt>
      <trkpt lat="40.4142240" lon="-3.7863070">
        <ele>692.9</ele>
        <time>2019-05-04T06:30:17Z</time>
      </trkpt>
      <trkpt lat="40.4142620" lon="-3.7863750">
        <ele>693.0</ele>
        <time>2019-05-04T06:30:18Z</time>
      </trkpt>
      <trkpt lat="40.4142970" lon="-3.7864420">
        <ele>693.2</ele>
        <time>2019-05-04T06:30:19Z</time>
      </trkpt>
      <trkpt lat="40.4143310" lon="-3.7865060">
        <ele>693.4</ele>
        <time>2019-05-04T06:30:20Z</time>
      </trkpt>
      <trkpt lat="40.4143640" lon="-3.7865680">
        <ele>693.5</ele>
        <time>2019-05-04T06:30:21Z</time>
      </trkpt>
      <trkpt lat="40.4143940" lon="-3.7866290">
        <ele>693.7</ele>
        <time>2019-05-04T06:30:22Z</time>
      </trkpt>
      <trkpt lat="40.4144220" lon="-3.7866870">
        <ele>693.8</ele>
        <time>2019-05-04T06:30:23Z</time>
      </trkpt>
      <trkpt lat="40.4144490" lon="-3.7867440">
        <ele>694.0</ele>
        <time>2019-05-04T06:30:24Z</time>
      </trkpt>
      <trkpt lat="40.4144760" lon="-3.7867990">
        <ele>694.1</ele>
        <time>2019-05-04T06:30:25Z</time>
      </trkpt>
      <trkpt lat="40.4145030" lon="-3.7868520">
        <ele>694.3</ele>
        <time>2019-05-04T06:30:26Z</time>
      </trkpt>
      <trkpt lat="40.4145290" lon="-3.7869030">
        <ele>694.4</ele>
        <time>2019-05-04T06:30:27Z</time>
      </trkpt>
      <trkpt lat="40.4145530" lon="-3.7869540">
        <ele>694.5</ele>
        <time>2019-05-04T06:30:28Z</time>
      </trkpt>
      <trkpt lat="40.4145750" lon="-3.7870040">
        <ele>694.5</ele>
        <time>2019-05-04T06:30:29Z</time>
      </trkpt>
      <trkpt lat="40.4145960" lon="-3.7870520">
        <ele>694.5</ele>
        <time>2019-05-04T06:30:30Z</time>
      </trkpt>
      <trkpt lat="40.4146170" lon="-3.7870950">
        <ele>694.6</ele>
        <time>2019-05-04T06:30:31Z</time>
      </trkpt>
      <trkpt lat="40.4146370" lon="-3.7871350">
        <ele>694.6</ele>
        <time>2019-05-04T06:30:32Z</time>
      </trkpt>
      <trkpt lat="40.4146570" lon="-3.7871730">
        <ele>694.7</ele>
        <time>2019-05-04T06:30:33Z</time>
      </trkpt>
      <trkpt lat="40.4146770" lon="-3.7872080">
        <ele>694.7</ele>
        <time>2019-05-04T06:30:34Z</time>
      </trkpt>
      <trkpt lat="40.4146980" lon="-3.7872380">
        <ele>694.8</ele>
        <time>2019-05-04T06:30:35Z</time>
      </trkpt>
      <trkpt lat="40.4147200" lon="-3.7872630">
        <ele>695.0</ele>
        <time>2019-05-04T06:30:36Z</time>
      </trkpt>
      <trkpt lat="40.4147430" lon="-3.7872800">
        <ele>695.0</ele>
        <time>2019-05-04T06:30:37Z</time>
      </trkpt>
      <trkpt lat="40.4147690" lon="-3.7872910">
        <ele>695.1</ele>
        <time>2019-05-04T06:30:38Z</time>
      </trkpt>
      <trkpt lat="40.4147990" lon="-3.7872920">
        <ele>695.1</ele>
        <time>2019-05-04T06:30:39Z</time>
      </trkpt>
      <trkpt lat="40.4148310" lon="-3.7872810">
        <ele>695.3</ele>
        <time>2019-05-04T06:30:40Z</time>
      </trkpt>
      <trkpt lat="40.4148630" lon="-3.7872600">
        <ele>695.5</ele>
        <time>2019-05-04T06:30:41Z</time>
      </trkpt>
      <trkpt lat="40.4148920" lon="-3.7872360">
        <ele>695.6</ele>
        <time>2019-05-04T06:30:42Z</time>
      </trkpt>
      <trkpt lat="40.4149180" lon="-3.7872140">
        <ele>695.7</ele>
        <time>2019-05-04T06:30:43Z</time>
      </trkpt>
      <trkpt lat="40.4149420" lon="-3.7871960">
        <ele>695.9</ele>
        <time>2019-05-04T06:30:44Z</time>
      </trkpt>
      <trkpt lat="40.4149650" lon="-3.7871860">
        <ele>696.0</ele>
        <time>2019-05-04T06:30:45Z</time>
      </trkpt>
      <trkpt lat="40.4149870" lon="-3.7871820">
        <ele>696.1</ele>
        <time>2019-05-04T06:30:46Z</time>
      </trkpt>
      <trkpt lat="40.4150060" lon="-3.7871840">
        <ele>696.1</ele>
        <time>2019-05-04T06:30:47Z</time>
      </trkpt>
      <trkpt lat="40.4150210" lon="-3.7871900">
        <ele>696.1</ele>
        <time>2019-05-04T06:30:48Z</time>
      </trkpt>
      <trkpt lat="40.4150270" lon="-3.7871980">
        <ele>696.1</ele>
        <time>2019-05-04T06:30:49Z</time>
      </trkpt>
      <trkpt lat="40.4150260" lon="-3.7872040">
        <ele>696.1</ele>
        <time>2019-05-04T06:30:50Z</time>
      </trkpt>
      <trkpt lat="40.4150230" lon="-3.7872060">
        <ele>696.1</ele>
        <time>2019-05-04T06:30:51Z</time>
      </trkpt>
      <trkpt lat="40.4150230" lon="-3.7872050">
        <ele>696.1</ele>
        <time>2019-05-04T06:30:52Z</time>
      </trkpt>
      <trkpt lat="40.4150240" lon="-3.7872060">
        <ele>696.1</ele>
        <time>2019-05-04T06:30:53Z</time>
      </trkpt>
      <trkpt lat="40.4150260" lon="-3.7872060">
        <ele>696.1</ele>
        <time>2019-05-04T06:30:54Z</time>
      </trkpt>
      <trkpt lat="40.4150290" lon="-3.7872050">
        <ele>696.1</ele>
        <time>2019-05-04T06:30:55Z</time>
      </trkpt>
      <trkpt lat="40.4150300" lon="-3.7872050">
        <ele>696.1</ele>
        <time>2019-05-04T06:30:56Z</time>
      </trkpt>
      <trkpt lat="40.4149920" lon="-3.7872850">
        <ele>696.0</ele>
        <time>2019-05-04T06:32:05Z</time>
      </trkpt>
      <trkpt lat="40.4149920" lon="-3.7872850">
        <ele>696.0</ele>
        <time>2019-05-04T06:32:06Z</time>
      </trkpt>
      <trkpt lat="40.4149920" lon="-3.7872850">
        <ele>696.0</ele>
        <time>2019-05-04T06:32:07Z</time>
      </trkpt>
      <trkpt lat="40.4149880" lon="-3.7872830">
        <ele>696.0</ele>
        <time>2019-05-04T06:32:08Z</time>
      </trkpt>
      <trkpt lat="40.4149880" lon="-3.7872750">
        <ele>695.9</ele>
        <time>2019-05-04T06:32:09Z</time>
      </trkpt>
      <trkpt lat="40.4149880" lon="-3.7872710">
        <ele>695.9</ele>
        <time>2019-05-04T06:32:10Z</time>
      </trkpt>
      <trkpt lat="40.4149810" lon="-3.7872810">
        <ele>695.9</ele>
        <time>2019-05-04T06:32:11Z</time>
      </trkpt>
      <trkpt lat="40.4149710" lon="-3.7873030">
        <ele>695.9</ele>
        <time>2019-05-04T06:32:12Z</time>
      </trkpt>
      <trkpt lat="40.4149640" lon="-3.7873360">
        <ele>695.8</ele>
        <time>2019-05-04T06:32:13Z</time>
      </trkpt>
      <trkpt lat="40.4149580" lon="-3.7873760">
        <ele>695.7</ele>
        <time>2019-05-04T06:32:14Z</time>
      </trkpt>
      <trkpt lat="40.4149520" lon="-3.7874270">
        <ele>695.6</ele>
        <time>2019-05-04T06:32:15Z</time>
      </trkpt>
      <trkpt lat="40.4149450" lon="-3.7874840">
        <ele>695.5</ele>
        <time>2019-05-04T06:32:16Z</time>
      </trkpt>
      <trkpt lat="40.4149350" lon="-3.7875420">
        <ele>695.3</ele>
        <time>2019-05-04T06:32:17Z</time>
      </trkpt>
      <trkpt lat="40.4149170" lon="-3.7875970">
        <ele>695.2</ele>
        <time>2019-05-04T06:32:18Z</time>
      </trkpt>
      <trkpt lat="40.4148900" lon="-3.7876470">
        <ele>695.0</ele>
        <time>2019-05-04T06:32:19Z</time>
      </trkpt>
      <trkpt lat="40.4148550" lon="-3.7876860">
        <ele>694.8</ele>
        <time>2019-05-04T06:32:20Z</time>
      </trkpt>
      <trkpt lat="40.4148130" lon="-3.7877090">
        <ele>694.6</ele>
        <time>2019-05-04T06:32:21Z</time>
      </trkpt>
      <trkpt lat="40.4147660" lon="-3.7877130">
        <ele>694.3</ele>
        <time>2019-05-04T06:32:22Z</time>
      </trkpt>
      <trkpt lat="40.4147190" lon="-3.7876970">
        <ele>694.0</ele>
        <time>2019-05-04T06:32:23Z</time>
      </trkpt>
      <trkpt lat="40.4146820" lon="-3.7876600">
        <ele>693.8</ele>
        <time>2019-05-04T06:32:24Z</time>
      </trkpt>
      <trkpt lat="40.4146570" lon="-3.7876050">
        <ele>693.5</ele>
        <time>2019-05-04T06:32:25Z</time>
      </trkpt>
      <trkpt lat="40.4146430" lon="-3.7875370">
        <ele>693.7</ele>
        <time>2019-05-04T06:32:26Z</time>
      </trkpt>
      <trkpt lat="40.4146330" lon="-3.7874660">
        <ele>694.0</ele>
        <time>2019-05-04T06:32:27Z</time>
      </trkpt>
      <trkpt lat="40.4146240" lon="-3.7873920">
        <ele>694.0</ele>
        <time>2019-05-04T06:32:28Z</time>
      </trkpt>
      <trkpt lat="40.4146100" lon="-3.7873140">
        <ele>694.1</ele>
        <time>2019-05-04T06:32:29Z</time>
      </trkpt>
      <trkpt lat="40.4145880" lon="-3.7872360">
        <ele>694.2</ele>
        <time>2019-05-04T06:32:30Z</time>
      </trkpt>
      <trkpt lat="40.4145620" lon="-3.7871550">
        <ele>694.3</ele>
        <time>2019-05-04T06:32:31Z</time>
      </trkpt>
      <trkpt lat="40.4145310" lon="-3.7870770">
        <ele>694.4</ele>
        <time>2019-05-04T06:32:32Z</time>
      </trkpt>
      <trkpt lat="40.4144990" lon="-3.7870000">
        <ele>694.4</ele>
        <time>2019-05-04T06:32:33Z</time>
      </trkpt>
      <trkpt lat="40.4144630" lon="-3.7869250">
        <ele>694.4</ele>
        <time>2019-05-04T06:32:34Z</time>
      </trkpt>
      <trkpt lat="40.4144260" lon="-3.7868500">
        <ele>694.2</ele>
        <time>2019-05-04T06:32:35Z</time>
      </trkpt>
      <trkpt lat="40.4143880" lon="-3.7867750">
        <ele>694.0</ele>
        <time>2019-05-04T06:32:36Z</time>
      </trkpt>
      <trkpt lat="40.4143500" lon="-3.7866990">
        <ele>693.8</ele>
        <time>2019-05-04T06:32:37Z</time>
      </trkpt>
      <trkpt lat="40.4143130" lon="-3.7866230">
        <ele>693.6</ele>
        <time>2019-05-04T06:32:38Z</time>
      </trkpt>
      <trkpt lat="40.4142750" lon="-3.7865470">
        <ele>693.4</ele>
        <time>2019-05-04T06:32:39Z</time>
      </trkpt>
      <trkpt lat="40.4142370" lon="-3.7864700">
        <ele>693.2</ele>
        <time>2019-05-04T06:32:40Z</time>
      </trkpt>
      <trkpt lat="40.4141980" lon="-3.7863940">
        <ele>693.0</ele>
        <time>2019-05-04T06:32:41Z</time>
      </trkpt>
      <trkpt lat="40.4141590" lon="-3.7863180">
        <ele>692.8</ele>
        <time>2019-05-04T06:32:42Z</time>
      </trkpt>
      <trkpt lat="40.4141190" lon="-3.7862400">
        <ele>692.6</ele>
        <time>2019-05-04T06:32:43Z</time>
      </trkpt>
      <trkpt lat="40.4140790" lon="-3.7861590">
        <ele>692.4</ele>
        <time>2019-05-04T06:32:44Z</time>
      </trkpt>
      <trkpt lat="40.4140390" lon="-3.7860780">
        <ele>692.2</ele>
        <time>2019-05-04T06:32:45Z</time>
      </trkpt>
      <trkpt lat="40.4139990" lon="-3.7859980">
        <ele>692.1</ele>
        <time>2019-05-04T06:32:46Z</time>
      </trkpt>
      <trkpt lat="40.4139590" lon="-3.7859180">
        <ele>691.9</ele>
        <time>2019-05-04T06:32:47Z</time>
      </trkpt>
      <trkpt lat="40.4139170" lon="-3.7858370">
        <ele>691.7</ele>
        <time>2019-05-04T06:32:48Z</time>
      </trkpt>
      <trkpt lat="40.4138740" lon="-3.7857550">
        <ele>691.5</ele>
        <time>2019-05-04T06:32:49Z</time>
      </trkpt>
      <trkpt lat="40.4138310" lon="-3.7856730">
        <ele>691.3</ele>
        <time>2019-05-04T06:32:50Z</time>
      </trkpt>
      <trkpt lat="40.4137900" lon="-3.7855890">
        <ele>691.2</ele>
        <time>2019-05-04T06:32:51Z</time>
      </trkpt>
      <trkpt lat="40.4137500" lon="-3.7855060">
        <ele>691.0</ele>
        <time>2019-05-04T06:32:52Z</time>
      </trkpt>
      <trkpt lat="40.4137110" lon="-3.7854220">
        <ele>690.7</ele>
        <time>2019-05-04T06:32:53Z</time>
      </trkpt>
      <trkpt lat="40.4136720" lon="-3.7853390">
        <ele>690.5</ele>
        <time>2019-05-04T06:32:54Z</time>
      </trkpt>
      <trkpt lat="40.4136330" lon="-3.7852560">
        <ele>690.4</ele>
        <time>2019-05-04T06:32:55Z</time>
      </trkpt>
      <trkpt lat="40.4135950" lon="-3.7851740">
        <ele>690.2</ele>
        <time>2019-05-04T06:32:56Z</time>
      </trkpt>
      <trkpt lat="40.4135570" lon="-3.7850910">
        <ele>690.0</ele>
        <time>2019-05-04T06:32:57Z</time>
      </trkpt>
      <trkpt lat="40.4135220" lon="-3.7850080">
        <ele>689.8</ele>
        <time>2019-05-04T06:32:58Z</time>
      </trkpt>
      <trkpt lat="40.4134890" lon="-3.7849240">
        <ele>689.6</ele>
        <time>2019-05-04T06:32:59Z</time>
      </trkpt>
      <trkpt lat="40.4134580" lon="-3.7848390">
        <ele>689.3</ele>
        <time>2019-05-04T06:33:00Z</time>
      </trkpt>
      <trkpt lat="40.4134280" lon="-3.7847530">
        <ele>689.0</ele>
        <time>2019-05-04T06:33:01Z</time>
      </trkpt>
      <trkpt lat="40.4133970" lon="-3.7846660">
        <ele>688.8</ele>
        <time>2019-05-04T06:33:02Z</time>
      </trkpt>
      <trkpt lat="40.4133660" lon="-3.7845760">
        <ele>688.6</ele>
        <time>2019-05-04T06:33:03Z</time>
      </trkpt>
      <trkpt lat="40.4133340" lon="-3.7844860">
        <ele>688.4</ele>
        <time>2019-05-04T06:33:04Z</time>
      </trkpt>
      <trkpt lat="40.4133030" lon="-3.7843930">
        <ele>688.2</ele>
        <time>2019-05-04T06:33:05Z</time>
      </trkpt>
      <trkpt lat="40.4132710" lon="-3.7842970">
        <ele>688.0</ele>
        <time>2019-05-04T06:33:06Z</time>
      </trkpt>
      <trkpt lat="40.4132400" lon="-3.7841970">
        <ele>687.8</ele>
        <time>2019-05-04T06:33:07Z</time>
      </trkpt>
      <trkpt lat="40.4132050" lon="-3.7840960">
        <ele>687.6</ele>
        <time>2019-05-04T06:33:08Z</time>
      </trkpt>
      <trkpt lat="40.4131680" lon="-3.7839940">
        <ele>687.5</ele>
        <time>2019-05-04T06:33:09Z</time>
      </trkpt>
      <trkpt lat="40.4131310" lon="-3.7838910">
        <ele>687.4</ele>
        <time>2019-05-04T06:33:10Z</time>
      </trkpt>
      <trkpt lat="40.4130950" lon="-3.7837870">
        <ele>687.2</ele>
        <time>2019-05-04T06:33:11Z</time>
      </trkpt>
      <trkpt lat="40.4130610" lon="-3.7836830">
        <ele>687.2</ele>
        <time>2019-05-04T06:33:12Z</time>
      </trkpt>
      <trkpt lat="40.4130270" lon="-3.7835780">
        <ele>687.1</ele>
        <time>2019-05-04T06:33:13Z</time>
      </trkpt>
      <trkpt lat="40.4129920" lon="-3.7834730">
        <ele>687.1</ele>
        <time>2019-05-04T06:33:14Z</time>
      </trkpt>
      <trkpt lat="40.4129570" lon="-3.7833670">
        <ele>687.0</ele>
        <time>2019-05-04T06:33:15Z</time>
      </trkpt>
      <trkpt lat="40.4129220" lon="-3.7832620">
        <ele>686.9</ele>
        <time>2019-05-04T06:33:16Z</time>
      </trkpt>
      <trkpt lat="40.4128880" lon="-3.7831560">
        <ele>686.8</ele>
        <time>2019-05-04T06:33:17Z</time>
      </trkpt>
      <trkpt lat="40.4128530" lon="-3.7830500">
        <ele>686.6</ele>
        <time>2019-05-04T06:33:18Z</time>
      </trkpt>
      <trkpt lat="40.4128180" lon="-3.7829450">
        <ele>686.5</ele>
        <time>2019-05-04T06:33:19Z</time>
      </trkpt>
      <trkpt lat="40.4127830" lon="-3.7828410">
        <ele>686.3</ele>
        <time>2019-05-04T06:33:20Z</time>
      </trkpt>
      <trkpt lat="40.4127490" lon="-3.7827370">
        <ele>686.2</ele>
        <time>2019-05-04T06:33:21Z</time>
      </trkpt>
      <trkpt lat="40.4127150" lon="-3.7826330">
        <ele>686.0</ele>
        <time>2019-05-04T06:33:22Z</time>
      </trkpt>
      <trkpt lat="40.4126810" lon="-3.7825290">
        <ele>685.8</ele>
        <time>2019-05-04T06:33:23Z</time>
      </trkpt>
      <trkpt lat="40.4126480" lon="-3.7824250">
        <ele>685.6</ele>
        <time>2019-05-04T06:33:24Z</time>
      </trkpt>
      <trkpt lat="40.4126140" lon="-3.7823210">
        <ele>685.4</ele>
        <time>2019-05-04T06:33:25Z</time>
      </trkpt>
      <trkpt lat="40.4125810" lon="-3.7822170">
        <ele>685.1</ele>
        <time>2019-05-04T06:33:26Z</time>
      </trkpt>
      <trkpt lat="40.4125470" lon="-3.7821140">
        <ele>684.8</ele>
        <time>2019-05-04T06:33:27Z</time>
      </trkpt>
      <trkpt lat="40.4125140" lon="-3.7820100">
        <ele>684.5</ele>
        <time>2019-05-04T06:33:28Z</time>
      </trkpt>
      <trkpt lat="40.4124800" lon="-3.7819060">
        <ele>684.2</ele>
        <time>2019-05-04T06:33:29Z</time>
      </trkpt>
      <trkpt lat="40.4124450" lon="-3.7818020">
        <ele>683.8</ele>
        <time>2019-05-04T06:33:30Z</time>
      </trkpt>
      <trkpt lat="40.4124110" lon="-3.7816980">
        <ele>683.6</ele>
        <time>2019-05-04T06:33:31Z</time>
      </trkpt>
      <trkpt lat="40.4123750" lon="-3.7815940">
        <ele>683.3</ele>
        <time>2019-05-04T06:33:32Z</time>
      </trkpt>
      <trkpt lat="40.4123410" lon="-3.7814890">
        <ele>683.0</ele>
        <time>2019-05-04T06:33:33Z</time>
      </trkpt>
      <trkpt lat="40.4123060" lon="-3.7813840">
        <ele>682.6</ele>
        <time>2019-05-04T06:33:34Z</time>
      </trkpt>
      <trkpt lat="40.4122710" lon="-3.7812790">
        <ele>682.2</ele>
        <time>2019-05-04T06:33:35Z</time>
      </trkpt>
      <trkpt lat="40.4122370" lon="-3.7811730">
        <ele>681.6</ele>
        <time>2019-05-04T06:33:36Z</time>
      </trkpt>
      <trkpt lat="40.4122020" lon="-3.7810680">
        <ele>681.4</ele>
        <time>2019-05-04T06:33:37Z</time>
      </trkpt>
      <trkpt lat="40.4121670" lon="-3.7809620">
        <ele>681.2</ele>
        <time>2019-05-04T06:33:38Z</time>
      </trkpt>
      <trkpt lat="40.4121330" lon="-3.7808570">
        <ele>681.0</ele>
        <time>2019-05-04T06:33:39Z</time>
      </trkpt>
      <trkpt lat="40.4121000" lon="-3.7807530">
        <ele>680.8</ele>
        <time>2019-05-04T06:33:40Z</time>
      </trkpt>
      <trkpt lat="40.4120670" lon="-3.7806520">
        <ele>680.5</ele>
        <time>2019-05-04T06:33:41Z</time>
      </trkpt>
      <trkpt lat="40.4120330" lon="-3.7805590">
        <ele>680.4</ele>
        <time>2019-05-04T06:33:42Z</time>
      </trkpt>
      <trkpt lat="40.4119960" lon="-3.7804790">
        <ele>680.3</ele>
        <time>2019-05-04T06:33:43Z</time>
      </trkpt>
      <trkpt lat="40.4119530" lon="-3.7804180">
        <ele>680.0</ele>
        <time>2019-05-04T06:33:44Z</time>
      </trkpt>
      <trkpt lat="40.4119040" lon="-3.7803750">
        <ele>679.8</ele>
        <time>2019-05-04T06:33:45Z</time>
      </trkpt>
      <trkpt lat="40.4118480" lon="-3.7803520">
        <ele>679.6</ele>
        <time>2019-05-04T06:33:46Z</time>
      </trkpt>
      <trkpt lat="40.4117840" lon="-3.7803310">
        <ele>679.4</ele>
        <time>2019-05-04T06:33:47Z</time>
      </trkpt>
      <trkpt lat="40.4117190" lon="-3.7803030">
        <ele>679.1</ele>
        <time>2019-05-04T06:33:48Z</time>
      </trkpt>
      <trkpt lat="40.4116710" lon="-3.7802510">
        <ele>678.5</ele>
        <time>2019-05-04T06:33:49Z</time>
      </trkpt>
      <trkpt lat="40.4116480" lon="-3.7801780">
        <ele>678.1</ele>
        <time>2019-05-04T06:33:50Z</time>
      </trkpt>
      <trkpt lat="40.4116490" lon="-3.7800960">
        <ele>678.3</ele>
        <time>2019-05-04T06:33:51Z</time>
      </trkpt>
      <trkpt lat="40.4116610" lon="-3.7800160">
        <ele>678.4</ele>
        <time>2019-05-04T06:33:52Z</time>
      </trkpt>
      <trkpt lat="40.4116850" lon="-3.7799480">
        <ele>678.6</ele>
        <time>2019-05-04T06:33:53Z</time>
      </trkpt>
      <trkpt lat="40.4117160" lon="-3.7798830">
        <ele>678.6</ele>
        <time>2019-05-04T06:33:54Z</time>
      </trkpt>
      <trkpt lat="40.4117460" lon="-3.7798160">
        <ele>678.6</ele>
        <time>2019-05-04T06:33:55Z</time>
      </trkpt>
      <trkpt lat="40.4117660" lon="-3.7797430">
        <ele>678.6</ele>
        <time>2019-05-04T06:33:56Z</time>
      </trkpt>
      <trkpt lat="40.4117780" lon="-3.7796690">
        <ele>678.6</ele>
        <time>2019-05-04T06:33:57Z</time>
      </trkpt>
      <trkpt lat="40.4117860" lon="-3.7795940">
        <ele>678.7</ele>
        <time>2019-05-04T06:33:58Z</time>
      </trkpt>
      <trkpt lat="40.4117930" lon="-3.7795150">
        <ele>678.7</ele>
        <time>2019-05-04T06:33:59Z</time>
      </trkpt>
      <trkpt lat="40.4118010" lon="-3.7794340">
        <ele>678.4</ele>
        <time>2019-05-04T06:34:00Z</time>
      </trkpt>
      <trkpt lat="40.4118100" lon="-3.7793460">
        <ele>678.2</ele>
        <time>2019-05-04T06:34:01Z</time>
      </trkpt>
      <trkpt lat="40.4118180" lon="-3.7792590">
        <ele>678.0</ele>
        <time>2019-05-04T06:34:02Z</time>
      </trkpt>
      <trkpt lat="40.4118280" lon="-3.7791720">
        <ele>678.2</ele>
        <time>2019-05-04T06:34:03Z</time>
      </trkpt>
      <trkpt lat="40.4118390" lon="-3.7790870">
        <ele>678.3</ele>
        <time>2019-05-04T06:34:04Z</time>
      </trkpt>
      <trkpt lat="40.4118500" lon="-3.7790050">
        <ele>678.4</ele>
        <time>2019-05-04T06:34:05Z</time>
      </trkpt>
      <trkpt lat="40.4118580" lon="-3.7789280">
        <ele>678.5</ele>
        <time>2019-05-04T06:34:06Z</time>
      </trkpt>
      <trkpt lat="40.4118640" lon="-3.7788550">
        <ele>678.6</ele>
        <time>2019-05-04T06:34:07Z</time>
      </trkpt>
      <trkpt lat="40.4118670" lon="-3.7787850">
        <ele>678.7</ele>
        <time>2019-05-04T06:34:08Z</time>
      </trkpt>
      <trkpt lat="40.4118660" lon="-3.7787160">
        <ele>678.7</ele>
        <time>2019-05-04T06:34:09Z</time>
      </trkpt>
      <trkpt lat="40.4118620" lon="-3.7786480">
        <ele>678.7</ele>
        <time>2019-05-04T06:34:10Z</time>
      </trkpt>
      <trkpt lat="40.4118560" lon="-3.7785800">
        <ele>678.7</ele>
        <time>2019-05-04T06:34:11Z</time>
      </trkpt>
      <trkpt lat="40.4118530" lon="-3.7785120">
        <ele>678.7</ele>
        <time>2019-05-04T06:34:12Z</time>
      </trkpt>
      <trkpt lat="40.4118540" lon="-3.7784500">
        <ele>678.6</ele>
        <time>2019-05-04T06:34:13Z</time>
      </trkpt>
      <trkpt lat="40.4118560" lon="-3.7783920">
        <ele>678.6</ele>
        <time>2019-05-04T06:34:14Z</time>
      </trkpt>
      <trkpt lat="40.4118550" lon="-3.7783390">
        <ele>678.6</ele>
        <time>2019-05-04T06:34:15Z</time>
      </trkpt>
      <trkpt lat="40.4118470" lon="-3.7782850">
        <ele>678.6</ele>
        <time>2019-05-04T06:34:16Z</time>
      </trkpt>
      <trkpt lat="40.4118360" lon="-3.7782310">
        <ele>678.5</ele>
        <time>2019-05-04T06:34:17Z</time>
      </trkpt>
      <trkpt lat="40.4118250" lon="-3.7781700">
        <ele>678.5</ele>
        <time>2019-05-04T06:34:18Z</time>
      </trkpt>
      <trkpt lat="40.4118170" lon="-3.7781040">
        <ele>678.4</ele>
        <time>2019-05-04T06:34:19Z</time>
      </trkpt>
      <trkpt lat="40.4118090" lon="-3.7780260">
        <ele>678.4</ele>
        <time>2019-05-04T06:34:20Z</time>
      </trkpt>
      <trkpt lat="40.4118000" lon="-3.7779450">
        <ele>678.2</ele>
        <time>2019-05-04T06:34:21Z</time>
      </trkpt>
      <trkpt lat="40.4117900" lon="-3.7778600">
        <ele>678.0</ele>
        <time>2019-05-04T06:34:22Z</time>
      </trkpt>
      <trkpt lat="40.4117820" lon="-3.7777760">
        <ele>677.8</ele>
        <time>2019-05-04T06:34:23Z</time>
      </trkpt>
      <trkpt lat="40.4117750" lon="-3.7776890">
        <ele>677.6</ele>
        <time>2019-05-04T06:34:24Z</time>
      </trkpt>
      <trkpt lat="40.4117700" lon="-3.7776010">
        <ele>677.5</ele>
        <time>2019-05-04T06:34:25Z</time>
      </trkpt>
      <trkpt lat="40.4117650" lon="-3.7775150">
        <ele>677.4</ele>
        <time>2019-05-04T06:34:26Z</time>
      </trkpt>
      <trkpt lat="40.4117590" lon="-3.7774300">
        <ele>677.9</ele>
        <time>2019-05-04T06:34:27Z</time>
      </trkpt>
      <trkpt lat="40.4117500" lon="-3.7773440">
        <ele>678.0</ele>
        <time>2019-05-04T06:34:28Z</time>
      </trkpt>
      <trkpt lat="40.4117410" lon="-3.7772560">
        <ele>677.8</ele>
        <time>2019-05-04T06:34:29Z</time>
      </trkpt>
      <trkpt lat="40.4117310" lon="-3.7771640">
        <ele>677.4</ele>
        <time>2019-05-04T06:34:30Z</time>
      </trkpt>
      <trkpt lat="40.4117220" lon="-3.7770720">
        <ele>677.0</ele>
        <time>2019-05-04T06:34:31Z</time>
      </trkpt>
      <trkpt lat="40.4117170" lon="-3.7769810">
        <ele>676.9</ele>
        <time>2019-05-04T06:34:32Z</time>
      </trkpt>
      <trkpt lat="40.4117150" lon="-3.7768900">
        <ele>677.0</ele>
        <time>2019-05-04T06:34:33Z</time>
      </trkpt>
      <trkpt lat="40.4117130" lon="-3.7767980">
        <ele>677.1</ele>
        <time>2019-05-04T06:34:34Z</time>
      </trkpt>
      <trkpt lat="40.4117100" lon="-3.7767050">
        <ele>677.2</ele>
        <time>2019-05-04T06:34:35Z</time>
      </trkpt>
      <trkpt lat="40.4117050" lon="-3.7766150">
        <ele>677.1</ele>
        <time>2019-05-04T06:34:36Z</time>
      </trkpt>
      <trkpt lat="40.4117030" lon="-3.7765300">
        <ele>677.0</ele>
        <time>2019-05-04T06:34:37Z</time>
      </trkpt>
      <trkpt lat="40.4117020" lon="-3.7764470">
        <ele>676.7</ele>
        <time>2019-05-04T06:34:38Z</time>
      </trkpt>
      <trkpt lat="40.4117010" lon="-3.7763610">
        <ele>676.5</ele>
        <time>2019-05-04T06:34:39Z</time>
      </trkpt>
      <trkpt lat="40.4117010" lon="-3.7762700">
        <ele>676.2</ele>
        <time>2019-05-04T06:34:40Z</time>
      </trkpt>
      <trkpt lat="40.4117010" lon="-3.7761750">
        <ele>676.0</ele>
        <time>2019-05-04T06:34:41Z</time>
      </trkpt>
      <trkpt lat="40.4117000" lon="-3.7760820">
        <ele>675.8</ele>
        <time>2019-05-04T06:34:42Z</time>
      </trkpt>
      <trkpt lat="40.4116970" lon="-3.7759890">
        <ele>675.7</ele>
        <time>2019-05-04T06:34:43Z</time>
      </trkpt>
      <trkpt lat="40.4116960" lon="-3.7758970">
        <ele>675.6</ele>
        <time>2019-05-04T06:34:44Z</time>
      </trkpt>
      <trkpt lat="40.4116960" lon="-3.7758030">
        <ele>675.5</ele>
        <time>2019-05-04T06:34:45Z</time>
      </trkpt>
      <trkpt lat="40.4116960" lon="-3.7757080">
        <ele>675.4</ele>
        <time>2019-05-04T06:34:46Z</time>
      </trkpt>
      <trkpt lat="40.4116930" lon="-3.7756140">
        <ele>675.3</ele>
        <time>2019-05-04T06:34:47Z</time>
      </trkpt>
      <trkpt lat="40.4116870" lon="-3.7755190">
        <ele>675.2</ele>
        <time>2019-05-04T06:34:48Z</time>
      </trkpt>
      <trkpt lat="40.4116840" lon="-3.7754200">
        <ele>675.1</ele>
        <time>2019-05-04T06:34:49Z</time>
      </trkpt>
      <trkpt lat="40.4116830" lon="-3.7753190">
        <ele>675.0</ele>
        <time>2019-05-04T06:34:50Z</time>
      </trkpt>
      <trkpt lat="40.4116860" lon="-3.7752170">
        <ele>674.9</ele>
        <time>2019-05-04T06:34:51Z</time>
      </trkpt>
      <trkpt lat="40.4116930" lon="-3.7751160">
        <ele>674.7</ele>
        <time>2019-05-04T06:34:52Z</time>
      </trkpt>
      <trkpt lat="40.4117020" lon="-3.7750170">
        <ele>674.6</ele>
        <time>2019-05-04T06:34:53Z</time>
      </trkpt>
      <trkpt lat="40.4117120" lon="-3.7749190">
        <ele>674.5</ele>
        <time>2019-05-04T06:34:54Z</time>
      </trkpt>
      <trkpt lat="40.4117230" lon="-3.7748210">
        <ele>674.4</ele>
        <time>2019-05-04T06:34:55Z</time>
      </trkpt>
      <trkpt lat="40.4117370" lon="-3.7747220">
        <ele>674.2</ele>
        <time>2019-05-04T06:34:56Z</time>
      </trkpt>
      <trkpt lat="40.4117510" lon="-3.7746230">
        <ele>674.1</ele>
        <time>2019-05-04T06:34:57Z</time>
      </trkpt>
      <trkpt lat="40.4117660" lon="-3.7745260">
        <ele>674.0</ele>
        <time>2019-05-04T06:34:58Z</time>
      </trkpt>
      <trkpt lat="40.4117780" lon="-3.7744310">
        <ele>673.9</ele>
        <time>2019-05-04T06:34:59Z</time>
      </trkpt>
      <trkpt lat="40.4117910" lon="-3.7743370">
        <ele>673.8</ele>
        <time>2019-05-04T06:35:00Z</time>
      </trkpt>
      <trkpt lat="40.4118030" lon="-3.7742420">
        <ele>673.8</ele>
        <time>2019-05-04T06:35:01Z</time>
      </trkpt>
      <trkpt lat="40.4118180" lon="-3.7741450">
        <ele>673.7</ele>
        <time>2019-05-04T06:35:02Z</time>
      </trkpt>
      <trkpt lat="40.4118360" lon="-3.7740440">
        <ele>673.5</ele>
        <time>2019-05-04T06:35:03Z</time>
      </trkpt>
      <trkpt lat="40.4118570" lon="-3.7739430">
        <ele>673.3</ele>
        <time>2019-05-04T06:35:04Z</time>
      </trkpt>
      <trkpt lat="40.4118800" lon="-3.7738450">
        <ele>673.2</ele>
        <time>2019-05-04T06:35:05Z</time>
      </trkpt>
      <trkpt lat="40.4119020" lon="-3.7737470">
        <ele>672.9</ele>
        <time>2019-05-04T06:35:06Z</time>
      </trkpt>
      <trkpt lat="40.4119250" lon="-3.7736500">
        <ele>672.6</ele>
        <time>2019-05-04T06:35:07Z</time>
      </trkpt>
      <trkpt lat="40.4119510" lon="-3.7735520">
        <ele>672.3</ele>
        <time>2019-05-04T06:35:08Z</time>
      </trkpt>
      <trkpt lat="40.4119760" lon="-3.7734540">
        <ele>672.1</ele>
        <time>2019-05-04T06:35:09Z</time>
      </trkpt>
      <trkpt lat="40.4120030" lon="-3.7733560">
        <ele>671.9</ele>
        <time>2019-05-04T06:35:10Z</time>
      </trkpt>
      <trkpt lat="40.4120290" lon="-3.7732570">
        <ele>671.7</ele>
        <time>2019-05-04T06:35:11Z</time>
      </trkpt>
      <trkpt lat="40.4120570" lon="-3.7731600">
        <ele>671.5</ele>
        <time>2019-05-04T06:35:12Z</time>
      </trkpt>
      <trkpt lat="40.4120830" lon="-3.7730640">
        <ele>671.4</ele>
        <time>2019-05-04T06:35:13Z</time>
      </trkpt>
      <trkpt lat="40.4121080" lon="-3.7729680">
        <ele>671.2</ele>
        <time>2019-05-04T06:35:14Z</time>
      </trkpt>
      <trkpt lat="40.4121310" lon="-3.7728700">
        <ele>671.1</ele>
        <time>2019-05-04T06:35:15Z</time>
      </trkpt>
      <trkpt lat="40.4121520" lon="-3.7727690">
        <ele>671.0</ele>
        <time>2019-05-04T06:35:16Z</time>
      </trkpt>
      <trkpt lat="40.4121690" lon="-3.7726650">
        <ele>670.9</ele>
        <time>2019-05-04T06:35:17Z</time>
      </trkpt>
      <trkpt lat="40.4121830" lon="-3.7725610">
        <ele>670.8</ele>
        <time>2019-05-04T06:35:18Z</time>
      </trkpt>
      <trkpt lat="40.4121950" lon="-3.7724570">
        <ele>670.7</ele>
        <time>2019-05-04T06:35:19Z</time>
      </trkpt>
      <trkpt lat="40.4122070" lon="-3.7723550">
        <ele>670.5</ele>
        <time>2019-05-04T06:35:20Z</time>
      </trkpt>
      <trkpt lat="40.4122150" lon="-3.7722530">
        <ele>670.3</ele>
        <time>2019-05-04T06:35:21Z</time>
      </trkpt>
      <trkpt lat="40.4122250" lon="-3.7721520">
        <ele>670.1</ele>
        <time>2019-05-04T06:35:22Z</time>
      </trkpt>
      <trkpt lat="40.4122360" lon="-3.7720510">
        <ele>669.9</ele>
        <time>2019-05-04T06:35:23Z</time>
      </trkpt>
      <trkpt lat="40.4122470" lon="-3.7719470">
        <ele>669.6</ele>
        <time>2019-05-04T06:35:24Z</time>
      </trkpt>
      <trkpt lat="40.4122550" lon="-3.7718380">
        <ele>669.2</ele>
        <time>2019-05-04T06:35:25Z</time>
      </trkpt>
      <trkpt lat="40.4122630" lon="-3.7717280">
        <ele>668.8</ele>
        <time>2019-05-04T06:35:26Z</time>
      </trkpt>
      <trkpt lat="40.4122710" lon="-3.7716230">
        <ele>668.4</ele>
        <time>2019-05-04T06:35:27Z</time>
      </trkpt>
      <trkpt lat="40.4122810" lon="-3.7715220">
        <ele>668.0</ele>
        <time>2019-05-04T06:35:28Z</time>
      </trkpt>
      <trkpt lat="40.4122880" lon="-3.7714200">
        <ele>667.6</ele>
        <time>2019-05-04T06:35:29Z</time>
      </trkpt>
      <trkpt lat="40.4122850" lon="-3.7713130">
        <ele>667.1</ele>
        <time>2019-05-04T06:35:30Z</time>
      </trkpt>
      <trkpt lat="40.4122800" lon="-3.7712060">
        <ele>666.6</ele>
        <time>2019-05-04T06:35:31Z</time>
      </trkpt>
      <trkpt lat="40.4122710" lon="-3.7710970">
        <ele>666.1</ele>
        <time>2019-05-04T06:35:32Z</time>
      </trkpt>
      <trkpt lat="40.4122660" lon="-3.7709890">
        <ele>665.6</ele>
        <time>2019-05-04T06:35:33Z</time>
      </trkpt>
      <trkpt lat="40.4122600" lon="-3.7708790">
        <ele>665.3</ele>
        <time>2019-05-04T06:35:34Z</time>
      </trkpt>
      <trkpt lat="40.4122540" lon="-3.7707700">
        <ele>665.1</ele>
        <time>2019-05-04T06:35:35Z</time>
      </trkpt>
      <trkpt lat="40.4122480" lon="-3.7706570">
        <ele>664.7</ele>
        <time>2019-05-04T06:35:36Z</time>
      </trkpt>
      <trkpt lat="40.4122450" lon="-3.7705440">
        <ele>664.2</ele>
        <time>2019-05-04T06:35:37Z</time>
      </trkpt>
      <trkpt lat="40.4122420" lon="-3.7704340">
        <ele>663.8</ele>
        <time>2019-05-04T06:35:38Z</time>
      </trkpt>
      <trkpt lat="40.4122400" lon="-3.7703270">
        <ele>663.4</ele>
        <time>2019-05-04T06:35:39Z</time>
      </trkpt>
      <trkpt lat="40.4122380" lon="-3.7702150">
        <ele>663.1</ele>
        <time>2019-05-04T06:35:40Z</time>
      </trkpt>
      <trkpt lat="40.4122360" lon="-3.7701020">
        <ele>662.8</ele>
        <time>2019-05-04T06:35:41Z</time>
      </trkpt>
      <trkpt lat="40.4122340" lon="-3.7699860">
        <ele>662.4</ele>
        <time>2019-05-04T06:35:42Z</time>
      </trkpt>
      <trkpt lat="40.4122300" lon="-3.7698730">
        <ele>661.9</ele>
        <time>2019-05-04T06:35:43Z</time>
      </trkpt>
      <trkpt lat="40.4122270" lon="-3.7697600">
        <ele>661.2</ele>
        <time>2019-05-04T06:35:44Z</time>
      </trkpt>
      <trkpt lat="40.4122260" lon="-3.7696480">
        <ele>661.4</ele>
        <time>2019-05-04T06:35:45Z</time>
      </trkpt>
      <trkpt lat="40.4122260" lon="-3.7695370">
        <ele>661.6</ele>
        <time>2019-05-04T06:35:46Z</time>
      </trkpt>
      <trkpt lat="40.4122260" lon="-3.7694270">
        <ele>661.8</ele>
        <time>2019-05-04T06:35:47Z</time>
      </trkpt>
      <trkpt lat="40.4122270" lon="-3.7693150">
        <ele>662.1</ele>
        <time>2019-05-04T06:35:48Z</time>
      </trkpt>
      <trkpt lat="40.4122300" lon="-3.7692030">
        <ele>661.6</ele>
        <time>2019-05-04T06:35:49Z</time>
      </trkpt>
      <trkpt lat="40.4122340" lon="-3.7690890">
        <ele>661.1</ele>
        <time>2019-05-04T06:35:50Z</time>
      </trkpt>
      <trkpt lat="40.4122390" lon="-3.7689730">
        <ele>660.5</ele>
        <time>2019-05-04T06:35:51Z</time>
      </trkpt>
      <trkpt lat="40.4122470" lon="-3.7688510">
        <ele>660.0</ele>
        <time>2019-05-04T06:35:52Z</time>
      </trkpt>
      <trkpt lat="40.4122600" lon="-3.7687260">
        <ele>659.5</ele>
        <time>2019-05-04T06:35:53Z</time>
      </trkpt>
      <trkpt lat="40.4122750" lon="-3.7685980">
        <ele>658.8</ele>
        <time>2019-05-04T06:35:54Z</time>
      </trkpt>
      <trkpt lat="40.4122900" lon="-3.7684710">
        <ele>658.3</ele>
        <time>2019-05-04T06:35:55Z</time>
      </trkpt>
      <trkpt lat="40.4123060" lon="-3.7683430">
        <ele>657.7</ele>
        <time>2019-05-04T06:35:56Z</time>
      </trkpt>
      <trkpt lat="40.4123230" lon="-3.7682140">
        <ele>657.0</ele>
        <time>2019-05-04T06:35:57Z</time>
      </trkpt>
      <trkpt lat="40.4123390" lon="-3.7680820">
        <ele>656.3</ele>
        <time>2019-05-04T06:35:58Z</time>
      </trkpt>
      <trkpt lat="40.4123540" lon="-3.7679480">
        <ele>655.5</ele>
        <time>2019-05-04T06:35:59Z</time>
      </trkpt>
      <trkpt lat="40.4123720" lon="-3.7678130">
        <ele>654.7</ele>
        <time>2019-05-04T06:36:00Z</time>
      </trkpt>
      <trkpt lat="40.4123920" lon="-3.7676780">
        <ele>653.9</ele>
        <time>2019-05-04T06:36:01Z</time>
      </trkpt>
      <trkpt lat="40.4124190" lon="-3.7675470">
        <ele>653.0</ele>
        <time>2019-05-04T06:36:02Z</time>
      </trkpt>
      <trkpt lat="40.4124510" lon="-3.7674190">
        <ele>652.1</ele>
        <time>2019-05-04T06:36:03Z</time>
      </trkpt>
      <trkpt lat="40.4124950" lon="-3.7672900">
        <ele>651.4</ele>
        <time>2019-05-04T06:36:04Z</time>
      </trkpt>
      <trkpt lat="40.4125470" lon="-3.7671570">
        <ele>650.6</ele>
        <time>2019-05-04T06:36:05Z</time>
      </trkpt>
      <trkpt lat="40.4126060" lon="-3.7670190">
        <ele>650.0</ele>
        <time>2019-05-04T06:36:06Z</time>
      </trkpt>
      <trkpt lat="40.4126640" lon="-3.7668790">
        <ele>649.4</ele>
        <time>2019-05-04T06:36:07Z</time>
      </trkpt>
      <trkpt lat="40.4127230" lon="-3.7667390">
        <ele>648.9</ele>
        <time>2019-05-04T06:36:08Z</time>
      </trkpt>
      <trkpt lat="40.4127800" lon="-3.7665980">
        <ele>648.4</ele>
        <time>2019-05-04T06:36:09Z</time>
      </trkpt>
      <trkpt lat="40.4128350" lon="-3.7664590">
        <ele>648.1</ele>
        <time>2019-05-04T06:36:10Z</time>
      </trkpt>
      <trkpt lat="40.4128840" lon="-3.7663210">
        <ele>648.1</ele>
        <time>2019-05-04T06:36:11Z</time>
      </trkpt>
      <trkpt lat="40.4129290" lon="-3.7661820">
        <ele>648.3</ele>
        <time>2019-05-04T06:36:12Z</time>
      </trkpt>
      <trkpt lat="40.4129690" lon="-3.7660430">
        <ele>648.1</ele>
        <time>2019-05-04T06:36:13Z</time>
      </trkpt>
      <trkpt lat="40.4130060" lon="-3.7659030">
        <ele>647.8</ele>
        <time>2019-05-04T06:36:14Z</time>
      </trkpt>
      <trkpt lat="40.4130370" lon="-3.7657640">
        <ele>647.6</ele>
        <time>2019-05-04T06:36:15Z</time>
      </trkpt>
      <trkpt lat="40.4130630" lon="-3.7656250">
        <ele>647.6</ele>
        <time>2019-05-04T06:36:16Z</time>
      </trkpt>
      <trkpt lat="40.4130850" lon="-3.7654880">
        <ele>647.4</ele>
        <time>2019-05-04T06:36:17Z</time>
      </trkpt>
      <trkpt lat="40.4131050" lon="-3.7653490">
        <ele>647.0</ele>
        <time>2019-05-04T06:36:18Z</time>
      </trkpt>
      <trkpt lat="40.4131280" lon="-3.7652130">
        <ele>646.5</ele>
        <time>2019-05-04T06:36:19Z</time>
      </trkpt>
      <trkpt lat="40.4131490" lon="-3.7650790">
        <ele>646.0</ele>
        <time>2019-05-04T06:36:20Z</time>
      </trkpt>
      <trkpt lat="40.4131680" lon="-3.7649490">
        <ele>645.7</ele>
        <time>2019-05-04T06:36:21Z</time>
      </trkpt>
      <trkpt lat="40.4131870" lon="-3.7648220">
        <ele>645.5</ele>
        <time>2019-05-04T06:36:22Z</time>
      </trkpt>
      <trkpt lat="40.4132070" lon="-3.7646960">
        <ele>645.2</ele>
        <time>2019-05-04T06:36:23Z</time>
      </trkpt>
      <trkpt lat="40.4132290" lon="-3.7645690">
        <ele>644.8</ele>
        <time>2019-05-04T06:36:24Z</time>
      </trkpt>
      <trkpt lat="40.4132520" lon="-3.7644400">
        <ele>644.1</ele>
        <time>2019-05-04T06:36:25Z</time>
      </trkpt>
      <trkpt lat="40.4132760" lon="-3.7643100">
        <ele>643.3</ele>
        <time>2019-05-04T06:36:26Z</time>
      </trkpt>
      <trkpt lat="40.4132980" lon="-3.7641780">
        <ele>642.3</ele>
        <time>2019-05-04T06:36:27Z</time>
      </trkpt>
      <trkpt lat="40.4133190" lon="-3.7640440">
        <ele>641.4</ele>
        <time>2019-05-04T06:36:28Z</time>
      </trkpt>
      <trkpt lat="40.4133400" lon="-3.7639080">
        <ele>640.7</ele>
        <time>2019-05-04T06:36:29Z</time>
      </trkpt>
      <trkpt lat="40.4133610" lon="-3.7637690">
        <ele>640.2</ele>
        <time>2019-05-04T06:36:30Z</time>
      </trkpt>
      <trkpt lat="40.4133830" lon="-3.7636290">
        <ele>639.6</ele>
        <time>2019-05-04T06:36:31Z</time>
      </trkpt>
      <trkpt lat="40.4134020" lon="-3.7634870">
        <ele>639.1</ele>
        <time>2019-05-04T06:36:32Z</time>
      </trkpt>
      <trkpt lat="40.4134220" lon="-3.7633430">
        <ele>638.6</ele>
        <time>2019-05-04T06:36:33Z</time>
      </trkpt>
      <trkpt lat="40.4134400" lon="-3.7631980">
        <ele>638.0</ele>
        <time>2019-05-04T06:36:34Z</time>
      </trkpt>
      <trkpt lat="40.4134610" lon="-3.7630510">
        <ele>637.4</ele>
        <time>2019-05-04T06:36:35Z</time>
      </trkpt>
      <trkpt lat="40.4134800" lon="-3.7629040">
        <ele>636.8</ele>
        <time>2019-05-04T06:36:36Z</time>
      </trkpt>
      <trkpt lat="40.4134980" lon="-3.7627600">
        <ele>636.2</ele>
        <time>2019-05-04T06:36:37Z</time>
      </trkpt>
      <trkpt lat="40.4135090" lon="-3.7626160">
        <ele>635.8</ele>
        <time>2019-05-04T06:36:38Z</time>
      </trkpt>
      <trkpt lat="40.4135080" lon="-3.7624710">
        <ele>635.4</ele>
        <time>2019-05-04T06:36:39Z</time>
      </trkpt>
      <trkpt lat="40.4134950" lon="-3.7623260">
        <ele>635.1</ele>
        <time>2019-05-04T06:36:40Z</time>
      </trkpt>
      <trkpt lat="40.4134720" lon="-3.7621800">
        <ele>634.8</ele>
        <time>2019-05-04T06:36:41Z</time>
      </trkpt>
      <trkpt lat="40.4134480" lon="-3.7620340">
        <ele>634.4</ele>
        <time>2019-05-04T06:36:42Z</time>
      </trkpt>
      <trkpt lat="40.4134240" lon="-3.7618880">
        <ele>634.1</ele>
        <time>2019-05-04T06:36:43Z</time>
      </trkpt>
      <trkpt lat="40.4134080" lon="-3.7617440">
        <ele>633.8</ele>
        <time>2019-05-04T06:36:44Z</time>
      </trkpt>
      <trkpt lat="40.4133940" lon="-3.7616010">
        <ele>633.5</ele>
        <time>2019-05-04T06:36:45Z</time>
      </trkpt>
      <trkpt lat="40.4133820" lon="-3.7614580">
        <ele>633.1</ele>
        <time>2019-05-04T06:36:46Z</time>
      </trkpt>
      <trkpt lat="40.4133700" lon="-3.7613160">
        <ele>632.8</ele>
        <time>2019-05-04T06:36:47Z</time>
      </trkpt>
      <trkpt lat="40.4133650" lon="-3.7611760">
        <ele>632.5</ele>
        <time>2019-05-04T06:36:48Z</time>
      </trkpt>
      <trkpt lat="40.4133620" lon="-3.7610390">
        <ele>632.4</ele>
        <time>2019-05-04T06:36:49Z</time>
      </trkpt>
      <trkpt lat="40.4133620" lon="-3.7609040">
        <ele>632.4</ele>
        <time>2019-05-04T06:36:50Z</time>
      </trkpt>
      <trkpt lat="40.4133620" lon="-3.7607740">
        <ele>632.2</ele>
        <time>2019-05-04T06:36:51Z</time>
      </trkpt>
      <trkpt lat="40.4133610" lon="-3.7606480">
        <ele>632.1</ele>
        <time>2019-05-04T06:36:52Z</time>
      </trkpt>
      <trkpt lat="40.4133610" lon="-3.7605240">
        <ele>631.9</ele>
        <time>2019-05-04T06:36:53Z</time>
      </trkpt>
      <trkpt lat="40.4133600" lon="-3.7604020">
        <ele>631.8</ele>
        <time>2019-05-04T06:36:54Z</time>
      </trkpt>
      <trkpt lat="40.4133620" lon="-3.7602800">
        <ele>631.8</ele>
        <time>2019-05-04T06:36:55Z</time>
      </trkpt>
      <trkpt lat="40.4133670" lon="-3.7601580">
        <ele>631.8</ele>
        <time>2019-05-04T06:36:56Z</time>
      </trkpt>
      <trkpt lat="40.4133740" lon="-3.7600370">
        <ele>631.8</ele>
        <time>2019-05-04T06:36:57Z</time>
      </trkpt>
      <trkpt lat="40.4133820" lon="-3.7599150">
        <ele>631.8</ele>
        <time>2019-05-04T06:36:58Z</time>
      </trkpt>
      <trkpt lat="40.4133860" lon="-3.7597920">
        <ele>631.7</ele>
        <time>2019-05-04T06:36:59Z</time>
      </trkpt>
      <trkpt lat="40.4133880" lon="-3.7596680">
        <ele>631.7</ele>
        <time>2019-05-04T06:37:00Z</time>
      </trkpt>
      <trkpt lat="40.4133890" lon="-3.7595450">
        <ele>631.6</ele>
        <time>2019-05-04T06:37:01Z</time>
      </trkpt>
      <trkpt lat="40.4133860" lon="-3.7594240">
        <ele>631.5</ele>
        <time>2019-05-04T06:37:02Z</time>
      </trkpt>
      <trkpt lat="40.4133790" lon="-3.7593040">
        <ele>631.3</ele>
        <time>2019-05-04T06:37:03Z</time>
      </trkpt>
      <trkpt lat="40.4133690" lon="-3.7591850">
        <ele>631.0</ele>
        <time>2019-05-04T06:37:04Z</time>
      </trkpt>
      <trkpt lat="40.4133540" lon="-3.7590630">
        <ele>630.5</ele>
        <time>2019-05-04T06:37:05Z</time>
      </trkpt>
      <trkpt lat="40.4133350" lon="-3.7589420">
        <ele>630.1</ele>
        <time>2019-05-04T06:37:06Z</time>
      </trkpt>
      <trkpt lat="40.4133130" lon="-3.7588220">
        <ele>629.9</ele>
        <time>2019-05-04T06:37:07Z</time>
      </trkpt>
      <trkpt lat="40.4132940" lon="-3.7587060">
        <ele>629.8</ele>
        <time>2019-05-04T06:37:08Z</time>
      </trkpt>
      <trkpt lat="40.4132730" lon="-3.7585890">
        <ele>629.6</ele>
        <time>2019-05-04T06:37:09Z</time>
      </trkpt>
      <trkpt lat="40.4132520" lon="-3.7584730">
        <ele>629.2</ele>
        <time>2019-05-04T06:37:10Z</time>
      </trkpt>
      <trkpt lat="40.4132310" lon="-3.7583560">
        <ele>628.8</ele>
        <time>2019-05-04T06:37:11Z</time>
      </trkpt>
      <trkpt lat="40.4132120" lon="-3.7582400">
        <ele>628.5</ele>
        <time>2019-05-04T06:37:12Z</time>
      </trkpt>
      <trkpt lat="40.4131970" lon="-3.7581230">
        <ele>628.3</ele>
        <time>2019-05-04T06:37:13Z</time>
      </trkpt>
      <trkpt lat="40.4131860" lon="-3.7580080">
        <ele>628.3</ele>
        <time>2019-05-04T06:37:14Z</time>
      </trkpt>
      <trkpt lat="40.4131800" lon="-3.7578920">
        <ele>628.0</ele>
        <time>2019-05-04T06:37:15Z</time>
      </trkpt>
      <trkpt lat="40.4131820" lon="-3.7577750">
        <ele>627.7</ele>
        <time>2019-05-04T06:37:16Z</time>
      </trkpt>
      <trkpt lat="40.4131960" lon="-3.7576620">
        <ele>627.5</ele>
        <time>2019-05-04T06:37:17Z</time>
      </trkpt>
      <trkpt lat="40.4132250" lon="-3.7575530">
        <ele>627.3</ele>
        <time>2019-05-04T06:37:18Z</time>
      </trkpt>
      <trkpt lat="40.4132660" lon="-3.7574500">
        <ele>627.1</ele>
        <time>2019-05-04T06:37:19Z</time>
      </trkpt>
      <trkpt lat="40.4133200" lon="-3.7573570">
        <ele>627.2</ele>
        <time>2019-05-04T06:37:20Z</time>
      </trkpt>
      <trkpt lat="40.4133740" lon="-3.7572660">
        <ele>627.3</ele>
        <time>2019-05-04T06:37:21Z</time>
      </trkpt>
      <trkpt lat="40.4134290" lon="-3.7571770">
        <ele>627.5</ele>
        <time>2019-05-04T06:37:22Z</time>
      </trkpt>
      <trkpt lat="40.4134810" lon="-3.7570800">
        <ele>627.7</ele>
        <time>2019-05-04T06:37:23Z</time>
      </trkpt>
      <trkpt lat="40.4135310" lon="-3.7569810">
        <ele>627.8</ele>
        <time>2019-05-04T06:37:24Z</time>
      </trkpt>
      <trkpt lat="40.4135750" lon="-3.7568790">
        <ele>627.9</ele>
        <time>2019-05-04T06:37:25Z</time>
      </trkpt>
      <trkpt lat="40.4136150" lon="-3.7567750">
        <ele>628.0</ele>
        <time>2019-05-04T06:37:26Z</time>
      </trkpt>
      <trkpt lat="40.4136540" lon="-3.7566710">
        <ele>627.7</ele>
        <time>2019-05-04T06:37:27Z</time>
      </trkpt>
      <trkpt lat="40.4136940" lon="-3.7565690">
        <ele>627.5</ele>
        <time>2019-05-04T06:37:28Z</time>
      </trkpt>
      <trkpt lat="40.4137350" lon="-3.7564690">
        <ele>627.3</ele>
        <time>2019-05-04T06:37:29Z</time>
      </trkpt>
      <trkpt lat="40.4137780" lon="-3.7563720">
        <ele>627.1</ele>
        <time>2019-05-04T06:37:30Z</time>
      </trkpt>
      <trkpt lat="40.4138210" lon="-3.7562730">
        <ele>626.9</ele>
        <time>2019-05-04T06:37:31Z</time>
      </trkpt>
      <trkpt lat="40.4138660" lon="-3.7561760">
        <ele>626.6</ele>
        <time>2019-05-04T06:37:32Z</time>
      </trkpt>
      <trkpt lat="40.4139120" lon="-3.7560800">
        <ele>626.4</ele>
        <time>2019-05-04T06:37:33Z</time>
      </trkpt>
      <trkpt lat="40.4139630" lon="-3.7559860">
        <ele>626.2</ele>
        <time>2019-05-04T06:37:34Z</time>
      </trkpt>
      <trkpt lat="40.4140150" lon="-3.7558940">
        <ele>626.1</ele>
        <time>2019-05-04T06:37:35Z</time>
      </trkpt>
      <trkpt lat="40.4140680" lon="-3.7558040">
        <ele>626.1</ele>
        <time>2019-05-04T06:37:36Z</time>
      </trkpt>
      <trkpt lat="40.4141240" lon="-3.7557160">
        <ele>626.1</ele>
        <time>2019-05-04T06:37:37Z</time>
      </trkpt>
      <trkpt lat="40.4141800" lon="-3.7556300">
        <ele>626.1</ele>
        <time>2019-05-04T06:37:38Z</time>
      </trkpt>
      <trkpt lat="40.4142380" lon="-3.7555460">
        <ele>626.0</ele>
        <time>2019-05-04T06:37:39Z</time>
      </trkpt>
      <trkpt lat="40.4142960" lon="-3.7554640">
        <ele>626.0</ele>
        <time>2019-05-04T06:37:40Z</time>
      </trkpt>
      <trkpt lat="40.4143560" lon="-3.7553830">
        <ele>626.0</ele>
        <time>2019-05-04T06:37:41Z</time>
      </trkpt>
      <trkpt lat="40.4144170" lon="-3.7553020">
        <ele>625.9</ele>
        <time>2019-05-04T06:37:42Z</time>
      </trkpt>
      <trkpt lat="40.4144770" lon="-3.7552200">
        <ele>625.9</ele>
        <time>2019-05-04T06:37:43Z</time>
      </trkpt>
      <trkpt lat="40.4145360" lon="-3.7551370">
        <ele>625.9</ele>
        <time>2019-05-04T06:37:44Z</time>
      </trkpt>
      <trkpt lat="40.4145940" lon="-3.7550530">
        <ele>625.8</ele>
        <time>2019-05-04T06:37:45Z</time>
      </trkpt>
      <trkpt lat="40.4146500" lon="-3.7549660">
        <ele>625.8</ele>
        <time>2019-05-04T06:37:46Z</time>
      </trkpt>
      <trkpt lat="40.4147030" lon="-3.7548770">
        <ele>625.8</ele>
        <time>2019-05-04T06:37:47Z</time>
      </trkpt>
      <trkpt lat="40.4147510" lon="-3.7547870">
        <ele>625.7</ele>
        <time>2019-05-04T06:37:48Z</time>
      </trkpt>
      <trkpt lat="40.4147950" lon="-3.7546980">
        <ele>625.7</ele>
        <time>2019-05-04T06:37:49Z</time>
      </trkpt>
      <trkpt lat="40.4148350" lon="-3.7546100">
        <ele>625.6</ele>
        <time>2019-05-04T06:37:50Z</time>
      </trkpt>
      <trkpt lat="40.4148770" lon="-3.7545250">
        <ele>625.6</ele>
        <time>2019-05-04T06:37:51Z</time>
      </trkpt>
      <trkpt lat="40.4149190" lon="-3.7544400">
        <ele>625.5</ele>
        <time>2019-05-04T06:37:52Z</time>
      </trkpt>
      <trkpt lat="40.4149600" lon="-3.7543540">
        <ele>625.5</ele>
        <time>2019-05-04T06:37:53Z</time>
      </trkpt>
      <trkpt lat="40.4150010" lon="-3.7542670">
        <ele>625.4</ele>
        <time>2019-05-04T06:37:54Z</time>
      </trkpt>
      <trkpt lat="40.4150420" lon="-3.7541800">
        <ele>625.4</ele>
        <time>2019-05-04T06:37:55Z</time>
      </trkpt>
      <trkpt lat="40.4150830" lon="-3.7540930">
        <ele>625.3</ele>
        <time>2019-05-04T06:37:56Z</time>
      </trkpt>
      <trkpt lat="40.4151250" lon="-3.7540090">
        <ele>625.2</ele>
        <time>2019-05-04T06:37:57Z</time>
      </trkpt>
      <trkpt lat="40.4151700" lon="-3.7539270">
        <ele>625.0</ele>
        <time>2019-05-04T06:37:58Z</time>
      </trkpt>
      <trkpt lat="40.4152150" lon="-3.7538480">
        <ele>624.9</ele>
        <time>2019-05-04T06:37:59Z</time>
      </trkpt>
      <trkpt lat="40.4152610" lon="-3.7537690">
        <ele>624.8</ele>
        <time>2019-05-04T06:38:00Z</time>
      </trkpt>
      <trkpt lat="40.4153070" lon="-3.7536920">
        <ele>624.7</ele>
        <time>2019-05-04T06:38:01Z</time>
      </trkpt>
      <trkpt lat="40.4153520" lon="-3.7536150">
        <ele>624.6</ele>
        <time>2019-05-04T06:38:02Z</time>
      </trkpt>
      <trkpt lat="40.4153980" lon="-3.7535380">
        <ele>624.3</ele>
        <time>2019-05-04T06:38:03Z</time>
      </trkpt>
      <trkpt lat="40.4154440" lon="-3.7534620">
        <ele>624.3</ele>
        <time>2019-05-04T06:38:04Z</time>
      </trkpt>
      <trkpt lat="40.4154890" lon="-3.7533870">
        <ele>624.3</ele>
        <time>2019-05-04T06:38:05Z</time>
      </trkpt>
      <trkpt lat="40.4155330" lon="-3.7533120">
        <ele>624.3</ele>
        <time>2019-05-04T06:38:06Z</time>
      </trkpt>
      <trkpt lat="40.4155780" lon="-3.7532360">
        <ele>624.3</ele>
        <time>2019-05-04T06:38:07Z</time>
      </trkpt>
      <trkpt lat="40.4156230" lon="-3.7531590">
        <ele>624.3</ele>
        <time>2019-05-04T06:38:08Z</time>
      </trkpt>
      <trkpt lat="40.4156670" lon="-3.7530780">
        <ele>624.3</ele>
        <time>2019-05-04T06:38:09Z</time>
      </trkpt>
      <trkpt lat="40.4157090" lon="-3.7529940">
        <ele>624.4</ele>
        <time>2019-05-04T06:38:10Z</time>
      </trkpt>
      <trkpt lat="40.4157440" lon="-3.7529030">
        <ele>624.4</ele>
        <time>2019-05-04T06:38:11Z</time>
      </trkpt>
      <trkpt lat="40.4157710" lon="-3.7528100">
        <ele>624.4</ele>
        <time>2019-05-04T06:38:12Z</time>
      </trkpt>
      <trkpt lat="40.4157910" lon="-3.7527130">
        <ele>624.3</ele>
        <time>2019-05-04T06:38:13Z</time>
      </trkpt>
      <trkpt lat="40.4158040" lon="-3.7526120">
        <ele>624.2</ele>
        <time>2019-05-04T06:38:14Z</time>
      </trkpt>
      <trkpt lat="40.4158120" lon="-3.7525070">
        <ele>624.1</ele>
        <time>2019-05-04T06:38:15Z</time>
      </trkpt>
      <trkpt lat="40.4158160" lon="-3.7524010">
        <ele>623.9</ele>
        <time>2019-05-04T06:38:16Z</time>
      </trkpt>
      <trkpt lat="40.4158150" lon="-3.7522980">
        <ele>623.7</ele>
        <time>2019-05-04T06:38:17Z</time>
      </trkpt>
      <trkpt lat="40.4158090" lon="-3.7521940">
        <ele>623.5</ele>
        <time>2019-05-04T06:38:18Z</time>
      </trkpt>
      <trkpt lat="40.4158010" lon="-3.7520900">
        <ele>623.2</ele>
        <time>2019-05-04T06:38:19Z</time>
      </trkpt>
      <trkpt lat="40.4157940" lon="-3.7519880">
        <ele>623.0</ele>
        <time>2019-05-04T06:38:20Z</time>
      </trkpt>
      <trkpt lat="40.4157920" lon="-3.7518850">
        <ele>622.7</ele>
        <time>2019-05-04T06:38:21Z</time>
      </trkpt>
      <trkpt lat="40.4157900" lon="-3.7517810">
        <ele>622.5</ele>
        <time>2019-05-04T06:38:22Z</time>
      </trkpt>
      <trkpt lat="40.4157870" lon="-3.7516730">
        <ele>622.4</ele>
        <time>2019-05-04T06:38:23Z</time>
      </trkpt>
      <trkpt lat="40.4157850" lon="-3.7515650">
        <ele>622.3</ele>
        <time>2019-05-04T06:38:24Z</time>
      </trkpt>
      <trkpt lat="40.4157840" lon="-3.7514570">
        <ele>622.1</ele>
        <time>2019-05-04T06:38:25Z</time>
      </trkpt>
      <trkpt lat="40.4157840" lon="-3.7513500">
        <ele>622.0</ele>
        <time>2019-05-04T06:38:26Z</time>
      </trkpt>
      <trkpt lat="40.4157840" lon="-3.7512420">
        <ele>621.9</ele>
        <time>2019-05-04T06:38:27Z</time>
      </trkpt>
      <trkpt lat="40.4157850" lon="-3.7511350">
        <ele>621.8</ele>
        <time>2019-05-04T06:38:28Z</time>
      </trkpt>
      <trkpt lat="40.4157860" lon="-3.7510280">
        <ele>621.7</ele>
        <time>2019-05-04T06:38:29Z</time>
      </trkpt>
      <trkpt lat="40.4157880" lon="-3.7509220">
        <ele>621.6</ele>
        <time>2019-05-04T06:38:30Z</time>
      </trkpt>
      <trkpt lat="40.4157900" lon="-3.7508150">
        <ele>621.6</ele>
        <time>2019-05-04T06:38:31Z</time>
      </trkpt>
      <trkpt lat="40.4157930" lon="-3.7507080">
        <ele>621.5</ele>
        <time>2019-05-04T06:38:32Z</time>
      </trkpt>
      <trkpt lat="40.4157960" lon="-3.7506000">
        <ele>621.4</ele>
        <time>2019-05-04T06:38:33Z</time>
      </trkpt>
      <trkpt lat="40.4158000" lon="-3.7504930">
        <ele>621.3</ele>
        <time>2019-05-04T06:38:34Z</time>
      </trkpt>
      <trkpt lat="40.4158020" lon="-3.7503860">
        <ele>621.3</ele>
        <time>2019-05-04T06:38:35Z</time>
      </trkpt>
      <trkpt lat="40.4158020" lon="-3.7502780">
        <ele>621.2</ele>
        <time>2019-05-04T06:38:36Z</time>
      </trkpt>
      <trkpt lat="40.4158010" lon="-3.7501730">
        <ele>621.2</ele>
        <time>2019-05-04T06:38:37Z</time>
      </trkpt>
      <trkpt lat="40.4158000" lon="-3.7500690">
        <ele>621.2</ele>
        <time>2019-05-04T06:38:38Z</time>
      </trkpt>
      <trkpt lat="40.4157990" lon="-3.7499670">
        <ele>621.1</ele>
        <time>2019-05-04T06:38:39Z</time>
      </trkpt>
      <trkpt lat="40.4157990" lon="-3.7498670">
        <ele>621.1</ele>
        <time>2019-05-04T06:38:40Z</time>
      </trkpt>
      <trkpt lat="40.4158000" lon="-3.7497670">
        <ele>621.1</ele>
        <time>2019-05-04T06:38:41Z</time>
      </trkpt>
      <trkpt lat="40.4158020" lon="-3.7496660">
        <ele>621.1</ele>
        <time>2019-05-04T06:38:42Z</time>
      </trkpt>
      <trkpt lat="40.4158040" lon="-3.7495670">
        <ele>621.0</ele>
        <time>2019-05-04T06:38:43Z</time>
      </trkpt>
      <trkpt lat="40.4158060" lon="-3.7494690">
        <ele>621.0</ele>
        <time>2019-05-04T06:38:44Z</time>
      </trkpt>
      <trkpt lat="40.4158080" lon="-3.7493710">
        <ele>620.9</ele>
        <time>2019-05-04T06:38:45Z</time>
      </trkpt>
      <trkpt lat="40.4158110" lon="-3.7492740">
        <ele>620.9</ele>
        <time>2019-05-04T06:38:46Z</time>
      </trkpt>
      <trkpt lat="40.4158130" lon="-3.7491780">
        <ele>620.8</ele>
        <time>2019-05-04T06:38:47Z</time>
      </trkpt>
      <trkpt lat="40.4158170" lon="-3.7490820">
        <ele>620.7</ele>
        <time>2019-05-04T06:38:48Z</time>
      </trkpt>
      <trkpt lat="40.4158210" lon="-3.7489880">
        <ele>620.7</ele>
        <time>2019-05-04T06:38:49Z</time>
      </trkpt>
      <trkpt lat="40.4158280" lon="-3.7488930">
        <ele>620.8</ele>
        <time>2019-05-04T06:38:50Z</time>
      </trkpt>
      <trkpt lat="40.4158360" lon="-3.7487980">
        <ele>620.8</ele>
        <time>2019-05-04T06:38:51Z</time>
      </trkpt>
      <trkpt lat="40.4158450" lon="-3.7487020">
        <ele>621.0</ele>
        <time>2019-05-04T06:38:52Z</time>
      </trkpt>
      <trkpt lat="40.4158560" lon="-3.7486070">
        <ele>621.1</ele>
        <time>2019-05-04T06:38:53Z</time>
      </trkpt>
      <trkpt lat="40.4158680" lon="-3.7485130">
        <ele>621.2</ele>
        <time>2019-05-04T06:38:54Z</time>
      </trkpt>
      <trkpt lat="40.4158790" lon="-3.7484210">
        <ele>621.1</ele>
        <time>2019-05-04T06:38:55Z</time>
      </trkpt>
      <trkpt lat="40.4158890" lon="-3.7483300">
        <ele>620.7</ele>
        <time>2019-05-04T06:38:56Z</time>
      </trkpt>
      <trkpt lat="40.4158980" lon="-3.7482400">
        <ele>620.4</ele>
        <time>2019-05-04T06:38:57Z</time>
      </trkpt>
      <trkpt lat="40.4159070" lon="-3.7481500">
        <ele>620.1</ele>
        <time>2019-05-04T06:38:58Z</time>
      </trkpt>
      <trkpt lat="40.4159170" lon="-3.7480610">
        <ele>620.0</ele>
        <time>2019-05-04T06:38:59Z</time>
      </trkpt>
      <trkpt lat="40.4159280" lon="-3.7479730">
        <ele>619.8</ele>
        <time>2019-05-04T06:39:00Z</time>
      </trkpt>
      <trkpt lat="40.4159380" lon="-3.7478900">
        <ele>619.7</ele>
        <time>2019-05-04T06:39:01Z</time>
      </trkpt>
      <trkpt lat="40.4159500" lon="-3.7478120">
        <ele>619.6</ele>
        <time>2019-05-04T06:39:02Z</time>
      </trkpt>
      <trkpt lat="40.4159630" lon="-3.7477420">
        <ele>619.6</ele>
        <time>2019-05-04T06:39:03Z</time>
      </trkpt>
      <trkpt lat="40.4159840" lon="-3.7476800">
        <ele>619.5</ele>
        <time>2019-05-04T06:39:04Z</time>
      </trkpt>
      <trkpt lat="40.4160130" lon="-3.7476320">
        <ele>619.4</ele>
        <time>2019-05-04T06:39:05Z</time>
      </trkpt>
      <trkpt lat="40.4160450" lon="-3.7475980">
        <ele>620.0</ele>
        <time>2019-05-04T06:39:06Z</time>
      </trkpt>
      <trkpt lat="40.4160780" lon="-3.7475790">
        <ele>620.3</ele>
        <time>2019-05-04T06:39:07Z</time>
      </trkpt>
      <trkpt lat="40.4161090" lon="-3.7475740">
        <ele>620.5</ele>
        <time>2019-05-04T06:39:08Z</time>
      </trkpt>
      <trkpt lat="40.4161420" lon="-3.7475820">
        <ele>621.0</ele>
        <time>2019-05-04T06:39:09Z</time>
      </trkpt>
      <trkpt lat="40.4161770" lon="-3.7475970">
        <ele>621.3</ele>
        <time>2019-05-04T06:39:10Z</time>
      </trkpt>
      <trkpt lat="40.4162130" lon="-3.7476130">
        <ele>621.6</ele>
        <time>2019-05-04T06:39:11Z</time>
      </trkpt>
      <trkpt lat="40.4162480" lon="-3.7476290">
        <ele>621.9</ele>
        <time>2019-05-04T06:39:12Z</time>
      </trkpt>
      <trkpt lat="40.4162800" lon="-3.7476420">
        <ele>622.1</ele>
        <time>2019-05-04T06:39:13Z</time>
      </trkpt>
      <trkpt lat="40.4163110" lon="-3.7476580">
        <ele>622.4</ele>
        <time>2019-05-04T06:39:14Z</time>
      </trkpt>
      <trkpt lat="40.4163450" lon="-3.7476780">
        <ele>622.7</ele>
        <time>2019-05-04T06:39:15Z</time>
      </trkpt>
      <trkpt lat="40.4163820" lon="-3.7476970">
        <ele>623.0</ele>
        <time>2019-05-04T06:39:16Z</time>
      </trkpt>
      <trkpt lat="40.4164210" lon="-3.7477170">
        <ele>623.3</ele>
        <time>2019-05-04T06:39:17Z</time>
      </trkpt>
      <trkpt lat="40.4164630" lon="-3.7477400">
        <ele>623.7</ele>
        <time>2019-05-04T06:39:18Z</time>
      </trkpt>
      <trkpt lat="40.4165070" lon="-3.7477700">
        <ele>624.0</ele>
        <time>2019-05-04T06:39:19Z</time>
      </trkpt>
      <trkpt lat="40.4165520" lon="-3.7477990">
        <ele>624.4</ele>
        <time>2019-05-04T06:39:20Z</time>
      </trkpt>
      <trkpt lat="40.4165980" lon="-3.7478240">
        <ele>624.7</ele>
        <time>2019-05-04T06:39:21Z</time>
      </trkpt>
      <trkpt lat="40.4166450" lon="-3.7478420">
        <ele>625.1</ele>
        <time>2019-05-04T06:39:22Z</time>
      </trkpt>
      <trkpt lat="40.4166940" lon="-3.7478600">
        <ele>625.5</ele>
        <time>2019-05-04T06:39:23Z</time>
      </trkpt>
      <trkpt lat="40.4167420" lon="-3.7478750">
        <ele>625.8</ele>
        <time>2019-05-04T06:39:24Z</time>
      </trkpt>
      <trkpt lat="40.4167850" lon="-3.7478890">
        <ele>625.8</ele>
        <time>2019-05-04T06:39:25Z</time>
      </trkpt>
      <trkpt lat="40.4168310" lon="-3.7479000">
        <ele>625.8</ele>
        <time>2019-05-04T06:39:26Z</time>
      </trkpt>
      <trkpt lat="40.4168770" lon="-3.7479110">
        <ele>626.0</ele>
        <time>2019-05-04T06:39:27Z</time>
      </trkpt>
      <trkpt lat="40.4169250" lon="-3.7479240">
        <ele>626.1</ele>
        <time>2019-05-04T06:39:28Z</time>
      </trkpt>
      <trkpt lat="40.4169730" lon="-3.7479390">
        <ele>626.2</ele>
        <time>2019-05-04T06:39:29Z</time>
      </trkpt>
      <trkpt lat="40.4170200" lon="-3.7479520">
        <ele>626.4</ele>
        <time>2019-05-04T06:39:30Z</time>
      </trkpt>
      <trkpt lat="40.4170650" lon="-3.7479650">
        <ele>626.6</ele>
        <time>2019-05-04T06:39:31Z</time>
      </trkpt>
      <trkpt lat="40.4171090" lon="-3.7479790">
        <ele>626.8</ele>
        <time>2019-05-04T06:39:32Z</time>
      </trkpt>
      <trkpt lat="40.4171530" lon="-3.7479930">
        <ele>627.1</ele>
        <time>2019-05-04T06:39:33Z</time>
      </trkpt>
      <trkpt lat="40.4171970" lon="-3.7480060">
        <ele>627.4</ele>
        <time>2019-05-04T06:39:34Z</time>
      </trkpt>
      <trkpt lat="40.4172410" lon="-3.7480180">
        <ele>627.7</ele>
        <time>2019-05-04T06:39:35Z</time>
      </trkpt>
      <trkpt lat="40.4172850" lon="-3.7480280">
        <ele>628.0</ele>
        <time>2019-05-04T06:39:36Z</time>
      </trkpt>
      <trkpt lat="40.4173240" lon="-3.7480360">
        <ele>628.3</ele>
        <time>2019-05-04T06:39:37Z</time>
      </trkpt>
      <trkpt lat="40.4173590" lon="-3.7480450">
        <ele>628.6</ele>
        <time>2019-05-04T06:39:38Z</time>
      </trkpt>
      <trkpt lat="40.4173920" lon="-3.7480560">
        <ele>628.9</ele>
        <time>2019-05-04T06:39:39Z</time>
      </trkpt>
      <trkpt lat="40.4174250" lon="-3.7480680">
        <ele>629.2</ele>
        <time>2019-05-04T06:39:40Z</time>
      </trkpt>
      <trkpt lat="40.4174590" lon="-3.7480810">
        <ele>629.5</ele>
        <time>2019-05-04T06:39:41Z</time>
      </trkpt>
      <trkpt lat="40.4174920" lon="-3.7480900">
        <ele>629.8</ele>
        <time>2019-05-04T06:39:42Z</time>
      </trkpt>
      <trkpt lat="40.4175280" lon="-3.7480990">
        <ele>630.1</ele>
        <time>2019-05-04T06:39:43Z</time>
      </trkpt>
      <trkpt lat="40.4175640" lon="-3.7481060">
        <ele>630.4</ele>
        <time>2019-05-04T06:39:44Z</time>
      </trkpt>
      <trkpt lat="40.4175980" lon="-3.7481130">
        <ele>630.8</ele>
        <time>2019-05-04T06:39:45Z</time>
      </trkpt>
      <trkpt lat="40.4176310" lon="-3.7481210">
        <ele>631.1</ele>
        <time>2019-05-04T06:39:46Z</time>
      </trkpt>
      <trkpt lat="40.4176640" lon="-3.7481300">
        <ele>631.4</ele>
        <time>2019-05-04T06:39:47Z</time>
      </trkpt>
      <trkpt lat="40.4176990" lon="-3.7481400">
        <ele>631.8</ele>
        <time>2019-05-04T06:39:48Z</time>
      </trkpt>
      <trkpt lat="40.4177360" lon="-3.7481510">
        <ele>632.2</ele>
        <time>2019-05-04T06:39:49Z</time>
      </trkpt>
      <trkpt lat="40.4177710" lon="-3.7481640">
        <ele>632.6</ele>
        <time>2019-05-04T06:39:50Z</time>
      </trkpt>
      <trkpt lat="40.4178090" lon="-3.7481760">
        <ele>633.0</ele>
        <time>2019-05-04T06:39:51Z</time>
      </trkpt>
      <trkpt lat="40.4178440" lon="-3.7481890">
        <ele>633.4</ele>
        <time>2019-05-04T06:39:52Z</time>
      </trkpt>
      <trkpt lat="40.4178780" lon="-3.7482010">
        <ele>633.9</ele>
        <time>2019-05-04T06:39:53Z</time>
      </trkpt>
      <trkpt lat="40.4179090" lon="-3.7482140">
        <ele>634.3</ele>
        <time>2019-05-04T06:39:54Z</time>
      </trkpt>
      <trkpt lat="40.4179400" lon="-3.7482240">
        <ele>634.7</ele>
        <time>2019-05-04T06:39:55Z</time>
      </trkpt>
      <trkpt lat="40.4179700" lon="-3.7482340">
        <ele>635.1</ele>
        <time>2019-05-04T06:39:56Z</time>
      </trkpt>
      <trkpt lat="40.4180010" lon="-3.7482450">
        <ele>635.5</ele>
        <time>2019-05-04T06:39:57Z</time>
      </trkpt>
      <trkpt lat="40.4180330" lon="-3.7482550">
        <ele>635.9</ele>
        <time>2019-05-04T06:39:58Z</time>
      </trkpt>
      <trkpt lat="40.4180650" lon="-3.7482650">
        <ele>636.4</ele>
        <time>2019-05-04T06:39:59Z</time>
      </trkpt>
      <trkpt lat="40.4180950" lon="-3.7482750">
        <ele>636.8</ele>
        <time>2019-05-04T06:40:00Z</time>
      </trkpt>
      <trkpt lat="40.4181240" lon="-3.7482850">
        <ele>637.2</ele>
        <time>2019-05-04T06:40:01Z</time>
      </trkpt>
      <trkpt lat="40.4181530" lon="-3.7482960">
        <ele>637.7</ele>
        <time>2019-05-04T06:40:02Z</time>
      </trkpt>
      <trkpt lat="40.4181830" lon="-3.7483090">
        <ele>638.1</ele>
        <time>2019-05-04T06:40:03Z</time>
      </trkpt>
      <trkpt lat="40.4182140" lon="-3.7483230">
        <ele>638.5</ele>
        <time>2019-05-04T06:40:04Z</time>
      </trkpt>
      <trkpt lat="40.4182450" lon="-3.7483360">
        <ele>638.9</ele>
        <time>2019-05-04T06:40:05Z</time>
      </trkpt>
      <trkpt lat="40.4182780" lon="-3.7483480">
        <ele>639.2</ele>
        <time>2019-05-04T06:40:06Z</time>
      </trkpt>
      <trkpt lat="40.4183100" lon="-3.7483580">
        <ele>639.5</ele>
        <time>2019-05-04T06:40:07Z</time>
      </trkpt>
      <trkpt lat="40.4183430" lon="-3.7483690">
        <ele>639.8</ele>
        <time>2019-05-04T06:40:08Z</time>
      </trkpt>
      <trkpt lat="40.4183760" lon="-3.7483810">
        <ele>640.1</ele>
        <time>2019-05-04T06:40:09Z</time>
      </trkpt>
      <trkpt lat="40.4184080" lon="-3.7483940">
        <ele>640.4</ele>
        <time>2019-05-04T06:40:10Z</time>
      </trkpt>
      <trkpt lat="40.4184400" lon="-3.7484070">
        <ele>640.6</ele>
        <time>2019-05-04T06:40:11Z</time>
      </trkpt>
      <trkpt lat="40.4184720" lon="-3.7484220">
        <ele>640.8</ele>
        <time>2019-05-04T06:40:12Z</time>
      </trkpt>
      <trkpt lat="40.4185040" lon="-3.7484390">
        <ele>641.1</ele>
        <time>2019-05-04T06:40:13Z</time>
      </trkpt>
      <trkpt lat="40.4185350" lon="-3.7484590">
        <ele>641.3</ele>
        <time>2019-05-04T06:40:14Z</time>
      </trkpt>
      <trkpt lat="40.4185640" lon="-3.7484810">
        <ele>641.5</ele>
        <time>2019-05-04T06:40:15Z</time>
      </trkpt>
      <trkpt lat="40.4185920" lon="-3.7485070">
        <ele>641.7</ele>
        <time>2019-05-04T06:40:16Z</time>
      </trkpt>
      <trkpt lat="40.4186190" lon="-3.7485330">
        <ele>641.9</ele>
        <time>2019-05-04T06:40:17Z</time>
      </trkpt>
      <trkpt lat="40.4186460" lon="-3.7485600">
        <ele>642.1</ele>
        <time>2019-05-04T06:40:18Z</time>
      </trkpt>
      <trkpt lat="40.4186710" lon="-3.7485880">
        <ele>642.5</ele>
        <time>2019-05-04T06:40:19Z</time>
      </trkpt>
      <trkpt lat="40.4186950" lon="-3.7486170">
        <ele>642.9</ele>
        <time>2019-05-04T06:40:20Z</time>
      </trkpt>
      <trkpt lat="40.4187180" lon="-3.7486460">
        <ele>643.4</ele>
        <time>2019-05-04T06:40:21Z</time>
      </trkpt>
      <trkpt lat="40.4187430" lon="-3.7486730">
        <ele>643.8</ele>
        <time>2019-05-04T06:40:22Z</time>
      </trkpt>
      <trkpt lat="40.4187690" lon="-3.7487000">
        <ele>644.2</ele>
        <time>2019-05-04T06:40:23Z</time>
      </trkpt>
      <trkpt lat="40.4187960" lon="-3.7487270">
        <ele>644.6</ele>
        <time>2019-05-04T06:40:24Z</time>
      </trkpt>
      <trkpt lat="40.4188210" lon="-3.7487550">
        <ele>645.1</ele>
        <time>2019-05-04T06:40:25Z</time>
      </trkpt>
      <trkpt lat="40.4188450" lon="-3.7487850">
        <ele>645.5</ele>
        <time>2019-05-04T06:40:26Z</time>
      </trkpt>
      <trkpt lat="40.4188690" lon="-3.7488130">
        <ele>645.8</ele>
        <time>2019-05-04T06:40:27Z</time>
      </trkpt>
      <trkpt lat="40.4188930" lon="-3.7488400">
        <ele>646.1</ele>
        <time>2019-05-04T06:40:28Z</time>
      </trkpt>
      <trkpt lat="40.4189180" lon="-3.7488660">
        <ele>646.4</ele>
        <time>2019-05-04T06:40:29Z</time>
      </trkpt>
      <trkpt lat="40.4189420" lon="-3.7488930">
        <ele>646.7</ele>
        <time>2019-05-04T06:40:30Z</time>
      </trkpt>
      <trkpt lat="40.4189660" lon="-3.7489200">
        <ele>647.0</ele>
        <time>2019-05-04T06:40:31Z</time>
      </trkpt>
      <trkpt lat="40.4189910" lon="-3.7489480">
        <ele>647.3</ele>
        <time>2019-05-04T06:40:32Z</time>
      </trkpt>
      <trkpt lat="40.4190160" lon="-3.7489750">
        <ele>647.5</ele>
        <time>2019-05-04T06:40:33Z</time>
      </trkpt>
      <trkpt lat="40.4190410" lon="-3.7490020">
        <ele>647.8</ele>
        <time>2019-05-04T06:40:34Z</time>
      </trkpt>
      <trkpt lat="40.4190640" lon="-3.7490290">
        <ele>648.0</ele>
        <time>2019-05-04T06:40:35Z</time>
      </trkpt>
      <trkpt lat="40.4190870" lon="-3.7490550">
        <ele>648.3</ele>
        <time>2019-05-04T06:40:36Z</time>
      </trkpt>
      <trkpt lat="40.4191110" lon="-3.7490820">
        <ele>648.5</ele>
        <time>2019-05-04T06:40:37Z</time>
      </trkpt>
      <trkpt lat="40.4191360" lon="-3.7491100">
        <ele>648.8</ele>
        <time>2019-05-04T06:40:38Z</time>
      </trkpt>
      <trkpt lat="40.4191610" lon="-3.7491400">
        <ele>649.0</ele>
        <time>2019-05-04T06:40:39Z</time>
      </trkpt>
      <trkpt lat="40.4191840" lon="-3.7491690">
        <ele>649.3</ele>
        <time>2019-05-04T06:40:40Z</time>
      </trkpt>
      <trkpt lat="40.4192080" lon="-3.7491990">
        <ele>649.5</ele>
        <time>2019-05-04T06:40:41Z</time>
      </trkpt>
      <trkpt lat="40.4192310" lon="-3.7492300">
        <ele>649.7</ele>
        <time>2019-05-04T06:40:42Z</time>
      </trkpt>
      <trkpt lat="40.4192540" lon="-3.7492600">
        <ele>650.0</ele>
        <time>2019-05-04T06:40:43Z</time>
      </trkpt>
      <trkpt lat="40.4192760" lon="-3.7492890">
        <ele>650.2</ele>
        <time>2019-05-04T06:40:44Z</time>
      </trkpt>
      <trkpt lat="40.4192960" lon="-3.7493160">
        <ele>650.5</ele>
        <time>2019-05-04T06:40:45Z</time>
      </trkpt>
      <trkpt lat="40.4193150" lon="-3.7493420">
        <ele>650.6</ele>
        <time>2019-05-04T06:40:46Z</time>
      </trkpt>
      <trkpt lat="40.4193330" lon="-3.7493670">
        <ele>650.7</ele>
        <time>2019-05-04T06:40:47Z</time>
      </trkpt>
      <trkpt lat="40.4193470" lon="-3.7493950">
        <ele>650.7</ele>
        <time>2019-05-04T06:40:48Z</time>
      </trkpt>
      <trkpt lat="40.4193600" lon="-3.7494270">
        <ele>650.8</ele>
        <time>2019-05-04T06:40:49Z</time>
      </trkpt>
      <trkpt lat="40.4193690" lon="-3.7494610">
        <ele>650.9</ele>
        <time>2019-05-04T06:40:50Z</time>
      </trkpt>
      <trkpt lat="40.4193770" lon="-3.7494970">
        <ele>650.9</ele>
        <time>2019-05-04T06:40:51Z</time>
      </trkpt>
      <trkpt lat="40.4193850" lon="-3.7495360">
        <ele>650.9</ele>
        <time>2019-05-04T06:40:52Z</time>
      </trkpt>
      <trkpt lat="40.4193930" lon="-3.7495780">
        <ele>650.9</ele>
        <time>2019-05-04T06:40:53Z</time>
      </trkpt>
      <trkpt lat="40.4194000" lon="-3.7496200">
        <ele>650.9</ele>
        <time>2019-05-04T06:40:54Z</time>
      </trkpt>
      <trkpt lat="40.4194060" lon="-3.7496600">
        <ele>650.9</ele>
        <time>2019-05-04T06:40:55Z</time>
      </trkpt>
      <trkpt lat="40.4194110" lon="-3.7497000">
        <ele>650.9</ele>
        <time>2019-05-04T06:40:56Z</time>
      </trkpt>
      <trkpt lat="40.4194160" lon="-3.7497380">
        <ele>650.9</ele>
        <time>2019-05-04T06:40:57Z</time>
      </trkpt>
      <trkpt lat="40.4194200" lon="-3.7497770">
        <ele>650.9</ele>
        <time>2019-05-04T06:40:58Z</time>
      </trkpt>
      <trkpt lat="40.4194240" lon="-3.7498140">
        <ele>650.9</ele>
        <time>2019-05-04T06:40:59Z</time>
      </trkpt>
      <trkpt lat="40.4194270" lon="-3.7498510">
        <ele>650.9</ele>
        <time>2019-05-04T06:41:00Z</time>
      </trkpt>
      <trkpt lat="40.4194320" lon="-3.7498870">
        <ele>650.9</ele>
        <time>2019-05-04T06:41:01Z</time>
      </trkpt>
      <trkpt lat="40.4194370" lon="-3.7499210">
        <ele>650.9</ele>
        <time>2019-05-04T06:41:02Z</time>
      </trkpt>
      <trkpt lat="40.4194430" lon="-3.7499530">
        <ele>650.9</ele>
        <time>2019-05-04T06:41:03Z</time>
      </trkpt>
      <trkpt lat="40.4194460" lon="-3.7499820">
        <ele>650.9</ele>
        <time>2019-05-04T06:41:04Z</time>
      </trkpt>
      <trkpt lat="40.4194410" lon="-3.7499980">
        <ele>650.9</ele>
        <time>2019-05-04T06:41:05Z</time>
      </trkpt>
      <trkpt lat="40.4194320" lon="-3.7500010">
        <ele>650.9</ele>
        <time>2019-05-04T06:41:06Z</time>
      </trkpt>
      <trkpt lat="40.4194240" lon="-3.7499950">
        <ele>650.9</ele>
        <time>2019-05-04T06:41:07Z</time>
      </trkpt>
      <trkpt lat="40.4194210" lon="-3.7499890">
        <ele>650.9</ele>
        <time>2019-05-04T06:41:08Z</time>
      </trkpt>
      <trkpt lat="40.4194220" lon="-3.7499820">
        <ele>650.9</ele>
        <time>2019-05-04T06:41:09Z</time>
      </trkpt>
      <trkpt lat="40.4194230" lon="-3.7499690">
        <ele>650.9</ele>
        <time>2019-05-04T06:41:10Z</time>
      </trkpt>
      <trkpt lat="40.4194260" lon="-3.7499500">
        <ele>650.9</ele>
        <time>2019-05-04T06:41:11Z</time>
      </trkpt>
      <trkpt lat="40.4194240" lon="-3.7499240">
        <ele>650.9</ele>
        <time>2019-05-04T06:41:12Z</time>
      </trkpt>
      <trkpt lat="40.4194200" lon="-3.7498910">
        <ele>650.9</ele>
        <time>2019-05-04T06:41:13Z</time>
      </trkpt>
      <trkpt lat="40.4194140" lon="-3.7498540">
        <ele>650.9</ele>
        <time>2019-05-04T06:41:14Z</time>
      </trkpt>
      <trkpt lat="40.4194100" lon="-3.7498220">
        <ele>650.9</ele>
        <time>2019-05-04T06:41:15Z</time>
      </trkpt>
      <trkpt lat="40.4194080" lon="-3.7497940">
        <ele>650.9</ele>
        <time>2019-05-04T06:41:16Z</time>
      </trkpt>
      <trkpt lat="40.4194060" lon="-3.7497640">
        <ele>650.9</ele>
        <time>2019-05-04T06:41:17Z</time>
      </trkpt>
      <trkpt lat="40.4194030" lon="-3.7497290">
        <ele>650.9</ele>
        <time>2019-05-04T06:41:18Z</time>
      </trkpt>
      <trkpt lat="40.4194000" lon="-3.7496910">
        <ele>650.9</ele>
        <time>2019-05-04T06:41:19Z</time>
      </trkpt>
      <trkpt lat="40.4193960" lon="-3.7496490">
        <ele>650.9</ele>
        <time>2019-05-04T06:41:20Z</time>
      </trkpt>
      <trkpt lat="40.4193920" lon="-3.7496050">
        <ele>650.9</ele>
        <time>2019-05-04T06:41:21Z</time>
      </trkpt>
      <trkpt lat="40.4193850" lon="-3.7495540">
        <ele>650.9</ele>
        <time>2019-05-04T06:41:22Z</time>
      </trkpt>
      <trkpt lat="40.4193710" lon="-3.7495010">
        <ele>650.9</ele>
        <time>2019-05-04T06:41:23Z</time>
      </trkpt>
      <trkpt lat="40.4193540" lon="-3.7494410">
        <ele>650.9</ele>
        <time>2019-05-04T06:41:24Z</time>
      </trkpt>
      <trkpt lat="40.4193270" lon="-3.7493800">
        <ele>650.7</ele>
        <time>2019-05-04T06:41:25Z</time>
      </trkpt>
      <trkpt lat="40.4192930" lon="-3.7493120">
        <ele>650.5</ele>
        <time>2019-05-04T06:41:26Z</time>
      </trkpt>
      <trkpt lat="40.4192450" lon="-3.7492440">
        <ele>649.9</ele>
        <time>2019-05-04T06:41:27Z</time>
      </trkpt>
      <trkpt lat="40.4191970" lon="-3.7491780">
        <ele>649.4</ele>
        <time>2019-05-04T06:41:28Z</time>
      </trkpt>
      <trkpt lat="40.4191450" lon="-3.7491130">
        <ele>648.9</ele>
        <time>2019-05-04T06:41:29Z</time>
      </trkpt>
      <trkpt lat="40.4190930" lon="-3.7490490">
        <ele>648.3</ele>
        <time>2019-05-04T06:41:30Z</time>
      </trkpt>
      <trkpt lat="40.4190320" lon="-3.7489850">
        <ele>647.7</ele>
        <time>2019-05-04T06:41:31Z</time>
      </trkpt>
      <trkpt lat="40.4189640" lon="-3.7489210">
        <ele>647.0</ele>
        <time>2019-05-04T06:41:32Z</time>
      </trkpt>
      <trkpt lat="40.4188970" lon="-3.7488530">
        <ele>646.2</ele>
        <time>2019-05-04T06:41:33Z</time>
      </trkpt>
      <trkpt lat="40.4188330" lon="-3.7487820">
        <ele>645.3</ele>
        <time>2019-05-04T06:41:34Z</time>
      </trkpt>
      <trkpt lat="40.4187720" lon="-3.7487080">
        <ele>644.3</ele>
        <time>2019-05-04T06:41:35Z</time>
      </trkpt>
      <trkpt lat="40.4187090" lon="-3.7486360">
        <ele>643.2</ele>
        <time>2019-05-04T06:41:36Z</time>
      </trkpt>
      <trkpt lat="40.4186410" lon="-3.7485680">
        <ele>642.1</ele>
        <time>2019-05-04T06:41:37Z</time>
      </trkpt>
      <trkpt lat="40.4185670" lon="-3.7485090">
        <ele>641.5</ele>
        <time>2019-05-04T06:41:38Z</time>
      </trkpt>
      <trkpt lat="40.4184880" lon="-3.7484650">
        <ele>641.0</ele>
        <time>2019-05-04T06:41:39Z</time>
      </trkpt>
      <trkpt lat="40.4184040" lon="-3.7484280">
        <ele>640.5</ele>
        <time>2019-05-04T06:41:40Z</time>
      </trkpt>
      <trkpt lat="40.4183230" lon="-3.7483940">
        <ele>639.8</ele>
        <time>2019-05-04T06:41:41Z</time>
      </trkpt>
      <trkpt lat="40.4182440" lon="-3.7483610">
        <ele>639.0</ele>
        <time>2019-05-04T06:41:42Z</time>
      </trkpt>
      <trkpt lat="40.4181690" lon="-3.7483320">
        <ele>638.1</ele>
        <time>2019-05-04T06:41:43Z</time>
      </trkpt>
      <trkpt lat="40.4180950" lon="-3.7483060">
        <ele>637.0</ele>
        <time>2019-05-04T06:41:44Z</time>
      </trkpt>
      <trkpt lat="40.4180180" lon="-3.7482790">
        <ele>635.9</ele>
        <time>2019-05-04T06:41:45Z</time>
      </trkpt>
      <trkpt lat="40.4179360" lon="-3.7482530">
        <ele>634.8</ele>
        <time>2019-05-04T06:41:46Z</time>
      </trkpt>
      <trkpt lat="40.4178510" lon="-3.7482250">
        <ele>633.7</ele>
        <time>2019-05-04T06:41:47Z</time>
      </trkpt>
      <trkpt lat="40.4177640" lon="-3.7481980">
        <ele>632.6</ele>
        <time>2019-05-04T06:41:48Z</time>
      </trkpt>
      <trkpt lat="40.4176790" lon="-3.7481720">
        <ele>631.7</ele>
        <time>2019-05-04T06:41:49Z</time>
      </trkpt>
      <trkpt lat="40.4175930" lon="-3.7481450">
        <ele>630.8</ele>
        <time>2019-05-04T06:41:50Z</time>
      </trkpt>
      <trkpt lat="40.4175030" lon="-3.7481140">
        <ele>630.0</ele>
        <time>2019-05-04T06:41:51Z</time>
      </trkpt>
      <trkpt lat="40.4174040" lon="-3.7480810">
        <ele>629.0</ele>
        <time>2019-05-04T06:41:52Z</time>
      </trkpt>
      <trkpt lat="40.4172950" lon="-3.7480480">
        <ele>628.1</ele>
        <time>2019-05-04T06:41:53Z</time>
      </trkpt>
      <trkpt lat="40.4171860" lon="-3.7480170">
        <ele>627.4</ele>
        <time>2019-05-04T06:41:54Z</time>
      </trkpt>
      <trkpt lat="40.4170830" lon="-3.7479870">
        <ele>626.7</ele>
        <time>2019-05-04T06:41:55Z</time>
      </trkpt>
      <trkpt lat="40.4169860" lon="-3.7479560">
        <ele>626.3</ele>
        <time>2019-05-04T06:41:56Z</time>
      </trkpt>
      <trkpt lat="40.4168920" lon="-3.7479200">
        <ele>626.0</ele>
        <time>2019-05-04T06:41:57Z</time>
      </trkpt>
      <trkpt lat="40.4168020" lon="-3.7478780">
        <ele>625.8</ele>
        <time>2019-05-04T06:41:58Z</time>
      </trkpt>
      <trkpt lat="40.4167140" lon="-3.7478340">
        <ele>625.6</ele>
        <time>2019-05-04T06:41:59Z</time>
      </trkpt>
      <trkpt lat="40.4166290" lon="-3.7477930">
        <ele>624.8</ele>
        <time>2019-05-04T06:42:00Z</time>
      </trkpt>
      <trkpt lat="40.4165480" lon="-3.7477570">
        <ele>624.2</ele>
        <time>2019-05-04T06:42:01Z</time>
      </trkpt>
      <trkpt lat="40.4164750" lon="-3.7477270">
        <ele>623.7</ele>
        <time>2019-05-04T06:42:02Z</time>
      </trkpt>
      <trkpt lat="40.4164080" lon="-3.7477010">
        <ele>623.1</ele>
        <time>2019-05-04T06:42:03Z</time>
      </trkpt>
      <trkpt lat="40.4163500" lon="-3.7476790">
        <ele>622.6</ele>
        <time>2019-05-04T06:42:04Z</time>
      </trkpt>
      <trkpt lat="40.4162990" lon="-3.7476550">
        <ele>622.2</ele>
        <time>2019-05-04T06:42:05Z</time>
      </trkpt>
      <trkpt lat="40.4162540" lon="-3.7476350">
        <ele>621.8</ele>
        <time>2019-05-04T06:42:06Z</time>
      </trkpt>
      <trkpt lat="40.4162120" lon="-3.7476200">
        <ele>621.5</ele>
        <time>2019-05-04T06:42:07Z</time>
      </trkpt>
      <trkpt lat="40.4161710" lon="-3.7476140">
        <ele>621.2</ele>
        <time>2019-05-04T06:42:08Z</time>
      </trkpt>
      <trkpt lat="40.4161460" lon="-3.7476210">
        <ele>621.3</ele>
        <time>2019-05-04T06:42:09Z</time>
      </trkpt>
      <trkpt lat="40.4161300" lon="-3.7476440">
        <ele>621.4</ele>
        <time>2019-05-04T06:42:10Z</time>
      </trkpt>
      <trkpt lat="40.4161220" lon="-3.7476720">
        <ele>621.5</ele>
        <time>2019-05-04T06:42:11Z</time>
      </trkpt>
      <trkpt lat="40.4161050" lon="-3.7476890">
        <ele>621.6</ele>
        <time>2019-05-04T06:42:12Z</time>
      </trkpt>
      <trkpt lat="40.4160890" lon="-3.7476850">
        <ele>621.7</ele>
        <time>2019-05-04T06:42:13Z</time>
      </trkpt>
      <trkpt lat="40.4160760" lon="-3.7476690">
        <ele>621.8</ele>
        <time>2019-05-04T06:42:14Z</time>
      </trkpt>
      <trkpt lat="40.4160710" lon="-3.7476470">
        <ele>621.9</ele>
        <time>2019-05-04T06:42:15Z</time>
      </trkpt>
      <trkpt lat="40.4160720" lon="-3.7476300">
        <ele>622.0</ele>
        <time>2019-05-04T06:42:16Z</time>
      </trkpt>
      <trkpt lat="40.4160800" lon="-3.7476140">
        <ele>622.1</ele>
        <time>2019-05-04T06:42:17Z</time>
      </trkpt>
      <trkpt lat="40.4160930" lon="-3.7476030">
        <ele>622.1</ele>
        <time>2019-05-04T06:42:18Z</time>
      </trkpt>
      <trkpt lat="40.4161150" lon="-3.7476000">
        <ele>622.3</ele>
        <time>2019-05-04T06:42:19Z</time>
      </trkpt>
      <trkpt lat="40.4161420" lon="-3.7476030">
        <ele>622.4</ele>
        <time>2019-05-04T06:42:20Z</time>
      </trkpt>
      <trkpt lat="40.4161730" lon="-3.7476120">
        <ele>622.6</ele>
        <time>2019-05-04T06:42:21Z</time>
      </trkpt>
      <trkpt lat="40.4162040" lon="-3.7476210">
        <ele>622.7</ele>
        <time>2019-05-04T06:42:22Z</time>
      </trkpt>
      <trkpt lat="40.4162350" lon="-3.7476340">
        <ele>622.9</ele>
        <time>2019-05-04T06:42:23Z</time>
      </trkpt>
      <trkpt lat="40.4162700" lon="-3.7476530">
        <ele>623.1</ele>
        <time>2019-05-04T06:42:24Z</time>
      </trkpt>
      <trkpt lat="40.4163050" lon="-3.7476710">
        <ele>623.4</ele>
        <time>2019-05-04T06:42:25Z</time>
      </trkpt>
      <trkpt lat="40.4163390" lon="-3.7476910">
        <ele>623.6</ele>
        <time>2019-05-04T06:42:26Z</time>
      </trkpt>
      <trkpt lat="40.4163680" lon="-3.7477070">
        <ele>623.7</ele>
        <time>2019-05-04T06:42:27Z</time>
      </trkpt>
      <trkpt lat="40.4163930" lon="-3.7477230">
        <ele>623.9</ele>
        <time>2019-05-04T06:42:28Z</time>
      </trkpt>
      <trkpt lat="40.4164180" lon="-3.7477370">
        <ele>624.0</ele>
        <time>2019-05-04T06:42:29Z</time>
      </trkpt>
      <trkpt lat="40.4164460" lon="-3.7477480">
        <ele>624.1</ele>
        <time>2019-05-04T06:42:30Z</time>
      </trkpt>
      <trkpt lat="40.4164800" lon="-3.7477560">
        <ele>624.3</ele>
        <time>2019-05-04T06:42:31Z</time>
      </trkpt>
      <trkpt lat="40.4165150" lon="-3.7477670">
        <ele>624.5</ele>
        <time>2019-05-04T06:42:32Z</time>
      </trkpt>
      <trkpt lat="40.4165520" lon="-3.7477790">
        <ele>624.6</ele>
        <time>2019-05-04T06:42:33Z</time>
      </trkpt>
      <trkpt lat="40.4165860" lon="-3.7477960">
        <ele>624.8</ele>
        <time>2019-05-04T06:42:34Z</time>
      </trkpt>
      <trkpt lat="40.4166210" lon="-3.7478170">
        <ele>625.0</ele>
        <time>2019-05-04T06:42:35Z</time>
      </trkpt>
      <trkpt lat="40.4166560" lon="-3.7478390">
        <ele>625.3</ele>
        <time>2019-05-04T06:42:36Z</time>
      </trkpt>
      <trkpt lat="40.4166940" lon="-3.7478600">
        <ele>625.5</ele>
        <time>2019-05-04T06:42:37Z</time>
      </trkpt>
      <trkpt lat="40.4167330" lon="-3.7478790">
        <ele>625.8</ele>
        <time>2019-05-04T06:42:38Z</time>
      </trkpt>
      <trkpt lat="40.4167710" lon="-3.7478960">
        <ele>625.8</ele>
        <time>2019-05-04T06:42:39Z</time>
      </trkpt>
      <trkpt lat="40.4168070" lon="-3.7479110">
        <ele>625.9</ele>
        <time>2019-05-04T06:42:40Z</time>
      </trkpt>
      <trkpt lat="40.4168430" lon="-3.7479240">
        <ele>626.0</ele>
        <time>2019-05-04T06:42:41Z</time>
      </trkpt>
      <trkpt lat="40.4168800" lon="-3.7479350">
        <ele>626.1</ele>
        <time>2019-05-04T06:42:42Z</time>
      </trkpt>
      <trkpt lat="40.4169200" lon="-3.7479450">
        <ele>626.1</ele>
        <time>2019-05-04T06:42:43Z</time>
      </trkpt>
      <trkpt lat="40.4169600" lon="-3.7479550">
        <ele>626.3</ele>
        <time>2019-05-04T06:42:44Z</time>
      </trkpt>
      <trkpt lat="40.4170000" lon="-3.7479650">
        <ele>626.4</ele>
        <time>2019-05-04T06:42:45Z</time>
      </trkpt>
      <trkpt lat="40.4170380" lon="-3.7479750">
        <ele>626.6</ele>
        <time>2019-05-04T06:42:46Z</time>
      </trkpt>
      <trkpt lat="40.4170730" lon="-3.7479860">
        <ele>626.7</ele>
        <time>2019-05-04T06:42:47Z</time>
      </trkpt>
      <trkpt lat="40.4171080" lon="-3.7479970">
        <ele>627.0</ele>
        <time>2019-05-04T06:42:48Z</time>
      </trkpt>
      <trkpt lat="40.4171440" lon="-3.7480070">
        <ele>627.2</ele>
        <time>2019-05-04T06:42:49Z</time>
      </trkpt>
      <trkpt lat="40.4171820" lon="-3.7480170">
        <ele>627.4</ele>
        <time>2019-05-04T06:42:50Z</time>
      </trkpt>
      <trkpt lat="40.4172190" lon="-3.7480240">
        <ele>627.7</ele>
        <time>2019-05-04T06:42:51Z</time>
      </trkpt>
      <trkpt lat="40.4172560" lon="-3.7480300">
        <ele>627.9</ele>
        <time>2019-05-04T06:42:52Z</time>
      </trkpt>
      <trkpt lat="40.4172930" lon="-3.7480350">
        <ele>628.2</ele>
        <time>2019-05-04T06:42:53Z</time>
      </trkpt>
      <trkpt lat="40.4173270" lon="-3.7480420">
        <ele>628.5</ele>
        <time>2019-05-04T06:42:54Z</time>
      </trkpt>
      <trkpt lat="40.4173600" lon="-3.7480490">
        <ele>628.7</ele>
        <time>2019-05-04T06:42:55Z</time>
      </trkpt>
      <trkpt lat="40.4173940" lon="-3.7480560">
        <ele>629.0</ele>
        <time>2019-05-04T06:42:56Z</time>
      </trkpt>
      <trkpt lat="40.4174270" lon="-3.7480630">
        <ele>629.3</ele>
        <time>2019-05-04T06:42:57Z</time>
      </trkpt>
      <trkpt lat="40.4174590" lon="-3.7480710">
        <ele>629.6</ele>
        <time>2019-05-04T06:42:58Z</time>
      </trkpt>
      <trkpt lat="40.4174920" lon="-3.7480800">
        <ele>629.9</ele>
        <time>2019-05-04T06:42:59Z</time>
      </trkpt>
      <trkpt lat="40.4175230" lon="-3.7480890">
        <ele>630.2</ele>
        <time>2019-05-04T06:43:00Z</time>
      </trkpt>
      <trkpt lat="40.4175550" lon="-3.7480990">
        <ele>630.5</ele>
        <time>2019-05-04T06:43:01Z</time>
      </trkpt>
      <trkpt lat="40.4175860" lon="-3.7481080">
        <ele>630.8</ele>
        <time>2019-05-04T06:43:02Z</time>
      </trkpt>
      <trkpt lat="40.4176190" lon="-3.7481160">
        <ele>631.1</ele>
        <time>2019-05-04T06:43:03Z</time>
      </trkpt>
      <trkpt lat="40.4176520" lon="-3.7481250">
        <ele>631.4</ele>
        <time>2019-05-04T06:43:04Z</time>
      </trkpt>
      <trkpt lat="40.4176850" lon="-3.7481320">
        <ele>631.7</ele>
        <time>2019-05-04T06:43:05Z</time>
      </trkpt>
      <trkpt lat="40.4177170" lon="-3.7481400">
        <ele>632.0</ele>
        <time>2019-05-04T06:43:06Z</time>
      </trkpt>
      <trkpt lat="40.4177490" lon="-3.7481490">
        <ele>632.4</ele>
        <time>2019-05-04T06:43:07Z</time>
      </trkpt>
      <trkpt lat="40.4177800" lon="-3.7481580">
        <ele>632.7</ele>
        <time>2019-05-04T06:43:08Z</time>
      </trkpt>
      <trkpt lat="40.4178070" lon="-3.7481680">
        <ele>633.0</ele>
        <time>2019-05-04T06:43:09Z</time>
      </trkpt>
      <trkpt lat="40.4178340" lon="-3.7481770">
        <ele>633.3</ele>
        <time>2019-05-04T06:43:10Z</time>
      </trkpt>
      <trkpt lat="40.4178580" lon="-3.7481850">
        <ele>633.7</ele>
        <time>2019-05-04T06:43:11Z</time>
      </trkpt>
      <trkpt lat="40.4178830" lon="-3.7481940">
        <ele>634.0</ele>
        <time>2019-05-04T06:43:12Z</time>
      </trkpt>
      <trkpt lat="40.4179090" lon="-3.7482050">
        <ele>634.3</ele>
        <time>2019-05-04T06:43:13Z</time>
      </trkpt>
      <trkpt lat="40.4179350" lon="-3.7482170">
        <ele>634.6</ele>
        <time>2019-05-04T06:43:14Z</time>
      </trkpt>
      <trkpt lat="40.4179620" lon="-3.7482280">
        <ele>635.0</ele>
        <time>2019-05-04T06:43:15Z</time>
      </trkpt>
      <trkpt lat="40.4179900" lon="-3.7482360">
        <ele>635.3</ele>
        <time>2019-05-04T06:43:16Z</time>
      </trkpt>
      <trkpt lat="40.4180200" lon="-3.7482460">
        <ele>635.7</ele>
        <time>2019-05-04T06:43:17Z</time>
      </trkpt>
      <trkpt lat="40.4180510" lon="-3.7482570">
        <ele>636.2</ele>
        <time>2019-05-04T06:43:18Z</time>
      </trkpt>
      <trkpt lat="40.4180810" lon="-3.7482690">
        <ele>636.6</ele>
        <time>2019-05-04T06:43:19Z</time>
      </trkpt>
      <trkpt lat="40.4181090" lon="-3.7482800">
        <ele>637.0</ele>
        <time>2019-05-04T06:43:20Z</time>
      </trkpt>
      <trkpt lat="40.4181370" lon="-3.7482900">
        <ele>637.4</ele>
        <time>2019-05-04T06:43:21Z</time>
      </trkpt>
      <trkpt lat="40.4181630" lon="-3.7483020">
        <ele>637.8</ele>
        <time>2019-05-04T06:43:22Z</time>
      </trkpt>
      <trkpt lat="40.4181900" lon="-3.7483150">
        <ele>638.1</ele>
        <time>2019-05-04T06:43:23Z</time>
      </trkpt>
      <trkpt lat="40.4182180" lon="-3.7483270">
        <ele>638.5</ele>
        <time>2019-05-04T06:43:24Z</time>
      </trkpt>
      <trkpt lat="40.4182480" lon="-3.7483400">
        <ele>638.9</ele>
        <time>2019-05-04T06:43:25Z</time>
      </trkpt>
      <trkpt lat="40.4182790" lon="-3.7483530">
        <ele>639.2</ele>
        <time>2019-05-04T06:43:26Z</time>
      </trkpt>
      <trkpt lat="40.4183100" lon="-3.7483650">
        <ele>639.5</ele>
        <time>2019-05-04T06:43:27Z</time>
      </trkpt>
      <trkpt lat="40.4183410" lon="-3.7483780">
        <ele>639.8</ele>
        <time>2019-05-04T06:43:28Z</time>
      </trkpt>
      <trkpt lat="40.4183720" lon="-3.7483900">
        <ele>640.0</ele>
        <time>2019-05-04T06:43:29Z</time>
      </trkpt>
      <trkpt lat="40.4184040" lon="-3.7484020">
        <ele>640.3</ele>
        <time>2019-05-04T06:43:30Z</time>
      </trkpt>
      <trkpt lat="40.4184360" lon="-3.7484160">
        <ele>640.5</ele>
        <time>2019-05-04T06:43:31Z</time>
      </trkpt>
      <trkpt lat="40.4184680" lon="-3.7484290">
        <ele>640.8</ele>
        <time>2019-05-04T06:43:32Z</time>
      </trkpt>
      <trkpt lat="40.4185000" lon="-3.7484440">
        <ele>641.0</ele>
        <time>2019-05-04T06:43:33Z</time>
      </trkpt>
      <trkpt lat="40.4185300" lon="-3.7484600">
        <ele>641.2</ele>
        <time>2019-05-04T06:43:34Z</time>
      </trkpt>
      <trkpt lat="40.4185590" lon="-3.7484770">
        <ele>641.3</ele>
        <time>2019-05-04T06:43:35Z</time>
      </trkpt>
      <trkpt lat="40.4185880" lon="-3.7484970">
        <ele>641.5</ele>
        <time>2019-05-04T06:43:36Z</time>
      </trkpt>
      <trkpt lat="40.4186150" lon="-3.7485190">
        <ele>641.7</ele>
        <time>2019-05-04T06:43:37Z</time>
      </trkpt>
      <trkpt lat="40.4186400" lon="-3.7485430">
        <ele>641.9</ele>
        <time>2019-05-04T06:43:38Z</time>
      </trkpt>
      <trkpt lat="40.4186640" lon="-3.7485680">
        <ele>642.1</ele>
        <time>2019-05-04T06:43:39Z</time>
      </trkpt>
      <trkpt lat="40.4186870" lon="-3.7485940">
        <ele>642.7</ele>
        <time>2019-05-04T06:43:40Z</time>
      </trkpt>
      <trkpt lat="40.4187100" lon="-3.7486200">
        <ele>643.1</ele>
        <time>2019-05-04T06:43:41Z</time>
      </trkpt>
      <trkpt lat="40.4187330" lon="-3.7486480">
        <ele>643.5</ele>
        <time>2019-05-04T06:43:42Z</time>
      </trkpt>
      <trkpt lat="40.4187550" lon="-3.7486770">
        <ele>643.9</ele>
        <time>2019-05-04T06:43:43Z</time>
      </trkpt>
      <trkpt lat="40.4187770" lon="-3.7487080">
        <ele>644.3</ele>
        <time>2019-05-04T06:43:44Z</time>
      </trkpt>
      <trkpt lat="40.4187980" lon="-3.7487390">
        <ele>644.6</ele>
        <time>2019-05-04T06:43:45Z</time>
      </trkpt>
      <trkpt lat="40.4188190" lon="-3.7487640">
        <ele>645.1</ele>
        <time>2019-05-04T06:43:46Z</time>
      </trkpt>
      <trkpt lat="40.4188370" lon="-3.7487840">
        <ele>645.4</ele>
        <time>2019-05-04T06:43:47Z</time>
      </trkpt>
      <trkpt lat="40.4188540" lon="-3.7488020">
        <ele>645.6</ele>
        <time>2019-05-04T06:43:48Z</time>
      </trkpt>
      <trkpt lat="40.4188700" lon="-3.7488200">
        <ele>645.8</ele>
        <time>2019-05-04T06:43:49Z</time>
      </trkpt>
      <trkpt lat="40.4188880" lon="-3.7488400">
        <ele>646.0</ele>
        <time>2019-05-04T06:43:50Z</time>
      </trkpt>
      <trkpt lat="40.4189050" lon="-3.7488590">
        <ele>646.2</ele>
        <time>2019-05-04T06:43:51Z</time>
      </trkpt>
      <trkpt lat="40.4189240" lon="-3.7488790">
        <ele>646.4</ele>
        <time>2019-05-04T06:43:52Z</time>
      </trkpt>
      <trkpt lat="40.4189430" lon="-3.7488980">
        <ele>646.6</ele>
        <time>2019-05-04T06:43:53Z</time>
      </trkpt>
      <trkpt lat="40.4189600" lon="-3.7489180">
        <ele>646.8</ele>
        <time>2019-05-04T06:43:54Z</time>
      </trkpt>
      <trkpt lat="40.4189770" lon="-3.7489390">
        <ele>647.0</ele>
        <time>2019-05-04T06:43:55Z</time>
      </trkpt>
      <trkpt lat="40.4189930" lon="-3.7489600">
        <ele>647.2</ele>
        <time>2019-05-04T06:43:56Z</time>
      </trkpt>
      <trkpt lat="40.4190100" lon="-3.7489800">
        <ele>647.3</ele>
        <time>2019-05-04T06:43:57Z</time>
      </trkpt>
      <trkpt lat="40.4190270" lon="-3.7490000">
        <ele>647.5</ele>
        <time>2019-05-04T06:43:58Z</time>
      </trkpt>
      <trkpt lat="40.4190440" lon="-3.7490210">
        <ele>647.7</ele>
        <time>2019-05-04T06:43:59Z</time>
      </trkpt>
      <trkpt lat="40.4190640" lon="-3.7490430">
        <ele>647.9</ele>
        <time>2019-05-04T06:44:00Z</time>
      </trkpt>
      <trkpt lat="40.4190840" lon="-3.7490640">
        <ele>648.1</ele>
        <time>2019-05-04T06:44:01Z</time>
      </trkpt>
      <trkpt lat="40.4191030" lon="-3.7490860">
        <ele>648.3</ele>
        <time>2019-05-04T06:44:02Z</time>
      </trkpt>
      <trkpt lat="40.4191210" lon="-3.7491080">
        <ele>648.5</ele>
        <time>2019-05-04T06:44:03Z</time>
      </trkpt>
      <trkpt lat="40.4191430" lon="-3.7491300">
        <ele>648.7</ele>
        <time>2019-05-04T06:44:04Z</time>
      </trkpt>
      <trkpt lat="40.4191660" lon="-3.7491510">
        <ele>648.8</ele>
        <time>2019-05-04T06:44:05Z</time>
      </trkpt>
      <trkpt lat="40.4191910" lon="-3.7491720">
        <ele>649.0</ele>
        <time>2019-05-04T06:44:06Z</time>
      </trkpt>
      <trkpt lat="40.4192130" lon="-3.7491940">
        <ele>649.2</ele>
        <time>2019-05-04T06:44:07Z</time>
      </trkpt>
      <trkpt lat="40.4192340" lon="-3.7492180">
        <ele>649.4</ele>
        <time>2019-05-04T06:44:08Z</time>
      </trkpt>
      <trkpt lat="40.4192580" lon="-3.7492430">
        <ele>649.6</ele>
        <time>2019-05-04T06:44:09Z</time>
      </trkpt>
      <trkpt lat="40.4192810" lon="-3.7492680">
        <ele>649.8</ele>
        <time>2019-05-04T06:44:10Z</time>
      </trkpt>
      <trkpt lat="40.4193040" lon="-3.7492940">
        <ele>650.0</ele>
        <time>2019-05-04T06:44:11Z</time>
      </trkpt>
      <trkpt lat="40.4193220" lon="-3.7493230">
        <ele>650.3</ele>
        <time>2019-05-04T06:44:12Z</time>
      </trkpt>
      <trkpt lat="40.4193360" lon="-3.7493560">
        <ele>650.5</ele>
        <time>2019-05-04T06:44:13Z</time>
      </trkpt>
      <trkpt lat="40.4193480" lon="-3.7493890">
        <ele>650.9</ele>
        <time>2019-05-04T06:44:14Z</time>
      </trkpt>
      <trkpt lat="40.4193590" lon="-3.7494230">
        <ele>650.9</ele>
        <time>2019-05-04T06:44:15Z</time>
      </trkpt>
      <trkpt lat="40.4193690" lon="-3.7494550">
        <ele>650.9</ele>
        <time>2019-05-04T06:44:16Z</time>
      </trkpt>
      <trkpt lat="40.4193770" lon="-3.7494880">
        <ele>650.9</ele>
        <time>2019-05-04T06:44:17Z</time>
      </trkpt>
      <trkpt lat="40.4193820" lon="-3.7495200">
        <ele>650.9</ele>
        <time>2019-05-04T06:44:18Z</time>
      </trkpt>
      <trkpt lat="40.4193870" lon="-3.7495530">
        <ele>650.9</ele>
        <time>2019-05-04T06:44:19Z</time>
      </trkpt>
      <trkpt lat="40.4193910" lon="-3.7495850">
        <ele>650.9</ele>
        <time>2019-05-04T06:44:20Z</time>
      </trkpt>
      <trkpt lat="40.4193960" lon="-3.7496150">
        <ele>650.9</ele>
        <time>2019-05-04T06:44:21Z</time>
      </trkpt>
      <trkpt lat="40.4194000" lon="-3.7496440">
        <ele>650.9</ele>
        <time>2019-05-04T06:44:22Z</time>
      </trkpt>
      <trkpt lat="40.4194050" lon="-3.7496720">
        <ele>650.9</ele>
        <time>2019-05-04T06:44:23Z</time>
      </trkpt>
      <trkpt lat="40.4194100" lon="-3.7496980">
        <ele>650.9</ele>
        <time>2019-05-04T06:44:24Z</time>
      </trkpt>
      <trkpt lat="40.4194130" lon="-3.7497240">
        <ele>650.9</ele>
        <time>2019-05-04T06:44:25Z</time>
      </trkpt>
      <trkpt lat="40.4194160" lon="-3.7497510">
        <ele>650.9</ele>
        <time>2019-05-04T06:44:26Z</time>
      </trkpt>
      <trkpt lat="40.4194190" lon="-3.7497790">
        <ele>650.9</ele>
        <time>2019-05-04T06:44:27Z</time>
      </trkpt>
      <trkpt lat="40.4194220" lon="-3.7498080">
        <ele>650.9</ele>
        <time>2019-05-04T06:44:28Z</time>
      </trkpt>
      <trkpt lat="40.4194260" lon="-3.7498370">
        <ele>650.9</ele>
        <time>2019-05-04T06:44:29Z</time>
      </trkpt>
      <trkpt lat="40.4194280" lon="-3.7498660">
        <ele>650.9</ele>
        <time>2019-05-04T06:44:30Z</time>
      </trkpt>
      <trkpt lat="40.4194310" lon="-3.7498940">
        <ele>650.9</ele>
        <time>2019-05-04T06:44:31Z</time>
      </trkpt>
      <trkpt lat="40.4194340" lon="-3.7499210">
        <ele>650.9</ele>
        <time>2019-05-04T06:44:32Z</time>
      </trkpt>
      <trkpt lat="40.4194380" lon="-3.7499450">
        <ele>650.9</ele>
        <time>2019-05-04T06:44:33Z</time>
      </trkpt>
      <trkpt lat="40.4194420" lon="-3.7499670">
        <ele>650.9</ele>
        <time>2019-05-04T06:44:34Z</time>
      </trkpt>
      <trkpt lat="40.4194460" lon="-3.7499890">
        <ele>650.9</ele>
        <time>2019-05-04T06:44:35Z</time>
      </trkpt>
      <trkpt lat="40.4194420" lon="-3.7500050">
        <ele>650.9</ele>
        <time>2019-05-04T06:44:36Z</time>
      </trkpt>
      <trkpt lat="40.4194350" lon="-3.7500130">
        <ele>650.9</ele>
        <time>2019-05-04T06:44:37Z</time>
      </trkpt>
      <trkpt lat="40.4194250" lon="-3.7500120">
        <ele>650.9</ele>
        <time>2019-05-04T06:44:38Z</time>
      </trkpt>
      <trkpt lat="40.4194200" lon="-3.7500040">
        <ele>650.9</ele>
        <time>2019-05-04T06:44:39Z</time>
      </trkpt>
      <trkpt lat="40.4194170" lon="-3.7499940">
        <ele>650.9</ele>
        <time>2019-05-04T06:44:40Z</time>
      </trkpt>
      <trkpt lat="40.4194170" lon="-3.7499820">
        <ele>650.9</ele>
        <time>2019-05-04T06:44:41Z</time>
      </trkpt>
      <trkpt lat="40.4194170" lon="-3.7499690">
        <ele>650.9</ele>
        <time>2019-05-04T06:44:42Z</time>
      </trkpt>
      <trkpt lat="40.4194170" lon="-3.7499500">
        <ele>650.9</ele>
        <time>2019-05-04T06:44:43Z</time>
      </trkpt>
      <trkpt lat="40.4194140" lon="-3.7499220">
        <ele>650.9</ele>
        <time>2019-05-04T06:44:44Z</time>
      </trkpt>
      <trkpt lat="40.4194120" lon="-3.7498920">
        <ele>650.9</ele>
        <time>2019-05-04T06:44:45Z</time>
      </trkpt>
      <trkpt lat="40.4194090" lon="-3.7498590">
        <ele>650.9</ele>
        <time>2019-05-04T06:44:46Z</time>
      </trkpt>
      <trkpt lat="40.4194080" lon="-3.7498300">
        <ele>650.9</ele>
        <time>2019-05-04T06:44:47Z</time>
      </trkpt>
      <trkpt lat="40.4194070" lon="-3.7498010">
        <ele>650.9</ele>
        <time>2019-05-04T06:44:48Z</time>
      </trkpt>
      <trkpt lat="40.4194060" lon="-3.7497710">
        <ele>650.9</ele>
        <time>2019-05-04T06:44:49Z</time>
      </trkpt>
      <trkpt lat="40.4194050" lon="-3.7497380">
        <ele>650.9</ele>
        <time>2019-05-04T06:44:50Z</time>
      </trkpt>
      <trkpt lat="40.4194060" lon="-3.7496990">
        <ele>650.9</ele>
        <time>2019-05-04T06:44:51Z</time>
      </trkpt>
      <trkpt lat="40.4194070" lon="-3.7496570">
        <ele>650.9</ele>
        <time>2019-05-04T06:44:52Z</time>
      </trkpt>
      <trkpt lat="40.4194070" lon="-3.7496130">
        <ele>650.9</ele>
        <time>2019-05-04T06:44:53Z</time>
      </trkpt>
      <trkpt lat="40.4194030" lon="-3.7495700">
        <ele>650.9</ele>
        <time>2019-05-04T06:44:54Z</time>
      </trkpt>
      <trkpt lat="40.4193910" lon="-3.7495200">
        <ele>650.9</ele>
        <time>2019-05-04T06:44:55Z</time>
      </trkpt>
      <trkpt lat="40.4193720" lon="-3.7494650">
        <ele>650.9</ele>
        <time>2019-05-04T06:44:56Z</time>
      </trkpt>
      <trkpt lat="40.4193440" lon="-3.7493990">
        <ele>650.7</ele>
        <time>2019-05-04T06:44:57Z</time>
      </trkpt>
      <trkpt lat="40.4193070" lon="-3.7493270">
        <ele>650.5</ele>
        <time>2019-05-04T06:44:58Z</time>
      </trkpt>
      <trkpt lat="40.4192660" lon="-3.7492500">
        <ele>650.1</ele>
        <time>2019-05-04T06:44:59Z</time>
      </trkpt>
      <trkpt lat="40.4192190" lon="-3.7491750">
        <ele>649.5</ele>
        <time>2019-05-04T06:45:00Z</time>
      </trkpt>
      <trkpt lat="40.4191700" lon="-3.7491070">
        <ele>649.0</ele>
        <time>2019-05-04T06:45:01Z</time>
      </trkpt>
      <trkpt lat="40.4191120" lon="-3.7490420">
        <ele>648.4</ele>
        <time>2019-05-04T06:45:02Z</time>
      </trkpt>
      <trkpt lat="40.4190510" lon="-3.7489760">
        <ele>647.8</ele>
        <time>2019-05-04T06:45:03Z</time>
      </trkpt>
      <trkpt lat="40.4189890" lon="-3.7489080">
        <ele>647.1</ele>
        <time>2019-05-04T06:45:04Z</time>
      </trkpt>
      <trkpt lat="40.4189300" lon="-3.7488380">
        <ele>646.4</ele>
        <time>2019-05-04T06:45:05Z</time>
      </trkpt>
      <trkpt lat="40.4188700" lon="-3.7487650">
        <ele>645.6</ele>
        <time>2019-05-04T06:45:06Z</time>
      </trkpt>
      <trkpt lat="40.4188090" lon="-3.7486920">
        <ele>644.5</ele>
        <time>2019-05-04T06:45:07Z</time>
      </trkpt>
      <trkpt lat="40.4187450" lon="-3.7486240">
        <ele>643.5</ele>
        <time>2019-05-04T06:45:08Z</time>
      </trkpt>
      <trkpt lat="40.4186730" lon="-3.7485620">
        <ele>642.4</ele>
        <time>2019-05-04T06:45:09Z</time>
      </trkpt>
      <trkpt lat="40.4185930" lon="-3.7485080">
        <ele>641.7</ele>
        <time>2019-05-04T06:45:10Z</time>
      </trkpt>
      <trkpt lat="40.4185080" lon="-3.7484650">
        <ele>641.2</ele>
        <time>2019-05-04T06:45:11Z</time>
      </trkpt>
      <trkpt lat="40.4184230" lon="-3.7484280">
        <ele>640.6</ele>
        <time>2019-05-04T06:45:12Z</time>
      </trkpt>
      <trkpt lat="40.4183420" lon="-3.7483970">
        <ele>639.9</ele>
        <time>2019-05-04T06:45:13Z</time>
      </trkpt>
      <trkpt lat="40.4182670" lon="-3.7483650">
        <ele>639.2</ele>
        <time>2019-05-04T06:45:14Z</time>
      </trkpt>
      <trkpt lat="40.4181980" lon="-3.7483370">
        <ele>638.4</ele>
        <time>2019-05-04T06:45:15Z</time>
      </trkpt>
      <trkpt lat="40.4181310" lon="-3.7483100">
        <ele>637.5</ele>
        <time>2019-05-04T06:45:16Z</time>
      </trkpt>
      <trkpt lat="40.4180650" lon="-3.7482870">
        <ele>636.5</ele>
        <time>2019-05-04T06:45:17Z</time>
      </trkpt>
      <trkpt lat="40.4179980" lon="-3.7482660">
        <ele>635.6</ele>
        <time>2019-05-04T06:45:18Z</time>
      </trkpt>
      <trkpt lat="40.4179300" lon="-3.7482470">
        <ele>634.7</ele>
        <time>2019-05-04T06:45:19Z</time>
      </trkpt>
      <trkpt lat="40.4178580" lon="-3.7482260">
        <ele>633.8</ele>
        <time>2019-05-04T06:45:20Z</time>
      </trkpt>
      <trkpt lat="40.4177810" lon="-3.7482030">
        <ele>632.8</ele>
        <time>2019-05-04T06:45:21Z</time>
      </trkpt>
      <trkpt lat="40.4176950" lon="-3.7481780">
        <ele>631.9</ele>
        <time>2019-05-04T06:45:22Z</time>
      </trkpt>
      <trkpt lat="40.4176060" lon="-3.7481530">
        <ele>631.0</ele>
        <time>2019-05-04T06:45:23Z</time>
      </trkpt>
      <trkpt lat="40.4175070" lon="-3.7481220">
        <ele>630.0</ele>
        <time>2019-05-04T06:45:24Z</time>
      </trkpt>
      <trkpt lat="40.4174070" lon="-3.7480900">
        <ele>629.1</ele>
        <time>2019-05-04T06:45:25Z</time>
      </trkpt>
      <trkpt lat="40.4173050" lon="-3.7480570">
        <ele>628.2</ele>
        <time>2019-05-04T06:45:26Z</time>
      </trkpt>
      <trkpt lat="40.4172050" lon="-3.7480270">
        <ele>627.5</ele>
        <time>2019-05-04T06:45:27Z</time>
      </trkpt>
      <trkpt lat="40.4171070" lon="-3.7479990">
        <ele>626.8</ele>
        <time>2019-05-04T06:45:28Z</time>
      </trkpt>
      <trkpt lat="40.4170130" lon="-3.7479720">
        <ele>626.4</ele>
        <time>2019-05-04T06:45:29Z</time>
      </trkpt>
      <trkpt lat="40.4169200" lon="-3.7479450">
        <ele>626.1</ele>
        <time>2019-05-04T06:45:30Z</time>
      </trkpt>
      <trkpt lat="40.4168300" lon="-3.7479100">
        <ele>625.9</ele>
        <time>2019-05-04T06:45:31Z</time>
      </trkpt>
      <trkpt lat="40.4167440" lon="-3.7478710">
        <ele>625.8</ele>
        <time>2019-05-04T06:45:32Z</time>
      </trkpt>
      <trkpt lat="40.4166630" lon="-3.7478280">
        <ele>625.2</ele>
        <time>2019-05-04T06:45:33Z</time>
      </trkpt>
      <trkpt lat="40.4165860" lon="-3.7477900">
        <ele>624.5</ele>
        <time>2019-05-04T06:45:34Z</time>
      </trkpt>
      <trkpt lat="40.4165110" lon="-3.7477540">
        <ele>624.0</ele>
        <time>2019-05-04T06:45:35Z</time>
      </trkpt>
      <trkpt lat="40.4164390" lon="-3.7477220">
        <ele>623.4</ele>
        <time>2019-05-04T06:45:36Z</time>
      </trkpt>
      <trkpt lat="40.4163740" lon="-3.7476920">
        <ele>622.8</ele>
        <time>2019-05-04T06:45:37Z</time>
      </trkpt>
      <trkpt lat="40.4163140" lon="-3.7476640">
        <ele>622.3</ele>
        <time>2019-05-04T06:45:38Z</time>
      </trkpt>
      <trkpt lat="40.4162570" lon="-3.7476420">
        <ele>621.8</ele>
        <time>2019-05-04T06:45:39Z</time>
      </trkpt>
      <trkpt lat="40.4162050" lon="-3.7476260">
        <ele>621.4</ele>
        <time>2019-05-04T06:45:40Z</time>
      </trkpt>
      <trkpt lat="40.4161680" lon="-3.7476190">
        <ele>621.1</ele>
        <time>2019-05-04T06:45:41Z</time>
      </trkpt>
      <trkpt lat="40.4161450" lon="-3.7476140">
        <ele>620.9</ele>
        <time>2019-05-04T06:45:42Z</time>
      </trkpt>
      <trkpt lat="40.4161250" lon="-3.7476120">
        <ele>620.8</ele>
        <time>2019-05-04T06:45:43Z</time>
      </trkpt>
      <trkpt lat="40.4160940" lon="-3.7476150">
        <ele>620.5</ele>
        <time>2019-05-04T06:45:44Z</time>
      </trkpt>
      <trkpt lat="40.4160630" lon="-3.7476290">
        <ele>620.2</ele>
        <time>2019-05-04T06:45:45Z</time>
      </trkpt>
      <trkpt lat="40.4160360" lon="-3.7476460">
        <ele>620.0</ele>
        <time>2019-05-04T06:45:46Z</time>
      </trkpt>
      <trkpt lat="40.4160180" lon="-3.7476550">
        <ele>620.1</ele>
        <time>2019-05-04T06:45:47Z</time>
      </trkpt>
      <trkpt lat="40.4160020" lon="-3.7476500">
        <ele>620.1</ele>
        <time>2019-05-04T06:45:48Z</time>
      </trkpt>
      <trkpt lat="40.4159960" lon="-3.7476380">
        <ele>620.2</ele>
        <time>2019-05-04T06:45:49Z</time>
      </trkpt>
      <trkpt lat="40.4159970" lon="-3.7476240">
        <ele>620.2</ele>
        <time>2019-05-04T06:45:50Z</time>
      </trkpt>
      <trkpt lat="40.4160030" lon="-3.7476100">
        <ele>620.2</ele>
        <time>2019-05-04T06:45:51Z</time>
      </trkpt>
      <trkpt lat="40.4160130" lon="-3.7475920">
        <ele>620.3</ele>
        <time>2019-05-04T06:45:52Z</time>
      </trkpt>
      <trkpt lat="40.4160270" lon="-3.7475790">
        <ele>620.4</ele>
        <time>2019-05-04T06:45:53Z</time>
      </trkpt>
      <trkpt lat="40.4160500" lon="-3.7475770">
        <ele>620.5</ele>
        <time>2019-05-04T06:45:54Z</time>
      </trkpt>
      <trkpt lat="40.4160760" lon="-3.7475830">
        <ele>620.5</ele>
        <time>2019-05-04T06:45:55Z</time>
      </trkpt>
      <trkpt lat="40.4161030" lon="-3.7475930">
        <ele>620.7</ele>
        <time>2019-05-04T06:45:56Z</time>
      </trkpt>
      <trkpt lat="40.4161290" lon="-3.7476070">
        <ele>620.8</ele>
        <time>2019-05-04T06:45:57Z</time>
      </trkpt>
      <trkpt lat="40.4161580" lon="-3.7476230">
        <ele>621.1</ele>
        <time>2019-05-04T06:45:58Z</time>
      </trkpt>
      <trkpt lat="40.4161880" lon="-3.7476420">
        <ele>621.3</ele>
        <time>2019-05-04T06:45:59Z</time>
      </trkpt>
      <trkpt lat="40.4162180" lon="-3.7476570">
        <ele>621.6</ele>
        <time>2019-05-04T06:46:00Z</time>
      </trkpt>
      <trkpt lat="40.4162450" lon="-3.7476710">
        <ele>621.8</ele>
        <time>2019-05-04T06:46:01Z</time>
      </trkpt>
      <trkpt lat="40.4162730" lon="-3.7476850">
        <ele>622.0</ele>
        <time>2019-05-04T06:46:02Z</time>
      </trkpt>
      <trkpt lat="40.4162980" lon="-3.7477000">
        <ele>622.2</ele>
        <time>2019-05-04T06:46:03Z</time>
      </trkpt>
      <trkpt lat="40.4163240" lon="-3.7477140">
        <ele>622.5</ele>
        <time>2019-05-04T06:46:04Z</time>
      </trkpt>
      <trkpt lat="40.4163510" lon="-3.7477270">
        <ele>622.7</ele>
        <time>2019-05-04T06:46:05Z</time>
      </trkpt>
      <trkpt lat="40.4163820" lon="-3.7477400">
        <ele>623.0</ele>
        <time>2019-05-04T06:46:06Z</time>
      </trkpt>
      <trkpt lat="40.4164170" lon="-3.7477500">
        <ele>623.3</ele>
        <time>2019-05-04T06:46:07Z</time>
      </trkpt>
      <trkpt lat="40.4164530" lon="-3.7477590">
        <ele>623.6</ele>
        <time>2019-05-04T06:46:08Z</time>
      </trkpt>
      <trkpt lat="40.4164890" lon="-3.7477670">
        <ele>623.8</ele>
        <time>2019-05-04T06:46:09Z</time>
      </trkpt>
      <trkpt lat="40.4165200" lon="-3.7477800">
        <ele>624.1</ele>
        <time>2019-05-04T06:46:10Z</time>
      </trkpt>
      <trkpt lat="40.4165530" lon="-3.7477930">
        <ele>624.3</ele>
        <time>2019-05-04T06:46:11Z</time>
      </trkpt>
      <trkpt lat="40.4165840" lon="-3.7478080">
        <ele>624.5</ele>
        <time>2019-05-04T06:46:12Z</time>
      </trkpt>
      <trkpt lat="40.4166200" lon="-3.7478220">
        <ele>624.8</ele>
        <time>2019-05-04T06:46:13Z</time>
      </trkpt>
      <trkpt lat="40.4166550" lon="-3.7478370">
        <ele>625.1</ele>
        <time>2019-05-04T06:46:14Z</time>
      </trkpt>
      <trkpt lat="40.4166920" lon="-3.7478500">
        <ele>625.4</ele>
        <time>2019-05-04T06:46:15Z</time>
      </trkpt>
      <trkpt lat="40.4167280" lon="-3.7478620">
        <ele>625.8</ele>
        <time>2019-05-04T06:46:16Z</time>
      </trkpt>
      <trkpt lat="40.4167630" lon="-3.7478730">
        <ele>625.8</ele>
        <time>2019-05-04T06:46:17Z</time>
      </trkpt>
      <trkpt lat="40.4167960" lon="-3.7478820">
        <ele>625.8</ele>
        <time>2019-05-04T06:46:18Z</time>
      </trkpt>
      <trkpt lat="40.4168280" lon="-3.7478920">
        <ele>625.8</ele>
        <time>2019-05-04T06:46:19Z</time>
      </trkpt>
      <trkpt lat="40.4168590" lon="-3.7479010">
        <ele>625.9</ele>
        <time>2019-05-04T06:46:20Z</time>
      </trkpt>
      <trkpt lat="40.4168900" lon="-3.7479110">
        <ele>626.0</ele>
        <time>2019-05-04T06:46:21Z</time>
      </trkpt>
      <trkpt lat="40.4169220" lon="-3.7479210">
        <ele>626.1</ele>
        <time>2019-05-04T06:46:22Z</time>
      </trkpt>
      <trkpt lat="40.4169550" lon="-3.7479320">
        <ele>626.2</ele>
        <time>2019-05-04T06:46:23Z</time>
      </trkpt>
      <trkpt lat="40.4169900" lon="-3.7479400">
        <ele>626.3</ele>
        <time>2019-05-04T06:46:24Z</time>
      </trkpt>
      <trkpt lat="40.4170270" lon="-3.7479460">
        <ele>626.4</ele>
        <time>2019-05-04T06:46:25Z</time>
      </trkpt>
      <trkpt lat="40.4170630" lon="-3.7479530">
        <ele>626.6</ele>
        <time>2019-05-04T06:46:26Z</time>
      </trkpt>
      <trkpt lat="40.4170970" lon="-3.7479620">
        <ele>626.7</ele>
        <time>2019-05-04T06:46:27Z</time>
      </trkpt>
      <trkpt lat="40.4171310" lon="-3.7479720">
        <ele>626.9</ele>
        <time>2019-05-04T06:46:28Z</time>
      </trkpt>
      <trkpt lat="40.4171640" lon="-3.7479820">
        <ele>627.2</ele>
        <time>2019-05-04T06:46:29Z</time>
      </trkpt>
      <trkpt lat="40.4171970" lon="-3.7479910">
        <ele>627.4</ele>
        <time>2019-05-04T06:46:30Z</time>
      </trkpt>
      <trkpt lat="40.4172280" lon="-3.7479990">
        <ele>627.6</ele>
        <time>2019-05-04T06:46:31Z</time>
      </trkpt>
      <trkpt lat="40.4172600" lon="-3.7480050">
        <ele>627.8</ele>
        <time>2019-05-04T06:46:32Z</time>
      </trkpt>
      <trkpt lat="40.4172920" lon="-3.7480120">
        <ele>628.0</ele>
        <time>2019-05-04T06:46:33Z</time>
      </trkpt>
      <trkpt lat="40.4173230" lon="-3.7480190">
        <ele>628.3</ele>
        <time>2019-05-04T06:46:34Z</time>
      </trkpt>
      <trkpt lat="40.4173540" lon="-3.7480260">
        <ele>628.5</ele>
        <time>2019-05-04T06:46:35Z</time>
      </trkpt>
      <trkpt lat="40.4173840" lon="-3.7480330">
        <ele>628.8</ele>
        <time>2019-05-04T06:46:36Z</time>
      </trkpt>
      <trkpt lat="40.4174140" lon="-3.7480420">
        <ele>629.0</ele>
        <time>2019-05-04T06:46:37Z</time>
      </trkpt>
      <trkpt lat="40.4174440" lon="-3.7480510">
        <ele>629.3</ele>
        <time>2019-05-04T06:46:38Z</time>
      </trkpt>
      <trkpt lat="40.4174750" lon="-3.7480610">
        <ele>629.6</ele>
        <time>2019-05-04T06:46:39Z</time>
      </trkpt>
      <trkpt lat="40.4175040" lon="-3.7480700">
        <ele>629.9</ele>
        <time>2019-05-04T06:46:40Z</time>
      </trkpt>
      <trkpt lat="40.4175330" lon="-3.7480800">
        <ele>630.1</ele>
        <time>2019-05-04T06:46:41Z</time>
      </trkpt>
      <trkpt lat="40.4175630" lon="-3.7480890">
        <ele>630.4</ele>
        <time>2019-05-04T06:46:42Z</time>
      </trkpt>
      <trkpt lat="40.4175920" lon="-3.7480980">
        <ele>630.7</ele>
        <time>2019-05-04T06:46:43Z</time>
      </trkpt>
      <trkpt lat="40.4176200" lon="-3.7481070">
        <ele>631.0</ele>
        <time>2019-05-04T06:46:44Z</time>
      </trkpt>
      <trkpt lat="40.4176470" lon="-3.7481160">
        <ele>631.3</ele>
        <time>2019-05-04T06:46:45Z</time>
      </trkpt>
      <trkpt lat="40.4176750" lon="-3.7481250">
        <ele>631.5</ele>
        <time>2019-05-04T06:46:46Z</time>
      </trkpt>
      <trkpt lat="40.4177030" lon="-3.7481350">
        <ele>631.8</ele>
        <time>2019-05-04T06:46:47Z</time>
      </trkpt>
      <trkpt lat="40.4177320" lon="-3.7481440">
        <ele>632.1</ele>
        <time>2019-05-04T06:46:48Z</time>
      </trkpt>
      <trkpt lat="40.4177610" lon="-3.7481520">
        <ele>632.4</ele>
        <time>2019-05-04T06:46:49Z</time>
      </trkpt>
      <trkpt lat="40.4177910" lon="-3.7481610">
        <ele>632.8</ele>
        <time>2019-05-04T06:46:50Z</time>
      </trkpt>
      <trkpt lat="40.4178200" lon="-3.7481700">
        <ele>633.1</ele>
        <time>2019-05-04T06:46:51Z</time>
      </trkpt>
      <trkpt lat="40.4178480" lon="-3.7481780">
        <ele>633.5</ele>
        <time>2019-05-04T06:46:52Z</time>
      </trkpt>
      <trkpt lat="40.4178760" lon="-3.7481870">
        <ele>633.8</ele>
        <time>2019-05-04T06:46:53Z</time>
      </trkpt>
      <trkpt lat="40.4179020" lon="-3.7481960">
        <ele>634.2</ele>
        <time>2019-05-04T06:46:54Z</time>
      </trkpt>
      <trkpt lat="40.4179270" lon="-3.7482060">
        <ele>634.5</ele>
        <time>2019-05-04T06:46:55Z</time>
      </trkpt>
      <trkpt lat="40.4179490" lon="-3.7482170">
        <ele>634.8</ele>
        <time>2019-05-04T06:46:56Z</time>
      </trkpt>
      <trkpt lat="40.4179720" lon="-3.7482260">
        <ele>635.1</ele>
        <time>2019-05-04T06:46:57Z</time>
      </trkpt>
      <trkpt lat="40.4179950" lon="-3.7482360">
        <ele>635.4</ele>
        <time>2019-05-04T06:46:58Z</time>
      </trkpt>
      <trkpt lat="40.4180200" lon="-3.7482450">
        <ele>635.8</ele>
        <time>2019-05-04T06:46:59Z</time>
      </trkpt>
      <trkpt lat="40.4180450" lon="-3.7482540">
        <ele>636.1</ele>
        <time>2019-05-04T06:47:00Z</time>
      </trkpt>
      <trkpt lat="40.4180690" lon="-3.7482630">
        <ele>636.5</ele>
        <time>2019-05-04T06:47:01Z</time>
      </trkpt>
      <trkpt lat="40.4180940" lon="-3.7482720">
        <ele>636.8</ele>
        <time>2019-05-04T06:47:02Z</time>
      </trkpt>
      <trkpt lat="40.4181200" lon="-3.7482820">
        <ele>637.2</ele>
        <time>2019-05-04T06:47:03Z</time>
      </trkpt>
      <trkpt lat="40.4181440" lon="-3.7482940">
        <ele>637.6</ele>
        <time>2019-05-04T06:47:04Z</time>
      </trkpt>
      <trkpt lat="40.4181670" lon="-3.7483060">
        <ele>637.9</ele>
        <time>2019-05-04T06:47:05Z</time>
      </trkpt>
      <trkpt lat="40.4181890" lon="-3.7483170">
        <ele>638.2</ele>
        <time>2019-05-04T06:47:06Z</time>
      </trkpt>
      <trkpt lat="40.4182120" lon="-3.7483290">
        <ele>638.5</ele>
        <time>2019-05-04T06:47:07Z</time>
      </trkpt>
      <trkpt lat="40.4182380" lon="-3.7483390">
        <ele>638.8</ele>
        <time>2019-05-04T06:47:08Z</time>
      </trkpt>
      <trkpt lat="40.4182640" lon="-3.7483500">
        <ele>639.1</ele>
        <time>2019-05-04T06:47:09Z</time>
      </trkpt>
      <trkpt lat="40.4182920" lon="-3.7483620">
        <ele>639.4</ele>
        <time>2019-05-04T06:47:10Z</time>
      </trkpt>
      <trkpt lat="40.4183200" lon="-3.7483750">
        <ele>639.7</ele>
        <time>2019-05-04T06:47:11Z</time>
      </trkpt>
      <trkpt lat="40.4183490" lon="-3.7483880">
        <ele>639.9</ele>
        <time>2019-05-04T06:47:12Z</time>
      </trkpt>
      <trkpt lat="40.4183770" lon="-3.7484010">
        <ele>640.2</ele>
        <time>2019-05-04T06:47:13Z</time>
      </trkpt>
      <trkpt lat="40.4184040" lon="-3.7484150">
        <ele>640.4</ele>
        <time>2019-05-04T06:47:14Z</time>
      </trkpt>
      <trkpt lat="40.4184290" lon="-3.7484280">
        <ele>640.6</ele>
        <time>2019-05-04T06:47:15Z</time>
      </trkpt>
      <trkpt lat="40.4184560" lon="-3.7484430">
        <ele>640.8</ele>
        <time>2019-05-04T06:47:16Z</time>
      </trkpt>
      <trkpt lat="40.4184820" lon="-3.7484570">
        <ele>641.0</ele>
        <time>2019-05-04T06:47:17Z</time>
      </trkpt>
      <trkpt lat="40.4185070" lon="-3.7484730">
        <ele>641.2</ele>
        <time>2019-05-04T06:47:18Z</time>
      </trkpt>
      <trkpt lat="40.4185330" lon="-3.7484890">
        <ele>641.3</ele>
        <time>2019-05-04T06:47:19Z</time>
      </trkpt>
      <trkpt lat="40.4185590" lon="-3.7485080">
        <ele>641.5</ele>
        <time>2019-05-04T06:47:20Z</time>
      </trkpt>
      <trkpt lat="40.4185840" lon="-3.7485300">
        <ele>641.7</ele>
        <time>2019-05-04T06:47:21Z</time>
      </trkpt>
      <trkpt lat="40.4186090" lon="-3.7485530">
        <ele>641.9</ele>
        <time>2019-05-04T06:47:22Z</time>
      </trkpt>
      <trkpt lat="40.4186330" lon="-3.7485740">
        <ele>642.1</ele>
        <time>2019-05-04T06:47:23Z</time>
      </trkpt>
      <trkpt lat="40.4186570" lon="-3.7485950">
        <ele>642.5</ele>
        <time>2019-05-04T06:47:24Z</time>
      </trkpt>
      <trkpt lat="40.4186780" lon="-3.7486170">
        <ele>642.8</ele>
        <time>2019-05-04T06:47:25Z</time>
      </trkpt>
      <trkpt lat="40.4186970" lon="-3.7486400">
        <ele>643.2</ele>
        <time>2019-05-04T06:47:26Z</time>
      </trkpt>
      <trkpt lat="40.4187140" lon="-3.7486630">
        <ele>643.5</ele>
        <time>2019-05-04T06:47:27Z</time>
      </trkpt>
      <trkpt lat="40.4187310" lon="-3.7486860">
        <ele>643.8</ele>
        <time>2019-05-04T06:47:28Z</time>
      </trkpt>
      <trkpt lat="40.4187480" lon="-3.7487080">
        <ele>644.1</ele>
        <time>2019-05-04T06:47:29Z</time>
      </trkpt>
      <trkpt lat="40.4187660" lon="-3.7487300">
        <ele>644.4</ele>
        <time>2019-05-04T06:47:30Z</time>
      </trkpt>
      <trkpt lat="40.4187850" lon="-3.7487510">
        <ele>644.7</ele>
        <time>2019-05-04T06:47:31Z</time>
      </trkpt>
      <trkpt lat="40.4188030" lon="-3.7487730">
        <ele>645.0</ele>
        <time>2019-05-04T06:47:32Z</time>
      </trkpt>
      <trkpt lat="40.4188210" lon="-3.7487940">
        <ele>645.3</ele>
        <time>2019-05-04T06:47:33Z</time>
      </trkpt>
      <trkpt lat="40.4188380" lon="-3.7488140">
        <ele>645.6</ele>
        <time>2019-05-04T06:47:34Z</time>
      </trkpt>
      <trkpt lat="40.4188570" lon="-3.7488340">
        <ele>645.8</ele>
        <time>2019-05-04T06:47:35Z</time>
      </trkpt>
      <trkpt lat="40.4188760" lon="-3.7488540">
        <ele>646.1</ele>
        <time>2019-05-04T06:47:36Z</time>
      </trkpt>
      <trkpt lat="40.4188950" lon="-3.7488730">
        <ele>646.3</ele>
        <time>2019-05-04T06:47:37Z</time>
      </trkpt>
      <trkpt lat="40.4189130" lon="-3.7488930">
        <ele>646.5</ele>
        <time>2019-05-04T06:47:38Z</time>
      </trkpt>
      <trkpt lat="40.4189320" lon="-3.7489130">
        <ele>646.7</ele>
        <time>2019-05-04T06:47:39Z</time>
      </trkpt>
      <trkpt lat="40.4189520" lon="-3.7489350">
        <ele>647.0</ele>
        <time>2019-05-04T06:47:40Z</time>
      </trkpt>
      <trkpt lat="40.4189720" lon="-3.7489570">
        <ele>647.2</ele>
        <time>2019-05-04T06:47:41Z</time>
      </trkpt>
      <trkpt lat="40.4189930" lon="-3.7489780">
        <ele>647.4</ele>
        <time>2019-05-04T06:47:42Z</time>
      </trkpt>
      <trkpt lat="40.4190130" lon="-3.7489990">
        <ele>647.6</ele>
        <time>2019-05-04T06:47:43Z</time>
      </trkpt>
      <trkpt lat="40.4190330" lon="-3.7490200">
        <ele>647.8</ele>
        <time>2019-05-04T06:47:44Z</time>
      </trkpt>
      <trkpt lat="40.4190510" lon="-3.7490410">
        <ele>648.0</ele>
        <time>2019-05-04T06:47:45Z</time>
      </trkpt>
      <trkpt lat="40.4190690" lon="-3.7490610">
        <ele>648.2</ele>
        <time>2019-05-04T06:47:46Z</time>
      </trkpt>
      <trkpt lat="40.4190880" lon="-3.7490830">
        <ele>648.4</ele>
        <time>2019-05-04T06:47:47Z</time>
      </trkpt>
      <trkpt lat="40.4191080" lon="-3.7491050">
        <ele>648.7</ele>
        <time>2019-05-04T06:47:48Z</time>
      </trkpt>
      <trkpt lat="40.4191290" lon="-3.7491300">
        <ele>648.9</ele>
        <time>2019-05-04T06:47:49Z</time>
      </trkpt>
      <trkpt lat="40.4191510" lon="-3.7491570">
        <ele>649.1</ele>
        <time>2019-05-04T06:47:50Z</time>
      </trkpt>
      <trkpt lat="40.4191720" lon="-3.7491830">
        <ele>649.3</ele>
        <time>2019-05-04T06:47:51Z</time>
      </trkpt>
      <trkpt lat="40.4191920" lon="-3.7492090">
        <ele>649.5</ele>
        <time>2019-05-04T06:47:52Z</time>
      </trkpt>
      <trkpt lat="40.4192110" lon="-3.7492340">
        <ele>649.7</ele>
        <time>2019-05-04T06:47:53Z</time>
      </trkpt>
      <trkpt lat="40.4192310" lon="-3.7492600">
        <ele>649.9</ele>
        <time>2019-05-04T06:47:54Z</time>
      </trkpt>
      <trkpt lat="40.4192520" lon="-3.7492870">
        <ele>650.2</ele>
        <time>2019-05-04T06:47:55Z</time>
      </trkpt>
      <trkpt lat="40.4192730" lon="-3.7493170">
        <ele>650.5</ele>
        <time>2019-05-04T06:47:56Z</time>
      </trkpt>
      <trkpt lat="40.4192950" lon="-3.7493500">
        <ele>650.6</ele>
        <time>2019-05-04T06:47:57Z</time>
      </trkpt>
      <trkpt lat="40.4193140" lon="-3.7493810">
        <ele>650.7</ele>
        <time>2019-05-04T06:47:58Z</time>
      </trkpt>
      <trkpt lat="40.4193290" lon="-3.7494100">
        <ele>650.9</ele>
        <time>2019-05-04T06:47:59Z</time>
      </trkpt>
      <trkpt lat="40.4193390" lon="-3.7494370">
        <ele>650.9</ele>
        <time>2019-05-04T06:48:00Z</time>
      </trkpt>
      <trkpt lat="40.4193470" lon="-3.7494630">
        <ele>650.9</ele>
        <time>2019-05-04T06:48:01Z</time>
      </trkpt>
      <trkpt lat="40.4193520" lon="-3.7494890">
        <ele>650.9</ele>
        <time>2019-05-04T06:48:02Z</time>
      </trkpt>
      <trkpt lat="40.4193570" lon="-3.7495150">
        <ele>650.9</ele>
        <time>2019-05-04T06:48:03Z</time>
      </trkpt>
      <trkpt lat="40.4193630" lon="-3.7495440">
        <ele>650.9</ele>
        <time>2019-05-04T06:48:04Z</time>
      </trkpt>
      <trkpt lat="40.4193700" lon="-3.7495720">
        <ele>650.9</ele>
        <time>2019-05-04T06:48:05Z</time>
      </trkpt>
      <trkpt lat="40.4193770" lon="-3.7496010">
        <ele>650.9</ele>
        <time>2019-05-04T06:48:06Z</time>
      </trkpt>
      <trkpt lat="40.4193810" lon="-3.7496290">
        <ele>650.9</ele>
        <time>2019-05-04T06:48:07Z</time>
      </trkpt>
      <trkpt lat="40.4193820" lon="-3.7496580">
        <ele>650.9</ele>
        <time>2019-05-04T06:48:08Z</time>
      </trkpt>
      <trkpt lat="40.4193810" lon="-3.7496870">
        <ele>650.9</ele>
        <time>2019-05-04T06:48:09Z</time>
      </trkpt>
      <trkpt lat="40.4193810" lon="-3.7497140">
        <ele>650.9</ele>
        <time>2019-05-04T06:48:10Z</time>
      </trkpt>
      <trkpt lat="40.4193820" lon="-3.7497390">
        <ele>650.9</ele>
        <time>2019-05-04T06:48:11Z</time>
      </trkpt>
      <trkpt lat="40.4193840" lon="-3.7497620">
        <ele>650.9</ele>
        <time>2019-05-04T06:48:12Z</time>
      </trkpt>
      <trkpt lat="40.4193880" lon="-3.7497850">
        <ele>650.9</ele>
        <time>2019-05-04T06:48:13Z</time>
      </trkpt>
      <trkpt lat="40.4193950" lon="-3.7498090">
        <ele>650.9</ele>
        <time>2019-05-04T06:48:14Z</time>
      </trkpt>
      <trkpt lat="40.4194050" lon="-3.7498350">
        <ele>650.9</ele>
        <time>2019-05-04T06:48:15Z</time>
      </trkpt>
      <trkpt lat="40.4194140" lon="-3.7498640">
        <ele>650.9</ele>
        <time>2019-05-04T06:48:16Z</time>
      </trkpt>
      <trkpt lat="40.4194210" lon="-3.7498920">
        <ele>650.9</ele>
        <time>2019-05-04T06:48:17Z</time>
      </trkpt>
      <trkpt lat="40.4194270" lon="-3.7499180">
        <ele>650.9</ele>
        <time>2019-05-04T06:48:18Z</time>
      </trkpt>
      <trkpt lat="40.4194330" lon="-3.7499440">
        <ele>650.9</ele>
        <time>2019-05-04T06:48:19Z</time>
      </trkpt>
      <trkpt lat="40.4194390" lon="-3.7499680">
        <ele>650.9</ele>
        <time>2019-05-04T06:48:20Z</time>
      </trkpt>
      <trkpt lat="40.4194460" lon="-3.7499900">
        <ele>650.9</ele>
        <time>2019-05-04T06:48:21Z</time>
      </trkpt>
      <trkpt lat="40.4194510" lon="-3.7500100">
        <ele>650.9</ele>
        <time>2019-05-04T06:48:22Z</time>
      </trkpt>
      <trkpt lat="40.4194530" lon="-3.7500280">
        <ele>650.9</ele>
        <time>2019-05-04T06:48:23Z</time>
      </trkpt>
      <trkpt lat="40.4194460" lon="-3.7500370">
        <ele>650.9</ele>
        <time>2019-05-04T06:48:24Z</time>
      </trkpt>
      <trkpt lat="40.4194370" lon="-3.7500370">
        <ele>650.9</ele>
        <time>2019-05-04T06:48:25Z</time>
      </trkpt>
      <trkpt lat="40.4194300" lon="-3.7500290">
        <ele>650.9</ele>
        <time>2019-05-04T06:48:26Z</time>
      </trkpt>
      <trkpt lat="40.4194290" lon="-3.7500160">
        <ele>650.9</ele>
        <time>2019-05-04T06:48:27Z</time>
      </trkpt>
      <trkpt lat="40.4194310" lon="-3.7500000">
        <ele>650.9</ele>
        <time>2019-05-04T06:48:28Z</time>
      </trkpt>
      <trkpt lat="40.4194310" lon="-3.7499780">
        <ele>650.9</ele>
        <time>2019-05-04T06:48:29Z</time>
      </trkpt>
      <trkpt lat="40.4194270" lon="-3.7499530">
        <ele>650.9</ele>
        <time>2019-05-04T06:48:30Z</time>
      </trkpt>
      <trkpt lat="40.4194200" lon="-3.7499210">
        <ele>650.9</ele>
        <time>2019-05-04T06:48:31Z</time>
      </trkpt>
      <trkpt lat="40.4194140" lon="-3.7498840">
        <ele>650.9</ele>
        <time>2019-05-04T06:48:32Z</time>
      </trkpt>
      <trkpt lat="40.4194080" lon="-3.7498430">
        <ele>650.9</ele>
        <time>2019-05-04T06:48:33Z</time>
      </trkpt>
      <trkpt lat="40.4194040" lon="-3.7498030">
        <ele>650.9</ele>
        <time>2019-05-04T06:48:34Z</time>
      </trkpt>
      <trkpt lat="40.4194020" lon="-3.7497640">
        <ele>650.9</ele>
        <time>2019-05-04T06:48:35Z</time>
      </trkpt>
      <trkpt lat="40.4194020" lon="-3.7497270">
        <ele>650.9</ele>
        <time>2019-05-04T06:48:36Z</time>
      </trkpt>
      <trkpt lat="40.4194010" lon="-3.7496900">
        <ele>650.9</ele>
        <time>2019-05-04T06:48:37Z</time>
      </trkpt>
      <trkpt lat="40.4194000" lon="-3.7496560">
        <ele>650.9</ele>
        <time>2019-05-04T06:48:38Z</time>
      </trkpt>
      <trkpt lat="40.4193990" lon="-3.7496220">
        <ele>650.9</ele>
        <time>2019-05-04T06:48:39Z</time>
      </trkpt>
      <trkpt lat="40.4193970" lon="-3.7495880">
        <ele>650.9</ele>
        <time>2019-05-04T06:48:40Z</time>
      </trkpt>
      <trkpt lat="40.4193930" lon="-3.7495500">
        <ele>650.9</ele>
        <time>2019-05-04T06:48:41Z</time>
      </trkpt>
      <trkpt lat="40.4193860" lon="-3.7495110">
        <ele>650.9</ele>
        <time>2019-05-04T06:48:42Z</time>
      </trkpt>
      <trkpt lat="40.4193740" lon="-3.7494690">
        <ele>650.9</ele>
        <time>2019-05-04T06:48:43Z</time>
      </trkpt>
      <trkpt lat="40.4193580" lon="-3.7494250">
        <ele>650.9</ele>
        <time>2019-05-04T06:48:44Z</time>
      </trkpt>
      <trkpt lat="40.4193350" lon="-3.7493740">
        <ele>650.7</ele>
        <time>2019-05-04T06:48:45Z</time>
      </trkpt>
      <trkpt lat="40.4193050" lon="-3.7493230">
        <ele>650.6</ele>
        <time>2019-05-04T06:48:46Z</time>
      </trkpt>
      <trkpt lat="40.4192710" lon="-3.7492670">
        <ele>650.5</ele>
        <time>2019-05-04T06:48:47Z</time>
      </trkpt>
      <trkpt lat="40.4192320" lon="-3.7492100">
        <ele>649.7</ele>
        <time>2019-05-04T06:48:48Z</time>
      </trkpt>
      <trkpt lat="40.4191910" lon="-3.7491510">
        <ele>649.3</ele>
        <time>2019-05-04T06:48:49Z</time>
      </trkpt>
      <trkpt lat="40.4191460" lon="-3.7490930">
        <ele>648.8</ele>
        <time>2019-05-04T06:48:50Z</time>
      </trkpt>
      <trkpt lat="40.4190980" lon="-3.7490340">
        <ele>648.3</ele>
        <time>2019-05-04T06:48:51Z</time>
      </trkpt>
      <trkpt lat="40.4190470" lon="-3.7489750">
        <ele>647.7</ele>
        <time>2019-05-04T06:48:52Z</time>
      </trkpt>
      <trkpt lat="40.4189920" lon="-3.7489170">
        <ele>647.1</ele>
        <time>2019-05-04T06:48:53Z</time>
      </trkpt>
      <trkpt lat="40.4189350" lon="-3.7488580">
        <ele>646.5</ele>
        <time>2019-05-04T06:48:54Z</time>
      </trkpt>
      <trkpt lat="40.4188770" lon="-3.7487960">
        <ele>645.8</ele>
        <time>2019-05-04T06:48:55Z</time>
      </trkpt>
      <trkpt lat="40.4188190" lon="-3.7487310">
        <ele>644.9</ele>
        <time>2019-05-04T06:48:56Z</time>
      </trkpt>
      <trkpt lat="40.4187620" lon="-3.7486660">
        <ele>643.9</ele>
        <time>2019-05-04T06:48:57Z</time>
      </trkpt>
      <trkpt lat="40.4187040" lon="-3.7486040">
        <ele>643.0</ele>
        <time>2019-05-04T06:48:58Z</time>
      </trkpt>
      <trkpt lat="40.4186410" lon="-3.7485490">
        <ele>642.1</ele>
        <time>2019-05-04T06:48:59Z</time>
      </trkpt>
      <trkpt lat="40.4185720" lon="-3.7485000">
        <ele>641.6</ele>
        <time>2019-05-04T06:49:00Z</time>
      </trkpt>
      <trkpt lat="40.4184980" lon="-3.7484600">
        <ele>641.1</ele>
        <time>2019-05-04T06:49:01Z</time>
      </trkpt>
      <trkpt lat="40.4184260" lon="-3.7484270">
        <ele>640.6</ele>
        <time>2019-05-04T06:49:02Z</time>
      </trkpt>
      <trkpt lat="40.4183540" lon="-3.7483980">
        <ele>640.0</ele>
        <time>2019-05-04T06:49:03Z</time>
      </trkpt>
      <trkpt lat="40.4182840" lon="-3.7483660">
        <ele>639.4</ele>
        <time>2019-05-04T06:49:04Z</time>
      </trkpt>
      <trkpt lat="40.4182100" lon="-3.7483360">
        <ele>638.6</ele>
        <time>2019-05-04T06:49:05Z</time>
      </trkpt>
      <trkpt lat="40.4181350" lon="-3.7483070">
        <ele>637.5</ele>
        <time>2019-05-04T06:49:06Z</time>
      </trkpt>
      <trkpt lat="40.4180570" lon="-3.7482780">
        <ele>636.4</ele>
        <time>2019-05-04T06:49:07Z</time>
      </trkpt>
      <trkpt lat="40.4179780" lon="-3.7482490">
        <ele>635.3</ele>
        <time>2019-05-04T06:49:08Z</time>
      </trkpt>
      <trkpt lat="40.4178970" lon="-3.7482220">
        <ele>634.2</ele>
        <time>2019-05-04T06:49:09Z</time>
      </trkpt>
      <trkpt lat="40.4178150" lon="-3.7481980">
        <ele>633.2</ele>
        <time>2019-05-04T06:49:10Z</time>
      </trkpt>
      <trkpt lat="40.4177350" lon="-3.7481780">
        <ele>632.3</ele>
        <time>2019-05-04T06:49:11Z</time>
      </trkpt>
      <trkpt lat="40.4176540" lon="-3.7481560">
        <ele>631.4</ele>
        <time>2019-05-04T06:49:12Z</time>
      </trkpt>
      <trkpt lat="40.4175690" lon="-3.7481300">
        <ele>630.6</ele>
        <time>2019-05-04T06:49:13Z</time>
      </trkpt>
      <trkpt lat="40.4174750" lon="-3.7481000">
        <ele>629.7</ele>
        <time>2019-05-04T06:49:14Z</time>
      </trkpt>
      <trkpt lat="40.4173730" lon="-3.7480700">
        <ele>628.8</ele>
        <time>2019-05-04T06:49:15Z</time>
      </trkpt>
      <trkpt lat="40.4172630" lon="-3.7480410">
        <ele>627.9</ele>
        <time>2019-05-04T06:49:16Z</time>
      </trkpt>
      <trkpt lat="40.4171530" lon="-3.7480150">
        <ele>627.2</ele>
        <time>2019-05-04T06:49:17Z</time>
      </trkpt>
      <trkpt lat="40.4170460" lon="-3.7479880">
        <ele>626.5</ele>
        <time>2019-05-04T06:49:18Z</time>
      </trkpt>
      <trkpt lat="40.4169450" lon="-3.7479600">
        <ele>626.2</ele>
        <time>2019-05-04T06:49:19Z</time>
      </trkpt>
      <trkpt lat="40.4168480" lon="-3.7479280">
        <ele>625.9</ele>
        <time>2019-05-04T06:49:20Z</time>
      </trkpt>
      <trkpt lat="40.4167530" lon="-3.7478900">
        <ele>625.8</ele>
        <time>2019-05-04T06:49:21Z</time>
      </trkpt>
      <trkpt lat="40.4166640" lon="-3.7478510">
        <ele>625.3</ele>
        <time>2019-05-04T06:49:22Z</time>
      </trkpt>
      <trkpt lat="40.4165810" lon="-3.7478150">
        <ele>624.6</ele>
        <time>2019-05-04T06:49:23Z</time>
      </trkpt>
      <trkpt lat="40.4165040" lon="-3.7477830">
        <ele>624.0</ele>
        <time>2019-05-04T06:49:24Z</time>
      </trkpt>
      <trkpt lat="40.4164300" lon="-3.7477550">
        <ele>623.4</ele>
        <time>2019-05-04T06:49:25Z</time>
      </trkpt>
      <trkpt lat="40.4163580" lon="-3.7477280">
        <ele>622.8</ele>
        <time>2019-05-04T06:49:26Z</time>
      </trkpt>
      <trkpt lat="40.4162910" lon="-3.7477030">
        <ele>622.2</ele>
        <time>2019-05-04T06:49:27Z</time>
      </trkpt>
      <trkpt lat="40.4162290" lon="-3.7476800">
        <ele>621.7</ele>
        <time>2019-05-04T06:49:28Z</time>
      </trkpt>
      <trkpt lat="40.4161780" lon="-3.7476570">
        <ele>621.0</ele>
        <time>2019-05-04T06:49:29Z</time>
      </trkpt>
      <trkpt lat="40.4161410" lon="-3.7476260">
        <ele>620.8</ele>
        <time>2019-05-04T06:49:30Z</time>
      </trkpt>
      <trkpt lat="40.4161150" lon="-3.7475780">
        <ele>620.6</ele>
        <time>2019-05-04T06:49:31Z</time>
      </trkpt>
      <trkpt lat="40.4160930" lon="-3.7475060">
        <ele>620.3</ele>
        <time>2019-05-04T06:49:32Z</time>
      </trkpt>
      <trkpt lat="40.4160740" lon="-3.7474270">
        <ele>620.0</ele>
        <time>2019-05-04T06:49:33Z</time>
      </trkpt>
      <trkpt lat="40.4160600" lon="-3.7473470">
        <ele>619.6</ele>
        <time>2019-05-04T06:49:34Z</time>
      </trkpt>
      <trkpt lat="40.4160550" lon="-3.7472800">
        <ele>619.7</ele>
        <time>2019-05-04T06:49:35Z</time>
      </trkpt>
      <trkpt lat="40.4160550" lon="-3.7472110">
        <ele>619.8</ele>
        <time>2019-05-04T06:49:36Z</time>
      </trkpt>
      <trkpt lat="40.4160590" lon="-3.7471420">
        <ele>619.9</ele>
        <time>2019-05-04T06:49:37Z</time>
      </trkpt>
      <trkpt lat="40.4160630" lon="-3.7470720">
        <ele>620.0</ele>
        <time>2019-05-04T06:49:38Z</time>
      </trkpt>
      <trkpt lat="40.4160650" lon="-3.7470010">
        <ele>620.1</ele>
        <time>2019-05-04T06:49:39Z</time>
      </trkpt>
      <trkpt lat="40.4160670" lon="-3.7469310">
        <ele>620.2</ele>
        <time>2019-05-04T06:49:40Z</time>
      </trkpt>
      <trkpt lat="40.4160710" lon="-3.7468600">
        <ele>620.3</ele>
        <time>2019-05-04T06:49:41Z</time>
      </trkpt>
      <trkpt lat="40.4160790" lon="-3.7467890">
        <ele>620.4</ele>
        <time>2019-05-04T06:49:42Z</time>
      </trkpt>
      <trkpt lat="40.4160880" lon="-3.7467190">
        <ele>620.5</ele>
        <time>2019-05-04T06:49:43Z</time>
      </trkpt>
      <trkpt lat="40.4160990" lon="-3.7466490">
        <ele>620.6</ele>
        <time>2019-05-04T06:49:44Z</time>
      </trkpt>
      <trkpt lat="40.4161100" lon="-3.7465780">
        <ele>620.7</ele>
        <time>2019-05-04T06:49:45Z</time>
      </trkpt>
      <trkpt lat="40.4161220" lon="-3.7465050">
        <ele>620.8</ele>
        <time>2019-05-04T06:49:46Z</time>
      </trkpt>
      <trkpt lat="40.4161370" lon="-3.7464330">
        <ele>620.9</ele>
        <time>2019-05-04T06:49:47Z</time>
      </trkpt>
      <trkpt lat="40.4161550" lon="-3.7463610">
        <ele>621.0</ele>
        <time>2019-05-04T06:49:48Z</time>
      </trkpt>
      <trkpt lat="40.4161740" lon="-3.7462910">
        <ele>620.9</ele>
        <time>2019-05-04T06:49:49Z</time>
      </trkpt>
      <trkpt lat="40.4161890" lon="-3.7462200">
        <ele>620.9</ele>
        <time>2019-05-04T06:49:50Z</time>
      </trkpt>
      <trkpt lat="40.4162010" lon="-3.7461500">
        <ele>620.8</ele>
        <time>2019-05-04T06:49:51Z</time>
      </trkpt>
      <trkpt lat="40.4162120" lon="-3.7460800">
        <ele>620.7</ele>
        <time>2019-05-04T06:49:52Z</time>
      </trkpt>
      <trkpt lat="40.4162240" lon="-3.7460120">
        <ele>620.5</ele>
        <time>2019-05-04T06:49:53Z</time>
      </trkpt>
      <trkpt lat="40.4162370" lon="-3.7459430">
        <ele>620.0</ele>
        <time>2019-05-04T06:49:54Z</time>
      </trkpt>
      <trkpt lat="40.4162500" lon="-3.7458740">
        <ele>619.7</ele>
        <time>2019-05-04T06:49:55Z</time>
      </trkpt>
      <trkpt lat="40.4162640" lon="-3.7458040">
        <ele>619.4</ele>
        <time>2019-05-04T06:49:56Z</time>
      </trkpt>
      <trkpt lat="40.4162830" lon="-3.7457320">
        <ele>619.1</ele>
        <time>2019-05-04T06:49:57Z</time>
      </trkpt>
      <trkpt lat="40.4163040" lon="-3.7456630">
        <ele>619.0</ele>
        <time>2019-05-04T06:49:58Z</time>
      </trkpt>
      <trkpt lat="40.4163240" lon="-3.7455940">
        <ele>618.9</ele>
        <time>2019-05-04T06:49:59Z</time>
      </trkpt>
      <trkpt lat="40.4163390" lon="-3.7455300">
        <ele>619.0</ele>
        <time>2019-05-04T06:50:00Z</time>
      </trkpt>
      <trkpt lat="40.4163550" lon="-3.7454610">
        <ele>619.0</ele>
        <time>2019-05-04T06:50:01Z</time>
      </trkpt>
      <trkpt lat="40.4163710" lon="-3.7453930">
        <ele>619.1</ele>
        <time>2019-05-04T06:50:02Z</time>
      </trkpt>
      <trkpt lat="40.4163890" lon="-3.7453240">
        <ele>619.1</ele>
        <time>2019-05-04T06:50:03Z</time>
      </trkpt>
      <trkpt lat="40.4164080" lon="-3.7452560">
        <ele>619.1</ele>
        <time>2019-05-04T06:50:04Z</time>
      </trkpt>
      <trkpt lat="40.4164280" lon="-3.7451880">
        <ele>619.2</ele>
        <time>2019-05-04T06:50:05Z</time>
      </trkpt>
      <trkpt lat="40.4164510" lon="-3.7451210">
        <ele>619.1</ele>
        <time>2019-05-04T06:50:06Z</time>
      </trkpt>
      <trkpt lat="40.4164760" lon="-3.7450600">
        <ele>619.0</ele>
        <time>2019-05-04T06:50:07Z</time>
      </trkpt>
      <trkpt lat="40.4165020" lon="-3.7449990">
        <ele>618.9</ele>
        <time>2019-05-04T06:50:08Z</time>
      </trkpt>
      <trkpt lat="40.4165260" lon="-3.7449420">
        <ele>618.8</ele>
        <time>2019-05-04T06:50:09Z</time>
      </trkpt>
      <trkpt lat="40.4165440" lon="-3.7448790">
        <ele>618.6</ele>
        <time>2019-05-04T06:50:10Z</time>
      </trkpt>
      <trkpt lat="40.4165560" lon="-3.7448110">
        <ele>618.4</ele>
        <time>2019-05-04T06:50:11Z</time>
      </trkpt>
      <trkpt lat="40.4165610" lon="-3.7447360">
        <ele>618.2</ele>
        <time>2019-05-04T06:50:12Z</time>
      </trkpt>
      <trkpt lat="40.4165690" lon="-3.7446650">
        <ele>618.0</ele>
        <time>2019-05-04T06:50:13Z</time>
      </trkpt>
      <trkpt lat="40.4165810" lon="-3.7445990">
        <ele>617.8</ele>
        <time>2019-05-04T06:50:14Z</time>
      </trkpt>
      <trkpt lat="40.4165960" lon="-3.7445350">
        <ele>617.7</ele>
        <time>2019-05-04T06:50:15Z</time>
      </trkpt>
      <trkpt lat="40.4166120" lon="-3.7444630">
        <ele>617.5</ele>
        <time>2019-05-04T06:50:16Z</time>
      </trkpt>
      <trkpt lat="40.4166280" lon="-3.7443850">
        <ele>617.4</ele>
        <time>2019-05-04T06:50:17Z</time>
      </trkpt>
      <trkpt lat="40.4166420" lon="-3.7443020">
        <ele>617.2</ele>
        <time>2019-05-04T06:50:18Z</time>
      </trkpt>
      <trkpt lat="40.4166570" lon="-3.7442160">
        <ele>617.0</ele>
        <time>2019-05-04T06:50:19Z</time>
      </trkpt>
      <trkpt lat="40.4166740" lon="-3.7441240">
        <ele>616.7</ele>
        <time>2019-05-04T06:50:20Z</time>
      </trkpt>
      <trkpt lat="40.4166920" lon="-3.7440260">
        <ele>616.3</ele>
        <time>2019-05-04T06:50:21Z</time>
      </trkpt>
      <trkpt lat="40.4167140" lon="-3.7439290">
        <ele>615.8</ele>
        <time>2019-05-04T06:50:22Z</time>
      </trkpt>
      <trkpt lat="40.4167370" lon="-3.7438330">
        <ele>615.3</ele>
        <time>2019-05-04T06:50:23Z</time>
      </trkpt>
      <trkpt lat="40.4167650" lon="-3.7437370">
        <ele>614.8</ele>
        <time>2019-05-04T06:50:24Z</time>
      </trkpt>
      <trkpt lat="40.4167940" lon="-3.7436400">
        <ele>614.3</ele>
        <time>2019-05-04T06:50:25Z</time>
      </trkpt>
      <trkpt lat="40.4168230" lon="-3.7435430">
        <ele>614.0</ele>
        <time>2019-05-04T06:50:26Z</time>
      </trkpt>
      <trkpt lat="40.4168570" lon="-3.7434430">
        <ele>613.8</ele>
        <time>2019-05-04T06:50:27Z</time>
      </trkpt>
      <trkpt lat="40.4168910" lon="-3.7433460">
        <ele>613.8</ele>
        <time>2019-05-04T06:50:28Z</time>
      </trkpt>
      <trkpt lat="40.4169260" lon="-3.7432490">
        <ele>613.7</ele>
        <time>2019-05-04T06:50:29Z</time>
      </trkpt>
      <trkpt lat="40.4169550" lon="-3.7431560">
        <ele>613.7</ele>
        <time>2019-05-04T06:50:30Z</time>
      </trkpt>
      <trkpt lat="40.4169830" lon="-3.7430630">
        <ele>613.6</ele>
        <time>2019-05-04T06:50:31Z</time>
      </trkpt>
      <trkpt lat="40.4170100" lon="-3.7429690">
        <ele>613.4</ele>
        <time>2019-05-04T06:50:32Z</time>
      </trkpt>
      <trkpt lat="40.4170370" lon="-3.7428730">
        <ele>613.2</ele>
        <time>2019-05-04T06:50:33Z</time>
      </trkpt>
      <trkpt lat="40.4170620" lon="-3.7427800">
        <ele>613.1</ele>
        <time>2019-05-04T06:50:34Z</time>
      </trkpt>
      <trkpt lat="40.4170860" lon="-3.7426870">
        <ele>613.0</ele>
        <time>2019-05-04T06:50:35Z</time>
      </trkpt>
      <trkpt lat="40.4171110" lon="-3.7425950">
        <ele>612.9</ele>
        <time>2019-05-04T06:50:36Z</time>
      </trkpt>
      <trkpt lat="40.4171360" lon="-3.7425030">
        <ele>612.8</ele>
        <time>2019-05-04T06:50:37Z</time>
      </trkpt>
      <trkpt lat="40.4171610" lon="-3.7424100">
        <ele>612.7</ele>
        <time>2019-05-04T06:50:38Z</time>
      </trkpt>
      <trkpt lat="40.4171850" lon="-3.7423180">
        <ele>612.7</ele>
        <time>2019-05-04T06:50:39Z</time>
      </trkpt>
      <trkpt lat="40.4172100" lon="-3.7422270">
        <ele>612.6</ele>
        <time>2019-05-04T06:50:40Z</time>
      </trkpt>
      <trkpt lat="40.4172330" lon="-3.7421350">
        <ele>612.4</ele>
        <time>2019-05-04T06:50:41Z</time>
      </trkpt>
      <trkpt lat="40.4172570" lon="-3.7420420">
        <ele>612.3</ele>
        <time>2019-05-04T06:50:42Z</time>
      </trkpt>
      <trkpt lat="40.4172770" lon="-3.7419510">
        <ele>612.1</ele>
        <time>2019-05-04T06:50:43Z</time>
      </trkpt>
      <trkpt lat="40.4172980" lon="-3.7418620">
        <ele>611.9</ele>
        <time>2019-05-04T06:50:44Z</time>
      </trkpt>
      <trkpt lat="40.4173150" lon="-3.7417760">
        <ele>611.7</ele>
        <time>2019-05-04T06:50:45Z</time>
      </trkpt>
      <trkpt lat="40.4173420" lon="-3.7410610">
        <ele>611.0</ele>
        <time>2019-05-04T06:50:53Z</time>
      </trkpt>
      <trkpt lat="40.4173400" lon="-3.7410190">
        <ele>610.9</ele>
        <time>2019-05-04T06:50:54Z</time>
      </trkpt>
      <trkpt lat="40.4173350" lon="-3.7409330">
        <ele>610.8</ele>
        <time>2019-05-04T06:50:55Z</time>
      </trkpt>
      <trkpt lat="40.4173330" lon="-3.7408490">
        <ele>610.7</ele>
        <time>2019-05-04T06:50:56Z</time>
      </trkpt>
      <trkpt lat="40.4173300" lon="-3.7407650">
        <ele>610.6</ele>
        <time>2019-05-04T06:50:57Z</time>
      </trkpt>
      <trkpt lat="40.4173290" lon="-3.7406850">
        <ele>610.6</ele>
        <time>2019-05-04T06:50:58Z</time>
      </trkpt>
      <trkpt lat="40.4173260" lon="-3.7406030">
        <ele>610.5</ele>
        <time>2019-05-04T06:50:59Z</time>
      </trkpt>
      <trkpt lat="40.4173220" lon="-3.7405220">
        <ele>610.4</ele>
        <time>2019-05-04T06:51:00Z</time>
      </trkpt>
      <trkpt lat="40.4173190" lon="-3.7404420">
        <ele>610.3</ele>
        <time>2019-05-04T06:51:01Z</time>
      </trkpt>
      <trkpt lat="40.4173160" lon="-3.7403630">
        <ele>610.3</ele>
        <time>2019-05-04T06:51:02Z</time>
      </trkpt>
      <trkpt lat="40.4173130" lon="-3.7402800">
        <ele>610.2</ele>
        <time>2019-05-04T06:51:03Z</time>
      </trkpt>
      <trkpt lat="40.4173090" lon="-3.7401930">
        <ele>610.1</ele>
        <time>2019-05-04T06:51:04Z</time>
      </trkpt>
      <trkpt lat="40.4173050" lon="-3.7401090">
        <ele>610.1</ele>
        <time>2019-05-04T06:51:05Z</time>
      </trkpt>
      <trkpt lat="40.4173010" lon="-3.7400280">
        <ele>610.0</ele>
        <time>2019-05-04T06:51:06Z</time>
      </trkpt>
      <trkpt lat="40.4172960" lon="-3.7399460">
        <ele>610.0</ele>
        <time>2019-05-04T06:51:07Z</time>
      </trkpt>
      <trkpt lat="40.4172940" lon="-3.7398630">
        <ele>610.0</ele>
        <time>2019-05-04T06:51:08Z</time>
      </trkpt>
      <trkpt lat="40.4172910" lon="-3.7397720">
        <ele>610.0</ele>
        <time>2019-05-04T06:51:09Z</time>
      </trkpt>
      <trkpt lat="40.4172860" lon="-3.7396770">
        <ele>609.9</ele>
        <time>2019-05-04T06:51:10Z</time>
      </trkpt>
      <trkpt lat="40.4172810" lon="-3.7395800">
        <ele>609.9</ele>
        <time>2019-05-04T06:51:11Z</time>
      </trkpt>
      <trkpt lat="40.4172750" lon="-3.7394850">
        <ele>609.8</ele>
        <time>2019-05-04T06:51:12Z</time>
      </trkpt>
      <trkpt lat="40.4172710" lon="-3.7393920">
        <ele>609.8</ele>
        <time>2019-05-04T06:51:13Z</time>
      </trkpt>
      <trkpt lat="40.4172640" lon="-3.7392960">
        <ele>609.7</ele>
        <time>2019-05-04T06:51:14Z</time>
      </trkpt>
      <trkpt lat="40.4172610" lon="-3.7392050">
        <ele>609.7</ele>
        <time>2019-05-04T06:51:15Z</time>
      </trkpt>
      <trkpt lat="40.4172590" lon="-3.7391210">
        <ele>609.6</ele>
        <time>2019-05-04T06:51:16Z</time>
      </trkpt>
      <trkpt lat="40.4172570" lon="-3.7390420">
        <ele>609.4</ele>
        <time>2019-05-04T06:51:17Z</time>
      </trkpt>
      <trkpt lat="40.4172510" lon="-3.7389610">
        <ele>609.3</ele>
        <time>2019-05-04T06:51:18Z</time>
      </trkpt>
      <trkpt lat="40.4172400" lon="-3.7388710">
        <ele>609.2</ele>
        <time>2019-05-04T06:51:19Z</time>
      </trkpt>
      <trkpt lat="40.4172270" lon="-3.7387810">
        <ele>609.1</ele>
        <time>2019-05-04T06:51:20Z</time>
      </trkpt>
      <trkpt lat="40.4172130" lon="-3.7386920">
        <ele>609.1</ele>
        <time>2019-05-04T06:51:21Z</time>
      </trkpt>
      <trkpt lat="40.4172020" lon="-3.7386100">
        <ele>609.0</ele>
        <time>2019-05-04T06:51:22Z</time>
      </trkpt>
      <trkpt lat="40.4171930" lon="-3.7385230">
        <ele>609.0</ele>
        <time>2019-05-04T06:51:23Z</time>
      </trkpt>
      <trkpt lat="40.4171830" lon="-3.7384310">
        <ele>608.9</ele>
        <time>2019-05-04T06:51:24Z</time>
      </trkpt>
      <trkpt lat="40.4171740" lon="-3.7383360">
        <ele>608.8</ele>
        <time>2019-05-04T06:51:25Z</time>
      </trkpt>
      <trkpt lat="40.4171650" lon="-3.7382440">
        <ele>608.8</ele>
        <time>2019-05-04T06:51:26Z</time>
      </trkpt>
      <trkpt lat="40.4171560" lon="-3.7381510">
        <ele>608.8</ele>
        <time>2019-05-04T06:51:27Z</time>
      </trkpt>
      <trkpt lat="40.4171460" lon="-3.7380580">
        <ele>608.9</ele>
        <time>2019-05-04T06:51:28Z</time>
      </trkpt>
      <trkpt lat="40.4171350" lon="-3.7379650">
        <ele>608.9</ele>
        <time>2019-05-04T06:51:29Z</time>
      </trkpt>
      <trkpt lat="40.4171270" lon="-3.7378750">
        <ele>608.9</ele>
        <time>2019-05-04T06:51:30Z</time>
      </trkpt>
      <trkpt lat="40.4171190" lon="-3.7377800">
        <ele>608.9</ele>
        <time>2019-05-04T06:51:31Z</time>
      </trkpt>
      <trkpt lat="40.4171110" lon="-3.7376860">
        <ele>608.8</ele>
        <time>2019-05-04T06:51:32Z</time>
      </trkpt>
      <trkpt lat="40.4171050" lon="-3.7375960">
        <ele>608.7</ele>
        <time>2019-05-04T06:51:33Z</time>
      </trkpt>
      <trkpt lat="40.4171000" lon="-3.7375060">
        <ele>608.7</ele>
        <time>2019-05-04T06:51:34Z</time>
      </trkpt>
      <trkpt lat="40.4170960" lon="-3.7374140">
        <ele>608.7</ele>
        <time>2019-05-04T06:51:35Z</time>
      </trkpt>
      <trkpt lat="40.4170910" lon="-3.7373190">
        <ele>608.7</ele>
        <time>2019-05-04T06:51:36Z</time>
      </trkpt>
      <trkpt lat="40.4170920" lon="-3.7372250">
        <ele>608.7</ele>
        <time>2019-05-04T06:51:37Z</time>
      </trkpt>
      <trkpt lat="40.4170990" lon="-3.7371280">
        <ele>608.6</ele>
        <time>2019-05-04T06:51:38Z</time>
      </trkpt>
      <trkpt lat="40.4171120" lon="-3.7370290">
        <ele>608.5</ele>
        <time>2019-05-04T06:51:39Z</time>
      </trkpt>
      <trkpt lat="40.4171300" lon="-3.7369280">
        <ele>608.3</ele>
        <time>2019-05-04T06:51:40Z</time>
      </trkpt>
      <trkpt lat="40.4171480" lon="-3.7368270">
        <ele>608.1</ele>
        <time>2019-05-04T06:51:41Z</time>
      </trkpt>
      <trkpt lat="40.4171670" lon="-3.7367260">
        <ele>608.0</ele>
        <time>2019-05-04T06:51:42Z</time>
      </trkpt>
      <trkpt lat="40.4171820" lon="-3.7366280">
        <ele>607.8</ele>
        <time>2019-05-04T06:51:43Z</time>
      </trkpt>
      <trkpt lat="40.4171960" lon="-3.7365360">
        <ele>607.7</ele>
        <time>2019-05-04T06:51:44Z</time>
      </trkpt>
      <trkpt lat="40.4172090" lon="-3.7364470">
        <ele>607.5</ele>
        <time>2019-05-04T06:51:45Z</time>
      </trkpt>
      <trkpt lat="40.4172200" lon="-3.7363610">
        <ele>607.4</ele>
        <time>2019-05-04T06:51:46Z</time>
      </trkpt>
      <trkpt lat="40.4172320" lon="-3.7362770">
        <ele>607.3</ele>
        <time>2019-05-04T06:51:47Z</time>
      </trkpt>
      <trkpt lat="40.4172430" lon="-3.7361980">
        <ele>607.2</ele>
        <time>2019-05-04T06:51:48Z</time>
      </trkpt>
      <trkpt lat="40.4172540" lon="-3.7361210">
        <ele>607.1</ele>
        <time>2019-05-04T06:51:49Z</time>
      </trkpt>
      <trkpt lat="40.4172640" lon="-3.7360440">
        <ele>607.0</ele>
        <time>2019-05-04T06:51:50Z</time>
      </trkpt>
      <trkpt lat="40.4172770" lon="-3.7359710">
        <ele>606.8</ele>
        <time>2019-05-04T06:51:51Z</time>
      </trkpt>
      <trkpt lat="40.4172870" lon="-3.7358940">
        <ele>606.6</ele>
        <time>2019-05-04T06:51:52Z</time>
      </trkpt>
      <trkpt lat="40.4172960" lon="-3.7358180">
        <ele>606.3</ele>
        <time>2019-05-04T06:51:53Z</time>
      </trkpt>
      <trkpt lat="40.4173030" lon="-3.7357410">
        <ele>606.0</ele>
        <time>2019-05-04T06:51:54Z</time>
      </trkpt>
      <trkpt lat="40.4173090" lon="-3.7356710">
        <ele>605.6</ele>
        <time>2019-05-04T06:51:55Z</time>
      </trkpt>
      <trkpt lat="40.4173120" lon="-3.7356100">
        <ele>605.2</ele>
        <time>2019-05-04T06:51:56Z</time>
      </trkpt>
      <trkpt lat="40.4173140" lon="-3.7355570">
        <ele>604.9</ele>
        <time>2019-05-04T06:51:57Z</time>
      </trkpt>
      <trkpt lat="40.4173170" lon="-3.7355120">
        <ele>604.6</ele>
        <time>2019-05-04T06:51:58Z</time>
      </trkpt>
      <trkpt lat="40.4173220" lon="-3.7354700">
        <ele>604.4</ele>
        <time>2019-05-04T06:51:59Z</time>
      </trkpt>
      <trkpt lat="40.4173270" lon="-3.7354290">
        <ele>604.2</ele>
        <time>2019-05-04T06:52:00Z</time>
      </trkpt>
      <trkpt lat="40.4173350" lon="-3.7353870">
        <ele>604.0</ele>
        <time>2019-05-04T06:52:01Z</time>
      </trkpt>
      <trkpt lat="40.4173470" lon="-3.7353430">
        <ele>603.8</ele>
        <time>2019-05-04T06:52:02Z</time>
      </trkpt>
      <trkpt lat="40.4173600" lon="-3.7352970">
        <ele>603.7</ele>
        <time>2019-05-04T06:52:03Z</time>
      </trkpt>
      <trkpt lat="40.4173710" lon="-3.7352530">
        <ele>603.5</ele>
        <time>2019-05-04T06:52:04Z</time>
      </trkpt>
      <trkpt lat="40.4173760" lon="-3.7352100">
        <ele>603.4</ele>
        <time>2019-05-04T06:52:05Z</time>
      </trkpt>
      <trkpt lat="40.4173760" lon="-3.7351690">
        <ele>603.4</ele>
        <time>2019-05-04T06:52:06Z</time>
      </trkpt>
      <trkpt lat="40.4173720" lon="-3.7351230">
        <ele>603.3</ele>
        <time>2019-05-04T06:52:07Z</time>
      </trkpt>
      <trkpt lat="40.4173630" lon="-3.7350650">
        <ele>603.2</ele>
        <time>2019-05-04T06:52:08Z</time>
      </trkpt>
      <trkpt lat="40.4173530" lon="-3.7349990">
        <ele>603.8</ele>
        <time>2019-05-04T06:52:09Z</time>
      </trkpt>
      <trkpt lat="40.4173440" lon="-3.7349290">
        <ele>604.0</ele>
        <time>2019-05-04T06:52:10Z</time>
      </trkpt>
      <trkpt lat="40.4173490" lon="-3.7348660">
        <ele>604.5</ele>
        <time>2019-05-04T06:52:11Z</time>
      </trkpt>
      <trkpt lat="40.4173630" lon="-3.7348100">
        <ele>604.4</ele>
        <time>2019-05-04T06:52:12Z</time>
      </trkpt>
      <trkpt lat="40.4173860" lon="-3.7347530">
        <ele>604.2</ele>
        <time>2019-05-04T06:52:13Z</time>
      </trkpt>
      <trkpt lat="40.4174030" lon="-3.7346950">
        <ele>604.1</ele>
        <time>2019-05-04T06:52:14Z</time>
      </trkpt>
      <trkpt lat="40.4174180" lon="-3.7346340">
        <ele>603.9</ele>
        <time>2019-05-04T06:52:15Z</time>
      </trkpt>
      <trkpt lat="40.4174280" lon="-3.7345720">
        <ele>603.0</ele>
        <time>2019-05-04T06:52:16Z</time>
      </trkpt>
      <trkpt lat="40.4174350" lon="-3.7345090">
        <ele>603.2</ele>
        <time>2019-05-04T06:52:17Z</time>
      </trkpt>
      <trkpt lat="40.4174430" lon="-3.7344460">
        <ele>603.4</ele>
        <time>2019-05-04T06:52:18Z</time>
      </trkpt>
      <trkpt lat="40.4174480" lon="-3.7343810">
        <ele>603.6</ele>
        <time>2019-05-04T06:52:19Z</time>
      </trkpt>
      <trkpt lat="40.4174480" lon="-3.7343100">
        <ele>603.8</ele>
        <time>2019-05-04T06:52:20Z</time>
      </trkpt>
      <trkpt lat="40.4174400" lon="-3.7342350">
        <ele>603.3</ele>
        <time>2019-05-04T06:52:21Z</time>
      </trkpt>
      <trkpt lat="40.4174320" lon="-3.7341600">
        <ele>602.4</ele>
        <time>2019-05-04T06:52:22Z</time>
      </trkpt>
      <trkpt lat="40.4174240" lon="-3.7340930">
        <ele>601.7</ele>
        <time>2019-05-04T06:52:23Z</time>
      </trkpt>
      <trkpt lat="40.4174190" lon="-3.7340310">
        <ele>601.2</ele>
        <time>2019-05-04T06:52:24Z</time>
      </trkpt>
      <trkpt lat="40.4174120" lon="-3.7339680">
        <ele>600.7</ele>
        <time>2019-05-04T06:52:25Z</time>
      </trkpt>
      <trkpt lat="40.4174010" lon="-3.7339000">
        <ele>600.2</ele>
        <time>2019-05-04T06:52:26Z</time>
      </trkpt>
      <trkpt lat="40.4173870" lon="-3.7338280">
        <ele>599.7</ele>
        <time>2019-05-04T06:52:27Z</time>
      </trkpt>
      <trkpt lat="40.4173730" lon="-3.7337570">
        <ele>599.1</ele>
        <time>2019-05-04T06:52:28Z</time>
      </trkpt>
      <trkpt lat="40.4173600" lon="-3.7336860">
        <ele>598.3</ele>
        <time>2019-05-04T06:52:29Z</time>
      </trkpt>
      <trkpt lat="40.4173460" lon="-3.7336130">
        <ele>597.4</ele>
        <time>2019-05-04T06:52:30Z</time>
      </trkpt>
      <trkpt lat="40.4173310" lon="-3.7335350">
        <ele>596.7</ele>
        <time>2019-05-04T06:52:31Z</time>
      </trkpt>
      <trkpt lat="40.4173170" lon="-3.7334600">
        <ele>595.3</ele>
        <time>2019-05-04T06:52:32Z</time>
      </trkpt>
      <trkpt lat="40.4173050" lon="-3.7333860">
        <ele>595.5</ele>
        <time>2019-05-04T06:52:33Z</time>
      </trkpt>
      <trkpt lat="40.4172920" lon="-3.7333130">
        <ele>595.8</ele>
        <time>2019-05-04T06:52:34Z</time>
      </trkpt>
      <trkpt lat="40.4172790" lon="-3.7332360">
        <ele>596.2</ele>
        <time>2019-05-04T06:52:35Z</time>
      </trkpt>
      <trkpt lat="40.4172660" lon="-3.7331600">
        <ele>596.5</ele>
        <time>2019-05-04T06:52:36Z</time>
      </trkpt>
      <trkpt lat="40.4172540" lon="-3.7330840">
        <ele>596.9</ele>
        <time>2019-05-04T06:52:37Z</time>
      </trkpt>
      <trkpt lat="40.4172410" lon="-3.7330080">
        <ele>597.3</ele>
        <time>2019-05-04T06:52:38Z</time>
      </trkpt>
      <trkpt lat="40.4172260" lon="-3.7329340">
        <ele>597.6</ele>
        <time>2019-05-04T06:52:39Z</time>
      </trkpt>
      <trkpt lat="40.4172100" lon="-3.7328610">
        <ele>597.9</ele>
        <time>2019-05-04T06:52:40Z</time>
      </trkpt>
      <trkpt lat="40.4171910" lon="-3.7327920">
        <ele>598.2</ele>
        <time>2019-05-04T06:52:41Z</time>
      </trkpt>
      <trkpt lat="40.4171710" lon="-3.7327220">
        <ele>598.5</ele>
        <time>2019-05-04T06:52:42Z</time>
      </trkpt>
      <trkpt lat="40.4171510" lon="-3.7326530">
        <ele>598.7</ele>
        <time>2019-05-04T06:52:43Z</time>
      </trkpt>
      <trkpt lat="40.4171330" lon="-3.7325820">
        <ele>598.9</ele>
        <time>2019-05-04T06:52:44Z</time>
      </trkpt>
      <trkpt lat="40.4171160" lon="-3.7325150">
        <ele>599.2</ele>
        <time>2019-05-04T06:52:45Z</time>
      </trkpt>
      <trkpt lat="40.4171000" lon="-3.7324480">
        <ele>599.3</ele>
        <time>2019-05-04T06:52:46Z</time>
      </trkpt>
      <trkpt lat="40.4170830" lon="-3.7323790">
        <ele>599.5</ele>
        <time>2019-05-04T06:52:47Z</time>
      </trkpt>
      <trkpt lat="40.4170660" lon="-3.7323070">
        <ele>599.7</ele>
        <time>2019-05-04T06:52:48Z</time>
      </trkpt>
      <trkpt lat="40.4170470" lon="-3.7322350">
        <ele>599.9</ele>
        <time>2019-05-04T06:52:49Z</time>
      </trkpt>
      <trkpt lat="40.4170250" lon="-3.7321630">
        <ele>600.0</ele>
        <time>2019-05-04T06:52:50Z</time>
      </trkpt>
      <trkpt lat="40.4170040" lon="-3.7320910">
        <ele>600.1</ele>
        <time>2019-05-04T06:52:51Z</time>
      </trkpt>
      <trkpt lat="40.4169820" lon="-3.7320180">
        <ele>600.2</ele>
        <time>2019-05-04T06:52:52Z</time>
      </trkpt>
      <trkpt lat="40.4169600" lon="-3.7319470">
        <ele>600.3</ele>
        <time>2019-05-04T06:52:53Z</time>
      </trkpt>
      <trkpt lat="40.4169410" lon="-3.7318790">
        <ele>600.4</ele>
        <time>2019-05-04T06:52:54Z</time>
      </trkpt>
      <trkpt lat="40.4169210" lon="-3.7318110">
        <ele>600.4</ele>
        <time>2019-05-04T06:52:55Z</time>
      </trkpt>
      <trkpt lat="40.4169030" lon="-3.7317380">
        <ele>600.5</ele>
        <time>2019-05-04T06:52:56Z</time>
      </trkpt>
      <trkpt lat="40.4168910" lon="-3.7316610">
        <ele>600.6</ele>
        <time>2019-05-04T06:52:57Z</time>
      </trkpt>
      <trkpt lat="40.4168820" lon="-3.7315840">
        <ele>600.6</ele>
        <time>2019-05-04T06:52:58Z</time>
      </trkpt>
      <trkpt lat="40.4168740" lon="-3.7315080">
        <ele>600.7</ele>
        <time>2019-05-04T06:52:59Z</time>
      </trkpt>
      <trkpt lat="40.4168710" lon="-3.7314270">
        <ele>600.7</ele>
        <time>2019-05-04T06:53:00Z</time>
      </trkpt>
      <trkpt lat="40.4168720" lon="-3.7313460">
        <ele>600.8</ele>
        <time>2019-05-04T06:53:01Z</time>
      </trkpt>
      <trkpt lat="40.4168820" lon="-3.7312680">
        <ele>600.8</ele>
        <time>2019-05-04T06:53:02Z</time>
      </trkpt>
      <trkpt lat="40.4169090" lon="-3.7312140">
        <ele>600.8</ele>
        <time>2019-05-04T06:53:03Z</time>
      </trkpt>
      <trkpt lat="40.4169470" lon="-3.7311730">
        <ele>600.8</ele>
        <time>2019-05-04T06:53:04Z</time>
      </trkpt>
      <trkpt lat="40.4169870" lon="-3.7311500">
        <ele>600.8</ele>
        <time>2019-05-04T06:53:05Z</time>
      </trkpt>
      <trkpt lat="40.4170130" lon="-3.7311280">
        <ele>600.8</ele>
        <time>2019-05-04T06:53:06Z</time>
      </trkpt>
      <trkpt lat="40.4170430" lon="-3.7311180">
        <ele>600.8</ele>
        <time>2019-05-04T06:53:07Z</time>
      </trkpt>
      <trkpt lat="40.4170840" lon="-3.7311200">
        <ele>600.8</ele>
        <time>2019-05-04T06:53:08Z</time>
      </trkpt>
      <trkpt lat="40.4171610" lon="-3.7311240">
        <ele>600.7</ele>
        <time>2019-05-04T06:53:09Z</time>
      </trkpt>
      <trkpt lat="40.4172520" lon="-3.7311310">
        <ele>600.7</ele>
        <time>2019-05-04T06:53:10Z</time>
      </trkpt>
      <trkpt lat="40.4173490" lon="-3.7311310">
        <ele>600.6</ele>
        <time>2019-05-04T06:53:11Z</time>
      </trkpt>
      <trkpt lat="40.4174240" lon="-3.7311230">
        <ele>600.5</ele>
        <time>2019-05-04T06:53:12Z</time>
      </trkpt>
      <trkpt lat="40.4175030" lon="-3.7310820">
        <ele>600.5</ele>
        <time>2019-05-04T06:53:13Z</time>
      </trkpt>
      <trkpt lat="40.4175800" lon="-3.7310270">
        <ele>600.4</ele>
        <time>2019-05-04T06:53:14Z</time>
      </trkpt>
      <trkpt lat="40.4176570" lon="-3.7309630">
        <ele>600.3</ele>
        <time>2019-05-04T06:53:15Z</time>
      </trkpt>
      <trkpt lat="40.4177140" lon="-3.7309100">
        <ele>600.2</ele>
        <time>2019-05-04T06:53:16Z</time>
      </trkpt>
      <trkpt lat="40.4177590" lon="-3.7308300">
        <ele>600.1</ele>
        <time>2019-05-04T06:53:17Z</time>
      </trkpt>
      <trkpt lat="40.4177890" lon="-3.7307250">
        <ele>600.0</ele>
        <time>2019-05-04T06:53:18Z</time>
      </trkpt>
      <trkpt lat="40.4178140" lon="-3.7306000">
        <ele>599.8</ele>
        <time>2019-05-04T06:53:19Z</time>
      </trkpt>
      <trkpt lat="40.4178310" lon="-3.7304760">
        <ele>599.5</ele>
        <time>2019-05-04T06:53:20Z</time>
      </trkpt>
      <trkpt lat="40.4178440" lon="-3.7303430">
        <ele>599.2</ele>
        <time>2019-05-04T06:53:21Z</time>
      </trkpt>
      <trkpt lat="40.4178570" lon="-3.7302050">
        <ele>598.9</ele>
        <time>2019-05-04T06:53:22Z</time>
      </trkpt>
      <trkpt lat="40.4178710" lon="-3.7300670">
        <ele>598.5</ele>
        <time>2019-05-04T06:53:23Z</time>
      </trkpt>
      <trkpt lat="40.4178880" lon="-3.7299360">
        <ele>598.2</ele>
        <time>2019-05-04T06:53:24Z</time>
      </trkpt>
      <trkpt lat="40.4179070" lon="-3.7298040">
        <ele>597.9</ele>
        <time>2019-05-04T06:53:25Z</time>
      </trkpt>
      <trkpt lat="40.4179270" lon="-3.7296720">
        <ele>597.6</ele>
        <time>2019-05-04T06:53:26Z</time>
      </trkpt>
      <trkpt lat="40.4179510" lon="-3.7295390">
        <ele>597.6</ele>
        <time>2019-05-04T06:53:27Z</time>
      </trkpt>
      <trkpt lat="40.4179760" lon="-3.7294060">
        <ele>597.6</ele>
        <time>2019-05-04T06:53:28Z</time>
      </trkpt>
      <trkpt lat="40.4180040" lon="-3.7292750">
        <ele>597.7</ele>
        <time>2019-05-04T06:53:29Z</time>
      </trkpt>
      <trkpt lat="40.4180330" lon="-3.7291510">
        <ele>597.7</ele>
        <time>2019-05-04T06:53:30Z</time>
      </trkpt>
      <trkpt lat="40.4180610" lon="-3.7290360">
        <ele>597.8</ele>
        <time>2019-05-04T06:53:31Z</time>
      </trkpt>
      <trkpt lat="40.4180870" lon="-3.7289310">
        <ele>598.0</ele>
        <time>2019-05-04T06:53:32Z</time>
      </trkpt>
      <trkpt lat="40.4181050" lon="-3.7288450">
        <ele>598.1</ele>
        <time>2019-05-04T06:53:33Z</time>
      </trkpt>
      <trkpt lat="40.4181200" lon="-3.7287730">
        <ele>597.5</ele>
        <time>2019-05-04T06:53:34Z</time>
      </trkpt>
      <trkpt lat="40.4181360" lon="-3.7287100">
        <ele>597.5</ele>
        <time>2019-05-04T06:53:35Z</time>
      </trkpt>
      <trkpt lat="40.4181570" lon="-3.7286530">
        <ele>597.5</ele>
        <time>2019-05-04T06:53:36Z</time>
      </trkpt>
      <trkpt lat="40.4181820" lon="-3.7286250">
        <ele>597.5</ele>
        <time>2019-05-04T06:53:37Z</time>
      </trkpt>
      <trkpt lat="40.4182060" lon="-3.7286140">
        <ele>597.5</ele>
        <time>2019-05-04T06:53:38Z</time>
      </trkpt>
      <trkpt lat="40.4182280" lon="-3.7286160">
        <ele>597.5</ele>
        <time>2019-05-04T06:53:39Z</time>
      </trkpt>
      <trkpt lat="40.4182490" lon="-3.7286100">
        <ele>597.5</ele>
        <time>2019-05-04T06:53:40Z</time>
      </trkpt>
      <trkpt lat="40.4182680" lon="-3.7286120">
        <ele>597.5</ele>
        <time>2019-05-04T06:53:41Z</time>
      </trkpt>
      <trkpt lat="40.4182890" lon="-3.7286210">
        <ele>597.5</ele>
        <time>2019-05-04T06:53:42Z</time>
      </trkpt>
      <trkpt lat="40.4183120" lon="-3.7286390">
        <ele>597.5</ele>
        <time>2019-05-04T06:53:43Z</time>
      </trkpt>
      <trkpt lat="40.4183380" lon="-3.7286600">
        <ele>597.5</ele>
        <time>2019-05-04T06:53:44Z</time>
      </trkpt>
      <trkpt lat="40.4183680" lon="-3.7286820">
        <ele>597.5</ele>
        <time>2019-05-04T06:53:45Z</time>
      </trkpt>
      <trkpt lat="40.4184020" lon="-3.7287020">
        <ele>597.5</ele>
        <time>2019-05-04T06:53:46Z</time>
      </trkpt>
      <trkpt lat="40.4184360" lon="-3.7287220">
        <ele>597.5</ele>
        <time>2019-05-04T06:53:47Z</time>
      </trkpt>
      <trkpt lat="40.4184720" lon="-3.7287450">
        <ele>597.4</ele>
        <time>2019-05-04T06:53:48Z</time>
      </trkpt>
      <trkpt lat="40.4185040" lon="-3.7287700">
        <ele>597.3</ele>
        <time>2019-05-04T06:53:49Z</time>
      </trkpt>
      <trkpt lat="40.4185370" lon="-3.7287990">
        <ele>597.2</ele>
        <time>2019-05-04T06:53:50Z</time>
      </trkpt>
      <trkpt lat="40.4185670" lon="-3.7288280">
        <ele>597.1</ele>
        <time>2019-05-04T06:53:51Z</time>
      </trkpt>
      <trkpt lat="40.4186000" lon="-3.7288550">
        <ele>597.0</ele>
        <time>2019-05-04T06:53:52Z</time>
      </trkpt>
      <trkpt lat="40.4186380" lon="-3.7288770">
        <ele>596.9</ele>
        <time>2019-05-04T06:53:53Z</time>
      </trkpt>
      <trkpt lat="40.4186770" lon="-3.7288970">
        <ele>596.8</ele>
        <time>2019-05-04T06:53:54Z</time>
      </trkpt>
      <trkpt lat="40.4187170" lon="-3.7289170">
        <ele>596.7</ele>
        <time>2019-05-04T06:53:55Z</time>
      </trkpt>
      <trkpt lat="40.4187510" lon="-3.7289380">
        <ele>596.6</ele>
        <time>2019-05-04T06:53:56Z</time>
      </trkpt>
      <trkpt lat="40.4187840" lon="-3.7289590">
        <ele>596.5</ele>
        <time>2019-05-04T06:53:57Z</time>
      </trkpt>
      <trkpt lat="40.4188160" lon="-3.7289810">
        <ele>596.4</ele>
        <time>2019-05-04T06:53:58Z</time>
      </trkpt>
      <trkpt lat="40.4188480" lon="-3.7290020">
        <ele>596.3</ele>
        <time>2019-05-04T06:53:59Z</time>
      </trkpt>
      <trkpt lat="40.4188820" lon="-3.7290230">
        <ele>596.3</ele>
        <time>2019-05-04T06:54:00Z</time>
      </trkpt>
      <trkpt lat="40.4189200" lon="-3.7290430">
        <ele>596.2</ele>
        <time>2019-05-04T06:54:01Z</time>
      </trkpt>
      <trkpt lat="40.4189670" lon="-3.7290630">
        <ele>596.1</ele>
        <time>2019-05-04T06:54:02Z</time>
      </trkpt>
      <trkpt lat="40.4190190" lon="-3.7290850">
        <ele>595.9</ele>
        <time>2019-05-04T06:54:03Z</time>
      </trkpt>
      <trkpt lat="40.4190770" lon="-3.7291080">
        <ele>595.8</ele>
        <time>2019-05-04T06:54:04Z</time>
      </trkpt>
      <trkpt lat="40.4191350" lon="-3.7291270">
        <ele>595.6</ele>
        <time>2019-05-04T06:54:05Z</time>
      </trkpt>
      <trkpt lat="40.4191960" lon="-3.7291370">
        <ele>595.4</ele>
        <time>2019-05-04T06:54:06Z</time>
      </trkpt>
      <trkpt lat="40.4192560" lon="-3.7291450">
        <ele>595.3</ele>
        <time>2019-05-04T06:54:07Z</time>
      </trkpt>
      <trkpt lat="40.4193220" lon="-3.7291580">
        <ele>595.3</ele>
        <time>2019-05-04T06:54:08Z</time>
      </trkpt>
      <trkpt lat="40.4193930" lon="-3.7291760">
        <ele>595.3</ele>
        <time>2019-05-04T06:54:09Z</time>
      </trkpt>
      <trkpt lat="40.4194730" lon="-3.7292020">
        <ele>595.3</ele>
        <time>2019-05-04T06:54:10Z</time>
      </trkpt>
      <trkpt lat="40.4195550" lon="-3.7292260">
        <ele>595.4</ele>
        <time>2019-05-04T06:54:11Z</time>
      </trkpt>
      <trkpt lat="40.4196370" lon="-3.7292500">
        <ele>595.4</ele>
        <time>2019-05-04T06:54:12Z</time>
      </trkpt>
      <trkpt lat="40.4197170" lon="-3.7292680">
        <ele>595.4</ele>
        <time>2019-05-04T06:54:13Z</time>
      </trkpt>
      <trkpt lat="40.4197960" lon="-3.7292900">
        <ele>595.4</ele>
        <time>2019-05-04T06:54:14Z</time>
      </trkpt>
      <trkpt lat="40.4198680" lon="-3.7293240">
        <ele>595.3</ele>
        <time>2019-05-04T06:54:15Z</time>
      </trkpt>
      <trkpt lat="40.4199340" lon="-3.7293720">
        <ele>595.1</ele>
        <time>2019-05-04T06:54:16Z</time>
      </trkpt>
      <trkpt lat="40.4199900" lon="-3.7294240">
        <ele>594.8</ele>
        <time>2019-05-04T06:54:17Z</time>
      </trkpt>
      <trkpt lat="40.4200390" lon="-3.7294740">
        <ele>594.5</ele>
        <time>2019-05-04T06:54:18Z</time>
      </trkpt>
      <trkpt lat="40.4200860" lon="-3.7295160">
        <ele>594.1</ele>
        <time>2019-05-04T06:54:19Z</time>
      </trkpt>
      <trkpt lat="40.4201330" lon="-3.7295560">
        <ele>594.2</ele>
        <time>2019-05-04T06:54:20Z</time>
      </trkpt>
      <trkpt lat="40.4201820" lon="-3.7295960">
        <ele>594.3</ele>
        <time>2019-05-04T06:54:21Z</time>
      </trkpt>
      <trkpt lat="40.4202280" lon="-3.7296380">
        <ele>594.4</ele>
        <time>2019-05-04T06:54:22Z</time>
      </trkpt>
      <trkpt lat="40.4202710" lon="-3.7296800">
        <ele>594.5</ele>
        <time>2019-05-04T06:54:23Z</time>
      </trkpt>
      <trkpt lat="40.4203150" lon="-3.7297170">
        <ele>594.7</ele>
        <time>2019-05-04T06:54:24Z</time>
      </trkpt>
      <trkpt lat="40.4203610" lon="-3.7297500">
        <ele>594.9</ele>
        <time>2019-05-04T06:54:25Z</time>
      </trkpt>
      <trkpt lat="40.4204040" lon="-3.7297820">
        <ele>595.1</ele>
        <time>2019-05-04T06:54:26Z</time>
      </trkpt>
      <trkpt lat="40.4204470" lon="-3.7298130">
        <ele>595.2</ele>
        <time>2019-05-04T06:54:27Z</time>
      </trkpt>
      <trkpt lat="40.4204890" lon="-3.7298420">
        <ele>595.2</ele>
        <time>2019-05-04T06:54:28Z</time>
      </trkpt>
      <trkpt lat="40.4205360" lon="-3.7298690">
        <ele>595.3</ele>
        <time>2019-05-04T06:54:29Z</time>
      </trkpt>
      <trkpt lat="40.4205830" lon="-3.7298990">
        <ele>595.4</ele>
        <time>2019-05-04T06:54:30Z</time>
      </trkpt>
      <trkpt lat="40.4206290" lon="-3.7299330">
        <ele>595.5</ele>
        <time>2019-05-04T06:54:31Z</time>
      </trkpt>
      <trkpt lat="40.4206730" lon="-3.7299700">
        <ele>595.6</ele>
        <time>2019-05-04T06:54:32Z</time>
      </trkpt>
      <trkpt lat="40.4207180" lon="-3.7300080">
        <ele>595.7</ele>
        <time>2019-05-04T06:54:33Z</time>
      </trkpt>
      <trkpt lat="40.4207640" lon="-3.7300480">
        <ele>595.8</ele>
        <time>2019-05-04T06:54:34Z</time>
      </trkpt>
      <trkpt lat="40.4208120" lon="-3.7300870">
        <ele>595.9</ele>
        <time>2019-05-04T06:54:35Z</time>
      </trkpt>
      <trkpt lat="40.4208590" lon="-3.7301280">
        <ele>595.9</ele>
        <time>2019-05-04T06:54:36Z</time>
      </trkpt>
      <trkpt lat="40.4209050" lon="-3.7301670">
        <ele>595.9</ele>
        <time>2019-05-04T06:54:37Z</time>
      </trkpt>
      <trkpt lat="40.4209490" lon="-3.7302060">
        <ele>595.9</ele>
        <time>2019-05-04T06:54:38Z</time>
      </trkpt>
      <trkpt lat="40.4209900" lon="-3.7302430">
        <ele>595.9</ele>
        <time>2019-05-04T06:54:39Z</time>
      </trkpt>
      <trkpt lat="40.4210320" lon="-3.7302790">
        <ele>595.9</ele>
        <time>2019-05-04T06:54:40Z</time>
      </trkpt>
      <trkpt lat="40.4210790" lon="-3.7303200">
        <ele>595.9</ele>
        <time>2019-05-04T06:54:41Z</time>
      </trkpt>
      <trkpt lat="40.4211280" lon="-3.7303620">
        <ele>595.9</ele>
        <time>2019-05-04T06:54:42Z</time>
      </trkpt>
      <trkpt lat="40.4211850" lon="-3.7304050">
        <ele>595.8</ele>
        <time>2019-05-04T06:54:43Z</time>
      </trkpt>
      <trkpt lat="40.4212430" lon="-3.7304500">
        <ele>595.8</ele>
        <time>2019-05-04T06:54:44Z</time>
      </trkpt>
      <trkpt lat="40.4213040" lon="-3.7304950">
        <ele>595.8</ele>
        <time>2019-05-04T06:54:45Z</time>
      </trkpt>
      <trkpt lat="40.4213620" lon="-3.7305430">
        <ele>595.7</ele>
        <time>2019-05-04T06:54:46Z</time>
      </trkpt>
      <trkpt lat="40.4214230" lon="-3.7305900">
        <ele>595.7</ele>
        <time>2019-05-04T06:54:47Z</time>
      </trkpt>
      <trkpt lat="40.4214840" lon="-3.7306400">
        <ele>595.6</ele>
        <time>2019-05-04T06:54:48Z</time>
      </trkpt>
      <trkpt lat="40.4215480" lon="-3.7306920">
        <ele>595.5</ele>
        <time>2019-05-04T06:54:49Z</time>
      </trkpt>
      <trkpt lat="40.4216130" lon="-3.7307470">
        <ele>595.3</ele>
        <time>2019-05-04T06:54:50Z</time>
      </trkpt>
      <trkpt lat="40.4216750" lon="-3.7308030">
        <ele>595.2</ele>
        <time>2019-05-04T06:54:51Z</time>
      </trkpt>
      <trkpt lat="40.4217360" lon="-3.7308580">
        <ele>594.9</ele>
        <time>2019-05-04T06:54:52Z</time>
      </trkpt>
      <trkpt lat="40.4217980" lon="-3.7309130">
        <ele>594.7</ele>
        <time>2019-05-04T06:54:53Z</time>
      </trkpt>
      <trkpt lat="40.4218610" lon="-3.7309690">
        <ele>594.4</ele>
        <time>2019-05-04T06:54:54Z</time>
      </trkpt>
      <trkpt lat="40.4219230" lon="-3.7310230">
        <ele>594.1</ele>
        <time>2019-05-04T06:54:55Z</time>
      </trkpt>
      <trkpt lat="40.4219830" lon="-3.7310770">
        <ele>593.8</ele>
        <time>2019-05-04T06:54:56Z</time>
      </trkpt>
      <trkpt lat="40.4220450" lon="-3.7311280">
        <ele>593.5</ele>
        <time>2019-05-04T06:54:57Z</time>
      </trkpt>
      <trkpt lat="40.4221110" lon="-3.7311810">
        <ele>593.1</ele>
        <time>2019-05-04T06:54:58Z</time>
      </trkpt>
      <trkpt lat="40.4221790" lon="-3.7312320">
        <ele>592.8</ele>
        <time>2019-05-04T06:54:59Z</time>
      </trkpt>
      <trkpt lat="40.4222520" lon="-3.7312850">
        <ele>592.6</ele>
        <time>2019-05-04T06:55:00Z</time>
      </trkpt>
      <trkpt lat="40.4223270" lon="-3.7313390">
        <ele>592.3</ele>
        <time>2019-05-04T06:55:01Z</time>
      </trkpt>
      <trkpt lat="40.4224030" lon="-3.7313920">
        <ele>592.2</ele>
        <time>2019-05-04T06:55:02Z</time>
      </trkpt>
      <trkpt lat="40.4224740" lon="-3.7314460">
        <ele>592.1</ele>
        <time>2019-05-04T06:55:03Z</time>
      </trkpt>
      <trkpt lat="40.4225430" lon="-3.7314990">
        <ele>592.0</ele>
        <time>2019-05-04T06:55:04Z</time>
      </trkpt>
      <trkpt lat="40.4226100" lon="-3.7315510">
        <ele>591.9</ele>
        <time>2019-05-04T06:55:05Z</time>
      </trkpt>
      <trkpt lat="40.4226790" lon="-3.7316010">
        <ele>591.9</ele>
        <time>2019-05-04T06:55:06Z</time>
      </trkpt>
      <trkpt lat="40.4227460" lon="-3.7316520">
        <ele>591.9</ele>
        <time>2019-05-04T06:55:07Z</time>
      </trkpt>
      <trkpt lat="40.4228150" lon="-3.7317050">
        <ele>591.9</ele>
        <time>2019-05-04T06:55:08Z</time>
      </trkpt>
      <trkpt lat="40.4228830" lon="-3.7317590">
        <ele>591.9</ele>
        <time>2019-05-04T06:55:09Z</time>
      </trkpt>
      <trkpt lat="40.4229550" lon="-3.7318140">
        <ele>591.9</ele>
        <time>2019-05-04T06:55:10Z</time>
      </trkpt>
      <trkpt lat="40.4230270" lon="-3.7318660">
        <ele>591.9</ele>
        <time>2019-05-04T06:55:11Z</time>
      </trkpt>
      <trkpt lat="40.4230990" lon="-3.7319200">
        <ele>591.9</ele>
        <time>2019-05-04T06:55:12Z</time>
      </trkpt>
      <trkpt lat="40.4231710" lon="-3.7319750">
        <ele>591.9</ele>
        <time>2019-05-04T06:55:13Z</time>
      </trkpt>
      <trkpt lat="40.4232420" lon="-3.7320320">
        <ele>591.9</ele>
        <time>2019-05-04T06:55:14Z</time>
      </trkpt>
      <trkpt lat="40.4233090" lon="-3.7320880">
        <ele>591.9</ele>
        <time>2019-05-04T06:55:15Z</time>
      </trkpt>
      <trkpt lat="40.4233730" lon="-3.7321390">
        <ele>592.0</ele>
        <time>2019-05-04T06:55:16Z</time>
      </trkpt>
      <trkpt lat="40.4234350" lon="-3.7321880">
        <ele>592.0</ele>
        <time>2019-05-04T06:55:17Z</time>
      </trkpt>
      <trkpt lat="40.4234970" lon="-3.7322370">
        <ele>592.0</ele>
        <time>2019-05-04T06:55:18Z</time>
      </trkpt>
      <trkpt lat="40.4235600" lon="-3.7322860">
        <ele>592.1</ele>
        <time>2019-05-04T06:55:19Z</time>
      </trkpt>
      <trkpt lat="40.4236210" lon="-3.7323330">
        <ele>592.3</ele>
        <time>2019-05-04T06:55:20Z</time>
      </trkpt>
      <trkpt lat="40.4236810" lon="-3.7323800">
        <ele>592.4</ele>
        <time>2019-05-04T06:55:21Z</time>
      </trkpt>
      <trkpt lat="40.4237400" lon="-3.7324290">
        <ele>592.6</ele>
        <time>2019-05-04T06:55:22Z</time>
      </trkpt>
      <trkpt lat="40.4238000" lon="-3.7324780">
        <ele>592.7</ele>
        <time>2019-05-04T06:55:23Z</time>
      </trkpt>
      <trkpt lat="40.4238610" lon="-3.7325280">
        <ele>592.9</ele>
        <time>2019-05-04T06:55:24Z</time>
      </trkpt>
      <trkpt lat="40.4239230" lon="-3.7325790">
        <ele>593.0</ele>
        <time>2019-05-04T06:55:25Z</time>
      </trkpt>
      <trkpt lat="40.4239860" lon="-3.7326300">
        <ele>593.0</ele>
        <time>2019-05-04T06:55:26Z</time>
      </trkpt>
      <trkpt lat="40.4240460" lon="-3.7326800">
        <ele>593.1</ele>
        <time>2019-05-04T06:55:27Z</time>
      </trkpt>
      <trkpt lat="40.4241040" lon="-3.7327300">
        <ele>593.1</ele>
        <time>2019-05-04T06:55:28Z</time>
      </trkpt>
      <trkpt lat="40.4241590" lon="-3.7327800">
        <ele>593.1</ele>
        <time>2019-05-04T06:55:29Z</time>
      </trkpt>
      <trkpt lat="40.4242150" lon="-3.7328300">
        <ele>593.1</ele>
        <time>2019-05-04T06:55:30Z</time>
      </trkpt>
      <trkpt lat="40.4242700" lon="-3.7328790">
        <ele>593.1</ele>
        <time>2019-05-04T06:55:31Z</time>
      </trkpt>
      <trkpt lat="40.4243250" lon="-3.7329260">
        <ele>593.2</ele>
        <time>2019-05-04T06:55:32Z</time>
      </trkpt>
      <trkpt lat="40.4243750" lon="-3.7329700">
        <ele>593.2</ele>
        <time>2019-05-04T06:55:33Z</time>
      </trkpt>
      <trkpt lat="40.4244250" lon="-3.7330130">
        <ele>593.3</ele>
        <time>2019-05-04T06:55:34Z</time>
      </trkpt>
      <trkpt lat="40.4244740" lon="-3.7330530">
        <ele>593.4</ele>
        <time>2019-05-04T06:55:35Z</time>
      </trkpt>
      <trkpt lat="40.4245280" lon="-3.7330930">
        <ele>593.5</ele>
        <time>2019-05-04T06:55:36Z</time>
      </trkpt>
      <trkpt lat="40.4245810" lon="-3.7331320">
        <ele>593.6</ele>
        <time>2019-05-04T06:55:37Z</time>
      </trkpt>
      <trkpt lat="40.4246330" lon="-3.7331710">
        <ele>593.8</ele>
        <time>2019-05-04T06:55:38Z</time>
      </trkpt>
      <trkpt lat="40.4246810" lon="-3.7332100">
        <ele>593.9</ele>
        <time>2019-05-04T06:55:39Z</time>
      </trkpt>
      <trkpt lat="40.4247290" lon="-3.7332440">
        <ele>593.9</ele>
        <time>2019-05-04T06:55:40Z</time>
      </trkpt>
      <trkpt lat="40.4247730" lon="-3.7332670">
        <ele>594.0</ele>
        <time>2019-05-04T06:55:41Z</time>
      </trkpt>
      <trkpt lat="40.4248210" lon="-3.7332760">
        <ele>594.0</ele>
        <time>2019-05-04T06:55:42Z</time>
      </trkpt>
      <trkpt lat="40.4248720" lon="-3.7332810">
        <ele>594.0</ele>
        <time>2019-05-04T06:55:43Z</time>
      </trkpt>
      <trkpt lat="40.4249330" lon="-3.7332910">
        <ele>594.0</ele>
        <time>2019-05-04T06:55:44Z</time>
      </trkpt>
      <trkpt lat="40.4249950" lon="-3.7333170">
        <ele>593.4</ele>
        <time>2019-05-04T06:55:45Z</time>
      </trkpt>
      <trkpt lat="40.4250450" lon="-3.7333580">
        <ele>593.4</ele>
        <time>2019-05-04T06:55:46Z</time>
      </trkpt>
      <trkpt lat="40.4250840" lon="-3.7334080">
        <ele>593.1</ele>
        <time>2019-05-04T06:55:47Z</time>
      </trkpt>
      <trkpt lat="40.4251100" lon="-3.7334730">
        <ele>593.4</ele>
        <time>2019-05-04T06:55:48Z</time>
      </trkpt>
      <trkpt lat="40.4251420" lon="-3.7335400">
        <ele>593.7</ele>
        <time>2019-05-04T06:55:49Z</time>
      </trkpt>
      <trkpt lat="40.4251740" lon="-3.7336110">
        <ele>594.3</ele>
        <time>2019-05-04T06:55:50Z</time>
      </trkpt>
      <trkpt lat="40.4252070" lon="-3.7336730">
        <ele>594.2</ele>
        <time>2019-05-04T06:55:51Z</time>
      </trkpt>
      <trkpt lat="40.4252400" lon="-3.7337320">
        <ele>594.1</ele>
        <time>2019-05-04T06:55:52Z</time>
      </trkpt>
      <trkpt lat="40.4252740" lon="-3.7337940">
        <ele>594.0</ele>
        <time>2019-05-04T06:55:53Z</time>
      </trkpt>
      <trkpt lat="40.4253090" lon="-3.7338570">
        <ele>593.9</ele>
        <time>2019-05-04T06:55:54Z</time>
      </trkpt>
      <trkpt lat="40.4253460" lon="-3.7339240">
        <ele>593.8</ele>
        <time>2019-05-04T06:55:55Z</time>
      </trkpt>
      <trkpt lat="40.4253820" lon="-3.7339890">
        <ele>593.7</ele>
        <time>2019-05-04T06:55:56Z</time>
      </trkpt>
      <trkpt lat="40.4254170" lon="-3.7340560">
        <ele>593.7</ele>
        <time>2019-05-04T06:55:57Z</time>
      </trkpt>
      <trkpt lat="40.4254510" lon="-3.7341240">
        <ele>593.6</ele>
        <time>2019-05-04T06:55:58Z</time>
      </trkpt>
      <trkpt lat="40.4254880" lon="-3.7341940">
        <ele>593.5</ele>
        <time>2019-05-04T06:55:59Z</time>
      </trkpt>
      <trkpt lat="40.4255280" lon="-3.7342660">
        <ele>593.5</ele>
        <time>2019-05-04T06:56:00Z</time>
      </trkpt>
      <trkpt lat="40.4255690" lon="-3.7343370">
        <ele>593.5</ele>
        <time>2019-05-04T06:56:01Z</time>
      </trkpt>
      <trkpt lat="40.4256120" lon="-3.7344100">
        <ele>593.5</ele>
        <time>2019-05-04T06:56:02Z</time>
      </trkpt>
      <trkpt lat="40.4256580" lon="-3.7344840">
        <ele>593.5</ele>
        <time>2019-05-04T06:56:03Z</time>
      </trkpt>
      <trkpt lat="40.4257080" lon="-3.7345590">
        <ele>593.5</ele>
        <time>2019-05-04T06:56:04Z</time>
      </trkpt>
      <trkpt lat="40.4257610" lon="-3.7346310">
        <ele>593.5</ele>
        <time>2019-05-04T06:56:05Z</time>
      </trkpt>
      <trkpt lat="40.4258250" lon="-3.7347010">
        <ele>593.5</ele>
        <time>2019-05-04T06:56:06Z</time>
      </trkpt>
      <trkpt lat="40.4258880" lon="-3.7347620">
        <ele>593.5</ele>
        <time>2019-05-04T06:56:07Z</time>
      </trkpt>
      <trkpt lat="40.4259540" lon="-3.7348160">
        <ele>593.5</ele>
        <time>2019-05-04T06:56:08Z</time>
      </trkpt>
      <trkpt lat="40.4260150" lon="-3.7348620">
        <ele>593.6</ele>
        <time>2019-05-04T06:56:09Z</time>
      </trkpt>
      <trkpt lat="40.4260780" lon="-3.7349070">
        <ele>593.6</ele>
        <time>2019-05-04T06:56:10Z</time>
      </trkpt>
      <trkpt lat="40.4261440" lon="-3.7349460">
        <ele>593.7</ele>
        <time>2019-05-04T06:56:11Z</time>
      </trkpt>
      <trkpt lat="40.4262130" lon="-3.7349840">
        <ele>593.7</ele>
        <time>2019-05-04T06:56:12Z</time>
      </trkpt>
      <trkpt lat="40.4262830" lon="-3.7350190">
        <ele>593.7</ele>
        <time>2019-05-04T06:56:13Z</time>
      </trkpt>
      <trkpt lat="40.4263510" lon="-3.7350530">
        <ele>593.6</ele>
        <time>2019-05-04T06:56:14Z</time>
      </trkpt>
      <trkpt lat="40.4264160" lon="-3.7350810">
        <ele>593.6</ele>
        <time>2019-05-04T06:56:15Z</time>
      </trkpt>
      <trkpt lat="40.4264830" lon="-3.7351070">
        <ele>593.5</ele>
        <time>2019-05-04T06:56:16Z</time>
      </trkpt>
      <trkpt lat="40.4265560" lon="-3.7351320">
        <ele>593.5</ele>
        <time>2019-05-04T06:56:17Z</time>
      </trkpt>
      <trkpt lat="40.4266410" lon="-3.7351560">
        <ele>593.5</ele>
        <time>2019-05-04T06:56:18Z</time>
      </trkpt>
      <trkpt lat="40.4267260" lon="-3.7351770">
        <ele>593.5</ele>
        <time>2019-05-04T06:56:19Z</time>
      </trkpt>
      <trkpt lat="40.4268050" lon="-3.7351960">
        <ele>593.5</ele>
        <time>2019-05-04T06:56:20Z</time>
      </trkpt>
      <trkpt lat="40.4268710" lon="-3.7352190">
        <ele>593.5</ele>
        <time>2019-05-04T06:56:21Z</time>
      </trkpt>
      <trkpt lat="40.4269370" lon="-3.7352450">
        <ele>593.5</ele>
        <time>2019-05-04T06:56:22Z</time>
      </trkpt>
      <trkpt lat="40.4270070" lon="-3.7352760">
        <ele>593.5</ele>
        <time>2019-05-04T06:56:23Z</time>
      </trkpt>
      <trkpt lat="40.4270790" lon="-3.7353070">
        <ele>593.5</ele>
        <time>2019-05-04T06:56:24Z</time>
      </trkpt>
      <trkpt lat="40.4271550" lon="-3.7353390">
        <ele>593.5</ele>
        <time>2019-05-04T06:56:25Z</time>
      </trkpt>
      <trkpt lat="40.4272330" lon="-3.7353700">
        <ele>593.5</ele>
        <time>2019-05-04T06:56:26Z</time>
      </trkpt>
      <trkpt lat="40.4273140" lon="-3.7354040">
        <ele>593.6</ele>
        <time>2019-05-04T06:56:27Z</time>
      </trkpt>
      <trkpt lat="40.4273930" lon="-3.7354400">
        <ele>593.7</ele>
        <time>2019-05-04T06:56:28Z</time>
      </trkpt>
      <trkpt lat="40.4274710" lon="-3.7354790">
        <ele>593.8</ele>
        <time>2019-05-04T06:56:29Z</time>
      </trkpt>
      <trkpt lat="40.4275480" lon="-3.7355220">
        <ele>593.9</ele>
        <time>2019-05-04T06:56:30Z</time>
      </trkpt>
      <trkpt lat="40.4276230" lon="-3.7355670">
        <ele>594.1</ele>
        <time>2019-05-04T06:56:31Z</time>
      </trkpt>
      <trkpt lat="40.4276970" lon="-3.7356140">
        <ele>594.3</ele>
        <time>2019-05-04T06:56:32Z</time>
      </trkpt>
      <trkpt lat="40.4277720" lon="-3.7356600">
        <ele>594.5</ele>
        <time>2019-05-04T06:56:33Z</time>
      </trkpt>
      <trkpt lat="40.4278460" lon="-3.7357040">
        <ele>594.7</ele>
        <time>2019-05-04T06:56:34Z</time>
      </trkpt>
      <trkpt lat="40.4279200" lon="-3.7357480">
        <ele>594.8</ele>
        <time>2019-05-04T06:56:35Z</time>
      </trkpt>
      <trkpt lat="40.4279900" lon="-3.7357930">
        <ele>595.0</ele>
        <time>2019-05-04T06:56:36Z</time>
      </trkpt>
      <trkpt lat="40.4280560" lon="-3.7358390">
        <ele>595.2</ele>
        <time>2019-05-04T06:56:37Z</time>
      </trkpt>
      <trkpt lat="40.4281200" lon="-3.7358850">
        <ele>595.4</ele>
        <time>2019-05-04T06:56:38Z</time>
      </trkpt>
      <trkpt lat="40.4281830" lon="-3.7359290">
        <ele>595.6</ele>
        <time>2019-05-04T06:56:39Z</time>
      </trkpt>
      <trkpt lat="40.4282450" lon="-3.7359710">
        <ele>595.8</ele>
        <time>2019-05-04T06:56:40Z</time>
      </trkpt>
      <trkpt lat="40.4283050" lon="-3.7360120">
        <ele>595.9</ele>
        <time>2019-05-04T06:56:41Z</time>
      </trkpt>
      <trkpt lat="40.4283600" lon="-3.7360510">
        <ele>596.0</ele>
        <time>2019-05-04T06:56:42Z</time>
      </trkpt>
      <trkpt lat="40.4284120" lon="-3.7360910">
        <ele>596.0</ele>
        <time>2019-05-04T06:56:43Z</time>
      </trkpt>
      <trkpt lat="40.4284650" lon="-3.7361300">
        <ele>596.1</ele>
        <time>2019-05-04T06:56:44Z</time>
      </trkpt>
      <trkpt lat="40.4285210" lon="-3.7361670">
        <ele>596.1</ele>
        <time>2019-05-04T06:56:45Z</time>
      </trkpt>
      <trkpt lat="40.4285780" lon="-3.7362030">
        <ele>596.2</ele>
        <time>2019-05-04T06:56:46Z</time>
      </trkpt>
      <trkpt lat="40.4286340" lon="-3.7362400">
        <ele>596.2</ele>
        <time>2019-05-04T06:56:47Z</time>
      </trkpt>
      <trkpt lat="40.4286880" lon="-3.7362800">
        <ele>596.2</ele>
        <time>2019-05-04T06:56:48Z</time>
      </trkpt>
      <trkpt lat="40.4287400" lon="-3.7363210">
        <ele>596.2</ele>
        <time>2019-05-04T06:56:49Z</time>
      </trkpt>
      <trkpt lat="40.4287900" lon="-3.7363650">
        <ele>596.3</ele>
        <time>2019-05-04T06:56:50Z</time>
      </trkpt>
      <trkpt lat="40.4288400" lon="-3.7364100">
        <ele>596.3</ele>
        <time>2019-05-04T06:56:51Z</time>
      </trkpt>
      <trkpt lat="40.4288900" lon="-3.7364570">
        <ele>596.3</ele>
        <time>2019-05-04T06:56:52Z</time>
      </trkpt>
      <trkpt lat="40.4289410" lon="-3.7365030">
        <ele>596.4</ele>
        <time>2019-05-04T06:56:53Z</time>
      </trkpt>
      <trkpt lat="40.4289950" lon="-3.7365500">
        <ele>596.4</ele>
        <time>2019-05-04T06:56:54Z</time>
      </trkpt>
      <trkpt lat="40.4290500" lon="-3.7365980">
        <ele>596.4</ele>
        <time>2019-05-04T06:56:55Z</time>
      </trkpt>
      <trkpt lat="40.4291040" lon="-3.7366470">
        <ele>596.5</ele>
        <time>2019-05-04T06:56:56Z</time>
      </trkpt>
      <trkpt lat="40.4291580" lon="-3.7366940">
        <ele>596.5</ele>
        <time>2019-05-04T06:56:57Z</time>
      </trkpt>
      <trkpt lat="40.4292110" lon="-3.7367410">
        <ele>596.5</ele>
        <time>2019-05-04T06:56:58Z</time>
      </trkpt>
      <trkpt lat="40.4292600" lon="-3.7367880">
        <ele>596.6</ele>
        <time>2019-05-04T06:56:59Z</time>
      </trkpt>
      <trkpt lat="40.4293080" lon="-3.7368410">
        <ele>596.6</ele>
        <time>2019-05-04T06:57:00Z</time>
      </trkpt>
      <trkpt lat="40.4293570" lon="-3.7369020">
        <ele>596.5</ele>
        <time>2019-05-04T06:57:01Z</time>
      </trkpt>
      <trkpt lat="40.4294080" lon="-3.7369650">
        <ele>596.5</ele>
        <time>2019-05-04T06:57:02Z</time>
      </trkpt>
      <trkpt lat="40.4294610" lon="-3.7370230">
        <ele>596.5</ele>
        <time>2019-05-04T06:57:03Z</time>
      </trkpt>
      <trkpt lat="40.4295130" lon="-3.7370720">
        <ele>596.4</ele>
        <time>2019-05-04T06:57:04Z</time>
      </trkpt>
      <trkpt lat="40.4295650" lon="-3.7371180">
        <ele>596.4</ele>
        <time>2019-05-04T06:57:05Z</time>
      </trkpt>
      <trkpt lat="40.4296190" lon="-3.7371660">
        <ele>596.3</ele>
        <time>2019-05-04T06:57:06Z</time>
      </trkpt>
      <trkpt lat="40.4296770" lon="-3.7372160">
        <ele>596.2</ele>
        <time>2019-05-04T06:57:07Z</time>
      </trkpt>
      <trkpt lat="40.4297350" lon="-3.7372690">
        <ele>596.2</ele>
        <time>2019-05-04T06:57:08Z</time>
      </trkpt>
      <trkpt lat="40.4297900" lon="-3.7373210">
        <ele>596.2</ele>
        <time>2019-05-04T06:57:09Z</time>
      </trkpt>
      <trkpt lat="40.4298430" lon="-3.7373740">
        <ele>596.1</ele>
        <time>2019-05-04T06:57:10Z</time>
      </trkpt>
      <trkpt lat="40.4298940" lon="-3.7374280">
        <ele>596.1</ele>
        <time>2019-05-04T06:57:11Z</time>
      </trkpt>
      <trkpt lat="40.4299430" lon="-3.7374880">
        <ele>596.1</ele>
        <time>2019-05-04T06:57:12Z</time>
      </trkpt>
      <trkpt lat="40.4299890" lon="-3.7375470">
        <ele>596.0</ele>
        <time>2019-05-04T06:57:13Z</time>
      </trkpt>
      <trkpt lat="40.4300310" lon="-3.7376030">
        <ele>596.0</ele>
        <time>2019-05-04T06:57:14Z</time>
      </trkpt>
      <trkpt lat="40.4300740" lon="-3.7376540">
        <ele>595.9</ele>
        <time>2019-05-04T06:57:15Z</time>
      </trkpt>
      <trkpt lat="40.4301160" lon="-3.7377060">
        <ele>595.9</ele>
        <time>2019-05-04T06:57:16Z</time>
      </trkpt>
      <trkpt lat="40.4301600" lon="-3.7377610">
        <ele>596.0</ele>
        <time>2019-05-04T06:57:17Z</time>
      </trkpt>
      <trkpt lat="40.4302020" lon="-3.7378160">
        <ele>596.0</ele>
        <time>2019-05-04T06:57:18Z</time>
      </trkpt>
      <trkpt lat="40.4302460" lon="-3.7378730">
        <ele>595.8</ele>
        <time>2019-05-04T06:57:19Z</time>
      </trkpt>
      <trkpt lat="40.4302870" lon="-3.7379310">
        <ele>595.8</ele>
        <time>2019-05-04T06:57:20Z</time>
      </trkpt>
      <trkpt lat="40.4303290" lon="-3.7379890">
        <ele>596.5</ele>
        <time>2019-05-04T06:57:21Z</time>
      </trkpt>
      <trkpt lat="40.4303680" lon="-3.7380450">
        <ele>596.9</ele>
        <time>2019-05-04T06:57:22Z</time>
      </trkpt>
      <trkpt lat="40.4304070" lon="-3.7381010">
        <ele>597.3</ele>
        <time>2019-05-04T06:57:23Z</time>
      </trkpt>
      <trkpt lat="40.4304420" lon="-3.7381570">
        <ele>597.5</ele>
        <time>2019-05-04T06:57:24Z</time>
      </trkpt>
      <trkpt lat="40.4304750" lon="-3.7382130">
        <ele>597.7</ele>
        <time>2019-05-04T06:57:25Z</time>
      </trkpt>
      <trkpt lat="40.4305000" lon="-3.7382760">
        <ele>598.0</ele>
        <time>2019-05-04T06:57:26Z</time>
      </trkpt>
      <trkpt lat="40.4305200" lon="-3.7383430">
        <ele>598.3</ele>
        <time>2019-05-04T06:57:27Z</time>
      </trkpt>
      <trkpt lat="40.4305400" lon="-3.7384140">
        <ele>598.7</ele>
        <time>2019-05-04T06:57:28Z</time>
      </trkpt>
      <trkpt lat="40.4305680" lon="-3.7384870">
        <ele>599.3</ele>
        <time>2019-05-04T06:57:29Z</time>
      </trkpt>
      <trkpt lat="40.4305920" lon="-3.7385570">
        <ele>599.6</ele>
        <time>2019-05-04T06:57:30Z</time>
      </trkpt>
      <trkpt lat="40.4306160" lon="-3.7386310">
        <ele>599.9</ele>
        <time>2019-05-04T06:57:31Z</time>
      </trkpt>
      <trkpt lat="40.4306360" lon="-3.7387040">
        <ele>600.2</ele>
        <time>2019-05-04T06:57:32Z</time>
      </trkpt>
      <trkpt lat="40.4306550" lon="-3.7387810">
        <ele>600.6</ele>
        <time>2019-05-04T06:57:33Z</time>
      </trkpt>
      <trkpt lat="40.4306690" lon="-3.7388550">
        <ele>601.0</ele>
        <time>2019-05-04T06:57:34Z</time>
      </trkpt>
      <trkpt lat="40.4306780" lon="-3.7389260">
        <ele>601.4</ele>
        <time>2019-05-04T06:57:35Z</time>
      </trkpt>
      <trkpt lat="40.4306870" lon="-3.7389950">
        <ele>601.7</ele>
        <time>2019-05-04T06:57:36Z</time>
      </trkpt>
      <trkpt lat="40.4306980" lon="-3.7390630">
        <ele>602.0</ele>
        <time>2019-05-04T06:57:37Z</time>
      </trkpt>
      <trkpt lat="40.4307090" lon="-3.7391300">
        <ele>602.2</ele>
        <time>2019-05-04T06:57:38Z</time>
      </trkpt>
      <trkpt lat="40.4307210" lon="-3.7391970">
        <ele>602.4</ele>
        <time>2019-05-04T06:57:39Z</time>
      </trkpt>
      <trkpt lat="40.4307350" lon="-3.7392630">
        <ele>602.6</ele>
        <time>2019-05-04T06:57:40Z</time>
      </trkpt>
      <trkpt lat="40.4307480" lon="-3.7393270">
        <ele>602.7</ele>
        <time>2019-05-04T06:57:41Z</time>
      </trkpt>
      <trkpt lat="40.4307610" lon="-3.7393950">
        <ele>603.1</ele>
        <time>2019-05-04T06:57:42Z</time>
      </trkpt>
      <trkpt lat="40.4307680" lon="-3.7394690">
        <ele>603.4</ele>
        <time>2019-05-04T06:57:43Z</time>
      </trkpt>
      <trkpt lat="40.4307740" lon="-3.7395500">
        <ele>603.8</ele>
        <time>2019-05-04T06:57:44Z</time>
      </trkpt>
      <trkpt lat="40.4307810" lon="-3.7396330">
        <ele>604.1</ele>
        <time>2019-05-04T06:57:45Z</time>
      </trkpt>
      <trkpt lat="40.4307900" lon="-3.7397120">
        <ele>604.3</ele>
        <time>2019-05-04T06:57:46Z</time>
      </trkpt>
      <trkpt lat="40.4307990" lon="-3.7397870">
        <ele>604.6</ele>
        <time>2019-05-04T06:57:47Z</time>
      </trkpt>
      <trkpt lat="40.4308060" lon="-3.7398610">
        <ele>604.9</ele>
        <time>2019-05-04T06:57:48Z</time>
      </trkpt>
      <trkpt lat="40.4308110" lon="-3.7399360">
        <ele>605.3</ele>
        <time>2019-05-04T06:57:49Z</time>
      </trkpt>
      <trkpt lat="40.4308150" lon="-3.7400110">
        <ele>605.7</ele>
        <time>2019-05-04T06:57:50Z</time>
      </trkpt>
      <trkpt lat="40.4308190" lon="-3.7400840">
        <ele>606.1</ele>
        <time>2019-05-04T06:57:51Z</time>
      </trkpt>
      <trkpt lat="40.4308230" lon="-3.7401560">
        <ele>606.4</ele>
        <time>2019-05-04T06:57:52Z</time>
      </trkpt>
      <trkpt lat="40.4308280" lon="-3.7402260">
        <ele>606.7</ele>
        <time>2019-05-04T06:57:53Z</time>
      </trkpt>
      <trkpt lat="40.4308330" lon="-3.7402970">
        <ele>606.9</ele>
        <time>2019-05-04T06:57:54Z</time>
      </trkpt>
      <trkpt lat="40.4308400" lon="-3.7403670">
        <ele>607.1</ele>
        <time>2019-05-04T06:57:55Z</time>
      </trkpt>
      <trkpt lat="40.4308430" lon="-3.7404380">
        <ele>607.3</ele>
        <time>2019-05-04T06:57:56Z</time>
      </trkpt>
      <trkpt lat="40.4308460" lon="-3.7405110">
        <ele>607.6</ele>
        <time>2019-05-04T06:57:57Z</time>
      </trkpt>
      <trkpt lat="40.4308480" lon="-3.7405840">
        <ele>607.9</ele>
        <time>2019-05-04T06:57:58Z</time>
      </trkpt>
      <trkpt lat="40.4308510" lon="-3.7406560">
        <ele>608.2</ele>
        <time>2019-05-04T06:57:59Z</time>
      </trkpt>
      <trkpt lat="40.4308540" lon="-3.7407270">
        <ele>608.5</ele>
        <time>2019-05-04T06:58:00Z</time>
      </trkpt>
      <trkpt lat="40.4308580" lon="-3.7407990">
        <ele>608.8</ele>
        <time>2019-05-04T06:58:01Z</time>
      </trkpt>
      <trkpt lat="40.4308630" lon="-3.7408720">
        <ele>609.1</ele>
        <time>2019-05-04T06:58:02Z</time>
      </trkpt>
      <trkpt lat="40.4308670" lon="-3.7409440">
        <ele>609.4</ele>
        <time>2019-05-04T06:58:03Z</time>
      </trkpt>
      <trkpt lat="40.4308700" lon="-3.7410170">
        <ele>609.6</ele>
        <time>2019-05-04T06:58:04Z</time>
      </trkpt>
      <trkpt lat="40.4308740" lon="-3.7410910">
        <ele>609.9</ele>
        <time>2019-05-04T06:58:05Z</time>
      </trkpt>
      <trkpt lat="40.4308790" lon="-3.7411650">
        <ele>610.2</ele>
        <time>2019-05-04T06:58:06Z</time>
      </trkpt>
      <trkpt lat="40.4308860" lon="-3.7412390">
        <ele>610.5</ele>
        <time>2019-05-04T06:58:07Z</time>
      </trkpt>
      <trkpt lat="40.4308920" lon="-3.7413130">
        <ele>610.9</ele>
        <time>2019-05-04T06:58:08Z</time>
      </trkpt>
      <trkpt lat="40.4308980" lon="-3.7413860">
        <ele>611.2</ele>
        <time>2019-05-04T06:58:09Z</time>
      </trkpt>
      <trkpt lat="40.4309030" lon="-3.7414600">
        <ele>611.4</ele>
        <time>2019-05-04T06:58:10Z</time>
      </trkpt>
      <trkpt lat="40.4309070" lon="-3.7415340">
        <ele>611.5</ele>
        <time>2019-05-04T06:58:11Z</time>
      </trkpt>
      <trkpt lat="40.4309130" lon="-3.7416090">
        <ele>611.7</ele>
        <time>2019-05-04T06:58:12Z</time>
      </trkpt>
      <trkpt lat="40.4309230" lon="-3.7416830">
        <ele>611.8</ele>
        <time>2019-05-04T06:58:13Z</time>
      </trkpt>
      <trkpt lat="40.4309330" lon="-3.7417560">
        <ele>611.8</ele>
        <time>2019-05-04T06:58:14Z</time>
      </trkpt>
      <trkpt lat="40.4309430" lon="-3.7418270">
        <ele>611.9</ele>
        <time>2019-05-04T06:58:15Z</time>
      </trkpt>
      <trkpt lat="40.4309530" lon="-3.7418960">
        <ele>612.1</ele>
        <time>2019-05-04T06:58:16Z</time>
      </trkpt>
      <trkpt lat="40.4309630" lon="-3.7419640">
        <ele>612.3</ele>
        <time>2019-05-04T06:58:17Z</time>
      </trkpt>
      <trkpt lat="40.4309710" lon="-3.7420330">
        <ele>612.5</ele>
        <time>2019-05-04T06:58:18Z</time>
      </trkpt>
      <trkpt lat="40.4309800" lon="-3.7421050">
        <ele>612.6</ele>
        <time>2019-05-04T06:58:19Z</time>
      </trkpt>
      <trkpt lat="40.4309910" lon="-3.7421770">
        <ele>612.8</ele>
        <time>2019-05-04T06:58:20Z</time>
      </trkpt>
      <trkpt lat="40.4310020" lon="-3.7422500">
        <ele>613.1</ele>
        <time>2019-05-04T06:58:21Z</time>
      </trkpt>
      <trkpt lat="40.4310150" lon="-3.7423220">
        <ele>613.3</ele>
        <time>2019-05-04T06:58:22Z</time>
      </trkpt>
      <trkpt lat="40.4310300" lon="-3.7423920">
        <ele>613.5</ele>
        <time>2019-05-04T06:58:23Z</time>
      </trkpt>
      <trkpt lat="40.4310450" lon="-3.7424580">
        <ele>613.8</ele>
        <time>2019-05-04T06:58:24Z</time>
      </trkpt>
      <trkpt lat="40.4310590" lon="-3.7425180">
        <ele>614.0</ele>
        <time>2019-05-04T06:58:25Z</time>
      </trkpt>
      <trkpt lat="40.4310690" lon="-3.7425730">
        <ele>614.2</ele>
        <time>2019-05-04T06:58:26Z</time>
      </trkpt>
      <trkpt lat="40.4310780" lon="-3.7426230">
        <ele>614.4</ele>
        <time>2019-05-04T06:58:27Z</time>
      </trkpt>
      <trkpt lat="40.4310900" lon="-3.7426710">
        <ele>614.6</ele>
        <time>2019-05-04T06:58:28Z</time>
      </trkpt>
      <trkpt lat="40.4311040" lon="-3.7427200">
        <ele>614.8</ele>
        <time>2019-05-04T06:58:29Z</time>
      </trkpt>
      <trkpt lat="40.4311210" lon="-3.7427690">
        <ele>615.0</ele>
        <time>2019-05-04T06:58:30Z</time>
      </trkpt>
      <trkpt lat="40.4311380" lon="-3.7428190">
        <ele>615.2</ele>
        <time>2019-05-04T06:58:31Z</time>
      </trkpt>
      <trkpt lat="40.4311570" lon="-3.7428710">
        <ele>615.5</ele>
        <time>2019-05-04T06:58:32Z</time>
      </trkpt>
      <trkpt lat="40.4311760" lon="-3.7429240">
        <ele>615.7</ele>
        <time>2019-05-04T06:58:33Z</time>
      </trkpt>
      <trkpt lat="40.4311980" lon="-3.7429800">
        <ele>615.9</ele>
        <time>2019-05-04T06:58:34Z</time>
      </trkpt>
      <trkpt lat="40.4312190" lon="-3.7430370">
        <ele>616.1</ele>
        <time>2019-05-04T06:58:35Z</time>
      </trkpt>
      <trkpt lat="40.4312420" lon="-3.7430940">
        <ele>616.3</ele>
        <time>2019-05-04T06:58:36Z</time>
      </trkpt>
      <trkpt lat="40.4312650" lon="-3.7431510">
        <ele>616.5</ele>
        <time>2019-05-04T06:58:37Z</time>
      </trkpt>
      <trkpt lat="40.4312890" lon="-3.7432070">
        <ele>616.7</ele>
        <time>2019-05-04T06:58:38Z</time>
      </trkpt>
      <trkpt lat="40.4313140" lon="-3.7432610">
        <ele>616.9</ele>
        <time>2019-05-04T06:58:39Z</time>
      </trkpt>
      <trkpt lat="40.4313410" lon="-3.7433100">
        <ele>617.3</ele>
        <time>2019-05-04T06:58:40Z</time>
      </trkpt>
      <trkpt lat="40.4313690" lon="-3.7433560">
        <ele>617.6</ele>
        <time>2019-05-04T06:58:41Z</time>
      </trkpt>
      <trkpt lat="40.4313990" lon="-3.7434000">
        <ele>617.9</ele>
        <time>2019-05-04T06:58:42Z</time>
      </trkpt>
      <trkpt lat="40.4314300" lon="-3.7434440">
        <ele>618.2</ele>
        <time>2019-05-04T06:58:43Z</time>
      </trkpt>
      <trkpt lat="40.4314600" lon="-3.7434890">
        <ele>618.5</ele>
        <time>2019-05-04T06:58:44Z</time>
      </trkpt>
      <trkpt lat="40.4314890" lon="-3.7435340">
        <ele>618.7</ele>
        <time>2019-05-04T06:58:45Z</time>
      </trkpt>
      <trkpt lat="40.4315170" lon="-3.7435790">
        <ele>619.0</ele>
        <time>2019-05-04T06:58:46Z</time>
      </trkpt>
      <trkpt lat="40.4315450" lon="-3.7436260">
        <ele>619.2</ele>
        <time>2019-05-04T06:58:47Z</time>
      </trkpt>
      <trkpt lat="40.4315720" lon="-3.7436750">
        <ele>619.4</ele>
        <time>2019-05-04T06:58:48Z</time>
      </trkpt>
      <trkpt lat="40.4316000" lon="-3.7437280">
        <ele>619.6</ele>
        <time>2019-05-04T06:58:49Z</time>
      </trkpt>
      <trkpt lat="40.4316250" lon="-3.7437850">
        <ele>619.8</ele>
        <time>2019-05-04T06:58:50Z</time>
      </trkpt>
      <trkpt lat="40.4316490" lon="-3.7438420">
        <ele>620.0</ele>
        <time>2019-05-04T06:58:51Z</time>
      </trkpt>
      <trkpt lat="40.4316710" lon="-3.7439010">
        <ele>620.2</ele>
        <time>2019-05-04T06:58:52Z</time>
      </trkpt>
      <trkpt lat="40.4316910" lon="-3.7439590">
        <ele>620.4</ele>
        <time>2019-05-04T06:58:53Z</time>
      </trkpt>
      <trkpt lat="40.4317090" lon="-3.7440170">
        <ele>620.6</ele>
        <time>2019-05-04T06:58:54Z</time>
      </trkpt>
      <trkpt lat="40.4317270" lon="-3.7440750">
        <ele>620.8</ele>
        <time>2019-05-04T06:58:55Z</time>
      </trkpt>
      <trkpt lat="40.4317430" lon="-3.7441320">
        <ele>621.1</ele>
        <time>2019-05-04T06:58:56Z</time>
      </trkpt>
      <trkpt lat="40.4317610" lon="-3.7441890">
        <ele>621.3</ele>
        <time>2019-05-04T06:58:57Z</time>
      </trkpt>
      <trkpt lat="40.4317790" lon="-3.7442470">
        <ele>621.5</ele>
        <time>2019-05-04T06:58:58Z</time>
      </trkpt>
      <trkpt lat="40.4317980" lon="-3.7443040">
        <ele>621.8</ele>
        <time>2019-05-04T06:58:59Z</time>
      </trkpt>
      <trkpt lat="40.4318170" lon="-3.7443610">
        <ele>622.0</ele>
        <time>2019-05-04T06:59:00Z</time>
      </trkpt>
      <trkpt lat="40.4318370" lon="-3.7444160">
        <ele>622.2</ele>
        <time>2019-05-04T06:59:01Z</time>
      </trkpt>
      <trkpt lat="40.4318580" lon="-3.7444720">
        <ele>622.4</ele>
        <time>2019-05-04T06:59:02Z</time>
      </trkpt>
      <trkpt lat="40.4318800" lon="-3.7445280">
        <ele>622.7</ele>
        <time>2019-05-04T06:59:03Z</time>
      </trkpt>
      <trkpt lat="40.4319030" lon="-3.7445850">
        <ele>622.9</ele>
        <time>2019-05-04T06:59:04Z</time>
      </trkpt>
      <trkpt lat="40.4319250" lon="-3.7446400">
        <ele>623.2</ele>
        <time>2019-05-04T06:59:05Z</time>
      </trkpt>
      <trkpt lat="40.4319500" lon="-3.7446940">
        <ele>623.4</ele>
        <time>2019-05-04T06:59:06Z</time>
      </trkpt>
      <trkpt lat="40.4319760" lon="-3.7447460">
        <ele>623.6</ele>
        <time>2019-05-04T06:59:07Z</time>
      </trkpt>
      <trkpt lat="40.4320030" lon="-3.7447970">
        <ele>623.8</ele>
        <time>2019-05-04T06:59:08Z</time>
      </trkpt>
      <trkpt lat="40.4320290" lon="-3.7448480">
        <ele>623.9</ele>
        <time>2019-05-04T06:59:09Z</time>
      </trkpt>
      <trkpt lat="40.4320540" lon="-3.7448990">
        <ele>624.0</ele>
        <time>2019-05-04T06:59:10Z</time>
      </trkpt>
      <trkpt lat="40.4320790" lon="-3.7449480">
        <ele>624.1</ele>
        <time>2019-05-04T06:59:11Z</time>
      </trkpt>
      <trkpt lat="40.4321040" lon="-3.7449960">
        <ele>624.2</ele>
        <time>2019-05-04T06:59:12Z</time>
      </trkpt>
      <trkpt lat="40.4321290" lon="-3.7450420">
        <ele>624.4</ele>
        <time>2019-05-04T06:59:13Z</time>
      </trkpt>
      <trkpt lat="40.4321550" lon="-3.7450910">
        <ele>624.5</ele>
        <time>2019-05-04T06:59:14Z</time>
      </trkpt>
      <trkpt lat="40.4321790" lon="-3.7451410">
        <ele>624.6</ele>
        <time>2019-05-04T06:59:15Z</time>
      </trkpt>
      <trkpt lat="40.4322000" lon="-3.7451970">
        <ele>624.8</ele>
        <time>2019-05-04T06:59:16Z</time>
      </trkpt>
      <trkpt lat="40.4322190" lon="-3.7452530">
        <ele>624.9</ele>
        <time>2019-05-04T06:59:17Z</time>
      </trkpt>
      <trkpt lat="40.4322370" lon="-3.7453120">
        <ele>625.1</ele>
        <time>2019-05-04T06:59:18Z</time>
      </trkpt>
      <trkpt lat="40.4322570" lon="-3.7453670">
        <ele>625.2</ele>
        <time>2019-05-04T06:59:19Z</time>
      </trkpt>
      <trkpt lat="40.4322780" lon="-3.7454230">
        <ele>625.3</ele>
        <time>2019-05-04T06:59:20Z</time>
      </trkpt>
      <trkpt lat="40.4323010" lon="-3.7454800">
        <ele>625.5</ele>
        <time>2019-05-04T06:59:21Z</time>
      </trkpt>
      <trkpt lat="40.4323250" lon="-3.7455380">
        <ele>625.6</ele>
        <time>2019-05-04T06:59:22Z</time>
      </trkpt>
      <trkpt lat="40.4323490" lon="-3.7455980">
        <ele>625.7</ele>
        <time>2019-05-04T06:59:23Z</time>
      </trkpt>
      <trkpt lat="40.4323740" lon="-3.7456560">
        <ele>625.9</ele>
        <time>2019-05-04T06:59:24Z</time>
      </trkpt>
      <trkpt lat="40.4323990" lon="-3.7457120">
        <ele>626.0</ele>
        <time>2019-05-04T06:59:25Z</time>
      </trkpt>
      <trkpt lat="40.4324240" lon="-3.7457670">
        <ele>626.1</ele>
        <time>2019-05-04T06:59:26Z</time>
      </trkpt>
      <trkpt lat="40.4324500" lon="-3.7458220">
        <ele>626.2</ele>
        <time>2019-05-04T06:59:27Z</time>
      </trkpt>
      <trkpt lat="40.4324760" lon="-3.7458760">
        <ele>626.3</ele>
        <time>2019-05-04T06:59:28Z</time>
      </trkpt>
      <trkpt lat="40.4325030" lon="-3.7459270">
        <ele>626.5</ele>
        <time>2019-05-04T06:59:29Z</time>
      </trkpt>
      <trkpt lat="40.4325290" lon="-3.7459790">
        <ele>626.7</ele>
        <time>2019-05-04T06:59:30Z</time>
      </trkpt>
      <trkpt lat="40.4325550" lon="-3.7460320">
        <ele>626.9</ele>
        <time>2019-05-04T06:59:31Z</time>
      </trkpt>
      <trkpt lat="40.4325810" lon="-3.7460880">
        <ele>627.2</ele>
        <time>2019-05-04T06:59:32Z</time>
      </trkpt>
      <trkpt lat="40.4326070" lon="-3.7461430">
        <ele>627.4</ele>
        <time>2019-05-04T06:59:33Z</time>
      </trkpt>
      <trkpt lat="40.4326320" lon="-3.7462000">
        <ele>627.6</ele>
        <time>2019-05-04T06:59:34Z</time>
      </trkpt>
      <trkpt lat="40.4326550" lon="-3.7462620">
        <ele>627.8</ele>
        <time>2019-05-04T06:59:35Z</time>
      </trkpt>
      <trkpt lat="40.4326750" lon="-3.7463280">
        <ele>628.0</ele>
        <time>2019-05-04T06:59:36Z</time>
      </trkpt>
      <trkpt lat="40.4326930" lon="-3.7463960">
        <ele>628.1</ele>
        <time>2019-05-04T06:59:37Z</time>
      </trkpt>
      <trkpt lat="40.4327060" lon="-3.7464640">
        <ele>628.3</ele>
        <time>2019-05-04T06:59:38Z</time>
      </trkpt>
      <trkpt lat="40.4327160" lon="-3.7465320">
        <ele>628.4</ele>
        <time>2019-05-04T06:59:39Z</time>
      </trkpt>
      <trkpt lat="40.4327230" lon="-3.7466000">
        <ele>628.5</ele>
        <time>2019-05-04T06:59:40Z</time>
      </trkpt>
      <trkpt lat="40.4327250" lon="-3.7466680">
        <ele>628.7</ele>
        <time>2019-05-04T06:59:41Z</time>
      </trkpt>
      <trkpt lat="40.4327250" lon="-3.7467370">
        <ele>628.9</ele>
        <time>2019-05-04T06:59:42Z</time>
      </trkpt>
      <trkpt lat="40.4327230" lon="-3.7468030">
        <ele>629.1</ele>
        <time>2019-05-04T06:59:43Z</time>
      </trkpt>
      <trkpt lat="40.4327220" lon="-3.7468690">
        <ele>629.3</ele>
        <time>2019-05-04T06:59:44Z</time>
      </trkpt>
      <trkpt lat="40.4327210" lon="-3.7469370">
        <ele>629.5</ele>
        <time>2019-05-04T06:59:45Z</time>
      </trkpt>
      <trkpt lat="40.4327240" lon="-3.7470060">
        <ele>629.7</ele>
        <time>2019-05-04T06:59:46Z</time>
      </trkpt>
      <trkpt lat="40.4327280" lon="-3.7470790">
        <ele>629.9</ele>
        <time>2019-05-04T06:59:47Z</time>
      </trkpt>
      <trkpt lat="40.4327330" lon="-3.7471520">
        <ele>630.1</ele>
        <time>2019-05-04T06:59:48Z</time>
      </trkpt>
      <trkpt lat="40.4327400" lon="-3.7472270">
        <ele>630.3</ele>
        <time>2019-05-04T06:59:49Z</time>
      </trkpt>
      <trkpt lat="40.4327510" lon="-3.7473000">
        <ele>630.6</ele>
        <time>2019-05-04T06:59:50Z</time>
      </trkpt>
      <trkpt lat="40.4327640" lon="-3.7473730">
        <ele>630.8</ele>
        <time>2019-05-04T06:59:51Z</time>
      </trkpt>
      <trkpt lat="40.4327770" lon="-3.7474440">
        <ele>631.0</ele>
        <time>2019-05-04T06:59:52Z</time>
      </trkpt>
      <trkpt lat="40.4327880" lon="-3.7475150">
        <ele>631.2</ele>
        <time>2019-05-04T06:59:53Z</time>
      </trkpt>
      <trkpt lat="40.4328010" lon="-3.7475850">
        <ele>631.4</ele>
        <time>2019-05-04T06:59:54Z</time>
      </trkpt>
      <trkpt lat="40.4328140" lon="-3.7476560">
        <ele>631.6</ele>
        <time>2019-05-04T06:59:55Z</time>
      </trkpt>
      <trkpt lat="40.4328290" lon="-3.7477270">
        <ele>631.8</ele>
        <time>2019-05-04T06:59:56Z</time>
      </trkpt>
      <trkpt lat="40.4328440" lon="-3.7477980">
        <ele>632.1</ele>
        <time>2019-05-04T06:59:57Z</time>
      </trkpt>
      <trkpt lat="40.4328590" lon="-3.7478680">
        <ele>632.4</ele>
        <time>2019-05-04T06:59:58Z</time>
      </trkpt>
      <trkpt lat="40.4328740" lon="-3.7479380">
        <ele>632.8</ele>
        <time>2019-05-04T06:59:59Z</time>
      </trkpt>
      <trkpt lat="40.4328880" lon="-3.7480090">
        <ele>633.1</ele>
        <time>2019-05-04T07:00:00Z</time>
      </trkpt>
      <trkpt lat="40.4329030" lon="-3.7480790">
        <ele>633.5</ele>
        <time>2019-05-04T07:00:01Z</time>
      </trkpt>
      <trkpt lat="40.4329200" lon="-3.7481480">
        <ele>633.9</ele>
        <time>2019-05-04T07:00:02Z</time>
      </trkpt>
      <trkpt lat="40.4329370" lon="-3.7482180">
        <ele>634.3</ele>
        <time>2019-05-04T07:00:03Z</time>
      </trkpt>
      <trkpt lat="40.4329550" lon="-3.7482880">
        <ele>634.6</ele>
        <time>2019-05-04T07:00:04Z</time>
      </trkpt>
      <trkpt lat="40.4329710" lon="-3.7483590">
        <ele>634.8</ele>
        <time>2019-05-04T07:00:05Z</time>
      </trkpt>
      <trkpt lat="40.4329860" lon="-3.7484300">
        <ele>635.0</ele>
        <time>2019-05-04T07:00:06Z</time>
      </trkpt>
      <trkpt lat="40.4330000" lon="-3.7485010">
        <ele>635.2</ele>
        <time>2019-05-04T07:00:07Z</time>
      </trkpt>
      <trkpt lat="40.4330140" lon="-3.7485730">
        <ele>635.4</ele>
        <time>2019-05-04T07:00:08Z</time>
      </trkpt>
      <trkpt lat="40.4330260" lon="-3.7486450">
        <ele>635.6</ele>
        <time>2019-05-04T07:00:09Z</time>
      </trkpt>
      <trkpt lat="40.4330370" lon="-3.7487190">
        <ele>635.8</ele>
        <time>2019-05-04T07:00:10Z</time>
      </trkpt>
      <trkpt lat="40.4330450" lon="-3.7487920">
        <ele>635.9</ele>
        <time>2019-05-04T07:00:11Z</time>
      </trkpt>
      <trkpt lat="40.4330520" lon="-3.7488640">
        <ele>636.0</ele>
        <time>2019-05-04T07:00:12Z</time>
      </trkpt>
      <trkpt lat="40.4330550" lon="-3.7489350">
        <ele>636.0</ele>
        <time>2019-05-04T07:00:13Z</time>
      </trkpt>
      <trkpt lat="40.4330570" lon="-3.7490080">
        <ele>636.0</ele>
        <time>2019-05-04T07:00:14Z</time>
      </trkpt>
      <trkpt lat="40.4330580" lon="-3.7490810">
        <ele>636.1</ele>
        <time>2019-05-04T07:00:15Z</time>
      </trkpt>
      <trkpt lat="40.4330570" lon="-3.7491550">
        <ele>636.2</ele>
        <time>2019-05-04T07:00:16Z</time>
      </trkpt>
      <trkpt lat="40.4330570" lon="-3.7492270">
        <ele>636.4</ele>
        <time>2019-05-04T07:00:17Z</time>
      </trkpt>
      <trkpt lat="40.4330550" lon="-3.7493020">
        <ele>636.7</ele>
        <time>2019-05-04T07:00:18Z</time>
      </trkpt>
      <trkpt lat="40.4330520" lon="-3.7493760">
        <ele>637.1</ele>
        <time>2019-05-04T07:00:19Z</time>
      </trkpt>
      <trkpt lat="40.4330480" lon="-3.7494480">
        <ele>637.5</ele>
        <time>2019-05-04T07:00:20Z</time>
      </trkpt>
      <trkpt lat="40.4330440" lon="-3.7495190">
        <ele>637.8</ele>
        <time>2019-05-04T07:00:21Z</time>
      </trkpt>
      <trkpt lat="40.4330400" lon="-3.7495900">
        <ele>638.0</ele>
        <time>2019-05-04T07:00:22Z</time>
      </trkpt>
      <trkpt lat="40.4330360" lon="-3.7496620">
        <ele>638.1</ele>
        <time>2019-05-04T07:00:23Z</time>
      </trkpt>
      <trkpt lat="40.4330320" lon="-3.7497340">
        <ele>638.2</ele>
        <time>2019-05-04T07:00:24Z</time>
      </trkpt>
      <trkpt lat="40.4330270" lon="-3.7498070">
        <ele>638.2</ele>
        <time>2019-05-04T07:00:25Z</time>
      </trkpt>
      <trkpt lat="40.4330220" lon="-3.7498800">
        <ele>638.1</ele>
        <time>2019-05-04T07:00:26Z</time>
      </trkpt>
      <trkpt lat="40.4330170" lon="-3.7499530">
        <ele>638.1</ele>
        <time>2019-05-04T07:00:27Z</time>
      </trkpt>
      <trkpt lat="40.4330120" lon="-3.7500270">
        <ele>638.0</ele>
        <time>2019-05-04T07:00:28Z</time>
      </trkpt>
      <trkpt lat="40.4330070" lon="-3.7501010">
        <ele>638.0</ele>
        <time>2019-05-04T07:00:29Z</time>
      </trkpt>
      <trkpt lat="40.4330010" lon="-3.7501730">
        <ele>638.0</ele>
        <time>2019-05-04T07:00:30Z</time>
      </trkpt>
      <trkpt lat="40.4329960" lon="-3.7502430">
        <ele>638.0</ele>
        <time>2019-05-04T07:00:31Z</time>
      </trkpt>
      <trkpt lat="40.4329920" lon="-3.7503130">
        <ele>638.0</ele>
        <time>2019-05-04T07:00:32Z</time>
      </trkpt>
      <trkpt lat="40.4329880" lon="-3.7503820">
        <ele>638.0</ele>
        <time>2019-05-04T07:00:33Z</time>
      </trkpt>
      <trkpt lat="40.4329830" lon="-3.7504500">
        <ele>638.0</ele>
        <time>2019-05-04T07:00:34Z</time>
      </trkpt>
      <trkpt lat="40.4329780" lon="-3.7505170">
        <ele>638.0</ele>
        <time>2019-05-04T07:00:35Z</time>
      </trkpt>
      <trkpt lat="40.4329730" lon="-3.7505830">
        <ele>638.0</ele>
        <time>2019-05-04T07:00:36Z</time>
      </trkpt>
      <trkpt lat="40.4329700" lon="-3.7506500">
        <ele>638.3</ele>
        <time>2019-05-04T07:00:37Z</time>
      </trkpt>
      <trkpt lat="40.4329730" lon="-3.7507170">
        <ele>638.5</ele>
        <time>2019-05-04T07:00:38Z</time>
      </trkpt>
      <trkpt lat="40.4329780" lon="-3.7507860">
        <ele>638.7</ele>
        <time>2019-05-04T07:00:39Z</time>
      </trkpt>
      <trkpt lat="40.4329840" lon="-3.7508530">
        <ele>638.9</ele>
        <time>2019-05-04T07:00:40Z</time>
      </trkpt>
      <trkpt lat="40.4329880" lon="-3.7509190">
        <ele>639.1</ele>
        <time>2019-05-04T07:00:41Z</time>
      </trkpt>
      <trkpt lat="40.4329930" lon="-3.7509830">
        <ele>639.3</ele>
        <time>2019-05-04T07:00:42Z</time>
      </trkpt>
      <trkpt lat="40.4329970" lon="-3.7510480">
        <ele>639.4</ele>
        <time>2019-05-04T07:00:43Z</time>
      </trkpt>
      <trkpt lat="40.4330020" lon="-3.7511150">
        <ele>639.6</ele>
        <time>2019-05-04T07:00:44Z</time>
      </trkpt>
      <trkpt lat="40.4330060" lon="-3.7511830">
        <ele>639.7</ele>
        <time>2019-05-04T07:00:45Z</time>
      </trkpt>
      <trkpt lat="40.4330100" lon="-3.7512470">
        <ele>639.9</ele>
        <time>2019-05-04T07:00:46Z</time>
      </trkpt>
      <trkpt lat="40.4330130" lon="-3.7513100">
        <ele>640.1</ele>
        <time>2019-05-04T07:00:47Z</time>
      </trkpt>
      <trkpt lat="40.4330150" lon="-3.7513730">
        <ele>640.3</ele>
        <time>2019-05-04T07:00:48Z</time>
      </trkpt>
      <trkpt lat="40.4330180" lon="-3.7514340">
        <ele>640.5</ele>
        <time>2019-05-04T07:00:49Z</time>
      </trkpt>
      <trkpt lat="40.4330230" lon="-3.7514960">
        <ele>640.8</ele>
        <time>2019-05-04T07:00:50Z</time>
      </trkpt>
      <trkpt lat="40.4330290" lon="-3.7515590">
        <ele>641.1</ele>
        <time>2019-05-04T07:00:51Z</time>
      </trkpt>
      <trkpt lat="40.4330350" lon="-3.7516230">
        <ele>641.5</ele>
        <time>2019-05-04T07:00:52Z</time>
      </trkpt>
      <trkpt lat="40.4330410" lon="-3.7516860">
        <ele>641.8</ele>
        <time>2019-05-04T07:00:53Z</time>
      </trkpt>
      <trkpt lat="40.4330480" lon="-3.7517490">
        <ele>642.1</ele>
        <time>2019-05-04T07:00:54Z</time>
      </trkpt>
      <trkpt lat="40.4330540" lon="-3.7518130">
        <ele>642.5</ele>
        <time>2019-05-04T07:00:55Z</time>
      </trkpt>
      <trkpt lat="40.4330570" lon="-3.7518740">
        <ele>642.8</ele>
        <time>2019-05-04T07:00:56Z</time>
      </trkpt>
      <trkpt lat="40.4330570" lon="-3.7519340">
        <ele>643.0</ele>
        <time>2019-05-04T07:00:57Z</time>
      </trkpt>
      <trkpt lat="40.4330580" lon="-3.7519960">
        <ele>643.2</ele>
        <time>2019-05-04T07:00:58Z</time>
      </trkpt>
      <trkpt lat="40.4330580" lon="-3.7520620">
        <ele>643.4</ele>
        <time>2019-05-04T07:00:59Z</time>
      </trkpt>
      <trkpt lat="40.4330550" lon="-3.7521310">
        <ele>643.6</ele>
        <time>2019-05-04T07:01:00Z</time>
      </trkpt>
      <trkpt lat="40.4330530" lon="-3.7522010">
        <ele>643.7</ele>
        <time>2019-05-04T07:01:01Z</time>
      </trkpt>
      <trkpt lat="40.4330520" lon="-3.7522680">
        <ele>643.8</ele>
        <time>2019-05-04T07:01:02Z</time>
      </trkpt>
      <trkpt lat="40.4330520" lon="-3.7523310">
        <ele>644.0</ele>
        <time>2019-05-04T07:01:03Z</time>
      </trkpt>
      <trkpt lat="40.4330510" lon="-3.7523930">
        <ele>644.1</ele>
        <time>2019-05-04T07:01:04Z</time>
      </trkpt>
      <trkpt lat="40.4330480" lon="-3.7524560">
        <ele>644.3</ele>
        <time>2019-05-04T07:01:05Z</time>
      </trkpt>
      <trkpt lat="40.4330460" lon="-3.7525200">
        <ele>644.5</ele>
        <time>2019-05-04T07:01:06Z</time>
      </trkpt>
      <trkpt lat="40.4330430" lon="-3.7525890">
        <ele>644.8</ele>
        <time>2019-05-04T07:01:07Z</time>
      </trkpt>
      <trkpt lat="40.4330400" lon="-3.7526610">
        <ele>645.1</ele>
        <time>2019-05-04T07:01:08Z</time>
      </trkpt>
      <trkpt lat="40.4330370" lon="-3.7527340">
        <ele>645.4</ele>
        <time>2019-05-04T07:01:09Z</time>
      </trkpt>
      <trkpt lat="40.4330340" lon="-3.7528080">
        <ele>645.7</ele>
        <time>2019-05-04T07:01:10Z</time>
      </trkpt>
      <trkpt lat="40.4330290" lon="-3.7528790">
        <ele>645.9</ele>
        <time>2019-05-04T07:01:11Z</time>
      </trkpt>
      <trkpt lat="40.4330230" lon="-3.7529500">
        <ele>646.1</ele>
        <time>2019-05-04T07:01:12Z</time>
      </trkpt>
      <trkpt lat="40.4330160" lon="-3.7530210">
        <ele>646.3</ele>
        <time>2019-05-04T07:01:13Z</time>
      </trkpt>
      <trkpt lat="40.4330090" lon="-3.7530950">
        <ele>646.6</ele>
        <time>2019-05-04T07:01:14Z</time>
      </trkpt>
      <trkpt lat="40.4330070" lon="-3.7531740">
        <ele>646.9</ele>
        <time>2019-05-04T07:01:15Z</time>
      </trkpt>
      <trkpt lat="40.4330040" lon="-3.7532500">
        <ele>647.2</ele>
        <time>2019-05-04T07:01:16Z</time>
      </trkpt>
      <trkpt lat="40.4330000" lon="-3.7533250">
        <ele>647.5</ele>
        <time>2019-05-04T07:01:17Z</time>
      </trkpt>
      <trkpt lat="40.4329930" lon="-3.7533940">
        <ele>647.8</ele>
        <time>2019-05-04T07:01:18Z</time>
      </trkpt>
      <trkpt lat="40.4329860" lon="-3.7534630">
        <ele>648.1</ele>
        <time>2019-05-04T07:01:19Z</time>
      </trkpt>
      <trkpt lat="40.4329800" lon="-3.7535310">
        <ele>648.5</ele>
        <time>2019-05-04T07:01:20Z</time>
      </trkpt>
      <trkpt lat="40.4329740" lon="-3.7535990">
        <ele>648.8</ele>
        <time>2019-05-04T07:01:21Z</time>
      </trkpt>
      <trkpt lat="40.4329670" lon="-3.7536680">
        <ele>649.1</ele>
        <time>2019-05-04T07:01:22Z</time>
      </trkpt>
      <trkpt lat="40.4329630" lon="-3.7537410">
        <ele>649.4</ele>
        <time>2019-05-04T07:01:23Z</time>
      </trkpt>
      <trkpt lat="40.4329610" lon="-3.7538160">
        <ele>649.7</ele>
        <time>2019-05-04T07:01:24Z</time>
      </trkpt>
      <trkpt lat="40.4329600" lon="-3.7538940">
        <ele>650.0</ele>
        <time>2019-05-04T07:01:25Z</time>
      </trkpt>
      <trkpt lat="40.4329580" lon="-3.7539700">
        <ele>650.5</ele>
        <time>2019-05-04T07:01:26Z</time>
      </trkpt>
      <trkpt lat="40.4329560" lon="-3.7540450">
        <ele>650.6</ele>
        <time>2019-05-04T07:01:27Z</time>
      </trkpt>
      <trkpt lat="40.4329550" lon="-3.7541180">
        <ele>650.7</ele>
        <time>2019-05-04T07:01:28Z</time>
      </trkpt>
      <trkpt lat="40.4329550" lon="-3.7541890">
        <ele>650.9</ele>
        <time>2019-05-04T07:01:29Z</time>
      </trkpt>
      <trkpt lat="40.4329560" lon="-3.7542580">
        <ele>651.0</ele>
        <time>2019-05-04T07:01:30Z</time>
      </trkpt>
      <trkpt lat="40.4329570" lon="-3.7543240">
        <ele>651.1</ele>
        <time>2019-05-04T07:01:31Z</time>
      </trkpt>
      <trkpt lat="40.4329600" lon="-3.7543920">
        <ele>651.3</ele>
        <time>2019-05-04T07:01:32Z</time>
      </trkpt>
      <trkpt lat="40.4329670" lon="-3.7544600">
        <ele>651.5</ele>
        <time>2019-05-04T07:01:33Z</time>
      </trkpt>
      <trkpt lat="40.4329760" lon="-3.7545290">
        <ele>651.7</ele>
        <time>2019-05-04T07:01:34Z</time>
      </trkpt>
      <trkpt lat="40.4329830" lon="-3.7545990">
        <ele>651.9</ele>
        <time>2019-05-04T07:01:35Z</time>
      </trkpt>
      <trkpt lat="40.4329890" lon="-3.7546680">
        <ele>652.2</ele>
        <time>2019-05-04T07:01:36Z</time>
      </trkpt>
      <trkpt lat="40.4329960" lon="-3.7547360">
        <ele>652.4</ele>
        <time>2019-05-04T07:01:37Z</time>
      </trkpt>
      <trkpt lat="40.4330040" lon="-3.7548040">
        <ele>652.6</ele>
        <time>2019-05-04T07:01:38Z</time>
      </trkpt>
      <trkpt lat="40.4330150" lon="-3.7548700">
        <ele>652.9</ele>
        <time>2019-05-04T07:01:39Z</time>
      </trkpt>
      <trkpt lat="40.4330260" lon="-3.7549370">
        <ele>653.1</ele>
        <time>2019-05-04T07:01:40Z</time>
      </trkpt>
      <trkpt lat="40.4330340" lon="-3.7550010">
        <ele>653.2</ele>
        <time>2019-05-04T07:01:41Z</time>
      </trkpt>
      <trkpt lat="40.4330430" lon="-3.7550640">
        <ele>653.4</ele>
        <time>2019-05-04T07:01:42Z</time>
      </trkpt>
      <trkpt lat="40.4330560" lon="-3.7551270">
        <ele>653.5</ele>
        <time>2019-05-04T07:01:43Z</time>
      </trkpt>
      <trkpt lat="40.4330710" lon="-3.7551920">
        <ele>653.6</ele>
        <time>2019-05-04T07:01:44Z</time>
      </trkpt>
      <trkpt lat="40.4330870" lon="-3.7552570">
        <ele>653.8</ele>
        <time>2019-05-04T07:01:45Z</time>
      </trkpt>
      <trkpt lat="40.4331010" lon="-3.7553240">
        <ele>654.0</ele>
        <time>2019-05-04T07:01:46Z</time>
      </trkpt>
      <trkpt lat="40.4331150" lon="-3.7553940">
        <ele>654.4</ele>
        <time>2019-05-04T07:01:47Z</time>
      </trkpt>
      <trkpt lat="40.4331290" lon="-3.7554660">
        <ele>654.7</ele>
        <time>2019-05-04T07:01:48Z</time>
      </trkpt>
      <trkpt lat="40.4331440" lon="-3.7555370">
        <ele>654.9</ele>
        <time>2019-05-04T07:01:49Z</time>
      </trkpt>
      <trkpt lat="40.4331570" lon="-3.7556040">
        <ele>655.1</ele>
        <time>2019-05-04T07:01:50Z</time>
      </trkpt>
      <trkpt lat="40.4331700" lon="-3.7556710">
        <ele>655.3</ele>
        <time>2019-05-04T07:01:51Z</time>
      </trkpt>
      <trkpt lat="40.4331840" lon="-3.7557370">
        <ele>655.5</ele>
        <time>2019-05-04T07:01:52Z</time>
      </trkpt>
      <trkpt lat="40.4332000" lon="-3.7558040">
        <ele>655.6</ele>
        <time>2019-05-04T07:01:53Z</time>
      </trkpt>
      <trkpt lat="40.4332160" lon="-3.7558700">
        <ele>655.8</ele>
        <time>2019-05-04T07:01:54Z</time>
      </trkpt>
      <trkpt lat="40.4332340" lon="-3.7559370">
        <ele>656.0</ele>
        <time>2019-05-04T07:01:55Z</time>
      </trkpt>
      <trkpt lat="40.4332500" lon="-3.7560040">
        <ele>656.2</ele>
        <time>2019-05-04T07:01:56Z</time>
      </trkpt>
      <trkpt lat="40.4332650" lon="-3.7560710">
        <ele>656.3</ele>
        <time>2019-05-04T07:01:57Z</time>
      </trkpt>
      <trkpt lat="40.4332790" lon="-3.7561390">
        <ele>656.5</ele>
        <time>2019-05-04T07:01:58Z</time>
      </trkpt>
      <trkpt lat="40.4332940" lon="-3.7562070">
        <ele>656.7</ele>
        <time>2019-05-04T07:01:59Z</time>
      </trkpt>
      <trkpt lat="40.4333060" lon="-3.7562760">
        <ele>656.9</ele>
        <time>2019-05-04T07:02:00Z</time>
      </trkpt>
      <trkpt lat="40.4333160" lon="-3.7563450">
        <ele>657.1</ele>
        <time>2019-05-04T07:02:01Z</time>
      </trkpt>
      <trkpt lat="40.4333240" lon="-3.7564150">
        <ele>657.2</ele>
        <time>2019-05-04T07:02:02Z</time>
      </trkpt>
      <trkpt lat="40.4333340" lon="-3.7564850">
        <ele>657.4</ele>
        <time>2019-05-04T07:02:03Z</time>
      </trkpt>
      <trkpt lat="40.4333430" lon="-3.7565550">
        <ele>657.6</ele>
        <time>2019-05-04T07:02:04Z</time>
      </trkpt>
      <trkpt lat="40.4333510" lon="-3.7566240">
        <ele>657.8</ele>
        <time>2019-05-04T07:02:05Z</time>
      </trkpt>
      <trkpt lat="40.4333580" lon="-3.7566930">
        <ele>658.0</ele>
        <time>2019-05-04T07:02:06Z</time>
      </trkpt>
      <trkpt lat="40.4333660" lon="-3.7567630">
        <ele>658.2</ele>
        <time>2019-05-04T07:02:07Z</time>
      </trkpt>
      <trkpt lat="40.4333750" lon="-3.7568330">
        <ele>658.4</ele>
        <time>2019-05-04T07:02:08Z</time>
      </trkpt>
      <trkpt lat="40.4333860" lon="-3.7569050">
        <ele>658.6</ele>
        <time>2019-05-04T07:02:09Z</time>
      </trkpt>
      <trkpt lat="40.4333970" lon="-3.7569770">
        <ele>658.9</ele>
        <time>2019-05-04T07:02:10Z</time>
      </trkpt>
      <trkpt lat="40.4334060" lon="-3.7570490">
        <ele>659.1</ele>
        <time>2019-05-04T07:02:11Z</time>
      </trkpt>
      <trkpt lat="40.4334150" lon="-3.7571200">
        <ele>659.3</ele>
        <time>2019-05-04T07:02:12Z</time>
      </trkpt>
      <trkpt lat="40.4334230" lon="-3.7571900">
        <ele>659.5</ele>
        <time>2019-05-04T07:02:13Z</time>
      </trkpt>
      <trkpt lat="40.4334310" lon="-3.7572600">
        <ele>659.7</ele>
        <time>2019-05-04T07:02:14Z</time>
      </trkpt>
      <trkpt lat="40.4334390" lon="-3.7573290">
        <ele>659.9</ele>
        <time>2019-05-04T07:02:15Z</time>
      </trkpt>
      <trkpt lat="40.4334450" lon="-3.7573980">
        <ele>660.1</ele>
        <time>2019-05-04T07:02:16Z</time>
      </trkpt>
      <trkpt lat="40.4334490" lon="-3.7574660">
        <ele>660.3</ele>
        <time>2019-05-04T07:02:17Z</time>
      </trkpt>
      <trkpt lat="40.4334520" lon="-3.7575330">
        <ele>660.5</ele>
        <time>2019-05-04T07:02:18Z</time>
      </trkpt>
      <trkpt lat="40.4334550" lon="-3.7575980">
        <ele>660.7</ele>
        <time>2019-05-04T07:02:19Z</time>
      </trkpt>
      <trkpt lat="40.4334540" lon="-3.7576630">
        <ele>660.9</ele>
        <time>2019-05-04T07:02:20Z</time>
      </trkpt>
      <trkpt lat="40.4334480" lon="-3.7577290">
        <ele>661.1</ele>
        <time>2019-05-04T07:02:21Z</time>
      </trkpt>
      <trkpt lat="40.4334410" lon="-3.7577940">
        <ele>661.3</ele>
        <time>2019-05-04T07:02:22Z</time>
      </trkpt>
      <trkpt lat="40.4334360" lon="-3.7578590">
        <ele>661.5</ele>
        <time>2019-05-04T07:02:23Z</time>
      </trkpt>
      <trkpt lat="40.4334340" lon="-3.7579230">
        <ele>661.7</ele>
        <time>2019-05-04T07:02:24Z</time>
      </trkpt>
      <trkpt lat="40.4334310" lon="-3.7579870">
        <ele>661.9</ele>
        <time>2019-05-04T07:02:25Z</time>
      </trkpt>
      <trkpt lat="40.4334280" lon="-3.7580510">
        <ele>662.0</ele>
        <time>2019-05-04T07:02:26Z</time>
      </trkpt>
      <trkpt lat="40.4334240" lon="-3.7581140">
        <ele>662.2</ele>
        <time>2019-05-04T07:02:27Z</time>
      </trkpt>
      <trkpt lat="40.4334210" lon="-3.7581770">
        <ele>662.4</ele>
        <time>2019-05-04T07:02:28Z</time>
      </trkpt>
      <trkpt lat="40.4334200" lon="-3.7582400">
        <ele>662.5</ele>
        <time>2019-05-04T07:02:29Z</time>
      </trkpt>
      <trkpt lat="40.4334180" lon="-3.7583050">
        <ele>662.7</ele>
        <time>2019-05-04T07:02:30Z</time>
      </trkpt>
      <trkpt lat="40.4334140" lon="-3.7583710">
        <ele>662.9</ele>
        <time>2019-05-04T07:02:31Z</time>
      </trkpt>
      <trkpt lat="40.4334090" lon="-3.7584380">
        <ele>663.1</ele>
        <time>2019-05-04T07:02:32Z</time>
      </trkpt>
      <trkpt lat="40.4334050" lon="-3.7585040">
        <ele>663.3</ele>
        <time>2019-05-04T07:02:33Z</time>
      </trkpt>
      <trkpt lat="40.4334020" lon="-3.7585690">
        <ele>663.5</ele>
        <time>2019-05-04T07:02:34Z</time>
      </trkpt>
      <trkpt lat="40.4333980" lon="-3.7586330">
        <ele>663.7</ele>
        <time>2019-05-04T07:02:35Z</time>
      </trkpt>
      <trkpt lat="40.4333930" lon="-3.7586970">
        <ele>663.9</ele>
        <time>2019-05-04T07:02:36Z</time>
      </trkpt>
      <trkpt lat="40.4333870" lon="-3.7587610">
        <ele>664.1</ele>
        <time>2019-05-04T07:02:37Z</time>
      </trkpt>
      <trkpt lat="40.4333820" lon="-3.7588260">
        <ele>664.3</ele>
        <time>2019-05-04T07:02:38Z</time>
      </trkpt>
      <trkpt lat="40.4333750" lon="-3.7588910">
        <ele>664.5</ele>
        <time>2019-05-04T07:02:39Z</time>
      </trkpt>
      <trkpt lat="40.4333670" lon="-3.7589570">
        <ele>664.7</ele>
        <time>2019-05-04T07:02:40Z</time>
      </trkpt>
      <trkpt lat="40.4333560" lon="-3.7590210">
        <ele>664.9</ele>
        <time>2019-05-04T07:02:41Z</time>
      </trkpt>
      <trkpt lat="40.4333450" lon="-3.7590820">
        <ele>665.1</ele>
        <time>2019-05-04T07:02:42Z</time>
      </trkpt>
      <trkpt lat="40.4333320" lon="-3.7591450">
        <ele>665.3</ele>
        <time>2019-05-04T07:02:43Z</time>
      </trkpt>
      <trkpt lat="40.4333210" lon="-3.7592100">
        <ele>665.5</ele>
        <time>2019-05-04T07:02:44Z</time>
      </trkpt>
      <trkpt lat="40.4333090" lon="-3.7592770">
        <ele>665.8</ele>
        <time>2019-05-04T07:02:45Z</time>
      </trkpt>
      <trkpt lat="40.4332980" lon="-3.7593420">
        <ele>666.1</ele>
        <time>2019-05-04T07:02:46Z</time>
      </trkpt>
      <trkpt lat="40.4332880" lon="-3.7594070">
        <ele>666.0</ele>
        <time>2019-05-04T07:02:47Z</time>
      </trkpt>
      <trkpt lat="40.4332780" lon="-3.7594710">
        <ele>665.9</ele>
        <time>2019-05-04T07:02:48Z</time>
      </trkpt>
      <trkpt lat="40.4332660" lon="-3.7595360">
        <ele>665.9</ele>
        <time>2019-05-04T07:02:49Z</time>
      </trkpt>
      <trkpt lat="40.4332530" lon="-3.7596000">
        <ele>665.8</ele>
        <time>2019-05-04T07:02:50Z</time>
      </trkpt>
      <trkpt lat="40.4332370" lon="-3.7596600">
        <ele>665.8</ele>
        <time>2019-05-04T07:02:51Z</time>
      </trkpt>
      <trkpt lat="40.4332140" lon="-3.7597160">
        <ele>665.7</ele>
        <time>2019-05-04T07:02:52Z</time>
      </trkpt>
      <trkpt lat="40.4331850" lon="-3.7597640">
        <ele>665.7</ele>
        <time>2019-05-04T07:02:53Z</time>
      </trkpt>
      <trkpt lat="40.4331530" lon="-3.7598080">
        <ele>665.7</ele>
        <time>2019-05-04T07:02:54Z</time>
      </trkpt>
      <trkpt lat="40.4331120" lon="-3.7598510">
        <ele>665.7</ele>
        <time>2019-05-04T07:02:55Z</time>
      </trkpt>
      <trkpt lat="40.4330650" lon="-3.7598900">
        <ele>665.8</ele>
        <time>2019-05-04T07:02:56Z</time>
      </trkpt>
      <trkpt lat="40.4330120" lon="-3.7599280">
        <ele>665.8</ele>
        <time>2019-05-04T07:02:57Z</time>
      </trkpt>
      <trkpt lat="40.4329630" lon="-3.7599620">
        <ele>665.9</ele>
        <time>2019-05-04T07:02:58Z</time>
      </trkpt>
      <trkpt lat="40.4329150" lon="-3.7599960">
        <ele>666.4</ele>
        <time>2019-05-04T07:02:59Z</time>
      </trkpt>
      <trkpt lat="40.4328680" lon="-3.7600270">
        <ele>666.9</ele>
        <time>2019-05-04T07:03:00Z</time>
      </trkpt>
      <trkpt lat="40.4328220" lon="-3.7600550">
        <ele>667.3</ele>
        <time>2019-05-04T07:03:01Z</time>
      </trkpt>
      <trkpt lat="40.4327770" lon="-3.7600830">
        <ele>667.6</ele>
        <time>2019-05-04T07:03:02Z</time>
      </trkpt>
      <trkpt lat="40.4327330" lon="-3.7601070">
        <ele>667.9</ele>
        <time>2019-05-04T07:03:03Z</time>
      </trkpt>
      <trkpt lat="40.4326860" lon="-3.7601300">
        <ele>668.1</ele>
        <time>2019-05-04T07:03:04Z</time>
      </trkpt>
      <trkpt lat="40.4326370" lon="-3.7601510">
        <ele>668.3</ele>
        <time>2019-05-04T07:03:05Z</time>
      </trkpt>
      <trkpt lat="40.4325850" lon="-3.7601700">
        <ele>668.4</ele>
        <time>2019-05-04T07:03:06Z</time>
      </trkpt>
      <trkpt lat="40.4325320" lon="-3.7601890">
        <ele>668.5</ele>
        <time>2019-05-04T07:03:07Z</time>
      </trkpt>
      <trkpt lat="40.4324780" lon="-3.7602050">
        <ele>668.5</ele>
        <time>2019-05-04T07:03:08Z</time>
      </trkpt>
      <trkpt lat="40.4324240" lon="-3.7602200">
        <ele>668.5</ele>
        <time>2019-05-04T07:03:09Z</time>
      </trkpt>
      <trkpt lat="40.4323680" lon="-3.7602360">
        <ele>668.5</ele>
        <time>2019-05-04T07:03:10Z</time>
      </trkpt>
      <trkpt lat="40.4323070" lon="-3.7602530">
        <ele>668.5</ele>
        <time>2019-05-04T07:03:11Z</time>
      </trkpt>
      <trkpt lat="40.4322380" lon="-3.7602700">
        <ele>668.5</ele>
        <time>2019-05-04T07:03:12Z</time>
      </trkpt>
      <trkpt lat="40.4321680" lon="-3.7602840">
        <ele>668.5</ele>
        <time>2019-05-04T07:03:13Z</time>
      </trkpt>
      <trkpt lat="40.4320970" lon="-3.7602980">
        <ele>668.5</ele>
        <time>2019-05-04T07:03:14Z</time>
      </trkpt>
      <trkpt lat="40.4320300" lon="-3.7603100">
        <ele>668.5</ele>
        <time>2019-05-04T07:03:15Z</time>
      </trkpt>
      <trkpt lat="40.4319630" lon="-3.7603230">
        <ele>668.5</ele>
        <time>2019-05-04T07:03:16Z</time>
      </trkpt>
      <trkpt lat="40.4318970" lon="-3.7603340">
        <ele>668.5</ele>
        <time>2019-05-04T07:03:17Z</time>
      </trkpt>
      <trkpt lat="40.4318320" lon="-3.7603420">
        <ele>668.6</ele>
        <time>2019-05-04T07:03:18Z</time>
      </trkpt>
      <trkpt lat="40.4317680" lon="-3.7603450">
        <ele>668.7</ele>
        <time>2019-05-04T07:03:19Z</time>
      </trkpt>
      <trkpt lat="40.4317080" lon="-3.7603380">
        <ele>668.7</ele>
        <time>2019-05-04T07:03:20Z</time>
      </trkpt>
      <trkpt lat="40.4316480" lon="-3.7603200">
        <ele>668.3</ele>
        <time>2019-05-04T07:03:21Z</time>
      </trkpt>
      <trkpt lat="40.4315920" lon="-3.7602870">
        <ele>668.1</ele>
        <time>2019-05-04T07:03:22Z</time>
      </trkpt>
      <trkpt lat="40.4315350" lon="-3.7602420">
        <ele>667.9</ele>
        <time>2019-05-04T07:03:23Z</time>
      </trkpt>
      <trkpt lat="40.4314880" lon="-3.7601840">
        <ele>667.8</ele>
        <time>2019-05-04T07:03:24Z</time>
      </trkpt>
      <trkpt lat="40.4314480" lon="-3.7601220">
        <ele>667.7</ele>
        <time>2019-05-04T07:03:25Z</time>
      </trkpt>
      <trkpt lat="40.4314100" lon="-3.7600590">
        <ele>667.6</ele>
        <time>2019-05-04T07:03:26Z</time>
      </trkpt>
      <trkpt lat="40.4313690" lon="-3.7599990">
        <ele>667.5</ele>
        <time>2019-05-04T07:03:27Z</time>
      </trkpt>
      <trkpt lat="40.4313240" lon="-3.7599400">
        <ele>667.3</ele>
        <time>2019-05-04T07:03:28Z</time>
      </trkpt>
      <trkpt lat="40.4312800" lon="-3.7598800">
        <ele>667.2</ele>
        <time>2019-05-04T07:03:29Z</time>
      </trkpt>
      <trkpt lat="40.4312350" lon="-3.7598200">
        <ele>667.0</ele>
        <time>2019-05-04T07:03:30Z</time>
      </trkpt>
      <trkpt lat="40.4311910" lon="-3.7597580">
        <ele>666.9</ele>
        <time>2019-05-04T07:03:31Z</time>
      </trkpt>
      <trkpt lat="40.4311470" lon="-3.7596950">
        <ele>666.9</ele>
        <time>2019-05-04T07:03:32Z</time>
      </trkpt>
      <trkpt lat="40.4311050" lon="-3.7596310">
        <ele>666.8</ele>
        <time>2019-05-04T07:03:33Z</time>
      </trkpt>
      <trkpt lat="40.4310630" lon="-3.7595680">
        <ele>666.8</ele>
        <time>2019-05-04T07:03:34Z</time>
      </trkpt>
      <trkpt lat="40.4310210" lon="-3.7595060">
        <ele>666.8</ele>
        <time>2019-05-04T07:03:35Z</time>
      </trkpt>
      <trkpt lat="40.4309780" lon="-3.7594440">
        <ele>666.8</ele>
        <time>2019-05-04T07:03:36Z</time>
      </trkpt>
      <trkpt lat="40.4309340" lon="-3.7593820">
        <ele>666.6</ele>
        <time>2019-05-04T07:03:37Z</time>
      </trkpt>
      <trkpt lat="40.4308910" lon="-3.7593210">
        <ele>666.4</ele>
        <time>2019-05-04T07:03:38Z</time>
      </trkpt>
      <trkpt lat="40.4308490" lon="-3.7592610">
        <ele>666.2</ele>
        <time>2019-05-04T07:03:39Z</time>
      </trkpt>
      <trkpt lat="40.4308050" lon="-3.7592000">
        <ele>666.0</ele>
        <time>2019-05-04T07:03:40Z</time>
      </trkpt>
      <trkpt lat="40.4307610" lon="-3.7591370">
        <ele>665.7</ele>
        <time>2019-05-04T07:03:41Z</time>
      </trkpt>
      <trkpt lat="40.4307170" lon="-3.7590730">
        <ele>665.4</ele>
        <time>2019-05-04T07:03:42Z</time>
      </trkpt>
      <trkpt lat="40.4306750" lon="-3.7590090">
        <ele>665.4</ele>
        <time>2019-05-04T07:03:43Z</time>
      </trkpt>
      <trkpt lat="40.4306360" lon="-3.7589460">
        <ele>665.4</ele>
        <time>2019-05-04T07:03:44Z</time>
      </trkpt>
      <trkpt lat="40.4305950" lon="-3.7588850">
        <ele>665.4</ele>
        <time>2019-05-04T07:03:45Z</time>
      </trkpt>
      <trkpt lat="40.4305520" lon="-3.7588270">
        <ele>665.4</ele>
        <time>2019-05-04T07:03:46Z</time>
      </trkpt>
      <trkpt lat="40.4305070" lon="-3.7587720">
        <ele>665.4</ele>
        <time>2019-05-04T07:03:47Z</time>
      </trkpt>
      <trkpt lat="40.4304600" lon="-3.7587210">
        <ele>665.4</ele>
        <time>2019-05-04T07:03:48Z</time>
      </trkpt>
      <trkpt lat="40.4304100" lon="-3.7586730">
        <ele>665.4</ele>
        <time>2019-05-04T07:03:49Z</time>
      </trkpt>
      <trkpt lat="40.4303560" lon="-3.7586280">
        <ele>665.4</ele>
        <time>2019-05-04T07:03:50Z</time>
      </trkpt>
      <trkpt lat="40.4302990" lon="-3.7585840">
        <ele>665.4</ele>
        <time>2019-05-04T07:03:51Z</time>
      </trkpt>
      <trkpt lat="40.4302390" lon="-3.7585420">
        <ele>665.3</ele>
        <time>2019-05-04T07:03:52Z</time>
      </trkpt>
      <trkpt lat="40.4301760" lon="-3.7585020">
        <ele>665.3</ele>
        <time>2019-05-04T07:03:53Z</time>
      </trkpt>
      <trkpt lat="40.4301110" lon="-3.7584640">
        <ele>665.3</ele>
        <time>2019-05-04T07:03:54Z</time>
      </trkpt>
      <trkpt lat="40.4300440" lon="-3.7584270">
        <ele>665.2</ele>
        <time>2019-05-04T07:03:55Z</time>
      </trkpt>
      <trkpt lat="40.4299740" lon="-3.7583940">
        <ele>665.0</ele>
        <time>2019-05-04T07:03:56Z</time>
      </trkpt>
      <trkpt lat="40.4298960" lon="-3.7583620">
        <ele>664.6</ele>
        <time>2019-05-04T07:03:57Z</time>
      </trkpt>
      <trkpt lat="40.4298090" lon="-3.7583340">
        <ele>664.0</ele>
        <time>2019-05-04T07:03:58Z</time>
      </trkpt>
      <trkpt lat="40.4297180" lon="-3.7583070">
        <ele>663.3</ele>
        <time>2019-05-04T07:03:59Z</time>
      </trkpt>
      <trkpt lat="40.4296270" lon="-3.7582830">
        <ele>662.5</ele>
        <time>2019-05-04T07:04:00Z</time>
      </trkpt>
      <trkpt lat="40.4295350" lon="-3.7582600">
        <ele>661.9</ele>
        <time>2019-05-04T07:04:01Z</time>
      </trkpt>
      <trkpt lat="40.4294440" lon="-3.7582350">
        <ele>661.5</ele>
        <time>2019-05-04T07:04:02Z</time>
      </trkpt>
      <trkpt lat="40.4293500" lon="-3.7582060">
        <ele>661.0</ele>
        <time>2019-05-04T07:04:03Z</time>
      </trkpt>
      <trkpt lat="40.4292590" lon="-3.7581690">
        <ele>660.3</ele>
        <time>2019-05-04T07:04:04Z</time>
      </trkpt>
      <trkpt lat="40.4291700" lon="-3.7581250">
        <ele>659.8</ele>
        <time>2019-05-04T07:04:05Z</time>
      </trkpt>
      <trkpt lat="40.4290810" lon="-3.7580740">
        <ele>659.2</ele>
        <time>2019-05-04T07:04:06Z</time>
      </trkpt>
      <trkpt lat="40.4289910" lon="-3.7580150">
        <ele>658.7</ele>
        <time>2019-05-04T07:04:07Z</time>
      </trkpt>
      <trkpt lat="40.4288960" lon="-3.7579510">
        <ele>658.3</ele>
        <time>2019-05-04T07:04:08Z</time>
      </trkpt>
      <trkpt lat="40.4287990" lon="-3.7578820">
        <ele>658.0</ele>
        <time>2019-05-04T07:04:09Z</time>
      </trkpt>
      <trkpt lat="40.4286980" lon="-3.7578130">
        <ele>657.8</ele>
        <time>2019-05-04T07:04:10Z</time>
      </trkpt>
      <trkpt lat="40.4285960" lon="-3.7577410">
        <ele>657.4</ele>
        <time>2019-05-04T07:04:11Z</time>
      </trkpt>
      <trkpt lat="40.4284950" lon="-3.7576680">
        <ele>657.1</ele>
        <time>2019-05-04T07:04:12Z</time>
      </trkpt>
      <trkpt lat="40.4283960" lon="-3.7575940">
        <ele>656.5</ele>
        <time>2019-05-04T07:04:13Z</time>
      </trkpt>
      <trkpt lat="40.4282980" lon="-3.7575250">
        <ele>655.7</ele>
        <time>2019-05-04T07:04:14Z</time>
      </trkpt>
      <trkpt lat="40.4282000" lon="-3.7574640">
        <ele>654.6</ele>
        <time>2019-05-04T07:04:15Z</time>
      </trkpt>
      <trkpt lat="40.4280940" lon="-3.7574170">
        <ele>653.6</ele>
        <time>2019-05-04T07:04:16Z</time>
      </trkpt>
      <trkpt lat="40.4279780" lon="-3.7573920">
        <ele>652.7</ele>
        <time>2019-05-04T07:04:17Z</time>
      </trkpt>
      <trkpt lat="40.4278500" lon="-3.7574000">
        <ele>651.2</ele>
        <time>2019-05-04T07:04:18Z</time>
      </trkpt>
      <trkpt lat="40.4277270" lon="-3.7574470">
        <ele>648.9</ele>
        <time>2019-05-04T07:04:19Z</time>
      </trkpt>
      <trkpt lat="40.4276110" lon="-3.7575080">
        <ele>647.4</ele>
        <time>2019-05-04T07:04:20Z</time>
      </trkpt>
      <trkpt lat="40.4275030" lon="-3.7575670">
        <ele>647.3</ele>
        <time>2019-05-04T07:04:21Z</time>
      </trkpt>
      <trkpt lat="40.4273970" lon="-3.7576120">
        <ele>647.2</ele>
        <time>2019-05-04T07:04:22Z</time>
      </trkpt>
      <trkpt lat="40.4272950" lon="-3.7576560">
        <ele>647.3</ele>
        <time>2019-05-04T07:04:23Z</time>
      </trkpt>
      <trkpt lat="40.4271960" lon="-3.7576980">
        <ele>647.2</ele>
        <time>2019-05-04T07:04:24Z</time>
      </trkpt>
      <trkpt lat="40.4271000" lon="-3.7577380">
        <ele>646.5</ele>
        <time>2019-05-04T07:04:25Z</time>
      </trkpt>
      <trkpt lat="40.4270100" lon="-3.7577770">
        <ele>646.1</ele>
        <time>2019-05-04T07:04:26Z</time>
      </trkpt>
      <trkpt lat="40.4269220" lon="-3.7578130">
        <ele>645.7</ele>
        <time>2019-05-04T07:04:27Z</time>
      </trkpt>
      <trkpt lat="40.4268390" lon="-3.7578460">
        <ele>645.5</ele>
        <time>2019-05-04T07:04:28Z</time>
      </trkpt>
      <trkpt lat="40.4267550" lon="-3.7578780">
        <ele>645.3</ele>
        <time>2019-05-04T07:04:29Z</time>
      </trkpt>
      <trkpt lat="40.4266740" lon="-3.7579080">
        <ele>645.2</ele>
        <time>2019-05-04T07:04:30Z</time>
      </trkpt>
      <trkpt lat="40.4265950" lon="-3.7579370">
        <ele>645.2</ele>
        <time>2019-05-04T07:04:31Z</time>
      </trkpt>
      <trkpt lat="40.4265160" lon="-3.7579640">
        <ele>645.3</ele>
        <time>2019-05-04T07:04:32Z</time>
      </trkpt>
      <trkpt lat="40.4264400" lon="-3.7579850">
        <ele>645.5</ele>
        <time>2019-05-04T07:04:33Z</time>
      </trkpt>
      <trkpt lat="40.4263660" lon="-3.7580010">
        <ele>645.9</ele>
        <time>2019-05-04T07:04:34Z</time>
      </trkpt>
      <trkpt lat="40.4262970" lon="-3.7580140">
        <ele>646.3</ele>
        <time>2019-05-04T07:04:35Z</time>
      </trkpt>
      <trkpt lat="40.4262250" lon="-3.7580240">
        <ele>646.8</ele>
        <time>2019-05-04T07:04:36Z</time>
      </trkpt>
      <trkpt lat="40.4261510" lon="-3.7580300">
        <ele>647.5</ele>
        <time>2019-05-04T07:04:37Z</time>
      </trkpt>
      <trkpt lat="40.4260740" lon="-3.7580360">
        <ele>648.4</ele>
        <time>2019-05-04T07:04:38Z</time>
      </trkpt>
      <trkpt lat="40.4259960" lon="-3.7580410">
        <ele>649.2</ele>
        <time>2019-05-04T07:04:39Z</time>
      </trkpt>
      <trkpt lat="40.4259190" lon="-3.7580480">
        <ele>649.6</ele>
        <time>2019-05-04T07:04:40Z</time>
      </trkpt>
      <trkpt lat="40.4258400" lon="-3.7580530">
        <ele>650.1</ele>
        <time>2019-05-04T07:04:41Z</time>
      </trkpt>
      <trkpt lat="40.4257610" lon="-3.7580590">
        <ele>650.5</ele>
        <time>2019-05-04T07:04:42Z</time>
      </trkpt>
      <trkpt lat="40.4256810" lon="-3.7580650">
        <ele>650.9</ele>
        <time>2019-05-04T07:04:43Z</time>
      </trkpt>
      <trkpt lat="40.4256020" lon="-3.7580730">
        <ele>651.3</ele>
        <time>2019-05-04T07:04:44Z</time>
      </trkpt>
      <trkpt lat="40.4255210" lon="-3.7580840">
        <ele>651.7</ele>
        <time>2019-05-04T07:04:45Z</time>
      </trkpt>
      <trkpt lat="40.4254380" lon="-3.7580960">
        <ele>652.0</ele>
        <time>2019-05-04T07:04:46Z</time>
      </trkpt>
      <trkpt lat="40.4253570" lon="-3.7581100">
        <ele>652.3</ele>
        <time>2019-05-04T07:04:47Z</time>
      </trkpt>
      <trkpt lat="40.4252740" lon="-3.7581300">
        <ele>652.6</ele>
        <time>2019-05-04T07:04:48Z</time>
      </trkpt>
      <trkpt lat="40.4251930" lon="-3.7581550">
        <ele>652.9</ele>
        <time>2019-05-04T07:04:49Z</time>
      </trkpt>
      <trkpt lat="40.4251120" lon="-3.7581840">
        <ele>653.2</ele>
        <time>2019-05-04T07:04:50Z</time>
      </trkpt>
      <trkpt lat="40.4250340" lon="-3.7582140">
        <ele>653.4</ele>
        <time>2019-05-04T07:04:51Z</time>
      </trkpt>
      <trkpt lat="40.4249570" lon="-3.7582440">
        <ele>653.6</ele>
        <time>2019-05-04T07:04:52Z</time>
      </trkpt>
      <trkpt lat="40.4248840" lon="-3.7582730">
        <ele>653.8</ele>
        <time>2019-05-04T07:04:53Z</time>
      </trkpt>
      <trkpt lat="40.4248150" lon="-3.7582990">
        <ele>654.0</ele>
        <time>2019-05-04T07:04:54Z</time>
      </trkpt>
      <trkpt lat="40.4247510" lon="-3.7583240">
        <ele>654.2</ele>
        <time>2019-05-04T07:04:55Z</time>
      </trkpt>
      <trkpt lat="40.4246900" lon="-3.7583490">
        <ele>654.4</ele>
        <time>2019-05-04T07:04:56Z</time>
      </trkpt>
      <trkpt lat="40.4246320" lon="-3.7583750">
        <ele>654.5</ele>
        <time>2019-05-04T07:04:57Z</time>
      </trkpt>
      <trkpt lat="40.4245760" lon="-3.7583990">
        <ele>654.7</ele>
        <time>2019-05-04T07:04:58Z</time>
      </trkpt>
      <trkpt lat="40.4245240" lon="-3.7584200">
        <ele>654.9</ele>
        <time>2019-05-04T07:04:59Z</time>
      </trkpt>
      <trkpt lat="40.4244760" lon="-3.7584360">
        <ele>655.1</ele>
        <time>2019-05-04T07:05:00Z</time>
      </trkpt>
      <trkpt lat="40.4244290" lon="-3.7584480">
        <ele>655.2</ele>
        <time>2019-05-04T07:05:01Z</time>
      </trkpt>
      <trkpt lat="40.4243820" lon="-3.7584570">
        <ele>655.4</ele>
        <time>2019-05-04T07:05:02Z</time>
      </trkpt>
      <trkpt lat="40.4243350" lon="-3.7584660">
        <ele>655.6</ele>
        <time>2019-05-04T07:05:03Z</time>
      </trkpt>
      <trkpt lat="40.4242890" lon="-3.7584740">
        <ele>655.8</ele>
        <time>2019-05-04T07:05:04Z</time>
      </trkpt>
      <trkpt lat="40.4242440" lon="-3.7584810">
        <ele>655.9</ele>
        <time>2019-05-04T07:05:05Z</time>
      </trkpt>
      <trkpt lat="40.4242000" lon="-3.7584870">
        <ele>656.1</ele>
        <time>2019-05-04T07:05:06Z</time>
      </trkpt>
      <trkpt lat="40.4241540" lon="-3.7584920">
        <ele>656.3</ele>
        <time>2019-05-04T07:05:07Z</time>
      </trkpt>
      <trkpt lat="40.4241080" lon="-3.7584970">
        <ele>656.4</ele>
        <time>2019-05-04T07:05:08Z</time>
      </trkpt>
      <trkpt lat="40.4240620" lon="-3.7585020">
        <ele>656.6</ele>
        <time>2019-05-04T07:05:09Z</time>
      </trkpt>
      <trkpt lat="40.4240160" lon="-3.7585090">
        <ele>656.9</ele>
        <time>2019-05-04T07:05:10Z</time>
      </trkpt>
      <trkpt lat="40.4239690" lon="-3.7585160">
        <ele>657.3</ele>
        <time>2019-05-04T07:05:11Z</time>
      </trkpt>
      <trkpt lat="40.4239240" lon="-3.7585220">
        <ele>657.8</ele>
        <time>2019-05-04T07:05:12Z</time>
      </trkpt>
      <trkpt lat="40.4238780" lon="-3.7585280">
        <ele>658.0</ele>
        <time>2019-05-04T07:05:13Z</time>
      </trkpt>
      <trkpt lat="40.4238320" lon="-3.7585340">
        <ele>658.3</ele>
        <time>2019-05-04T07:05:14Z</time>
      </trkpt>
      <trkpt lat="40.4237860" lon="-3.7585390">
        <ele>658.6</ele>
        <time>2019-05-04T07:05:15Z</time>
      </trkpt>
      <trkpt lat="40.4237380" lon="-3.7585460">
        <ele>658.8</ele>
        <time>2019-05-04T07:05:16Z</time>
      </trkpt>
      <trkpt lat="40.4236920" lon="-3.7585520">
        <ele>659.0</ele>
        <time>2019-05-04T07:05:17Z</time>
      </trkpt>
      <trkpt lat="40.4236470" lon="-3.7585570">
        <ele>659.2</ele>
        <time>2019-05-04T07:05:18Z</time>
      </trkpt>
      <trkpt lat="40.4236020" lon="-3.7585620">
        <ele>659.3</ele>
        <time>2019-05-04T07:05:19Z</time>
      </trkpt>
      <trkpt lat="40.4235560" lon="-3.7585660">
        <ele>659.5</ele>
        <time>2019-05-04T07:05:20Z</time>
      </trkpt>
      <trkpt lat="40.4235110" lon="-3.7585700">
        <ele>659.7</ele>
        <time>2019-05-04T07:05:21Z</time>
      </trkpt>
      <trkpt lat="40.4234650" lon="-3.7585730">
        <ele>660.0</ele>
        <time>2019-05-04T07:05:22Z</time>
      </trkpt>
      <trkpt lat="40.4234210" lon="-3.7585740">
        <ele>660.0</ele>
        <time>2019-05-04T07:05:23Z</time>
      </trkpt>
      <trkpt lat="40.4233780" lon="-3.7585730">
        <ele>660.1</ele>
        <time>2019-05-04T07:05:24Z</time>
      </trkpt>
      <trkpt lat="40.4233380" lon="-3.7585700">
        <ele>660.1</ele>
        <time>2019-05-04T07:05:25Z</time>
      </trkpt>
      <trkpt lat="40.4232980" lon="-3.7585680">
        <ele>660.2</ele>
        <time>2019-05-04T07:05:26Z</time>
      </trkpt>
      <trkpt lat="40.4232580" lon="-3.7585660">
        <ele>660.2</ele>
        <time>2019-05-04T07:05:27Z</time>
      </trkpt>
      <trkpt lat="40.4232140" lon="-3.7585660">
        <ele>660.3</ele>
        <time>2019-05-04T07:05:28Z</time>
      </trkpt>
      <trkpt lat="40.4231680" lon="-3.7585660">
        <ele>660.2</ele>
        <time>2019-05-04T07:05:29Z</time>
      </trkpt>
      <trkpt lat="40.4231200" lon="-3.7585660">
        <ele>660.1</ele>
        <time>2019-05-04T07:05:30Z</time>
      </trkpt>
      <trkpt lat="40.4230690" lon="-3.7585660">
        <ele>660.1</ele>
        <time>2019-05-04T07:05:31Z</time>
      </trkpt>
      <trkpt lat="40.4230160" lon="-3.7585650">
        <ele>659.9</ele>
        <time>2019-05-04T07:05:32Z</time>
      </trkpt>
      <trkpt lat="40.4229580" lon="-3.7585630">
        <ele>659.8</ele>
        <time>2019-05-04T07:05:33Z</time>
      </trkpt>
      <trkpt lat="40.4228970" lon="-3.7585590">
        <ele>659.6</ele>
        <time>2019-05-04T07:05:34Z</time>
      </trkpt>
      <trkpt lat="40.4228330" lon="-3.7585550">
        <ele>659.4</ele>
        <time>2019-05-04T07:05:35Z</time>
      </trkpt>
      <trkpt lat="40.4227680" lon="-3.7585510">
        <ele>659.1</ele>
        <time>2019-05-04T07:05:36Z</time>
      </trkpt>
      <trkpt lat="40.4226990" lon="-3.7585480">
        <ele>658.9</ele>
        <time>2019-05-04T07:05:37Z</time>
      </trkpt>
      <trkpt lat="40.4226260" lon="-3.7585450">
        <ele>658.6</ele>
        <time>2019-05-04T07:05:38Z</time>
      </trkpt>
      <trkpt lat="40.4225490" lon="-3.7585410">
        <ele>658.3</ele>
        <time>2019-05-04T07:05:39Z</time>
      </trkpt>
      <trkpt lat="40.4224700" lon="-3.7585370">
        <ele>658.0</ele>
        <time>2019-05-04T07:05:40Z</time>
      </trkpt>
      <trkpt lat="40.4223920" lon="-3.7585330">
        <ele>657.7</ele>
        <time>2019-05-04T07:05:41Z</time>
      </trkpt>
      <trkpt lat="40.4223130" lon="-3.7585290">
        <ele>657.4</ele>
        <time>2019-05-04T07:05:42Z</time>
      </trkpt>
      <trkpt lat="40.4222310" lon="-3.7585250">
        <ele>657.0</ele>
        <time>2019-05-04T07:05:43Z</time>
      </trkpt>
      <trkpt lat="40.4221470" lon="-3.7585220">
        <ele>656.7</ele>
        <time>2019-05-04T07:05:44Z</time>
      </trkpt>
      <trkpt lat="40.4220600" lon="-3.7585180">
        <ele>656.4</ele>
        <time>2019-05-04T07:05:45Z</time>
      </trkpt>
      <trkpt lat="40.4219740" lon="-3.7585140">
        <ele>656.0</ele>
        <time>2019-05-04T07:05:46Z</time>
      </trkpt>
      <trkpt lat="40.4218890" lon="-3.7585080">
        <ele>655.7</ele>
        <time>2019-05-04T07:05:47Z</time>
      </trkpt>
      <trkpt lat="40.4218020" lon="-3.7585020">
        <ele>655.3</ele>
        <time>2019-05-04T07:05:48Z</time>
      </trkpt>
      <trkpt lat="40.4217150" lon="-3.7584960">
        <ele>654.9</ele>
        <time>2019-05-04T07:05:49Z</time>
      </trkpt>
      <trkpt lat="40.4216260" lon="-3.7584940">
        <ele>654.5</ele>
        <time>2019-05-04T07:05:50Z</time>
      </trkpt>
      <trkpt lat="40.4215360" lon="-3.7584940">
        <ele>654.0</ele>
        <time>2019-05-04T07:05:51Z</time>
      </trkpt>
      <trkpt lat="40.4214460" lon="-3.7584950">
        <ele>653.5</ele>
        <time>2019-05-04T07:05:52Z</time>
      </trkpt>
      <trkpt lat="40.4213560" lon="-3.7584950">
        <ele>653.0</ele>
        <time>2019-05-04T07:05:53Z</time>
      </trkpt>
      <trkpt lat="40.4212670" lon="-3.7584980">
        <ele>652.5</ele>
        <time>2019-05-04T07:05:54Z</time>
      </trkpt>
      <trkpt lat="40.4211750" lon="-3.7585150">
        <ele>652.0</ele>
        <time>2019-05-04T07:05:55Z</time>
      </trkpt>
      <trkpt lat="40.4210790" lon="-3.7585450">
        <ele>651.4</ele>
        <time>2019-05-04T07:05:56Z</time>
      </trkpt>
      <trkpt lat="40.4209770" lon="-3.7585840">
        <ele>650.7</ele>
        <time>2019-05-04T07:05:57Z</time>
      </trkpt>
      <trkpt lat="40.4208750" lon="-3.7586270">
        <ele>650.0</ele>
        <time>2019-05-04T07:05:58Z</time>
      </trkpt>
      <trkpt lat="40.4207720" lon="-3.7586740">
        <ele>649.2</ele>
        <time>2019-05-04T07:05:59Z</time>
      </trkpt>
      <trkpt lat="40.4206730" lon="-3.7587170">
        <ele>648.6</ele>
        <time>2019-05-04T07:06:00Z</time>
      </trkpt>
      <trkpt lat="40.4205730" lon="-3.7587500">
        <ele>647.9</ele>
        <time>2019-05-04T07:06:01Z</time>
      </trkpt>
      <trkpt lat="40.4204730" lon="-3.7587720">
        <ele>647.3</ele>
        <time>2019-05-04T07:06:02Z</time>
      </trkpt>
      <trkpt lat="40.4203700" lon="-3.7587760">
        <ele>646.7</ele>
        <time>2019-05-04T07:06:03Z</time>
      </trkpt>
      <trkpt lat="40.4202630" lon="-3.7587640">
        <ele>646.1</ele>
        <time>2019-05-04T07:06:04Z</time>
      </trkpt>
      <trkpt lat="40.4201520" lon="-3.7587410">
        <ele>645.3</ele>
        <time>2019-05-04T07:06:05Z</time>
      </trkpt>
      <trkpt lat="40.4200390" lon="-3.7587190">
        <ele>644.5</ele>
        <time>2019-05-04T07:06:06Z</time>
      </trkpt>
      <trkpt lat="40.4199300" lon="-3.7586990">
        <ele>643.7</ele>
        <time>2019-05-04T07:06:07Z</time>
      </trkpt>
      <trkpt lat="40.4198220" lon="-3.7586790">
        <ele>642.9</ele>
        <time>2019-05-04T07:06:08Z</time>
      </trkpt>
      <trkpt lat="40.4197160" lon="-3.7586530">
        <ele>642.1</ele>
        <time>2019-05-04T07:06:09Z</time>
      </trkpt>
      <trkpt lat="40.4196150" lon="-3.7586160">
        <ele>641.3</ele>
        <time>2019-05-04T07:06:10Z</time>
      </trkpt>
      <trkpt lat="40.4195150" lon="-3.7585710">
        <ele>640.5</ele>
        <time>2019-05-04T07:06:11Z</time>
      </trkpt>
      <trkpt lat="40.4194160" lon="-3.7585150">
        <ele>639.6</ele>
        <time>2019-05-04T07:06:12Z</time>
      </trkpt>
      <trkpt lat="40.4193160" lon="-3.7584600">
        <ele>638.7</ele>
        <time>2019-05-04T07:06:13Z</time>
      </trkpt>
      <trkpt lat="40.4192160" lon="-3.7584120">
        <ele>637.7</ele>
        <time>2019-05-04T07:06:14Z</time>
      </trkpt>
      <trkpt lat="40.4191180" lon="-3.7583840">
        <ele>636.7</ele>
        <time>2019-05-04T07:06:15Z</time>
      </trkpt>
      <trkpt lat="40.4190200" lon="-3.7583760">
        <ele>635.7</ele>
        <time>2019-05-04T07:06:16Z</time>
      </trkpt>
      <trkpt lat="40.4189200" lon="-3.7583830">
        <ele>634.7</ele>
        <time>2019-05-04T07:06:17Z</time>
      </trkpt>
      <trkpt lat="40.4188200" lon="-3.7583970">
        <ele>634.0</ele>
        <time>2019-05-04T07:06:18Z</time>
      </trkpt>
      <trkpt lat="40.4187160" lon="-3.7584110">
        <ele>634.0</ele>
        <time>2019-05-04T07:06:19Z</time>
      </trkpt>
      <trkpt lat="40.4186150" lon="-3.7584150">
        <ele>634.1</ele>
        <time>2019-05-04T07:06:20Z</time>
      </trkpt>
      <trkpt lat="40.4185170" lon="-3.7584010">
        <ele>634.2</ele>
        <time>2019-05-04T07:06:21Z</time>
      </trkpt>
      <trkpt lat="40.4184300" lon="-3.7583620">
        <ele>634.3</ele>
        <time>2019-05-04T07:06:22Z</time>
      </trkpt>
      <trkpt lat="40.4183530" lon="-3.7582930">
        <ele>634.3</ele>
        <time>2019-05-04T07:06:23Z</time>
      </trkpt>
      <trkpt lat="40.4182870" lon="-3.7582010">
        <ele>633.8</ele>
        <time>2019-05-04T07:06:24Z</time>
      </trkpt>
      <trkpt lat="40.4182300" lon="-3.7581000">
        <ele>633.4</ele>
        <time>2019-05-04T07:06:25Z</time>
      </trkpt>
      <trkpt lat="40.4181870" lon="-3.7580000">
        <ele>633.2</ele>
        <time>2019-05-04T07:06:26Z</time>
      </trkpt>
      <trkpt lat="40.4181610" lon="-3.7579010">
        <ele>633.1</ele>
        <time>2019-05-04T07:06:27Z</time>
      </trkpt>
      <trkpt lat="40.4181470" lon="-3.7577960">
        <ele>633.0</ele>
        <time>2019-05-04T07:06:28Z</time>
      </trkpt>
      <trkpt lat="40.4181300" lon="-3.7576940">
        <ele>633.0</ele>
        <time>2019-05-04T07:06:29Z</time>
      </trkpt>
      <trkpt lat="40.4181060" lon="-3.7575930">
        <ele>633.1</ele>
        <time>2019-05-04T07:06:30Z</time>
      </trkpt>
      <trkpt lat="40.4180760" lon="-3.7574970">
        <ele>633.1</ele>
        <time>2019-05-04T07:06:31Z</time>
      </trkpt>
      <trkpt lat="40.4180480" lon="-3.7574050">
        <ele>633.2</ele>
        <time>2019-05-04T07:06:32Z</time>
      </trkpt>
      <trkpt lat="40.4180180" lon="-3.7573130">
        <ele>633.2</ele>
        <time>2019-05-04T07:06:33Z</time>
      </trkpt>
      <trkpt lat="40.4179900" lon="-3.7572230">
        <ele>633.2</ele>
        <time>2019-05-04T07:06:34Z</time>
      </trkpt>
      <trkpt lat="40.4179630" lon="-3.7571320">
        <ele>633.1</ele>
        <time>2019-05-04T07:06:35Z</time>
      </trkpt>
      <trkpt lat="40.4179390" lon="-3.7570420">
        <ele>633.1</ele>
        <time>2019-05-04T07:06:36Z</time>
      </trkpt>
      <trkpt lat="40.4179130" lon="-3.7569510">
        <ele>633.0</ele>
        <time>2019-05-04T07:06:37Z</time>
      </trkpt>
      <trkpt lat="40.4178870" lon="-3.7568590">
        <ele>632.8</ele>
        <time>2019-05-04T07:06:38Z</time>
      </trkpt>
      <trkpt lat="40.4178580" lon="-3.7567680">
        <ele>632.7</ele>
        <time>2019-05-04T07:06:39Z</time>
      </trkpt>
      <trkpt lat="40.4178280" lon="-3.7566790">
        <ele>632.6</ele>
        <time>2019-05-04T07:06:40Z</time>
      </trkpt>
      <trkpt lat="40.4177960" lon="-3.7565910">
        <ele>632.4</ele>
        <time>2019-05-04T07:06:41Z</time>
      </trkpt>
      <trkpt lat="40.4177620" lon="-3.7565050">
        <ele>632.3</ele>
        <time>2019-05-04T07:06:42Z</time>
      </trkpt>
      <trkpt lat="40.4177280" lon="-3.7564220">
        <ele>632.2</ele>
        <time>2019-05-04T07:06:43Z</time>
      </trkpt>
      <trkpt lat="40.4176900" lon="-3.7563410">
        <ele>632.0</ele>
        <time>2019-05-04T07:06:44Z</time>
      </trkpt>
      <trkpt lat="40.4176490" lon="-3.7562620">
        <ele>631.7</ele>
        <time>2019-05-04T07:06:45Z</time>
      </trkpt>
      <trkpt lat="40.4176030" lon="-3.7561860">
        <ele>631.5</ele>
        <time>2019-05-04T07:06:46Z</time>
      </trkpt>
      <trkpt lat="40.4175550" lon="-3.7561120">
        <ele>631.2</ele>
        <time>2019-05-04T07:06:47Z</time>
      </trkpt>
      <trkpt lat="40.4175000" lon="-3.7560420">
        <ele>631.0</ele>
        <time>2019-05-04T07:06:48Z</time>
      </trkpt>
      <trkpt lat="40.4174430" lon="-3.7559720">
        <ele>630.8</ele>
        <time>2019-05-04T07:06:49Z</time>
      </trkpt>
      <trkpt lat="40.4173830" lon="-3.7559030">
        <ele>630.6</ele>
        <time>2019-05-04T07:06:50Z</time>
      </trkpt>
      <trkpt lat="40.4173240" lon="-3.7558340">
        <ele>630.5</ele>
        <time>2019-05-04T07:06:51Z</time>
      </trkpt>
      <trkpt lat="40.4172650" lon="-3.7557660">
        <ele>630.5</ele>
        <time>2019-05-04T07:06:52Z</time>
      </trkpt>
      <trkpt lat="40.4172070" lon="-3.7556960">
        <ele>630.4</ele>
        <time>2019-05-04T07:06:53Z</time>
      </trkpt>
      <trkpt lat="40.4171510" lon="-3.7556250">
        <ele>630.4</ele>
        <time>2019-05-04T07:06:54Z</time>
      </trkpt>
      <trkpt lat="40.4170980" lon="-3.7555530">
        <ele>630.4</ele>
        <time>2019-05-04T07:06:55Z</time>
      </trkpt>
      <trkpt lat="40.4170490" lon="-3.7554780">
        <ele>630.4</ele>
        <time>2019-05-04T07:06:56Z</time>
      </trkpt>
      <trkpt lat="40.4170040" lon="-3.7554000">
        <ele>630.3</ele>
        <time>2019-05-04T07:06:57Z</time>
      </trkpt>
      <trkpt lat="40.4169610" lon="-3.7553210">
        <ele>630.1</ele>
        <time>2019-05-04T07:06:58Z</time>
      </trkpt>
      <trkpt lat="40.4169200" lon="-3.7552410">
        <ele>629.9</ele>
        <time>2019-05-04T07:06:59Z</time>
      </trkpt>
      <trkpt lat="40.4168800" lon="-3.7551600">
        <ele>629.6</ele>
        <time>2019-05-04T07:07:00Z</time>
      </trkpt>
      <trkpt lat="40.4168400" lon="-3.7550780">
        <ele>629.3</ele>
        <time>2019-05-04T07:07:01Z</time>
      </trkpt>
      <trkpt lat="40.4167990" lon="-3.7549960">
        <ele>628.9</ele>
        <time>2019-05-04T07:07:02Z</time>
      </trkpt>
      <trkpt lat="40.4167600" lon="-3.7549130">
        <ele>628.5</ele>
        <time>2019-05-04T07:07:03Z</time>
      </trkpt>
      <trkpt lat="40.4167200" lon="-3.7548300">
        <ele>627.9</ele>
        <time>2019-05-04T07:07:04Z</time>
      </trkpt>
      <trkpt lat="40.4166790" lon="-3.7547480">
        <ele>627.3</ele>
        <time>2019-05-04T07:07:05Z</time>
      </trkpt>
      <trkpt lat="40.4166380" lon="-3.7546660">
        <ele>626.7</ele>
        <time>2019-05-04T07:07:06Z</time>
      </trkpt>
      <trkpt lat="40.4165970" lon="-3.7545840">
        <ele>626.5</ele>
        <time>2019-05-04T07:07:07Z</time>
      </trkpt>
      <trkpt lat="40.4165580" lon="-3.7545010">
        <ele>626.4</ele>
        <time>2019-05-04T07:07:08Z</time>
      </trkpt>
      <trkpt lat="40.4165190" lon="-3.7544170">
        <ele>626.4</ele>
        <time>2019-05-04T07:07:09Z</time>
      </trkpt>
      <trkpt lat="40.4164790" lon="-3.7543350">
        <ele>626.3</ele>
        <time>2019-05-04T07:07:10Z</time>
      </trkpt>
      <trkpt lat="40.4164390" lon="-3.7542540">
        <ele>626.2</ele>
        <time>2019-05-04T07:07:11Z</time>
      </trkpt>
      <trkpt lat="40.4164010" lon="-3.7541740">
        <ele>626.1</ele>
        <time>2019-05-04T07:07:12Z</time>
      </trkpt>
      <trkpt lat="40.4163620" lon="-3.7540940">
        <ele>626.0</ele>
        <time>2019-05-04T07:07:13Z</time>
      </trkpt>
      <trkpt lat="40.4163240" lon="-3.7540140">
        <ele>625.9</ele>
        <time>2019-05-04T07:07:14Z</time>
      </trkpt>
      <trkpt lat="40.4162860" lon="-3.7539340">
        <ele>625.8</ele>
        <time>2019-05-04T07:07:15Z</time>
      </trkpt>
      <trkpt lat="40.4162480" lon="-3.7538550">
        <ele>625.8</ele>
        <time>2019-05-04T07:07:16Z</time>
      </trkpt>
      <trkpt lat="40.4162100" lon="-3.7537750">
        <ele>625.7</ele>
        <time>2019-05-04T07:07:17Z</time>
      </trkpt>
      <trkpt lat="40.4161700" lon="-3.7536980">
        <ele>625.6</ele>
        <time>2019-05-04T07:07:18Z</time>
      </trkpt>
      <trkpt lat="40.4161280" lon="-3.7536230">
        <ele>625.5</ele>
        <time>2019-05-04T07:07:19Z</time>
      </trkpt>
      <trkpt lat="40.4160820" lon="-3.7535530">
        <ele>625.4</ele>
        <time>2019-05-04T07:07:20Z</time>
      </trkpt>
      <trkpt lat="40.4160340" lon="-3.7534890">
        <ele>625.2</ele>
        <time>2019-05-04T07:07:21Z</time>
      </trkpt>
      <trkpt lat="40.4159830" lon="-3.7534350">
        <ele>625.1</ele>
        <time>2019-05-04T07:07:22Z</time>
      </trkpt>
      <trkpt lat="40.4159250" lon="-3.7533940">
        <ele>625.0</ele>
        <time>2019-05-04T07:07:23Z</time>
      </trkpt>
      <trkpt lat="40.4158610" lon="-3.7533650">
        <ele>624.9</ele>
        <time>2019-05-04T07:07:24Z</time>
      </trkpt>
      <trkpt lat="40.4157900" lon="-3.7533440">
        <ele>624.6</ele>
        <time>2019-05-04T07:07:25Z</time>
      </trkpt>
      <trkpt lat="40.4157200" lon="-3.7533330">
        <ele>624.6</ele>
        <time>2019-05-04T07:07:26Z</time>
      </trkpt>
      <trkpt lat="40.4156550" lon="-3.7533390">
        <ele>624.3</ele>
        <time>2019-05-04T07:07:27Z</time>
      </trkpt>
      <trkpt lat="40.4155980" lon="-3.7533640">
        <ele>624.3</ele>
        <time>2019-05-04T07:07:28Z</time>
      </trkpt>
      <trkpt lat="40.4155480" lon="-3.7534040">
        <ele>624.3</ele>
        <time>2019-05-04T07:07:29Z</time>
      </trkpt>
      <trkpt lat="40.4155040" lon="-3.7534520">
        <ele>624.3</ele>
        <time>2019-05-04T07:07:30Z</time>
      </trkpt>
      <trkpt lat="40.4154640" lon="-3.7535020">
        <ele>624.3</ele>
        <time>2019-05-04T07:07:31Z</time>
      </trkpt>
      <trkpt lat="40.4154290" lon="-3.7535530">
        <ele>624.4</ele>
        <time>2019-05-04T07:07:32Z</time>
      </trkpt>
      <trkpt lat="40.4153950" lon="-3.7536050">
        <ele>624.5</ele>
        <time>2019-05-04T07:07:33Z</time>
      </trkpt>
      <trkpt lat="40.4153600" lon="-3.7536590">
        <ele>624.6</ele>
        <time>2019-05-04T07:07:34Z</time>
      </trkpt>
      <trkpt lat="40.4153250" lon="-3.7537160">
        <ele>624.7</ele>
        <time>2019-05-04T07:07:35Z</time>
      </trkpt>
      <trkpt lat="40.4152890" lon="-3.7537760">
        <ele>624.8</ele>
        <time>2019-05-04T07:07:36Z</time>
      </trkpt>
      <trkpt lat="40.4152540" lon="-3.7538370">
        <ele>624.9</ele>
        <time>2019-05-04T07:07:37Z</time>
      </trkpt>
      <trkpt lat="40.4152210" lon="-3.7539010">
        <ele>625.0</ele>
        <time>2019-05-04T07:07:38Z</time>
      </trkpt>
      <trkpt lat="40.4151870" lon="-3.7539670">
        <ele>625.1</ele>
        <time>2019-05-04T07:07:39Z</time>
      </trkpt>
      <trkpt lat="40.4151520" lon="-3.7540330">
        <ele>625.2</ele>
        <time>2019-05-04T07:07:40Z</time>
      </trkpt>
      <trkpt lat="40.4151170" lon="-3.7541000">
        <ele>625.2</ele>
        <time>2019-05-04T07:07:41Z</time>
      </trkpt>
      <trkpt lat="40.4150830" lon="-3.7541670">
        <ele>625.3</ele>
        <time>2019-05-04T07:07:42Z</time>
      </trkpt>
      <trkpt lat="40.4150500" lon="-3.7542360">
        <ele>625.4</ele>
        <time>2019-05-04T07:07:43Z</time>
      </trkpt>
      <trkpt lat="40.4150170" lon="-3.7543080">
        <ele>625.4</ele>
        <time>2019-05-04T07:07:44Z</time>
      </trkpt>
      <trkpt lat="40.4149850" lon="-3.7543810">
        <ele>625.5</ele>
        <time>2019-05-04T07:07:45Z</time>
      </trkpt>
      <trkpt lat="40.4149520" lon="-3.7544560">
        <ele>625.5</ele>
        <time>2019-05-04T07:07:46Z</time>
      </trkpt>
      <trkpt lat="40.4149180" lon="-3.7545320">
        <ele>625.6</ele>
        <time>2019-05-04T07:07:47Z</time>
      </trkpt>
      <trkpt lat="40.4148820" lon="-3.7546070">
        <ele>625.6</ele>
        <time>2019-05-04T07:07:48Z</time>
      </trkpt>
      <trkpt lat="40.4148440" lon="-3.7546830">
        <ele>625.7</ele>
        <time>2019-05-04T07:07:49Z</time>
      </trkpt>
      <trkpt lat="40.4148040" lon="-3.7547580">
        <ele>625.7</ele>
        <time>2019-05-04T07:07:50Z</time>
      </trkpt>
      <trkpt lat="40.4147630" lon="-3.7548320">
        <ele>625.7</ele>
        <time>2019-05-04T07:07:51Z</time>
      </trkpt>
      <trkpt lat="40.4147210" lon="-3.7549050">
        <ele>625.8</ele>
        <time>2019-05-04T07:07:52Z</time>
      </trkpt>
      <trkpt lat="40.4146790" lon="-3.7549780">
        <ele>625.8</ele>
        <time>2019-05-04T07:07:53Z</time>
      </trkpt>
      <trkpt lat="40.4146340" lon="-3.7550500">
        <ele>625.8</ele>
        <time>2019-05-04T07:07:54Z</time>
      </trkpt>
      <trkpt lat="40.4145880" lon="-3.7551200">
        <ele>625.8</ele>
        <time>2019-05-04T07:07:55Z</time>
      </trkpt>
      <trkpt lat="40.4145410" lon="-3.7551870">
        <ele>625.9</ele>
        <time>2019-05-04T07:07:56Z</time>
      </trkpt>
      <trkpt lat="40.4144940" lon="-3.7552540">
        <ele>625.9</ele>
        <time>2019-05-04T07:07:57Z</time>
      </trkpt>
      <trkpt lat="40.4144470" lon="-3.7553180">
        <ele>625.9</ele>
        <time>2019-05-04T07:07:58Z</time>
      </trkpt>
      <trkpt lat="40.4144000" lon="-3.7553820">
        <ele>626.0</ele>
        <time>2019-05-04T07:07:59Z</time>
      </trkpt>
      <trkpt lat="40.4143510" lon="-3.7554480">
        <ele>626.0</ele>
        <time>2019-05-04T07:08:00Z</time>
      </trkpt>
      <trkpt lat="40.4143010" lon="-3.7555150">
        <ele>626.0</ele>
        <time>2019-05-04T07:08:01Z</time>
      </trkpt>
      <trkpt lat="40.4142500" lon="-3.7555830">
        <ele>626.1</ele>
        <time>2019-05-04T07:08:02Z</time>
      </trkpt>
      <trkpt lat="40.4142000" lon="-3.7556490">
        <ele>626.1</ele>
        <time>2019-05-04T07:08:03Z</time>
      </trkpt>
      <trkpt lat="40.4141510" lon="-3.7557180">
        <ele>626.1</ele>
        <time>2019-05-04T07:08:04Z</time>
      </trkpt>
      <trkpt lat="40.4141030" lon="-3.7557880">
        <ele>626.1</ele>
        <time>2019-05-04T07:08:05Z</time>
      </trkpt>
      <trkpt lat="40.4140580" lon="-3.7558600">
        <ele>626.1</ele>
        <time>2019-05-04T07:08:06Z</time>
      </trkpt>
      <trkpt lat="40.4140150" lon="-3.7559340">
        <ele>626.1</ele>
        <time>2019-05-04T07:08:07Z</time>
      </trkpt>
      <trkpt lat="40.4139750" lon="-3.7560090">
        <ele>626.2</ele>
        <time>2019-05-04T07:08:08Z</time>
      </trkpt>
      <trkpt lat="40.4139360" lon="-3.7560870">
        <ele>626.3</ele>
        <time>2019-05-04T07:08:09Z</time>
      </trkpt>
      <trkpt lat="40.4138970" lon="-3.7561650">
        <ele>626.4</ele>
        <time>2019-05-04T07:08:10Z</time>
      </trkpt>
      <trkpt lat="40.4138570" lon="-3.7562440">
        <ele>626.8</ele>
        <time>2019-05-04T07:08:11Z</time>
      </trkpt>
      <trkpt lat="40.4138170" lon="-3.7563230">
        <ele>626.9</ele>
        <time>2019-05-04T07:08:12Z</time>
      </trkpt>
      <trkpt lat="40.4137790" lon="-3.7564030">
        <ele>627.1</ele>
        <time>2019-05-04T07:08:13Z</time>
      </trkpt>
      <trkpt lat="40.4137440" lon="-3.7564840">
        <ele>627.3</ele>
        <time>2019-05-04T07:08:14Z</time>
      </trkpt>
      <trkpt lat="40.4137110" lon="-3.7565660">
        <ele>627.5</ele>
        <time>2019-05-04T07:08:15Z</time>
      </trkpt>
      <trkpt lat="40.4136790" lon="-3.7566500">
        <ele>627.7</ele>
        <time>2019-05-04T07:08:16Z</time>
      </trkpt>
      <trkpt lat="40.4136480" lon="-3.7567360">
        <ele>627.9</ele>
        <time>2019-05-04T07:08:17Z</time>
      </trkpt>
      <trkpt lat="40.4136180" lon="-3.7568250">
        <ele>627.9</ele>
        <time>2019-05-04T07:08:18Z</time>
      </trkpt>
      <trkpt lat="40.4135910" lon="-3.7569140">
        <ele>627.9</ele>
        <time>2019-05-04T07:08:19Z</time>
      </trkpt>
      <trkpt lat="40.4135670" lon="-3.7570020">
        <ele>627.9</ele>
        <time>2019-05-04T07:08:20Z</time>
      </trkpt>
      <trkpt lat="40.4135460" lon="-3.7570910">
        <ele>628.0</ele>
        <time>2019-05-04T07:08:21Z</time>
      </trkpt>
      <trkpt lat="40.4135290" lon="-3.7571790">
        <ele>628.2</ele>
        <time>2019-05-04T07:08:22Z</time>
      </trkpt>
      <trkpt lat="40.4135160" lon="-3.7572670">
        <ele>628.3</ele>
        <time>2019-05-04T07:08:23Z</time>
      </trkpt>
      <trkpt lat="40.4135060" lon="-3.7573560">
        <ele>628.5</ele>
        <time>2019-05-04T07:08:24Z</time>
      </trkpt>
      <trkpt lat="40.4134960" lon="-3.7574440">
        <ele>628.7</ele>
        <time>2019-05-04T07:08:25Z</time>
      </trkpt>
      <trkpt lat="40.4134880" lon="-3.7575320">
        <ele>628.8</ele>
        <time>2019-05-04T07:08:26Z</time>
      </trkpt>
      <trkpt lat="40.4134800" lon="-3.7576190">
        <ele>628.8</ele>
        <time>2019-05-04T07:08:27Z</time>
      </trkpt>
      <trkpt lat="40.4134730" lon="-3.7577060">
        <ele>628.9</ele>
        <time>2019-05-04T07:08:28Z</time>
      </trkpt>
      <trkpt lat="40.4134670" lon="-3.7577910">
        <ele>628.9</ele>
        <time>2019-05-04T07:08:29Z</time>
      </trkpt>
      <trkpt lat="40.4134620" lon="-3.7578750">
        <ele>628.9</ele>
        <time>2019-05-04T07:08:30Z</time>
      </trkpt>
      <trkpt lat="40.4134560" lon="-3.7579580">
        <ele>629.0</ele>
        <time>2019-05-04T07:08:31Z</time>
      </trkpt>
      <trkpt lat="40.4134500" lon="-3.7580410">
        <ele>629.1</ele>
        <time>2019-05-04T07:08:32Z</time>
      </trkpt>
      <trkpt lat="40.4134450" lon="-3.7581230">
        <ele>629.1</ele>
        <time>2019-05-04T07:08:33Z</time>
      </trkpt>
      <trkpt lat="40.4134410" lon="-3.7582030">
        <ele>629.2</ele>
        <time>2019-05-04T07:08:34Z</time>
      </trkpt>
      <trkpt lat="40.4134360" lon="-3.7582810">
        <ele>629.3</ele>
        <time>2019-05-04T07:08:35Z</time>
      </trkpt>
      <trkpt lat="40.4134300" lon="-3.7583600">
        <ele>629.4</ele>
        <time>2019-05-04T07:08:36Z</time>
      </trkpt>
      <trkpt lat="40.4134240" lon="-3.7584380">
        <ele>629.5</ele>
        <time>2019-05-04T07:08:37Z</time>
      </trkpt>
      <trkpt lat="40.4134200" lon="-3.7585180">
        <ele>629.6</ele>
        <time>2019-05-04T07:08:38Z</time>
      </trkpt>
      <trkpt lat="40.4134140" lon="-3.7585990">
        <ele>629.7</ele>
        <time>2019-05-04T07:08:39Z</time>
      </trkpt>
      <trkpt lat="40.4134080" lon="-3.7586820">
        <ele>629.9</ele>
        <time>2019-05-04T07:08:40Z</time>
      </trkpt>
      <trkpt lat="40.4134010" lon="-3.7587640">
        <ele>630.1</ele>
        <time>2019-05-04T07:08:41Z</time>
      </trkpt>
      <trkpt lat="40.4133960" lon="-3.7588440">
        <ele>630.2</ele>
        <time>2019-05-04T07:08:42Z</time>
      </trkpt>
      <trkpt lat="40.4133910" lon="-3.7589240">
        <ele>630.4</ele>
        <time>2019-05-04T07:08:43Z</time>
      </trkpt>
      <trkpt lat="40.4133880" lon="-3.7590070">
        <ele>630.6</ele>
        <time>2019-05-04T07:08:44Z</time>
      </trkpt>
      <trkpt lat="40.4133850" lon="-3.7590940">
        <ele>630.8</ele>
        <time>2019-05-04T07:08:45Z</time>
      </trkpt>
      <trkpt lat="40.4133840" lon="-3.7591820">
        <ele>631.0</ele>
        <time>2019-05-04T07:08:46Z</time>
      </trkpt>
      <trkpt lat="40.4133830" lon="-3.7592700">
        <ele>631.2</ele>
        <time>2019-05-04T07:08:47Z</time>
      </trkpt>
      <trkpt lat="40.4133810" lon="-3.7593570">
        <ele>631.4</ele>
        <time>2019-05-04T07:08:48Z</time>
      </trkpt>
      <trkpt lat="40.4133780" lon="-3.7594440">
        <ele>631.5</ele>
        <time>2019-05-04T07:08:49Z</time>
      </trkpt>
      <trkpt lat="40.4133730" lon="-3.7595310">
        <ele>631.6</ele>
        <time>2019-05-04T07:08:50Z</time>
      </trkpt>
      <trkpt lat="40.4133680" lon="-3.7596170">
        <ele>631.7</ele>
        <time>2019-05-04T07:08:51Z</time>
      </trkpt>
      <trkpt lat="40.4133620" lon="-3.7597070">
        <ele>631.7</ele>
        <time>2019-05-04T07:08:52Z</time>
      </trkpt>
      <trkpt lat="40.4133540" lon="-3.7597970">
        <ele>631.7</ele>
        <time>2019-05-04T07:08:53Z</time>
      </trkpt>
      <trkpt lat="40.4133460" lon="-3.7598860">
        <ele>631.8</ele>
        <time>2019-05-04T07:08:54Z</time>
      </trkpt>
      <trkpt lat="40.4133390" lon="-3.7599740">
        <ele>631.8</ele>
        <time>2019-05-04T07:08:55Z</time>
      </trkpt>
      <trkpt lat="40.4133320" lon="-3.7600620">
        <ele>631.8</ele>
        <time>2019-05-04T07:08:56Z</time>
      </trkpt>
      <trkpt lat="40.4133260" lon="-3.7601490">
        <ele>631.8</ele>
        <time>2019-05-04T07:08:57Z</time>
      </trkpt>
      <trkpt lat="40.4133190" lon="-3.7602360">
        <ele>631.8</ele>
        <time>2019-05-04T07:08:58Z</time>
      </trkpt>
      <trkpt lat="40.4133130" lon="-3.7603210">
        <ele>631.8</ele>
        <time>2019-05-04T07:08:59Z</time>
      </trkpt>
      <trkpt lat="40.4133060" lon="-3.7604060">
        <ele>631.8</ele>
        <time>2019-05-04T07:09:00Z</time>
      </trkpt>
      <trkpt lat="40.4133000" lon="-3.7604930">
        <ele>631.9</ele>
        <time>2019-05-04T07:09:01Z</time>
      </trkpt>
      <trkpt lat="40.4132950" lon="-3.7605790">
        <ele>631.9</ele>
        <time>2019-05-04T07:09:02Z</time>
      </trkpt>
      <trkpt lat="40.4132910" lon="-3.7606650">
        <ele>632.0</ele>
        <time>2019-05-04T07:09:03Z</time>
      </trkpt>
      <trkpt lat="40.4132840" lon="-3.7607490">
        <ele>632.2</ele>
        <time>2019-05-04T07:09:04Z</time>
      </trkpt>
      <trkpt lat="40.4132780" lon="-3.7608320">
        <ele>632.3</ele>
        <time>2019-05-04T07:09:05Z</time>
      </trkpt>
      <trkpt lat="40.4132700" lon="-3.7609140">
        <ele>632.4</ele>
        <time>2019-05-04T07:09:06Z</time>
      </trkpt>
      <trkpt lat="40.4132640" lon="-3.7609950">
        <ele>632.4</ele>
        <time>2019-05-04T07:09:07Z</time>
      </trkpt>
      <trkpt lat="40.4132570" lon="-3.7610780">
        <ele>632.4</ele>
        <time>2019-05-04T07:09:08Z</time>
      </trkpt>
      <trkpt lat="40.4132530" lon="-3.7611620">
        <ele>632.5</ele>
        <time>2019-05-04T07:09:09Z</time>
      </trkpt>
      <trkpt lat="40.4132500" lon="-3.7612470">
        <ele>632.6</ele>
        <time>2019-05-04T07:09:10Z</time>
      </trkpt>
      <trkpt lat="40.4132500" lon="-3.7613300">
        <ele>632.8</ele>
        <time>2019-05-04T07:09:11Z</time>
      </trkpt>
      <trkpt lat="40.4132540" lon="-3.7614110">
        <ele>633.0</ele>
        <time>2019-05-04T07:09:12Z</time>
      </trkpt>
      <trkpt lat="40.4132600" lon="-3.7614930">
        <ele>633.2</ele>
        <time>2019-05-04T07:09:13Z</time>
      </trkpt>
      <trkpt lat="40.4132680" lon="-3.7615760">
        <ele>633.4</ele>
        <time>2019-05-04T07:09:14Z</time>
      </trkpt>
      <trkpt lat="40.4132750" lon="-3.7616590">
        <ele>633.6</ele>
        <time>2019-05-04T07:09:15Z</time>
      </trkpt>
      <trkpt lat="40.4132830" lon="-3.7617400">
        <ele>633.8</ele>
        <time>2019-05-04T07:09:16Z</time>
      </trkpt>
      <trkpt lat="40.4132910" lon="-3.7618190">
        <ele>633.9</ele>
        <time>2019-05-04T07:09:17Z</time>
      </trkpt>
      <trkpt lat="40.4133030" lon="-3.7618950">
        <ele>634.1</ele>
        <time>2019-05-04T07:09:18Z</time>
      </trkpt>
      <trkpt lat="40.4133170" lon="-3.7619680">
        <ele>634.3</ele>
        <time>2019-05-04T07:09:19Z</time>
      </trkpt>
      <trkpt lat="40.4133330" lon="-3.7620380">
        <ele>634.5</ele>
        <time>2019-05-04T07:09:20Z</time>
      </trkpt>
      <trkpt lat="40.4133510" lon="-3.7621080">
        <ele>634.6</ele>
        <time>2019-05-04T07:09:21Z</time>
      </trkpt>
      <trkpt lat="40.4133670" lon="-3.7621790">
        <ele>634.8</ele>
        <time>2019-05-04T07:09:22Z</time>
      </trkpt>
      <trkpt lat="40.4133840" lon="-3.7622500">
        <ele>634.9</ele>
        <time>2019-05-04T07:09:23Z</time>
      </trkpt>
      <trkpt lat="40.4134000" lon="-3.7623190">
        <ele>635.1</ele>
        <time>2019-05-04T07:09:24Z</time>
      </trkpt>
      <trkpt lat="40.4134180" lon="-3.7623880">
        <ele>635.3</ele>
        <time>2019-05-04T07:09:25Z</time>
      </trkpt>
      <trkpt lat="40.4134330" lon="-3.7624580">
        <ele>635.4</ele>
        <time>2019-05-04T07:09:26Z</time>
      </trkpt>
      <trkpt lat="40.4134450" lon="-3.7625290">
        <ele>635.5</ele>
        <time>2019-05-04T07:09:27Z</time>
      </trkpt>
      <trkpt lat="40.4134540" lon="-3.7626010">
        <ele>635.7</ele>
        <time>2019-05-04T07:09:28Z</time>
      </trkpt>
      <trkpt lat="40.4134600" lon="-3.7626730">
        <ele>635.9</ele>
        <time>2019-05-04T07:09:29Z</time>
      </trkpt>
      <trkpt lat="40.4134590" lon="-3.7627440">
        <ele>636.2</ele>
        <time>2019-05-04T07:09:30Z</time>
      </trkpt>
      <trkpt lat="40.4134540" lon="-3.7628120">
        <ele>636.4</ele>
        <time>2019-05-04T07:09:31Z</time>
      </trkpt>
      <trkpt lat="40.4134470" lon="-3.7628770">
        <ele>636.7</ele>
        <time>2019-05-04T07:09:32Z</time>
      </trkpt>
      <trkpt lat="40.4134420" lon="-3.7629410">
        <ele>636.9</ele>
        <time>2019-05-04T07:09:33Z</time>
      </trkpt>
      <trkpt lat="40.4134360" lon="-3.7630050">
        <ele>637.2</ele>
        <time>2019-05-04T07:09:34Z</time>
      </trkpt>
      <trkpt lat="40.4134260" lon="-3.7630670">
        <ele>637.5</ele>
        <time>2019-05-04T07:09:35Z</time>
      </trkpt>
      <trkpt lat="40.4134170" lon="-3.7631280">
        <ele>637.7</ele>
        <time>2019-05-04T07:09:36Z</time>
      </trkpt>
      <trkpt lat="40.4134100" lon="-3.7631870">
        <ele>637.9</ele>
        <time>2019-05-04T07:09:37Z</time>
      </trkpt>
      <trkpt lat="40.4134030" lon="-3.7632460">
        <ele>638.2</ele>
        <time>2019-05-04T07:09:38Z</time>
      </trkpt>
      <trkpt lat="40.4133960" lon="-3.7633060">
        <ele>638.4</ele>
        <time>2019-05-04T07:09:39Z</time>
      </trkpt>
      <trkpt lat="40.4133870" lon="-3.7633640">
        <ele>638.6</ele>
        <time>2019-05-04T07:09:40Z</time>
      </trkpt>
      <trkpt lat="40.4133770" lon="-3.7634220">
        <ele>638.9</ele>
        <time>2019-05-04T07:09:41Z</time>
      </trkpt>
      <trkpt lat="40.4133670" lon="-3.7634790">
        <ele>639.1</ele>
        <time>2019-05-04T07:09:42Z</time>
      </trkpt>
      <trkpt lat="40.4133580" lon="-3.7635390">
        <ele>639.3</ele>
        <time>2019-05-04T07:09:43Z</time>
      </trkpt>
      <trkpt lat="40.4133490" lon="-3.7635980">
        <ele>639.5</ele>
        <time>2019-05-04T07:09:44Z</time>
      </trkpt>
      <trkpt lat="40.4133410" lon="-3.7636560">
        <ele>639.7</ele>
        <time>2019-05-04T07:09:45Z</time>
      </trkpt>
      <trkpt lat="40.4133350" lon="-3.7637130">
        <ele>639.9</ele>
        <time>2019-05-04T07:09:46Z</time>
      </trkpt>
      <trkpt lat="40.4133270" lon="-3.7637710">
        <ele>640.1</ele>
        <time>2019-05-04T07:09:47Z</time>
      </trkpt>
      <trkpt lat="40.4133200" lon="-3.7638350">
        <ele>640.4</ele>
        <time>2019-05-04T07:09:48Z</time>
      </trkpt>
      <trkpt lat="40.4133120" lon="-3.7638980">
        <ele>640.6</ele>
        <time>2019-05-04T07:09:49Z</time>
      </trkpt>
      <trkpt lat="40.4133050" lon="-3.7639640">
        <ele>640.9</ele>
        <time>2019-05-04T07:09:50Z</time>
      </trkpt>
      <trkpt lat="40.4132990" lon="-3.7640290">
        <ele>641.2</ele>
        <time>2019-05-04T07:09:51Z</time>
      </trkpt>
      <trkpt lat="40.4132940" lon="-3.7640930">
        <ele>641.6</ele>
        <time>2019-05-04T07:09:52Z</time>
      </trkpt>
      <trkpt lat="40.4132890" lon="-3.7641560">
        <ele>642.0</ele>
        <time>2019-05-04T07:09:53Z</time>
      </trkpt>
      <trkpt lat="40.4132820" lon="-3.7642190">
        <ele>642.5</ele>
        <time>2019-05-04T07:09:54Z</time>
      </trkpt>
      <trkpt lat="40.4132730" lon="-3.7642830">
        <ele>642.9</ele>
        <time>2019-05-04T07:09:55Z</time>
      </trkpt>
      <trkpt lat="40.4132630" lon="-3.7643470">
        <ele>643.4</ele>
        <time>2019-05-04T07:09:56Z</time>
      </trkpt>
      <trkpt lat="40.4132530" lon="-3.7644110">
        <ele>643.8</ele>
        <time>2019-05-04T07:09:57Z</time>
      </trkpt>
      <trkpt lat="40.4132430" lon="-3.7644730">
        <ele>644.2</ele>
        <time>2019-05-04T07:09:58Z</time>
      </trkpt>
      <trkpt lat="40.4132330" lon="-3.7645350">
        <ele>644.6</ele>
        <time>2019-05-04T07:09:59Z</time>
      </trkpt>
      <trkpt lat="40.4132230" lon="-3.7645960">
        <ele>644.8</ele>
        <time>2019-05-04T07:10:00Z</time>
      </trkpt>
      <trkpt lat="40.4132130" lon="-3.7646570">
        <ele>645.1</ele>
        <time>2019-05-04T07:10:01Z</time>
      </trkpt>
      <trkpt lat="40.4132040" lon="-3.7647190">
        <ele>645.2</ele>
        <time>2019-05-04T07:10:02Z</time>
      </trkpt>
      <trkpt lat="40.4131960" lon="-3.7647790">
        <ele>645.4</ele>
        <time>2019-05-04T07:10:03Z</time>
      </trkpt>
      <trkpt lat="40.4131900" lon="-3.7648380">
        <ele>645.5</ele>
        <time>2019-05-04T07:10:04Z</time>
      </trkpt>
      <trkpt lat="40.4131850" lon="-3.7648960">
        <ele>645.6</ele>
        <time>2019-05-04T07:10:05Z</time>
      </trkpt>
      <trkpt lat="40.4131790" lon="-3.7649540">
        <ele>645.7</ele>
        <time>2019-05-04T07:10:06Z</time>
      </trkpt>
      <trkpt lat="40.4131720" lon="-3.7650130">
        <ele>645.8</ele>
        <time>2019-05-04T07:10:07Z</time>
      </trkpt>
      <trkpt lat="40.4131650" lon="-3.7650750">
        <ele>645.9</ele>
        <time>2019-05-04T07:10:08Z</time>
      </trkpt>
      <trkpt lat="40.4131590" lon="-3.7651400">
        <ele>646.1</ele>
        <time>2019-05-04T07:10:09Z</time>
      </trkpt>
      <trkpt lat="40.4131510" lon="-3.7652060">
        <ele>646.3</ele>
        <time>2019-05-04T07:10:10Z</time>
      </trkpt>
      <trkpt lat="40.4131410" lon="-3.7652710">
        <ele>646.6</ele>
        <time>2019-05-04T07:10:11Z</time>
      </trkpt>
      <trkpt lat="40.4131310" lon="-3.7653340">
        <ele>646.8</ele>
        <time>2019-05-04T07:10:12Z</time>
      </trkpt>
      <trkpt lat="40.4131210" lon="-3.7653990">
        <ele>647.0</ele>
        <time>2019-05-04T07:10:13Z</time>
      </trkpt>
      <trkpt lat="40.4131110" lon="-3.7654660">
        <ele>647.2</ele>
        <time>2019-05-04T07:10:14Z</time>
      </trkpt>
      <trkpt lat="40.4131000" lon="-3.7655360">
        <ele>647.4</ele>
        <time>2019-05-04T07:10:15Z</time>
      </trkpt>
      <trkpt lat="40.4130890" lon="-3.7656060">
        <ele>647.5</ele>
        <time>2019-05-04T07:10:16Z</time>
      </trkpt>
      <trkpt lat="40.4130760" lon="-3.7656760">
        <ele>647.6</ele>
        <time>2019-05-04T07:10:17Z</time>
      </trkpt>
      <trkpt lat="40.4130630" lon="-3.7657460">
        <ele>647.6</ele>
        <time>2019-05-04T07:10:18Z</time>
      </trkpt>
      <trkpt lat="40.4130480" lon="-3.7658130">
        <ele>647.6</ele>
        <time>2019-05-04T07:10:19Z</time>
      </trkpt>
      <trkpt lat="40.4130330" lon="-3.7658810">
        <ele>647.7</ele>
        <time>2019-05-04T07:10:20Z</time>
      </trkpt>
      <trkpt lat="40.4130170" lon="-3.7659480">
        <ele>647.9</ele>
        <time>2019-05-04T07:10:21Z</time>
      </trkpt>
      <trkpt lat="40.4130000" lon="-3.7660170">
        <ele>648.0</ele>
        <time>2019-05-04T07:10:22Z</time>
      </trkpt>
      <trkpt lat="40.4129820" lon="-3.7660850">
        <ele>648.2</ele>
        <time>2019-05-04T07:10:23Z</time>
      </trkpt>
      <trkpt lat="40.4129630" lon="-3.7661520">
        <ele>648.3</ele>
        <time>2019-05-04T07:10:24Z</time>
      </trkpt>
      <trkpt lat="40.4129420" lon="-3.7662210">
        <ele>648.2</ele>
        <time>2019-05-04T07:10:25Z</time>
      </trkpt>
      <trkpt lat="40.4129200" lon="-3.7662920">
        <ele>648.1</ele>
        <time>2019-05-04T07:10:26Z</time>
      </trkpt>
      <trkpt lat="40.4128990" lon="-3.7663610">
        <ele>648.1</ele>
        <time>2019-05-04T07:10:27Z</time>
      </trkpt>
      <trkpt lat="40.4128760" lon="-3.7664280">
        <ele>648.1</ele>
        <time>2019-05-04T07:10:28Z</time>
      </trkpt>
      <trkpt lat="40.4128540" lon="-3.7664920">
        <ele>648.1</ele>
        <time>2019-05-04T07:10:29Z</time>
      </trkpt>
      <trkpt lat="40.4128290" lon="-3.7665590">
        <ele>648.3</ele>
        <time>2019-05-04T07:10:30Z</time>
      </trkpt>
      <trkpt lat="40.4128040" lon="-3.7666250">
        <ele>648.4</ele>
        <time>2019-05-04T07:10:31Z</time>
      </trkpt>
      <trkpt lat="40.4127770" lon="-3.7666890">
        <ele>648.7</ele>
        <time>2019-05-04T07:10:32Z</time>
      </trkpt>
      <trkpt lat="40.4127510" lon="-3.7667500">
        <ele>648.9</ele>
        <time>2019-05-04T07:10:33Z</time>
      </trkpt>
      <trkpt lat="40.4127270" lon="-3.7668090">
        <ele>649.2</ele>
        <time>2019-05-04T07:10:34Z</time>
      </trkpt>
      <trkpt lat="40.4127020" lon="-3.7668670">
        <ele>649.4</ele>
        <time>2019-05-04T07:10:35Z</time>
      </trkpt>
      <trkpt lat="40.4126780" lon="-3.7669230">
        <ele>649.6</ele>
        <time>2019-05-04T07:10:36Z</time>
      </trkpt>
      <trkpt lat="40.4126550" lon="-3.7669770">
        <ele>649.8</ele>
        <time>2019-05-04T07:10:37Z</time>
      </trkpt>
      <trkpt lat="40.4126330" lon="-3.7670300">
        <ele>650.1</ele>
        <time>2019-05-04T07:10:38Z</time>
      </trkpt>
      <trkpt lat="40.4126110" lon="-3.7670800">
        <ele>650.3</ele>
        <time>2019-05-04T07:10:39Z</time>
      </trkpt>
      <trkpt lat="40.4125910" lon="-3.7671290">
        <ele>650.5</ele>
        <time>2019-05-04T07:10:40Z</time>
      </trkpt>
      <trkpt lat="40.4125700" lon="-3.7671770">
        <ele>650.8</ele>
        <time>2019-05-04T07:10:41Z</time>
      </trkpt>
      <trkpt lat="40.4125490" lon="-3.7672250">
        <ele>651.0</ele>
        <time>2019-05-04T07:10:42Z</time>
      </trkpt>
      <trkpt lat="40.4125270" lon="-3.7672740">
        <ele>651.3</ele>
        <time>2019-05-04T07:10:43Z</time>
      </trkpt>
      <trkpt lat="40.4125070" lon="-3.7673230">
        <ele>651.7</ele>
        <time>2019-05-04T07:10:44Z</time>
      </trkpt>
      <trkpt lat="40.4124880" lon="-3.7673690">
        <ele>651.9</ele>
        <time>2019-05-04T07:10:45Z</time>
      </trkpt>
      <trkpt lat="40.4124680" lon="-3.7674180">
        <ele>652.2</ele>
        <time>2019-05-04T07:10:46Z</time>
      </trkpt>
      <trkpt lat="40.4124470" lon="-3.7674670">
        <ele>652.5</ele>
        <time>2019-05-04T07:10:47Z</time>
      </trkpt>
      <trkpt lat="40.4124290" lon="-3.7675200">
        <ele>652.9</ele>
        <time>2019-05-04T07:10:48Z</time>
      </trkpt>
      <trkpt lat="40.4124130" lon="-3.7675730">
        <ele>653.3</ele>
        <time>2019-05-04T07:10:49Z</time>
      </trkpt>
      <trkpt lat="40.4124000" lon="-3.7676260">
        <ele>653.7</ele>
        <time>2019-05-04T07:10:50Z</time>
      </trkpt>
      <trkpt lat="40.4123860" lon="-3.7676840">
        <ele>654.1</ele>
        <time>2019-05-04T07:10:51Z</time>
      </trkpt>
      <trkpt lat="40.4123710" lon="-3.7677480">
        <ele>654.6</ele>
        <time>2019-05-04T07:10:52Z</time>
      </trkpt>
      <trkpt lat="40.4123570" lon="-3.7678150">
        <ele>655.0</ele>
        <time>2019-05-04T07:10:53Z</time>
      </trkpt>
      <trkpt lat="40.4123460" lon="-3.7678790">
        <ele>655.3</ele>
        <time>2019-05-04T07:10:54Z</time>
      </trkpt>
      <trkpt lat="40.4123390" lon="-3.7679410">
        <ele>655.7</ele>
        <time>2019-05-04T07:10:55Z</time>
      </trkpt>
      <trkpt lat="40.4123320" lon="-3.7680020">
        <ele>656.1</ele>
        <time>2019-05-04T07:10:56Z</time>
      </trkpt>
      <trkpt lat="40.4123240" lon="-3.7680650">
        <ele>656.4</ele>
        <time>2019-05-04T07:10:57Z</time>
      </trkpt>
      <trkpt lat="40.4123160" lon="-3.7681270">
        <ele>656.8</ele>
        <time>2019-05-04T07:10:58Z</time>
      </trkpt>
      <trkpt lat="40.4123060" lon="-3.7681870">
        <ele>657.1</ele>
        <time>2019-05-04T07:10:59Z</time>
      </trkpt>
      <trkpt lat="40.4122950" lon="-3.7682490">
        <ele>657.5</ele>
        <time>2019-05-04T07:11:00Z</time>
      </trkpt>
      <trkpt lat="40.4122830" lon="-3.7683130">
        <ele>657.8</ele>
        <time>2019-05-04T07:11:01Z</time>
      </trkpt>
      <trkpt lat="40.4122720" lon="-3.7683790">
        <ele>658.1</ele>
        <time>2019-05-04T07:11:02Z</time>
      </trkpt>
      <trkpt lat="40.4122620" lon="-3.7684460">
        <ele>658.4</ele>
        <time>2019-05-04T07:11:03Z</time>
      </trkpt>
      <trkpt lat="40.4122530" lon="-3.7685140">
        <ele>658.7</ele>
        <time>2019-05-04T07:11:04Z</time>
      </trkpt>
      <trkpt lat="40.4122440" lon="-3.7685840">
        <ele>659.0</ele>
        <time>2019-05-04T07:11:05Z</time>
      </trkpt>
      <trkpt lat="40.4122380" lon="-3.7686560">
        <ele>659.4</ele>
        <time>2019-05-04T07:11:06Z</time>
      </trkpt>
      <trkpt lat="40.4122330" lon="-3.7687300">
        <ele>659.7</ele>
        <time>2019-05-04T07:11:07Z</time>
      </trkpt>
      <trkpt lat="40.4122310" lon="-3.7688050">
        <ele>660.0</ele>
        <time>2019-05-04T07:11:08Z</time>
      </trkpt>
      <trkpt lat="40.4122270" lon="-3.7688810">
        <ele>660.3</ele>
        <time>2019-05-04T07:11:09Z</time>
      </trkpt>
      <trkpt lat="40.4122240" lon="-3.7689560">
        <ele>660.7</ele>
        <time>2019-05-04T07:11:10Z</time>
      </trkpt>
      <trkpt lat="40.4122220" lon="-3.7690300">
        <ele>661.1</ele>
        <time>2019-05-04T07:11:11Z</time>
      </trkpt>
      <trkpt lat="40.4122200" lon="-3.7691030">
        <ele>661.4</ele>
        <time>2019-05-04T07:11:12Z</time>
      </trkpt>
      <trkpt lat="40.4122190" lon="-3.7691760">
        <ele>661.7</ele>
        <time>2019-05-04T07:11:13Z</time>
      </trkpt>
      <trkpt lat="40.4122170" lon="-3.7692500">
        <ele>662.1</ele>
        <time>2019-05-04T07:11:14Z</time>
      </trkpt>
      <trkpt lat="40.4122170" lon="-3.7693260">
        <ele>662.0</ele>
        <time>2019-05-04T07:11:15Z</time>
      </trkpt>
      <trkpt lat="40.4122170" lon="-3.7694040">
        <ele>661.8</ele>
        <time>2019-05-04T07:11:16Z</time>
      </trkpt>
      <trkpt lat="40.4122170" lon="-3.7694820">
        <ele>661.7</ele>
        <time>2019-05-04T07:11:17Z</time>
      </trkpt>
      <trkpt lat="40.4122180" lon="-3.7695600">
        <ele>661.5</ele>
        <time>2019-05-04T07:11:18Z</time>
      </trkpt>
      <trkpt lat="40.4122180" lon="-3.7696390">
        <ele>661.4</ele>
        <time>2019-05-04T07:11:19Z</time>
      </trkpt>
      <trkpt lat="40.4122180" lon="-3.7697170">
        <ele>661.3</ele>
        <time>2019-05-04T07:11:20Z</time>
      </trkpt>
      <trkpt lat="40.4122180" lon="-3.7697960">
        <ele>661.5</ele>
        <time>2019-05-04T07:11:21Z</time>
      </trkpt>
      <trkpt lat="40.4122190" lon="-3.7698740">
        <ele>661.9</ele>
        <time>2019-05-04T07:11:22Z</time>
      </trkpt>
      <trkpt lat="40.4122190" lon="-3.7699510">
        <ele>662.3</ele>
        <time>2019-05-04T07:11:23Z</time>
      </trkpt>
      <trkpt lat="40.4122200" lon="-3.7700280">
        <ele>662.6</ele>
        <time>2019-05-04T07:11:24Z</time>
      </trkpt>
      <trkpt lat="40.4122200" lon="-3.7701040">
        <ele>662.8</ele>
        <time>2019-05-04T07:11:25Z</time>
      </trkpt>
      <trkpt lat="40.4122200" lon="-3.7701780">
        <ele>663.0</ele>
        <time>2019-05-04T07:11:26Z</time>
      </trkpt>
      <trkpt lat="40.4122220" lon="-3.7702530">
        <ele>663.1</ele>
        <time>2019-05-04T07:11:27Z</time>
      </trkpt>
      <trkpt lat="40.4122250" lon="-3.7703270">
        <ele>663.3</ele>
        <time>2019-05-04T07:11:28Z</time>
      </trkpt>
      <trkpt lat="40.4122290" lon="-3.7704010">
        <ele>663.7</ele>
        <time>2019-05-04T07:11:29Z</time>
      </trkpt>
      <trkpt lat="40.4122310" lon="-3.7704730">
        <ele>663.9</ele>
        <time>2019-05-04T07:11:30Z</time>
      </trkpt>
      <trkpt lat="40.4122340" lon="-3.7705460">
        <ele>664.2</ele>
        <time>2019-05-04T07:11:31Z</time>
      </trkpt>
      <trkpt lat="40.4122360" lon="-3.7706180">
        <ele>664.5</ele>
        <time>2019-05-04T07:11:32Z</time>
      </trkpt>
      <trkpt lat="40.4122390" lon="-3.7706930">
        <ele>664.8</ele>
        <time>2019-05-04T07:11:33Z</time>
      </trkpt>
      <trkpt lat="40.4122430" lon="-3.7707670">
        <ele>665.0</ele>
        <time>2019-05-04T07:11:34Z</time>
      </trkpt>
      <trkpt lat="40.4122460" lon="-3.7708430">
        <ele>665.2</ele>
        <time>2019-05-04T07:11:35Z</time>
      </trkpt>
      <trkpt lat="40.4122490" lon="-3.7709200">
        <ele>665.4</ele>
        <time>2019-05-04T07:11:36Z</time>
      </trkpt>
      <trkpt lat="40.4122520" lon="-3.7709990">
        <ele>665.7</ele>
        <time>2019-05-04T07:11:37Z</time>
      </trkpt>
      <trkpt lat="40.4122530" lon="-3.7710770">
        <ele>666.0</ele>
        <time>2019-05-04T07:11:38Z</time>
      </trkpt>
      <trkpt lat="40.4122550" lon="-3.7711590">
        <ele>666.4</ele>
        <time>2019-05-04T07:11:39Z</time>
      </trkpt>
      <trkpt lat="40.4122550" lon="-3.7712450">
        <ele>666.7</ele>
        <time>2019-05-04T07:11:40Z</time>
      </trkpt>
      <trkpt lat="40.4122550" lon="-3.7713350">
        <ele>667.2</ele>
        <time>2019-05-04T07:11:41Z</time>
      </trkpt>
      <trkpt lat="40.4122540" lon="-3.7714250">
        <ele>667.6</ele>
        <time>2019-05-04T07:11:42Z</time>
      </trkpt>
      <trkpt lat="40.4122510" lon="-3.7715140">
        <ele>667.9</ele>
        <time>2019-05-04T07:11:43Z</time>
      </trkpt>
      <trkpt lat="40.4122470" lon="-3.7716000">
        <ele>668.3</ele>
        <time>2019-05-04T07:11:44Z</time>
      </trkpt>
      <trkpt lat="40.4122420" lon="-3.7716820">
        <ele>668.6</ele>
        <time>2019-05-04T07:11:45Z</time>
      </trkpt>
      <trkpt lat="40.4122360" lon="-3.7717650">
        <ele>668.9</ele>
        <time>2019-05-04T07:11:46Z</time>
      </trkpt>
      <trkpt lat="40.4122300" lon="-3.7718460">
        <ele>669.2</ele>
        <time>2019-05-04T07:11:47Z</time>
      </trkpt>
      <trkpt lat="40.4122220" lon="-3.7719220">
        <ele>669.5</ele>
        <time>2019-05-04T07:11:48Z</time>
      </trkpt>
      <trkpt lat="40.4122140" lon="-3.7719950">
        <ele>669.7</ele>
        <time>2019-05-04T07:11:49Z</time>
      </trkpt>
      <trkpt lat="40.4122070" lon="-3.7720670">
        <ele>669.9</ele>
        <time>2019-05-04T07:11:50Z</time>
      </trkpt>
      <trkpt lat="40.4122010" lon="-3.7721400">
        <ele>670.1</ele>
        <time>2019-05-04T07:11:51Z</time>
      </trkpt>
      <trkpt lat="40.4121950" lon="-3.7722110">
        <ele>670.2</ele>
        <time>2019-05-04T07:11:52Z</time>
      </trkpt>
      <trkpt lat="40.4121900" lon="-3.7722760">
        <ele>670.4</ele>
        <time>2019-05-04T07:11:53Z</time>
      </trkpt>
      <trkpt lat="40.4121840" lon="-3.7723380">
        <ele>670.5</ele>
        <time>2019-05-04T07:11:54Z</time>
      </trkpt>
      <trkpt lat="40.4121780" lon="-3.7723960">
        <ele>670.6</ele>
        <time>2019-05-04T07:11:55Z</time>
      </trkpt>
      <trkpt lat="40.4121710" lon="-3.7724550">
        <ele>670.7</ele>
        <time>2019-05-04T07:11:56Z</time>
      </trkpt>
      <trkpt lat="40.4121630" lon="-3.7725150">
        <ele>670.7</ele>
        <time>2019-05-04T07:11:57Z</time>
      </trkpt>
      <trkpt lat="40.4121550" lon="-3.7725790">
        <ele>670.8</ele>
        <time>2019-05-04T07:11:58Z</time>
      </trkpt>
      <trkpt lat="40.4121470" lon="-3.7726410">
        <ele>670.9</ele>
        <time>2019-05-04T07:11:59Z</time>
      </trkpt>
      <trkpt lat="40.4121370" lon="-3.7727010">
        <ele>670.9</ele>
        <time>2019-05-04T07:12:00Z</time>
      </trkpt>
      <trkpt lat="40.4121260" lon="-3.7727590">
        <ele>671.0</ele>
        <time>2019-05-04T07:12:01Z</time>
      </trkpt>
      <trkpt lat="40.4121160" lon="-3.7728160">
        <ele>671.1</ele>
        <time>2019-05-04T07:12:02Z</time>
      </trkpt>
      <trkpt lat="40.4121070" lon="-3.7728730">
        <ele>671.1</ele>
        <time>2019-05-04T07:12:03Z</time>
      </trkpt>
      <trkpt lat="40.4120980" lon="-3.7729310">
        <ele>671.2</ele>
        <time>2019-05-04T07:12:04Z</time>
      </trkpt>
      <trkpt lat="40.4120880" lon="-3.7729870">
        <ele>671.3</ele>
        <time>2019-05-04T07:12:05Z</time>
      </trkpt>
      <trkpt lat="40.4120770" lon="-3.7730430">
        <ele>671.3</ele>
        <time>2019-05-04T07:12:06Z</time>
      </trkpt>
      <trkpt lat="40.4120660" lon="-3.7731000">
        <ele>671.4</ele>
        <time>2019-05-04T07:12:07Z</time>
      </trkpt>
      <trkpt lat="40.4120530" lon="-3.7731570">
        <ele>671.5</ele>
        <time>2019-05-04T07:12:08Z</time>
      </trkpt>
      <trkpt lat="40.4120390" lon="-3.7732110">
        <ele>671.6</ele>
        <time>2019-05-04T07:12:09Z</time>
      </trkpt>
      <trkpt lat="40.4120240" lon="-3.7732630">
        <ele>671.7</ele>
        <time>2019-05-04T07:12:10Z</time>
      </trkpt>
      <trkpt lat="40.4120080" lon="-3.7733120">
        <ele>671.8</ele>
        <time>2019-05-04T07:12:11Z</time>
      </trkpt>
      <trkpt lat="40.4119930" lon="-3.7733600">
        <ele>671.9</ele>
        <time>2019-05-04T07:12:12Z</time>
      </trkpt>
      <trkpt lat="40.4119820" lon="-3.7734040">
        <ele>671.9</ele>
        <time>2019-05-04T07:12:13Z</time>
      </trkpt>
      <trkpt lat="40.4119750" lon="-3.7734420">
        <ele>672.0</ele>
        <time>2019-05-04T07:12:14Z</time>
      </trkpt>
      <trkpt lat="40.4119680" lon="-3.7734740">
        <ele>672.1</ele>
        <time>2019-05-04T07:12:15Z</time>
      </trkpt>
      <trkpt lat="40.4119600" lon="-3.7735030">
        <ele>672.2</ele>
        <time>2019-05-04T07:12:16Z</time>
      </trkpt>
      <trkpt lat="40.4119500" lon="-3.7735320">
        <ele>672.2</ele>
        <time>2019-05-04T07:12:17Z</time>
      </trkpt>
      <trkpt lat="40.4119410" lon="-3.7735620">
        <ele>672.3</ele>
        <time>2019-05-04T07:12:18Z</time>
      </trkpt>
      <trkpt lat="40.4119330" lon="-3.7735920">
        <ele>672.4</ele>
        <time>2019-05-04T07:12:19Z</time>
      </trkpt>
      <trkpt lat="40.4119260" lon="-3.7736220">
        <ele>672.3</ele>
        <time>2019-05-04T07:12:20Z</time>
      </trkpt>
      <trkpt lat="40.4119210" lon="-3.7736510">
        <ele>672.3</ele>
        <time>2019-05-04T07:12:21Z</time>
      </trkpt>
      <trkpt lat="40.4119130" lon="-3.7736780">
        <ele>672.2</ele>
        <time>2019-05-04T07:12:22Z</time>
      </trkpt>
      <trkpt lat="40.4119020" lon="-3.7736940">
        <ele>672.2</ele>
        <time>2019-05-04T07:12:23Z</time>
      </trkpt>
      <trkpt lat="40.4118870" lon="-3.7736970">
        <ele>672.1</ele>
        <time>2019-05-04T07:12:24Z</time>
      </trkpt>
      <trkpt lat="40.4118810" lon="-3.7736880">
        <ele>672.1</ele>
        <time>2019-05-04T07:12:25Z</time>
      </trkpt>
      <trkpt lat="40.4118810" lon="-3.7736800">
        <ele>672.1</ele>
        <time>2019-05-04T07:12:26Z</time>
      </trkpt>
      <trkpt lat="40.4118880" lon="-3.7736700">
        <ele>672.1</ele>
        <time>2019-05-04T07:12:27Z</time>
      </trkpt>
      <trkpt lat="40.4118920" lon="-3.7736570">
        <ele>672.0</ele>
        <time>2019-05-04T07:12:28Z</time>
      </trkpt>
      <trkpt lat="40.4119000" lon="-3.7736350">
        <ele>672.0</ele>
        <time>2019-05-04T07:12:29Z</time>
      </trkpt>
      <trkpt lat="40.4119090" lon="-3.7736010">
        <ele>671.9</ele>
        <time>2019-05-04T07:12:30Z</time>
      </trkpt>
      <trkpt lat="40.4119260" lon="-3.7735570">
        <ele>671.8</ele>
        <time>2019-05-04T07:12:31Z</time>
      </trkpt>
      <trkpt lat="40.4119420" lon="-3.7735090">
        <ele>671.7</ele>
        <time>2019-05-04T07:12:32Z</time>
      </trkpt>
      <trkpt lat="40.4119590" lon="-3.7734630">
        <ele>671.7</ele>
        <time>2019-05-04T07:12:33Z</time>
      </trkpt>
      <trkpt lat="40.4119730" lon="-3.7734180">
        <ele>671.6</ele>
        <time>2019-05-04T07:12:34Z</time>
      </trkpt>
      <trkpt lat="40.4119890" lon="-3.7733710">
        <ele>671.5</ele>
        <time>2019-05-04T07:12:35Z</time>
      </trkpt>
      <trkpt lat="40.4120050" lon="-3.7733250">
        <ele>671.5</ele>
        <time>2019-05-04T07:12:36Z</time>
      </trkpt>
      <trkpt lat="40.4120180" lon="-3.7732790">
        <ele>671.4</ele>
        <time>2019-05-04T07:12:37Z</time>
      </trkpt>
      <trkpt lat="40.4120310" lon="-3.7732320">
        <ele>671.3</ele>
        <time>2019-05-04T07:12:38Z</time>
      </trkpt>
      <trkpt lat="40.4120450" lon="-3.7731840">
        <ele>671.3</ele>
        <time>2019-05-04T07:12:39Z</time>
      </trkpt>
      <trkpt lat="40.4120590" lon="-3.7731370">
        <ele>671.2</ele>
        <time>2019-05-04T07:12:40Z</time>
      </trkpt>
      <trkpt lat="40.4120740" lon="-3.7730850">
        <ele>671.2</ele>
        <time>2019-05-04T07:12:41Z</time>
      </trkpt>
      <trkpt lat="40.4120900" lon="-3.7730320">
        <ele>671.1</ele>
        <time>2019-05-04T07:12:42Z</time>
      </trkpt>
      <trkpt lat="40.4121070" lon="-3.7729760">
        <ele>671.1</ele>
        <time>2019-05-04T07:12:43Z</time>
      </trkpt>
      <trkpt lat="40.4121240" lon="-3.7729210">
        <ele>671.0</ele>
        <time>2019-05-04T07:12:44Z</time>
      </trkpt>
      <trkpt lat="40.4121400" lon="-3.7728640">
        <ele>670.9</ele>
        <time>2019-05-04T07:12:45Z</time>
      </trkpt>
      <trkpt lat="40.4121540" lon="-3.7728070">
        <ele>670.9</ele>
        <time>2019-05-04T07:12:46Z</time>
      </trkpt>
      <trkpt lat="40.4121650" lon="-3.7727520">
        <ele>670.8</ele>
        <time>2019-05-04T07:12:47Z</time>
      </trkpt>
      <trkpt lat="40.4121750" lon="-3.7726980">
        <ele>670.8</ele>
        <time>2019-05-04T07:12:48Z</time>
      </trkpt>
      <trkpt lat="40.4121840" lon="-3.7726460">
        <ele>670.7</ele>
        <time>2019-05-04T07:12:49Z</time>
      </trkpt>
      <trkpt lat="40.4121920" lon="-3.7725890">
        <ele>670.6</ele>
        <time>2019-05-04T07:12:50Z</time>
      </trkpt>
      <trkpt lat="40.4121990" lon="-3.7725300">
        <ele>670.6</ele>
        <time>2019-05-04T07:12:51Z</time>
      </trkpt>
      <trkpt lat="40.4122070" lon="-3.7724660">
        <ele>670.5</ele>
        <time>2019-05-04T07:12:52Z</time>
      </trkpt>
      <trkpt lat="40.4122130" lon="-3.7724000">
        <ele>670.4</ele>
        <time>2019-05-04T07:12:53Z</time>
      </trkpt>
      <trkpt lat="40.4122170" lon="-3.7723280">
        <ele>670.3</ele>
        <time>2019-05-04T07:12:54Z</time>
      </trkpt>
      <trkpt lat="40.4122210" lon="-3.7722490">
        <ele>670.1</ele>
        <time>2019-05-04T07:12:55Z</time>
      </trkpt>
      <trkpt lat="40.4122270" lon="-3.7721670">
        <ele>669.9</ele>
        <time>2019-05-04T07:12:56Z</time>
      </trkpt>
      <trkpt lat="40.4122340" lon="-3.7720840">
        <ele>669.7</ele>
        <time>2019-05-04T07:12:57Z</time>
      </trkpt>
      <trkpt lat="40.4122420" lon="-3.7720040">
        <ele>669.5</ele>
        <time>2019-05-04T07:12:58Z</time>
      </trkpt>
      <trkpt lat="40.4122520" lon="-3.7719260">
        <ele>669.3</ele>
        <time>2019-05-04T07:12:59Z</time>
      </trkpt>
      <trkpt lat="40.4122620" lon="-3.7718450">
        <ele>669.0</ele>
        <time>2019-05-04T07:13:00Z</time>
      </trkpt>
      <trkpt lat="40.4122680" lon="-3.7717600">
        <ele>668.7</ele>
        <time>2019-05-04T07:13:01Z</time>
      </trkpt>
      <trkpt lat="40.4122700" lon="-3.7716740">
        <ele>668.4</ele>
        <time>2019-05-04T07:13:02Z</time>
      </trkpt>
      <trkpt lat="40.4122710" lon="-3.7715910">
        <ele>668.1</ele>
        <time>2019-05-04T07:13:03Z</time>
      </trkpt>
      <trkpt lat="40.4122710" lon="-3.7715070">
        <ele>667.8</ele>
        <time>2019-05-04T07:13:04Z</time>
      </trkpt>
      <trkpt lat="40.4122700" lon="-3.7714210">
        <ele>667.5</ele>
        <time>2019-05-04T07:13:05Z</time>
      </trkpt>
      <trkpt lat="40.4122670" lon="-3.7713350">
        <ele>667.1</ele>
        <time>2019-05-04T07:13:06Z</time>
      </trkpt>
      <trkpt lat="40.4122630" lon="-3.7712480">
        <ele>666.8</ele>
        <time>2019-05-04T07:13:07Z</time>
      </trkpt>
      <trkpt lat="40.4122580" lon="-3.7711580">
        <ele>666.4</ele>
        <time>2019-05-04T07:13:08Z</time>
      </trkpt>
      <trkpt lat="40.4122530" lon="-3.7710660">
        <ele>666.0</ele>
        <time>2019-05-04T07:13:09Z</time>
      </trkpt>
      <trkpt lat="40.4122490" lon="-3.7709730">
        <ele>665.6</ele>
        <time>2019-05-04T07:13:10Z</time>
      </trkpt>
      <trkpt lat="40.4122450" lon="-3.7708810">
        <ele>665.3</ele>
        <time>2019-05-04T07:13:11Z</time>
      </trkpt>
      <trkpt lat="40.4122420" lon="-3.7707900">
        <ele>665.1</ele>
        <time>2019-05-04T07:13:12Z</time>
      </trkpt>
      <trkpt lat="40.4122390" lon="-3.7706980">
        <ele>664.8</ele>
        <time>2019-05-04T07:13:13Z</time>
      </trkpt>
      <trkpt lat="40.4122370" lon="-3.7706050">
        <ele>664.5</ele>
        <time>2019-05-04T07:13:14Z</time>
      </trkpt>
      <trkpt lat="40.4122340" lon="-3.7705110">
        <ele>664.1</ele>
        <time>2019-05-04T07:13:15Z</time>
      </trkpt>
      <trkpt lat="40.4122310" lon="-3.7704170">
        <ele>663.7</ele>
        <time>2019-05-04T07:13:16Z</time>
      </trkpt>
      <trkpt lat="40.4122290" lon="-3.7703230">
        <ele>663.3</ele>
        <time>2019-05-04T07:13:17Z</time>
      </trkpt>
      <trkpt lat="40.4122260" lon="-3.7702290">
        <ele>663.1</ele>
        <time>2019-05-04T07:13:18Z</time>
      </trkpt>
      <trkpt lat="40.4122270" lon="-3.7701330">
        <ele>662.8</ele>
        <time>2019-05-04T07:13:19Z</time>
      </trkpt>
      <trkpt lat="40.4122270" lon="-3.7700350">
        <ele>662.6</ele>
        <time>2019-05-04T07:13:20Z</time>
      </trkpt>
      <trkpt lat="40.4122270" lon="-3.7699360">
        <ele>662.2</ele>
        <time>2019-05-04T07:13:21Z</time>
      </trkpt>
      <trkpt lat="40.4122250" lon="-3.7698380">
        <ele>661.7</ele>
        <time>2019-05-04T07:13:22Z</time>
      </trkpt>
      <trkpt lat="40.4122230" lon="-3.7697390">
        <ele>661.2</ele>
        <time>2019-05-04T07:13:23Z</time>
      </trkpt>
      <trkpt lat="40.4122200" lon="-3.7696410">
        <ele>661.4</ele>
        <time>2019-05-04T07:13:24Z</time>
      </trkpt>
      <trkpt lat="40.4122180" lon="-3.7695430">
        <ele>661.5</ele>
        <time>2019-05-04T07:13:25Z</time>
      </trkpt>
      <trkpt lat="40.4122160" lon="-3.7694460">
        <ele>661.7</ele>
        <time>2019-05-04T07:13:26Z</time>
      </trkpt>
      <trkpt lat="40.4122160" lon="-3.7693500">
        <ele>661.8</ele>
        <time>2019-05-04T07:13:27Z</time>
      </trkpt>
      <trkpt lat="40.4122170" lon="-3.7692530">
        <ele>662.0</ele>
        <time>2019-05-04T07:13:28Z</time>
      </trkpt>
      <trkpt lat="40.4122180" lon="-3.7691540">
        <ele>662.1</ele>
        <time>2019-05-04T07:13:29Z</time>
      </trkpt>
      <trkpt lat="40.4122220" lon="-3.7690520">
        <ele>661.2</ele>
        <time>2019-05-04T07:13:30Z</time>
      </trkpt>
      <trkpt lat="40.4122270" lon="-3.7689440">
        <ele>660.7</ele>
        <time>2019-05-04T07:13:31Z</time>
      </trkpt>
      <trkpt lat="40.4122350" lon="-3.7688320">
        <ele>660.1</ele>
        <time>2019-05-04T07:13:32Z</time>
      </trkpt>
      <trkpt lat="40.4122450" lon="-3.7687150">
        <ele>659.7</ele>
        <time>2019-05-04T07:13:33Z</time>
      </trkpt>
      <trkpt lat="40.4122570" lon="-3.7685970">
        <ele>659.1</ele>
        <time>2019-05-04T07:13:34Z</time>
      </trkpt>
      <trkpt lat="40.4122700" lon="-3.7684760">
        <ele>658.5</ele>
        <time>2019-05-04T07:13:35Z</time>
      </trkpt>
      <trkpt lat="40.4122850" lon="-3.7683560">
        <ele>658.0</ele>
        <time>2019-05-04T07:13:36Z</time>
      </trkpt>
      <trkpt lat="40.4123010" lon="-3.7682340">
        <ele>657.4</ele>
        <time>2019-05-04T07:13:37Z</time>
      </trkpt>
      <trkpt lat="40.4123190" lon="-3.7681120">
        <ele>656.7</ele>
        <time>2019-05-04T07:13:38Z</time>
      </trkpt>
      <trkpt lat="40.4123360" lon="-3.7679880">
        <ele>656.0</ele>
        <time>2019-05-04T07:13:39Z</time>
      </trkpt>
      <trkpt lat="40.4123580" lon="-3.7678620">
        <ele>655.2</ele>
        <time>2019-05-04T07:13:40Z</time>
      </trkpt>
      <trkpt lat="40.4123860" lon="-3.7677350">
        <ele>654.4</ele>
        <time>2019-05-04T07:13:41Z</time>
      </trkpt>
      <trkpt lat="40.4124220" lon="-3.7676090">
        <ele>653.6</ele>
        <time>2019-05-04T07:13:42Z</time>
      </trkpt>
      <trkpt lat="40.4124650" lon="-3.7674860">
        <ele>652.6</ele>
        <time>2019-05-04T07:13:43Z</time>
      </trkpt>
      <trkpt lat="40.4125120" lon="-3.7673640">
        <ele>651.8</ele>
        <time>2019-05-04T07:13:44Z</time>
      </trkpt>
      <trkpt lat="40.4125620" lon="-3.7672400">
        <ele>651.1</ele>
        <time>2019-05-04T07:13:45Z</time>
      </trkpt>
      <trkpt lat="40.4126170" lon="-3.7671110">
        <ele>650.4</ele>
        <time>2019-05-04T07:13:46Z</time>
      </trkpt>
      <trkpt lat="40.4126720" lon="-3.7669800">
        <ele>649.8</ele>
        <time>2019-05-04T07:13:47Z</time>
      </trkpt>
      <trkpt lat="40.4127270" lon="-3.7668480">
        <ele>649.3</ele>
        <time>2019-05-04T07:13:48Z</time>
      </trkpt>
      <trkpt lat="40.4127800" lon="-3.7667170">
        <ele>648.8</ele>
        <time>2019-05-04T07:13:49Z</time>
      </trkpt>
      <trkpt lat="40.4128310" lon="-3.7665860">
        <ele>648.3</ele>
        <time>2019-05-04T07:13:50Z</time>
      </trkpt>
      <trkpt lat="40.4128800" lon="-3.7664550">
        <ele>648.1</ele>
        <time>2019-05-04T07:13:51Z</time>
      </trkpt>
      <trkpt lat="40.4129250" lon="-3.7663210">
        <ele>648.1</ele>
        <time>2019-05-04T07:13:52Z</time>
      </trkpt>
      <trkpt lat="40.4129650" lon="-3.7661860">
        <ele>648.3</ele>
        <time>2019-05-04T07:13:53Z</time>
      </trkpt>
      <trkpt lat="40.4130000" lon="-3.7660500">
        <ele>648.1</ele>
        <time>2019-05-04T07:13:54Z</time>
      </trkpt>
      <trkpt lat="40.4130280" lon="-3.7659130">
        <ele>647.8</ele>
        <time>2019-05-04T07:13:55Z</time>
      </trkpt>
      <trkpt lat="40.4130540" lon="-3.7657770">
        <ele>647.6</ele>
        <time>2019-05-04T07:13:56Z</time>
      </trkpt>
      <trkpt lat="40.4130770" lon="-3.7656430">
        <ele>647.6</ele>
        <time>2019-05-04T07:13:57Z</time>
      </trkpt>
      <trkpt lat="40.4131000" lon="-3.7655110">
        <ele>647.4</ele>
        <time>2019-05-04T07:13:58Z</time>
      </trkpt>
      <trkpt lat="40.4131210" lon="-3.7653820">
        <ele>647.1</ele>
        <time>2019-05-04T07:13:59Z</time>
      </trkpt>
      <trkpt lat="40.4131410" lon="-3.7652570">
        <ele>646.6</ele>
        <time>2019-05-04T07:14:00Z</time>
      </trkpt>
      <trkpt lat="40.4131610" lon="-3.7651340">
        <ele>646.2</ele>
        <time>2019-05-04T07:14:01Z</time>
      </trkpt>
      <trkpt lat="40.4131810" lon="-3.7650130">
        <ele>645.8</ele>
        <time>2019-05-04T07:14:02Z</time>
      </trkpt>
      <trkpt lat="40.4132010" lon="-3.7648950">
        <ele>645.6</ele>
        <time>2019-05-04T07:14:03Z</time>
      </trkpt>
      <trkpt lat="40.4132170" lon="-3.7647780">
        <ele>645.4</ele>
        <time>2019-05-04T07:14:04Z</time>
      </trkpt>
      <trkpt lat="40.4132330" lon="-3.7646610">
        <ele>645.1</ele>
        <time>2019-05-04T07:14:05Z</time>
      </trkpt>
      <trkpt lat="40.4132500" lon="-3.7645420">
        <ele>644.7</ele>
        <time>2019-05-04T07:14:06Z</time>
      </trkpt>
      <trkpt lat="40.4132680" lon="-3.7644200">
        <ele>644.0</ele>
        <time>2019-05-04T07:14:07Z</time>
      </trkpt>
      <trkpt lat="40.4132870" lon="-3.7642970">
        <ele>643.2</ele>
        <time>2019-05-04T07:14:08Z</time>
      </trkpt>
      <trkpt lat="40.4133060" lon="-3.7641710">
        <ele>642.2</ele>
        <time>2019-05-04T07:14:09Z</time>
      </trkpt>
      <trkpt lat="40.4133270" lon="-3.7640410">
        <ele>641.4</ele>
        <time>2019-05-04T07:14:10Z</time>
      </trkpt>
      <trkpt lat="40.4133480" lon="-3.7639050">
        <ele>640.7</ele>
        <time>2019-05-04T07:14:11Z</time>
      </trkpt>
      <trkpt lat="40.4133670" lon="-3.7637660">
        <ele>640.1</ele>
        <time>2019-05-04T07:14:12Z</time>
      </trkpt>
      <trkpt lat="40.4133830" lon="-3.7636250">
        <ele>639.6</ele>
        <time>2019-05-04T07:14:13Z</time>
      </trkpt>
      <trkpt lat="40.4134000" lon="-3.7634830">
        <ele>639.1</ele>
        <time>2019-05-04T07:14:14Z</time>
      </trkpt>
      <trkpt lat="40.4134220" lon="-3.7633380">
        <ele>638.5</ele>
        <time>2019-05-04T07:14:15Z</time>
      </trkpt>
      <trkpt lat="40.4134460" lon="-3.7631920">
        <ele>638.0</ele>
        <time>2019-05-04T07:14:16Z</time>
      </trkpt>
      <trkpt lat="40.4134690" lon="-3.7630410">
        <ele>637.3</ele>
        <time>2019-05-04T07:14:17Z</time>
      </trkpt>
      <trkpt lat="40.4134860" lon="-3.7628890">
        <ele>636.7</ele>
        <time>2019-05-04T07:14:18Z</time>
      </trkpt>
      <trkpt lat="40.4134970" lon="-3.7627350">
        <ele>636.1</ele>
        <time>2019-05-04T07:14:19Z</time>
      </trkpt>
      <trkpt lat="40.4134990" lon="-3.7625820">
        <ele>635.7</ele>
        <time>2019-05-04T07:14:20Z</time>
      </trkpt>
      <trkpt lat="40.4134900" lon="-3.7624290">
        <ele>635.4</ele>
        <time>2019-05-04T07:14:21Z</time>
      </trkpt>
      <trkpt lat="40.4134680" lon="-3.7622760">
        <ele>635.0</ele>
        <time>2019-05-04T07:14:22Z</time>
      </trkpt>
      <trkpt lat="40.4134360" lon="-3.7621280">
        <ele>634.6</ele>
        <time>2019-05-04T07:14:23Z</time>
      </trkpt>
      <trkpt lat="40.4134060" lon="-3.7619820">
        <ele>634.3</ele>
        <time>2019-05-04T07:14:24Z</time>
      </trkpt>
      <trkpt lat="40.4133860" lon="-3.7618390">
        <ele>634.0</ele>
        <time>2019-05-04T07:14:25Z</time>
      </trkpt>
      <trkpt lat="40.4133740" lon="-3.7616980">
        <ele>633.7</ele>
        <time>2019-05-04T07:14:26Z</time>
      </trkpt>
      <trkpt lat="40.4133650" lon="-3.7615600">
        <ele>633.4</ele>
        <time>2019-05-04T07:14:27Z</time>
      </trkpt>
      <trkpt lat="40.4133580" lon="-3.7614270">
        <ele>633.0</ele>
        <time>2019-05-04T07:14:28Z</time>
      </trkpt>
      <trkpt lat="40.4133550" lon="-3.7612960">
        <ele>632.7</ele>
        <time>2019-05-04T07:14:29Z</time>
      </trkpt>
      <trkpt lat="40.4133570" lon="-3.7611660">
        <ele>632.5</ele>
        <time>2019-05-04T07:14:30Z</time>
      </trkpt>
      <trkpt lat="40.4133660" lon="-3.7610370">
        <ele>632.4</ele>
        <time>2019-05-04T07:14:31Z</time>
      </trkpt>
      <trkpt lat="40.4133760" lon="-3.7609090">
        <ele>632.4</ele>
        <time>2019-05-04T07:14:32Z</time>
      </trkpt>
      <trkpt lat="40.4133870" lon="-3.7607840">
        <ele>632.2</ele>
        <time>2019-05-04T07:14:33Z</time>
      </trkpt>
      <trkpt lat="40.4133910" lon="-3.7606620">
        <ele>632.1</ele>
        <time>2019-05-04T07:14:34Z</time>
      </trkpt>
      <trkpt lat="40.4133940" lon="-3.7605440">
        <ele>631.9</ele>
        <time>2019-05-04T07:14:35Z</time>
      </trkpt>
      <trkpt lat="40.4133960" lon="-3.7604270">
        <ele>631.8</ele>
        <time>2019-05-04T07:14:36Z</time>
      </trkpt>
      <trkpt lat="40.4134010" lon="-3.7603130">
        <ele>631.8</ele>
        <time>2019-05-04T07:14:37Z</time>
      </trkpt>
      <trkpt lat="40.4134090" lon="-3.7602000">
        <ele>631.8</ele>
        <time>2019-05-04T07:14:38Z</time>
      </trkpt>
      <trkpt lat="40.4134170" lon="-3.7600900">
        <ele>631.8</ele>
        <time>2019-05-04T07:14:39Z</time>
      </trkpt>
      <trkpt lat="40.4134230" lon="-3.7599800">
        <ele>631.8</ele>
        <time>2019-05-04T07:14:40Z</time>
      </trkpt>
      <trkpt lat="40.4134270" lon="-3.7598710">
        <ele>631.8</ele>
        <time>2019-05-04T07:14:41Z</time>
      </trkpt>
      <trkpt lat="40.4134310" lon="-3.7597610">
        <ele>631.7</ele>
        <time>2019-05-04T07:14:42Z</time>
      </trkpt>
      <trkpt lat="40.4134340" lon="-3.7596510">
        <ele>631.7</ele>
        <time>2019-05-04T07:14:43Z</time>
      </trkpt>
      <trkpt lat="40.4134350" lon="-3.7595430">
        <ele>631.7</ele>
        <time>2019-05-04T07:14:44Z</time>
      </trkpt>
      <trkpt lat="40.4134360" lon="-3.7594350">
        <ele>631.6</ele>
        <time>2019-05-04T07:14:45Z</time>
      </trkpt>
      <trkpt lat="40.4134320" lon="-3.7593260">
        <ele>631.5</ele>
        <time>2019-05-04T07:14:46Z</time>
      </trkpt>
      <trkpt lat="40.4134240" lon="-3.7592190">
        <ele>631.1</ele>
        <time>2019-05-04T07:14:47Z</time>
      </trkpt>
      <trkpt lat="40.4134100" lon="-3.7591150">
        <ele>630.7</ele>
        <time>2019-05-04T07:14:48Z</time>
      </trkpt>
      <trkpt lat="40.4133950" lon="-3.7590150">
        <ele>630.4</ele>
        <time>2019-05-04T07:14:49Z</time>
      </trkpt>
      <trkpt lat="40.4133780" lon="-3.7589160">
        <ele>630.1</ele>
        <time>2019-05-04T07:14:50Z</time>
      </trkpt>
      <trkpt lat="40.4133630" lon="-3.7588200">
        <ele>629.9</ele>
        <time>2019-05-04T07:14:51Z</time>
      </trkpt>
      <trkpt lat="40.4133470" lon="-3.7587230">
        <ele>629.8</ele>
        <time>2019-05-04T07:14:52Z</time>
      </trkpt>
      <trkpt lat="40.4133350" lon="-3.7586230">
        <ele>629.7</ele>
        <time>2019-05-04T07:14:53Z</time>
      </trkpt>
      <trkpt lat="40.4133220" lon="-3.7585190">
        <ele>629.5</ele>
        <time>2019-05-04T07:14:54Z</time>
      </trkpt>
      <trkpt lat="40.4133080" lon="-3.7584150">
        <ele>629.1</ele>
        <time>2019-05-04T07:14:55Z</time>
      </trkpt>
      <trkpt lat="40.4132910" lon="-3.7583140">
        <ele>628.8</ele>
        <time>2019-05-04T07:14:56Z</time>
      </trkpt>
      <trkpt lat="40.4132760" lon="-3.7582120">
        <ele>628.5</ele>
        <time>2019-05-04T07:14:57Z</time>
      </trkpt>
      <trkpt lat="40.4132630" lon="-3.7581110">
        <ele>628.4</ele>
        <time>2019-05-04T07:14:58Z</time>
      </trkpt>
      <trkpt lat="40.4132540" lon="-3.7580110">
        <ele>628.3</ele>
        <time>2019-05-04T07:14:59Z</time>
      </trkpt>
      <trkpt lat="40.4132520" lon="-3.7579110">
        <ele>628.2</ele>
        <time>2019-05-04T07:15:00Z</time>
      </trkpt>
      <trkpt lat="40.4132580" lon="-3.7578130">
        <ele>627.8</ele>
        <time>2019-05-04T07:15:01Z</time>
      </trkpt>
      <trkpt lat="40.4132770" lon="-3.7577210">
        <ele>627.5</ele>
        <time>2019-05-04T07:15:02Z</time>
      </trkpt>
      <trkpt lat="40.4133020" lon="-3.7576350">
        <ele>627.3</ele>
        <time>2019-05-04T07:15:03Z</time>
      </trkpt>
      <trkpt lat="40.4133320" lon="-3.7575530">
        <ele>627.2</ele>
        <time>2019-05-04T07:15:04Z</time>
      </trkpt>
      <trkpt lat="40.4133640" lon="-3.7574680">
        <ele>627.1</ele>
        <time>2019-05-04T07:15:05Z</time>
      </trkpt>
      <trkpt lat="40.4133970" lon="-3.7573830">
        <ele>627.2</ele>
        <time>2019-05-04T07:15:06Z</time>
      </trkpt>
      <trkpt lat="40.4134350" lon="-3.7572970">
        <ele>627.3</ele>
        <time>2019-05-04T07:15:07Z</time>
      </trkpt>
      <trkpt lat="40.4134770" lon="-3.7572080">
        <ele>627.5</ele>
        <time>2019-05-04T07:15:08Z</time>
      </trkpt>
      <trkpt lat="40.4135200" lon="-3.7571130">
        <ele>627.7</ele>
        <time>2019-05-04T07:15:09Z</time>
      </trkpt>
      <trkpt lat="40.4135600" lon="-3.7570140">
        <ele>627.8</ele>
        <time>2019-05-04T07:15:10Z</time>
      </trkpt>
      <trkpt lat="40.4135950" lon="-3.7569140">
        <ele>627.9</ele>
        <time>2019-05-04T07:15:11Z</time>
      </trkpt>
      <trkpt lat="40.4136280" lon="-3.7568160">
        <ele>628.0</ele>
        <time>2019-05-04T07:15:12Z</time>
      </trkpt>
      <trkpt lat="40.4136610" lon="-3.7567190">
        <ele>627.8</ele>
        <time>2019-05-04T07:15:13Z</time>
      </trkpt>
      <trkpt lat="40.4136930" lon="-3.7566220">
        <ele>627.5</ele>
        <time>2019-05-04T07:15:14Z</time>
      </trkpt>
      <trkpt lat="40.4137280" lon="-3.7565280">
        <ele>627.3</ele>
        <time>2019-05-04T07:15:15Z</time>
      </trkpt>
      <trkpt lat="40.4137630" lon="-3.7564320">
        <ele>627.2</ele>
        <time>2019-05-04T07:15:16Z</time>
      </trkpt>
      <trkpt lat="40.4137990" lon="-3.7563380">
        <ele>627.0</ele>
        <time>2019-05-04T07:15:17Z</time>
      </trkpt>
      <trkpt lat="40.4138370" lon="-3.7562430">
        <ele>626.8</ele>
        <time>2019-05-04T07:15:18Z</time>
      </trkpt>
      <trkpt lat="40.4138770" lon="-3.7561490">
        <ele>626.6</ele>
        <time>2019-05-04T07:15:19Z</time>
      </trkpt>
      <trkpt lat="40.4139180" lon="-3.7560580">
        <ele>626.3</ele>
        <time>2019-05-04T07:15:20Z</time>
      </trkpt>
      <trkpt lat="40.4139610" lon="-3.7559690">
        <ele>626.2</ele>
        <time>2019-05-04T07:15:21Z</time>
      </trkpt>
      <trkpt lat="40.4140070" lon="-3.7558840">
        <ele>626.1</ele>
        <time>2019-05-04T07:15:22Z</time>
      </trkpt>
      <trkpt lat="40.4140570" lon="-3.7558020">
        <ele>626.1</ele>
        <time>2019-05-04T07:15:23Z</time>
      </trkpt>
      <trkpt lat="40.4141090" lon="-3.7557230">
        <ele>626.1</ele>
        <time>2019-05-04T07:15:24Z</time>
      </trkpt>
      <trkpt lat="40.4141630" lon="-3.7556470">
        <ele>626.1</ele>
        <time>2019-05-04T07:15:25Z</time>
      </trkpt>
      <trkpt lat="40.4142170" lon="-3.7555740">
        <ele>626.1</ele>
        <time>2019-05-04T07:15:26Z</time>
      </trkpt>
      <trkpt lat="40.4142700" lon="-3.7555030">
        <ele>626.0</ele>
        <time>2019-05-04T07:15:27Z</time>
      </trkpt>
      <trkpt lat="40.4143210" lon="-3.7554340">
        <ele>626.0</ele>
        <time>2019-05-04T07:15:28Z</time>
      </trkpt>
      <trkpt lat="40.4143720" lon="-3.7553650">
        <ele>626.0</ele>
        <time>2019-05-04T07:15:29Z</time>
      </trkpt>
      <trkpt lat="40.4144200" lon="-3.7552950">
        <ele>625.9</ele>
        <time>2019-05-04T07:15:30Z</time>
      </trkpt>
      <trkpt lat="40.4144680" lon="-3.7552260">
        <ele>625.9</ele>
        <time>2019-05-04T07:15:31Z</time>
      </trkpt>
      <trkpt lat="40.4145150" lon="-3.7551540">
        <ele>625.9</ele>
        <time>2019-05-04T07:15:32Z</time>
      </trkpt>
      <trkpt lat="40.4145620" lon="-3.7550810">
        <ele>625.8</ele>
        <time>2019-05-04T07:15:33Z</time>
      </trkpt>
      <trkpt lat="40.4146090" lon="-3.7550050">
        <ele>625.8</ele>
        <time>2019-05-04T07:15:34Z</time>
      </trkpt>
      <trkpt lat="40.4146540" lon="-3.7549260">
        <ele>625.8</ele>
        <time>2019-05-04T07:15:35Z</time>
      </trkpt>
      <trkpt lat="40.4146990" lon="-3.7548450">
        <ele>625.7</ele>
        <time>2019-05-04T07:15:36Z</time>
      </trkpt>
      <trkpt lat="40.4147400" lon="-3.7547650">
        <ele>625.7</ele>
        <time>2019-05-04T07:15:37Z</time>
      </trkpt>
      <trkpt lat="40.4147790" lon="-3.7546870">
        <ele>625.7</ele>
        <time>2019-05-04T07:15:38Z</time>
      </trkpt>
      <trkpt lat="40.4148150" lon="-3.7546090">
        <ele>625.6</ele>
        <time>2019-05-04T07:15:39Z</time>
      </trkpt>
      <trkpt lat="40.4148500" lon="-3.7545330">
        <ele>625.6</ele>
        <time>2019-05-04T07:15:40Z</time>
      </trkpt>
      <trkpt lat="40.4148840" lon="-3.7544580">
        <ele>625.6</ele>
        <time>2019-05-04T07:15:41Z</time>
      </trkpt>
      <trkpt lat="40.4149180" lon="-3.7543830">
        <ele>625.5</ele>
        <time>2019-05-04T07:15:42Z</time>
      </trkpt>
      <trkpt lat="40.4149530" lon="-3.7543080">
        <ele>625.5</ele>
        <time>2019-05-04T07:15:43Z</time>
      </trkpt>
      <trkpt lat="40.4149900" lon="-3.7542310">
        <ele>625.4</ele>
        <time>2019-05-04T07:15:44Z</time>
      </trkpt>
      <trkpt lat="40.4150270" lon="-3.7541550">
        <ele>625.3</ele>
        <time>2019-05-04T07:15:45Z</time>
      </trkpt>
      <trkpt lat="40.4150670" lon="-3.7540790">
        <ele>625.3</ele>
        <time>2019-05-04T07:15:46Z</time>
      </trkpt>
      <trkpt lat="40.4151060" lon="-3.7540080">
        <ele>625.2</ele>
        <time>2019-05-04T07:15:47Z</time>
      </trkpt>
      <trkpt lat="40.4151460" lon="-3.7539380">
        <ele>625.1</ele>
        <time>2019-05-04T07:15:48Z</time>
      </trkpt>
      <trkpt lat="40.4151870" lon="-3.7538690">
        <ele>625.0</ele>
        <time>2019-05-04T07:15:49Z</time>
      </trkpt>
      <trkpt lat="40.4152280" lon="-3.7537980">
        <ele>624.9</ele>
        <time>2019-05-04T07:15:50Z</time>
      </trkpt>
      <trkpt lat="40.4152700" lon="-3.7537290">
        <ele>624.8</ele>
        <time>2019-05-04T07:15:51Z</time>
      </trkpt>
      <trkpt lat="40.4153120" lon="-3.7536610">
        <ele>624.7</ele>
        <time>2019-05-04T07:15:52Z</time>
      </trkpt>
      <trkpt lat="40.4153540" lon="-3.7535940">
        <ele>624.6</ele>
        <time>2019-05-04T07:15:53Z</time>
      </trkpt>
      <trkpt lat="40.4153960" lon="-3.7535270">
        <ele>624.3</ele>
        <time>2019-05-04T07:15:54Z</time>
      </trkpt>
      <trkpt lat="40.4154370" lon="-3.7534580">
        <ele>624.3</ele>
        <time>2019-05-04T07:15:55Z</time>
      </trkpt>
      <trkpt lat="40.4154780" lon="-3.7533900">
        <ele>624.3</ele>
        <time>2019-05-04T07:15:56Z</time>
      </trkpt>
      <trkpt lat="40.4155180" lon="-3.7533210">
        <ele>624.3</ele>
        <time>2019-05-04T07:15:57Z</time>
      </trkpt>
      <trkpt lat="40.4155580" lon="-3.7532540">
        <ele>624.3</ele>
        <time>2019-05-04T07:15:58Z</time>
      </trkpt>
      <trkpt lat="40.4155960" lon="-3.7531850">
        <ele>624.3</ele>
        <time>2019-05-04T07:15:59Z</time>
      </trkpt>
      <trkpt lat="40.4156330" lon="-3.7531140">
        <ele>624.3</ele>
        <time>2019-05-04T07:16:00Z</time>
      </trkpt>
      <trkpt lat="40.4156680" lon="-3.7530400">
        <ele>624.4</ele>
        <time>2019-05-04T07:16:01Z</time>
      </trkpt>
      <trkpt lat="40.4156990" lon="-3.7529620">
        <ele>624.4</ele>
        <time>2019-05-04T07:16:02Z</time>
      </trkpt>
      <trkpt lat="40.4157280" lon="-3.7528810">
        <ele>624.4</ele>
        <time>2019-05-04T07:16:03Z</time>
      </trkpt>
      <trkpt lat="40.4157530" lon="-3.7527960">
        <ele>624.3</ele>
        <time>2019-05-04T07:16:04Z</time>
      </trkpt>
      <trkpt lat="40.4157710" lon="-3.7527090">
        <ele>624.3</ele>
        <time>2019-05-04T07:16:05Z</time>
      </trkpt>
      <trkpt lat="40.4157830" lon="-3.7526170">
        <ele>624.2</ele>
        <time>2019-05-04T07:16:06Z</time>
      </trkpt>
      <trkpt lat="40.4157880" lon="-3.7525180">
        <ele>624.1</ele>
        <time>2019-05-04T07:16:07Z</time>
      </trkpt>
      <trkpt lat="40.4157890" lon="-3.7524140">
        <ele>623.9</ele>
        <time>2019-05-04T07:16:08Z</time>
      </trkpt>
      <trkpt lat="40.4157880" lon="-3.7523090">
        <ele>623.7</ele>
        <time>2019-05-04T07:16:09Z</time>
      </trkpt>
      <trkpt lat="40.4157850" lon="-3.7522080">
        <ele>623.5</ele>
        <time>2019-05-04T07:16:10Z</time>
      </trkpt>
      <trkpt lat="40.4157840" lon="-3.7521080">
        <ele>623.3</ele>
        <time>2019-05-04T07:16:11Z</time>
      </trkpt>
      <trkpt lat="40.4157820" lon="-3.7520100">
        <ele>623.0</ele>
        <time>2019-05-04T07:16:12Z</time>
      </trkpt>
      <trkpt lat="40.4157820" lon="-3.7519120">
        <ele>622.8</ele>
        <time>2019-05-04T07:16:13Z</time>
      </trkpt>
      <trkpt lat="40.4157810" lon="-3.7518160">
        <ele>622.6</ele>
        <time>2019-05-04T07:16:14Z</time>
      </trkpt>
      <trkpt lat="40.4157820" lon="-3.7517180">
        <ele>622.4</ele>
        <time>2019-05-04T07:16:15Z</time>
      </trkpt>
      <trkpt lat="40.4157840" lon="-3.7516200">
        <ele>622.3</ele>
        <time>2019-05-04T07:16:16Z</time>
      </trkpt>
      <trkpt lat="40.4157850" lon="-3.7515220">
        <ele>622.2</ele>
        <time>2019-05-04T07:16:17Z</time>
      </trkpt>
      <trkpt lat="40.4157840" lon="-3.7514230">
        <ele>622.1</ele>
        <time>2019-05-04T07:16:18Z</time>
      </trkpt>
      <trkpt lat="40.4157830" lon="-3.7513240">
        <ele>622.0</ele>
        <time>2019-05-04T07:16:19Z</time>
      </trkpt>
      <trkpt lat="40.4157820" lon="-3.7512240">
        <ele>621.9</ele>
        <time>2019-05-04T07:16:20Z</time>
      </trkpt>
      <trkpt lat="40.4157820" lon="-3.7511240">
        <ele>621.8</ele>
        <time>2019-05-04T07:16:21Z</time>
      </trkpt>
      <trkpt lat="40.4157830" lon="-3.7510240">
        <ele>621.7</ele>
        <time>2019-05-04T07:16:22Z</time>
      </trkpt>
      <trkpt lat="40.4157840" lon="-3.7509230">
        <ele>621.7</ele>
        <time>2019-05-04T07:16:23Z</time>
      </trkpt>
      <trkpt lat="40.4157850" lon="-3.7508230">
        <ele>621.6</ele>
        <time>2019-05-04T07:16:24Z</time>
      </trkpt>
      <trkpt lat="40.4157870" lon="-3.7507230">
        <ele>621.5</ele>
        <time>2019-05-04T07:16:25Z</time>
      </trkpt>
      <trkpt lat="40.4157890" lon="-3.7506210">
        <ele>621.4</ele>
        <time>2019-05-04T07:16:26Z</time>
      </trkpt>
      <trkpt lat="40.4157920" lon="-3.7505180">
        <ele>621.4</ele>
        <time>2019-05-04T07:16:27Z</time>
      </trkpt>
      <trkpt lat="40.4157940" lon="-3.7504140">
        <ele>621.3</ele>
        <time>2019-05-04T07:16:28Z</time>
      </trkpt>
      <trkpt lat="40.4157960" lon="-3.7503110">
        <ele>621.3</ele>
        <time>2019-05-04T07:16:29Z</time>
      </trkpt>
      <trkpt lat="40.4157970" lon="-3.7502090">
        <ele>621.2</ele>
        <time>2019-05-04T07:16:30Z</time>
      </trkpt>
      <trkpt lat="40.4157970" lon="-3.7501070">
        <ele>621.2</ele>
        <time>2019-05-04T07:16:31Z</time>
      </trkpt>
      <trkpt lat="40.4157980" lon="-3.7500070">
        <ele>621.2</ele>
        <time>2019-05-04T07:16:32Z</time>
      </trkpt>
      <trkpt lat="40.4157980" lon="-3.7499090">
        <ele>621.1</ele>
        <time>2019-05-04T07:16:33Z</time>
      </trkpt>
      <trkpt lat="40.4157990" lon="-3.7498110">
        <ele>621.1</ele>
        <time>2019-05-04T07:16:34Z</time>
      </trkpt>
      <trkpt lat="40.4158000" lon="-3.7497130">
        <ele>621.1</ele>
        <time>2019-05-04T07:16:35Z</time>
      </trkpt>
      <trkpt lat="40.4158020" lon="-3.7496170">
        <ele>621.1</ele>
        <time>2019-05-04T07:16:36Z</time>
      </trkpt>
      <trkpt lat="40.4158060" lon="-3.7495210">
        <ele>621.0</ele>
        <time>2019-05-04T07:16:37Z</time>
      </trkpt>
      <trkpt lat="40.4158090" lon="-3.7494260">
        <ele>621.0</ele>
        <time>2019-05-04T07:16:38Z</time>
      </trkpt>
      <trkpt lat="40.4158110" lon="-3.7493300">
        <ele>620.9</ele>
        <time>2019-05-04T07:16:39Z</time>
      </trkpt>
      <trkpt lat="40.4158140" lon="-3.7492330">
        <ele>620.9</ele>
        <time>2019-05-04T07:16:40Z</time>
      </trkpt>
      <trkpt lat="40.4158200" lon="-3.7491360">
        <ele>620.8</ele>
        <time>2019-05-04T07:16:41Z</time>
      </trkpt>
      <trkpt lat="40.4158260" lon="-3.7490400">
        <ele>620.7</ele>
        <time>2019-05-04T07:16:42Z</time>
      </trkpt>
      <trkpt lat="40.4158300" lon="-3.7489460">
        <ele>620.7</ele>
        <time>2019-05-04T07:16:43Z</time>
      </trkpt>
      <trkpt lat="40.4158360" lon="-3.7488510">
        <ele>620.8</ele>
        <time>2019-05-04T07:16:44Z</time>
      </trkpt>
      <trkpt lat="40.4158440" lon="-3.7487570">
        <ele>620.9</ele>
        <time>2019-05-04T07:16:45Z</time>
      </trkpt>
      <trkpt lat="40.4158550" lon="-3.7486610">
        <ele>621.0</ele>
        <time>2019-05-04T07:16:46Z</time>
      </trkpt>
      <trkpt lat="40.4158660" lon="-3.7485660">
        <ele>621.2</ele>
        <time>2019-05-04T07:16:47Z</time>
      </trkpt>
      <trkpt lat="40.4158750" lon="-3.7484700">
        <ele>621.2</ele>
        <time>2019-05-04T07:16:48Z</time>
      </trkpt>
      <trkpt lat="40.4158850" lon="-3.7483740">
        <ele>620.9</ele>
        <time>2019-05-04T07:16:49Z</time>
      </trkpt>
      <trkpt lat="40.4158970" lon="-3.7482760">
        <ele>620.5</ele>
        <time>2019-05-04T07:16:50Z</time>
      </trkpt>
      <trkpt lat="40.4159100" lon="-3.7481760">
        <ele>620.2</ele>
        <time>2019-05-04T07:16:51Z</time>
      </trkpt>
      <trkpt lat="40.4159240" lon="-3.7480770">
        <ele>620.0</ele>
        <time>2019-05-04T07:16:52Z</time>
      </trkpt>
      <trkpt lat="40.4159380" lon="-3.7479780">
        <ele>619.8</ele>
        <time>2019-05-04T07:16:53Z</time>
      </trkpt>
      <trkpt lat="40.4159530" lon="-3.7478770">
        <ele>619.7</ele>
        <time>2019-05-04T07:16:54Z</time>
      </trkpt>
      <trkpt lat="40.4159690" lon="-3.7477760">
        <ele>619.6</ele>
        <time>2019-05-04T07:16:55Z</time>
      </trkpt>
      <trkpt lat="40.4159860" lon="-3.7476740">
        <ele>619.5</ele>
        <time>2019-05-04T07:16:56Z</time>
      </trkpt>
      <trkpt lat="40.4160050" lon="-3.7475720">
        <ele>619.4</ele>
        <time>2019-05-04T07:16:57Z</time>
      </trkpt>
      <trkpt lat="40.4160240" lon="-3.7474690">
        <ele>619.4</ele>
        <time>2019-05-04T07:16:58Z</time>
      </trkpt>
      <trkpt lat="40.4160410" lon="-3.7473670">
        <ele>619.6</ele>
        <time>2019-05-04T07:16:59Z</time>
      </trkpt>
      <trkpt lat="40.4160550" lon="-3.7472660">
        <ele>619.7</ele>
        <time>2019-05-04T07:17:00Z</time>
      </trkpt>
      <trkpt lat="40.4160670" lon="-3.7471670">
        <ele>619.9</ele>
        <time>2019-05-04T07:17:01Z</time>
      </trkpt>
      <trkpt lat="40.4160790" lon="-3.7470670">
        <ele>620.0</ele>
        <time>2019-05-04T07:17:02Z</time>
      </trkpt>
      <trkpt lat="40.4160910" lon="-3.7469700">
        <ele>620.2</ele>
        <time>2019-05-04T07:17:03Z</time>
      </trkpt>
      <trkpt lat="40.4161040" lon="-3.7468740">
        <ele>620.3</ele>
        <time>2019-05-04T07:17:04Z</time>
      </trkpt>
      <trkpt lat="40.4161170" lon="-3.7467810">
        <ele>620.4</ele>
        <time>2019-05-04T07:17:05Z</time>
      </trkpt>
      <trkpt lat="40.4161300" lon="-3.7466920">
        <ele>620.5</ele>
        <time>2019-05-04T07:17:06Z</time>
      </trkpt>
      <trkpt lat="40.4161450" lon="-3.7466060">
        <ele>620.6</ele>
        <time>2019-05-04T07:17:07Z</time>
      </trkpt>
      <trkpt lat="40.4161600" lon="-3.7465200">
        <ele>620.8</ele>
        <time>2019-05-04T07:17:08Z</time>
      </trkpt>
      <trkpt lat="40.4161760" lon="-3.7464330">
        <ele>620.9</ele>
        <time>2019-05-04T07:17:09Z</time>
      </trkpt>
      <trkpt lat="40.4161930" lon="-3.7463420">
        <ele>621.0</ele>
        <time>2019-05-04T07:17:10Z</time>
      </trkpt>
      <trkpt lat="40.4162100" lon="-3.7462510">
        <ele>620.9</ele>
        <time>2019-05-04T07:17:11Z</time>
      </trkpt>
      <trkpt lat="40.4162330" lon="-3.7461580">
        <ele>620.8</ele>
        <time>2019-05-04T07:17:12Z</time>
      </trkpt>
      <trkpt lat="40.4162600" lon="-3.7460650">
        <ele>620.7</ele>
        <time>2019-05-04T07:17:13Z</time>
      </trkpt>
      <trkpt lat="40.4162880" lon="-3.7459720">
        <ele>620.1</ele>
        <time>2019-05-04T07:17:14Z</time>
      </trkpt>
      <trkpt lat="40.4163100" lon="-3.7458820">
        <ele>619.6</ele>
        <time>2019-05-04T07:17:15Z</time>
      </trkpt>
      <trkpt lat="40.4163310" lon="-3.7457940">
        <ele>619.2</ele>
        <time>2019-05-04T07:17:16Z</time>
      </trkpt>
      <trkpt lat="40.4163510" lon="-3.7457100">
        <ele>619.0</ele>
        <time>2019-05-04T07:17:17Z</time>
      </trkpt>
      <trkpt lat="40.4163710" lon="-3.7456250">
        <ele>618.9</ele>
        <time>2019-05-04T07:17:18Z</time>
      </trkpt>
      <trkpt lat="40.4163940" lon="-3.7455400">
        <ele>619.0</ele>
        <time>2019-05-04T07:17:19Z</time>
      </trkpt>
      <trkpt lat="40.4164200" lon="-3.7454530">
        <ele>619.0</ele>
        <time>2019-05-04T07:17:20Z</time>
      </trkpt>
      <trkpt lat="40.4164460" lon="-3.7453650">
        <ele>619.1</ele>
        <time>2019-05-04T07:17:21Z</time>
      </trkpt>
      <trkpt lat="40.4164690" lon="-3.7452780">
        <ele>619.2</ele>
        <time>2019-05-04T07:17:22Z</time>
      </trkpt>
      <trkpt lat="40.4164900" lon="-3.7451920">
        <ele>619.1</ele>
        <time>2019-05-04T07:17:23Z</time>
      </trkpt>
      <trkpt lat="40.4165080" lon="-3.7451060">
        <ele>619.1</ele>
        <time>2019-05-04T07:17:24Z</time>
      </trkpt>
      <trkpt lat="40.4165250" lon="-3.7450220">
        <ele>618.9</ele>
        <time>2019-05-04T07:17:25Z</time>
      </trkpt>
      <trkpt lat="40.4165410" lon="-3.7449390">
        <ele>618.8</ele>
        <time>2019-05-04T07:17:26Z</time>
      </trkpt>
      <trkpt lat="40.4165580" lon="-3.7448550">
        <ele>618.5</ele>
        <time>2019-05-04T07:17:27Z</time>
      </trkpt>
      <trkpt lat="40.4165770" lon="-3.7447700">
        <ele>618.3</ele>
        <time>2019-05-04T07:17:28Z</time>
      </trkpt>
      <trkpt lat="40.4165940" lon="-3.7446820">
        <ele>618.0</ele>
        <time>2019-05-04T07:17:29Z</time>
      </trkpt>
      <trkpt lat="40.4166150" lon="-3.7445930">
        <ele>617.8</ele>
        <time>2019-05-04T07:17:30Z</time>
      </trkpt>
      <trkpt lat="40.4166390" lon="-3.7445050">
        <ele>617.6</ele>
        <time>2019-05-04T07:17:31Z</time>
      </trkpt>
      <trkpt lat="40.4166650" lon="-3.7444190">
        <ele>617.4</ele>
        <time>2019-05-04T07:17:32Z</time>
      </trkpt>
      <trkpt lat="40.4166880" lon="-3.7443350">
        <ele>617.2</ele>
        <time>2019-05-04T07:17:33Z</time>
      </trkpt>
      <trkpt lat="40.4167080" lon="-3.7442460">
        <ele>617.0</ele>
        <time>2019-05-04T07:17:34Z</time>
      </trkpt>
      <trkpt lat="40.4167300" lon="-3.7441520">
        <ele>616.7</ele>
        <time>2019-05-04T07:17:35Z</time>
      </trkpt>
      <trkpt lat="40.4167520" lon="-3.7440570">
        <ele>616.3</ele>
        <time>2019-05-04T07:17:36Z</time>
      </trkpt>
      <trkpt lat="40.4167750" lon="-3.7439630">
        <ele>615.9</ele>
        <time>2019-05-04T07:17:37Z</time>
      </trkpt>
      <trkpt lat="40.4168000" lon="-3.7438670">
        <ele>615.4</ele>
        <time>2019-05-04T07:17:38Z</time>
      </trkpt>
      <trkpt lat="40.4168280" lon="-3.7437690">
        <ele>614.8</ele>
        <time>2019-05-04T07:17:39Z</time>
      </trkpt>
      <trkpt lat="40.4168570" lon="-3.7436660">
        <ele>614.2</ele>
        <time>2019-05-04T07:17:40Z</time>
      </trkpt>
      <trkpt lat="40.4168880" lon="-3.7435630">
        <ele>614.0</ele>
        <time>2019-05-04T07:17:41Z</time>
      </trkpt>
      <trkpt lat="40.4169160" lon="-3.7434590">
        <ele>613.8</ele>
        <time>2019-05-04T07:17:42Z</time>
      </trkpt>
      <trkpt lat="40.4169450" lon="-3.7433570">
        <ele>613.8</ele>
        <time>2019-05-04T07:17:43Z</time>
      </trkpt>
      <trkpt lat="40.4169730" lon="-3.7432540">
        <ele>613.7</ele>
        <time>2019-05-04T07:17:44Z</time>
      </trkpt>
      <trkpt lat="40.4170030" lon="-3.7431480">
        <ele>613.7</ele>
        <time>2019-05-04T07:17:45Z</time>
      </trkpt>
      <trkpt lat="40.4170320" lon="-3.7430410">
        <ele>613.5</ele>
        <time>2019-05-04T07:17:46Z</time>
      </trkpt>
      <trkpt lat="40.4170600" lon="-3.7429340">
        <ele>613.3</ele>
        <time>2019-05-04T07:17:47Z</time>
      </trkpt>
      <trkpt lat="40.4170890" lon="-3.7428240">
        <ele>613.1</ele>
        <time>2019-05-04T07:17:48Z</time>
      </trkpt>
      <trkpt lat="40.4171180" lon="-3.7427150">
        <ele>613.0</ele>
        <time>2019-05-04T07:17:49Z</time>
      </trkpt>
      <trkpt lat="40.4171470" lon="-3.7426070">
        <ele>612.9</ele>
        <time>2019-05-04T07:17:50Z</time>
      </trkpt>
      <trkpt lat="40.4171750" lon="-3.7425020">
        <ele>612.8</ele>
        <time>2019-05-04T07:17:51Z</time>
      </trkpt>
      <trkpt lat="40.4172030" lon="-3.7424000">
        <ele>612.7</ele>
        <time>2019-05-04T07:17:52Z</time>
      </trkpt>
      <trkpt lat="40.4172320" lon="-3.7423000">
        <ele>612.6</ele>
        <time>2019-05-04T07:17:53Z</time>
      </trkpt>
      <trkpt lat="40.4172620" lon="-3.7422010">
        <ele>612.5</ele>
        <time>2019-05-04T07:17:54Z</time>
      </trkpt>
      <trkpt lat="40.4172900" lon="-3.7421040">
        <ele>612.3</ele>
        <time>2019-05-04T07:17:55Z</time>
      </trkpt>
      <trkpt lat="40.4173140" lon="-3.7420070">
        <ele>612.1</ele>
        <time>2019-05-04T07:17:56Z</time>
      </trkpt>
      <trkpt lat="40.4173340" lon="-3.7419090">
        <ele>611.9</ele>
        <time>2019-05-04T07:17:57Z</time>
      </trkpt>
      <trkpt lat="40.4173500" lon="-3.7418090">
        <ele>611.7</ele>
        <time>2019-05-04T07:17:58Z</time>
      </trkpt>
      <trkpt lat="40.4173590" lon="-3.7417080">
        <ele>611.5</ele>
        <time>2019-05-04T07:17:59Z</time>
      </trkpt>
      <trkpt lat="40.4173610" lon="-3.7416020">
        <ele>611.4</ele>
        <time>2019-05-04T07:18:00Z</time>
      </trkpt>
      <trkpt lat="40.4173610" lon="-3.7414960">
        <ele>611.3</ele>
        <time>2019-05-04T07:18:01Z</time>
      </trkpt>
      <trkpt lat="40.4173610" lon="-3.7413910">
        <ele>611.3</ele>
        <time>2019-05-04T07:18:02Z</time>
      </trkpt>
      <trkpt lat="40.4173630" lon="-3.7412900">
        <ele>611.2</ele>
        <time>2019-05-04T07:18:03Z</time>
      </trkpt>
      <trkpt lat="40.4173630" lon="-3.7411900">
        <ele>611.1</ele>
        <time>2019-05-04T07:18:04Z</time>
      </trkpt>
      <trkpt lat="40.4173590" lon="-3.7410860">
        <ele>611.0</ele>
        <time>2019-05-04T07:18:05Z</time>
      </trkpt>
      <trkpt lat="40.4173520" lon="-3.7409820">
        <ele>610.9</ele>
        <time>2019-05-04T07:18:06Z</time>
      </trkpt>
      <trkpt lat="40.4173440" lon="-3.7408780">
        <ele>610.7</ele>
        <time>2019-05-04T07:18:07Z</time>
      </trkpt>
      <trkpt lat="40.4173360" lon="-3.7407740">
        <ele>610.6</ele>
        <time>2019-05-04T07:18:08Z</time>
      </trkpt>
      <trkpt lat="40.4173290" lon="-3.7406700">
        <ele>610.5</ele>
        <time>2019-05-04T07:18:09Z</time>
      </trkpt>
      <trkpt lat="40.4173250" lon="-3.7405690">
        <ele>610.4</ele>
        <time>2019-05-04T07:18:10Z</time>
      </trkpt>
      <trkpt lat="40.4173210" lon="-3.7404690">
        <ele>610.3</ele>
        <time>2019-05-04T07:18:11Z</time>
      </trkpt>
      <trkpt lat="40.4173160" lon="-3.7403690">
        <ele>610.2</ele>
        <time>2019-05-04T07:18:12Z</time>
      </trkpt>
      <trkpt lat="40.4173120" lon="-3.7402700">
        <ele>610.1</ele>
        <time>2019-05-04T07:18:13Z</time>
      </trkpt>
      <trkpt lat="40.4173090" lon="-3.7401730">
        <ele>610.1</ele>
        <time>2019-05-04T07:18:14Z</time>
      </trkpt>
      <trkpt lat="40.4173040" lon="-3.7400780">
        <ele>610.0</ele>
        <time>2019-05-04T07:18:15Z</time>
      </trkpt>
      <trkpt lat="40.4172990" lon="-3.7399820">
        <ele>610.0</ele>
        <time>2019-05-04T07:18:16Z</time>
      </trkpt>
      <trkpt lat="40.4172920" lon="-3.7398840">
        <ele>610.0</ele>
        <time>2019-05-04T07:18:17Z</time>
      </trkpt>
      <trkpt lat="40.4172870" lon="-3.7397870">
        <ele>610.0</ele>
        <time>2019-05-04T07:18:18Z</time>
      </trkpt>
      <trkpt lat="40.4172810" lon="-3.7396890">
        <ele>609.9</ele>
        <time>2019-05-04T07:18:19Z</time>
      </trkpt>
      <trkpt lat="40.4172770" lon="-3.7395910">
        <ele>609.9</ele>
        <time>2019-05-04T07:18:20Z</time>
      </trkpt>
      <trkpt lat="40.4172710" lon="-3.7394960">
        <ele>609.8</ele>
        <time>2019-05-04T07:18:21Z</time>
      </trkpt>
      <trkpt lat="40.4172650" lon="-3.7394030">
        <ele>609.8</ele>
        <time>2019-05-04T07:18:22Z</time>
      </trkpt>
      <trkpt lat="40.4172580" lon="-3.7393100">
        <ele>609.7</ele>
        <time>2019-05-04T07:18:23Z</time>
      </trkpt>
      <trkpt lat="40.4172550" lon="-3.7392130">
        <ele>609.6</ele>
        <time>2019-05-04T07:18:24Z</time>
      </trkpt>
      <trkpt lat="40.4172510" lon="-3.7391150">
        <ele>609.5</ele>
        <time>2019-05-04T07:18:25Z</time>
      </trkpt>
      <trkpt lat="40.4172480" lon="-3.7390200">
        <ele>609.3</ele>
        <time>2019-05-04T07:18:26Z</time>
      </trkpt>
      <trkpt lat="40.4172430" lon="-3.7389250">
        <ele>609.2</ele>
        <time>2019-05-04T07:18:27Z</time>
      </trkpt>
      <trkpt lat="40.4172400" lon="-3.7388260">
        <ele>609.1</ele>
        <time>2019-05-04T07:18:28Z</time>
      </trkpt>
      <trkpt lat="40.4172370" lon="-3.7387260">
        <ele>609.1</ele>
        <time>2019-05-04T07:18:29Z</time>
      </trkpt>
      <trkpt lat="40.4172340" lon="-3.7386250">
        <ele>609.0</ele>
        <time>2019-05-04T07:18:30Z</time>
      </trkpt>
      <trkpt lat="40.4172330" lon="-3.7385270">
        <ele>609.0</ele>
        <time>2019-05-04T07:18:31Z</time>
      </trkpt>
      <trkpt lat="40.4172350" lon="-3.7384320">
        <ele>608.9</ele>
        <time>2019-05-04T07:18:32Z</time>
      </trkpt>
      <trkpt lat="40.4172380" lon="-3.7383410">
        <ele>608.8</ele>
        <time>2019-05-04T07:18:33Z</time>
      </trkpt>
      <trkpt lat="40.4172360" lon="-3.7382490">
        <ele>608.8</ele>
        <time>2019-05-04T07:18:34Z</time>
      </trkpt>
      <trkpt lat="40.4172310" lon="-3.7381550">
        <ele>608.8</ele>
        <time>2019-05-04T07:18:35Z</time>
      </trkpt>
      <trkpt lat="40.4172270" lon="-3.7380610">
        <ele>608.9</ele>
        <time>2019-05-04T07:18:36Z</time>
      </trkpt>
      <trkpt lat="40.4172250" lon="-3.7379710">
        <ele>608.9</ele>
        <time>2019-05-04T07:18:37Z</time>
      </trkpt>
      <trkpt lat="40.4172210" lon="-3.7378770">
        <ele>608.9</ele>
        <time>2019-05-04T07:18:38Z</time>
      </trkpt>
      <trkpt lat="40.4172180" lon="-3.7377770">
        <ele>608.9</ele>
        <time>2019-05-04T07:18:39Z</time>
      </trkpt>
      <trkpt lat="40.4172150" lon="-3.7376770">
        <ele>608.8</ele>
        <time>2019-05-04T07:18:40Z</time>
      </trkpt>
      <trkpt lat="40.4172130" lon="-3.7375810">
        <ele>608.7</ele>
        <time>2019-05-04T07:18:41Z</time>
      </trkpt>
      <trkpt lat="40.4172110" lon="-3.7374920">
        <ele>608.7</ele>
        <time>2019-05-04T07:18:42Z</time>
      </trkpt>
      <trkpt lat="40.4172090" lon="-3.7374020">
        <ele>608.7</ele>
        <time>2019-05-04T07:18:43Z</time>
      </trkpt>
      <trkpt lat="40.4172090" lon="-3.7373120">
        <ele>608.7</ele>
        <time>2019-05-04T07:18:44Z</time>
      </trkpt>
      <trkpt lat="40.4172110" lon="-3.7372220">
        <ele>608.6</ele>
        <time>2019-05-04T07:18:45Z</time>
      </trkpt>
      <trkpt lat="40.4172150" lon="-3.7371350">
        <ele>608.6</ele>
        <time>2019-05-04T07:18:46Z</time>
      </trkpt>
      <trkpt lat="40.4172180" lon="-3.7370480">
        <ele>608.5</ele>
        <time>2019-05-04T07:18:47Z</time>
      </trkpt>
      <trkpt lat="40.4172220" lon="-3.7369610">
        <ele>608.3</ele>
        <time>2019-05-04T07:18:48Z</time>
      </trkpt>
      <trkpt lat="40.4172300" lon="-3.7368770">
        <ele>608.2</ele>
        <time>2019-05-04T07:18:49Z</time>
      </trkpt>
      <trkpt lat="40.4172380" lon="-3.7367960">
        <ele>608.1</ele>
        <time>2019-05-04T07:18:50Z</time>
      </trkpt>
      <trkpt lat="40.4172460" lon="-3.7367240">
        <ele>608.0</ele>
        <time>2019-05-04T07:18:51Z</time>
      </trkpt>
      <trkpt lat="40.4172550" lon="-3.7366520">
        <ele>607.9</ele>
        <time>2019-05-04T07:18:52Z</time>
      </trkpt>
      <trkpt lat="40.4172650" lon="-3.7365800">
        <ele>607.7</ele>
        <time>2019-05-04T07:18:53Z</time>
      </trkpt>
      <trkpt lat="40.4172760" lon="-3.7365050">
        <ele>607.6</ele>
        <time>2019-05-04T07:18:54Z</time>
      </trkpt>
      <trkpt lat="40.4172820" lon="-3.7364330">
        <ele>607.5</ele>
        <time>2019-05-04T07:18:55Z</time>
      </trkpt>
      <trkpt lat="40.4172850" lon="-3.7363630">
        <ele>607.4</ele>
        <time>2019-05-04T07:18:56Z</time>
      </trkpt>
      <trkpt lat="40.4172880" lon="-3.7362920">
        <ele>607.3</ele>
        <time>2019-05-04T07:18:57Z</time>
      </trkpt>
      <trkpt lat="40.4172920" lon="-3.7362200">
        <ele>607.2</ele>
        <time>2019-05-04T07:18:58Z</time>
      </trkpt>
      <trkpt lat="40.4172990" lon="-3.7361470">
        <ele>607.1</ele>
        <time>2019-05-04T07:18:59Z</time>
      </trkpt>
      <trkpt lat="40.4173040" lon="-3.7360750">
        <ele>607.0</ele>
        <time>2019-05-04T07:19:00Z</time>
      </trkpt>
      <trkpt lat="40.4173080" lon="-3.7360030">
        <ele>606.9</ele>
        <time>2019-05-04T07:19:01Z</time>
      </trkpt>
      <trkpt lat="40.4173140" lon="-3.7359340">
        <ele>606.7</ele>
        <time>2019-05-04T07:19:02Z</time>
      </trkpt>
      <trkpt lat="40.4173260" lon="-3.7358680">
        <ele>606.5</ele>
        <time>2019-05-04T07:19:03Z</time>
      </trkpt>
      <trkpt lat="40.4173420" lon="-3.7358060">
        <ele>606.3</ele>
        <time>2019-05-04T07:19:04Z</time>
      </trkpt>
      <trkpt lat="40.4173560" lon="-3.7357470">
        <ele>606.0</ele>
        <time>2019-05-04T07:19:05Z</time>
      </trkpt>
      <trkpt lat="40.4173710" lon="-3.7356940">
        <ele>605.7</ele>
        <time>2019-05-04T07:19:06Z</time>
      </trkpt>
      <trkpt lat="40.4173850" lon="-3.7356410">
        <ele>605.3</ele>
        <time>2019-05-04T07:19:07Z</time>
      </trkpt>
      <trkpt lat="40.4173990" lon="-3.7355830">
        <ele>605.0</ele>
        <time>2019-05-04T07:19:08Z</time>
      </trkpt>
      <trkpt lat="40.4174110" lon="-3.7355210">
        <ele>604.6</ele>
        <time>2019-05-04T07:19:09Z</time>
      </trkpt>
      <trkpt lat="40.4174160" lon="-3.7354520">
        <ele>604.2</ele>
        <time>2019-05-04T07:19:10Z</time>
      </trkpt>
      <trkpt lat="40.4174150" lon="-3.7353850">
        <ele>603.9</ele>
        <time>2019-05-04T07:19:11Z</time>
      </trkpt>
      <trkpt lat="40.4174060" lon="-3.7353210">
        <ele>603.7</ele>
        <time>2019-05-04T07:19:12Z</time>
      </trkpt>
      <trkpt lat="40.4173950" lon="-3.7352630">
        <ele>603.6</ele>
        <time>2019-05-04T07:19:13Z</time>
      </trkpt>
      <trkpt lat="40.4173800" lon="-3.7352030">
        <ele>603.4</ele>
        <time>2019-05-04T07:19:14Z</time>
      </trkpt>
      <trkpt lat="40.4173660" lon="-3.7351380">
        <ele>603.3</ele>
        <time>2019-05-04T07:19:15Z</time>
      </trkpt>
      <trkpt lat="40.4173610" lon="-3.7350720">
        <ele>603.2</ele>
        <time>2019-05-04T07:19:16Z</time>
      </trkpt>
      <trkpt lat="40.4173650" lon="-3.7350110">
        <ele>603.2</ele>
        <time>2019-05-04T07:19:17Z</time>
      </trkpt>
      <trkpt lat="40.4173820" lon="-3.7349500">
        <ele>603.2</ele>
        <time>2019-05-04T07:19:18Z</time>
      </trkpt>
      <trkpt lat="40.4174020" lon="-3.7348870">
        <ele>603.2</ele>
        <time>2019-05-04T07:19:19Z</time>
      </trkpt>
      <trkpt lat="40.4174240" lon="-3.7348210">
        <ele>602.0</ele>
        <time>2019-05-04T07:19:20Z</time>
      </trkpt>
      <trkpt lat="40.4174430" lon="-3.7347540">
        <ele>602.1</ele>
        <time>2019-05-04T07:19:21Z</time>
      </trkpt>
      <trkpt lat="40.4174590" lon="-3.7346890">
        <ele>602.2</ele>
        <time>2019-05-04T07:19:22Z</time>
      </trkpt>
      <trkpt lat="40.4174680" lon="-3.7346240">
        <ele>602.5</ele>
        <time>2019-05-04T07:19:23Z</time>
      </trkpt>
      <trkpt lat="40.4174710" lon="-3.7345610">
        <ele>602.5</ele>
        <time>2019-05-04T07:19:24Z</time>
      </trkpt>
      <trkpt lat="40.4174710" lon="-3.7344990">
        <ele>603.1</ele>
        <time>2019-05-04T07:19:25Z</time>
      </trkpt>
      <trkpt lat="40.4174720" lon="-3.7344390">
        <ele>603.3</ele>
        <time>2019-05-04T07:19:26Z</time>
      </trkpt>
      <trkpt lat="40.4174680" lon="-3.7343740">
        <ele>603.5</ele>
        <time>2019-05-04T07:19:27Z</time>
      </trkpt>
      <trkpt lat="40.4174610" lon="-3.7343070">
        <ele>603.7</ele>
        <time>2019-05-04T07:19:28Z</time>
      </trkpt>
      <trkpt lat="40.4174520" lon="-3.7342390">
        <ele>603.9</ele>
        <time>2019-05-04T07:19:29Z</time>
      </trkpt>
      <trkpt lat="40.4174420" lon="-3.7341670">
        <ele>602.5</ele>
        <time>2019-05-04T07:19:30Z</time>
      </trkpt>
      <trkpt lat="40.4174300" lon="-3.7340910">
        <ele>601.7</ele>
        <time>2019-05-04T07:19:31Z</time>
      </trkpt>
      <trkpt lat="40.4174190" lon="-3.7340140">
        <ele>601.0</ele>
        <time>2019-05-04T07:19:32Z</time>
      </trkpt>
      <trkpt lat="40.4174060" lon="-3.7339390">
        <ele>600.5</ele>
        <time>2019-05-04T07:19:33Z</time>
      </trkpt>
      <trkpt lat="40.4173960" lon="-3.7338660">
        <ele>599.9</ele>
        <time>2019-05-04T07:19:34Z</time>
      </trkpt>
      <trkpt lat="40.4173840" lon="-3.7337880">
        <ele>599.4</ele>
        <time>2019-05-04T07:19:35Z</time>
      </trkpt>
      <trkpt lat="40.4173730" lon="-3.7337100">
        <ele>598.7</ele>
        <time>2019-05-04T07:19:36Z</time>
      </trkpt>
      <trkpt lat="40.4173600" lon="-3.7336300">
        <ele>597.6</ele>
        <time>2019-05-04T07:19:37Z</time>
      </trkpt>
      <trkpt lat="40.4173480" lon="-3.7335500">
        <ele>596.8</ele>
        <time>2019-05-04T07:19:38Z</time>
      </trkpt>
      <trkpt lat="40.4173370" lon="-3.7334690">
        <ele>595.3</ele>
        <time>2019-05-04T07:19:39Z</time>
      </trkpt>
      <trkpt lat="40.4173280" lon="-3.7333870">
        <ele>595.6</ele>
        <time>2019-05-04T07:19:40Z</time>
      </trkpt>
      <trkpt lat="40.4173170" lon="-3.7333060">
        <ele>595.9</ele>
        <time>2019-05-04T07:19:41Z</time>
      </trkpt>
      <trkpt lat="40.4173070" lon="-3.7332260">
        <ele>596.3</ele>
        <time>2019-05-04T07:19:42Z</time>
      </trkpt>
      <trkpt lat="40.4172950" lon="-3.7331470">
        <ele>596.7</ele>
        <time>2019-05-04T07:19:43Z</time>
      </trkpt>
      <trkpt lat="40.4172820" lon="-3.7330690">
        <ele>597.1</ele>
        <time>2019-05-04T07:19:44Z</time>
      </trkpt>
      <trkpt lat="40.4172690" lon="-3.7329950">
        <ele>597.4</ele>
        <time>2019-05-04T07:19:45Z</time>
      </trkpt>
      <trkpt lat="40.4172570" lon="-3.7329300">
        <ele>597.7</ele>
        <time>2019-05-04T07:19:46Z</time>
      </trkpt>
      <trkpt lat="40.4172460" lon="-3.7328700">
        <ele>598.0</ele>
        <time>2019-05-04T07:19:47Z</time>
      </trkpt>
      <trkpt lat="40.4172340" lon="-3.7328100">
        <ele>598.2</ele>
        <time>2019-05-04T07:19:48Z</time>
      </trkpt>
      <trkpt lat="40.4172160" lon="-3.7327440">
        <ele>598.5</ele>
        <time>2019-05-04T07:19:49Z</time>
      </trkpt>
      <trkpt lat="40.4171960" lon="-3.7326750">
        <ele>598.7</ele>
        <time>2019-05-04T07:19:50Z</time>
      </trkpt>
      <trkpt lat="40.4171750" lon="-3.7326080">
        <ele>598.9</ele>
        <time>2019-05-04T07:19:51Z</time>
      </trkpt>
      <trkpt lat="40.4171550" lon="-3.7325440">
        <ele>599.2</ele>
        <time>2019-05-04T07:19:52Z</time>
      </trkpt>
      <trkpt lat="40.4171330" lon="-3.7324800">
        <ele>599.3</ele>
        <time>2019-05-04T07:19:53Z</time>
      </trkpt>
      <trkpt lat="40.4171100" lon="-3.7324150">
        <ele>599.5</ele>
        <time>2019-05-04T07:19:54Z</time>
      </trkpt>
      <trkpt lat="40.4170890" lon="-3.7323470">
        <ele>599.7</ele>
        <time>2019-05-04T07:19:55Z</time>
      </trkpt>
      <trkpt lat="40.4170700" lon="-3.7322800">
        <ele>599.9</ele>
        <time>2019-05-04T07:19:56Z</time>
      </trkpt>
      <trkpt lat="40.4170540" lon="-3.7322120">
        <ele>600.0</ele>
        <time>2019-05-04T07:19:57Z</time>
      </trkpt>
      <trkpt lat="40.4170380" lon="-3.7321450">
        <ele>600.1</ele>
        <time>2019-05-04T07:19:58Z</time>
      </trkpt>
      <trkpt lat="40.4170200" lon="-3.7320810">
        <ele>600.2</ele>
        <time>2019-05-04T07:19:59Z</time>
      </trkpt>
      <trkpt lat="40.4170000" lon="-3.7320180">
        <ele>600.3</ele>
        <time>2019-05-04T07:20:00Z</time>
      </trkpt>
      <trkpt lat="40.4169830" lon="-3.7319540">
        <ele>600.4</ele>
        <time>2019-05-04T07:20:01Z</time>
      </trkpt>
      <trkpt lat="40.4169720" lon="-3.7318850">
        <ele>600.4</ele>
        <time>2019-05-04T07:20:02Z</time>
      </trkpt>
      <trkpt lat="40.4169630" lon="-3.7318100">
        <ele>600.5</ele>
        <time>2019-05-04T07:20:03Z</time>
      </trkpt>
      <trkpt lat="40.4169550" lon="-3.7317310">
        <ele>600.5</ele>
        <time>2019-05-04T07:20:04Z</time>
      </trkpt>
      <trkpt lat="40.4169450" lon="-3.7316490">
        <ele>600.6</ele>
        <time>2019-05-04T07:20:05Z</time>
      </trkpt>
      <trkpt lat="40.4169390" lon="-3.7315650">
        <ele>600.7</ele>
        <time>2019-05-04T07:20:06Z</time>
      </trkpt>
      <trkpt lat="40.4169390" lon="-3.7314800">
        <ele>600.7</ele>
        <time>2019-05-04T07:20:07Z</time>
      </trkpt>
      <trkpt lat="40.4169520" lon="-3.7313930">
        <ele>600.8</ele>
        <time>2019-05-04T07:20:08Z</time>
      </trkpt>
      <trkpt lat="40.4169800" lon="-3.7313090">
        <ele>600.8</ele>
        <time>2019-05-04T07:20:09Z</time>
      </trkpt>
      <trkpt lat="40.4170230" lon="-3.7312360">
        <ele>600.8</ele>
        <time>2019-05-04T07:20:10Z</time>
      </trkpt>
      <trkpt lat="40.4170750" lon="-3.7311840">
        <ele>600.8</ele>
        <time>2019-05-04T07:20:11Z</time>
      </trkpt>
      <trkpt lat="40.4171330" lon="-3.7311490">
        <ele>600.8</ele>
        <time>2019-05-04T07:20:12Z</time>
      </trkpt>
      <trkpt lat="40.4171880" lon="-3.7311290">
        <ele>600.8</ele>
        <time>2019-05-04T07:20:13Z</time>
      </trkpt>
      <trkpt lat="40.4172430" lon="-3.7311190">
        <ele>600.7</ele>
        <time>2019-05-04T07:20:14Z</time>
      </trkpt>
      <trkpt lat="40.4172950" lon="-3.7311190">
        <ele>600.7</ele>
        <time>2019-05-04T07:20:15Z</time>
      </trkpt>
      <trkpt lat="40.4173470" lon="-3.7311200">
        <ele>600.7</ele>
        <time>2019-05-04T07:20:16Z</time>
      </trkpt>
      <trkpt lat="40.4173940" lon="-3.7311200">
        <ele>600.6</ele>
        <time>2019-05-04T07:20:17Z</time>
      </trkpt>
      <trkpt lat="40.4174400" lon="-3.7311210">
        <ele>600.6</ele>
        <time>2019-05-04T07:20:18Z</time>
      </trkpt>
      <trkpt lat="40.4174890" lon="-3.7311200">
        <ele>600.5</ele>
        <time>2019-05-04T07:20:19Z</time>
      </trkpt>
      <trkpt lat="40.4175380" lon="-3.7311130">
        <ele>600.5</ele>
        <time>2019-05-04T07:20:20Z</time>
      </trkpt>
      <trkpt lat="40.4175900" lon="-3.7310930">
        <ele>600.4</ele>
        <time>2019-05-04T07:20:21Z</time>
      </trkpt>
      <trkpt lat="40.4176440" lon="-3.7310570">
        <ele>600.4</ele>
        <time>2019-05-04T07:20:22Z</time>
      </trkpt>
      <trkpt lat="40.4176910" lon="-3.7310000">
        <ele>600.3</ele>
        <time>2019-05-04T07:20:23Z</time>
      </trkpt>
      <trkpt lat="40.4177260" lon="-3.7309230">
        <ele>600.2</ele>
        <time>2019-05-04T07:20:24Z</time>
      </trkpt>
      <trkpt lat="40.4177460" lon="-3.7308320">
        <ele>600.1</ele>
        <time>2019-05-04T07:20:25Z</time>
      </trkpt>
      <trkpt lat="40.4177610" lon="-3.7307330">
        <ele>600.0</ele>
        <time>2019-05-04T07:20:26Z</time>
      </trkpt>
      <trkpt lat="40.4177770" lon="-3.7306280">
        <ele>599.9</ele>
        <time>2019-05-04T07:20:27Z</time>
      </trkpt>
      <trkpt lat="40.4177940" lon="-3.7305200">
        <ele>599.7</ele>
        <time>2019-05-04T07:20:28Z</time>
      </trkpt>
      <trkpt lat="40.4178100" lon="-3.7304100">
        <ele>599.4</ele>
        <time>2019-05-04T07:20:29Z</time>
      </trkpt>
      <trkpt lat="40.4178280" lon="-3.7302960">
        <ele>599.1</ele>
        <time>2019-05-04T07:20:30Z</time>
      </trkpt>
      <trkpt lat="40.4178450" lon="-3.7301790">
        <ele>598.8</ele>
        <time>2019-05-04T07:20:31Z</time>
      </trkpt>
      <trkpt lat="40.4178640" lon="-3.7300600">
        <ele>598.5</ele>
        <time>2019-05-04T07:20:32Z</time>
      </trkpt>
      <trkpt lat="40.4178830" lon="-3.7299410">
        <ele>598.2</ele>
        <time>2019-05-04T07:20:33Z</time>
      </trkpt>
      <trkpt lat="40.4179040" lon="-3.7298220">
        <ele>597.9</ele>
        <time>2019-05-04T07:20:34Z</time>
      </trkpt>
      <trkpt lat="40.4179280" lon="-3.7297020">
        <ele>597.6</ele>
        <time>2019-05-04T07:20:35Z</time>
      </trkpt>
      <trkpt lat="40.4179530" lon="-3.7295790">
        <ele>597.6</ele>
        <time>2019-05-04T07:20:36Z</time>
      </trkpt>
      <trkpt lat="40.4179770" lon="-3.7294570">
        <ele>597.6</ele>
        <time>2019-05-04T07:20:37Z</time>
      </trkpt>
      <trkpt lat="40.4180020" lon="-3.7293380">
        <ele>597.7</ele>
        <time>2019-05-04T07:20:38Z</time>
      </trkpt>
      <trkpt lat="40.4180260" lon="-3.7292190">
        <ele>597.7</ele>
        <time>2019-05-04T07:20:39Z</time>
      </trkpt>
      <trkpt lat="40.4180530" lon="-3.7291010">
        <ele>597.8</ele>
        <time>2019-05-04T07:20:40Z</time>
      </trkpt>
      <trkpt lat="40.4180800" lon="-3.7289850">
        <ele>597.9</ele>
        <time>2019-05-04T07:20:41Z</time>
      </trkpt>
      <trkpt lat="40.4181060" lon="-3.7288750">
        <ele>598.1</ele>
        <time>2019-05-04T07:20:42Z</time>
      </trkpt>
      <trkpt lat="40.4181310" lon="-3.7287700">
        <ele>597.7</ele>
        <time>2019-05-04T07:20:43Z</time>
      </trkpt>
      <trkpt lat="40.4181580" lon="-3.7286700">
        <ele>597.3</ele>
        <time>2019-05-04T07:20:44Z</time>
      </trkpt>
      <trkpt lat="40.4181900" lon="-3.7285750">
        <ele>596.9</ele>
        <time>2019-05-04T07:20:45Z</time>
      </trkpt>
      <trkpt lat="40.4182210" lon="-3.7284810">
        <ele>596.6</ele>
        <time>2019-05-04T07:20:46Z</time>
      </trkpt>
      <trkpt lat="40.4182500" lon="-3.7283840">
        <ele>596.2</ele>
        <time>2019-05-04T07:20:47Z</time>
      </trkpt>
      <trkpt lat="40.4182740" lon="-3.7282850">
        <ele>595.8</ele>
        <time>2019-05-04T07:20:48Z</time>
      </trkpt>
      <trkpt lat="40.4182970" lon="-3.7281840">
        <ele>595.7</ele>
        <time>2019-05-04T07:20:49Z</time>
      </trkpt>
      <trkpt lat="40.4183220" lon="-3.7280840">
        <ele>595.6</ele>
        <time>2019-05-04T07:20:50Z</time>
      </trkpt>
      <trkpt lat="40.4183480" lon="-3.7279850">
        <ele>595.4</ele>
        <time>2019-05-04T07:20:51Z</time>
      </trkpt>
      <trkpt lat="40.4183730" lon="-3.7278870">
        <ele>595.1</ele>
        <time>2019-05-04T07:20:52Z</time>
      </trkpt>
      <trkpt lat="40.4183980" lon="-3.7277920">
        <ele>594.8</ele>
        <time>2019-05-04T07:20:53Z</time>
      </trkpt>
      <trkpt lat="40.4184220" lon="-3.7276980">
        <ele>594.4</ele>
        <time>2019-05-04T07:20:54Z</time>
      </trkpt>
      <trkpt lat="40.4184440" lon="-3.7276030">
        <ele>594.0</ele>
        <time>2019-05-04T07:20:55Z</time>
      </trkpt>
      <trkpt lat="40.4184640" lon="-3.7275060">
        <ele>593.6</ele>
        <time>2019-05-04T07:20:56Z</time>
      </trkpt>
      <trkpt lat="40.4184810" lon="-3.7274120">
        <ele>593.1</ele>
        <time>2019-05-04T07:20:57Z</time>
      </trkpt>
      <trkpt lat="40.4184940" lon="-3.7273180">
        <ele>592.7</ele>
        <time>2019-05-04T07:20:58Z</time>
      </trkpt>
      <trkpt lat="40.4185040" lon="-3.7272220">
        <ele>592.2</ele>
        <time>2019-05-04T07:20:59Z</time>
      </trkpt>
      <trkpt lat="40.4185120" lon="-3.7271240">
        <ele>591.8</ele>
        <time>2019-05-04T07:21:00Z</time>
      </trkpt>
      <trkpt lat="40.4185190" lon="-3.7270250">
        <ele>591.3</ele>
        <time>2019-05-04T07:21:01Z</time>
      </trkpt>
      <trkpt lat="40.4185260" lon="-3.7269270">
        <ele>590.8</ele>
        <time>2019-05-04T07:21:02Z</time>
      </trkpt>
      <trkpt lat="40.4185330" lon="-3.7268300">
        <ele>590.4</ele>
        <time>2019-05-04T07:21:03Z</time>
      </trkpt>
      <trkpt lat="40.4185390" lon="-3.7267370">
        <ele>590.1</ele>
        <time>2019-05-04T07:21:04Z</time>
      </trkpt>
      <trkpt lat="40.4185440" lon="-3.7266480">
        <ele>589.8</ele>
        <time>2019-05-04T07:21:05Z</time>
      </trkpt>
      <trkpt lat="40.4185470" lon="-3.7265620">
        <ele>589.5</ele>
        <time>2019-05-04T07:21:06Z</time>
      </trkpt>
      <trkpt lat="40.4185510" lon="-3.7264710">
        <ele>589.2</ele>
        <time>2019-05-04T07:21:07Z</time>
      </trkpt>
      <trkpt lat="40.4185540" lon="-3.7263740">
        <ele>588.9</ele>
        <time>2019-05-04T07:21:08Z</time>
      </trkpt>
      <trkpt lat="40.4185610" lon="-3.7262740">
        <ele>588.5</ele>
        <time>2019-05-04T07:21:09Z</time>
      </trkpt>
      <trkpt lat="40.4185680" lon="-3.7261760">
        <ele>588.2</ele>
        <time>2019-05-04T07:21:10Z</time>
      </trkpt>
      <trkpt lat="40.4185730" lon="-3.7260750">
        <ele>587.8</ele>
        <time>2019-05-04T07:21:11Z</time>
      </trkpt>
      <trkpt lat="40.4185740" lon="-3.7259700">
        <ele>587.5</ele>
        <time>2019-05-04T07:21:12Z</time>
      </trkpt>
      <trkpt lat="40.4185750" lon="-3.7258670">
        <ele>587.4</ele>
        <time>2019-05-04T07:21:13Z</time>
      </trkpt>
      <trkpt lat="40.4185780" lon="-3.7257660">
        <ele>587.3</ele>
        <time>2019-05-04T07:21:14Z</time>
      </trkpt>
      <trkpt lat="40.4185810" lon="-3.7256650">
        <ele>587.2</ele>
        <time>2019-05-04T07:21:15Z</time>
      </trkpt>
      <trkpt lat="40.4185830" lon="-3.7255620">
        <ele>587.1</ele>
        <time>2019-05-04T07:21:16Z</time>
      </trkpt>
      <trkpt lat="40.4185850" lon="-3.7254580">
        <ele>587.0</ele>
        <time>2019-05-04T07:21:17Z</time>
      </trkpt>
      <trkpt lat="40.4185860" lon="-3.7253540">
        <ele>586.9</ele>
        <time>2019-05-04T07:21:18Z</time>
      </trkpt>
      <trkpt lat="40.4185860" lon="-3.7252510">
        <ele>586.9</ele>
        <time>2019-05-04T07:21:19Z</time>
      </trkpt>
      <trkpt lat="40.4185870" lon="-3.7251470">
        <ele>586.8</ele>
        <time>2019-05-04T07:21:20Z</time>
      </trkpt>
      <trkpt lat="40.4185880" lon="-3.7250470">
        <ele>586.7</ele>
        <time>2019-05-04T07:21:21Z</time>
      </trkpt>
      <trkpt lat="40.4185880" lon="-3.7249500">
        <ele>586.6</ele>
        <time>2019-05-04T07:21:22Z</time>
      </trkpt>
      <trkpt lat="40.4185890" lon="-3.7248560">
        <ele>586.5</ele>
        <time>2019-05-04T07:21:23Z</time>
      </trkpt>
      <trkpt lat="40.4185900" lon="-3.7247640">
        <ele>586.3</ele>
        <time>2019-05-04T07:21:24Z</time>
      </trkpt>
      <trkpt lat="40.4185930" lon="-3.7246760">
        <ele>586.1</ele>
        <time>2019-05-04T07:21:25Z</time>
      </trkpt>
      <trkpt lat="40.4185990" lon="-3.7245900">
        <ele>585.8</ele>
        <time>2019-05-04T07:21:26Z</time>
      </trkpt>
      <trkpt lat="40.4186080" lon="-3.7245080">
        <ele>585.5</ele>
        <time>2019-05-04T07:21:27Z</time>
      </trkpt>
      <trkpt lat="40.4186200" lon="-3.7244320">
        <ele>585.2</ele>
        <time>2019-05-04T07:21:28Z</time>
      </trkpt>
      <trkpt lat="40.4186270" lon="-3.7243620">
        <ele>585.0</ele>
        <time>2019-05-04T07:21:29Z</time>
      </trkpt>
      <trkpt lat="40.4186290" lon="-3.7242960">
        <ele>584.8</ele>
        <time>2019-05-04T07:21:30Z</time>
      </trkpt>
      <trkpt lat="40.4186300" lon="-3.7242230">
        <ele>584.6</ele>
        <time>2019-05-04T07:21:31Z</time>
      </trkpt>
      <trkpt lat="40.4186330" lon="-3.7241460">
        <ele>584.4</ele>
        <time>2019-05-04T07:21:32Z</time>
      </trkpt>
      <trkpt lat="40.4186400" lon="-3.7240650">
        <ele>584.3</ele>
        <time>2019-05-04T07:21:33Z</time>
      </trkpt>
      <trkpt lat="40.4186510" lon="-3.7239880">
        <ele>584.4</ele>
        <time>2019-05-04T07:21:34Z</time>
      </trkpt>
      <trkpt lat="40.4186630" lon="-3.7239150">
        <ele>584.5</ele>
        <time>2019-05-04T07:21:35Z</time>
      </trkpt>
      <trkpt lat="40.4186760" lon="-3.7238440">
        <ele>584.5</ele>
        <time>2019-05-04T07:21:36Z</time>
      </trkpt>
      <trkpt lat="40.4186880" lon="-3.7237740">
        <ele>584.6</ele>
        <time>2019-05-04T07:21:37Z</time>
      </trkpt>
      <trkpt lat="40.4187000" lon="-3.7237050">
        <ele>584.7</ele>
        <time>2019-05-04T07:21:38Z</time>
      </trkpt>
      <trkpt lat="40.4187130" lon="-3.7236360">
        <ele>584.7</ele>
        <time>2019-05-04T07:21:39Z</time>
      </trkpt>
      <trkpt lat="40.4187270" lon="-3.7235660">
        <ele>585.0</ele>
        <time>2019-05-04T07:21:40Z</time>
      </trkpt>
      <trkpt lat="40.4187400" lon="-3.7234860">
        <ele>585.2</ele>
        <time>2019-05-04T07:21:41Z</time>
      </trkpt>
      <trkpt lat="40.4187530" lon="-3.7234030">
        <ele>585.3</ele>
        <time>2019-05-04T07:21:42Z</time>
      </trkpt>
      <trkpt lat="40.4187650" lon="-3.7233190">
        <ele>585.4</ele>
        <time>2019-05-04T07:21:43Z</time>
      </trkpt>
      <trkpt lat="40.4187780" lon="-3.7232430">
        <ele>585.6</ele>
        <time>2019-05-04T07:21:44Z</time>
      </trkpt>
      <trkpt lat="40.4187920" lon="-3.7231710">
        <ele>585.7</ele>
        <time>2019-05-04T07:21:45Z</time>
      </trkpt>
      <trkpt lat="40.4188080" lon="-3.7231010">
        <ele>585.8</ele>
        <time>2019-05-04T07:21:46Z</time>
      </trkpt>
      <trkpt lat="40.4188210" lon="-3.7230280">
        <ele>585.9</ele>
        <time>2019-05-04T07:21:47Z</time>
      </trkpt>
      <trkpt lat="40.4188270" lon="-3.7229600">
        <ele>585.9</ele>
        <time>2019-05-04T07:21:48Z</time>
      </trkpt>
      <trkpt lat="40.4188260" lon="-3.7228980">
        <ele>586.0</ele>
        <time>2019-05-04T07:21:49Z</time>
      </trkpt>
      <trkpt lat="40.4188230" lon="-3.7228450">
        <ele>586.0</ele>
        <time>2019-05-04T07:21:50Z</time>
      </trkpt>
      <trkpt lat="40.4188230" lon="-3.7227920">
        <ele>585.9</ele>
        <time>2019-05-04T07:21:51Z</time>
      </trkpt>
      <trkpt lat="40.4188240" lon="-3.7227380">
        <ele>585.9</ele>
        <time>2019-05-04T07:21:52Z</time>
      </trkpt>
      <trkpt lat="40.4188290" lon="-3.7226780">
        <ele>585.9</ele>
        <time>2019-05-04T07:21:53Z</time>
      </trkpt>
      <trkpt lat="40.4188350" lon="-3.7226130">
        <ele>585.9</ele>
        <time>2019-05-04T07:21:54Z</time>
      </trkpt>
      <trkpt lat="40.4188410" lon="-3.7225430">
        <ele>585.9</ele>
        <time>2019-05-04T07:21:55Z</time>
      </trkpt>
      <trkpt lat="40.4188430" lon="-3.7224700">
        <ele>585.8</ele>
        <time>2019-05-04T07:21:56Z</time>
      </trkpt>
      <trkpt lat="40.4188410" lon="-3.7223910">
        <ele>585.8</ele>
        <time>2019-05-04T07:21:57Z</time>
      </trkpt>
      <trkpt lat="40.4188360" lon="-3.7223100">
        <ele>585.8</ele>
        <time>2019-05-04T07:21:58Z</time>
      </trkpt>
      <trkpt lat="40.4188310" lon="-3.7222290">
        <ele>585.8</ele>
        <time>2019-05-04T07:21:59Z</time>
      </trkpt>
      <trkpt lat="40.4188260" lon="-3.7221500">
        <ele>585.9</ele>
        <time>2019-05-04T07:22:00Z</time>
      </trkpt>
      <trkpt lat="40.4188220" lon="-3.7220730">
        <ele>585.9</ele>
        <time>2019-05-04T07:22:01Z</time>
      </trkpt>
      <trkpt lat="40.4188180" lon="-3.7219960">
        <ele>585.9</ele>
        <time>2019-05-04T07:22:02Z</time>
      </trkpt>
      <trkpt lat="40.4188130" lon="-3.7219190">
        <ele>586.0</ele>
        <time>2019-05-04T07:22:03Z</time>
      </trkpt>
      <trkpt lat="40.4188100" lon="-3.7218400">
        <ele>586.0</ele>
        <time>2019-05-04T07:22:04Z</time>
      </trkpt>
      <trkpt lat="40.4188080" lon="-3.7217630">
        <ele>586.2</ele>
        <time>2019-05-04T07:22:05Z</time>
      </trkpt>
      <trkpt lat="40.4188110" lon="-3.7216860">
        <ele>586.4</ele>
        <time>2019-05-04T07:22:06Z</time>
      </trkpt>
      <trkpt lat="40.4188180" lon="-3.7216140">
        <ele>586.6</ele>
        <time>2019-05-04T07:22:07Z</time>
      </trkpt>
      <trkpt lat="40.4188270" lon="-3.7215450">
        <ele>586.7</ele>
        <time>2019-05-04T07:22:08Z</time>
      </trkpt>
      <trkpt lat="40.4188330" lon="-3.7214800">
        <ele>587.0</ele>
        <time>2019-05-04T07:22:09Z</time>
      </trkpt>
      <trkpt lat="40.4188360" lon="-3.7214170">
        <ele>587.1</ele>
        <time>2019-05-04T07:22:10Z</time>
      </trkpt>
      <trkpt lat="40.4188370" lon="-3.7213590">
        <ele>587.3</ele>
        <time>2019-05-04T07:22:11Z</time>
      </trkpt>
      <trkpt lat="40.4188350" lon="-3.7213040">
        <ele>587.8</ele>
        <time>2019-05-04T07:22:12Z</time>
      </trkpt>
      <trkpt lat="40.4188310" lon="-3.7212520">
        <ele>588.0</ele>
        <time>2019-05-04T07:22:13Z</time>
      </trkpt>
      <trkpt lat="40.4188250" lon="-3.7212000">
        <ele>588.2</ele>
        <time>2019-05-04T07:22:14Z</time>
      </trkpt>
      <trkpt lat="40.4188210" lon="-3.7211470">
        <ele>588.5</ele>
        <time>2019-05-04T07:22:15Z</time>
      </trkpt>
      <trkpt lat="40.4188190" lon="-3.7210930">
        <ele>588.8</ele>
        <time>2019-05-04T07:22:16Z</time>
      </trkpt>
      <trkpt lat="40.4188180" lon="-3.7210400">
        <ele>589.0</ele>
        <time>2019-05-04T07:22:17Z</time>
      </trkpt>
      <trkpt lat="40.4188220" lon="-3.7209910">
        <ele>589.3</ele>
        <time>2019-05-04T07:22:18Z</time>
      </trkpt>
      <trkpt lat="40.4188350" lon="-3.7209500">
        <ele>589.5</ele>
        <time>2019-05-04T07:22:19Z</time>
      </trkpt>
      <trkpt lat="40.4188540" lon="-3.7209120">
        <ele>589.7</ele>
        <time>2019-05-04T07:22:20Z</time>
      </trkpt>
      <trkpt lat="40.4188760" lon="-3.7208780">
        <ele>590.5</ele>
        <time>2019-05-04T07:22:21Z</time>
      </trkpt>
      <trkpt lat="40.4188980" lon="-3.7208450">
        <ele>590.7</ele>
        <time>2019-05-04T07:22:22Z</time>
      </trkpt>
      <trkpt lat="40.4189230" lon="-3.7208180">
        <ele>591.0</ele>
        <time>2019-05-04T07:22:23Z</time>
      </trkpt>
      <trkpt lat="40.4189510" lon="-3.7207950">
        <ele>591.2</ele>
        <time>2019-05-04T07:22:24Z</time>
      </trkpt>
      <trkpt lat="40.4189810" lon="-3.7207840">
        <ele>591.5</ele>
        <time>2019-05-04T07:22:25Z</time>
      </trkpt>
      <trkpt lat="40.4190130" lon="-3.7207780">
        <ele>591.8</ele>
        <time>2019-05-04T07:22:26Z</time>
      </trkpt>
      <trkpt lat="40.4190490" lon="-3.7207730">
        <ele>592.1</ele>
        <time>2019-05-04T07:22:27Z</time>
      </trkpt>
      <trkpt lat="40.4190890" lon="-3.7207600">
        <ele>592.4</ele>
        <time>2019-05-04T07:22:28Z</time>
      </trkpt>
      <trkpt lat="40.4191260" lon="-3.7207470">
        <ele>592.7</ele>
        <time>2019-05-04T07:22:29Z</time>
      </trkpt>
      <trkpt lat="40.4191600" lon="-3.7207350">
        <ele>592.9</ele>
        <time>2019-05-04T07:22:30Z</time>
      </trkpt>
      <trkpt lat="40.4191930" lon="-3.7207240">
        <ele>593.1</ele>
        <time>2019-05-04T07:22:31Z</time>
      </trkpt>
      <trkpt lat="40.4192280" lon="-3.7207150">
        <ele>593.3</ele>
        <time>2019-05-04T07:22:32Z</time>
      </trkpt>
      <trkpt lat="40.4192660" lon="-3.7207100">
        <ele>593.5</ele>
        <time>2019-05-04T07:22:33Z</time>
      </trkpt>
      <trkpt lat="40.4193050" lon="-3.7207090">
        <ele>593.5</ele>
        <time>2019-05-04T07:22:34Z</time>
      </trkpt>
      <trkpt lat="40.4193420" lon="-3.7207060">
        <ele>593.6</ele>
        <time>2019-05-04T07:22:35Z</time>
      </trkpt>
      <trkpt lat="40.4193770" lon="-3.7207000">
        <ele>593.6</ele>
        <time>2019-05-04T07:22:36Z</time>
      </trkpt>
      <trkpt lat="40.4194100" lon="-3.7206920">
        <ele>593.5</ele>
        <time>2019-05-04T07:22:37Z</time>
      </trkpt>
      <trkpt lat="40.4194420" lon="-3.7206820">
        <ele>593.5</ele>
        <time>2019-05-04T07:22:38Z</time>
      </trkpt>
      <trkpt lat="40.4194730" lon="-3.7206690">
        <ele>593.5</ele>
        <time>2019-05-04T07:22:39Z</time>
      </trkpt>
      <trkpt lat="40.4195040" lon="-3.7206550">
        <ele>593.4</ele>
        <time>2019-05-04T07:22:40Z</time>
      </trkpt>
      <trkpt lat="40.4195350" lon="-3.7206410">
        <ele>593.4</ele>
        <time>2019-05-04T07:22:41Z</time>
      </trkpt>
      <trkpt lat="40.4195660" lon="-3.7206270">
        <ele>593.3</ele>
        <time>2019-05-04T07:22:42Z</time>
      </trkpt>
      <trkpt lat="40.4195950" lon="-3.7206100">
        <ele>593.3</ele>
        <time>2019-05-04T07:22:43Z</time>
      </trkpt>
      <trkpt lat="40.4196230" lon="-3.7205930">
        <ele>593.2</ele>
        <time>2019-05-04T07:22:44Z</time>
      </trkpt>
      <trkpt lat="40.4196490" lon="-3.7205770">
        <ele>593.2</ele>
        <time>2019-05-04T07:22:45Z</time>
      </trkpt>
      <trkpt lat="40.4196700" lon="-3.7205620">
        <ele>593.2</ele>
        <time>2019-05-04T07:22:46Z</time>
      </trkpt>
      <trkpt lat="40.4196890" lon="-3.7205480">
        <ele>593.2</ele>
        <time>2019-05-04T07:22:47Z</time>
      </trkpt>
      <trkpt lat="40.4197050" lon="-3.7205330">
        <ele>593.2</ele>
        <time>2019-05-04T07:22:48Z</time>
      </trkpt>
      <trkpt lat="40.4197180" lon="-3.7205160">
        <ele>593.3</ele>
        <time>2019-05-04T07:22:49Z</time>
      </trkpt>
      <trkpt lat="40.4197290" lon="-3.7204970">
        <ele>593.3</ele>
        <time>2019-05-04T07:22:50Z</time>
      </trkpt>
      <trkpt lat="40.4197360" lon="-3.7204750">
        <ele>593.9</ele>
        <time>2019-05-04T07:22:51Z</time>
      </trkpt>
      <trkpt lat="40.4197410" lon="-3.7204510">
        <ele>593.9</ele>
        <time>2019-05-04T07:22:52Z</time>
      </trkpt>
      <trkpt lat="40.4197430" lon="-3.7204270">
        <ele>594.0</ele>
        <time>2019-05-04T07:22:53Z</time>
      </trkpt>
      <trkpt lat="40.4197440" lon="-3.7204050">
        <ele>594.0</ele>
        <time>2019-05-04T07:22:54Z</time>
      </trkpt>
      <trkpt lat="40.4197450" lon="-3.7203850">
        <ele>594.0</ele>
        <time>2019-05-04T07:22:55Z</time>
      </trkpt>
      <trkpt lat="40.4197470" lon="-3.7203690">
        <ele>594.1</ele>
        <time>2019-05-04T07:22:56Z</time>
      </trkpt>
      <trkpt lat="40.4197510" lon="-3.7203590">
        <ele>594.1</ele>
        <time>2019-05-04T07:22:57Z</time>
      </trkpt>
      <trkpt lat="40.4197520" lon="-3.7203550">
        <ele>594.1</ele>
        <time>2019-05-04T07:22:58Z</time>
      </trkpt>
      <trkpt lat="40.4197530" lon="-3.7203560">
        <ele>594.1</ele>
        <time>2019-05-04T07:22:59Z</time>
      </trkpt>
      <trkpt lat="40.4197530" lon="-3.7203550">
        <ele>594.1</ele>
        <time>2019-05-04T07:23:00Z</time>
      </trkpt>
      <trkpt lat="40.4197550" lon="-3.7203490">
        <ele>594.1</ele>
        <time>2019-05-04T07:23:01Z</time>
      </trkpt>
      <trkpt lat="40.4197620" lon="-3.7203370">
        <ele>594.1</ele>
        <time>2019-05-04T07:23:02Z</time>
      </trkpt>
      <trkpt lat="40.4197740" lon="-3.7203180">
        <ele>595.2</ele>
        <time>2019-05-04T07:23:03Z</time>
      </trkpt>
      <trkpt lat="40.4197890" lon="-3.7202950">
        <ele>595.4</ele>
        <time>2019-05-04T07:23:04Z</time>
      </trkpt>
      <trkpt lat="40.4198060" lon="-3.7202710">
        <ele>595.6</ele>
        <time>2019-05-04T07:23:05Z</time>
      </trkpt>
      <trkpt lat="40.4198220" lon="-3.7202530">
        <ele>595.7</ele>
        <time>2019-05-04T07:23:06Z</time>
      </trkpt>
      <trkpt lat="40.4198380" lon="-3.7202380">
        <ele>595.9</ele>
        <time>2019-05-04T07:23:07Z</time>
      </trkpt>
      <trkpt lat="40.4198530" lon="-3.7202250">
        <ele>596.0</ele>
        <time>2019-05-04T07:23:08Z</time>
      </trkpt>
      <trkpt lat="40.4198640" lon="-3.7202110">
        <ele>596.1</ele>
        <time>2019-05-04T07:23:09Z</time>
      </trkpt>
      <trkpt lat="40.4198720" lon="-3.7201990">
        <ele>596.2</ele>
        <time>2019-05-04T07:23:10Z</time>
      </trkpt>
      <trkpt lat="40.4198790" lon="-3.7201870">
        <ele>596.3</ele>
        <time>2019-05-04T07:23:11Z</time>
      </trkpt>
      <trkpt lat="40.4198880" lon="-3.7201770">
        <ele>596.4</ele>
        <time>2019-05-04T07:23:12Z</time>
      </trkpt>
      <trkpt lat="40.4198940" lon="-3.7201690">
        <ele>596.5</ele>
        <time>2019-05-04T07:23:13Z</time>
      </trkpt>
      <trkpt lat="40.4198980" lon="-3.7201660">
        <ele>596.5</ele>
        <time>2019-05-04T07:23:14Z</time>
      </trkpt>
      <trkpt lat="40.4198990" lon="-3.7201650">
        <ele>596.5</ele>
        <time>2019-05-04T07:23:15Z</time>
      </trkpt>
      <trkpt lat="40.4199010" lon="-3.7201620">
        <ele>596.6</ele>
        <time>2019-05-04T07:23:16Z</time>
      </trkpt>
      <trkpt lat="40.4199030" lon="-3.7201600">
        <ele>596.6</ele>
        <time>2019-05-04T07:23:17Z</time>
      </trkpt>
      <trkpt lat="40.4199050" lon="-3.7201550">
        <ele>596.6</ele>
        <time>2019-05-04T07:23:18Z</time>
      </trkpt>
      <trkpt lat="40.4199100" lon="-3.7201480">
        <ele>596.7</ele>
        <time>2019-05-04T07:23:19Z</time>
      </trkpt>
      <trkpt lat="40.4199170" lon="-3.7201370">
        <ele>596.8</ele>
        <time>2019-05-04T07:23:20Z</time>
      </trkpt>
      <trkpt lat="40.4199250" lon="-3.7201230">
        <ele>596.9</ele>
        <time>2019-05-04T07:23:21Z</time>
      </trkpt>
      <trkpt lat="40.4199320" lon="-3.7201060">
        <ele>597.0</ele>
        <time>2019-05-04T07:23:22Z</time>
      </trkpt>
      <trkpt lat="40.4199420" lon="-3.7200840">
        <ele>597.6</ele>
        <time>2019-05-04T07:23:23Z</time>
      </trkpt>
      <trkpt lat="40.4199540" lon="-3.7200560">
        <ele>597.7</ele>
        <time>2019-05-04T07:23:24Z</time>
      </trkpt>
      <trkpt lat="40.4199720" lon="-3.7200160">
        <ele>597.9</ele>
        <time>2019-05-04T07:23:25Z</time>
      </trkpt>
      <trkpt lat="40.4199950" lon="-3.7199650">
        <ele>598.2</ele>
        <time>2019-05-04T07:23:26Z</time>
      </trkpt>
      <trkpt lat="40.4200190" lon="-3.7199060">
        <ele>599.1</ele>
        <time>2019-05-04T07:23:27Z</time>
      </trkpt>
      <trkpt lat="40.4200390" lon="-3.7198470">
        <ele>599.4</ele>
        <time>2019-05-04T07:23:28Z</time>
      </trkpt>
      <trkpt lat="40.4200560" lon="-3.7197910">
        <ele>599.8</ele>
        <time>2019-05-04T07:23:29Z</time>
      </trkpt>
      <trkpt lat="40.4200710" lon="-3.7197320">
        <ele>600.1</ele>
        <time>2019-05-04T07:23:30Z</time>
      </trkpt>
      <trkpt lat="40.4200830" lon="-3.7196710">
        <ele>600.4</ele>
        <time>2019-05-04T07:23:31Z</time>
      </trkpt>
      <trkpt lat="40.4200930" lon="-3.7196060">
        <ele>600.7</ele>
        <time>2019-05-04T07:23:32Z</time>
      </trkpt>
      <trkpt lat="40.4201000" lon="-3.7195360">
        <ele>601.0</ele>
        <time>2019-05-04T07:23:33Z</time>
      </trkpt>
      <trkpt lat="40.4201080" lon="-3.7194610">
        <ele>601.4</ele>
        <time>2019-05-04T07:23:34Z</time>
      </trkpt>
      <trkpt lat="40.4201120" lon="-3.7193820">
        <ele>601.8</ele>
        <time>2019-05-04T07:23:35Z</time>
      </trkpt>
      <trkpt lat="40.4201180" lon="-3.7193040">
        <ele>602.1</ele>
        <time>2019-05-04T07:23:36Z</time>
      </trkpt>
      <trkpt lat="40.4201220" lon="-3.7192260">
        <ele>602.4</ele>
        <time>2019-05-04T07:23:37Z</time>
      </trkpt>
      <trkpt lat="40.4201270" lon="-3.7191450">
        <ele>602.7</ele>
        <time>2019-05-04T07:23:38Z</time>
      </trkpt>
      <trkpt lat="40.4201300" lon="-3.7190710">
        <ele>602.9</ele>
        <time>2019-05-04T07:23:39Z</time>
      </trkpt>
      <trkpt lat="40.4201320" lon="-3.7190000">
        <ele>603.0</ele>
        <time>2019-05-04T07:23:40Z</time>
      </trkpt>
      <trkpt lat="40.4201340" lon="-3.7189350">
        <ele>603.1</ele>
        <time>2019-05-04T07:23:41Z</time>
      </trkpt>
      <trkpt lat="40.4201390" lon="-3.7188690">
        <ele>603.2</ele>
        <time>2019-05-04T07:23:42Z</time>
      </trkpt>
      <trkpt lat="40.4201460" lon="-3.7188010">
        <ele>603.3</ele>
        <time>2019-05-04T07:23:43Z</time>
      </trkpt>
      <trkpt lat="40.4201500" lon="-3.7187340">
        <ele>603.4</ele>
        <time>2019-05-04T07:23:44Z</time>
      </trkpt>
      <trkpt lat="40.4201500" lon="-3.7186650">
        <ele>603.4</ele>
        <time>2019-05-04T07:23:45Z</time>
      </trkpt>
      <trkpt lat="40.4201490" lon="-3.7185980">
        <ele>603.5</ele>
        <time>2019-05-04T07:23:46Z</time>
      </trkpt>
      <trkpt lat="40.4201490" lon="-3.7185300">
        <ele>603.6</ele>
        <time>2019-05-04T07:23:47Z</time>
      </trkpt>
      <trkpt lat="40.4201530" lon="-3.7184610">
        <ele>603.8</ele>
        <time>2019-05-04T07:23:48Z</time>
      </trkpt>
      <trkpt lat="40.4201550" lon="-3.7183890">
        <ele>603.9</ele>
        <time>2019-05-04T07:23:49Z</time>
      </trkpt>
      <trkpt lat="40.4201540" lon="-3.7183160">
        <ele>604.2</ele>
        <time>2019-05-04T07:23:50Z</time>
      </trkpt>
      <trkpt lat="40.4201500" lon="-3.7182410">
        <ele>604.4</ele>
        <time>2019-05-04T07:23:51Z</time>
      </trkpt>
      <trkpt lat="40.4201460" lon="-3.7181660">
        <ele>604.8</ele>
        <time>2019-05-04T07:23:52Z</time>
      </trkpt>
      <trkpt lat="40.4201450" lon="-3.7180910">
        <ele>605.3</ele>
        <time>2019-05-04T07:23:53Z</time>
      </trkpt>
      <trkpt lat="40.4201450" lon="-3.7180200">
        <ele>605.8</ele>
        <time>2019-05-04T07:23:54Z</time>
      </trkpt>
      <trkpt lat="40.4201440" lon="-3.7179500">
        <ele>606.4</ele>
        <time>2019-05-04T07:23:55Z</time>
      </trkpt>
      <trkpt lat="40.4201450" lon="-3.7178780">
        <ele>607.1</ele>
        <time>2019-05-04T07:23:56Z</time>
      </trkpt>
      <trkpt lat="40.4201440" lon="-3.7178070">
        <ele>607.8</ele>
        <time>2019-05-04T07:23:57Z</time>
      </trkpt>
      <trkpt lat="40.4201430" lon="-3.7177320">
        <ele>608.6</ele>
        <time>2019-05-04T07:23:58Z</time>
      </trkpt>
      <trkpt lat="40.4201400" lon="-3.7176620">
        <ele>609.4</ele>
        <time>2019-05-04T07:23:59Z</time>
      </trkpt>
      <trkpt lat="40.4201370" lon="-3.7175930">
        <ele>610.1</ele>
        <time>2019-05-04T07:24:00Z</time>
      </trkpt>
      <trkpt lat="40.4201340" lon="-3.7175300">
        <ele>610.8</ele>
        <time>2019-05-04T07:24:01Z</time>
      </trkpt>
      <trkpt lat="40.4201340" lon="-3.7174650">
        <ele>611.5</ele>
        <time>2019-05-04T07:24:02Z</time>
      </trkpt>
      <trkpt lat="40.4201350" lon="-3.7173930">
        <ele>612.3</ele>
        <time>2019-05-04T07:24:03Z</time>
      </trkpt>
      <trkpt lat="40.4201390" lon="-3.7173150">
        <ele>613.2</ele>
        <time>2019-05-04T07:24:04Z</time>
      </trkpt>
      <trkpt lat="40.4201450" lon="-3.7172340">
        <ele>614.0</ele>
        <time>2019-05-04T07:24:05Z</time>
      </trkpt>
      <trkpt lat="40.4201500" lon="-3.7171550">
        <ele>614.8</ele>
        <time>2019-05-04T07:24:06Z</time>
      </trkpt>
      <trkpt lat="40.4201540" lon="-3.7170800">
        <ele>615.5</ele>
        <time>2019-05-04T07:24:07Z</time>
      </trkpt>
      <trkpt lat="40.4201540" lon="-3.7170090">
        <ele>616.1</ele>
        <time>2019-05-04T07:24:08Z</time>
      </trkpt>
      <trkpt lat="40.4201510" lon="-3.7169370">
        <ele>616.6</ele>
        <time>2019-05-04T07:24:09Z</time>
      </trkpt>
      <trkpt lat="40.4201480" lon="-3.7168630">
        <ele>617.4</ele>
        <time>2019-05-04T07:24:10Z</time>
      </trkpt>
      <trkpt lat="40.4201480" lon="-3.7167860">
        <ele>618.3</ele>
        <time>2019-05-04T07:24:11Z</time>
      </trkpt>
      <trkpt lat="40.4201490" lon="-3.7167090">
        <ele>619.1</ele>
        <time>2019-05-04T07:24:12Z</time>
      </trkpt>
      <trkpt lat="40.4201510" lon="-3.7166340">
        <ele>619.8</ele>
        <time>2019-05-04T07:24:13Z</time>
      </trkpt>
      <trkpt lat="40.4201550" lon="-3.7165500">
        <ele>620.4</ele>
        <time>2019-05-04T07:24:14Z</time>
      </trkpt>
      <trkpt lat="40.4201610" lon="-3.7164610">
        <ele>621.0</ele>
        <time>2019-05-04T07:24:15Z</time>
      </trkpt>
      <trkpt lat="40.4201740" lon="-3.7163630">
        <ele>621.6</ele>
        <time>2019-05-04T07:24:16Z</time>
      </trkpt>
      <trkpt lat="40.4202020" lon="-3.7162560">
        <ele>622.1</ele>
        <time>2019-05-04T07:24:17Z</time>
      </trkpt>
      <trkpt lat="40.4202380" lon="-3.7161510">
        <ele>622.7</ele>
        <time>2019-05-04T07:24:18Z</time>
      </trkpt>
      <trkpt lat="40.4202720" lon="-3.7160510">
        <ele>623.3</ele>
        <time>2019-05-04T07:24:19Z</time>
      </trkpt>
      <trkpt lat="40.4202930" lon="-3.7159650">
        <ele>623.8</ele>
        <time>2019-05-04T07:24:20Z</time>
      </trkpt>
      <trkpt lat="40.4203090" lon="-3.7158850">
        <ele>624.3</ele>
        <time>2019-05-04T07:24:21Z</time>
      </trkpt>
      <trkpt lat="40.4203230" lon="-3.7158090">
        <ele>624.7</ele>
        <time>2019-05-04T07:24:22Z</time>
      </trkpt>
      <trkpt lat="40.4203390" lon="-3.7157390">
        <ele>625.1</ele>
        <time>2019-05-04T07:24:23Z</time>
      </trkpt>
      <trkpt lat="40.4203580" lon="-3.7156800">
        <ele>625.5</ele>
        <time>2019-05-04T07:24:24Z</time>
      </trkpt>
      <trkpt lat="40.4203850" lon="-3.7156280">
        <ele>626.0</ele>
        <time>2019-05-04T07:24:25Z</time>
      </trkpt>
      <trkpt lat="40.4204190" lon="-3.7155790">
        <ele>626.5</ele>
        <time>2019-05-04T07:24:26Z</time>
      </trkpt>
      <trkpt lat="40.4204540" lon="-3.7155290">
        <ele>627.3</ele>
        <time>2019-05-04T07:24:27Z</time>
      </trkpt>
      <trkpt lat="40.4204860" lon="-3.7154810">
        <ele>627.6</ele>
        <time>2019-05-04T07:24:28Z</time>
      </trkpt>
      <trkpt lat="40.4205110" lon="-3.7154360">
        <ele>627.9</ele>
        <time>2019-05-04T07:24:29Z</time>
      </trkpt>
      <trkpt lat="40.4205320" lon="-3.7153910">
        <ele>628.1</ele>
        <time>2019-05-04T07:24:30Z</time>
      </trkpt>
      <trkpt lat="40.4205490" lon="-3.7153500">
        <ele>628.4</ele>
        <time>2019-05-04T07:24:31Z</time>
      </trkpt>
      <trkpt lat="40.4205670" lon="-3.7153090">
        <ele>628.6</ele>
        <time>2019-05-04T07:24:32Z</time>
      </trkpt>
      <trkpt lat="40.4205870" lon="-3.7152670">
        <ele>628.8</ele>
        <time>2019-05-04T07:24:33Z</time>
      </trkpt>
      <trkpt lat="40.4206100" lon="-3.7152220">
        <ele>629.6</ele>
        <time>2019-05-04T07:24:34Z</time>
      </trkpt>
      <trkpt lat="40.4206380" lon="-3.7151750">
        <ele>630.0</ele>
        <time>2019-05-04T07:24:35Z</time>
      </trkpt>
      <trkpt lat="40.4206650" lon="-3.7151270">
        <ele>630.3</ele>
        <time>2019-05-04T07:24:36Z</time>
      </trkpt>
      <trkpt lat="40.4206920" lon="-3.7150750">
        <ele>630.7</ele>
        <time>2019-05-04T07:24:37Z</time>
      </trkpt>
      <trkpt lat="40.4207150" lon="-3.7150180">
        <ele>631.2</ele>
        <time>2019-05-04T07:24:38Z</time>
      </trkpt>
      <trkpt lat="40.4207420" lon="-3.7149610">
        <ele>631.5</ele>
        <time>2019-05-04T07:24:39Z</time>
      </trkpt>
      <trkpt lat="40.4207680" lon="-3.7149070">
        <ele>631.9</ele>
        <time>2019-05-04T07:24:40Z</time>
      </trkpt>
      <trkpt lat="40.4208000" lon="-3.7148530">
        <ele>632.3</ele>
        <time>2019-05-04T07:24:41Z</time>
      </trkpt>
      <trkpt lat="40.4208290" lon="-3.7147950">
        <ele>632.6</ele>
        <time>2019-05-04T07:24:42Z</time>
      </trkpt>
      <trkpt lat="40.4208570" lon="-3.7147390">
        <ele>633.0</ele>
        <time>2019-05-04T07:24:43Z</time>
      </trkpt>
      <trkpt lat="40.4208820" lon="-3.7146860">
        <ele>633.3</ele>
        <time>2019-05-04T07:24:44Z</time>
      </trkpt>
      <trkpt lat="40.4209050" lon="-3.7146380">
        <ele>633.6</ele>
        <time>2019-05-04T07:24:45Z</time>
      </trkpt>
      <trkpt lat="40.4209330" lon="-3.7145870">
        <ele>634.0</ele>
        <time>2019-05-04T07:24:46Z</time>
      </trkpt>
      <trkpt lat="40.4209630" lon="-3.7145370">
        <ele>634.4</ele>
        <time>2019-05-04T07:24:47Z</time>
      </trkpt>
      <trkpt lat="40.4209960" lon="-3.7144860">
        <ele>634.8</ele>
        <time>2019-05-04T07:24:48Z</time>
      </trkpt>
      <trkpt lat="40.4210480" lon="-3.7144350">
        <ele>635.3</ele>
        <time>2019-05-04T07:24:49Z</time>
      </trkpt>
      <trkpt lat="40.4211070" lon="-3.7143820">
        <ele>635.8</ele>
        <time>2019-05-04T07:24:50Z</time>
      </trkpt>
      <trkpt lat="40.4211720" lon="-3.7143210">
        <ele>636.3</ele>
        <time>2019-05-04T07:24:51Z</time>
      </trkpt>
      <trkpt lat="40.4212200" lon="-3.7142570">
        <ele>636.7</ele>
        <time>2019-05-04T07:24:52Z</time>
      </trkpt>
      <trkpt lat="40.4212630" lon="-3.7141900">
        <ele>637.2</ele>
        <time>2019-05-04T07:24:53Z</time>
      </trkpt>
      <trkpt lat="40.4212980" lon="-3.7141260">
        <ele>637.6</ele>
        <time>2019-05-04T07:24:54Z</time>
      </trkpt>
      <trkpt lat="40.4213350" lon="-3.7140640">
        <ele>637.9</ele>
        <time>2019-05-04T07:24:55Z</time>
      </trkpt>
      <trkpt lat="40.4213740" lon="-3.7140020">
        <ele>638.2</ele>
        <time>2019-05-04T07:24:56Z</time>
      </trkpt>
      <trkpt lat="40.4214160" lon="-3.7139390">
        <ele>638.5</ele>
        <time>2019-05-04T07:24:57Z</time>
      </trkpt>
      <trkpt lat="40.4214540" lon="-3.7138820">
        <ele>638.8</ele>
        <time>2019-05-04T07:24:58Z</time>
      </trkpt>
      <trkpt lat="40.4214850" lon="-3.7138330">
        <ele>639.0</ele>
        <time>2019-05-04T07:24:59Z</time>
      </trkpt>
      <trkpt lat="40.4215060" lon="-3.7137960">
        <ele>639.2</ele>
        <time>2019-05-04T07:25:00Z</time>
      </trkpt>
      <trkpt lat="40.4215260" lon="-3.7137640">
        <ele>639.3</ele>
        <time>2019-05-04T07:25:01Z</time>
      </trkpt>
      <trkpt lat="40.4215490" lon="-3.7137400">
        <ele>639.5</ele>
        <time>2019-05-04T07:25:02Z</time>
      </trkpt>
      <trkpt lat="40.4215780" lon="-3.7137210">
        <ele>639.6</ele>
        <time>2019-05-04T07:25:03Z</time>
      </trkpt>
      <trkpt lat="40.4215780" lon="-3.7137210">
        <ele>639.6</ele>
        <time>2019-05-04T07:25:04Z</time>
      </trkpt>
      <trkpt lat="40.4215780" lon="-3.7137210">
        <ele>639.6</ele>
        <time>2019-05-04T07:25:05Z</time>
      </trkpt>
      <trkpt lat="40.4215780" lon="-3.7137210">
        <ele>639.6</ele>
        <time>2019-05-04T07:25:06Z</time>
      </trkpt>
      <trkpt lat="40.4215780" lon="-3.7137210">
        <ele>639.6</ele>
        <time>2019-05-04T07:25:07Z</time>
      </trkpt>
      <trkpt lat="40.4215780" lon="-3.7137210">
        <ele>639.6</ele>
        <time>2019-05-04T07:25:08Z</time>
      </trkpt>
      <trkpt lat="40.4215780" lon="-3.7137210">
        <ele>639.6</ele>
        <time>2019-05-04T07:25:09Z</time>
      </trkpt>
      <trkpt lat="40.4215780" lon="-3.7137210">
        <ele>639.6</ele>
        <time>2019-05-04T07:25:10Z</time>
      </trkpt>
      <trkpt lat="40.4215780" lon="-3.7137210">
        <ele>639.6</ele>
        <time>2019-05-04T07:25:11Z</time>
      </trkpt>
      <trkpt lat="40.4216060" lon="-3.7137100">
        <ele>639.7</ele>
        <time>2019-05-04T07:25:12Z</time>
      </trkpt>
      <trkpt lat="40.4216340" lon="-3.7137070">
        <ele>639.8</ele>
        <time>2019-05-04T07:25:13Z</time>
      </trkpt>
      <trkpt lat="40.4216340" lon="-3.7137070">
        <ele>639.8</ele>
        <time>2019-05-04T07:25:14Z</time>
      </trkpt>
      <trkpt lat="40.4216340" lon="-3.7137070">
        <ele>639.8</ele>
        <time>2019-05-04T07:25:15Z</time>
      </trkpt>
      <trkpt lat="40.4216340" lon="-3.7137070">
        <ele>639.8</ele>
        <time>2019-05-04T07:25:16Z</time>
      </trkpt>
      <trkpt lat="40.4216340" lon="-3.7137070">
        <ele>639.8</ele>
        <time>2019-05-04T07:25:17Z</time>
      </trkpt>
      <trkpt lat="40.4216340" lon="-3.7137070">
        <ele>639.8</ele>
        <time>2019-05-04T07:25:18Z</time>
      </trkpt>
      <trkpt lat="40.4218020" lon="-3.7135190">
        <ele>640.7</ele>
        <time>2019-05-04T07:25:19Z</time>
      </trkpt>
      <trkpt lat="40.4219710" lon="-3.7133120">
        <ele>639.9</ele>
        <time>2019-05-04T07:25:20Z</time>
      </trkpt>
      <trkpt lat="40.4221390" lon="-3.7130810">
        <ele>640.7</ele>
        <time>2019-05-04T07:25:21Z</time>
      </trkpt>
      <trkpt lat="40.4221690" lon="-3.7130210">
        <ele>640.9</ele>
        <time>2019-05-04T07:25:22Z</time>
      </trkpt>
      <trkpt lat="40.4222030" lon="-3.7129630">
        <ele>641.4</ele>
        <time>2019-05-04T07:25:23Z</time>
      </trkpt>
      <trkpt lat="40.4222400" lon="-3.7129110">
        <ele>641.9</ele>
        <time>2019-05-04T07:25:24Z</time>
      </trkpt>
      <trkpt lat="40.4222770" lon="-3.7128590">
        <ele>642.5</ele>
        <time>2019-05-04T07:25:25Z</time>
      </trkpt>
      <trkpt lat="40.4223110" lon="-3.7128100">
        <ele>643.2</ele>
        <time>2019-05-04T07:25:26Z</time>
      </trkpt>
      <trkpt lat="40.4223460" lon="-3.7127620">
        <ele>643.6</ele>
        <time>2019-05-04T07:25:27Z</time>
      </trkpt>
      <trkpt lat="40.4223770" lon="-3.7127130">
        <ele>644.1</ele>
        <time>2019-05-04T07:25:28Z</time>
      </trkpt>
      <trkpt lat="40.4224220" lon="-3.7126330">
        <ele>644.7</ele>
        <time>2019-05-04T07:25:29Z</time>
      </trkpt>
      <trkpt lat="40.4224380" lon="-3.7126010">
        <ele>645.0</ele>
        <time>2019-05-04T07:25:30Z</time>
      </trkpt>
      <trkpt lat="40.4224540" lon="-3.7125700">
        <ele>645.4</ele>
        <time>2019-05-04T07:25:31Z</time>
      </trkpt>
      <trkpt lat="40.4224770" lon="-3.7125260">
        <ele>645.6</ele>
        <time>2019-05-04T07:25:32Z</time>
      </trkpt>
      <trkpt lat="40.4225040" lon="-3.7124890">
        <ele>645.8</ele>
        <time>2019-05-04T07:25:33Z</time>
      </trkpt>
      <trkpt lat="40.4225340" lon="-3.7124510">
        <ele>646.0</ele>
        <time>2019-05-04T07:25:34Z</time>
      </trkpt>
      <trkpt lat="40.4225640" lon="-3.7124120">
        <ele>646.2</ele>
        <time>2019-05-04T07:25:35Z</time>
      </trkpt>
      <trkpt lat="40.4225890" lon="-3.7123690">
        <ele>646.4</ele>
        <time>2019-05-04T07:25:36Z</time>
      </trkpt>
      <trkpt lat="40.4226110" lon="-3.7123240">
        <ele>646.6</ele>
        <time>2019-05-04T07:25:37Z</time>
      </trkpt>
      <trkpt lat="40.4226310" lon="-3.7122770">
        <ele>646.8</ele>
        <time>2019-05-04T07:25:38Z</time>
      </trkpt>
      <trkpt lat="40.4226530" lon="-3.7122370">
        <ele>647.0</ele>
        <time>2019-05-04T07:25:39Z</time>
      </trkpt>
      <trkpt lat="40.4226750" lon="-3.7122060">
        <ele>647.1</ele>
        <time>2019-05-04T07:25:40Z</time>
      </trkpt>
      <trkpt lat="40.4226940" lon="-3.7121810">
        <ele>647.2</ele>
        <time>2019-05-04T07:25:41Z</time>
      </trkpt>
      <trkpt lat="40.4227110" lon="-3.7121570">
        <ele>647.3</ele>
        <time>2019-05-04T07:25:42Z</time>
      </trkpt>
      <trkpt lat="40.4227270" lon="-3.7121300">
        <ele>647.4</ele>
        <time>2019-05-04T07:25:43Z</time>
      </trkpt>
      <trkpt lat="40.4227440" lon="-3.7121010">
        <ele>647.5</ele>
        <time>2019-05-04T07:25:44Z</time>
      </trkpt>
      <trkpt lat="40.4227630" lon="-3.7120680">
        <ele>647.7</ele>
        <time>2019-05-04T07:25:45Z</time>
      </trkpt>
      <trkpt lat="40.4227830" lon="-3.7120310">
        <ele>647.8</ele>
        <time>2019-05-04T07:25:46Z</time>
      </trkpt>
      <trkpt lat="40.4228040" lon="-3.7119920">
        <ele>647.9</ele>
        <time>2019-05-04T07:25:47Z</time>
      </trkpt>
      <trkpt lat="40.4228240" lon="-3.7119560">
        <ele>648.0</ele>
        <time>2019-05-04T07:25:48Z</time>
      </trkpt>
      <trkpt lat="40.4228420" lon="-3.7119180">
        <ele>648.1</ele>
        <time>2019-05-04T07:25:49Z</time>
      </trkpt>
      <trkpt lat="40.4228590" lon="-3.7118840">
        <ele>648.2</ele>
        <time>2019-05-04T07:25:50Z</time>
      </trkpt>
      <trkpt lat="40.4228760" lon="-3.7118480">
        <ele>648.3</ele>
        <time>2019-05-04T07:25:51Z</time>
      </trkpt>
      <trkpt lat="40.4228930" lon="-3.7118150">
        <ele>648.4</ele>
        <time>2019-05-04T07:25:52Z</time>
      </trkpt>
      <trkpt lat="40.4229090" lon="-3.7117850">
        <ele>648.5</ele>
        <time>2019-05-04T07:25:53Z</time>
      </trkpt>
      <trkpt lat="40.4229250" lon="-3.7117550">
        <ele>648.7</ele>
        <time>2019-05-04T07:25:54Z</time>
      </trkpt>
      <trkpt lat="40.4229400" lon="-3.7117270">
        <ele>648.9</ele>
        <time>2019-05-04T07:25:55Z</time>
      </trkpt>
      <trkpt lat="40.4229560" lon="-3.7116950">
        <ele>649.2</ele>
        <time>2019-05-04T07:25:56Z</time>
      </trkpt>
      <trkpt lat="40.4229770" lon="-3.7116590">
        <ele>649.5</ele>
        <time>2019-05-04T07:25:57Z</time>
      </trkpt>
      <trkpt lat="40.4229980" lon="-3.7116160">
        <ele>649.9</ele>
        <time>2019-05-04T07:25:58Z</time>
      </trkpt>
      <trkpt lat="40.4230190" lon="-3.7115700">
        <ele>650.2</ele>
        <time>2019-05-04T07:25:59Z</time>
      </trkpt>
      <trkpt lat="40.4230370" lon="-3.7115260">
        <ele>650.6</ele>
        <time>2019-05-04T07:26:00Z</time>
      </trkpt>
      <trkpt lat="40.4230560" lon="-3.7114850">
        <ele>650.9</ele>
        <time>2019-05-04T07:26:01Z</time>
      </trkpt>
      <trkpt lat="40.4230760" lon="-3.7114450">
        <ele>651.2</ele>
        <time>2019-05-04T07:26:02Z</time>
      </trkpt>
      <trkpt lat="40.4230910" lon="-3.7114020">
        <ele>651.8</ele>
        <time>2019-05-04T07:26:03Z</time>
      </trkpt>
      <trkpt lat="40.4231030" lon="-3.7113620">
        <ele>652.1</ele>
        <time>2019-05-04T07:26:04Z</time>
      </trkpt>
      <trkpt lat="40.4231140" lon="-3.7113260">
        <ele>652.3</ele>
        <time>2019-05-04T07:26:05Z</time>
      </trkpt>
      <trkpt lat="40.4231270" lon="-3.7112970">
        <ele>652.5</ele>
        <time>2019-05-04T07:26:06Z</time>
      </trkpt>
      <trkpt lat="40.4231420" lon="-3.7112680">
        <ele>653.0</ele>
        <time>2019-05-04T07:26:07Z</time>
      </trkpt>
      <trkpt lat="40.4231580" lon="-3.7112380">
        <ele>653.6</ele>
        <time>2019-05-04T07:26:08Z</time>
      </trkpt>
      <trkpt lat="40.4231750" lon="-3.7112070">
        <ele>654.1</ele>
        <time>2019-05-04T07:26:09Z</time>
      </trkpt>
      <trkpt lat="40.4231930" lon="-3.7111760">
        <ele>654.7</ele>
        <time>2019-05-04T07:26:10Z</time>
      </trkpt>
      <trkpt lat="40.4232090" lon="-3.7111450">
        <ele>655.8</ele>
        <time>2019-05-04T07:26:11Z</time>
      </trkpt>
      <trkpt lat="40.4232250" lon="-3.7111110">
        <ele>656.5</ele>
        <time>2019-05-04T07:26:12Z</time>
      </trkpt>
      <trkpt lat="40.4232480" lon="-3.7110750">
        <ele>657.4</ele>
        <time>2019-05-04T07:26:13Z</time>
      </trkpt>
      <trkpt lat="40.4232690" lon="-3.7110330">
        <ele>658.4</ele>
        <time>2019-05-04T07:26:14Z</time>
      </trkpt>
      <trkpt lat="40.4232780" lon="-3.7109900">
        <ele>659.3</ele>
        <time>2019-05-04T07:26:15Z</time>
      </trkpt>
      <trkpt lat="40.4232780" lon="-3.7109470">
        <ele>660.1</ele>
        <time>2019-05-04T07:26:16Z</time>
      </trkpt>
      <trkpt lat="40.4232730" lon="-3.7109020">
        <ele>661.1</ele>
        <time>2019-05-04T07:26:17Z</time>
      </trkpt>
      <trkpt lat="40.4232700" lon="-3.7108540">
        <ele>661.8</ele>
        <time>2019-05-04T07:26:18Z</time>
      </trkpt>
      <trkpt lat="40.4232600" lon="-3.7108050">
        <ele>662.5</ele>
        <time>2019-05-04T07:26:19Z</time>
      </trkpt>
      <trkpt lat="40.4232490" lon="-3.7107650">
        <ele>663.3</ele>
        <time>2019-05-04T07:26:20Z</time>
      </trkpt>
      <trkpt lat="40.4232370" lon="-3.7107310">
        <ele>663.7</ele>
        <time>2019-05-04T07:26:21Z</time>
      </trkpt>
      <trkpt lat="40.4232280" lon="-3.7107030">
        <ele>664.0</ele>
        <time>2019-05-04T07:26:22Z</time>
      </trkpt>
      <trkpt lat="40.4232160" lon="-3.7106760">
        <ele>664.3</ele>
        <time>2019-05-04T07:26:23Z</time>
      </trkpt>
      <trkpt lat="40.4232040" lon="-3.7106500">
        <ele>664.6</ele>
        <time>2019-05-04T07:26:24Z</time>
      </trkpt>
      <trkpt lat="40.4231930" lon="-3.7106220">
        <ele>664.9</ele>
        <time>2019-05-04T07:26:25Z</time>
      </trkpt>
      <trkpt lat="40.4231910" lon="-3.7105930">
        <ele>665.2</ele>
        <time>2019-05-04T07:26:26Z</time>
      </trkpt>
      <trkpt lat="40.4231950" lon="-3.7105610">
        <ele>665.5</ele>
        <time>2019-05-04T07:26:27Z</time>
      </trkpt>
      <trkpt lat="40.4232040" lon="-3.7105280">
        <ele>666.0</ele>
        <time>2019-05-04T07:26:28Z</time>
      </trkpt>
      <trkpt lat="40.4232110" lon="-3.7104950">
        <ele>666.3</ele>
        <time>2019-05-04T07:26:29Z</time>
      </trkpt>
      <trkpt lat="40.4232220" lon="-3.7104600">
        <ele>666.5</ele>
        <time>2019-05-04T07:26:30Z</time>
      </trkpt>
      <trkpt lat="40.4232320" lon="-3.7104270">
        <ele>666.8</ele>
        <time>2019-05-04T07:26:31Z</time>
      </trkpt>
      <trkpt lat="40.4232420" lon="-3.7103970">
        <ele>667.0</ele>
        <time>2019-05-04T07:26:32Z</time>
      </trkpt>
      <trkpt lat="40.4232430" lon="-3.7103760">
        <ele>667.1</ele>
        <time>2019-05-04T07:26:33Z</time>
      </trkpt>
      <trkpt lat="40.4232370" lon="-3.7103610">
        <ele>667.2</ele>
        <time>2019-05-04T07:26:34Z</time>
      </trkpt>
      <trkpt lat="40.4232250" lon="-3.7103500">
        <ele>667.4</ele>
        <time>2019-05-04T07:26:35Z</time>
      </trkpt>
      <trkpt lat="40.4232060" lon="-3.7103390">
        <ele>667.6</ele>
        <time>2019-05-04T07:26:36Z</time>
      </trkpt>
      <trkpt lat="40.4231840" lon="-3.7103260">
        <ele>667.8</ele>
        <time>2019-05-04T07:26:37Z</time>
      </trkpt>
      <trkpt lat="40.4231600" lon="-3.7103070">
        <ele>668.0</ele>
        <time>2019-05-04T07:26:38Z</time>
      </trkpt>
      <trkpt lat="40.4231350" lon="-3.7102820">
        <ele>668.3</ele>
        <time>2019-05-04T07:26:39Z</time>
      </trkpt>
      <trkpt lat="40.4231070" lon="-3.7102490">
        <ele>668.6</ele>
        <time>2019-05-04T07:26:40Z</time>
      </trkpt>
      <trkpt lat="40.4230840" lon="-3.7102100">
        <ele>668.9</ele>
        <time>2019-05-04T07:26:41Z</time>
      </trkpt>
      <trkpt lat="40.4230640" lon="-3.7101680">
        <ele>669.3</ele>
        <time>2019-05-04T07:26:42Z</time>
      </trkpt>
      <trkpt lat="40.4230440" lon="-3.7101270">
        <ele>669.6</ele>
        <time>2019-05-04T07:26:43Z</time>
      </trkpt>
      <trkpt lat="40.4230200" lon="-3.7100810">
        <ele>670.0</ele>
        <time>2019-05-04T07:26:44Z</time>
      </trkpt>
      <trkpt lat="40.4229890" lon="-3.7100360">
        <ele>670.3</ele>
        <time>2019-05-04T07:26:45Z</time>
      </trkpt>
      <trkpt lat="40.4229610" lon="-3.7099890">
        <ele>670.6</ele>
        <time>2019-05-04T07:26:46Z</time>
      </trkpt>
      <trkpt lat="40.4229310" lon="-3.7099440">
        <ele>670.9</ele>
        <time>2019-05-04T07:26:47Z</time>
      </trkpt>
      <trkpt lat="40.4229050" lon="-3.7098960">
        <ele>671.2</ele>
        <time>2019-05-04T07:26:48Z</time>
      </trkpt>
      <trkpt lat="40.4228750" lon="-3.7098460">
        <ele>671.4</ele>
        <time>2019-05-04T07:26:49Z</time>
      </trkpt>
      <trkpt lat="40.4228460" lon="-3.7097910">
        <ele>671.5</ele>
        <time>2019-05-04T07:26:50Z</time>
      </trkpt>
      <trkpt lat="40.4228150" lon="-3.7097340">
        <ele>671.6</ele>
        <time>2019-05-04T07:26:51Z</time>
      </trkpt>
      <trkpt lat="40.4227820" lon="-3.7096790">
        <ele>671.8</ele>
        <time>2019-05-04T07:26:52Z</time>
      </trkpt>
      <trkpt lat="40.4227480" lon="-3.7096230">
        <ele>671.9</ele>
        <time>2019-05-04T07:26:53Z</time>
      </trkpt>
      <trkpt lat="40.4227140" lon="-3.7095690">
        <ele>672.1</ele>
        <time>2019-05-04T07:26:54Z</time>
      </trkpt>
      <trkpt lat="40.4226640" lon="-3.7095240">
        <ele>672.4</ele>
        <time>2019-05-04T07:26:55Z</time>
      </trkpt>
      <trkpt lat="40.4226090" lon="-3.7094870">
        <ele>672.9</ele>
        <time>2019-05-04T07:26:56Z</time>
      </trkpt>
      <trkpt lat="40.4225540" lon="-3.7094550">
        <ele>673.5</ele>
        <time>2019-05-04T07:26:57Z</time>
      </trkpt>
      <trkpt lat="40.4225130" lon="-3.7094120">
        <ele>674.0</ele>
        <time>2019-05-04T07:26:58Z</time>
      </trkpt>
      <trkpt lat="40.4224770" lon="-3.7093610">
        <ele>674.6</ele>
        <time>2019-05-04T07:26:59Z</time>
      </trkpt>
      <trkpt lat="40.4224400" lon="-3.7093020">
        <ele>674.9</ele>
        <time>2019-05-04T07:27:00Z</time>
      </trkpt>
      <trkpt lat="40.4224100" lon="-3.7092330">
        <ele>675.2</ele>
        <time>2019-05-04T07:27:01Z</time>
      </trkpt>
      <trkpt lat="40.4223860" lon="-3.7091580">
        <ele>675.4</ele>
        <time>2019-05-04T07:27:02Z</time>
      </trkpt>
      <trkpt lat="40.4223660" lon="-3.7090810">
        <ele>675.9</ele>
        <time>2019-05-04T07:27:03Z</time>
      </trkpt>
      <trkpt lat="40.4223440" lon="-3.7090020">
        <ele>676.0</ele>
        <time>2019-05-04T07:27:04Z</time>
      </trkpt>
      <trkpt lat="40.4223160" lon="-3.7089240">
        <ele>676.3</ele>
        <time>2019-05-04T07:27:05Z</time>
      </trkpt>
      <trkpt lat="40.4222890" lon="-3.7088420">
        <ele>676.5</ele>
        <time>2019-05-04T07:27:06Z</time>
      </trkpt>
      <trkpt lat="40.4222580" lon="-3.7087620">
        <ele>676.7</ele>
        <time>2019-05-04T07:27:07Z</time>
      </trkpt>
      <trkpt lat="40.4222200" lon="-3.7086860">
        <ele>676.9</ele>
        <time>2019-05-04T07:27:08Z</time>
      </trkpt>
      <trkpt lat="40.4221740" lon="-3.7086180">
        <ele>677.0</ele>
        <time>2019-05-04T07:27:09Z</time>
      </trkpt>
      <trkpt lat="40.4221320" lon="-3.7085520">
        <ele>677.2</ele>
        <time>2019-05-04T07:27:10Z</time>
      </trkpt>
      <trkpt lat="40.4220940" lon="-3.7084840">
        <ele>677.4</ele>
        <time>2019-05-04T07:27:11Z</time>
      </trkpt>
      <trkpt lat="40.4220600" lon="-3.7084120">
        <ele>677.6</ele>
        <time>2019-05-04T07:27:12Z</time>
      </trkpt>
      <trkpt lat="40.4220190" lon="-3.7083390">
        <ele>677.8</ele>
        <time>2019-05-04T07:27:13Z</time>
      </trkpt>
      <trkpt lat="40.4219660" lon="-3.7082670">
        <ele>678.0</ele>
        <time>2019-05-04T07:27:14Z</time>
      </trkpt>
      <trkpt lat="40.4219010" lon="-3.7081980">
        <ele>678.1</ele>
        <time>2019-05-04T07:27:15Z</time>
      </trkpt>
      <trkpt lat="40.4218220" lon="-3.7081370">
        <ele>678.2</ele>
        <time>2019-05-04T07:27:16Z</time>
      </trkpt>
      <trkpt lat="40.4217380" lon="-3.7080810">
        <ele>678.3</ele>
        <time>2019-05-04T07:27:17Z</time>
      </trkpt>
      <trkpt lat="40.4216570" lon="-3.7080250">
        <ele>678.4</ele>
        <time>2019-05-04T07:27:18Z</time>
      </trkpt>
      <trkpt lat="40.4215910" lon="-3.7079610">
        <ele>678.0</ele>
        <time>2019-05-04T07:27:19Z</time>
      </trkpt>
      <trkpt lat="40.4215400" lon="-3.7078960">
        <ele>677.8</ele>
        <time>2019-05-04T07:27:20Z</time>
      </trkpt>
      <trkpt lat="40.4214890" lon="-3.7078310">
        <ele>677.5</ele>
        <time>2019-05-04T07:27:21Z</time>
      </trkpt>
      <trkpt lat="40.4214390" lon="-3.7077650">
        <ele>677.3</ele>
        <time>2019-05-04T07:27:22Z</time>
      </trkpt>
      <trkpt lat="40.4213930" lon="-3.7076960">
        <ele>676.8</ele>
        <time>2019-05-04T07:27:23Z</time>
      </trkpt>
      <trkpt lat="40.4213510" lon="-3.7076250">
        <ele>676.8</ele>
        <time>2019-05-04T07:27:24Z</time>
      </trkpt>
      <trkpt lat="40.4213120" lon="-3.7075550">
        <ele>676.8</ele>
        <time>2019-05-04T07:27:25Z</time>
      </trkpt>
      <trkpt lat="40.4212710" lon="-3.7074840">
        <ele>676.8</ele>
        <time>2019-05-04T07:27:26Z</time>
      </trkpt>
      <trkpt lat="40.4212290" lon="-3.7074150">
        <ele>676.9</ele>
        <time>2019-05-04T07:27:27Z</time>
      </trkpt>
      <trkpt lat="40.4211870" lon="-3.7073460">
        <ele>676.9</ele>
        <time>2019-05-04T07:27:28Z</time>
      </trkpt>
      <trkpt lat="40.4211460" lon="-3.7072790">
        <ele>676.9</ele>
        <time>2019-05-04T07:27:29Z</time>
      </trkpt>
      <trkpt lat="40.4211130" lon="-3.7072130">
        <ele>676.9</ele>
        <time>2019-05-04T07:27:30Z</time>
      </trkpt>
      <trkpt lat="40.4210940" lon="-3.7071460">
        <ele>677.0</ele>
        <time>2019-05-04T07:27:31Z</time>
      </trkpt>
      <trkpt lat="40.4210800" lon="-3.7070820">
        <ele>676.9</ele>
        <time>2019-05-04T07:27:32Z</time>
      </trkpt>
      <trkpt lat="40.4210570" lon="-3.7070190">
        <ele>677.0</ele>
        <time>2019-05-04T07:27:33Z</time>
      </trkpt>
      <trkpt lat="40.4210120" lon="-3.7069600">
        <ele>677.2</ele>
        <time>2019-05-04T07:27:34Z</time>
      </trkpt>
      <trkpt lat="40.4209590" lon="-3.7068950">
        <ele>677.3</ele>
        <time>2019-05-04T07:27:35Z</time>
      </trkpt>
      <trkpt lat="40.4209100" lon="-3.7068280">
        <ele>677.5</ele>
        <time>2019-05-04T07:27:36Z</time>
      </trkpt>
      <trkpt lat="40.4208690" lon="-3.7067630">
        <ele>677.5</ele>
        <time>2019-05-04T07:27:37Z</time>
      </trkpt>
      <trkpt lat="40.4208310" lon="-3.7067010">
        <ele>677.5</ele>
        <time>2019-05-04T07:27:38Z</time>
      </trkpt>
      <trkpt lat="40.4207900" lon="-3.7066410">
        <ele>677.4</ele>
        <time>2019-05-04T07:27:39Z</time>
      </trkpt>
      <trkpt lat="40.4207470" lon="-3.7065850">
        <ele>677.4</ele>
        <time>2019-05-04T07:27:40Z</time>
      </trkpt>
      <trkpt lat="40.4207040" lon="-3.7065310">
        <ele>677.4</ele>
        <time>2019-05-04T07:27:41Z</time>
      </trkpt>
      <trkpt lat="40.4206650" lon="-3.7064830">
        <ele>677.3</ele>
        <time>2019-05-04T07:27:42Z</time>
      </trkpt>
      <trkpt lat="40.4206300" lon="-3.7064380">
        <ele>677.3</ele>
        <time>2019-05-04T07:27:43Z</time>
      </trkpt>
      <trkpt lat="40.4206010" lon="-3.7063960">
        <ele>677.3</ele>
        <time>2019-05-04T07:27:44Z</time>
      </trkpt>
      <trkpt lat="40.4205750" lon="-3.7063550">
        <ele>677.2</ele>
        <time>2019-05-04T07:27:45Z</time>
      </trkpt>
      <trkpt lat="40.4205560" lon="-3.7063080">
        <ele>677.1</ele>
        <time>2019-05-04T07:27:46Z</time>
      </trkpt>
      <trkpt lat="40.4205400" lon="-3.7062540">
        <ele>677.1</ele>
        <time>2019-05-04T07:27:47Z</time>
      </trkpt>
      <trkpt lat="40.4205320" lon="-3.7061920">
        <ele>677.0</ele>
        <time>2019-05-04T07:27:48Z</time>
      </trkpt>
      <trkpt lat="40.4205240" lon="-3.7061250">
        <ele>677.0</ele>
        <time>2019-05-04T07:27:49Z</time>
      </trkpt>
      <trkpt lat="40.4205170" lon="-3.7060530">
        <ele>677.0</ele>
        <time>2019-05-04T07:27:50Z</time>
      </trkpt>
      <trkpt lat="40.4205050" lon="-3.7059820">
        <ele>677.2</ele>
        <time>2019-05-04T07:27:51Z</time>
      </trkpt>
      <trkpt lat="40.4204940" lon="-3.7059130">
        <ele>677.4</ele>
        <time>2019-05-04T07:27:52Z</time>
      </trkpt>
      <trkpt lat="40.4204740" lon="-3.7058460">
        <ele>677.6</ele>
        <time>2019-05-04T07:27:53Z</time>
      </trkpt>
      <trkpt lat="40.4204510" lon="-3.7057850">
        <ele>677.8</ele>
        <time>2019-05-04T07:27:54Z</time>
      </trkpt>
      <trkpt lat="40.4204270" lon="-3.7057240">
        <ele>678.0</ele>
        <time>2019-05-04T07:27:55Z</time>
      </trkpt>
      <trkpt lat="40.4204090" lon="-3.7056630">
        <ele>678.2</ele>
        <time>2019-05-04T07:27:56Z</time>
      </trkpt>
      <trkpt lat="40.4203990" lon="-3.7055950">
        <ele>678.5</ele>
        <time>2019-05-04T07:27:57Z</time>
      </trkpt>
      <trkpt lat="40.4203950" lon="-3.7055240">
        <ele>678.8</ele>
        <time>2019-05-04T07:27:58Z</time>
      </trkpt>
      <trkpt lat="40.4204010" lon="-3.7054500">
        <ele>679.2</ele>
        <time>2019-05-04T07:27:59Z</time>
      </trkpt>
      <trkpt lat="40.4204090" lon="-3.7053760">
        <ele>679.6</ele>
        <time>2019-05-04T07:28:00Z</time>
      </trkpt>
      <trkpt lat="40.4204190" lon="-3.7053050">
        <ele>680.0</ele>
        <time>2019-05-04T07:28:01Z</time>
      </trkpt>
      <trkpt lat="40.4204260" lon="-3.7052420">
        <ele>680.3</ele>
        <time>2019-05-04T07:28:02Z</time>
      </trkpt>
      <trkpt lat="40.4204360" lon="-3.7051850">
        <ele>680.5</ele>
        <time>2019-05-04T07:28:03Z</time>
      </trkpt>
      <trkpt lat="40.4204420" lon="-3.7051370">
        <ele>680.7</ele>
        <time>2019-05-04T07:28:04Z</time>
      </trkpt>
      <trkpt lat="40.4204530" lon="-3.7050930">
        <ele>680.9</ele>
        <time>2019-05-04T07:28:05Z</time>
      </trkpt>
      <trkpt lat="40.4204610" lon="-3.7050550">
        <ele>681.1</ele>
        <time>2019-05-04T07:28:06Z</time>
      </trkpt>
      <trkpt lat="40.4204680" lon="-3.7050220">
        <ele>681.2</ele>
        <time>2019-05-04T07:28:07Z</time>
      </trkpt>
      <trkpt lat="40.4204710" lon="-3.7049990">
        <ele>681.3</ele>
        <time>2019-05-04T07:28:08Z</time>
      </trkpt>
      <trkpt lat="40.4204760" lon="-3.7049820">
        <ele>681.4</ele>
        <time>2019-05-04T07:28:09Z</time>
      </trkpt>
      <trkpt lat="40.4204810" lon="-3.7049700">
        <ele>681.5</ele>
        <time>2019-05-04T07:28:10Z</time>
      </trkpt>
      <trkpt lat="40.4204870" lon="-3.7049600">
        <ele>681.5</ele>
        <time>2019-05-04T07:28:11Z</time>
      </trkpt>
      <trkpt lat="40.4204930" lon="-3.7049490">
        <ele>681.6</ele>
        <time>2019-05-04T07:28:12Z</time>
      </trkpt>
      <trkpt lat="40.4204960" lon="-3.7049390">
        <ele>681.6</ele>
        <time>2019-05-04T07:28:13Z</time>
      </trkpt>
      <trkpt lat="40.4204940" lon="-3.7049290">
        <ele>681.7</ele>
        <time>2019-05-04T07:28:14Z</time>
      </trkpt>
      <trkpt lat="40.4204880" lon="-3.7049190">
        <ele>681.7</ele>
        <time>2019-05-04T07:28:15Z</time>
      </trkpt>
      <trkpt lat="40.4204810" lon="-3.7049080">
        <ele>681.8</ele>
        <time>2019-05-04T07:28:16Z</time>
      </trkpt>
      <trkpt lat="40.4204740" lon="-3.7048970">
        <ele>681.8</ele>
        <time>2019-05-04T07:28:17Z</time>
      </trkpt>
      <trkpt lat="40.4204690" lon="-3.7048870">
        <ele>681.9</ele>
        <time>2019-05-04T07:28:18Z</time>
      </trkpt>
      <trkpt lat="40.4204660" lon="-3.7048760">
        <ele>681.9</ele>
        <time>2019-05-04T07:28:19Z</time>
      </trkpt>
      <trkpt lat="40.4204660" lon="-3.7048670">
        <ele>682.0</ele>
        <time>2019-05-04T07:28:20Z</time>
      </trkpt>
      <trkpt lat="40.4204680" lon="-3.7048580">
        <ele>682.0</ele>
        <time>2019-05-04T07:28:21Z</time>
      </trkpt>
      <trkpt lat="40.4204720" lon="-3.7048480">
        <ele>682.0</ele>
        <time>2019-05-04T07:28:22Z</time>
      </trkpt>
      <trkpt lat="40.4204730" lon="-3.7048340">
        <ele>682.1</ele>
        <time>2019-05-04T07:28:23Z</time>
      </trkpt>
      <trkpt lat="40.4204700" lon="-3.7048140">
        <ele>682.2</ele>
        <time>2019-05-04T07:28:24Z</time>
      </trkpt>
      <trkpt lat="40.4204590" lon="-3.7047880">
        <ele>682.3</ele>
        <time>2019-05-04T07:28:25Z</time>
      </trkpt>
      <trkpt lat="40.4204450" lon="-3.7047560">
        <ele>682.5</ele>
        <time>2019-05-04T07:28:26Z</time>
      </trkpt>
      <trkpt lat="40.4204320" lon="-3.7047170">
        <ele>681.9</ele>
        <time>2019-05-04T07:28:27Z</time>
      </trkpt>
      <trkpt lat="40.4204200" lon="-3.7046650">
        <ele>681.5</ele>
        <time>2019-05-04T07:28:28Z</time>
      </trkpt>
      <trkpt lat="40.4204080" lon="-3.7046050">
        <ele>681.2</ele>
        <time>2019-05-04T07:28:29Z</time>
      </trkpt>
      <trkpt lat="40.4204020" lon="-3.7045360">
        <ele>680.9</ele>
        <time>2019-05-04T07:28:30Z</time>
      </trkpt>
      <trkpt lat="40.4204000" lon="-3.7044690">
        <ele>680.8</ele>
        <time>2019-05-04T07:28:31Z</time>
      </trkpt>
      <trkpt lat="40.4204010" lon="-3.7044000">
        <ele>680.8</ele>
        <time>2019-05-04T07:28:32Z</time>
      </trkpt>
      <trkpt lat="40.4203970" lon="-3.7043330">
        <ele>680.9</ele>
        <time>2019-05-04T07:28:33Z</time>
      </trkpt>
      <trkpt lat="40.4203930" lon="-3.7042660">
        <ele>681.2</ele>
        <time>2019-05-04T07:28:34Z</time>
      </trkpt>
      <trkpt lat="40.4203870" lon="-3.7041980">
        <ele>681.6</ele>
        <time>2019-05-04T07:28:35Z</time>
      </trkpt>
      <trkpt lat="40.4203790" lon="-3.7041290">
        <ele>681.9</ele>
        <time>2019-05-04T07:28:36Z</time>
      </trkpt>
      <trkpt lat="40.4203690" lon="-3.7040590">
        <ele>682.3</ele>
        <time>2019-05-04T07:28:37Z</time>
      </trkpt>
      <trkpt lat="40.4203470" lon="-3.7039920">
        <ele>682.6</ele>
        <time>2019-05-04T07:28:38Z</time>
      </trkpt>
      <trkpt lat="40.4203290" lon="-3.7039170">
        <ele>683.0</ele>
        <time>2019-05-04T07:28:39Z</time>
      </trkpt>
      <trkpt lat="40.4203130" lon="-3.7038360">
        <ele>683.2</ele>
        <time>2019-05-04T07:28:40Z</time>
      </trkpt>
      <trkpt lat="40.4203080" lon="-3.7037420">
        <ele>683.4</ele>
        <time>2019-05-04T07:28:41Z</time>
      </trkpt>
      <trkpt lat="40.4202940" lon="-3.7036460">
        <ele>683.6</ele>
        <time>2019-05-04T07:28:42Z</time>
      </trkpt>
      <trkpt lat="40.4202750" lon="-3.7035510">
        <ele>683.8</ele>
        <time>2019-05-04T07:28:43Z</time>
      </trkpt>
      <trkpt lat="40.4202590" lon="-3.7034530">
        <ele>684.3</ele>
        <time>2019-05-04T07:28:44Z</time>
      </trkpt>
      <trkpt lat="40.4202530" lon="-3.7033510">
        <ele>684.7</ele>
        <time>2019-05-04T07:28:45Z</time>
      </trkpt>
      <trkpt lat="40.4202530" lon="-3.7032450">
        <ele>685.1</ele>
        <time>2019-05-04T07:28:46Z</time>
      </trkpt>
      <trkpt lat="40.4202490" lon="-3.7031420">
        <ele>685.6</ele>
        <time>2019-05-04T07:28:47Z</time>
      </trkpt>
      <trkpt lat="40.4202420" lon="-3.7030450">
        <ele>686.0</ele>
        <time>2019-05-04T07:28:48Z</time>
      </trkpt>
      <trkpt lat="40.4202360" lon="-3.7029510">
        <ele>686.3</ele>
        <time>2019-05-04T07:28:49Z</time>
      </trkpt>
      <trkpt lat="40.4202190" lon="-3.7028640">
        <ele>686.4</ele>
        <time>2019-05-04T07:28:50Z</time>
      </trkpt>
      <trkpt lat="40.4202040" lon="-3.7027770">
        <ele>686.6</ele>
        <time>2019-05-04T07:28:51Z</time>
      </trkpt>
      <trkpt lat="40.4201890" lon="-3.7026940">
        <ele>686.7</ele>
        <time>2019-05-04T07:28:52Z</time>
      </trkpt>
      <trkpt lat="40.4201790" lon="-3.7026120">
        <ele>686.9</ele>
        <time>2019-05-04T07:28:53Z</time>
      </trkpt>
      <trkpt lat="40.4201680" lon="-3.7025350">
        <ele>687.0</ele>
        <time>2019-05-04T07:28:54Z</time>
      </trkpt>
      <trkpt lat="40.4201560" lon="-3.7024640">
        <ele>687.3</ele>
        <time>2019-05-04T07:28:55Z</time>
      </trkpt>
      <trkpt lat="40.4201520" lon="-3.7023940">
        <ele>687.6</ele>
        <time>2019-05-04T07:28:56Z</time>
      </trkpt>
      <trkpt lat="40.4201530" lon="-3.7023250">
        <ele>687.9</ele>
        <time>2019-05-04T07:28:57Z</time>
      </trkpt>
      <trkpt lat="40.4201580" lon="-3.7022520">
        <ele>687.9</ele>
        <time>2019-05-04T07:28:58Z</time>
      </trkpt>
      <trkpt lat="40.4201640" lon="-3.7021770">
        <ele>687.9</ele>
        <time>2019-05-04T07:28:59Z</time>
      </trkpt>
      <trkpt lat="40.4201690" lon="-3.7020990">
        <ele>687.9</ele>
        <time>2019-05-04T07:29:00Z</time>
      </trkpt>
      <trkpt lat="40.4201740" lon="-3.7020190">
        <ele>687.8</ele>
        <time>2019-05-04T07:29:01Z</time>
      </trkpt>
      <trkpt lat="40.4201760" lon="-3.7019390">
        <ele>687.7</ele>
        <time>2019-05-04T07:29:02Z</time>
      </trkpt>
      <trkpt lat="40.4201690" lon="-3.7018630">
        <ele>687.6</ele>
        <time>2019-05-04T07:29:03Z</time>
      </trkpt>
      <trkpt lat="40.4201500" lon="-3.7017930">
        <ele>687.6</ele>
        <time>2019-05-04T07:29:04Z</time>
      </trkpt>
      <trkpt lat="40.4201290" lon="-3.7017190">
        <ele>687.3</ele>
        <time>2019-05-04T07:29:05Z</time>
      </trkpt>
      <trkpt lat="40.4201110" lon="-3.7016370">
        <ele>687.3</ele>
        <time>2019-05-04T07:29:06Z</time>
      </trkpt>
      <trkpt lat="40.4200980" lon="-3.7015430">
        <ele>687.3</ele>
        <time>2019-05-04T07:29:07Z</time>
      </trkpt>
      <trkpt lat="40.4200870" lon="-3.7014450">
        <ele>686.7</ele>
        <time>2019-05-04T07:29:08Z</time>
      </trkpt>
      <trkpt lat="40.4200810" lon="-3.7013370">
        <ele>686.4</ele>
        <time>2019-05-04T07:29:09Z</time>
      </trkpt>
      <trkpt lat="40.4200670" lon="-3.7012260">
        <ele>686.1</ele>
        <time>2019-05-04T07:29:10Z</time>
      </trkpt>
      <trkpt lat="40.4200470" lon="-3.7011140">
        <ele>685.8</ele>
        <time>2019-05-04T07:29:11Z</time>
      </trkpt>
      <trkpt lat="40.4200240" lon="-3.7010070">
        <ele>685.5</ele>
        <time>2019-05-04T07:29:12Z</time>
      </trkpt>
      <trkpt lat="40.4199990" lon="-3.7009030">
        <ele>685.1</ele>
        <time>2019-05-04T07:29:13Z</time>
      </trkpt>
      <trkpt lat="40.4199720" lon="-3.7007960">
        <ele>684.8</ele>
        <time>2019-05-04T07:29:14Z</time>
      </trkpt>
      <trkpt lat="40.4199440" lon="-3.7006810">
        <ele>684.3</ele>
        <time>2019-05-04T07:29:15Z</time>
      </trkpt>
      <trkpt lat="40.4199140" lon="-3.7005690">
        <ele>683.5</ele>
        <time>2019-05-04T07:29:16Z</time>
      </trkpt>
      <trkpt lat="40.4198870" lon="-3.7004560">
        <ele>682.4</ele>
        <time>2019-05-04T07:29:17Z</time>
      </trkpt>
      <trkpt lat="40.4198440" lon="-3.7003450">
        <ele>681.2</ele>
        <time>2019-05-04T07:29:18Z</time>
      </trkpt>
      <trkpt lat="40.4197950" lon="-3.7002220">
        <ele>680.0</ele>
        <time>2019-05-04T07:29:19Z</time>
      </trkpt>
      <trkpt lat="40.4197260" lon="-3.7000980">
        <ele>678.8</ele>
        <time>2019-05-04T07:29:20Z</time>
      </trkpt>
      <trkpt lat="40.4196540" lon="-3.6999730">
        <ele>677.5</ele>
        <time>2019-05-04T07:29:21Z</time>
      </trkpt>
      <trkpt lat="40.4195740" lon="-3.6998510">
        <ele>676.5</ele>
        <time>2019-05-04T07:29:22Z</time>
      </trkpt>
      <trkpt lat="40.4195050" lon="-3.6997250">
        <ele>675.8</ele>
        <time>2019-05-04T07:29:23Z</time>
      </trkpt>
      <trkpt lat="40.4194520" lon="-3.6995910">
        <ele>675.3</ele>
        <time>2019-05-04T07:29:24Z</time>
      </trkpt>
      <trkpt lat="40.4194040" lon="-3.6994580">
        <ele>674.9</ele>
        <time>2019-05-04T07:29:25Z</time>
      </trkpt>
      <trkpt lat="40.4193550" lon="-3.6993270">
        <ele>674.4</ele>
        <time>2019-05-04T07:29:26Z</time>
      </trkpt>
      <trkpt lat="40.4193020" lon="-3.6992010">
        <ele>673.9</ele>
        <time>2019-05-04T07:29:27Z</time>
      </trkpt>
      <trkpt lat="40.4192550" lon="-3.6990790">
        <ele>673.4</ele>
        <time>2019-05-04T07:29:28Z</time>
      </trkpt>
      <trkpt lat="40.4192130" lon="-3.6989700">
        <ele>673.1</ele>
        <time>2019-05-04T07:29:29Z</time>
      </trkpt>
      <trkpt lat="40.4191770" lon="-3.6988740">
        <ele>672.9</ele>
        <time>2019-05-04T07:29:30Z</time>
      </trkpt>
      <trkpt lat="40.4191470" lon="-3.6987920">
        <ele>672.7</ele>
        <time>2019-05-04T07:29:31Z</time>
      </trkpt>
      <trkpt lat="40.4191230" lon="-3.6987240">
        <ele>672.5</ele>
        <time>2019-05-04T07:29:32Z</time>
      </trkpt>
      <trkpt lat="40.4191090" lon="-3.6986690">
        <ele>672.4</ele>
        <time>2019-05-04T07:29:33Z</time>
      </trkpt>
      <trkpt lat="40.4191040" lon="-3.6986300">
        <ele>672.2</ele>
        <time>2019-05-04T07:29:34Z</time>
      </trkpt>
      <trkpt lat="40.4191110" lon="-3.6986020">
        <ele>672.1</ele>
        <time>2019-05-04T07:29:35Z</time>
      </trkpt>
      <trkpt lat="40.4191220" lon="-3.6985820">
        <ele>672.0</ele>
        <time>2019-05-04T07:29:36Z</time>
      </trkpt>
      <trkpt lat="40.4191340" lon="-3.6985660">
        <ele>672.0</ele>
        <time>2019-05-04T07:29:37Z</time>
      </trkpt>
      <trkpt lat="40.4191450" lon="-3.6985530">
        <ele>671.9</ele>
        <time>2019-05-04T07:29:38Z</time>
      </trkpt>
      <trkpt lat="40.4191550" lon="-3.6985440">
        <ele>671.8</ele>
        <time>2019-05-04T07:29:39Z</time>
      </trkpt>
      <trkpt lat="40.4191640" lon="-3.6985350">
        <ele>671.8</ele>
        <time>2019-05-04T07:29:40Z</time>
      </trkpt>
      <trkpt lat="40.4191720" lon="-3.6985270">
        <ele>671.7</ele>
        <time>2019-05-04T07:29:41Z</time>
      </trkpt>
      <trkpt lat="40.4191800" lon="-3.6985180">
        <ele>671.7</ele>
        <time>2019-05-04T07:29:42Z</time>
      </trkpt>
      <trkpt lat="40.4191900" lon="-3.6985080">
        <ele>671.6</ele>
        <time>2019-05-04T07:29:43Z</time>
      </trkpt>
      <trkpt lat="40.4191990" lon="-3.6984990">
        <ele>671.6</ele>
        <time>2019-05-04T07:29:44Z</time>
      </trkpt>
      <trkpt lat="40.4192070" lon="-3.6984910">
        <ele>671.5</ele>
        <time>2019-05-04T07:29:45Z</time>
      </trkpt>
      <trkpt lat="40.4192140" lon="-3.6984830">
        <ele>671.5</ele>
        <time>2019-05-04T07:29:46Z</time>
      </trkpt>
      <trkpt lat="40.4192190" lon="-3.6984730">
        <ele>671.4</ele>
        <time>2019-05-04T07:29:47Z</time>
      </trkpt>
      <trkpt lat="40.4192190" lon="-3.6984580">
        <ele>671.4</ele>
        <time>2019-05-04T07:29:48Z</time>
      </trkpt>
      <trkpt lat="40.4192140" lon="-3.6984380">
        <ele>671.3</ele>
        <time>2019-05-04T07:29:49Z</time>
      </trkpt>
      <trkpt lat="40.4192060" lon="-3.6984120">
        <ele>671.1</ele>
        <time>2019-05-04T07:29:50Z</time>
      </trkpt>
      <trkpt lat="40.4191950" lon="-3.6983800">
        <ele>671.0</ele>
        <time>2019-05-04T07:29:51Z</time>
      </trkpt>
      <trkpt lat="40.4191840" lon="-3.6983410">
        <ele>670.8</ele>
        <time>2019-05-04T07:29:52Z</time>
      </trkpt>
      <trkpt lat="40.4191680" lon="-3.6982970">
        <ele>670.6</ele>
        <time>2019-05-04T07:29:53Z</time>
      </trkpt>
      <trkpt lat="40.4191500" lon="-3.6982440">
        <ele>670.4</ele>
        <time>2019-05-04T07:29:54Z</time>
      </trkpt>
      <trkpt lat="40.4191290" lon="-3.6981850">
        <ele>670.2</ele>
        <time>2019-05-04T07:29:55Z</time>
      </trkpt>
      <trkpt lat="40.4191060" lon="-3.6981210">
        <ele>670.0</ele>
        <time>2019-05-04T07:29:56Z</time>
      </trkpt>
      <trkpt lat="40.4190820" lon="-3.6980550">
        <ele>669.7</ele>
        <time>2019-05-04T07:29:57Z</time>
      </trkpt>
      <trkpt lat="40.4190590" lon="-3.6979860">
        <ele>669.5</ele>
        <time>2019-05-04T07:29:58Z</time>
      </trkpt>
      <trkpt lat="40.4190420" lon="-3.6979110">
        <ele>669.2</ele>
        <time>2019-05-04T07:29:59Z</time>
      </trkpt>
      <trkpt lat="40.4190210" lon="-3.6978340">
        <ele>668.9</ele>
        <time>2019-05-04T07:30:00Z</time>
      </trkpt>
      <trkpt lat="40.4190000" lon="-3.6977540">
        <ele>668.7</ele>
        <time>2019-05-04T07:30:01Z</time>
      </trkpt>
      <trkpt lat="40.4189750" lon="-3.6976730">
        <ele>668.4</ele>
        <time>2019-05-04T07:30:02Z</time>
      </trkpt>
      <trkpt lat="40.4189560" lon="-3.6975870">
        <ele>668.1</ele>
        <time>2019-05-04T07:30:03Z</time>
      </trkpt>
      <trkpt lat="40.4189340" lon="-3.6975000">
        <ele>667.9</ele>
        <time>2019-05-04T07:30:04Z</time>
      </trkpt>
      <trkpt lat="40.4189060" lon="-3.6974150">
        <ele>667.6</ele>
        <time>2019-05-04T07:30:05Z</time>
      </trkpt>
      <trkpt lat="40.4188700" lon="-3.6973340">
        <ele>667.6</ele>
        <time>2019-05-04T07:30:06Z</time>
      </trkpt>
      <trkpt lat="40.4188400" lon="-3.6972460">
        <ele>667.6</ele>
        <time>2019-05-04T07:30:07Z</time>
      </trkpt>
      <trkpt lat="40.4188160" lon="-3.6971510">
        <ele>667.6</ele>
        <time>2019-05-04T07:30:08Z</time>
      </trkpt>
      <trkpt lat="40.4187990" lon="-3.6970510">
        <ele>667.6</ele>
        <time>2019-05-04T07:30:09Z</time>
      </trkpt>
      <trkpt lat="40.4187740" lon="-3.6969590">
        <ele>667.6</ele>
        <time>2019-05-04T07:30:10Z</time>
      </trkpt>
      <trkpt lat="40.4187470" lon="-3.6968720">
        <ele>667.4</ele>
        <time>2019-05-04T07:30:11Z</time>
      </trkpt>
      <trkpt lat="40.4187170" lon="-3.6967850">
        <ele>667.1</ele>
        <time>2019-05-04T07:30:12Z</time>
      </trkpt>
      <trkpt lat="40.4186910" lon="-3.6966930">
        <ele>667.0</ele>
        <time>2019-05-04T07:30:13Z</time>
      </trkpt>
      <trkpt lat="40.4186800" lon="-3.6965940">
        <ele>666.8</ele>
        <time>2019-05-04T07:30:14Z</time>
      </trkpt>
      <trkpt lat="40.4186890" lon="-3.6964890">
        <ele>666.6</ele>
        <time>2019-05-04T07:30:15Z</time>
      </trkpt>
      <trkpt lat="40.4187160" lon="-3.6963780">
        <ele>666.7</ele>
        <time>2019-05-04T07:30:16Z</time>
      </trkpt>
      <trkpt lat="40.4187460" lon="-3.6962680">
        <ele>666.8</ele>
        <time>2019-05-04T07:30:17Z</time>
      </trkpt>
      <trkpt lat="40.4187720" lon="-3.6961600">
        <ele>666.9</ele>
        <time>2019-05-04T07:30:18Z</time>
      </trkpt>
      <trkpt lat="40.4187960" lon="-3.6960560">
        <ele>667.0</ele>
        <time>2019-05-04T07:30:19Z</time>
      </trkpt>
      <trkpt lat="40.4188190" lon="-3.6959490">
        <ele>667.2</ele>
        <time>2019-05-04T07:30:20Z</time>
      </trkpt>
      <trkpt lat="40.4188460" lon="-3.6958350">
        <ele>667.2</ele>
        <time>2019-05-04T07:30:21Z</time>
      </trkpt>
      <trkpt lat="40.4188760" lon="-3.6957160">
        <ele>666.7</ele>
        <time>2019-05-04T07:30:22Z</time>
      </trkpt>
      <trkpt lat="40.4189110" lon="-3.6955940">
        <ele>666.1</ele>
        <time>2019-05-04T07:30:23Z</time>
      </trkpt>
      <trkpt lat="40.4189440" lon="-3.6954720">
        <ele>665.5</ele>
        <time>2019-05-04T07:30:24Z</time>
      </trkpt>
      <trkpt lat="40.4189740" lon="-3.6953530">
        <ele>664.9</ele>
        <time>2019-05-04T07:30:25Z</time>
      </trkpt>
      <trkpt lat="40.4190050" lon="-3.6952330">
        <ele>664.2</ele>
        <time>2019-05-04T07:30:26Z</time>
      </trkpt>
      <trkpt lat="40.4190380" lon="-3.6951140">
        <ele>663.5</ele>
        <time>2019-05-04T07:30:27Z</time>
      </trkpt>
      <trkpt lat="40.4190740" lon="-3.6949940">
        <ele>662.7</ele>
        <time>2019-05-04T07:30:28Z</time>
      </trkpt>
      <trkpt lat="40.4191060" lon="-3.6948760">
        <ele>661.8</ele>
        <time>2019-05-04T07:30:29Z</time>
      </trkpt>
      <trkpt lat="40.4191360" lon="-3.6947590">
        <ele>660.9</ele>
        <time>2019-05-04T07:30:30Z</time>
      </trkpt>
      <trkpt lat="40.4191620" lon="-3.6946450">
        <ele>660.0</ele>
        <time>2019-05-04T07:30:31Z</time>
      </trkpt>
      <trkpt lat="40.4191880" lon="-3.6945380">
        <ele>659.2</ele>
        <time>2019-05-04T07:30:32Z</time>
      </trkpt>
      <trkpt lat="40.4192110" lon="-3.6944350">
        <ele>658.5</ele>
        <time>2019-05-04T07:30:33Z</time>
      </trkpt>
      <trkpt lat="40.4192330" lon="-3.6943330">
        <ele>657.8</ele>
        <time>2019-05-04T07:30:34Z</time>
      </trkpt>
      <trkpt lat="40.4192480" lon="-3.6942260">
        <ele>657.2</ele>
        <time>2019-05-04T07:30:35Z</time>
      </trkpt>
      <trkpt lat="40.4192550" lon="-3.6941150">
        <ele>656.3</ele>
        <time>2019-05-04T07:30:36Z</time>
      </trkpt>
      <trkpt lat="40.4192520" lon="-3.6940040">
        <ele>656.1</ele>
        <time>2019-05-04T07:30:37Z</time>
      </trkpt>
      <trkpt lat="40.4192380" lon="-3.6939030">
        <ele>655.0</ele>
        <time>2019-05-04T07:30:38Z</time>
      </trkpt>
      <trkpt lat="40.4192240" lon="-3.6938100">
        <ele>654.9</ele>
        <time>2019-05-04T07:30:39Z</time>
      </trkpt>
      <trkpt lat="40.4192120" lon="-3.6937250">
        <ele>654.3</ele>
        <time>2019-05-04T07:30:40Z</time>
      </trkpt>
      <trkpt lat="40.4192070" lon="-3.6936390">
        <ele>654.1</ele>
        <time>2019-05-04T07:30:41Z</time>
      </trkpt>
      <trkpt lat="40.4191900" lon="-3.6935560">
        <ele>653.8</ele>
        <time>2019-05-04T07:30:42Z</time>
      </trkpt>
      <trkpt lat="40.4191700" lon="-3.6934710">
        <ele>654.0</ele>
        <time>2019-05-04T07:30:43Z</time>
      </trkpt>
      <trkpt lat="40.4191500" lon="-3.6933850">
        <ele>654.1</ele>
        <time>2019-05-04T07:30:44Z</time>
      </trkpt>
      <trkpt lat="40.4191390" lon="-3.6932930">
        <ele>654.3</ele>
        <time>2019-05-04T07:30:45Z</time>
      </trkpt>
      <trkpt lat="40.4191330" lon="-3.6931990">
        <ele>654.4</ele>
        <time>2019-05-04T07:30:46Z</time>
      </trkpt>
      <trkpt lat="40.4191310" lon="-3.6931050">
        <ele>654.5</ele>
        <time>2019-05-04T07:30:47Z</time>
      </trkpt>
      <trkpt lat="40.4191400" lon="-3.6930140">
        <ele>654.7</ele>
        <time>2019-05-04T07:30:48Z</time>
      </trkpt>
      <trkpt lat="40.4191580" lon="-3.6929260">
        <ele>654.8</ele>
        <time>2019-05-04T07:30:49Z</time>
      </trkpt>
      <trkpt lat="40.4191830" lon="-3.6928410">
        <ele>654.9</ele>
        <time>2019-05-04T07:30:50Z</time>
      </trkpt>
      <trkpt lat="40.4192120" lon="-3.6927610">
        <ele>655.5</ele>
        <time>2019-05-04T07:30:51Z</time>
      </trkpt>
      <trkpt lat="40.4192460" lon="-3.6926830">
        <ele>656.1</ele>
        <time>2019-05-04T07:30:52Z</time>
      </trkpt>
      <trkpt lat="40.4192870" lon="-3.6926080">
        <ele>656.7</ele>
        <time>2019-05-04T07:30:53Z</time>
      </trkpt>
      <trkpt lat="40.4193320" lon="-3.6925340">
        <ele>657.3</ele>
        <time>2019-05-04T07:30:54Z</time>
      </trkpt>
      <trkpt lat="40.4193750" lon="-3.6924580">
        <ele>658.7</ele>
        <time>2019-05-04T07:30:55Z</time>
      </trkpt>
      <trkpt lat="40.4194040" lon="-3.6923770">
        <ele>659.7</ele>
        <time>2019-05-04T07:30:56Z</time>
      </trkpt>
      <trkpt lat="40.4194230" lon="-3.6922900">
        <ele>660.1</ele>
        <time>2019-05-04T07:30:57Z</time>
      </trkpt>
      <trkpt lat="40.4194350" lon="-3.6922000">
        <ele>660.4</ele>
        <time>2019-05-04T07:30:58Z</time>
      </trkpt>
      <trkpt lat="40.4194470" lon="-3.6921110">
        <ele>660.7</ele>
        <time>2019-05-04T07:30:59Z</time>
      </trkpt>
      <trkpt lat="40.4194590" lon="-3.6920270">
        <ele>661.2</ele>
        <time>2019-05-04T07:31:00Z</time>
      </trkpt>
      <trkpt lat="40.4194740" lon="-3.6919490">
        <ele>661.4</ele>
        <time>2019-05-04T07:31:01Z</time>
      </trkpt>
      <trkpt lat="40.4194900" lon="-3.6918760">
        <ele>661.6</ele>
        <time>2019-05-04T07:31:02Z</time>
      </trkpt>
      <trkpt lat="40.4195070" lon="-3.6918030">
        <ele>661.8</ele>
        <time>2019-05-04T07:31:03Z</time>
      </trkpt>
      <trkpt lat="40.4195240" lon="-3.6917250">
        <ele>662.1</ele>
        <time>2019-05-04T07:31:04Z</time>
      </trkpt>
      <trkpt lat="40.4195410" lon="-3.6916450">
        <ele>662.4</ele>
        <time>2019-05-04T07:31:05Z</time>
      </trkpt>
      <trkpt lat="40.4195600" lon="-3.6915680">
        <ele>662.8</ele>
        <time>2019-05-04T07:31:06Z</time>
      </trkpt>
      <trkpt lat="40.4195800" lon="-3.6914940">
        <ele>663.2</ele>
        <time>2019-05-04T07:31:07Z</time>
      </trkpt>
      <trkpt lat="40.4195980" lon="-3.6914250">
        <ele>663.6</ele>
        <time>2019-05-04T07:31:08Z</time>
      </trkpt>
      <trkpt lat="40.4196140" lon="-3.6913620">
        <ele>663.9</ele>
        <time>2019-05-04T07:31:09Z</time>
      </trkpt>
      <trkpt lat="40.4196280" lon="-3.6913030">
        <ele>664.3</ele>
        <time>2019-05-04T07:31:10Z</time>
      </trkpt>
      <trkpt lat="40.4196420" lon="-3.6912530">
        <ele>664.5</ele>
        <time>2019-05-04T07:31:11Z</time>
      </trkpt>
      <trkpt lat="40.4196640" lon="-3.6912120">
        <ele>664.6</ele>
        <time>2019-05-04T07:31:12Z</time>
      </trkpt>
      <trkpt lat="40.4196920" lon="-3.6911790">
        <ele>664.8</ele>
        <time>2019-05-04T07:31:13Z</time>
      </trkpt>
      <trkpt lat="40.4197210" lon="-3.6911430">
        <ele>664.9</ele>
        <time>2019-05-04T07:31:14Z</time>
      </trkpt>
      <trkpt lat="40.4197360" lon="-3.6910870">
        <ele>665.1</ele>
        <time>2019-05-04T07:31:15Z</time>
      </trkpt>
      <trkpt lat="40.4197290" lon="-3.6910300">
        <ele>665.3</ele>
        <time>2019-05-04T07:31:16Z</time>
      </trkpt>
      <trkpt lat="40.4197160" lon="-3.6909770">
        <ele>665.4</ele>
        <time>2019-05-04T07:31:17Z</time>
      </trkpt>
      <trkpt lat="40.4197150" lon="-3.6909390">
        <ele>665.5</ele>
        <time>2019-05-04T07:31:18Z</time>
      </trkpt>
      <trkpt lat="40.4197300" lon="-3.6908980">
        <ele>665.7</ele>
        <time>2019-05-04T07:31:19Z</time>
      </trkpt>
      <trkpt lat="40.4197490" lon="-3.6908490">
        <ele>665.8</ele>
        <time>2019-05-04T07:31:20Z</time>
      </trkpt>
      <trkpt lat="40.4197640" lon="-3.6907940">
        <ele>666.0</ele>
        <time>2019-05-04T07:31:21Z</time>
      </trkpt>
      <trkpt lat="40.4197840" lon="-3.6907290">
        <ele>666.1</ele>
        <time>2019-05-04T07:31:22Z</time>
      </trkpt>
      <trkpt lat="40.4198070" lon="-3.6906630">
        <ele>666.3</ele>
        <time>2019-05-04T07:31:23Z</time>
      </trkpt>
      <trkpt lat="40.4198320" lon="-3.6905930">
        <ele>666.4</ele>
        <time>2019-05-04T07:31:24Z</time>
      </trkpt>
      <trkpt lat="40.4198590" lon="-3.6905210">
        <ele>666.5</ele>
        <time>2019-05-04T07:31:25Z</time>
      </trkpt>
      <trkpt lat="40.4198830" lon="-3.6904420">
        <ele>666.6</ele>
        <time>2019-05-04T07:31:26Z</time>
      </trkpt>
      <trkpt lat="40.4199070" lon="-3.6903630">
        <ele>666.7</ele>
        <time>2019-05-04T07:31:27Z</time>
      </trkpt>
      <trkpt lat="40.4199270" lon="-3.6902750">
        <ele>666.8</ele>
        <time>2019-05-04T07:31:28Z</time>
      </trkpt>
      <trkpt lat="40.4199430" lon="-3.6901840">
        <ele>666.9</ele>
        <time>2019-05-04T07:31:29Z</time>
      </trkpt>
      <trkpt lat="40.4199530" lon="-3.6900830">
        <ele>667.0</ele>
        <time>2019-05-04T07:31:30Z</time>
      </trkpt>
      <trkpt lat="40.4199600" lon="-3.6899840">
        <ele>667.2</ele>
        <time>2019-05-04T07:31:31Z</time>
      </trkpt>
      <trkpt lat="40.4199650" lon="-3.6898850">
        <ele>667.3</ele>
        <time>2019-05-04T07:31:32Z</time>
      </trkpt>
      <trkpt lat="40.4199640" lon="-3.6897870">
        <ele>667.5</ele>
        <time>2019-05-04T07:31:33Z</time>
      </trkpt>
      <trkpt lat="40.4199530" lon="-3.6896810">
        <ele>667.7</ele>
        <time>2019-05-04T07:31:34Z</time>
      </trkpt>
      <trkpt lat="40.4199320" lon="-3.6895740">
        <ele>667.9</ele>
        <time>2019-05-04T07:31:35Z</time>
      </trkpt>
      <trkpt lat="40.4199030" lon="-3.6894680">
        <ele>668.1</ele>
        <time>2019-05-04T07:31:36Z</time>
      </trkpt>
      <trkpt lat="40.4198710" lon="-3.6893740">
        <ele>668.0</ele>
        <time>2019-05-04T07:31:37Z</time>
      </trkpt>
      <trkpt lat="40.4198390" lon="-3.6892930">
        <ele>668.0</ele>
        <time>2019-05-04T07:31:38Z</time>
      </trkpt>
      <trkpt lat="40.4198060" lon="-3.6892190">
        <ele>667.9</ele>
        <time>2019-05-04T07:31:39Z</time>
      </trkpt>
      <trkpt lat="40.4197760" lon="-3.6891480">
        <ele>667.8</ele>
        <time>2019-05-04T07:31:40Z</time>
      </trkpt>
      <trkpt lat="40.4197460" lon="-3.6890780">
        <ele>667.7</ele>
        <time>2019-05-04T07:31:41Z</time>
      </trkpt>
      <trkpt lat="40.4197200" lon="-3.6890100">
        <ele>667.6</ele>
        <time>2019-05-04T07:31:42Z</time>
      </trkpt>
      <trkpt lat="40.4196990" lon="-3.6889420">
        <ele>667.5</ele>
        <time>2019-05-04T07:31:43Z</time>
      </trkpt>
      <trkpt lat="40.4196870" lon="-3.6888750">
        <ele>667.4</ele>
        <time>2019-05-04T07:31:44Z</time>
      </trkpt>
      <trkpt lat="40.4196860" lon="-3.6888070">
        <ele>667.2</ele>
        <time>2019-05-04T07:31:45Z</time>
      </trkpt>
      <trkpt lat="40.4196910" lon="-3.6887420">
        <ele>666.9</ele>
        <time>2019-05-04T07:31:46Z</time>
      </trkpt>
      <trkpt lat="40.4197010" lon="-3.6886810">
        <ele>666.7</ele>
        <time>2019-05-04T07:31:47Z</time>
      </trkpt>
      <trkpt lat="40.4197150" lon="-3.6886270">
        <ele>666.5</ele>
        <time>2019-05-04T07:31:48Z</time>
      </trkpt>
      <trkpt lat="40.4197340" lon="-3.6885790">
        <ele>666.3</ele>
        <time>2019-05-04T07:31:49Z</time>
      </trkpt>
      <trkpt lat="40.4197590" lon="-3.6885320">
        <ele>666.3</ele>
        <time>2019-05-04T07:31:50Z</time>
      </trkpt>
      <trkpt lat="40.4197890" lon="-3.6884840">
        <ele>666.3</ele>
        <time>2019-05-04T07:31:51Z</time>
      </trkpt>
      <trkpt lat="40.4198350" lon="-3.6884120">
        <ele>666.2</ele>
        <time>2019-05-04T07:31:52Z</time>
      </trkpt>
      <trkpt lat="40.4198500" lon="-3.6883880">
        <ele>666.2</ele>
        <time>2019-05-04T07:31:53Z</time>
      </trkpt>
      <trkpt lat="40.4198500" lon="-3.6883880">
        <ele>666.2</ele>
        <time>2019-05-04T07:31:54Z</time>
      </trkpt>
      <trkpt lat="40.4198920" lon="-3.6883280">
        <ele>666.4</ele>
        <time>2019-05-04T07:31:55Z</time>
      </trkpt>
      <trkpt lat="40.4199350" lon="-3.6882700">
        <ele>666.5</ele>
        <time>2019-05-04T07:31:56Z</time>
      </trkpt>
      <trkpt lat="40.4199750" lon="-3.6882150">
        <ele>666.7</ele>
        <time>2019-05-04T07:31:57Z</time>
      </trkpt>
      <trkpt lat="40.4200000" lon="-3.6881760">
        <ele>666.8</ele>
        <time>2019-05-04T07:31:58Z</time>
      </trkpt>
      <trkpt lat="40.4200210" lon="-3.6881340">
        <ele>666.9</ele>
        <time>2019-05-04T07:31:59Z</time>
      </trkpt>
      <trkpt lat="40.4200380" lon="-3.6880900">
        <ele>667.0</ele>
        <time>2019-05-04T07:32:00Z</time>
      </trkpt>
      <trkpt lat="40.4200530" lon="-3.6880420">
        <ele>667.1</ele>
        <time>2019-05-04T07:32:01Z</time>
      </trkpt>
      <trkpt lat="40.4200670" lon="-3.6879910">
        <ele>667.1</ele>
        <time>2019-05-04T07:32:02Z</time>
      </trkpt>
      <trkpt lat="40.4200800" lon="-3.6879350">
        <ele>667.4</ele>
        <time>2019-05-04T07:32:03Z</time>
      </trkpt>
      <trkpt lat="40.4200930" lon="-3.6878760">
        <ele>667.5</ele>
        <time>2019-05-04T07:32:04Z</time>
      </trkpt>
      <trkpt lat="40.4201040" lon="-3.6878180">
        <ele>667.7</ele>
        <time>2019-05-04T07:32:05Z</time>
      </trkpt>
      <trkpt lat="40.4201170" lon="-3.6877600">
        <ele>667.8</ele>
        <time>2019-05-04T07:32:06Z</time>
      </trkpt>
      <trkpt lat="40.4201320" lon="-3.6877020">
        <ele>667.9</ele>
        <time>2019-05-04T07:32:07Z</time>
      </trkpt>
      <trkpt lat="40.4201510" lon="-3.6876450">
        <ele>668.1</ele>
        <time>2019-05-04T07:32:08Z</time>
      </trkpt>
      <trkpt lat="40.4201720" lon="-3.6875840">
        <ele>668.2</ele>
        <time>2019-05-04T07:32:09Z</time>
      </trkpt>
      <trkpt lat="40.4201940" lon="-3.6875240">
        <ele>668.4</ele>
        <time>2019-05-04T07:32:10Z</time>
      </trkpt>
      <trkpt lat="40.4202150" lon="-3.6874650">
        <ele>668.6</ele>
        <time>2019-05-04T07:32:11Z</time>
      </trkpt>
      <trkpt lat="40.4202360" lon="-3.6874090">
        <ele>668.8</ele>
        <time>2019-05-04T07:32:12Z</time>
      </trkpt>
      <trkpt lat="40.4202570" lon="-3.6873530">
        <ele>669.0</ele>
        <time>2019-05-04T07:32:13Z</time>
      </trkpt>
      <trkpt lat="40.4202790" lon="-3.6872980">
        <ele>669.3</ele>
        <time>2019-05-04T07:32:14Z</time>
      </trkpt>
      <trkpt lat="40.4202970" lon="-3.6872490">
        <ele>669.4</ele>
        <time>2019-05-04T07:32:15Z</time>
      </trkpt>
      <trkpt lat="40.4203170" lon="-3.6871950">
        <ele>669.7</ele>
        <time>2019-05-04T07:32:16Z</time>
      </trkpt>
      <trkpt lat="40.4203360" lon="-3.6871380">
        <ele>669.9</ele>
        <time>2019-05-04T07:32:17Z</time>
      </trkpt>
      <trkpt lat="40.4203590" lon="-3.6870750">
        <ele>670.2</ele>
        <time>2019-05-04T07:32:18Z</time>
      </trkpt>
      <trkpt lat="40.4203780" lon="-3.6870150">
        <ele>670.5</ele>
        <time>2019-05-04T07:32:19Z</time>
      </trkpt>
      <trkpt lat="40.4203980" lon="-3.6869580">
        <ele>670.7</ele>
        <time>2019-05-04T07:32:20Z</time>
      </trkpt>
      <trkpt lat="40.4204190" lon="-3.6869030">
        <ele>671.0</ele>
        <time>2019-05-04T07:32:21Z</time>
      </trkpt>
      <trkpt lat="40.4204400" lon="-3.6868490">
        <ele>671.2</ele>
        <time>2019-05-04T07:32:22Z</time>
      </trkpt>
      <trkpt lat="40.4204550" lon="-3.6867920">
        <ele>671.5</ele>
        <time>2019-05-04T07:32:23Z</time>
      </trkpt>
      <trkpt lat="40.4204670" lon="-3.6867330">
        <ele>671.8</ele>
        <time>2019-05-04T07:32:24Z</time>
      </trkpt>
      <trkpt lat="40.4204780" lon="-3.6866710">
        <ele>672.2</ele>
        <time>2019-05-04T07:32:25Z</time>
      </trkpt>
      <trkpt lat="40.4204910" lon="-3.6866060">
        <ele>672.6</ele>
        <time>2019-05-04T07:32:26Z</time>
      </trkpt>
      <trkpt lat="40.4205030" lon="-3.6865410">
        <ele>673.1</ele>
        <time>2019-05-04T07:32:27Z</time>
      </trkpt>
      <trkpt lat="40.4205120" lon="-3.6864750">
        <ele>673.6</ele>
        <time>2019-05-04T07:32:28Z</time>
      </trkpt>
      <trkpt lat="40.4205220" lon="-3.6864090">
        <ele>674.0</ele>
        <time>2019-05-04T07:32:29Z</time>
      </trkpt>
      <trkpt lat="40.4205310" lon="-3.6863420">
        <ele>674.4</ele>
        <time>2019-05-04T07:32:30Z</time>
      </trkpt>
      <trkpt lat="40.4205370" lon="-3.6862790">
        <ele>674.7</ele>
        <time>2019-05-04T07:32:31Z</time>
      </trkpt>
      <trkpt lat="40.4205420" lon="-3.6862180">
        <ele>675.1</ele>
        <time>2019-05-04T07:32:32Z</time>
      </trkpt>
      <trkpt lat="40.4205470" lon="-3.6861570">
        <ele>675.3</ele>
        <time>2019-05-04T07:32:33Z</time>
      </trkpt>
      <trkpt lat="40.4205550" lon="-3.6860980">
        <ele>675.6</ele>
        <time>2019-05-04T07:32:34Z</time>
      </trkpt>
      <trkpt lat="40.4205620" lon="-3.6860400">
        <ele>675.7</ele>
        <time>2019-05-04T07:32:35Z</time>
      </trkpt>
      <trkpt lat="40.4205710" lon="-3.6859830">
        <ele>675.9</ele>
        <time>2019-05-04T07:32:36Z</time>
      </trkpt>
      <trkpt lat="40.4205790" lon="-3.6859240">
        <ele>676.1</ele>
        <time>2019-05-04T07:32:37Z</time>
      </trkpt>
      <trkpt lat="40.4205940" lon="-3.6858640">
        <ele>676.3</ele>
        <time>2019-05-04T07:32:38Z</time>
      </trkpt>
      <trkpt lat="40.4206100" lon="-3.6858040">
        <ele>676.5</ele>
        <time>2019-05-04T07:32:39Z</time>
      </trkpt>
      <trkpt lat="40.4206290" lon="-3.6857420">
        <ele>676.7</ele>
        <time>2019-05-04T07:32:40Z</time>
      </trkpt>
      <trkpt lat="40.4206470" lon="-3.6856790">
        <ele>676.9</ele>
        <time>2019-05-04T07:32:41Z</time>
      </trkpt>
      <trkpt lat="40.4206690" lon="-3.6856200">
        <ele>677.2</ele>
        <time>2019-05-04T07:32:42Z</time>
      </trkpt>
      <trkpt lat="40.4206880" lon="-3.6855570">
        <ele>677.5</ele>
        <time>2019-05-04T07:32:43Z</time>
      </trkpt>
      <trkpt lat="40.4207040" lon="-3.6854920">
        <ele>677.8</ele>
        <time>2019-05-04T07:32:44Z</time>
      </trkpt>
      <trkpt lat="40.4207160" lon="-3.6854240">
        <ele>678.1</ele>
        <time>2019-05-04T07:32:45Z</time>
      </trkpt>
      <trkpt lat="40.4207310" lon="-3.6853570">
        <ele>678.3</ele>
        <time>2019-05-04T07:32:46Z</time>
      </trkpt>
      <trkpt lat="40.4207470" lon="-3.6852910">
        <ele>678.6</ele>
        <time>2019-05-04T07:32:47Z</time>
      </trkpt>
      <trkpt lat="40.4207610" lon="-3.6852250">
        <ele>678.7</ele>
        <time>2019-05-04T07:32:48Z</time>
      </trkpt>
      <trkpt lat="40.4207720" lon="-3.6851610">
        <ele>678.9</ele>
        <time>2019-05-04T07:32:49Z</time>
      </trkpt>
      <trkpt lat="40.4207800" lon="-3.6850980">
        <ele>679.0</ele>
        <time>2019-05-04T07:32:50Z</time>
      </trkpt>
      <trkpt lat="40.4207860" lon="-3.6850370">
        <ele>679.2</ele>
        <time>2019-05-04T07:32:51Z</time>
      </trkpt>
      <trkpt lat="40.4207920" lon="-3.6849740">
        <ele>679.4</ele>
        <time>2019-05-04T07:32:52Z</time>
      </trkpt>
      <trkpt lat="40.4207960" lon="-3.6849130">
        <ele>679.6</ele>
        <time>2019-05-04T07:32:53Z</time>
      </trkpt>
      <trkpt lat="40.4208020" lon="-3.6848500">
        <ele>679.9</ele>
        <time>2019-05-04T07:32:54Z</time>
      </trkpt>
      <trkpt lat="40.4208130" lon="-3.6847850">
        <ele>680.1</ele>
        <time>2019-05-04T07:32:55Z</time>
      </trkpt>
      <trkpt lat="40.4208270" lon="-3.6847180">
        <ele>680.2</ele>
        <time>2019-05-04T07:32:56Z</time>
      </trkpt>
      <trkpt lat="40.4208410" lon="-3.6846540">
        <ele>680.3</ele>
        <time>2019-05-04T07:32:57Z</time>
      </trkpt>
      <trkpt lat="40.4208560" lon="-3.6845890">
        <ele>680.4</ele>
        <time>2019-05-04T07:32:58Z</time>
      </trkpt>
      <trkpt lat="40.4208710" lon="-3.6845250">
        <ele>680.5</ele>
        <time>2019-05-04T07:32:59Z</time>
      </trkpt>
      <trkpt lat="40.4208880" lon="-3.6844600">
        <ele>680.5</ele>
        <time>2019-05-04T07:33:00Z</time>
      </trkpt>
      <trkpt lat="40.4209060" lon="-3.6843990">
        <ele>680.5</ele>
        <time>2019-05-04T07:33:01Z</time>
      </trkpt>
      <trkpt lat="40.4209240" lon="-3.6843390">
        <ele>680.5</ele>
        <time>2019-05-04T07:33:02Z</time>
      </trkpt>
      <trkpt lat="40.4209410" lon="-3.6842770">
        <ele>680.5</ele>
        <time>2019-05-04T07:33:03Z</time>
      </trkpt>
      <trkpt lat="40.4209560" lon="-3.6842100">
        <ele>680.6</ele>
        <time>2019-05-04T07:33:04Z</time>
      </trkpt>
      <trkpt lat="40.4209720" lon="-3.6841430">
        <ele>680.6</ele>
        <time>2019-05-04T07:33:05Z</time>
      </trkpt>
      <trkpt lat="40.4209890" lon="-3.6840760">
        <ele>680.6</ele>
        <time>2019-05-04T07:33:06Z</time>
      </trkpt>
      <trkpt lat="40.4210060" lon="-3.6840110">
        <ele>680.6</ele>
        <time>2019-05-04T07:33:07Z</time>
      </trkpt>
      <trkpt lat="40.4210230" lon="-3.6839450">
        <ele>680.7</ele>
        <time>2019-05-04T07:33:08Z</time>
      </trkpt>
      <trkpt lat="40.4210390" lon="-3.6838790">
        <ele>680.8</ele>
        <time>2019-05-04T07:33:09Z</time>
      </trkpt>
      <trkpt lat="40.4210530" lon="-3.6838110">
        <ele>681.0</ele>
        <time>2019-05-04T07:33:10Z</time>
      </trkpt>
      <trkpt lat="40.4210690" lon="-3.6837440">
        <ele>681.2</ele>
        <time>2019-05-04T07:33:11Z</time>
      </trkpt>
      <trkpt lat="40.4210860" lon="-3.6836780">
        <ele>681.4</ele>
        <time>2019-05-04T07:33:12Z</time>
      </trkpt>
      <trkpt lat="40.4211050" lon="-3.6836160">
        <ele>681.7</ele>
        <time>2019-05-04T07:33:13Z</time>
      </trkpt>
      <trkpt lat="40.4211250" lon="-3.6835590">
        <ele>681.9</ele>
        <time>2019-05-04T07:33:14Z</time>
      </trkpt>
      <trkpt lat="40.4211440" lon="-3.6835020">
        <ele>682.1</ele>
        <time>2019-05-04T07:33:15Z</time>
      </trkpt>
      <trkpt lat="40.4211650" lon="-3.6834430">
        <ele>682.3</ele>
        <time>2019-05-04T07:33:16Z</time>
      </trkpt>
      <trkpt lat="40.4211870" lon="-3.6833810">
        <ele>682.4</ele>
        <time>2019-05-04T07:33:17Z</time>
      </trkpt>
      <trkpt lat="40.4212090" lon="-3.6833180">
        <ele>682.6</ele>
        <time>2019-05-04T07:33:18Z</time>
      </trkpt>
      <trkpt lat="40.4212270" lon="-3.6832520">
        <ele>682.7</ele>
        <time>2019-05-04T07:33:19Z</time>
      </trkpt>
      <trkpt lat="40.4212430" lon="-3.6831840">
        <ele>682.8</ele>
        <time>2019-05-04T07:33:20Z</time>
      </trkpt>
      <trkpt lat="40.4212580" lon="-3.6831160">
        <ele>682.9</ele>
        <time>2019-05-04T07:33:21Z</time>
      </trkpt>
      <trkpt lat="40.4212750" lon="-3.6830500">
        <ele>683.0</ele>
        <time>2019-05-04T07:33:22Z</time>
      </trkpt>
      <trkpt lat="40.4212910" lon="-3.6829820">
        <ele>683.0</ele>
        <time>2019-05-04T07:33:23Z</time>
      </trkpt>
      <trkpt lat="40.4213060" lon="-3.6829100">
        <ele>683.0</ele>
        <time>2019-05-04T07:33:24Z</time>
      </trkpt>
      <trkpt lat="40.4213190" lon="-3.6828370">
        <ele>683.0</ele>
        <time>2019-05-04T07:33:25Z</time>
      </trkpt>
      <trkpt lat="40.4213310" lon="-3.6827630">
        <ele>683.0</ele>
        <time>2019-05-04T07:33:26Z</time>
      </trkpt>
      <trkpt lat="40.4213420" lon="-3.6826910">
        <ele>682.9</ele>
        <time>2019-05-04T07:33:27Z</time>
      </trkpt>
      <trkpt lat="40.4213540" lon="-3.6826180">
        <ele>682.9</ele>
        <time>2019-05-04T07:33:28Z</time>
      </trkpt>
      <trkpt lat="40.4213670" lon="-3.6825450">
        <ele>682.8</ele>
        <time>2019-05-04T07:33:29Z</time>
      </trkpt>
      <trkpt lat="40.4213800" lon="-3.6824710">
        <ele>682.7</ele>
        <time>2019-05-04T07:33:30Z</time>
      </trkpt>
      <trkpt lat="40.4213920" lon="-3.6823970">
        <ele>682.6</ele>
        <time>2019-05-04T07:33:31Z</time>
      </trkpt>
      <trkpt lat="40.4214030" lon="-3.6823240">
        <ele>682.6</ele>
        <time>2019-05-04T07:33:32Z</time>
      </trkpt>
      <trkpt lat="40.4214130" lon="-3.6822510">
        <ele>682.5</ele>
        <time>2019-05-04T07:33:33Z</time>
      </trkpt>
      <trkpt lat="40.4214240" lon="-3.6821800">
        <ele>682.5</ele>
        <time>2019-05-04T07:33:34Z</time>
      </trkpt>
      <trkpt lat="40.4214340" lon="-3.6821110">
        <ele>682.4</ele>
        <time>2019-05-04T07:33:35Z</time>
      </trkpt>
      <trkpt lat="40.4214440" lon="-3.6820410">
        <ele>682.4</ele>
        <time>2019-05-04T07:33:36Z</time>
      </trkpt>
      <trkpt lat="40.4214540" lon="-3.6819730">
        <ele>682.4</ele>
        <time>2019-05-04T07:33:37Z</time>
      </trkpt>
      <trkpt lat="40.4214660" lon="-3.6819050">
        <ele>682.4</ele>
        <time>2019-05-04T07:33:38Z</time>
      </trkpt>
      <trkpt lat="40.4214780" lon="-3.6818390">
        <ele>682.5</ele>
        <time>2019-05-04T07:33:39Z</time>
      </trkpt>
      <trkpt lat="40.4214910" lon="-3.6817760">
        <ele>682.6</ele>
        <time>2019-05-04T07:33:40Z</time>
      </trkpt>
      <trkpt lat="40.4215030" lon="-3.6817140">
        <ele>682.7</ele>
        <time>2019-05-04T07:33:41Z</time>
      </trkpt>
      <trkpt lat="40.4215100" lon="-3.6816560">
        <ele>682.9</ele>
        <time>2019-05-04T07:33:42Z</time>
      </trkpt>
      <trkpt lat="40.4215170" lon="-3.6815990">
        <ele>683.1</ele>
        <time>2019-05-04T07:33:43Z</time>
      </trkpt>
      <trkpt lat="40.4215250" lon="-3.6815440">
        <ele>683.3</ele>
        <time>2019-05-04T07:33:44Z</time>
      </trkpt>
      <trkpt lat="40.4215370" lon="-3.6814860">
        <ele>683.5</ele>
        <time>2019-05-04T07:33:45Z</time>
      </trkpt>
      <trkpt lat="40.4215490" lon="-3.6814300">
        <ele>683.6</ele>
        <time>2019-05-04T07:33:46Z</time>
      </trkpt>
      <trkpt lat="40.4215570" lon="-3.6813760">
        <ele>683.7</ele>
        <time>2019-05-04T07:33:47Z</time>
      </trkpt>
      <trkpt lat="40.4215580" lon="-3.6813250">
        <ele>683.8</ele>
        <time>2019-05-04T07:33:48Z</time>
      </trkpt>
      <trkpt lat="40.4215570" lon="-3.6812760">
        <ele>683.8</ele>
        <time>2019-05-04T07:33:49Z</time>
      </trkpt>
      <trkpt lat="40.4215520" lon="-3.6812340">
        <ele>683.8</ele>
        <time>2019-05-04T07:33:50Z</time>
      </trkpt>
      <trkpt lat="40.4215460" lon="-3.6811970">
        <ele>683.8</ele>
        <time>2019-05-04T07:33:51Z</time>
      </trkpt>
      <trkpt lat="40.4215400" lon="-3.6811660">
        <ele>683.9</ele>
        <time>2019-05-04T07:33:52Z</time>
      </trkpt>
      <trkpt lat="40.4215390" lon="-3.6811360">
        <ele>683.9</ele>
        <time>2019-05-04T07:33:53Z</time>
      </trkpt>
      <trkpt lat="40.4215420" lon="-3.6811010">
        <ele>683.9</ele>
        <time>2019-05-04T07:33:54Z</time>
      </trkpt>
      <trkpt lat="40.4215430" lon="-3.6810630">
        <ele>684.0</ele>
        <time>2019-05-04T07:33:55Z</time>
      </trkpt>
      <trkpt lat="40.4215410" lon="-3.6810210">
        <ele>684.1</ele>
        <time>2019-05-04T07:33:56Z</time>
      </trkpt>
      <trkpt lat="40.4215400" lon="-3.6809780">
        <ele>684.1</ele>
        <time>2019-05-04T07:33:57Z</time>
      </trkpt>
      <trkpt lat="40.4215430" lon="-3.6809320">
        <ele>684.2</ele>
        <time>2019-05-04T07:33:58Z</time>
      </trkpt>
      <trkpt lat="40.4215480" lon="-3.6808850">
        <ele>684.3</ele>
        <time>2019-05-04T07:33:59Z</time>
      </trkpt>
      <trkpt lat="40.4215500" lon="-3.6808400">
        <ele>684.4</ele>
        <time>2019-05-04T07:34:00Z</time>
      </trkpt>
      <trkpt lat="40.4215540" lon="-3.6807950">
        <ele>684.4</ele>
        <time>2019-05-04T07:34:01Z</time>
      </trkpt>
      <trkpt lat="40.4215580" lon="-3.6807500">
        <ele>684.5</ele>
        <time>2019-05-04T07:34:02Z</time>
      </trkpt>
      <trkpt lat="40.4215630" lon="-3.6807020">
        <ele>684.6</ele>
        <time>2019-05-04T07:34:03Z</time>
      </trkpt>
      <trkpt lat="40.4215630" lon="-3.6806550">
        <ele>684.6</ele>
        <time>2019-05-04T07:34:04Z</time>
      </trkpt>
      <trkpt lat="40.4215620" lon="-3.6806090">
        <ele>684.7</ele>
        <time>2019-05-04T07:34:05Z</time>
      </trkpt>
      <trkpt lat="40.4215610" lon="-3.6805690">
        <ele>684.7</ele>
        <time>2019-05-04T07:34:06Z</time>
      </trkpt>
      <trkpt lat="40.4215640" lon="-3.6805330">
        <ele>684.8</ele>
        <time>2019-05-04T07:34:07Z</time>
      </trkpt>
      <trkpt lat="40.4215630" lon="-3.6805080">
        <ele>684.8</ele>
        <time>2019-05-04T07:34:08Z</time>
      </trkpt>
      <trkpt lat="40.4215550" lon="-3.6804910">
        <ele>684.8</ele>
        <time>2019-05-04T07:34:09Z</time>
      </trkpt>
      <trkpt lat="40.4215420" lon="-3.6804840">
        <ele>684.9</ele>
        <time>2019-05-04T07:34:10Z</time>
      </trkpt>
      <trkpt lat="40.4215300" lon="-3.6804760">
        <ele>684.9</ele>
        <time>2019-05-04T07:34:11Z</time>
      </trkpt>
      <trkpt lat="40.4215210" lon="-3.6804670">
        <ele>684.9</ele>
        <time>2019-05-04T07:34:12Z</time>
      </trkpt>
      <trkpt lat="40.4215150" lon="-3.6804550">
        <ele>684.9</ele>
        <time>2019-05-04T07:34:13Z</time>
      </trkpt>
      <trkpt lat="40.4215080" lon="-3.6804370">
        <ele>685.0</ele>
        <time>2019-05-04T07:34:14Z</time>
      </trkpt>
      <trkpt lat="40.4215020" lon="-3.6804180">
        <ele>685.0</ele>
        <time>2019-05-04T07:34:15Z</time>
      </trkpt>
      <trkpt lat="40.4214940" lon="-3.6804000">
        <ele>685.0</ele>
        <time>2019-05-04T07:34:16Z</time>
      </trkpt>
      <trkpt lat="40.4214860" lon="-3.6803910">
        <ele>685.0</ele>
        <time>2019-05-04T07:34:17Z</time>
      </trkpt>
      <trkpt lat="40.4214830" lon="-3.6803830">
        <ele>685.0</ele>
        <time>2019-05-04T07:34:18Z</time>
      </trkpt>
      <trkpt lat="40.4214860" lon="-3.6803770">
        <ele>685.0</ele>
        <time>2019-05-04T07:34:19Z</time>
      </trkpt>
      <trkpt lat="40.4214920" lon="-3.6803680">
        <ele>685.0</ele>
        <time>2019-05-04T07:34:20Z</time>
      </trkpt>
      <trkpt lat="40.4214980" lon="-3.6803560">
        <ele>685.0</ele>
        <time>2019-05-04T07:34:21Z</time>
      </trkpt>
      <trkpt lat="40.4215060" lon="-3.6803400">
        <ele>685.1</ele>
        <time>2019-05-04T07:34:22Z</time>
      </trkpt>
      <trkpt lat="40.4215170" lon="-3.6803230">
        <ele>685.1</ele>
        <time>2019-05-04T07:34:23Z</time>
      </trkpt>
      <trkpt lat="40.4215300" lon="-3.6802940">
        <ele>685.1</ele>
        <time>2019-05-04T07:34:24Z</time>
      </trkpt>
      <trkpt lat="40.4215470" lon="-3.6802530">
        <ele>685.1</ele>
        <time>2019-05-04T07:34:25Z</time>
      </trkpt>
      <trkpt lat="40.4215720" lon="-3.6801970">
        <ele>685.1</ele>
        <time>2019-05-04T07:34:26Z</time>
      </trkpt>
      <trkpt lat="40.4215990" lon="-3.6801370">
        <ele>685.2</ele>
        <time>2019-05-04T07:34:27Z</time>
      </trkpt>
      <trkpt lat="40.4216240" lon="-3.6800670">
        <ele>685.2</ele>
        <time>2019-05-04T07:34:28Z</time>
      </trkpt>
      <trkpt lat="40.4216450" lon="-3.6799830">
        <ele>685.3</ele>
        <time>2019-05-04T07:34:29Z</time>
      </trkpt>
      <trkpt lat="40.4216680" lon="-3.6798910">
        <ele>685.5</ele>
        <time>2019-05-04T07:34:30Z</time>
      </trkpt>
      <trkpt lat="40.4216870" lon="-3.6797920">
        <ele>685.6</ele>
        <time>2019-05-04T07:34:31Z</time>
      </trkpt>
      <trkpt lat="40.4216970" lon="-3.6796860">
        <ele>685.7</ele>
        <time>2019-05-04T07:34:32Z</time>
      </trkpt>
      <trkpt lat="40.4216980" lon="-3.6795840">
        <ele>685.8</ele>
        <time>2019-05-04T07:34:33Z</time>
      </trkpt>
      <trkpt lat="40.4217000" lon="-3.6794900">
        <ele>685.8</ele>
        <time>2019-05-04T07:34:34Z</time>
      </trkpt>
      <trkpt lat="40.4217000" lon="-3.6794070">
        <ele>685.9</ele>
        <time>2019-05-04T07:34:35Z</time>
      </trkpt>
      <trkpt lat="40.4216920" lon="-3.6793290">
        <ele>686.0</ele>
        <time>2019-05-04T07:34:36Z</time>
      </trkpt>
      <trkpt lat="40.4216740" lon="-3.6792550">
        <ele>686.2</ele>
        <time>2019-05-04T07:34:37Z</time>
      </trkpt>
      <trkpt lat="40.4216480" lon="-3.6791860">
        <ele>686.3</ele>
        <time>2019-05-04T07:34:38Z</time>
      </trkpt>
      <trkpt lat="40.4216230" lon="-3.6791170">
        <ele>686.3</ele>
        <time>2019-05-04T07:34:39Z</time>
      </trkpt>
      <trkpt lat="40.4216080" lon="-3.6790460">
        <ele>686.3</ele>
        <time>2019-05-04T07:34:40Z</time>
      </trkpt>
      <trkpt lat="40.4216000" lon="-3.6789740">
        <ele>686.3</ele>
        <time>2019-05-04T07:34:41Z</time>
      </trkpt>
      <trkpt lat="40.4216000" lon="-3.6788960">
        <ele>686.3</ele>
        <time>2019-05-04T07:34:42Z</time>
      </trkpt>
      <trkpt lat="40.4215940" lon="-3.6788190">
        <ele>686.3</ele>
        <time>2019-05-04T07:34:43Z</time>
      </trkpt>
      <trkpt lat="40.4215870" lon="-3.6787410">
        <ele>686.2</ele>
        <time>2019-05-04T07:34:44Z</time>
      </trkpt>
      <trkpt lat="40.4215740" lon="-3.6786650">
        <ele>686.2</ele>
        <time>2019-05-04T07:34:45Z</time>
      </trkpt>
      <trkpt lat="40.4215670" lon="-3.6785840">
        <ele>686.1</ele>
        <time>2019-05-04T07:34:46Z</time>
      </trkpt>
      <trkpt lat="40.4215600" lon="-3.6785010">
        <ele>686.1</ele>
        <time>2019-05-04T07:34:47Z</time>
      </trkpt>
      <trkpt lat="40.4215540" lon="-3.6784170">
        <ele>686.1</ele>
        <time>2019-05-04T07:34:48Z</time>
      </trkpt>
      <trkpt lat="40.4215420" lon="-3.6783390">
        <ele>686.2</ele>
        <time>2019-05-04T07:34:49Z</time>
      </trkpt>
      <trkpt lat="40.4215270" lon="-3.6782630">
        <ele>686.3</ele>
        <time>2019-05-04T07:34:50Z</time>
      </trkpt>
      <trkpt lat="40.4215120" lon="-3.6781880">
        <ele>686.4</ele>
        <time>2019-05-04T07:34:51Z</time>
      </trkpt>
      <trkpt lat="40.4214990" lon="-3.6781140">
        <ele>686.5</ele>
        <time>2019-05-04T07:34:52Z</time>
      </trkpt>
      <trkpt lat="40.4214900" lon="-3.6780400">
        <ele>686.6</ele>
        <time>2019-05-04T07:34:53Z</time>
      </trkpt>
      <trkpt lat="40.4214850" lon="-3.6779680">
        <ele>686.6</ele>
        <time>2019-05-04T07:34:54Z</time>
      </trkpt>
      <trkpt lat="40.4214840" lon="-3.6778950">
        <ele>686.6</ele>
        <time>2019-05-04T07:34:55Z</time>
      </trkpt>
      <trkpt lat="40.4214830" lon="-3.6778260">
        <ele>686.6</ele>
        <time>2019-05-04T07:34:56Z</time>
      </trkpt>
      <trkpt lat="40.4214730" lon="-3.6777680">
        <ele>686.6</ele>
        <time>2019-05-04T07:34:57Z</time>
      </trkpt>
      <trkpt lat="40.4214540" lon="-3.6777200">
        <ele>686.6</ele>
        <time>2019-05-04T07:34:58Z</time>
      </trkpt>
      <trkpt lat="40.4214410" lon="-3.6776820">
        <ele>686.5</ele>
        <time>2019-05-04T07:34:59Z</time>
      </trkpt>
      <trkpt lat="40.4214380" lon="-3.6776460">
        <ele>686.5</ele>
        <time>2019-05-04T07:35:00Z</time>
      </trkpt>
      <trkpt lat="40.4214440" lon="-3.6776070">
        <ele>686.5</ele>
        <time>2019-05-04T07:35:01Z</time>
      </trkpt>
      <trkpt lat="40.4214450" lon="-3.6775550">
        <ele>686.5</ele>
        <time>2019-05-04T07:35:02Z</time>
      </trkpt>
      <trkpt lat="40.4214390" lon="-3.6774960">
        <ele>686.5</ele>
        <time>2019-05-04T07:35:03Z</time>
      </trkpt>
      <trkpt lat="40.4214330" lon="-3.6774340">
        <ele>686.5</ele>
        <time>2019-05-04T07:35:04Z</time>
      </trkpt>
      <trkpt lat="40.4214260" lon="-3.6773790">
        <ele>686.5</ele>
        <time>2019-05-04T07:35:05Z</time>
      </trkpt>
      <trkpt lat="40.4214240" lon="-3.6773290">
        <ele>686.5</ele>
        <time>2019-05-04T07:35:06Z</time>
      </trkpt>
      <trkpt lat="40.4214250" lon="-3.6772790">
        <ele>686.5</ele>
        <time>2019-05-04T07:35:07Z</time>
      </trkpt>
      <trkpt lat="40.4214330" lon="-3.6772270">
        <ele>686.6</ele>
        <time>2019-05-04T07:35:08Z</time>
      </trkpt>
      <trkpt lat="40.4214430" lon="-3.6771720">
        <ele>686.7</ele>
        <time>2019-05-04T07:35:09Z</time>
      </trkpt>
      <trkpt lat="40.4214500" lon="-3.6771240">
        <ele>686.7</ele>
        <time>2019-05-04T07:35:10Z</time>
      </trkpt>
      <trkpt lat="40.4214560" lon="-3.6770760">
        <ele>686.8</ele>
        <time>2019-05-04T07:35:11Z</time>
      </trkpt>
      <trkpt lat="40.4214600" lon="-3.6770320">
        <ele>686.8</ele>
        <time>2019-05-04T07:35:12Z</time>
      </trkpt>
      <trkpt lat="40.4214730" lon="-3.6769820">
        <ele>686.9</ele>
        <time>2019-05-04T07:35:13Z</time>
      </trkpt>
      <trkpt lat="40.4214890" lon="-3.6769320">
        <ele>686.9</ele>
        <time>2019-05-04T07:35:14Z</time>
      </trkpt>
      <trkpt lat="40.4215070" lon="-3.6768810">
        <ele>687.0</ele>
        <time>2019-05-04T07:35:15Z</time>
      </trkpt>
      <trkpt lat="40.4215200" lon="-3.6768330">
        <ele>687.0</ele>
        <time>2019-05-04T07:35:16Z</time>
      </trkpt>
      <trkpt lat="40.4215310" lon="-3.6767850">
        <ele>686.9</ele>
        <time>2019-05-04T07:35:17Z</time>
      </trkpt>
      <trkpt lat="40.4215380" lon="-3.6767370">
        <ele>686.9</ele>
        <time>2019-05-04T07:35:18Z</time>
      </trkpt>
      <trkpt lat="40.4215450" lon="-3.6766910">
        <ele>686.9</ele>
        <time>2019-05-04T07:35:19Z</time>
      </trkpt>
      <trkpt lat="40.4215490" lon="-3.6766540">
        <ele>686.9</ele>
        <time>2019-05-04T07:35:20Z</time>
      </trkpt>
      <trkpt lat="40.4215500" lon="-3.6766220">
        <ele>686.9</ele>
        <time>2019-05-04T07:35:21Z</time>
      </trkpt>
      <trkpt lat="40.4215480" lon="-3.6765970">
        <ele>686.9</ele>
        <time>2019-05-04T07:35:22Z</time>
      </trkpt>
      <trkpt lat="40.4215520" lon="-3.6765740">
        <ele>686.9</ele>
        <time>2019-05-04T07:35:23Z</time>
      </trkpt>
      <trkpt lat="40.4215580" lon="-3.6765500">
        <ele>686.9</ele>
        <time>2019-05-04T07:35:24Z</time>
      </trkpt>
      <trkpt lat="40.4215680" lon="-3.6765220">
        <ele>686.9</ele>
        <time>2019-05-04T07:35:25Z</time>
      </trkpt>
      <trkpt lat="40.4215810" lon="-3.6764910">
        <ele>687.0</ele>
        <time>2019-05-04T07:35:26Z</time>
      </trkpt>
      <trkpt lat="40.4215910" lon="-3.6764550">
        <ele>687.0</ele>
        <time>2019-05-04T07:35:27Z</time>
      </trkpt>
      <trkpt lat="40.4216000" lon="-3.6764170">
        <ele>687.0</ele>
        <time>2019-05-04T07:35:28Z</time>
      </trkpt>
      <trkpt lat="40.4216040" lon="-3.6763780">
        <ele>687.1</ele>
        <time>2019-05-04T07:35:29Z</time>
      </trkpt>
      <trkpt lat="40.4216050" lon="-3.6763410">
        <ele>687.2</ele>
        <time>2019-05-04T07:35:30Z</time>
      </trkpt>
      <trkpt lat="40.4216040" lon="-3.6763060">
        <ele>687.2</ele>
        <time>2019-05-04T07:35:31Z</time>
      </trkpt>
      <trkpt lat="40.4216030" lon="-3.6762730">
        <ele>687.3</ele>
        <time>2019-05-04T07:35:32Z</time>
      </trkpt>
      <trkpt lat="40.4216000" lon="-3.6762430">
        <ele>687.3</ele>
        <time>2019-05-04T07:35:33Z</time>
      </trkpt>
      <trkpt lat="40.4215940" lon="-3.6762200">
        <ele>687.4</ele>
        <time>2019-05-04T07:35:34Z</time>
      </trkpt>
      <trkpt lat="40.4215890" lon="-3.6762010">
        <ele>687.4</ele>
        <time>2019-05-04T07:35:35Z</time>
      </trkpt>
      <trkpt lat="40.4215870" lon="-3.6761870">
        <ele>687.4</ele>
        <time>2019-05-04T07:35:36Z</time>
      </trkpt>
      <trkpt lat="40.4215900" lon="-3.6761710">
        <ele>687.4</ele>
        <time>2019-05-04T07:35:37Z</time>
      </trkpt>
      <trkpt lat="40.4215940" lon="-3.6761520">
        <ele>687.4</ele>
        <time>2019-05-04T07:35:38Z</time>
      </trkpt>
      <trkpt lat="40.4215960" lon="-3.6761320">
        <ele>687.4</ele>
        <time>2019-05-04T07:35:39Z</time>
      </trkpt>
      <trkpt lat="40.4215880" lon="-3.6761150">
        <ele>687.4</ele>
        <time>2019-05-04T07:35:40Z</time>
      </trkpt>
      <trkpt lat="40.4215740" lon="-3.6761000">
        <ele>687.4</ele>
        <time>2019-05-04T07:35:41Z</time>
      </trkpt>
      <trkpt lat="40.4215550" lon="-3.6760800">
        <ele>687.4</ele>
        <time>2019-05-04T07:35:42Z</time>
      </trkpt>
      <trkpt lat="40.4215390" lon="-3.6760550">
        <ele>687.4</ele>
        <time>2019-05-04T07:35:43Z</time>
      </trkpt>
      <trkpt lat="40.4215250" lon="-3.6760270">
        <ele>687.4</ele>
        <time>2019-05-04T07:35:44Z</time>
      </trkpt>
      <trkpt lat="40.4215150" lon="-3.6759980">
        <ele>687.4</ele>
        <time>2019-05-04T07:35:45Z</time>
      </trkpt>
      <trkpt lat="40.4215090" lon="-3.6759710">
        <ele>687.4</ele>
        <time>2019-05-04T07:35:46Z</time>
      </trkpt>
      <trkpt lat="40.4215060" lon="-3.6759380">
        <ele>687.4</ele>
        <time>2019-05-04T07:35:47Z</time>
      </trkpt>
      <trkpt lat="40.4215030" lon="-3.6759000">
        <ele>687.4</ele>
        <time>2019-05-04T07:35:48Z</time>
      </trkpt>
      <trkpt lat="40.4214960" lon="-3.6758590">
        <ele>687.4</ele>
        <time>2019-05-04T07:35:49Z</time>
      </trkpt>
      <trkpt lat="40.4214910" lon="-3.6758250">
        <ele>687.3</ele>
        <time>2019-05-04T07:35:50Z</time>
      </trkpt>
      <trkpt lat="40.4214880" lon="-3.6757930">
        <ele>687.3</ele>
        <time>2019-05-04T07:35:51Z</time>
      </trkpt>
      <trkpt lat="40.4214870" lon="-3.6757580">
        <ele>687.3</ele>
        <time>2019-05-04T07:35:52Z</time>
      </trkpt>
      <trkpt lat="40.4214820" lon="-3.6757160">
        <ele>687.3</ele>
        <time>2019-05-04T07:35:53Z</time>
      </trkpt>
      <trkpt lat="40.4214790" lon="-3.6756710">
        <ele>687.2</ele>
        <time>2019-05-04T07:35:54Z</time>
      </trkpt>
      <trkpt lat="40.4214780" lon="-3.6756270">
        <ele>687.2</ele>
        <time>2019-05-04T07:35:55Z</time>
      </trkpt>
      <trkpt lat="40.4214790" lon="-3.6755840">
        <ele>687.2</ele>
        <time>2019-05-04T07:35:56Z</time>
      </trkpt>
      <trkpt lat="40.4214810" lon="-3.6755430">
        <ele>687.2</ele>
        <time>2019-05-04T07:35:57Z</time>
      </trkpt>
      <trkpt lat="40.4214820" lon="-3.6755010">
        <ele>687.1</ele>
        <time>2019-05-04T07:35:58Z</time>
      </trkpt>
      <trkpt lat="40.4214840" lon="-3.6754560">
        <ele>687.1</ele>
        <time>2019-05-04T07:35:59Z</time>
      </trkpt>
      <trkpt lat="40.4214890" lon="-3.6754030">
        <ele>687.1</ele>
        <time>2019-05-04T07:36:00Z</time>
      </trkpt>
      <trkpt lat="40.4214960" lon="-3.6753430">
        <ele>687.0</ele>
        <time>2019-05-04T07:36:01Z</time>
      </trkpt>
      <trkpt lat="40.4215040" lon="-3.6752800">
        <ele>687.0</ele>
        <time>2019-05-04T07:36:02Z</time>
      </trkpt>
      <trkpt lat="40.4215070" lon="-3.6752200">
        <ele>687.0</ele>
        <time>2019-05-04T07:36:03Z</time>
      </trkpt>
      <trkpt lat="40.4215030" lon="-3.6751640">
        <ele>686.9</ele>
        <time>2019-05-04T07:36:04Z</time>
      </trkpt>
      <trkpt lat="40.4214960" lon="-3.6751100">
        <ele>686.9</ele>
        <time>2019-05-04T07:36:05Z</time>
      </trkpt>
      <trkpt lat="40.4214910" lon="-3.6750570">
        <ele>686.9</ele>
        <time>2019-05-04T07:36:06Z</time>
      </trkpt>
      <trkpt lat="40.4214910" lon="-3.6750020">
        <ele>686.8</ele>
        <time>2019-05-04T07:36:07Z</time>
      </trkpt>
      <trkpt lat="40.4214930" lon="-3.6749480">
        <ele>686.8</ele>
        <time>2019-05-04T07:36:08Z</time>
      </trkpt>
      <trkpt lat="40.4214960" lon="-3.6748950">
        <ele>686.8</ele>
        <time>2019-05-04T07:36:09Z</time>
      </trkpt>
      <trkpt lat="40.4214990" lon="-3.6748440">
        <ele>686.7</ele>
        <time>2019-05-04T07:36:10Z</time>
      </trkpt>
      <trkpt lat="40.4215020" lon="-3.6747910">
        <ele>686.7</ele>
        <time>2019-05-04T07:36:11Z</time>
      </trkpt>
      <trkpt lat="40.4215090" lon="-3.6747370">
        <ele>686.7</ele>
        <time>2019-05-04T07:36:12Z</time>
      </trkpt>
      <trkpt lat="40.4215140" lon="-3.6746840">
        <ele>686.6</ele>
        <time>2019-05-04T07:36:13Z</time>
      </trkpt>
      <trkpt lat="40.4215150" lon="-3.6746380">
        <ele>686.6</ele>
        <time>2019-05-04T07:36:14Z</time>
      </trkpt>
      <trkpt lat="40.4215040" lon="-3.6746000">
        <ele>686.6</ele>
        <time>2019-05-04T07:36:15Z</time>
      </trkpt>
      <trkpt lat="40.4214890" lon="-3.6745690">
        <ele>686.6</ele>
        <time>2019-05-04T07:36:16Z</time>
      </trkpt>
      <trkpt lat="40.4214770" lon="-3.6745460">
        <ele>686.5</ele>
        <time>2019-05-04T07:36:17Z</time>
      </trkpt>
      <trkpt lat="40.4214730" lon="-3.6745270">
        <ele>686.5</ele>
        <time>2019-05-04T07:36:18Z</time>
      </trkpt>
      <trkpt lat="40.4214730" lon="-3.6745040">
        <ele>686.5</ele>
        <time>2019-05-04T07:36:19Z</time>
      </trkpt>
      <trkpt lat="40.4214740" lon="-3.6744670">
        <ele>686.5</ele>
        <time>2019-05-04T07:36:20Z</time>
      </trkpt>
      <trkpt lat="40.4214780" lon="-3.6744200">
        <ele>686.5</ele>
        <time>2019-05-04T07:36:21Z</time>
      </trkpt>
      <trkpt lat="40.4214770" lon="-3.6743680">
        <ele>686.4</ele>
        <time>2019-05-04T07:36:22Z</time>
      </trkpt>
      <trkpt lat="40.4214730" lon="-3.6743230">
        <ele>686.4</ele>
        <time>2019-05-04T07:36:23Z</time>
      </trkpt>
      <trkpt lat="40.4214700" lon="-3.6742860">
        <ele>686.4</ele>
        <time>2019-05-04T07:36:24Z</time>
      </trkpt>
      <trkpt lat="40.4214710" lon="-3.6742530">
        <ele>686.4</ele>
        <time>2019-05-04T07:36:25Z</time>
      </trkpt>
      <trkpt lat="40.4214740" lon="-3.6742190">
        <ele>686.3</ele>
        <time>2019-05-04T07:36:26Z</time>
      </trkpt>
      <trkpt lat="40.4214740" lon="-3.6741810">
        <ele>686.3</ele>
        <time>2019-05-04T07:36:27Z</time>
      </trkpt>
      <trkpt lat="40.4214750" lon="-3.6741410">
        <ele>686.3</ele>
        <time>2019-05-04T07:36:28Z</time>
      </trkpt>
      <trkpt lat="40.4214710" lon="-3.6740960">
        <ele>686.3</ele>
        <time>2019-05-04T07:36:29Z</time>
      </trkpt>
      <trkpt lat="40.4214670" lon="-3.6740490">
        <ele>686.2</ele>
        <time>2019-05-04T07:36:30Z</time>
      </trkpt>
      <trkpt lat="40.4214650" lon="-3.6739960">
        <ele>686.2</ele>
        <time>2019-05-04T07:36:31Z</time>
      </trkpt>
      <trkpt lat="40.4214670" lon="-3.6739420">
        <ele>686.2</ele>
        <time>2019-05-04T07:36:32Z</time>
      </trkpt>
      <trkpt lat="40.4214710" lon="-3.6738900">
        <ele>686.1</ele>
        <time>2019-05-04T07:36:33Z</time>
      </trkpt>
      <trkpt lat="40.4214720" lon="-3.6738420">
        <ele>686.1</ele>
        <time>2019-05-04T07:36:34Z</time>
      </trkpt>
      <trkpt lat="40.4214730" lon="-3.6738000">
        <ele>686.1</ele>
        <time>2019-05-04T07:36:35Z</time>
      </trkpt>
      <trkpt lat="40.4214730" lon="-3.6737580">
        <ele>686.0</ele>
        <time>2019-05-04T07:36:36Z</time>
      </trkpt>
      <trkpt lat="40.4214730" lon="-3.6737190">
        <ele>686.0</ele>
        <time>2019-05-04T07:36:37Z</time>
      </trkpt>
      <trkpt lat="40.4214730" lon="-3.6736690">
        <ele>686.0</ele>
        <time>2019-05-04T07:36:38Z</time>
      </trkpt>
      <trkpt lat="40.4214750" lon="-3.6736110">
        <ele>685.9</ele>
        <time>2019-05-04T07:36:39Z</time>
      </trkpt>
      <trkpt lat="40.4214790" lon="-3.6735510">
        <ele>685.9</ele>
        <time>2019-05-04T07:36:40Z</time>
      </trkpt>
      <trkpt lat="40.4214830" lon="-3.6734970">
        <ele>685.9</ele>
        <time>2019-05-04T07:36:41Z</time>
      </trkpt>
      <trkpt lat="40.4214860" lon="-3.6734490">
        <ele>685.8</ele>
        <time>2019-05-04T07:36:42Z</time>
      </trkpt>
      <trkpt lat="40.4214860" lon="-3.6733990">
        <ele>685.8</ele>
        <time>2019-05-04T07:36:43Z</time>
      </trkpt>
      <trkpt lat="40.4214850" lon="-3.6733500">
        <ele>685.8</ele>
        <time>2019-05-04T07:36:44Z</time>
      </trkpt>
      <trkpt lat="40.4214780" lon="-3.6732970">
        <ele>685.7</ele>
        <time>2019-05-04T07:36:45Z</time>
      </trkpt>
      <trkpt lat="40.4214710" lon="-3.6732440">
        <ele>685.7</ele>
        <time>2019-05-04T07:36:46Z</time>
      </trkpt>
      <trkpt lat="40.4214460" lon="-3.6731970">
        <ele>685.6</ele>
        <time>2019-05-04T07:36:47Z</time>
      </trkpt>
      <trkpt lat="40.4214220" lon="-3.6731640">
        <ele>685.6</ele>
        <time>2019-05-04T07:36:48Z</time>
      </trkpt>
      <trkpt lat="40.4213930" lon="-3.6731370">
        <ele>685.5</ele>
        <time>2019-05-04T07:36:49Z</time>
      </trkpt>
      <trkpt lat="40.4213730" lon="-3.6731060">
        <ele>685.4</ele>
        <time>2019-05-04T07:36:50Z</time>
      </trkpt>
      <trkpt lat="40.4213550" lon="-3.6730690">
        <ele>685.3</ele>
        <time>2019-05-04T07:36:51Z</time>
      </trkpt>
      <trkpt lat="40.4213390" lon="-3.6730310">
        <ele>685.2</ele>
        <time>2019-05-04T07:36:52Z</time>
      </trkpt>
      <trkpt lat="40.4213300" lon="-3.6729820">
        <ele>685.1</ele>
        <time>2019-05-04T07:36:53Z</time>
      </trkpt>
      <trkpt lat="40.4213240" lon="-3.6729240">
        <ele>684.9</ele>
        <time>2019-05-04T07:36:54Z</time>
      </trkpt>
      <trkpt lat="40.4213190" lon="-3.6728570">
        <ele>684.7</ele>
        <time>2019-05-04T07:36:55Z</time>
      </trkpt>
      <trkpt lat="40.4213120" lon="-3.6727930">
        <ele>684.6</ele>
        <time>2019-05-04T07:36:56Z</time>
      </trkpt>
      <trkpt lat="40.4213070" lon="-3.6727290">
        <ele>684.5</ele>
        <time>2019-05-04T07:36:57Z</time>
      </trkpt>
      <trkpt lat="40.4213040" lon="-3.6726700">
        <ele>684.4</ele>
        <time>2019-05-04T07:36:58Z</time>
      </trkpt>
      <trkpt lat="40.4213050" lon="-3.6726100">
        <ele>684.3</ele>
        <time>2019-05-04T07:36:59Z</time>
      </trkpt>
      <trkpt lat="40.4213050" lon="-3.6725480">
        <ele>684.3</ele>
        <time>2019-05-04T07:37:00Z</time>
      </trkpt>
      <trkpt lat="40.4213110" lon="-3.6724760">
        <ele>684.2</ele>
        <time>2019-05-04T07:37:01Z</time>
      </trkpt>
      <trkpt lat="40.4213200" lon="-3.6723970">
        <ele>684.2</ele>
        <time>2019-05-04T07:37:02Z</time>
      </trkpt>
      <trkpt lat="40.4213310" lon="-3.6723150">
        <ele>684.1</ele>
        <time>2019-05-04T07:37:03Z</time>
      </trkpt>
      <trkpt lat="40.4213350" lon="-3.6722370">
        <ele>684.0</ele>
        <time>2019-05-04T07:37:04Z</time>
      </trkpt>
      <trkpt lat="40.4213330" lon="-3.6721630">
        <ele>684.0</ele>
        <time>2019-05-04T07:37:05Z</time>
      </trkpt>
      <trkpt lat="40.4213250" lon="-3.6720940">
        <ele>683.9</ele>
        <time>2019-05-04T07:37:06Z</time>
      </trkpt>
      <trkpt lat="40.4213140" lon="-3.6720250">
        <ele>683.9</ele>
        <time>2019-05-04T07:37:07Z</time>
      </trkpt>
      <trkpt lat="40.4212970" lon="-3.6719600">
        <ele>683.8</ele>
        <time>2019-05-04T07:37:08Z</time>
      </trkpt>
      <trkpt lat="40.4212790" lon="-3.6719000">
        <ele>683.7</ele>
        <time>2019-05-04T07:37:09Z</time>
      </trkpt>
      <trkpt lat="40.4212590" lon="-3.6718430">
        <ele>683.6</ele>
        <time>2019-05-04T07:37:10Z</time>
      </trkpt>
      <trkpt lat="40.4212450" lon="-3.6717810">
        <ele>683.5</ele>
        <time>2019-05-04T07:37:11Z</time>
      </trkpt>
      <trkpt lat="40.4212350" lon="-3.6717090">
        <ele>683.4</ele>
        <time>2019-05-04T07:37:12Z</time>
      </trkpt>
      <trkpt lat="40.4212360" lon="-3.6716240">
        <ele>683.2</ele>
        <time>2019-05-04T07:37:13Z</time>
      </trkpt>
      <trkpt lat="40.4212410" lon="-3.6715330">
        <ele>682.9</ele>
        <time>2019-05-04T07:37:14Z</time>
      </trkpt>
      <trkpt lat="40.4212450" lon="-3.6714400">
        <ele>682.7</ele>
        <time>2019-05-04T07:37:15Z</time>
      </trkpt>
      <trkpt lat="40.4212440" lon="-3.6713490">
        <ele>682.5</ele>
        <time>2019-05-04T07:37:16Z</time>
      </trkpt>
      <trkpt lat="40.4212400" lon="-3.6712580">
        <ele>682.2</ele>
        <time>2019-05-04T07:37:17Z</time>
      </trkpt>
      <trkpt lat="40.4212340" lon="-3.6711660">
        <ele>682.0</ele>
        <time>2019-05-04T07:37:18Z</time>
      </trkpt>
      <trkpt lat="40.4212250" lon="-3.6710750">
        <ele>681.7</ele>
        <time>2019-05-04T07:37:19Z</time>
      </trkpt>
      <trkpt lat="40.4212180" lon="-3.6709850">
        <ele>681.5</ele>
        <time>2019-05-04T07:37:20Z</time>
      </trkpt>
      <trkpt lat="40.4212150" lon="-3.6708940">
        <ele>681.3</ele>
        <time>2019-05-04T07:37:21Z</time>
      </trkpt>
      <trkpt lat="40.4212160" lon="-3.6708000">
        <ele>681.0</ele>
        <time>2019-05-04T07:37:22Z</time>
      </trkpt>
      <trkpt lat="40.4212180" lon="-3.6707050">
        <ele>680.6</ele>
        <time>2019-05-04T07:37:23Z</time>
      </trkpt>
      <trkpt lat="40.4212190" lon="-3.6706110">
        <ele>680.2</ele>
        <time>2019-05-04T07:37:24Z</time>
      </trkpt>
      <trkpt lat="40.4212200" lon="-3.6705190">
        <ele>679.8</ele>
        <time>2019-05-04T07:37:25Z</time>
      </trkpt>
      <trkpt lat="40.4212180" lon="-3.6704310">
        <ele>679.4</ele>
        <time>2019-05-04T07:37:26Z</time>
      </trkpt>
      <trkpt lat="40.4212150" lon="-3.6703450">
        <ele>679.1</ele>
        <time>2019-05-04T07:37:27Z</time>
      </trkpt>
      <trkpt lat="40.4212060" lon="-3.6702620">
        <ele>678.9</ele>
        <time>2019-05-04T07:37:28Z</time>
      </trkpt>
      <trkpt lat="40.4211930" lon="-3.6701790">
        <ele>678.8</ele>
        <time>2019-05-04T07:37:29Z</time>
      </trkpt>
      <trkpt lat="40.4211800" lon="-3.6700970">
        <ele>678.7</ele>
        <time>2019-05-04T07:37:30Z</time>
      </trkpt>
      <trkpt lat="40.4211680" lon="-3.6700160">
        <ele>678.7</ele>
        <time>2019-05-04T07:37:31Z</time>
      </trkpt>
      <trkpt lat="40.4211580" lon="-3.6699370">
        <ele>678.6</ele>
        <time>2019-05-04T07:37:32Z</time>
      </trkpt>
      <trkpt lat="40.4211470" lon="-3.6698600">
        <ele>678.6</ele>
        <time>2019-05-04T07:37:33Z</time>
      </trkpt>
      <trkpt lat="40.4211380" lon="-3.6697840">
        <ele>678.5</ele>
        <time>2019-05-04T07:37:34Z</time>
      </trkpt>
      <trkpt lat="40.4211300" lon="-3.6697110">
        <ele>678.5</ele>
        <time>2019-05-04T07:37:35Z</time>
      </trkpt>
      <trkpt lat="40.4211250" lon="-3.6696420">
        <ele>678.4</ele>
        <time>2019-05-04T07:37:36Z</time>
      </trkpt>
      <trkpt lat="40.4211210" lon="-3.6695820">
        <ele>678.4</ele>
        <time>2019-05-04T07:37:37Z</time>
      </trkpt>
      <trkpt lat="40.4211110" lon="-3.6695330">
        <ele>678.3</ele>
        <time>2019-05-04T07:37:38Z</time>
      </trkpt>
      <trkpt lat="40.4211050" lon="-3.6694930">
        <ele>678.3</ele>
        <time>2019-05-04T07:37:39Z</time>
      </trkpt>
      <trkpt lat="40.4211050" lon="-3.6694620">
        <ele>678.3</ele>
        <time>2019-05-04T07:37:40Z</time>
      </trkpt>
      <trkpt lat="40.4211140" lon="-3.6694390">
        <ele>678.2</ele>
        <time>2019-05-04T07:37:41Z</time>
      </trkpt>
      <trkpt lat="40.4211290" lon="-3.6694230">
        <ele>678.2</ele>
        <time>2019-05-04T07:37:42Z</time>
      </trkpt>
      <trkpt lat="40.4211440" lon="-3.6694110">
        <ele>678.2</ele>
        <time>2019-05-04T07:37:43Z</time>
      </trkpt>
      <trkpt lat="40.4211570" lon="-3.6694000">
        <ele>678.2</ele>
        <time>2019-05-04T07:37:44Z</time>
      </trkpt>
      <trkpt lat="40.4211650" lon="-3.6693930">
        <ele>678.1</ele>
        <time>2019-05-04T07:37:45Z</time>
      </trkpt>
      <trkpt lat="40.4211700" lon="-3.6693890">
        <ele>678.1</ele>
        <time>2019-05-04T07:37:46Z</time>
      </trkpt>
      <trkpt lat="40.4211760" lon="-3.6693850">
        <ele>678.1</ele>
        <time>2019-05-04T07:37:47Z</time>
      </trkpt>
      <trkpt lat="40.4211840" lon="-3.6693800">
        <ele>678.1</ele>
        <time>2019-05-04T07:37:48Z</time>
      </trkpt>
      <trkpt lat="40.4211910" lon="-3.6693740">
        <ele>678.1</ele>
        <time>2019-05-04T07:37:49Z</time>
      </trkpt>
      <trkpt lat="40.4211990" lon="-3.6693680">
        <ele>678.0</ele>
        <time>2019-05-04T07:37:50Z</time>
      </trkpt>
      <trkpt lat="40.4212060" lon="-3.6693630">
        <ele>678.0</ele>
        <time>2019-05-04T07:37:51Z</time>
      </trkpt>
      <trkpt lat="40.4212130" lon="-3.6693570">
        <ele>678.0</ele>
        <time>2019-05-04T07:37:52Z</time>
      </trkpt>
      <trkpt lat="40.4212190" lon="-3.6693530">
        <ele>678.0</ele>
        <time>2019-05-04T07:37:53Z</time>
      </trkpt>
      <trkpt lat="40.4212240" lon="-3.6693490">
        <ele>677.9</ele>
        <time>2019-05-04T07:37:54Z</time>
      </trkpt>
      <trkpt lat="40.4212280" lon="-3.6693450">
        <ele>677.9</ele>
        <time>2019-05-04T07:37:55Z</time>
      </trkpt>
      <trkpt lat="40.4212320" lon="-3.6693410">
        <ele>677.9</ele>
        <time>2019-05-04T07:37:56Z</time>
      </trkpt>
      <trkpt lat="40.4212350" lon="-3.6693370">
        <ele>677.9</ele>
        <time>2019-05-04T07:37:57Z</time>
      </trkpt>
      <trkpt lat="40.4212380" lon="-3.6693340">
        <ele>677.9</ele>
        <time>2019-05-04T07:37:58Z</time>
      </trkpt>
      <trkpt lat="40.4212420" lon="-3.6693300">
        <ele>677.9</ele>
        <time>2019-05-04T07:37:59Z</time>
      </trkpt>
      <trkpt lat="40.4212460" lon="-3.6693260">
        <ele>677.8</ele>
        <time>2019-05-04T07:38:00Z</time>
      </trkpt>
      <trkpt lat="40.4212510" lon="-3.6693230">
        <ele>677.8</ele>
        <time>2019-05-04T07:38:01Z</time>
      </trkpt>
      <trkpt lat="40.4212550" lon="-3.6693200">
        <ele>677.8</ele>
        <time>2019-05-04T07:38:02Z</time>
      </trkpt>
      <trkpt lat="40.4212590" lon="-3.6693170">
        <ele>677.8</ele>
        <time>2019-05-04T07:38:03Z</time>
      </trkpt>
      <trkpt lat="40.4212630" lon="-3.6693140">
        <ele>677.7</ele>
        <time>2019-05-04T07:38:04Z</time>
      </trkpt>
      <trkpt lat="40.4212670" lon="-3.6693110">
        <ele>677.7</ele>
        <time>2019-05-04T07:38:05Z</time>
      </trkpt>
      <trkpt lat="40.4212700" lon="-3.6693080">
        <ele>677.7</ele>
        <time>2019-05-04T07:38:06Z</time>
      </trkpt>
      <trkpt lat="40.4212730" lon="-3.6693060">
        <ele>677.7</ele>
        <time>2019-05-04T07:38:07Z</time>
      </trkpt>
      <trkpt lat="40.4212760" lon="-3.6693040">
        <ele>677.7</ele>
        <time>2019-05-04T07:38:08Z</time>
      </trkpt>
      <trkpt lat="40.4212790" lon="-3.6693010">
        <ele>677.6</ele>
        <time>2019-05-04T07:38:09Z</time>
      </trkpt>
      <trkpt lat="40.4212820" lon="-3.6692980">
        <ele>677.6</ele>
        <time>2019-05-04T07:38:10Z</time>
      </trkpt>
      <trkpt lat="40.4212850" lon="-3.6692960">
        <ele>677.6</ele>
        <time>2019-05-04T07:38:11Z</time>
      </trkpt>
      <trkpt lat="40.4212870" lon="-3.6692920">
        <ele>677.6</ele>
        <time>2019-05-04T07:38:12Z</time>
      </trkpt>
      <trkpt lat="40.4212880" lon="-3.6692820">
        <ele>677.6</ele>
        <time>2019-05-04T07:38:13Z</time>
      </trkpt>
      <trkpt lat="40.4212880" lon="-3.6692650">
        <ele>677.5</ele>
        <time>2019-05-04T07:38:14Z</time>
      </trkpt>
      <trkpt lat="40.4212870" lon="-3.6692440">
        <ele>677.4</ele>
        <time>2019-05-04T07:38:15Z</time>
      </trkpt>
      <trkpt lat="40.4212840" lon="-3.6692210">
        <ele>677.2</ele>
        <time>2019-05-04T07:38:16Z</time>
      </trkpt>
      <trkpt lat="40.4212750" lon="-3.6691930">
        <ele>677.1</ele>
        <time>2019-05-04T07:38:17Z</time>
      </trkpt>
      <trkpt lat="40.4212600" lon="-3.6691570">
        <ele>676.9</ele>
        <time>2019-05-04T07:38:18Z</time>
      </trkpt>
      <trkpt lat="40.4212390" lon="-3.6691160">
        <ele>676.6</ele>
        <time>2019-05-04T07:38:19Z</time>
      </trkpt>
      <trkpt lat="40.4212160" lon="-3.6690690">
        <ele>676.4</ele>
        <time>2019-05-04T07:38:20Z</time>
      </trkpt>
      <trkpt lat="40.4211920" lon="-3.6690160">
        <ele>676.3</ele>
        <time>2019-05-04T07:38:21Z</time>
      </trkpt>
      <trkpt lat="40.4211670" lon="-3.6689580">
        <ele>676.1</ele>
        <time>2019-05-04T07:38:22Z</time>
      </trkpt>
      <trkpt lat="40.4211410" lon="-3.6688960">
        <ele>676.0</ele>
        <time>2019-05-04T07:38:23Z</time>
      </trkpt>
      <trkpt lat="40.4211150" lon="-3.6688340">
        <ele>675.9</ele>
        <time>2019-05-04T07:38:24Z</time>
      </trkpt>
      <trkpt lat="40.4210900" lon="-3.6687710">
        <ele>675.8</ele>
        <time>2019-05-04T07:38:25Z</time>
      </trkpt>
      <trkpt lat="40.4210670" lon="-3.6687050">
        <ele>675.7</ele>
        <time>2019-05-04T07:38:26Z</time>
      </trkpt>
      <trkpt lat="40.4210460" lon="-3.6686360">
        <ele>675.7</ele>
        <time>2019-05-04T07:38:27Z</time>
      </trkpt>
      <trkpt lat="40.4210260" lon="-3.6685620">
        <ele>675.6</ele>
        <time>2019-05-04T07:38:28Z</time>
      </trkpt>
      <trkpt lat="40.4210060" lon="-3.6684850">
        <ele>675.6</ele>
        <time>2019-05-04T07:38:29Z</time>
      </trkpt>
      <trkpt lat="40.4209870" lon="-3.6684080">
        <ele>675.5</ele>
        <time>2019-05-04T07:38:30Z</time>
      </trkpt>
      <trkpt lat="40.4209670" lon="-3.6683300">
        <ele>675.5</ele>
        <time>2019-05-04T07:38:31Z</time>
      </trkpt>
      <trkpt lat="40.4209480" lon="-3.6682530">
        <ele>675.4</ele>
        <time>2019-05-04T07:38:32Z</time>
      </trkpt>
      <trkpt lat="40.4209260" lon="-3.6681730">
        <ele>675.3</ele>
        <time>2019-05-04T07:38:33Z</time>
      </trkpt>
      <trkpt lat="40.4209040" lon="-3.6680910">
        <ele>675.3</ele>
        <time>2019-05-04T07:38:34Z</time>
      </trkpt>
      <trkpt lat="40.4208820" lon="-3.6680060">
        <ele>675.3</ele>
        <time>2019-05-04T07:38:35Z</time>
      </trkpt>
      <trkpt lat="40.4208620" lon="-3.6679190">
        <ele>675.2</ele>
        <time>2019-05-04T07:38:36Z</time>
      </trkpt>
      <trkpt lat="40.4208400" lon="-3.6678310">
        <ele>675.1</ele>
        <time>2019-05-04T07:38:37Z</time>
      </trkpt>
      <trkpt lat="40.4208160" lon="-3.6677380">
        <ele>675.0</ele>
        <time>2019-05-04T07:38:38Z</time>
      </trkpt>
      <trkpt lat="40.4207910" lon="-3.6676420">
        <ele>674.7</ele>
        <time>2019-05-04T07:38:39Z</time>
      </trkpt>
      <trkpt lat="40.4207650" lon="-3.6675430">
        <ele>674.4</ele>
        <time>2019-05-04T07:38:40Z</time>
      </trkpt>
      <trkpt lat="40.4207390" lon="-3.6674410">
        <ele>674.1</ele>
        <time>2019-05-04T07:38:41Z</time>
      </trkpt>
      <trkpt lat="40.4207130" lon="-3.6673360">
        <ele>673.9</ele>
        <time>2019-05-04T07:38:42Z</time>
      </trkpt>
      <trkpt lat="40.4206880" lon="-3.6672300">
        <ele>673.6</ele>
        <time>2019-05-04T07:38:43Z</time>
      </trkpt>
      <trkpt lat="40.4206630" lon="-3.6671220">
        <ele>673.4</ele>
        <time>2019-05-04T07:38:44Z</time>
      </trkpt>
      <trkpt lat="40.4206350" lon="-3.6670140">
        <ele>673.2</ele>
        <time>2019-05-04T07:38:45Z</time>
      </trkpt>
      <trkpt lat="40.4205980" lon="-3.6669080">
        <ele>673.0</ele>
        <time>2019-05-04T07:38:46Z</time>
      </trkpt>
      <trkpt lat="40.4205600" lon="-3.6668020">
        <ele>672.8</ele>
        <time>2019-05-04T07:38:47Z</time>
      </trkpt>
      <trkpt lat="40.4205210" lon="-3.6666960">
        <ele>672.6</ele>
        <time>2019-05-04T07:38:48Z</time>
      </trkpt>
      <trkpt lat="40.4204900" lon="-3.6665850">
        <ele>672.5</ele>
        <time>2019-05-04T07:38:49Z</time>
      </trkpt>
      <trkpt lat="40.4204600" lon="-3.6664740">
        <ele>672.2</ele>
        <time>2019-05-04T07:38:50Z</time>
      </trkpt>
      <trkpt lat="40.4204330" lon="-3.6663620">
        <ele>672.0</ele>
        <time>2019-05-04T07:38:51Z</time>
      </trkpt>
      <trkpt lat="40.4204080" lon="-3.6662490">
        <ele>671.8</ele>
        <time>2019-05-04T07:38:52Z</time>
      </trkpt>
      <trkpt lat="40.4203820" lon="-3.6661360">
        <ele>671.5</ele>
        <time>2019-05-04T07:38:53Z</time>
      </trkpt>
      <trkpt lat="40.4203530" lon="-3.6660240">
        <ele>671.3</ele>
        <time>2019-05-04T07:38:54Z</time>
      </trkpt>
      <trkpt lat="40.4203240" lon="-3.6659130">
        <ele>671.0</ele>
        <time>2019-05-04T07:38:55Z</time>
      </trkpt>
      <trkpt lat="40.4202950" lon="-3.6658010">
        <ele>670.6</ele>
        <time>2019-05-04T07:38:56Z</time>
      </trkpt>
      <trkpt lat="40.4202690" lon="-3.6656870">
        <ele>670.0</ele>
        <time>2019-05-04T07:38:57Z</time>
      </trkpt>
      <trkpt lat="40.4202410" lon="-3.6655700">
        <ele>669.5</ele>
        <time>2019-05-04T07:38:58Z</time>
      </trkpt>
      <trkpt lat="40.4202120" lon="-3.6654510">
        <ele>668.9</ele>
        <time>2019-05-04T07:38:59Z</time>
      </trkpt>
      <trkpt lat="40.4201810" lon="-3.6653300">
        <ele>668.2</ele>
        <time>2019-05-04T07:39:00Z</time>
      </trkpt>
      <trkpt lat="40.4201480" lon="-3.6652090">
        <ele>667.5</ele>
        <time>2019-05-04T07:39:01Z</time>
      </trkpt>
      <trkpt lat="40.4201150" lon="-3.6650880">
        <ele>666.6</ele>
        <time>2019-05-04T07:39:02Z</time>
      </trkpt>
      <trkpt lat="40.4200840" lon="-3.6649650">
        <ele>665.7</ele>
        <time>2019-05-04T07:39:03Z</time>
      </trkpt>
      <trkpt lat="40.4200530" lon="-3.6648410">
        <ele>664.7</ele>
        <time>2019-05-04T07:39:04Z</time>
      </trkpt>
      <trkpt lat="40.4200230" lon="-3.6647180">
        <ele>663.5</ele>
        <time>2019-05-04T07:39:05Z</time>
      </trkpt>
      <trkpt lat="40.4199890" lon="-3.6646020">
        <ele>662.7</ele>
        <time>2019-05-04T07:39:06Z</time>
      </trkpt>
      <trkpt lat="40.4199460" lon="-3.6645000">
        <ele>662.2</ele>
        <time>2019-05-04T07:39:07Z</time>
      </trkpt>
      <trkpt lat="40.4198940" lon="-3.6644130">
        <ele>661.8</ele>
        <time>2019-05-04T07:39:08Z</time>
      </trkpt>
      <trkpt lat="40.4198370" lon="-3.6643400">
        <ele>661.4</ele>
        <time>2019-05-04T07:39:09Z</time>
      </trkpt>
      <trkpt lat="40.4197840" lon="-3.6642890">
        <ele>661.1</ele>
        <time>2019-05-04T07:39:10Z</time>
      </trkpt>
      <trkpt lat="40.4197490" lon="-3.6642880">
        <ele>661.0</ele>
        <time>2019-05-04T07:39:11Z</time>
      </trkpt>
      <trkpt lat="40.4197270" lon="-3.6643210">
        <ele>661.1</ele>
        <time>2019-05-04T07:39:12Z</time>
      </trkpt>
      <trkpt lat="40.4197060" lon="-3.6643720">
        <ele>662.0</ele>
        <time>2019-05-04T07:39:13Z</time>
      </trkpt>
      <trkpt lat="40.4196710" lon="-3.6644090">
        <ele>662.1</ele>
        <time>2019-05-04T07:39:14Z</time>
      </trkpt>
      <trkpt lat="40.4196390" lon="-3.6644430">
        <ele>662.6</ele>
        <time>2019-05-04T07:39:15Z</time>
      </trkpt>
      <trkpt lat="40.4196290" lon="-3.6644800">
        <ele>663.1</ele>
        <time>2019-05-04T07:39:16Z</time>
      </trkpt>
      <trkpt lat="40.4196380" lon="-3.6645190">
        <ele>663.6</ele>
        <time>2019-05-04T07:39:17Z</time>
      </trkpt>
      <trkpt lat="40.4196520" lon="-3.6645570">
        <ele>664.1</ele>
        <time>2019-05-04T07:39:18Z</time>
      </trkpt>
      <trkpt lat="40.4196690" lon="-3.6645850">
        <ele>664.5</ele>
        <time>2019-05-04T07:39:19Z</time>
      </trkpt>
      <trkpt lat="40.4196970" lon="-3.6646050">
        <ele>664.6</ele>
        <time>2019-05-04T07:39:20Z</time>
      </trkpt>
      <trkpt lat="40.4197340" lon="-3.6646240">
        <ele>664.7</ele>
        <time>2019-05-04T07:39:21Z</time>
      </trkpt>
      <trkpt lat="40.4197690" lon="-3.6646520">
        <ele>665.0</ele>
        <time>2019-05-04T07:39:22Z</time>
      </trkpt>
      <trkpt lat="40.4198170" lon="-3.6646730">
        <ele>665.2</ele>
        <time>2019-05-04T07:39:23Z</time>
      </trkpt>
      <trkpt lat="40.4198740" lon="-3.6646830">
        <ele>665.3</ele>
        <time>2019-05-04T07:39:24Z</time>
      </trkpt>
      <trkpt lat="40.4199350" lon="-3.6646840">
        <ele>665.4</ele>
        <time>2019-05-04T07:39:25Z</time>
      </trkpt>
      <trkpt lat="40.4199880" lon="-3.6646840">
        <ele>665.5</ele>
        <time>2019-05-04T07:39:26Z</time>
      </trkpt>
      <trkpt lat="40.4200390" lon="-3.6646820">
        <ele>665.7</ele>
        <time>2019-05-04T07:39:27Z</time>
      </trkpt>
      <trkpt lat="40.4200870" lon="-3.6646750">
        <ele>665.5</ele>
        <time>2019-05-04T07:39:28Z</time>
      </trkpt>
      <trkpt lat="40.4201330" lon="-3.6646690">
        <ele>665.4</ele>
        <time>2019-05-04T07:39:29Z</time>
      </trkpt>
      <trkpt lat="40.4201800" lon="-3.6646600">
        <ele>665.2</ele>
        <time>2019-05-04T07:39:30Z</time>
      </trkpt>
      <trkpt lat="40.4202340" lon="-3.6646530">
        <ele>665.1</ele>
        <time>2019-05-04T07:39:31Z</time>
      </trkpt>
      <trkpt lat="40.4202890" lon="-3.6646320">
        <ele>664.9</ele>
        <time>2019-05-04T07:39:32Z</time>
      </trkpt>
      <trkpt lat="40.4203510" lon="-3.6645980">
        <ele>664.8</ele>
        <time>2019-05-04T07:39:33Z</time>
      </trkpt>
      <trkpt lat="40.4204060" lon="-3.6645490">
        <ele>664.8</ele>
        <time>2019-05-04T07:39:34Z</time>
      </trkpt>
      <trkpt lat="40.4204630" lon="-3.6644950">
        <ele>664.8</ele>
        <time>2019-05-04T07:39:35Z</time>
      </trkpt>
      <trkpt lat="40.4205210" lon="-3.6644310">
        <ele>664.8</ele>
        <time>2019-05-04T07:39:36Z</time>
      </trkpt>
      <trkpt lat="40.4205790" lon="-3.6643550">
        <ele>664.8</ele>
        <time>2019-05-04T07:39:37Z</time>
      </trkpt>
      <trkpt lat="40.4206310" lon="-3.6642690">
        <ele>664.6</ele>
        <time>2019-05-04T07:39:38Z</time>
      </trkpt>
      <trkpt lat="40.4206740" lon="-3.6641780">
        <ele>664.4</ele>
        <time>2019-05-04T07:39:39Z</time>
      </trkpt>
      <trkpt lat="40.4207140" lon="-3.6640820">
        <ele>664.0</ele>
        <time>2019-05-04T07:39:40Z</time>
      </trkpt>
      <trkpt lat="40.4207540" lon="-3.6639820">
        <ele>663.6</ele>
        <time>2019-05-04T07:39:41Z</time>
      </trkpt>
      <trkpt lat="40.4207910" lon="-3.6638780">
        <ele>663.2</ele>
        <time>2019-05-04T07:39:42Z</time>
      </trkpt>
      <trkpt lat="40.4208280" lon="-3.6637690">
        <ele>663.0</ele>
        <time>2019-05-04T07:39:43Z</time>
      </trkpt>
      <trkpt lat="40.4208600" lon="-3.6636570">
        <ele>662.9</ele>
        <time>2019-05-04T07:39:44Z</time>
      </trkpt>
      <trkpt lat="40.4208930" lon="-3.6635430">
        <ele>662.8</ele>
        <time>2019-05-04T07:39:45Z</time>
      </trkpt>
      <trkpt lat="40.4209220" lon="-3.6634280">
        <ele>662.8</ele>
        <time>2019-05-04T07:39:46Z</time>
      </trkpt>
      <trkpt lat="40.4209530" lon="-3.6633130">
        <ele>662.8</ele>
        <time>2019-05-04T07:39:47Z</time>
      </trkpt>
      <trkpt lat="40.4209820" lon="-3.6631990">
        <ele>662.7</ele>
        <time>2019-05-04T07:39:48Z</time>
      </trkpt>
      <trkpt lat="40.4210110" lon="-3.6630870">
        <ele>662.5</ele>
        <time>2019-05-04T07:39:49Z</time>
      </trkpt>
      <trkpt lat="40.4210390" lon="-3.6629760">
        <ele>662.1</ele>
        <time>2019-05-04T07:39:50Z</time>
      </trkpt>
      <trkpt lat="40.4210660" lon="-3.6628640">
        <ele>661.8</ele>
        <time>2019-05-04T07:39:51Z</time>
      </trkpt>
      <trkpt lat="40.4210900" lon="-3.6627490">
        <ele>661.4</ele>
        <time>2019-05-04T07:39:52Z</time>
      </trkpt>
      <trkpt lat="40.4211130" lon="-3.6626360">
        <ele>661.0</ele>
        <time>2019-05-04T07:39:53Z</time>
      </trkpt>
      <trkpt lat="40.4211340" lon="-3.6625230">
        <ele>660.7</ele>
        <time>2019-05-04T07:39:54Z</time>
      </trkpt>
      <trkpt lat="40.4211550" lon="-3.6624110">
        <ele>659.9</ele>
        <time>2019-05-04T07:39:55Z</time>
      </trkpt>
      <trkpt lat="40.4211740" lon="-3.6623000">
        <ele>659.0</ele>
        <time>2019-05-04T07:39:56Z</time>
      </trkpt>
      <trkpt lat="40.4211930" lon="-3.6621930">
        <ele>658.1</ele>
        <time>2019-05-04T07:39:57Z</time>
      </trkpt>
      <trkpt lat="40.4212110" lon="-3.6620910">
        <ele>657.1</ele>
        <time>2019-05-04T07:39:58Z</time>
      </trkpt>
      <trkpt lat="40.4212260" lon="-3.6619970">
        <ele>656.2</ele>
        <time>2019-05-04T07:39:59Z</time>
      </trkpt>
      <trkpt lat="40.4212390" lon="-3.6619140">
        <ele>655.5</ele>
        <time>2019-05-04T07:40:00Z</time>
      </trkpt>
      <trkpt lat="40.4212490" lon="-3.6618410">
        <ele>654.9</ele>
        <time>2019-05-04T07:40:01Z</time>
      </trkpt>
      <trkpt lat="40.4212600" lon="-3.6617760">
        <ele>654.4</ele>
        <time>2019-05-04T07:40:02Z</time>
      </trkpt>
      <trkpt lat="40.4212690" lon="-3.6617180">
        <ele>654.0</ele>
        <time>2019-05-04T07:40:03Z</time>
      </trkpt>
      <trkpt lat="40.4212770" lon="-3.6616700">
        <ele>653.7</ele>
        <time>2019-05-04T07:40:04Z</time>
      </trkpt>
      <trkpt lat="40.4212840" lon="-3.6616270">
        <ele>653.4</ele>
        <time>2019-05-04T07:40:05Z</time>
      </trkpt>
      <trkpt lat="40.4212890" lon="-3.6615850">
        <ele>653.1</ele>
        <time>2019-05-04T07:40:06Z</time>
      </trkpt>
      <trkpt lat="40.4212950" lon="-3.6615390">
        <ele>652.8</ele>
        <time>2019-05-04T07:40:07Z</time>
      </trkpt>
      <trkpt lat="40.4213010" lon="-3.6614910">
        <ele>652.5</ele>
        <time>2019-05-04T07:40:08Z</time>
      </trkpt>
      <trkpt lat="40.4213080" lon="-3.6614390">
        <ele>652.2</ele>
        <time>2019-05-04T07:40:09Z</time>
      </trkpt>
      <trkpt lat="40.4213150" lon="-3.6613790">
        <ele>651.9</ele>
        <time>2019-05-04T07:40:10Z</time>
      </trkpt>
      <trkpt lat="40.4213220" lon="-3.6613110">
        <ele>651.7</ele>
        <time>2019-05-04T07:40:11Z</time>
      </trkpt>
      <trkpt lat="40.4213280" lon="-3.6612300">
        <ele>651.1</ele>
        <time>2019-05-04T07:40:12Z</time>
      </trkpt>
      <trkpt lat="40.4213330" lon="-3.6611410">
        <ele>650.7</ele>
        <time>2019-05-04T07:40:13Z</time>
      </trkpt>
      <trkpt lat="40.4213330" lon="-3.6610460">
        <ele>650.0</ele>
        <time>2019-05-04T07:40:14Z</time>
      </trkpt>
      <trkpt lat="40.4213300" lon="-3.6609490">
        <ele>649.5</ele>
        <time>2019-05-04T07:40:15Z</time>
      </trkpt>
      <trkpt lat="40.4213230" lon="-3.6608510">
        <ele>649.0</ele>
        <time>2019-05-04T07:40:16Z</time>
      </trkpt>
      <trkpt lat="40.4213150" lon="-3.6607520">
        <ele>648.4</ele>
        <time>2019-05-04T07:40:17Z</time>
      </trkpt>
      <trkpt lat="40.4213080" lon="-3.6606510">
        <ele>647.9</ele>
        <time>2019-05-04T07:40:18Z</time>
      </trkpt>
      <trkpt lat="40.4213030" lon="-3.6605510">
        <ele>647.4</ele>
        <time>2019-05-04T07:40:19Z</time>
      </trkpt>
      <trkpt lat="40.4213030" lon="-3.6604530">
        <ele>647.0</ele>
        <time>2019-05-04T07:40:20Z</time>
      </trkpt>
      <trkpt lat="40.4213040" lon="-3.6603570">
        <ele>646.5</ele>
        <time>2019-05-04T07:40:21Z</time>
      </trkpt>
      <trkpt lat="40.4213050" lon="-3.6602600">
        <ele>646.1</ele>
        <time>2019-05-04T07:40:22Z</time>
      </trkpt>
      <trkpt lat="40.4213050" lon="-3.6601620">
        <ele>645.5</ele>
        <time>2019-05-04T07:40:23Z</time>
      </trkpt>
      <trkpt lat="40.4213050" lon="-3.6600630">
        <ele>645.0</ele>
        <time>2019-05-04T07:40:24Z</time>
      </trkpt>
      <trkpt lat="40.4213070" lon="-3.6599650">
        <ele>644.2</ele>
        <time>2019-05-04T07:40:25Z</time>
      </trkpt>
      <trkpt lat="40.4213110" lon="-3.6598700">
        <ele>643.8</ele>
        <time>2019-05-04T07:40:26Z</time>
      </trkpt>
      <trkpt lat="40.4213160" lon="-3.6597760">
        <ele>643.5</ele>
        <time>2019-05-04T07:40:27Z</time>
      </trkpt>
      <trkpt lat="40.4213200" lon="-3.6596830">
        <ele>643.1</ele>
        <time>2019-05-04T07:40:28Z</time>
      </trkpt>
      <trkpt lat="40.4213230" lon="-3.6595900">
        <ele>642.8</ele>
        <time>2019-05-04T07:40:29Z</time>
      </trkpt>
      <trkpt lat="40.4213260" lon="-3.6594990">
        <ele>642.5</ele>
        <time>2019-05-04T07:40:30Z</time>
      </trkpt>
      <trkpt lat="40.4213300" lon="-3.6594080">
        <ele>642.4</ele>
        <time>2019-05-04T07:40:31Z</time>
      </trkpt>
      <trkpt lat="40.4213330" lon="-3.6593170">
        <ele>642.2</ele>
        <time>2019-05-04T07:40:32Z</time>
      </trkpt>
      <trkpt lat="40.4213360" lon="-3.6592250">
        <ele>642.1</ele>
        <time>2019-05-04T07:40:33Z</time>
      </trkpt>
      <trkpt lat="40.4213390" lon="-3.6591340">
        <ele>641.9</ele>
        <time>2019-05-04T07:40:34Z</time>
      </trkpt>
      <trkpt lat="40.4213420" lon="-3.6590420">
        <ele>641.8</ele>
        <time>2019-05-04T07:40:35Z</time>
      </trkpt>
      <trkpt lat="40.4213440" lon="-3.6589500">
        <ele>641.7</ele>
        <time>2019-05-04T07:40:36Z</time>
      </trkpt>
      <trkpt lat="40.4213470" lon="-3.6588580">
        <ele>641.5</ele>
        <time>2019-05-04T07:40:37Z</time>
      </trkpt>
      <trkpt lat="40.4213500" lon="-3.6587660">
        <ele>641.4</ele>
        <time>2019-05-04T07:40:38Z</time>
      </trkpt>
      <trkpt lat="40.4213540" lon="-3.6586760">
        <ele>641.2</ele>
        <time>2019-05-04T07:40:39Z</time>
      </trkpt>
      <trkpt lat="40.4213570" lon="-3.6585870">
        <ele>641.1</ele>
        <time>2019-05-04T07:40:40Z</time>
      </trkpt>
      <trkpt lat="40.4213620" lon="-3.6585000">
        <ele>640.9</ele>
        <time>2019-05-04T07:40:41Z</time>
      </trkpt>
      <trkpt lat="40.4213680" lon="-3.6584150">
        <ele>640.9</ele>
        <time>2019-05-04T07:40:42Z</time>
      </trkpt>
      <trkpt lat="40.4213750" lon="-3.6583340">
        <ele>641.1</ele>
        <time>2019-05-04T07:40:43Z</time>
      </trkpt>
      <trkpt lat="40.4213830" lon="-3.6582560">
        <ele>641.4</ele>
        <time>2019-05-04T07:40:44Z</time>
      </trkpt>
      <trkpt lat="40.4213930" lon="-3.6581780">
        <ele>641.6</ele>
        <time>2019-05-04T07:40:45Z</time>
      </trkpt>
      <trkpt lat="40.4214060" lon="-3.6580990">
        <ele>641.9</ele>
        <time>2019-05-04T07:40:46Z</time>
      </trkpt>
      <trkpt lat="40.4214210" lon="-3.6580200">
        <ele>642.1</ele>
        <time>2019-05-04T07:40:47Z</time>
      </trkpt>
      <trkpt lat="40.4214390" lon="-3.6579400">
        <ele>642.4</ele>
        <time>2019-05-04T07:40:48Z</time>
      </trkpt>
      <trkpt lat="40.4214580" lon="-3.6578620">
        <ele>642.7</ele>
        <time>2019-05-04T07:40:49Z</time>
      </trkpt>
      <trkpt lat="40.4214800" lon="-3.6577830">
        <ele>643.0</ele>
        <time>2019-05-04T07:40:50Z</time>
      </trkpt>
      <trkpt lat="40.4215030" lon="-3.6577060">
        <ele>643.3</ele>
        <time>2019-05-04T07:40:51Z</time>
      </trkpt>
      <trkpt lat="40.4215280" lon="-3.6576310">
        <ele>643.6</ele>
        <time>2019-05-04T07:40:52Z</time>
      </trkpt>
      <trkpt lat="40.4215530" lon="-3.6575590">
        <ele>643.9</ele>
        <time>2019-05-04T07:40:53Z</time>
      </trkpt>
      <trkpt lat="40.4215780" lon="-3.6574910">
        <ele>644.2</ele>
        <time>2019-05-04T07:40:54Z</time>
      </trkpt>
      <trkpt lat="40.4216040" lon="-3.6574260">
        <ele>644.4</ele>
        <time>2019-05-04T07:40:55Z</time>
      </trkpt>
      <trkpt lat="40.4216330" lon="-3.6573660">
        <ele>644.7</ele>
        <time>2019-05-04T07:40:56Z</time>
      </trkpt>
      <trkpt lat="40.4216640" lon="-3.6573080">
        <ele>644.9</ele>
        <time>2019-05-04T07:40:57Z</time>
      </trkpt>
      <trkpt lat="40.4216880" lon="-3.6572540">
        <ele>645.1</ele>
        <time>2019-05-04T07:40:58Z</time>
      </trkpt>
      <trkpt lat="40.4216970" lon="-3.6572000">
        <ele>645.3</ele>
        <time>2019-05-04T07:40:59Z</time>
      </trkpt>
      <trkpt lat="40.4216860" lon="-3.6571510">
        <ele>645.5</ele>
        <time>2019-05-04T07:41:00Z</time>
      </trkpt>
      <trkpt lat="40.4216660" lon="-3.6571080">
        <ele>645.9</ele>
        <time>2019-05-04T07:41:01Z</time>
      </trkpt>
      <trkpt lat="40.4216460" lon="-3.6570730">
        <ele>645.9</ele>
        <time>2019-05-04T07:41:02Z</time>
      </trkpt>
      <trkpt lat="40.4216270" lon="-3.6570440">
        <ele>646.0</ele>
        <time>2019-05-04T07:41:03Z</time>
      </trkpt>
      <trkpt lat="40.4216060" lon="-3.6570180">
        <ele>646.1</ele>
        <time>2019-05-04T07:41:04Z</time>
      </trkpt>
      <trkpt lat="40.4215830" lon="-3.6569920">
        <ele>646.1</ele>
        <time>2019-05-04T07:41:05Z</time>
      </trkpt>
      <trkpt lat="40.4215640" lon="-3.6569580">
        <ele>646.2</ele>
        <time>2019-05-04T07:41:06Z</time>
      </trkpt>
      <trkpt lat="40.4215550" lon="-3.6569170">
        <ele>646.3</ele>
        <time>2019-05-04T07:41:07Z</time>
      </trkpt>
      <trkpt lat="40.4215600" lon="-3.6568760">
        <ele>646.4</ele>
        <time>2019-05-04T07:41:08Z</time>
      </trkpt>
      <trkpt lat="40.4215700" lon="-3.6568380">
        <ele>646.5</ele>
        <time>2019-05-04T07:41:09Z</time>
      </trkpt>
      <trkpt lat="40.4215790" lon="-3.6568000">
        <ele>646.6</ele>
        <time>2019-05-04T07:41:10Z</time>
      </trkpt>
      <trkpt lat="40.4215830" lon="-3.6567550">
        <ele>646.8</ele>
        <time>2019-05-04T07:41:11Z</time>
      </trkpt>
      <trkpt lat="40.4215870" lon="-3.6567040">
        <ele>646.9</ele>
        <time>2019-05-04T07:41:12Z</time>
      </trkpt>
      <trkpt lat="40.4215910" lon="-3.6566500">
        <ele>647.1</ele>
        <time>2019-05-04T07:41:13Z</time>
      </trkpt>
      <trkpt lat="40.4215970" lon="-3.6565970">
        <ele>647.2</ele>
        <time>2019-05-04T07:41:14Z</time>
      </trkpt>
      <trkpt lat="40.4216030" lon="-3.6565480">
        <ele>647.4</ele>
        <time>2019-05-04T07:41:15Z</time>
      </trkpt>
      <trkpt lat="40.4216090" lon="-3.6565030">
        <ele>647.5</ele>
        <time>2019-05-04T07:41:16Z</time>
      </trkpt>
      <trkpt lat="40.4216100" lon="-3.6564620">
        <ele>647.6</ele>
        <time>2019-05-04T07:41:17Z</time>
      </trkpt>
      <trkpt lat="40.4216060" lon="-3.6564230">
        <ele>647.7</ele>
        <time>2019-05-04T07:41:18Z</time>
      </trkpt>
      <trkpt lat="40.4215940" lon="-3.6563850">
        <ele>647.9</ele>
        <time>2019-05-04T07:41:19Z</time>
      </trkpt>
      <trkpt lat="40.4215780" lon="-3.6563510">
        <ele>648.0</ele>
        <time>2019-05-04T07:41:20Z</time>
      </trkpt>
      <trkpt lat="40.4215610" lon="-3.6563200">
        <ele>648.1</ele>
        <time>2019-05-04T07:41:21Z</time>
      </trkpt>
      <trkpt lat="40.4215450" lon="-3.6562930">
        <ele>648.2</ele>
        <time>2019-05-04T07:41:22Z</time>
      </trkpt>
      <trkpt lat="40.4215330" lon="-3.6562650">
        <ele>648.3</ele>
        <time>2019-05-04T07:41:23Z</time>
      </trkpt>
      <trkpt lat="40.4215210" lon="-3.6562370">
        <ele>648.4</ele>
        <time>2019-05-04T07:41:24Z</time>
      </trkpt>
      <trkpt lat="40.4215070" lon="-3.6562110">
        <ele>648.5</ele>
        <time>2019-05-04T07:41:25Z</time>
      </trkpt>
      <trkpt lat="40.4214890" lon="-3.6561880">
        <ele>648.6</ele>
        <time>2019-05-04T07:41:26Z</time>
      </trkpt>
      <trkpt lat="40.4214700" lon="-3.6561680">
        <ele>648.9</ele>
        <time>2019-05-04T07:41:27Z</time>
      </trkpt>
      <trkpt lat="40.4214520" lon="-3.6561480">
        <ele>649.1</ele>
        <time>2019-05-04T07:41:28Z</time>
      </trkpt>
      <trkpt lat="40.4214340" lon="-3.6561290">
        <ele>649.2</ele>
        <time>2019-05-04T07:41:29Z</time>
      </trkpt>
      <trkpt lat="40.4214130" lon="-3.6561120">
        <ele>649.4</ele>
        <time>2019-05-04T07:41:30Z</time>
      </trkpt>
      <trkpt lat="40.4212380" lon="-3.6559470">
        <ele>650.8</ele>
        <time>2019-05-04T07:41:36Z</time>
      </trkpt>
      <trkpt lat="40.4212110" lon="-3.6559170">
        <ele>650.9</ele>
        <time>2019-05-04T07:41:37Z</time>
      </trkpt>
      <trkpt lat="40.4211800" lon="-3.6558800">
        <ele>651.2</ele>
        <time>2019-05-04T07:41:38Z</time>
      </trkpt>
      <trkpt lat="40.4211480" lon="-3.6558400">
        <ele>651.4</ele>
        <time>2019-05-04T07:41:39Z</time>
      </trkpt>
      <trkpt lat="40.4211180" lon="-3.6558070">
        <ele>651.6</ele>
        <time>2019-05-04T07:41:40Z</time>
      </trkpt>
      <trkpt lat="40.4210920" lon="-3.6557800">
        <ele>651.8</ele>
        <time>2019-05-04T07:41:41Z</time>
      </trkpt>
      <trkpt lat="40.4210690" lon="-3.6557580">
        <ele>651.9</ele>
        <time>2019-05-04T07:41:42Z</time>
      </trkpt>
    </trkseg>
  </trk>
</gpx>
